
Distance (Route):
Temperature : 17.5°C
Humidity : 63.8%
Pressure : 978.7hPa| Receiver | Frames | First received | Last received |
|---|---|---|---|
| OE5MMP-10 | 863 | 2026-08-31 23:06:30 | 2026-09-01 02:04:38 |
| OE5WHR-10 | 679 | 2026-08-31 23:01:14 | 2026-09-01 02:14:56 |
| DO3MHA-11 | 569 | 2026-08-31 22:45:55 | 2026-09-01 01:53:20 |
| OE5DRO-10 | 558 | 2026-08-31 22:58:24 | 2026-09-01 02:15:13 |
| OE3JTB-15 | 532 | 2026-08-31 22:55:48 | 2026-09-01 02:15:24 |
| BAUMI2-15 | 446 | 2026-08-31 23:22:05 | 2026-09-01 01:06:37 |
| OE5HKT-10 | 363 | 2026-08-31 23:24:14 | 2026-09-01 02:09:09 |
| OE5DXL-15 | 310 | 2026-08-31 22:49:24 | 2026-09-01 02:03:49 |
| PG1ADW-2 | 301 | 2026-08-31 23:02:26 | 2026-09-01 02:12:59 |
| OE5FHM-15 | 273 | 2026-08-31 23:15:09 | 2026-09-01 02:03:40 |
| OE5REO-15 | 222 | 2026-08-31 23:28:37 | 2026-09-01 01:45:09 |
| DG1MFX-10 | 177 | 2026-08-31 22:47:17 | 2026-09-01 01:38:06 |
| DL6DJ-15 | 139 | 2026-08-31 22:50:58 | 2026-09-01 01:23:48 |
| DO7DH-14 | 104 | 2026-08-31 23:26:14 | 2026-09-01 00:47:41 |
| OE8JPQ-2 | 93 | 2026-08-31 23:48:03 | 2026-09-01 00:49:19 |
| DF3TZ-5 | 60 | 2026-08-31 23:01:11 | 2026-09-01 01:11:37 |
| PETON7-10 | 55 | 2026-08-31 23:48:12 | 2026-09-01 00:47:33 |
| OM5KV | 43 | 2026-09-01 01:39:28 | 2026-09-01 01:49:57 |
| S52SK | 30 | 2026-08-31 23:26:59 | 2026-09-01 01:37:34 |
| DB0UT-7 | 21 | 2026-08-31 23:05:26 | 2026-09-01 01:10:28 |
| DB0ND-19 | 12 | 2026-08-31 22:57:20 | 2026-09-01 01:14:55 |
| DF7PN | 11 | 2026-09-01 00:12:59 | 2026-09-01 00:56:59 |
| DH7VM-15 | 6 | 2026-08-31 23:25:08 | 2026-09-01 00:59:03 |
| DK5PH-5 | 5 | 2026-09-01 00:16:24 | 2026-09-01 01:08:32 |
| NBG1-10 | 1 | 2026-08-31 23:01:23 | 2026-08-31 23:01:23 |
| Receiver | Date | Latitude | Longitude | Direction | Speed | Altitude | Climb | Temperature | Humidity | Pressure | Voltage | Killtimer | Uptime | BKT | XDATA |
|---|---|---|---|---|---|---|---|---|---|---|---|---|---|---|---|
| OE3JTB-15 | 2026-09-01 02:15:24 | 48.17296 | 14.39518 | 102° | 22km/h | 381m | -2.5m/s | 17.5°C | 63.8% | 978.7hPa | 2.7V | 06:47:00 | 00:00:00 | 00:00:00 | |
| OE3JTB-15 | 2026-09-01 02:15:22 | 48.17299 | 14.39501 | 109° | 22km/h | 385m | -2.7m/s | 17.7°C | 62.8% | 978.2hPa | 2.7V | 00:00:00 | 00:00:00 | 00:00:00 | |
| OE3JTB-15 | 2026-09-01 02:15:20 | 48.17302 | 14.39485 | 102° | 20km/h | 390m | -2.3m/s | 17.6°C | 63.2% | 977.7hPa | 2.7V | 00:00:00 | 03:45:51 | 00:00:00 | |
| OE3JTB-15 | 2026-09-01 02:15:18 | 48.17302 | 14.39469 | 85° | 20km/h | 394m | -2.2m/s | 17.6°C | 63.3% | 977.2hPa | 2.7V | 00:00:00 | 00:00:00 | 00:00:00 | |
| OE3JTB-15 | 2026-09-01 02:15:16 | 48.17301 | 14.39454 | 83° | 22km/h | 399m | -2.4m/s | 17.6°C | 63.1% | 976.8hPa | 2.7V | 00:00:00 | 00:00:00 | 00:00:00 | |
| OE3JTB-15 | 2026-09-01 02:15:14 | 48.17298 | 14.39437 | 79° | 24km/h | 404m | -2.4m/s | 17.5°C | 63.6% | 976.3hPa | 2.7V | 00:00:00 | 03:45:45 | 00:00:00 | |
| OE5DRO-10 | 2026-09-01 02:15:13 | 48.17297 | 14.39428 | 78° | 26km/h | 406m | -2.7m/s | 17.5°C | 63.7% | 975.9hPa | 2.7V | 00:00:00 | 00:00:00 | 00:00:00 | |
| OE3JTB-15 | 2026-09-01 02:15:12 | 48.17296 | 14.39418 | 88° | 26km/h | 408m | -2.8m/s | 17.5°C | 63.8% | 975.7hPa | 2.7V | 00:00:00 | 00:00:00 | 00:00:00 | |
| OE5DRO-10 | 2026-09-01 02:15:11 | 48.17296 | 14.39409 | 85° | 26km/h | 411m | -2.5m/s | 17.5°C | 63.0% | 975.3hPa | 2.7V | 00:00:00 | 00:00:00 | 00:00:00 | |
| OE3JTB-15 | 2026-09-01 02:15:10 | 48.17295 | 14.39399 | 89° | 26km/h | 413m | -2.5m/s | 17.5°C | 63.3% | 975.1hPa | 2.7V | 06:47:00 | 00:00:00 | 00:00:00 | |
| OE5DRO-10 | 2026-09-01 02:15:09 | 48.17295 | 14.39388 | 91° | 26km/h | 415m | -2.3m/s | 17.5°C | 63.1% | 974.9hPa | 2.7V | 00:00:00 | 00:00:00 | 00:00:00 | |
| OE3JTB-15 | 2026-09-01 02:15:08 | 48.17296 | 14.39379 | 101° | 26km/h | 417m | -2.3m/s | 17.5°C | 63.3% | 974.4hPa | 2.7V | 00:00:00 | 03:45:39 | 00:00:00 | |
| OE5DRO-10 | 2026-09-01 02:15:07 | 48.17297 | 14.39369 | 103° | 26km/h | 418m | -2.4m/s | 17.5°C | 62.9% | 974.3hPa | 2.7V | 06:47:00 | 00:00:00 | 00:00:00 | |
| OE3JTB-15 | 2026-09-01 02:15:06 | 48.17299 | 14.39360 | 106° | 26km/h | 421m | -2.4m/s | 17.6°C | 62.4% | 974.1hPa | 2.7V | 00:00:00 | 00:00:00 | 00:00:00 | |
| OE5DRO-10 | 2026-09-01 02:15:05 | 48.17301 | 14.39351 | 106° | 24km/h | 422m | -2.2m/s | 17.5°C | 63.0% | 973.8hPa | 2.7V | 00:00:00 | 00:00:00 | 00:00:00 | |
| OE3JTB-15 | 2026-09-01 02:15:04 | 48.17302 | 14.39342 | 110° | 24km/h | 424m | -2.3m/s | 17.5°C | 63.1% | 973.8hPa | 2.7V | 00:00:00 | 00:00:00 | 00:00:00 | |
| OE3JTB-15 | 2026-09-01 02:15:02 | 48.17305 | 14.39325 | 99° | 24km/h | 427m | -2.8m/s | 17.5°C | 63.1% | 973.1hPa | 2.7V | 00:00:00 | 03:45:33 | 00:00:00 | |
| OE5DRO-10 | 2026-09-01 02:15:01 | 48.17305 | 14.39317 | 92° | 24km/h | 429m | -2.5m/s | 17.5°C | 63.1% | 973.0hPa | 2.7V | 00:00:00 | 00:00:00 | 00:00:00 | |
| OE3JTB-15 | 2026-09-01 02:15:00 | 48.17305 | 14.39308 | 92° | 26km/h | 432m | -2.7m/s | 17.5°C | 62.9% | 972.7hPa | 2.7V | 00:00:00 | 00:00:00 | 00:00:00 | |
| OE5DRO-10 | 2026-09-01 02:14:59 | 48.17305 | 14.39299 | 87° | 26km/h | 434m | -2.5m/s | 17.4°C | 63.1% | 972.4hPa | 2.7V | 00:00:00 | 00:00:00 | 00:00:00 | |
| OE3JTB-15 | 2026-09-01 02:14:58 | 48.17305 | 14.39289 | 85° | 26km/h | 436m | -2.4m/s | 17.5°C | 62.8% | 972.3hPa | 2.7V | 00:00:00 | 00:00:00 | 00:00:00 | |
| OE5DRO-10 | 2026-09-01 02:14:57 | 48.17304 | 14.39279 | 80° | 27km/h | 438m | -3.0m/s | 17.5°C | 62.5% | 971.8hPa | 2.7V | 00:00:00 | 00:00:00 | 00:00:00 | |
| OE3JTB-15 | 2026-09-01 02:14:56 | 48.17303 | 14.39269 | 80° | 31km/h | 441m | -2.7m/s | 17.5°C | 62.4% | 971.6hPa | 2.7V | 06:47:00 | 03:45:27 | 00:00:00 | |
| OE5WHR-10 | 2026-09-01 02:14:56 | 48.17303 | 14.39269 | 80° | 29km/h | 441m | -2.7m/s | 17.5°C | 62.4% | 971.6hPa | 2.7V | 00:00:00 | 00:00:00 | 00:00:00 | |
| OE5DRO-10 | 2026-09-01 02:14:55 | 48.17301 | 14.39258 | 82° | 31km/h | 443m | -2.9m/s | 17.5°C | 62.3% | 971.3hPa | 2.7V | 00:00:00 | 00:00:00 | 00:00:00 | |
| OE3JTB-15 | 2026-09-01 02:14:54 | 48.17300 | 14.39246 | 86° | 29km/h | 446m | -2.8m/s | 17.5°C | 62.6% | 971.0hPa | 2.7V | 00:00:00 | 00:00:00 | 00:00:00 | |
| OE5DRO-10 | 2026-09-01 02:14:53 | 48.17300 | 14.39234 | 90° | 31km/h | 448m | -3.4m/s | 17.4°C | 63.0% | 970.8hPa | 2.7V | 06:47:00 | 00:00:00 | 00:00:00 | |
| OE3JTB-15 | 2026-09-01 02:14:52 | 48.17300 | 14.39223 | 90° | 31km/h | 451m | -3.3m/s | 17.4°C | 62.7% | 970.6hPa | 2.7V | 00:00:00 | 00:00:00 | 00:00:00 | |
| OE5DRO-10 | 2026-09-01 02:14:51 | 48.17300 | 14.39212 | 90° | 31km/h | 454m | -3.6m/s | 17.4°C | 62.3% | 970.0hPa | 2.7V | 00:00:00 | 00:00:00 | 00:00:00 | |
| OE3JTB-15 | 2026-09-01 02:14:50 | 48.17300 | 14.39200 | 87° | 31km/h | 458m | -3.2m/s | 17.5°C | 62.2% | 969.8hPa | 2.7V | 00:00:00 | 03:45:21 | 00:00:00 | |
| OE5DRO-10 | 2026-09-01 02:14:49 | 48.17299 | 14.39188 | 89° | 33km/h | 460m | -3.5m/s | 17.5°C | 61.7% | 969.6hPa | 2.7V | 00:00:00 | 00:00:00 | 00:00:00 | |
| OE3JTB-15 | 2026-09-01 02:14:48 | 48.17299 | 14.39175 | 92° | 35km/h | 464m | -3.2m/s | 17.6°C | 61.4% | 969.2hPa | 2.7V | 00:00:00 | 00:00:00 | 00:00:00 | |
| OE5DRO-10 | 2026-09-01 02:14:47 | 48.17300 | 14.39162 | 93° | 37km/h | 467m | -3.1m/s | 17.5°C | 61.7% | 968.9hPa | 2.7V | 00:00:00 | 00:00:00 | 00:00:00 | |
| OE3JTB-15 | 2026-09-01 02:14:46 | 48.17300 | 14.39148 | 90° | 37km/h | 470m | -3.1m/s | 17.6°C | 61.3% | 968.5hPa | 2.7V | 00:00:00 | 00:00:00 | 00:00:00 | |
| OE5DRO-10 | 2026-09-01 02:14:45 | 48.17300 | 14.39134 | 90° | 37km/h | 473m | -3.5m/s | 17.6°C | 60.9% | 968.2hPa | 2.7V | 00:00:00 | 00:00:00 | 00:00:00 | |
| OE5WHR-10 | 2026-09-01 02:14:45 | 48.17300 | 14.39134 | 90° | 35km/h | 473m | -3.5m/s | 17.6°C | 60.9% | 968.2hPa | 2.7V | 00:00:00 | 03:45:16 | 00:00:00 | |
| OE3JTB-15 | 2026-09-01 02:14:44 | 48.17300 | 14.39120 | 92° | 37km/h | 476m | -3.7m/s | 17.6°C | 61.1% | 967.9hPa | 2.7V | 00:00:00 | 03:45:15 | 00:00:00 | |
| OE5DRO-10 | 2026-09-01 02:14:43 | 48.17301 | 14.39106 | 94° | 37km/h | 480m | -3.1m/s | 17.6°C | 61.1% | 967.6hPa | 2.7V | 00:00:00 | 00:00:00 | 00:00:00 | |
| OE3JTB-15 | 2026-09-01 02:14:42 | 48.17302 | 14.39093 | 96° | 37km/h | 483m | -3.1m/s | 17.5°C | 61.2% | 967.4hPa | 2.7V | 06:47:00 | 00:00:00 | 00:00:00 | |
| OE5DRO-10 | 2026-09-01 02:14:41 | 48.17303 | 14.39080 | 98° | 37km/h | 486m | -2.8m/s | 17.5°C | 61.6% | 967.0hPa | 2.7V | 00:00:00 | 00:00:00 | 00:00:00 | |
| OE3JTB-15 | 2026-09-01 02:14:40 | 48.17305 | 14.39066 | 104° | 35km/h | 489m | -2.3m/s | 17.4°C | 61.9% | 966.7hPa | 2.7V | 00:00:00 | 00:00:00 | 00:00:00 | |
| OE5DRO-10 | 2026-09-01 02:14:39 | 48.17307 | 14.39053 | 104° | 33km/h | 491m | -1.7m/s | 17.4°C | 61.5% | 966.5hPa | 2.7V | 06:47:00 | 00:00:00 | 00:00:00 | |
| OE3JTB-15 | 2026-09-01 02:14:38 | 48.17308 | 14.39041 | 104° | 33km/h | 493m | -2.4m/s | 17.4°C | 61.6% | 966.3hPa | 2.7V | 00:00:00 | 03:45:09 | 00:00:00 | |
| OE5WHR-10 | 2026-09-01 02:14:38 | 48.17308 | 14.39041 | 104° | 33km/h | 493m | -2.4m/s | 17.4°C | 61.6% | 966.3hPa | 2.7V | 00:00:00 | 00:00:00 | 00:00:00 | |
| OE5DRO-10 | 2026-09-01 02:14:37 | 48.17311 | 14.39029 | 105° | 33km/h | 495m | -2.7m/s | 17.4°C | 61.4% | 966.2hPa | 2.7V | 00:00:00 | 00:00:00 | 00:00:00 | |
| OE3JTB-15 | 2026-09-01 02:14:36 | 48.17313 | 14.39016 | 105° | 31km/h | 497m | -2.1m/s | 17.4°C | 61.8% | 965.6hPa | 2.7V | 00:00:00 | 00:00:00 | 00:00:00 | |
| OE5DRO-10 | 2026-09-01 02:14:35 | 48.17315 | 14.39005 | 105° | 31km/h | 499m | -2.1m/s | 17.3°C | 62.2% | 965.5hPa | 2.7V | 00:00:00 | 00:00:00 | 00:00:00 | |
| OE3JTB-15 | 2026-09-01 02:14:34 | 48.17317 | 14.38993 | 104° | 31km/h | 501m | -2.2m/s | 17.2°C | 62.6% | 965.3hPa | 2.7V | 00:00:00 | 00:00:00 | 00:00:00 | |
| OE5WHR-10 | 2026-09-01 02:14:34 | 48.17317 | 14.38993 | 104° | 31km/h | 501m | -2.2m/s | 17.2°C | 62.6% | 965.3hPa | 2.7V | 06:47:00 | 00:00:00 | 00:00:00 | |
| OE5DRO-10 | 2026-09-01 02:14:33 | 48.17318 | 14.38982 | 102° | 29km/h | 503m | -1.9m/s | 17.2°C | 62.6% | 965.0hPa | 2.7V | 00:00:00 | 00:00:00 | 00:00:00 | |
| OE3JTB-15 | 2026-09-01 02:14:32 | 48.17319 | 14.38971 | 93° | 29km/h | 504m | -2.0m/s | 17.4°C | 61.7% | 964.9hPa | 2.7V | 00:00:00 | 03:45:03 | 00:00:00 | |
| OE5WHR-10 | 2026-09-01 02:14:31 | 48.17319 | 14.38960 | 88° | 29km/h | 507m | -2.1m/s | 17.4°C | 61.8% | 964.8hPa | 2.7V | 00:00:00 | 03:45:02 | 00:00:00 | |
| OE5DRO-10 | 2026-09-01 02:14:31 | 48.17319 | 14.38960 | 88° | 29km/h | 507m | -2.1m/s | 17.4°C | 61.8% | 964.8hPa | 2.7V | 00:00:00 | 00:00:00 | 00:00:00 | |
| OE3JTB-15 | 2026-09-01 02:14:30 | 48.17319 | 14.38949 | 90° | 29km/h | 509m | -2.3m/s | 17.4°C | 61.6% | 964.4hPa | 2.7V | 00:00:00 | 00:00:00 | 00:00:00 | |
| OE5DRO-10 | 2026-09-01 02:14:29 | 48.17319 | 14.38937 | 86° | 31km/h | 511m | -2.7m/s | 17.3°C | 61.7% | 964.1hPa | 2.7V | 00:00:00 | 00:00:00 | 00:00:00 | |
| OE3JTB-15 | 2026-09-01 02:14:28 | 48.17319 | 14.38926 | 88° | 33km/h | 514m | -2.6m/s | 17.3°C | 61.7% | 963.9hPa | 2.7V | 06:48:00 | 00:00:00 | 00:00:00 | |
| OE5WHR-10 | 2026-09-01 02:14:28 | 48.17319 | 14.38926 | 88° | 33km/h | 514m | -2.6m/s | 17.3°C | 61.7% | 963.9hPa | 2.7V | 00:00:00 | 00:00:00 | 00:00:00 | |
| OE5DRO-10 | 2026-09-01 02:14:27 | 48.17318 | 14.38913 | 85° | 35km/h | 517m | -2.4m/s | 17.3°C | 61.8% | 963.5hPa | 2.7V | 00:00:00 | 00:00:00 | 00:00:00 | |
| OE3JTB-15 | 2026-09-01 02:14:26 | 48.17318 | 14.38900 | 84° | 37km/h | 519m | -2.6m/s | 17.4°C | 61.2% | 963.3hPa | 2.7V | 00:00:00 | 03:44:57 | 00:00:00 | |
| OE5DRO-10 | 2026-09-01 02:14:25 | 48.17317 | 14.38886 | 86° | 38km/h | 521m | -2.6m/s | 17.4°C | 61.2% | 963.2hPa | 2.7V | 06:48:00 | 00:00:00 | 00:00:00 | |
| OE5WHR-10 | 2026-09-01 02:14:25 | 48.17317 | 14.38886 | 86° | 38km/h | 521m | -2.6m/s | 17.4°C | 61.2% | 963.2hPa | 2.7V | 00:00:00 | 00:00:00 | 00:00:00 | |
| OE3JTB-15 | 2026-09-01 02:14:24 | 48.17317 | 14.38872 | 92° | 37km/h | 524m | -2.5m/s | 17.4°C | 61.1% | 962.8hPa | 2.7V | 00:00:00 | 00:00:00 | 00:00:00 | |
| OE5DRO-10 | 2026-09-01 02:14:23 | 48.17317 | 14.38858 | 89° | 38km/h | 526m | -2.6m/s | 17.4°C | 61.1% | 962.7hPa | 2.7V | 00:00:00 | 00:00:00 | 00:00:00 | |
| OE3JTB-15 | 2026-09-01 02:14:22 | 48.17316 | 14.38843 | 91° | 40km/h | 529m | -2.6m/s | 17.4°C | 61.2% | 962.2hPa | 2.7V | 00:00:00 | 00:00:00 | 00:00:00 | |
| OE5WHR-10 | 2026-09-01 02:14:22 | 48.17316 | 14.38843 | 91° | 40km/h | 529m | -2.6m/s | 17.4°C | 61.2% | 962.2hPa | 2.7V | 00:00:00 | 03:44:53 | 00:00:00 | |
| OE5DRO-10 | 2026-09-01 02:14:21 | 48.17317 | 14.38828 | 97° | 40km/h | 531m | -2.9m/s | 17.4°C | 61.0% | 961.9hPa | 2.7V | 00:00:00 | 00:00:00 | 00:00:00 | |
| OE3JTB-15 | 2026-09-01 02:14:20 | 48.17318 | 14.38813 | 96° | 40km/h | 534m | -2.9m/s | 17.4°C | 61.0% | 961.6hPa | 2.7V | 00:00:00 | 03:44:51 | 00:00:00 | |
| OE5DRO-10 | 2026-09-01 02:14:19 | 48.17319 | 14.38798 | 98° | 40km/h | 536m | -2.5m/s | 17.3°C | 60.9% | 961.6hPa | 2.7V | 00:00:00 | 00:00:00 | 00:00:00 | |
| OE5WHR-10 | 2026-09-01 02:14:19 | 48.17319 | 14.38798 | 98° | 40km/h | 536m | -2.5m/s | 17.3°C | 60.9% | 961.6hPa | 2.7V | 00:00:00 | 00:00:00 | 00:00:00 | |
| OE3JTB-15 | 2026-09-01 02:14:18 | 48.17321 | 14.38783 | 101° | 40km/h | 539m | -2.4m/s | 17.3°C | 61.2% | 961.2hPa | 2.7V | 00:00:00 | 00:00:00 | 00:00:00 | |
| OE5DRO-10 | 2026-09-01 02:14:17 | 48.17323 | 14.38768 | 104° | 38km/h | 541m | -2.6m/s | 17.3°C | 61.2% | 961.0hPa | 2.7V | 00:00:00 | 00:00:00 | 00:00:00 | |
| OE5DRO-10 | 2026-09-01 02:14:15 | 48.17327 | 14.38742 | 107° | 35km/h | 546m | -1.9m/s | 17.3°C | 61.0% | 960.7hPa | 2.7V | 00:00:00 | 00:00:00 | 00:00:00 | |
| OE3JTB-15 | 2026-09-01 02:14:14 | 48.17330 | 14.38729 | 108° | 31km/h | 548m | -1.9m/s | 17.3°C | 60.7% | 960.4hPa | 2.7V | 06:48:00 | 03:44:45 | 00:00:00 | |
| OE5DRO-10 | 2026-09-01 02:14:13 | 48.17332 | 14.38718 | 102° | 31km/h | 549m | -2.3m/s | 17.3°C | 60.7% | 960.2hPa | 2.7V | 00:00:00 | 00:00:00 | 00:00:00 | |
| OE5WHR-10 | 2026-09-01 02:14:13 | 48.17332 | 14.38718 | 102° | 33km/h | 549m | -2.3m/s | 17.3°C | 60.7% | 960.2hPa | 2.7V | 06:48:00 | 03:44:44 | 00:00:00 | |
| OE3JTB-15 | 2026-09-01 02:14:12 | 48.17333 | 14.38706 | 99° | 33km/h | 551m | -2.1m/s | 17.3°C | 60.8% | 959.9hPa | 2.7V | 00:00:00 | 00:00:00 | 00:00:00 | |
| OE5DRO-10 | 2026-09-01 02:14:11 | 48.17334 | 14.38694 | 93° | 35km/h | 554m | -1.9m/s | 17.3°C | 61.0% | 959.7hPa | 2.7V | 06:48:00 | 00:00:00 | 00:00:00 | |
| OE3JTB-15 | 2026-09-01 02:14:10 | 48.17334 | 14.38680 | 93° | 38km/h | 556m | -2.5m/s | 17.3°C | 61.1% | 959.4hPa | 2.7V | 00:00:00 | 00:00:00 | 00:00:00 | |
| OE5WHR-10 | 2026-09-01 02:14:10 | 48.17334 | 14.38680 | 93° | 38km/h | 556m | -2.5m/s | 17.3°C | 61.1% | 959.4hPa | 2.7V | 00:00:00 | 00:00:00 | 00:00:00 | |
| OE5DRO-10 | 2026-09-01 02:14:09 | 48.17334 | 14.38666 | 93° | 40km/h | 558m | -1.9m/s | 17.3°C | 61.1% | 959.3hPa | 2.7V | 00:00:00 | 00:00:00 | 00:00:00 | |
| OE3JTB-15 | 2026-09-01 02:14:08 | 48.17334 | 14.38651 | 88° | 42km/h | 560m | -1.4m/s | 17.2°C | 61.2% | 959.1hPa | 2.7V | 00:00:00 | 03:44:39 | 00:00:00 | |
| OE5DRO-10 | 2026-09-01 02:14:07 | 48.17334 | 14.38635 | 90° | 42km/h | 561m | -1.6m/s | 17.2°C | 61.0% | 959.0hPa | 2.7V | 00:00:00 | 00:00:00 | 00:00:00 | |
| OE3JTB-15 | 2026-09-01 02:14:06 | 48.17334 | 14.38619 | 89° | 44km/h | 564m | -2.3m/s | 17.2°C | 61.5% | 958.6hPa | 2.7V | 00:00:00 | 00:00:00 | 00:00:00 | |
| OE5WHR-10 | 2026-09-01 02:14:06 | 48.17334 | 14.38619 | 89° | 46km/h | 564m | -2.3m/s | 17.2°C | 61.5% | 958.6hPa | 2.7V | 00:00:00 | 00:00:00 | 00:00:00 | |
| OE5DRO-10 | 2026-09-01 02:14:05 | 48.17334 | 14.38602 | 92° | 46km/h | 566m | -2.3m/s | 17.0°C | 62.2% | 958.3hPa | 2.7V | 00:00:00 | 00:00:00 | 00:00:00 | |
| OE3JTB-15 | 2026-09-01 02:14:04 | 48.17334 | 14.38585 | 90° | 46km/h | 568m | -2.2m/s | 17.1°C | 62.0% | 958.2hPa | 2.7V | 00:00:00 | 00:00:00 | 00:00:00 | |
| OE3JTB-15 | 2026-09-01 02:14:02 | 48.17335 | 14.38550 | 93° | 49km/h | 573m | -2.3m/s | 17.1°C | 61.7% | 957.7hPa | 2.7V | 00:00:00 | 03:44:33 | 00:00:00 | |
| OE5DRO-10 | 2026-09-01 02:14:01 | 48.17335 | 14.38532 | 93° | 47km/h | 576m | -2.3m/s | 17.1°C | 61.6% | 957.5hPa | 2.7V | 00:00:00 | 00:00:00 | 00:00:00 | |
| OE3JTB-15 | 2026-09-01 02:14:00 | 48.17336 | 14.38514 | 95° | 47km/h | 578m | -2.3m/s | 17.1°C | 61.6% | 957.0hPa | 2.7V | 06:48:00 | 00:00:00 | 00:00:00 | |
| OE5WHR-10 | 2026-09-01 02:14:00 | 48.17336 | 14.38514 | 95° | 46km/h | 578m | -2.3m/s | 17.1°C | 61.6% | 957.0hPa | 2.7V | 00:00:00 | 00:00:00 | 00:00:00 | |
| OE5DRO-10 | 2026-09-01 02:13:59 | 48.17337 | 14.38496 | 99° | 46km/h | 580m | -1.8m/s | 17.1°C | 61.8% | 957.0hPa | 2.7V | 00:00:00 | 00:00:00 | 00:00:00 | |
| OE3JTB-15 | 2026-09-01 02:13:58 | 48.17339 | 14.38479 | 98° | 44km/h | 582m | -2.1m/s | 17.0°C | 61.7% | 956.7hPa | 2.7V | 00:00:00 | 00:00:00 | 00:00:00 | |
| OE5DRO-10 | 2026-09-01 02:13:57 | 48.17341 | 14.38462 | 101° | 44km/h | 585m | -1.9m/s | 17.0°C | 61.7% | 956.5hPa | 2.7V | 06:48:00 | 00:00:00 | 00:00:00 | |
| OE5WHR-10 | 2026-09-01 02:13:57 | 48.17341 | 14.38462 | 101° | 42km/h | 585m | -1.9m/s | 17.0°C | 61.7% | 956.5hPa | 2.7V | 00:00:00 | 00:00:00 | 00:00:00 | |
| OE3JTB-15 | 2026-09-01 02:13:56 | 48.17343 | 14.38446 | 103° | 42km/h | 586m | -1.2m/s | 17.0°C | 61.9% | 956.2hPa | 2.7V | 00:00:00 | 03:44:27 | 00:00:00 | |
| OE5DRO-10 | 2026-09-01 02:13:55 | 48.17345 | 14.38431 | 106° | 40km/h | 588m | -1.7m/s | 17.0°C | 61.6% | 956.1hPa | 2.7V | 00:00:00 | 00:00:00 | 00:00:00 | |
| OE3JTB-15 | 2026-09-01 02:13:54 | 48.17348 | 14.38416 | 107° | 38km/h | 589m | -1.9m/s | 17.0°C | 61.9% | 956.0hPa | 2.7V | 00:00:00 | 00:00:00 | 00:00:00 | |
| OE5WHR-10 | 2026-09-01 02:13:54 | 48.17348 | 14.38416 | 107° | 37km/h | 589m | -1.9m/s | 17.0°C | 61.9% | 956.0hPa | 2.7V | 00:00:00 | 03:44:25 | 00:00:00 | |
| OE5DRO-10 | 2026-09-01 02:13:53 | 48.17351 | 14.38402 | 105° | 37km/h | 591m | -1.5m/s | 17.0°C | 61.6% | 955.6hPa | 2.7V | 00:00:00 | 00:00:00 | 00:00:00 | |
| OE3JTB-15 | 2026-09-01 02:13:52 | 48.17353 | 14.38389 | 102° | 37km/h | 593m | -1.6m/s | 17.0°C | 61.7% | 955.6hPa | 2.7V | 00:00:00 | 00:00:00 | 00:00:00 | |
| OE5WHR-10 | 2026-09-01 02:13:51 | 48.17354 | 14.38375 | 97° | 37km/h | 594m | -1.6m/s | 17.0°C | 61.8% | 955.5hPa | 2.7V | 06:48:00 | 00:00:00 | 00:00:00 | |
| OE5DRO-10 | 2026-09-01 02:13:51 | 48.17354 | 14.38375 | 97° | 37km/h | 594m | -1.6m/s | 17.0°C | 61.8% | 955.5hPa | 2.7V | 00:00:00 | 00:00:00 | 00:00:00 | |
| OE3JTB-15 | 2026-09-01 02:13:50 | 48.17355 | 14.38362 | 92° | 37km/h | 596m | -1.9m/s | 16.9°C | 62.0% | 955.3hPa | 2.7V | 00:00:00 | 03:44:21 | 00:00:00 | |
| OE5DRO-10 | 2026-09-01 02:13:49 | 48.17355 | 14.38348 | 91° | 37km/h | 598m | -1.8m/s | 16.9°C | 62.1% | 955.0hPa | 2.7V | 00:00:00 | 00:00:00 | 00:00:00 | |
| OE5WHR-10 | 2026-09-01 02:13:48 | 48.17355 | 14.38334 | 90° | 38km/h | 600m | -2.1m/s | 16.9°C | 62.2% | 954.8hPa | 2.7V | 00:00:00 | 00:00:00 | 00:00:00 | |
| OE3JTB-15 | 2026-09-01 02:13:48 | 48.17355 | 14.38334 | 90° | 38km/h | 600m | -2.1m/s | 16.9°C | 62.2% | 954.8hPa | 2.7V | 00:00:00 | 00:00:00 | 00:00:00 | |
| OE5DRO-10 | 2026-09-01 02:13:47 | 48.17355 | 14.38319 | 89° | 38km/h | 602m | -2.1m/s | 16.9°C | 62.3% | 954.7hPa | 2.7V | 00:00:00 | 00:00:00 | 00:00:00 | |
| OE3JTB-15 | 2026-09-01 02:13:46 | 48.17355 | 14.38305 | 89° | 40km/h | 604m | -2.2m/s | 16.9°C | 62.2% | 954.4hPa | 2.7V | 06:48:00 | 00:00:00 | 00:00:00 | |
| OE5DRO-10 | 2026-09-01 02:13:45 | 48.17354 | 14.38289 | 90° | 42km/h | 607m | -2.3m/s | 16.8°C | 62.5% | 954.2hPa | 2.7V | 00:00:00 | 00:00:00 | 00:00:00 | |
| OE5WHR-10 | 2026-09-01 02:13:45 | 48.17354 | 14.38289 | 90° | 42km/h | 607m | -2.3m/s | 16.8°C | 62.5% | 954.2hPa | 2.7V | 00:00:00 | 03:44:16 | 00:00:00 | |
| OE3JTB-15 | 2026-09-01 02:13:44 | 48.17354 | 14.38273 | 89° | 42km/h | 609m | -2.1m/s | 16.8°C | 62.4% | 953.9hPa | 2.7V | 00:00:00 | 03:44:15 | 00:00:00 | |
| OE5DRO-10 | 2026-09-01 02:13:43 | 48.17354 | 14.38257 | 91° | 44km/h | 611m | -2.1m/s | 16.8°C | 62.4% | 953.7hPa | 2.7V | 06:48:00 | 00:00:00 | 00:00:00 | |
| OE3JTB-15 | 2026-09-01 02:13:42 | 48.17355 | 14.38241 | 95° | 44km/h | 614m | -2.0m/s | 16.8°C | 62.5% | 953.5hPa | 2.7V | 00:00:00 | 00:00:00 | 00:00:00 | |
| OE5WHR-10 | 2026-09-01 02:13:42 | 48.17355 | 14.38241 | 95° | 44km/h | 614m | -2.0m/s | 16.8°C | 62.5% | 953.5hPa | 2.7V | 00:00:00 | 00:00:00 | 00:00:00 | |
| OE5DRO-10 | 2026-09-01 02:13:41 | 48.17356 | 14.38224 | 94° | 46km/h | 616m | -1.7m/s | 16.8°C | 62.4% | 953.2hPa | 2.7V | 00:00:00 | 00:00:00 | 00:00:00 | |
| OE3JTB-15 | 2026-09-01 02:13:40 | 48.17356 | 14.38207 | 96° | 47km/h | 618m | -1.5m/s | 16.8°C | 62.6% | 953.0hPa | 2.7V | 00:00:00 | 00:00:00 | 00:00:00 | |
| OE5DRO-10 | 2026-09-01 02:13:39 | 48.17358 | 14.38189 | 100° | 47km/h | 619m | -1.8m/s | 16.7°C | 62.6% | 952.7hPa | 2.7V | 00:00:00 | 00:00:00 | 00:00:00 | |
| OE5WHR-10 | 2026-09-01 02:13:39 | 48.17358 | 14.38189 | 100° | 47km/h | 619m | -1.8m/s | 16.7°C | 62.6% | 952.7hPa | 2.7V | 00:00:00 | 00:00:00 | 00:00:00 | |
| OE3JTB-15 | 2026-09-01 02:13:38 | 48.17360 | 14.38172 | 101° | 47km/h | 621m | -1.6m/s | 16.8°C | 62.6% | 952.6hPa | 2.7V | 00:00:00 | 03:44:09 | 00:00:00 | |
| OE5DRO-10 | 2026-09-01 02:13:37 | 48.17362 | 14.38154 | 104° | 47km/h | 623m | -1.8m/s | 16.8°C | 62.4% | 952.5hPa | 2.7V | 00:00:00 | 00:00:00 | 00:00:00 | |
| OE3JTB-15 | 2026-09-01 02:13:36 | 48.17365 | 14.38137 | 106° | 46km/h | 625m | -1.9m/s | 17.0°C | 61.4% | 952.2hPa | 2.7V | 00:00:00 | 00:00:00 | 00:00:00 | |
| OE5WHR-10 | 2026-09-01 02:13:36 | 48.17365 | 14.38137 | 106° | 46km/h | 625m | -1.9m/s | 17.0°C | 61.4% | 952.2hPa | 2.7V | 00:00:00 | 03:44:07 | 00:00:00 | |
| OE5DRO-10 | 2026-09-01 02:13:35 | 48.17369 | 14.38120 | 107° | 44km/h | 626m | -1.6m/s | 17.0°C | 61.0% | 952.1hPa | 2.7V | 00:00:00 | 00:00:00 | 00:00:00 | |
| OE3JTB-15 | 2026-09-01 02:13:34 | 48.17372 | 14.38104 | 108° | 42km/h | 628m | -1.8m/s | 17.0°C | 60.7% | 951.9hPa | 2.7V | 00:00:00 | 00:00:00 | 00:00:00 | |
| OE5DRO-10 | 2026-09-01 02:13:33 | 48.17375 | 14.38089 | 107° | 40km/h | 630m | -2.1m/s | 17.0°C | 60.8% | 951.7hPa | 2.7V | 00:00:00 | 00:00:00 | 00:00:00 | |
| OE5WHR-10 | 2026-09-01 02:13:33 | 48.17375 | 14.38089 | 107° | 40km/h | 630m | -2.1m/s | 17.0°C | 60.8% | 951.7hPa | 2.7V | 00:00:00 | 00:00:00 | 00:00:00 | |
| OE3JTB-15 | 2026-09-01 02:13:32 | 48.17378 | 14.38074 | 106° | 40km/h | 632m | -2.1m/s | 17.0°C | 61.1% | 951.3hPa | 2.7V | 06:49:00 | 03:44:03 | 00:00:00 | |
| OE5DRO-10 | 2026-09-01 02:13:31 | 48.17380 | 14.38060 | 102° | 40km/h | 634m | -1.6m/s | 16.9°C | 61.3% | 951.1hPa | 2.7V | 00:00:00 | 00:00:00 | 00:00:00 | |
| OE3JTB-15 | 2026-09-01 02:13:30 | 48.17382 | 14.38044 | 97° | 42km/h | 636m | -1.7m/s | 17.0°C | 61.2% | 951.1hPa | 2.7V | 00:00:00 | 00:00:00 | 00:00:00 | |
| OE5WHR-10 | 2026-09-01 02:13:30 | 48.17382 | 14.38044 | 97° | 44km/h | 636m | -1.7m/s | 17.0°C | 61.2% | 951.1hPa | 2.7V | 06:49:00 | 00:00:00 | 00:00:00 | |
| OE5DRO-10 | 2026-09-01 02:13:29 | 48.17383 | 14.38029 | 95° | 44km/h | 638m | -2.0m/s | 16.9°C | 61.1% | 950.6hPa | 2.7V | 06:49:00 | 00:00:00 | 00:00:00 | |
| OE3JTB-15 | 2026-09-01 02:13:28 | 48.17384 | 14.38012 | 94° | 47km/h | 640m | -2.2m/s | 16.9°C | 61.0% | 950.5hPa | 2.7V | 00:00:00 | 00:00:00 | 00:00:00 | |
| OE5DRO-10 | 2026-09-01 02:13:27 | 48.17385 | 14.37994 | 95° | 47km/h | 642m | -1.9m/s | 16.9°C | 61.1% | 950.3hPa | 2.7V | 00:00:00 | 00:00:00 | 00:00:00 | |
| OE5WHR-10 | 2026-09-01 02:13:27 | 48.17385 | 14.37994 | 95° | 49km/h | 642m | -1.9m/s | 16.9°C | 61.1% | 950.3hPa | 2.7V | 00:00:00 | 03:43:58 | 00:00:00 | |
| OE3JTB-15 | 2026-09-01 02:13:26 | 48.17386 | 14.37976 | 97° | 49km/h | 644m | -2.0m/s | 16.9°C | 61.3% | 950.2hPa | 2.7V | 00:00:00 | 03:43:57 | 00:00:00 | |
| OE5DRO-10 | 2026-09-01 02:13:25 | 48.17388 | 14.37958 | 100° | 49km/h | 646m | -1.8m/s | 16.9°C | 61.3% | 949.9hPa | 2.7V | 00:00:00 | 00:00:00 | 00:00:00 | |
| OE3JTB-15 | 2026-09-01 02:13:24 | 48.17390 | 14.37939 | 102° | 49km/h | 648m | -1.8m/s | 16.8°C | 61.4% | 949.7hPa | 2.7V | 00:00:00 | 00:00:00 | 00:00:00 | |
| OE5WHR-10 | 2026-09-01 02:13:24 | 48.17390 | 14.37939 | 102° | 49km/h | 648m | -1.8m/s | 16.8°C | 61.4% | 949.7hPa | 2.7V | 00:00:00 | 00:00:00 | 00:00:00 | |
| OE5DRO-10 | 2026-09-01 02:13:23 | 48.17392 | 14.37921 | 105° | 47km/h | 650m | -1.8m/s | 16.8°C | 61.5% | 949.6hPa | 2.7V | 00:00:00 | 00:00:00 | 00:00:00 | |
| OE3JTB-15 | 2026-09-01 02:13:22 | 48.17396 | 14.37903 | 107° | 46km/h | 651m | -2.0m/s | 16.8°C | 61.5% | 949.3hPa | 2.7V | 00:00:00 | 00:00:00 | 00:00:00 | |
| OE5DRO-10 | 2026-09-01 02:13:21 | 48.17399 | 14.37886 | 108° | 44km/h | 653m | -1.8m/s | 16.8°C | 61.4% | 949.0hPa | 2.7V | 00:00:00 | 00:00:00 | 00:00:00 | |
| OE5WHR-10 | 2026-09-01 02:13:21 | 48.17399 | 14.37886 | 108° | 44km/h | 653m | -1.8m/s | 16.8°C | 61.4% | 949.0hPa | 2.7V | 00:00:00 | 00:00:00 | 00:00:00 | |
| OE3JTB-15 | 2026-09-01 02:13:20 | 48.17403 | 14.37870 | 107° | 42km/h | 655m | -1.8m/s | 16.8°C | 61.6% | 948.7hPa | 2.7V | 00:00:00 | 03:43:51 | 00:00:00 | |
| OE5DRO-10 | 2026-09-01 02:13:19 | 48.17405 | 14.37855 | 103° | 40km/h | 657m | -1.6m/s | 16.8°C | 61.7% | 948.8hPa | 2.7V | 00:00:00 | 00:00:00 | 00:00:00 | |
| OE3JTB-15 | 2026-09-01 02:13:18 | 48.17407 | 14.37840 | 99° | 42km/h | 659m | -1.5m/s | 16.8°C | 61.6% | 948.4hPa | 2.7V | 06:49:00 | 00:00:00 | 00:00:00 | |
| OE5WHR-10 | 2026-09-01 02:13:18 | 48.17407 | 14.37840 | 99° | 42km/h | 659m | -1.5m/s | 16.8°C | 61.6% | 948.4hPa | 2.7V | 00:00:00 | 03:43:49 | 00:00:00 | |
| OE5DRO-10 | 2026-09-01 02:13:17 | 48.17408 | 14.37824 | 95° | 44km/h | 660m | -1.5m/s | 16.7°C | 61.7% | 948.2hPa | 2.7V | 00:00:00 | 00:00:00 | 00:00:00 | |
| OE3JTB-15 | 2026-09-01 02:13:16 | 48.17409 | 14.37808 | 93° | 46km/h | 662m | -1.6m/s | 16.7°C | 61.7% | 948.2hPa | 2.7V | 00:00:00 | 00:00:00 | 00:00:00 | |
| OE5DRO-10 | 2026-09-01 02:13:15 | 48.17410 | 14.37790 | 93° | 47km/h | 664m | -1.6m/s | 16.7°C | 61.7% | 948.0hPa | 2.7V | 06:49:00 | 00:00:00 | 00:00:00 | |
| OE5WHR-10 | 2026-09-01 02:13:15 | 48.17410 | 14.37790 | 93° | 47km/h | 664m | -1.6m/s | 16.7°C | 61.7% | 948.0hPa | 2.7V | 00:00:00 | 00:00:00 | 00:00:00 | |
| OE3JTB-15 | 2026-09-01 02:13:14 | 48.17410 | 14.37772 | 94° | 49km/h | 665m | -1.7m/s | 16.7°C | 61.9% | 947.6hPa | 2.7V | 00:00:00 | 03:43:45 | 00:00:00 | |
| OE5DRO-10 | 2026-09-01 02:13:13 | 48.17411 | 14.37753 | 95° | 51km/h | 667m | -1.9m/s | 16.7°C | 61.9% | 947.6hPa | 2.7V | 00:00:00 | 00:00:00 | 00:00:00 | |
| OE3JTB-15 | 2026-09-01 02:13:12 | 48.17412 | 14.37734 | 97° | 51km/h | 669m | -1.7m/s | 16.7°C | 61.8% | 947.4hPa | 2.7V | 00:00:00 | 00:00:00 | 00:00:00 | |
| OE5WHR-10 | 2026-09-01 02:13:12 | 48.17412 | 14.37734 | 97° | 51km/h | 669m | -1.7m/s | 16.7°C | 61.8% | 947.4hPa | 2.7V | 00:00:00 | 00:00:00 | 00:00:00 | |
| OE5DRO-10 | 2026-09-01 02:13:11 | 48.17414 | 14.37715 | 98° | 51km/h | 671m | -1.7m/s | 16.6°C | 62.0% | 947.1hPa | 2.7V | 00:00:00 | 00:00:00 | 00:00:00 | |
| OE3JTB-15 | 2026-09-01 02:13:10 | 48.17416 | 14.37696 | 100° | 51km/h | 672m | -1.6m/s | 16.6°C | 62.1% | 947.0hPa | 2.7V | 00:00:00 | 00:00:00 | 00:00:00 | |
| OE5DRO-10 | 2026-09-01 02:13:09 | 48.17418 | 14.37677 | 102° | 51km/h | 674m | -1.9m/s | 16.6°C | 62.1% | 946.8hPa | 2.7V | 00:00:00 | 00:00:00 | 00:00:00 | |
| OE5WHR-10 | 2026-09-01 02:13:09 | 48.17418 | 14.37677 | 102° | 51km/h | 674m | -1.9m/s | 16.6°C | 62.1% | 946.8hPa | 2.7V | 06:49:00 | 03:43:40 | 00:00:00 | |
| OE3JTB-15 | 2026-09-01 02:13:08 | 48.17421 | 14.37658 | 104° | 51km/h | 676m | -1.9m/s | 16.6°C | 62.1% | 946.5hPa | 2.7V | 00:00:00 | 03:43:39 | 00:00:00 | |
| OE5DRO-10 | 2026-09-01 02:13:07 | 48.17424 | 14.37639 | 107° | 49km/h | 678m | -1.6m/s | 16.5°C | 62.1% | 946.2hPa | 2.7V | 00:00:00 | 00:00:00 | 00:00:00 | |
| OE3JTB-15 | 2026-09-01 02:13:06 | 48.17428 | 14.37621 | 108° | 47km/h | 680m | -1.6m/s | 16.5°C | 62.3% | 946.1hPa | 2.7V | 00:00:00 | 00:00:00 | 00:00:00 | |
| OE5WHR-10 | 2026-09-01 02:13:06 | 48.17428 | 14.37621 | 108° | 46km/h | 680m | -1.6m/s | 16.5°C | 62.3% | 946.1hPa | 2.7V | 00:00:00 | 00:00:00 | 00:00:00 | |
| OE5DRO-10 | 2026-09-01 02:13:05 | 48.17432 | 14.37604 | 108° | 46km/h | 682m | -1.5m/s | 16.6°C | 62.1% | 945.8hPa | 2.7V | 00:00:00 | 00:00:00 | 00:00:00 | |
| OE3JTB-15 | 2026-09-01 02:13:04 | 48.17435 | 14.37587 | 106° | 44km/h | 683m | -1.7m/s | 16.6°C | 62.1% | 945.6hPa | 2.7V | 06:49:00 | 00:00:00 | 00:00:00 | |
| OE3JTB-15 | 2026-09-01 02:13:02 | 48.17439 | 14.37555 | 98° | 44km/h | 686m | -1.6m/s | 16.6°C | 62.1% | 945.3hPa | 2.7V | 00:00:00 | 03:43:33 | 00:00:00 | |
| OE5DRO-10 | 2026-09-01 02:13:01 | 48.17440 | 14.37539 | 95° | 46km/h | 688m | -1.6m/s | 16.5°C | 62.2% | 945.3hPa | 2.7V | 06:49:00 | 00:00:00 | 00:00:00 | |
| OE5DRO-10 | 2026-09-01 02:12:59 | 48.17442 | 14.37503 | 95° | 49km/h | 692m | -1.7m/s | 16.5°C | 62.5% | 944.8hPa | 2.7V | 00:00:00 | 00:00:00 | 00:00:00 | |
| PG1ADW-2 | 2026-09-01 02:12:59 | 48.17442 | 14.37503 | 95° | 47km/h | 692m | -1.7m/s | 16.5°C | 62.5% | 944.8hPa | 2.7V | 00:00:00 | 00:00:00 | 00:00:00 | |
| OE3JTB-15 | 2026-09-01 02:12:58 | 48.17443 | 14.37484 | 97° | 51km/h | 693m | -1.4m/s | 16.4°C | 62.7% | 944.7hPa | 2.7V | 00:00:00 | 00:00:00 | 00:00:00 | |
| OE5DRO-10 | 2026-09-01 02:12:57 | 48.17445 | 14.37465 | 99° | 53km/h | 695m | -1.6m/s | 16.4°C | 62.8% | 944.4hPa | 2.7V | 00:00:00 | 00:00:00 | 00:00:00 | |
| OE5WHR-10 | 2026-09-01 02:12:57 | 48.17445 | 14.37465 | 99° | 53km/h | 695m | -1.6m/s | 16.4°C | 62.8% | 944.4hPa | 2.7V | 00:00:00 | 00:00:00 | 00:00:00 | |
| OE3JTB-15 | 2026-09-01 02:12:56 | 48.17447 | 14.37445 | 101° | 53km/h | 696m | -1.8m/s | 16.4°C | 62.6% | 944.2hPa | 2.7V | 00:00:00 | 03:43:27 | 00:00:00 | |
| OE5DRO-10 | 2026-09-01 02:12:55 | 48.17450 | 14.37426 | 103° | 53km/h | 698m | -1.6m/s | 16.4°C | 62.6% | 944.1hPa | 2.7V | 00:00:00 | 00:00:00 | 00:00:00 | |
| OE3JTB-15 | 2026-09-01 02:12:54 | 48.17453 | 14.37406 | 105° | 53km/h | 700m | -1.5m/s | 16.5°C | 62.5% | 944.1hPa | 2.7V | 00:00:00 | 00:00:00 | 00:00:00 | |
| OE5WHR-10 | 2026-09-01 02:12:54 | 48.17453 | 14.37406 | 105° | 53km/h | 700m | -1.5m/s | 16.5°C | 62.5% | 944.1hPa | 2.7V | 00:00:00 | 00:00:00 | 00:00:00 | |
| OE5DRO-10 | 2026-09-01 02:12:53 | 48.17457 | 14.37387 | 107° | 51km/h | 702m | -1.7m/s | 16.4°C | 63.1% | 943.6hPa | 2.7V | 00:00:00 | 00:00:00 | 00:00:00 | |
| OE3JTB-15 | 2026-09-01 02:12:52 | 48.17460 | 14.37369 | 108° | 51km/h | 703m | -1.4m/s | 16.4°C | 63.1% | 943.6hPa | 2.7V | 00:00:00 | 00:00:00 | 00:00:00 | |
| OE5DRO-10 | 2026-09-01 02:12:51 | 48.17464 | 14.37350 | 110° | 49km/h | 705m | -1.5m/s | 16.4°C | 63.0% | 943.4hPa | 2.7V | 00:00:00 | 00:00:00 | 00:00:00 | |
| OE5WHR-10 | 2026-09-01 02:12:51 | 48.17464 | 14.37350 | 110° | 47km/h | 705m | -1.5m/s | 16.4°C | 63.0% | 943.4hPa | 2.7V | 00:00:00 | 03:43:22 | 00:00:00 | |
| OE3JTB-15 | 2026-09-01 02:12:50 | 48.17469 | 14.37333 | 110° | 47km/h | 707m | -1.9m/s | 16.4°C | 62.9% | 943.1hPa | 2.7V | 06:49:00 | 03:43:21 | 00:00:00 | |
| OE5DRO-10 | 2026-09-01 02:12:49 | 48.17473 | 14.37316 | 111° | 46km/h | 708m | -1.7m/s | 16.4°C | 63.1% | 943.1hPa | 2.7V | 00:00:00 | 00:00:00 | 00:00:00 | |
| OE3JTB-15 | 2026-09-01 02:12:48 | 48.17476 | 14.37300 | 108° | 44km/h | 710m | -1.5m/s | 16.4°C | 63.1% | 942.7hPa | 2.7V | 00:00:00 | 00:00:00 | 00:00:00 | |
| OE5WHR-10 | 2026-09-01 02:12:48 | 48.17476 | 14.37300 | 108° | 42km/h | 710m | -1.5m/s | 16.4°C | 63.1% | 942.7hPa | 2.7V | 06:49:00 | 00:00:00 | 00:00:00 | |
| OE5DRO-10 | 2026-09-01 02:12:47 | 48.17479 | 14.37284 | 105° | 42km/h | 712m | -1.5m/s | 16.4°C | 63.2% | 942.5hPa | 2.7V | 06:49:00 | 00:00:00 | 00:00:00 | |
| OE3JTB-15 | 2026-09-01 02:12:46 | 48.17482 | 14.37269 | 102° | 42km/h | 713m | -1.3m/s | 16.4°C | 63.3% | 942.4hPa | 2.7V | 00:00:00 | 00:00:00 | 00:00:00 | |
| OE5DRO-10 | 2026-09-01 02:12:45 | 48.17484 | 14.37253 | 98° | 44km/h | 714m | -1.3m/s | 16.3°C | 63.6% | 942.3hPa | 2.7V | 00:00:00 | 00:00:00 | 00:00:00 | |
| OE5WHR-10 | 2026-09-01 02:12:45 | 48.17484 | 14.37253 | 98° | 46km/h | 714m | -1.3m/s | 16.3°C | 63.6% | 942.3hPa | 2.7V | 00:00:00 | 00:00:00 | 00:00:00 | |
| OE3JTB-15 | 2026-09-01 02:12:44 | 48.17485 | 14.37236 | 97° | 47km/h | 716m | -1.3m/s | 16.3°C | 63.2% | 942.1hPa | 2.7V | 00:00:00 | 03:43:15 | 00:00:00 | |
| OE5DRO-10 | 2026-09-01 02:12:43 | 48.17486 | 14.37218 | 97° | 49km/h | 717m | -1.4m/s | 16.3°C | 63.3% | 942.1hPa | 2.7V | 00:00:00 | 00:00:00 | 00:00:00 | |
| OE3JTB-15 | 2026-09-01 02:12:42 | 48.17488 | 14.37200 | 99° | 51km/h | 719m | -1.5m/s | 16.3°C | 63.7% | 941.8hPa | 2.7V | 00:00:00 | 00:00:00 | 00:00:00 | |
| OE5WHR-10 | 2026-09-01 02:12:42 | 48.17488 | 14.37200 | 99° | 51km/h | 719m | -1.5m/s | 16.3°C | 63.7% | 941.8hPa | 2.7V | 00:00:00 | 03:43:13 | 00:00:00 | |
| OE5DRO-10 | 2026-09-01 02:12:41 | 48.17490 | 14.37180 | 102° | 51km/h | 720m | -1.0m/s | 16.3°C | 63.5% | 941.6hPa | 2.7V | 00:00:00 | 00:00:00 | 00:00:00 | |
| OE3JTB-15 | 2026-09-01 02:12:40 | 48.17493 | 14.37162 | 105° | 51km/h | 721m | -1.4m/s | 16.2°C | 64.1% | 941.5hPa | 2.7V | 00:00:00 | 00:00:00 | 00:00:00 | |
| OE5DRO-10 | 2026-09-01 02:12:39 | 48.17497 | 14.37143 | 108° | 49km/h | 723m | -1.4m/s | 16.2°C | 63.9% | 941.4hPa | 2.7V | 00:00:00 | 00:00:00 | 00:00:00 | |
| OE5WHR-10 | 2026-09-01 02:12:39 | 48.17497 | 14.37143 | 108° | 49km/h | 723m | -1.4m/s | 16.2°C | 63.9% | 941.4hPa | 2.7V | 00:00:00 | 00:00:00 | 00:00:00 | |
| OE3JTB-15 | 2026-09-01 02:12:38 | 48.17500 | 14.37125 | 109° | 47km/h | 725m | -1.4m/s | 16.2°C | 63.9% | 941.2hPa | 2.7V | 00:00:00 | 03:43:09 | 00:00:00 | |
| OE5DRO-10 | 2026-09-01 02:12:37 | 48.17504 | 14.37108 | 110° | 46km/h | 726m | -2.0m/s | 16.2°C | 64.0% | 941.0hPa | 2.7V | 00:00:00 | 00:00:00 | 00:00:00 | |
| OE3JTB-15 | 2026-09-01 02:12:36 | 48.17508 | 14.37092 | 108° | 44km/h | 728m | -1.9m/s | 16.2°C | 64.1% | 941.0hPa | 2.7V | 06:49:00 | 00:00:00 | 00:00:00 | |
| OE5WHR-10 | 2026-09-01 02:12:36 | 48.17508 | 14.37092 | 108° | 44km/h | 728m | -1.9m/s | 16.2°C | 64.1% | 941.0hPa | 2.7V | 00:00:00 | 00:00:00 | 00:00:00 | |
| OE5DRO-10 | 2026-09-01 02:12:35 | 48.17511 | 14.37076 | 105° | 44km/h | 730m | -1.6m/s | 16.2°C | 64.1% | 940.7hPa | 2.7V | 00:00:00 | 00:00:00 | 00:00:00 | |
| OE3JTB-15 | 2026-09-01 02:12:34 | 48.17513 | 14.37060 | 101° | 46km/h | 732m | -1.5m/s | 16.2°C | 64.2% | 940.4hPa | 2.7V | 00:00:00 | 00:00:00 | 00:00:00 | |
| OE5DRO-10 | 2026-09-01 02:12:33 | 48.17515 | 14.37043 | 99° | 47km/h | 733m | -1.6m/s | 16.2°C | 64.3% | 940.3hPa | 2.7V | 06:50:00 | 00:00:00 | 00:00:00 | |
| OE5WHR-10 | 2026-09-01 02:12:33 | 48.17515 | 14.37043 | 99° | 49km/h | 733m | -1.6m/s | 16.2°C | 64.3% | 940.3hPa | 2.7V | 00:00:00 | 03:43:04 | 00:00:00 | |
| OE3JTB-15 | 2026-09-01 02:12:32 | 48.17517 | 14.37025 | 98° | 51km/h | 735m | -1.6m/s | 16.1°C | 64.4% | 939.9hPa | 2.7V | 00:00:00 | 03:43:03 | 00:00:00 | |
| OE5DRO-10 | 2026-09-01 02:12:31 | 48.17519 | 14.37006 | 99° | 53km/h | 736m | -1.6m/s | 16.1°C | 64.4% | 940.0hPa | 2.7V | 00:00:00 | 00:00:00 | 00:00:00 | |
| OE3JTB-15 | 2026-09-01 02:12:30 | 48.17521 | 14.36986 | 101° | 53km/h | 738m | -1.7m/s | 16.1°C | 64.7% | 939.7hPa | 2.7V | 00:00:00 | 00:00:00 | 00:00:00 | |
| OE5WHR-10 | 2026-09-01 02:12:30 | 48.17521 | 14.36986 | 101° | 55km/h | 738m | -1.7m/s | 16.1°C | 64.7% | 939.7hPa | 2.7V | 00:00:00 | 00:00:00 | 00:00:00 | |
| OE5DRO-10 | 2026-09-01 02:12:29 | 48.17523 | 14.36966 | 103° | 55km/h | 740m | -1.8m/s | 16.1°C | 64.6% | 939.5hPa | 2.7V | 00:00:00 | 00:00:00 | 00:00:00 | |
| OE3JTB-15 | 2026-09-01 02:12:28 | 48.17527 | 14.36946 | 106° | 53km/h | 742m | -1.7m/s | 16.1°C | 64.5% | 939.2hPa | 2.7V | 00:00:00 | 00:00:00 | 00:00:00 | |
| OE5DRO-10 | 2026-09-01 02:12:27 | 48.17531 | 14.36927 | 108° | 53km/h | 744m | -1.7m/s | 16.0°C | 64.7% | 939.2hPa | 2.7V | 00:00:00 | 00:00:00 | 00:00:00 | |
| OE5WHR-10 | 2026-09-01 02:12:27 | 48.17531 | 14.36927 | 108° | 51km/h | 744m | -1.7m/s | 16.0°C | 64.7% | 939.2hPa | 2.7V | 06:50:00 | 00:00:00 | 00:00:00 | |
| OE3JTB-15 | 2026-09-01 02:12:26 | 48.17535 | 14.36908 | 110° | 51km/h | 746m | -1.6m/s | 16.0°C | 64.8% | 939.0hPa | 2.7V | 00:00:00 | 03:42:57 | 00:00:00 | |
| OE5DRO-10 | 2026-09-01 02:12:25 | 48.17539 | 14.36890 | 111° | 47km/h | 747m | -1.6m/s | 16.0°C | 64.8% | 938.9hPa | 2.7V | 00:00:00 | 00:00:00 | 00:00:00 | |
| OE3JTB-15 | 2026-09-01 02:12:24 | 48.17543 | 14.36873 | 111° | 47km/h | 749m | -1.5m/s | 16.0°C | 65.0% | 938.6hPa | 2.7V | 00:00:00 | 00:00:00 | 00:00:00 | |
| OE5WHR-10 | 2026-09-01 02:12:24 | 48.17543 | 14.36873 | 111° | 46km/h | 749m | -1.5m/s | 16.0°C | 65.0% | 938.6hPa | 2.7V | 00:00:00 | 03:42:55 | 00:00:00 | |
| OE5DRO-10 | 2026-09-01 02:12:23 | 48.17547 | 14.36856 | 109° | 44km/h | 750m | -1.7m/s | 16.0°C | 64.9% | 938.3hPa | 2.7V | 00:00:00 | 00:00:00 | 00:00:00 | |
| OE3JTB-15 | 2026-09-01 02:12:22 | 48.17550 | 14.36840 | 106° | 44km/h | 752m | -1.5m/s | 16.0°C | 65.0% | 938.2hPa | 2.7V | 06:50:00 | 00:00:00 | 00:00:00 | |
| OE5DRO-10 | 2026-09-01 02:12:21 | 48.17553 | 14.36824 | 102° | 46km/h | 753m | -1.5m/s | 16.0°C | 65.1% | 938.1hPa | 2.7V | 00:00:00 | 00:00:00 | 00:00:00 | |
| OE5WHR-10 | 2026-09-01 02:12:21 | 48.17553 | 14.36824 | 102° | 47km/h | 753m | -1.5m/s | 16.0°C | 65.1% | 938.1hPa | 2.7V | 00:00:00 | 00:00:00 | 00:00:00 | |
| OE3JTB-15 | 2026-09-01 02:12:20 | 48.17555 | 14.36807 | 100° | 49km/h | 755m | -1.7m/s | 15.9°C | 65.0% | 937.7hPa | 2.7V | 00:00:00 | 03:42:51 | 00:00:00 | |
| OE5DRO-10 | 2026-09-01 02:12:19 | 48.17557 | 14.36789 | 101° | 51km/h | 757m | -1.6m/s | 15.9°C | 65.2% | 937.7hPa | 2.7V | 06:50:00 | 00:00:00 | 00:00:00 | |
| OE3JTB-15 | 2026-09-01 02:12:18 | 48.17560 | 14.36770 | 102° | 53km/h | 758m | -1.4m/s | 15.9°C | 65.2% | 937.3hPa | 2.7V | 00:00:00 | 00:00:00 | 00:00:00 | |
| OE5WHR-10 | 2026-09-01 02:12:18 | 48.17560 | 14.36770 | 102° | 53km/h | 758m | -1.4m/s | 15.9°C | 65.2% | 937.3hPa | 2.7V | 00:00:00 | 00:00:00 | 00:00:00 | |
| OE5DRO-10 | 2026-09-01 02:12:17 | 48.17563 | 14.36750 | 104° | 53km/h | 760m | -1.7m/s | 15.9°C | 65.3% | 937.1hPa | 2.7V | 00:00:00 | 00:00:00 | 00:00:00 | |
| OE3JTB-15 | 2026-09-01 02:12:16 | 48.17566 | 14.36731 | 107° | 53km/h | 762m | -1.7m/s | 15.9°C | 65.2% | 936.9hPa | 2.7V | 00:00:00 | 00:00:00 | 00:00:00 | |
| OE5DRO-10 | 2026-09-01 02:12:15 | 48.17570 | 14.36712 | 109° | 51km/h | 763m | -1.6m/s | 15.9°C | 65.3% | 937.0hPa | 2.7V | 00:00:00 | 00:00:00 | 00:00:00 | |
| OE5WHR-10 | 2026-09-01 02:12:15 | 48.17570 | 14.36712 | 109° | 49km/h | 763m | -1.6m/s | 15.9°C | 65.3% | 937.0hPa | 2.7V | 00:00:00 | 03:42:46 | 00:00:00 | |
| OE3JTB-15 | 2026-09-01 02:12:14 | 48.17574 | 14.36694 | 111° | 47km/h | 765m | -1.5m/s | 15.8°C | 65.5% | 936.7hPa | 2.7V | 00:00:00 | 03:42:45 | 00:00:00 | |
| OE5DRO-10 | 2026-09-01 02:12:13 | 48.17578 | 14.36677 | 110° | 46km/h | 767m | -1.5m/s | 15.8°C | 65.6% | 936.6hPa | 2.7V | 00:00:00 | 00:00:00 | 00:00:00 | |
| OE3JTB-15 | 2026-09-01 02:12:12 | 48.17582 | 14.36660 | 108° | 46km/h | 768m | -1.6m/s | 15.8°C | 65.5% | 936.3hPa | 2.7V | 00:00:00 | 00:00:00 | 00:00:00 | |
| OE5WHR-10 | 2026-09-01 02:12:12 | 48.17582 | 14.36660 | 108° | 46km/h | 768m | -1.6m/s | 15.8°C | 65.5% | 936.3hPa | 2.7V | 00:00:00 | 00:00:00 | 00:00:00 | |
| OE5DRO-10 | 2026-09-01 02:12:11 | 48.17585 | 14.36644 | 105° | 46km/h | 770m | -1.6m/s | 15.8°C | 65.4% | 936.0hPa | 2.7V | 00:00:00 | 00:00:00 | 00:00:00 | |
| OE3JTB-15 | 2026-09-01 02:12:10 | 48.17588 | 14.36627 | 103° | 47km/h | 771m | -1.6m/s | 15.8°C | 65.5% | 936.0hPa | 2.7V | 00:00:00 | 00:00:00 | 00:00:00 | |
| OE5DRO-10 | 2026-09-01 02:12:09 | 48.17591 | 14.36609 | 103° | 49km/h | 773m | -1.7m/s | 15.8°C | 65.5% | 936.0hPa | 2.7V | 00:00:00 | 00:00:00 | 00:00:00 | |
| OE5WHR-10 | 2026-09-01 02:12:09 | 48.17591 | 14.36609 | 103° | 49km/h | 773m | -1.7m/s | 15.8°C | 65.5% | 936.0hPa | 2.7V | 00:00:00 | 00:00:00 | 00:00:00 | |
| OE3JTB-15 | 2026-09-01 02:12:08 | 48.17593 | 14.36591 | 104° | 51km/h | 775m | -1.6m/s | 15.7°C | 65.7% | 935.7hPa | 2.7V | 06:50:00 | 03:42:39 | 00:00:00 | |
| OE5DRO-10 | 2026-09-01 02:12:07 | 48.17597 | 14.36573 | 106° | 51km/h | 776m | -1.6m/s | 15.7°C | 65.7% | 935.5hPa | 2.7V | 00:00:00 | 00:00:00 | 00:00:00 | |
| OE3JTB-15 | 2026-09-01 02:12:06 | 48.17600 | 14.36554 | 108° | 49km/h | 778m | -1.6m/s | 15.7°C | 65.8% | 935.4hPa | 2.7V | 00:00:00 | 00:00:00 | 00:00:00 | |
| OE5WHR-10 | 2026-09-01 02:12:06 | 48.17600 | 14.36554 | 108° | 47km/h | 778m | -1.6m/s | 15.7°C | 65.8% | 935.4hPa | 2.7V | 06:50:00 | 03:42:37 | 00:00:00 | |
| OE5DRO-10 | 2026-09-01 02:12:05 | 48.17604 | 14.36536 | 110° | 47km/h | 780m | -1.5m/s | 15.7°C | 65.9% | 935.0hPa | 2.7V | 06:50:00 | 00:00:00 | 00:00:00 | |
| OE3JTB-15 | 2026-09-01 02:12:04 | 48.17608 | 14.36520 | 110° | 44km/h | 781m | -1.5m/s | 15.7°C | 65.8% | 935.0hPa | 2.7V | 00:00:00 | 00:00:00 | 00:00:00 | |
| OE5DRO-10 | 2026-09-01 02:12:03 | 48.17612 | 14.36504 | 108° | 44km/h | 783m | -1.6m/s | 15.7°C | 66.2% | 934.7hPa | 2.7V | 00:00:00 | 00:00:00 | 00:00:00 | |
| OE5WHR-10 | 2026-09-01 02:12:03 | 48.17612 | 14.36504 | 108° | 44km/h | 783m | -1.6m/s | 15.7°C | 66.2% | 934.7hPa | 2.7V | 00:00:00 | 00:00:00 | 00:00:00 | |
| OE5DRO-10 | 2026-09-01 02:12:01 | 48.17617 | 14.36472 | 101° | 46km/h | 786m | -1.6m/s | 15.7°C | 66.2% | 934.4hPa | 2.7V | 00:00:00 | 00:00:00 | 00:00:00 | |
| OE5DRO-10 | 2026-09-01 02:11:59 | 48.17621 | 14.36436 | 101° | 51km/h | 789m | -1.7m/s | 15.6°C | 66.4% | 934.0hPa | 2.7V | 00:00:00 | 00:00:00 | 00:00:00 | |
| PG1ADW-2 | 2026-09-01 02:11:58 | 48.17624 | 14.36417 | 103° | 49km/h | 791m | -1.5m/s | 15.6°C | 66.8% | 933.8hPa | 2.7V | 06:50:00 | 00:00:00 | 00:00:00 | |
| OE3JTB-15 | 2026-09-01 02:11:58 | 48.17624 | 14.36417 | 103° | 53km/h | 791m | -1.5m/s | 15.6°C | 66.8% | 933.8hPa | 2.7V | 00:00:00 | 00:00:00 | 00:00:00 | |
| OE5DRO-10 | 2026-09-01 02:11:57 | 48.17627 | 14.36397 | 106° | 53km/h | 793m | -1.8m/s | 15.6°C | 66.7% | 933.7hPa | 2.7V | 00:00:00 | 00:00:00 | 00:00:00 | |
| OE5WHR-10 | 2026-09-01 02:11:57 | 48.17627 | 14.36397 | 106° | 53km/h | 793m | -1.8m/s | 15.6°C | 66.7% | 933.7hPa | 2.7V | 00:00:00 | 03:42:28 | 00:00:00 | |
| OE3JTB-15 | 2026-09-01 02:11:56 | 48.17632 | 14.36378 | 109° | 53km/h | 795m | -1.5m/s | 15.6°C | 67.1% | 933.4hPa | 2.7V | 00:00:00 | 03:42:27 | 00:00:00 | |
| OE5DRO-10 | 2026-09-01 02:11:55 | 48.17636 | 14.36359 | 112° | 51km/h | 796m | -1.6m/s | 15.6°C | 67.1% | 933.2hPa | 2.7V | 00:00:00 | 00:00:00 | 00:00:00 | |
| OE3JTB-15 | 2026-09-01 02:11:54 | 48.17641 | 14.36342 | 113° | 47km/h | 798m | -1.6m/s | 15.6°C | 67.0% | 933.2hPa | 2.7V | 06:50:00 | 00:00:00 | 00:00:00 | |
| OE5WHR-10 | 2026-09-01 02:11:54 | 48.17641 | 14.36342 | 113° | 47km/h | 798m | -1.6m/s | 15.6°C | 67.0% | 933.2hPa | 2.7V | 00:00:00 | 00:00:00 | 00:00:00 | |
| OE5DRO-10 | 2026-09-01 02:11:53 | 48.17646 | 14.36325 | 113° | 46km/h | 800m | -1.5m/s | 15.6°C | 67.2% | 932.9hPa | 2.7V | 00:00:00 | 00:00:00 | 00:00:00 | |
| OE3JTB-15 | 2026-09-01 02:11:52 | 48.17650 | 14.36308 | 112° | 44km/h | 802m | -1.8m/s | 15.6°C | 67.4% | 932.7hPa | 2.7V | 00:00:00 | 00:00:00 | 00:00:00 | |
| OE5DRO-10 | 2026-09-01 02:11:51 | 48.17654 | 14.36293 | 110° | 44km/h | 803m | -1.7m/s | 15.6°C | 67.3% | 932.6hPa | 2.7V | 06:50:00 | 00:00:00 | 00:00:00 | |
| OE5WHR-10 | 2026-09-01 02:11:51 | 48.17654 | 14.36293 | 110° | 44km/h | 803m | -1.7m/s | 15.6°C | 67.3% | 932.6hPa | 2.7V | 00:00:00 | 00:00:00 | 00:00:00 | |
| OE3JTB-15 | 2026-09-01 02:11:50 | 48.17657 | 14.36277 | 107° | 44km/h | 805m | -1.6m/s | 15.5°C | 67.6% | 932.4hPa | 2.7V | 00:00:00 | 03:42:21 | 00:00:00 | |
| OE5DRO-10 | 2026-09-01 02:11:49 | 48.17660 | 14.36261 | 104° | 46km/h | 807m | -1.8m/s | 15.5°C | 67.6% | 932.2hPa | 2.7V | 00:00:00 | 00:00:00 | 00:00:00 | |
| OE3JTB-15 | 2026-09-01 02:11:48 | 48.17663 | 14.36245 | 102° | 47km/h | 808m | -1.7m/s | 15.5°C | 67.7% | 932.1hPa | 2.7V | 00:00:00 | 00:00:00 | 00:00:00 | |
| OE5WHR-10 | 2026-09-01 02:11:48 | 48.17663 | 14.36245 | 102° | 49km/h | 808m | -1.7m/s | 15.5°C | 67.7% | 932.1hPa | 2.7V | 00:00:00 | 03:42:19 | 00:00:00 | |
| OE5DRO-10 | 2026-09-01 02:11:47 | 48.17665 | 14.36227 | 103° | 51km/h | 810m | -1.6m/s | 15.5°C | 67.7% | 931.8hPa | 2.7V | 00:00:00 | 00:00:00 | 00:00:00 | |
| OE3JTB-15 | 2026-09-01 02:11:46 | 48.17668 | 14.36208 | 105° | 51km/h | 812m | -1.6m/s | 15.5°C | 67.7% | 931.7hPa | 2.7V | 00:00:00 | 00:00:00 | 00:00:00 | |
| OE5DRO-10 | 2026-09-01 02:11:45 | 48.17671 | 14.36190 | 107° | 51km/h | 814m | -1.7m/s | 15.5°C | 67.8% | 931.4hPa | 2.7V | 00:00:00 | 00:00:00 | 00:00:00 | |
| OE5WHR-10 | 2026-09-01 02:11:45 | 48.17671 | 14.36190 | 107° | 51km/h | 814m | -1.7m/s | 15.5°C | 67.8% | 931.4hPa | 2.7V | 06:50:00 | 00:00:00 | 00:00:00 | |
| OE3JTB-15 | 2026-09-01 02:11:44 | 48.17675 | 14.36171 | 110° | 49km/h | 815m | -1.5m/s | 15.5°C | 67.9% | 931.3hPa | 2.7V | 00:00:00 | 03:42:15 | 00:00:00 | |
| OE5DRO-10 | 2026-09-01 02:11:43 | 48.17680 | 14.36153 | 111° | 47km/h | 817m | -1.7m/s | 15.4°C | 68.0% | 931.0hPa | 2.7V | 00:00:00 | 00:00:00 | 00:00:00 | |
| OE3JTB-15 | 2026-09-01 02:11:42 | 48.17684 | 14.36136 | 111° | 46km/h | 818m | -1.5m/s | 15.4°C | 68.1% | 930.9hPa | 2.7V | 00:00:00 | 00:00:00 | 00:00:00 | |
| OE5WHR-10 | 2026-09-01 02:11:42 | 48.17684 | 14.36136 | 111° | 46km/h | 818m | -1.5m/s | 15.4°C | 68.1% | 930.9hPa | 2.7V | 00:00:00 | 00:00:00 | 00:00:00 | |
| OE5DRO-10 | 2026-09-01 02:11:41 | 48.17688 | 14.36120 | 110° | 44km/h | 820m | -1.6m/s | 15.4°C | 68.1% | 930.8hPa | 2.7V | 00:00:00 | 00:00:00 | 00:00:00 | |
| OE3JTB-15 | 2026-09-01 02:11:40 | 48.17692 | 14.36104 | 107° | 44km/h | 822m | -1.6m/s | 15.4°C | 68.2% | 930.5hPa | 2.7V | 06:50:00 | 00:00:00 | 00:00:00 | |
| OE5DRO-10 | 2026-09-01 02:11:39 | 48.17694 | 14.36088 | 104° | 46km/h | 823m | -1.7m/s | 15.4°C | 68.3% | 930.3hPa | 2.7V | 00:00:00 | 00:00:00 | 00:00:00 | |
| OE5WHR-10 | 2026-09-01 02:11:39 | 48.17694 | 14.36088 | 104° | 47km/h | 823m | -1.7m/s | 15.4°C | 68.3% | 930.3hPa | 2.7V | 00:00:00 | 03:42:10 | 00:00:00 | |
| OE3JTB-15 | 2026-09-01 02:11:38 | 48.17697 | 14.36072 | 102° | 47km/h | 825m | -1.8m/s | 15.4°C | 68.3% | 930.3hPa | 2.7V | 00:00:00 | 03:42:09 | 00:00:00 | |
| OE5DRO-10 | 2026-09-01 02:11:37 | 48.17699 | 14.36054 | 103° | 51km/h | 827m | -1.6m/s | 15.4°C | 68.4% | 930.1hPa | 2.7V | 06:50:00 | 00:00:00 | 00:00:00 | |
| OE3JTB-15 | 2026-09-01 02:11:36 | 48.17703 | 14.36035 | 106° | 53km/h | 829m | -1.6m/s | 15.3°C | 68.4% | 929.8hPa | 2.7V | 00:00:00 | 00:00:00 | 00:00:00 | |
| OE5WHR-10 | 2026-09-01 02:11:36 | 48.17703 | 14.36035 | 106° | 51km/h | 829m | -1.6m/s | 15.3°C | 68.4% | 929.8hPa | 2.7V | 00:00:00 | 00:00:00 | 00:00:00 | |
| OE5DRO-10 | 2026-09-01 02:11:35 | 48.17706 | 14.36017 | 108° | 53km/h | 830m | -1.5m/s | 15.3°C | 68.5% | 929.5hPa | 2.7V | 00:00:00 | 00:00:00 | 00:00:00 | |
| OE3JTB-15 | 2026-09-01 02:11:34 | 48.17711 | 14.35998 | 111° | 51km/h | 832m | -1.7m/s | 15.3°C | 68.7% | 929.3hPa | 2.7V | 00:00:00 | 00:00:00 | 00:00:00 | |
| OE5DRO-10 | 2026-09-01 02:11:33 | 48.17716 | 14.35980 | 113° | 49km/h | 834m | -1.7m/s | 15.3°C | 68.6% | 929.2hPa | 2.7V | 00:00:00 | 00:00:00 | 00:00:00 | |
| OE5WHR-10 | 2026-09-01 02:11:33 | 48.17716 | 14.35980 | 113° | 47km/h | 834m | -1.7m/s | 15.3°C | 68.6% | 929.2hPa | 2.7V | 00:00:00 | 00:00:00 | 00:00:00 | |
| OE3JTB-15 | 2026-09-01 02:11:32 | 48.17720 | 14.35963 | 114° | 46km/h | 836m | -1.8m/s | 15.3°C | 68.8% | 928.9hPa | 2.7V | 00:00:00 | 03:42:03 | 00:00:00 | |
| OE5DRO-10 | 2026-09-01 02:11:31 | 48.17725 | 14.35947 | 114° | 44km/h | 838m | -2.0m/s | 15.3°C | 68.8% | 928.7hPa | 2.7V | 00:00:00 | 00:00:00 | 00:00:00 | |
| OE3JTB-15 | 2026-09-01 02:11:30 | 48.17729 | 14.35931 | 112° | 44km/h | 839m | -1.7m/s | 15.3°C | 68.7% | 928.5hPa | 2.7V | 00:00:00 | 00:00:00 | 00:00:00 | |
| OE5WHR-10 | 2026-09-01 02:11:30 | 48.17729 | 14.35931 | 112° | 44km/h | 839m | -1.7m/s | 15.3°C | 68.7% | 928.5hPa | 2.7V | 00:00:00 | 03:42:01 | 00:00:00 | |
| OE5DRO-10 | 2026-09-01 02:11:29 | 48.17733 | 14.35916 | 108° | 44km/h | 841m | -1.5m/s | 15.2°C | 68.8% | 928.3hPa | 2.7V | 00:00:00 | 00:00:00 | 00:00:00 | |
| OE3JTB-15 | 2026-09-01 02:11:28 | 48.17736 | 14.35900 | 105° | 46km/h | 843m | -1.8m/s | 15.2°C | 69.0% | 928.1hPa | 2.7V | 00:00:00 | 00:00:00 | 00:00:00 | |
| OE5DRO-10 | 2026-09-01 02:11:27 | 48.17738 | 14.35884 | 103° | 47km/h | 845m | -1.6m/s | 15.2°C | 69.0% | 927.9hPa | 2.7V | 00:00:00 | 00:00:00 | 00:00:00 | |
| OE5WHR-10 | 2026-09-01 02:11:27 | 48.17738 | 14.35884 | 103° | 49km/h | 845m | -1.6m/s | 15.2°C | 69.0% | 927.9hPa | 2.7V | 00:00:00 | 00:00:00 | 00:00:00 | |
| OE3JTB-15 | 2026-09-01 02:11:26 | 48.17741 | 14.35866 | 103° | 51km/h | 846m | -1.6m/s | 15.2°C | 69.0% | 927.9hPa | 2.7V | 06:51:00 | 03:41:57 | 00:00:00 | |
| OE5DRO-10 | 2026-09-01 02:11:25 | 48.17744 | 14.35847 | 104° | 53km/h | 848m | -1.6m/s | 15.2°C | 69.2% | 927.7hPa | 2.7V | 00:00:00 | 00:00:00 | 00:00:00 | |
| OE3JTB-15 | 2026-09-01 02:11:24 | 48.17747 | 14.35828 | 107° | 53km/h | 850m | -1.8m/s | 15.2°C | 69.2% | 927.6hPa | 2.7V | 00:00:00 | 00:00:00 | 00:00:00 | |
| OE5WHR-10 | 2026-09-01 02:11:24 | 48.17747 | 14.35828 | 107° | 53km/h | 850m | -1.8m/s | 15.2°C | 69.2% | 927.6hPa | 2.7V | 06:51:00 | 00:00:00 | 00:00:00 | |
| OE5DRO-10 | 2026-09-01 02:11:23 | 48.17751 | 14.35809 | 110° | 53km/h | 852m | -1.6m/s | 15.2°C | 69.3% | 927.2hPa | 2.7V | 06:51:00 | 00:00:00 | 00:00:00 | |
| PG1ADW-2 | 2026-09-01 02:11:22 | 48.17756 | 14.35790 | 112° | 49km/h | 853m | -1.8m/s | 15.1°C | 69.3% | 927.1hPa | 2.7V | 00:00:00 | 03:41:53 | 00:00:00 | |
| OE3JTB-15 | 2026-09-01 02:11:22 | 48.17756 | 14.35790 | 112° | 51km/h | 853m | -1.8m/s | 15.1°C | 69.3% | 927.1hPa | 2.7V | 00:00:00 | 00:00:00 | 00:00:00 | |
| OE5DRO-10 | 2026-09-01 02:11:21 | 48.17761 | 14.35773 | 114° | 49km/h | 855m | -1.9m/s | 15.1°C | 69.2% | 926.9hPa | 2.7V | 00:00:00 | 00:00:00 | 00:00:00 | |
| OE5WHR-10 | 2026-09-01 02:11:21 | 48.17761 | 14.35773 | 114° | 44km/h | 855m | -1.9m/s | 15.1°C | 69.2% | 926.9hPa | 2.7V | 00:00:00 | 03:41:52 | 00:00:00 | |
| OE3JTB-15 | 2026-09-01 02:11:20 | 48.17766 | 14.35756 | 115° | 46km/h | 857m | -1.7m/s | 15.1°C | 69.3% | 926.7hPa | 2.7V | 00:00:00 | 03:41:51 | 00:00:00 | |
| OE5DRO-10 | 2026-09-01 02:11:19 | 48.17771 | 14.35740 | 115° | 44km/h | 859m | -1.9m/s | 15.1°C | 69.5% | 926.4hPa | 2.7V | 00:00:00 | 00:00:00 | 00:00:00 | |
| OE3JTB-15 | 2026-09-01 02:11:18 | 48.17775 | 14.35725 | 113° | 42km/h | 861m | -2.0m/s | 15.1°C | 69.6% | 926.2hPa | 2.7V | 00:00:00 | 00:00:00 | 00:00:00 | |
| OE5DRO-10 | 2026-09-01 02:11:17 | 48.17779 | 14.35710 | 109° | 42km/h | 863m | -1.9m/s | 15.1°C | 69.5% | 925.9hPa | 2.7V | 00:00:00 | 00:00:00 | 00:00:00 | |
| OE5WHR-10 | 2026-09-01 02:11:16 | 48.17782 | 14.35695 | 105° | 44km/h | 865m | -1.7m/s | 15.0°C | 69.7% | 925.6hPa | 2.7V | 00:00:00 | 00:00:00 | 00:00:00 | |
| OE3JTB-15 | 2026-09-01 02:11:16 | 48.17782 | 14.35695 | 105° | 42km/h | 865m | -1.7m/s | 15.0°C | 69.7% | 925.6hPa | 2.7V | 00:00:00 | 00:00:00 | 00:00:00 | |
| OE5DRO-10 | 2026-09-01 02:11:15 | 48.17785 | 14.35680 | 101° | 46km/h | 867m | -1.7m/s | 15.0°C | 69.8% | 925.6hPa | 2.7V | 00:00:00 | 00:00:00 | 00:00:00 | |
| OE3JTB-15 | 2026-09-01 02:11:14 | 48.17787 | 14.35663 | 100° | 47km/h | 868m | -1.7m/s | 15.0°C | 69.8% | 925.5hPa | 2.7V | 00:00:00 | 03:41:45 | 00:00:00 | |
| OE5DRO-10 | 2026-09-01 02:11:13 | 48.17789 | 14.35645 | 101° | 51km/h | 870m | -1.8m/s | 15.0°C | 70.0% | 925.1hPa | 2.7V | 00:00:00 | 00:00:00 | 00:00:00 | |
| OE5WHR-10 | 2026-09-01 02:11:13 | 48.17789 | 14.35645 | 101° | 51km/h | 870m | -1.8m/s | 15.0°C | 70.0% | 925.1hPa | 2.7V | 00:00:00 | 00:00:00 | 00:00:00 | |
| PG1ADW-2 | 2026-09-01 02:11:12 | 48.17792 | 14.35626 | 103° | 47km/h | 872m | -1.9m/s | 14.9°C | 70.0% | 925.1hPa | 2.7V | 00:00:00 | 00:00:00 | 00:00:00 | |
| OE3JTB-15 | 2026-09-01 02:11:12 | 48.17792 | 14.35626 | 103° | 53km/h | 872m | -1.9m/s | 14.9°C | 70.0% | 925.1hPa | 2.7V | 06:51:00 | 00:00:00 | 00:00:00 | |
| OE5DRO-10 | 2026-09-01 02:11:11 | 48.17795 | 14.35607 | 106° | 53km/h | 874m | -1.8m/s | 14.9°C | 70.2% | 925.0hPa | 2.7V | 00:00:00 | 00:00:00 | 00:00:00 | |
| OE5WHR-10 | 2026-09-01 02:11:10 | 48.17799 | 14.35588 | 109° | 51km/h | 876m | -1.8m/s | 14.9°C | 70.0% | 924.6hPa | 2.7V | 00:00:00 | 03:41:41 | 00:00:00 | |
| OE3JTB-15 | 2026-09-01 02:11:10 | 48.17799 | 14.35588 | 109° | 53km/h | 876m | -1.8m/s | 14.9°C | 70.0% | 924.6hPa | 2.7V | 00:00:00 | 00:00:00 | 00:00:00 | |
| OE5DRO-10 | 2026-09-01 02:11:09 | 48.17803 | 14.35569 | 112° | 51km/h | 878m | -1.6m/s | 14.9°C | 70.1% | 924.4hPa | 2.7V | 06:51:00 | 00:00:00 | 00:00:00 | |
| OE3JTB-15 | 2026-09-01 02:11:08 | 48.17808 | 14.35551 | 114° | 49km/h | 879m | -1.8m/s | 14.9°C | 70.3% | 924.1hPa | 2.7V | 00:00:00 | 03:41:39 | 00:00:00 | |
| OE5DRO-10 | 2026-09-01 02:11:07 | 48.17813 | 14.35534 | 116° | 47km/h | 881m | -1.9m/s | 14.9°C | 70.1% | 923.9hPa | 2.7V | 00:00:00 | 00:00:00 | 00:00:00 | |
| OE5WHR-10 | 2026-09-01 02:11:07 | 48.17813 | 14.35534 | 116° | 46km/h | 881m | -1.9m/s | 14.9°C | 70.1% | 923.9hPa | 2.7V | 00:00:00 | 00:00:00 | 00:00:00 | |
| OE3JTB-15 | 2026-09-01 02:11:06 | 48.17818 | 14.35518 | 116° | 44km/h | 883m | -1.7m/s | 14.9°C | 70.3% | 923.8hPa | 2.7V | 00:00:00 | 00:00:00 | 00:00:00 | |
| OE5DRO-10 | 2026-09-01 02:11:05 | 48.17823 | 14.35503 | 115° | 42km/h | 885m | -1.7m/s | 14.8°C | 70.9% | 923.7hPa | 2.7V | 00:00:00 | 00:00:00 | 00:00:00 | |
| OE5DRO-10 | 2026-09-01 02:11:03 | 48.17830 | 14.35473 | 108° | 42km/h | 889m | -1.5m/s | 14.8°C | 71.0% | 923.1hPa | 2.7V | 00:00:00 | 00:00:00 | 00:00:00 | |
| OE3JTB-15 | 2026-09-01 02:11:02 | 48.17833 | 14.35458 | 104° | 44km/h | 890m | -1.7m/s | 14.8°C | 71.3% | 923.0hPa | 2.7V | 00:00:00 | 03:41:33 | 00:00:00 | |
| OE5DRO-10 | 2026-09-01 02:11:01 | 48.17836 | 14.35442 | 102° | 47km/h | 892m | -1.9m/s | 14.8°C | 71.2% | 922.9hPa | 2.7V | 00:00:00 | 00:00:00 | 00:00:00 | |
| OE5WHR-10 | 2026-09-01 02:11:01 | 48.17836 | 14.35442 | 102° | 49km/h | 892m | -1.9m/s | 14.8°C | 71.2% | 922.9hPa | 2.7V | 06:51:00 | 03:41:32 | 00:00:00 | |
| OE3JTB-15 | 2026-09-01 02:11:00 | 48.17838 | 14.35424 | 102° | 49km/h | 894m | -1.8m/s | 14.8°C | 71.5% | 922.4hPa | 2.7V | 00:00:00 | 00:00:00 | 00:00:00 | |
| OE5DRO-10 | 2026-09-01 02:10:59 | 48.17841 | 14.35406 | 104° | 51km/h | 896m | -1.9m/s | 14.7°C | 71.4% | 922.4hPa | 2.7V | 00:00:00 | 00:00:00 | 00:00:00 | |
| OE3JTB-15 | 2026-09-01 02:10:58 | 48.17844 | 14.35387 | 107° | 53km/h | 898m | -1.8m/s | 14.7°C | 71.6% | 922.1hPa | 2.7V | 06:51:00 | 00:00:00 | 00:00:00 | |
| OE5WHR-10 | 2026-09-01 02:10:58 | 48.17844 | 14.35387 | 107° | 51km/h | 898m | -1.8m/s | 14.7°C | 71.6% | 922.1hPa | 2.7V | 00:00:00 | 00:00:00 | 00:00:00 | |
| OE5DRO-10 | 2026-09-01 02:10:57 | 48.17848 | 14.35368 | 109° | 53km/h | 900m | -1.9m/s | 14.7°C | 71.7% | 922.1hPa | 2.7V | 00:00:00 | 00:00:00 | 00:00:00 | |
| PG1ADW-2 | 2026-09-01 02:10:57 | 48.17848 | 14.35368 | 109° | 46km/h | 900m | -1.9m/s | 14.7°C | 71.7% | 922.1hPa | 2.7V | 00:00:00 | 00:00:00 | 00:00:00 | |
| OE3JTB-15 | 2026-09-01 02:10:56 | 48.17853 | 14.35349 | 112° | 51km/h | 902m | -1.6m/s | 14.7°C | 71.7% | 921.9hPa | 2.7V | 00:00:00 | 03:41:27 | 00:00:00 | |
| OE5DRO-10 | 2026-09-01 02:10:55 | 48.17858 | 14.35332 | 114° | 49km/h | 903m | -1.8m/s | 14.7°C | 71.9% | 921.7hPa | 2.7V | 06:51:00 | 00:00:00 | 00:00:00 | |
| OE5WHR-10 | 2026-09-01 02:10:55 | 48.17858 | 14.35332 | 114° | 49km/h | 903m | -1.8m/s | 14.7°C | 71.9% | 921.7hPa | 2.7V | 00:00:00 | 00:00:00 | 00:00:00 | |
| OE3JTB-15 | 2026-09-01 02:10:54 | 48.17863 | 14.35315 | 115° | 47km/h | 905m | -1.9m/s | 14.7°C | 71.7% | 921.3hPa | 2.7V | 00:00:00 | 00:00:00 | 00:00:00 | |
| OE5DRO-10 | 2026-09-01 02:10:53 | 48.17868 | 14.35299 | 115° | 44km/h | 907m | -1.6m/s | 14.7°C | 71.8% | 921.2hPa | 2.7V | 00:00:00 | 00:00:00 | 00:00:00 | |
| OE3JTB-15 | 2026-09-01 02:10:52 | 48.17872 | 14.35284 | 115° | 42km/h | 909m | -1.9m/s | 14.6°C | 72.1% | 921.0hPa | 2.7V | 00:00:00 | 00:00:00 | 00:00:00 | |
| OE5WHR-10 | 2026-09-01 02:10:52 | 48.17872 | 14.35284 | 115° | 42km/h | 909m | -1.9m/s | 14.6°C | 72.1% | 921.0hPa | 2.7V | 00:00:00 | 03:41:23 | 00:00:00 | |
| OE5DRO-10 | 2026-09-01 02:10:51 | 48.17877 | 14.35269 | 112° | 40km/h | 910m | -1.6m/s | 14.6°C | 71.9% | 920.8hPa | 2.7V | 00:00:00 | 00:00:00 | 00:00:00 | |
| PG1ADW-2 | 2026-09-01 02:10:50 | 48.17880 | 14.35254 | 108° | 46km/h | 912m | -1.6m/s | 14.6°C | 72.2% | 920.6hPa | 2.7V | 00:00:00 | 03:41:21 | 00:00:00 | |
| OE3JTB-15 | 2026-09-01 02:10:50 | 48.17880 | 14.35254 | 108° | 42km/h | 912m | -1.6m/s | 14.6°C | 72.2% | 920.6hPa | 2.7V | 00:00:00 | 03:41:21 | 00:00:00 | |
| OE5DRO-10 | 2026-09-01 02:10:49 | 48.17883 | 14.35239 | 106° | 44km/h | 914m | -1.7m/s | 14.6°C | 72.1% | 920.4hPa | 2.7V | 00:00:00 | 00:00:00 | 00:00:00 | |
| OE5WHR-10 | 2026-09-01 02:10:49 | 48.17883 | 14.35239 | 106° | 46km/h | 914m | -1.7m/s | 14.6°C | 72.1% | 920.4hPa | 2.7V | 00:00:00 | 00:00:00 | 00:00:00 | |
| OE3JTB-15 | 2026-09-01 02:10:48 | 48.17886 | 14.35223 | 105° | 47km/h | 916m | -1.6m/s | 14.6°C | 72.3% | 920.2hPa | 2.7V | 00:00:00 | 00:00:00 | 00:00:00 | |
| OE5DRO-10 | 2026-09-01 02:10:47 | 48.17889 | 14.35206 | 106° | 49km/h | 917m | -1.6m/s | 14.6°C | 72.2% | 920.1hPa | 2.7V | 00:00:00 | 00:00:00 | 00:00:00 | |
| OE5DRO-10 | 2026-09-01 02:10:45 | 48.17897 | 14.35170 | 112° | 49km/h | 921m | -1.9m/s | 14.5°C | 72.5% | 919.6hPa | 2.7V | 00:00:00 | 00:00:00 | 00:00:00 | |
| PG1ADW-2 | 2026-09-01 02:10:44 | 48.17902 | 14.35153 | 114° | 44km/h | 923m | -1.6m/s | 14.5°C | 72.5% | 919.5hPa | 2.7V | 00:00:00 | 00:00:00 | 00:00:00 | |
| OE3JTB-15 | 2026-09-01 02:10:44 | 48.17902 | 14.35153 | 114° | 47km/h | 923m | -1.6m/s | 14.5°C | 72.5% | 919.5hPa | 2.7V | 06:51:00 | 03:41:15 | 00:00:00 | |
| OE5DRO-10 | 2026-09-01 02:10:43 | 48.17907 | 14.35136 | 117° | 46km/h | 924m | -1.8m/s | 14.5°C | 72.7% | 919.4hPa | 2.7V | 00:00:00 | 00:00:00 | 00:00:00 | |
| OE5WHR-10 | 2026-09-01 02:10:43 | 48.17907 | 14.35136 | 117° | 44km/h | 924m | -1.8m/s | 14.5°C | 72.7% | 919.4hPa | 2.7V | 00:00:00 | 03:41:14 | 00:00:00 | |
| OE3JTB-15 | 2026-09-01 02:10:42 | 48.17912 | 14.35121 | 117° | 44km/h | 926m | -2.0m/s | 14.5°C | 72.6% | 919.1hPa | 2.7V | 00:00:00 | 00:00:00 | 00:00:00 | |
| OE5DRO-10 | 2026-09-01 02:10:41 | 48.17917 | 14.35106 | 116° | 42km/h | 928m | -1.7m/s | 14.5°C | 72.6% | 918.8hPa | 2.7V | 06:51:00 | 00:00:00 | 00:00:00 | |
| OE3JTB-15 | 2026-09-01 02:10:40 | 48.17921 | 14.35092 | 114° | 40km/h | 930m | -1.8m/s | 14.4°C | 72.9% | 918.7hPa | 2.7V | 00:00:00 | 00:00:00 | 00:00:00 | |
| OE5WHR-10 | 2026-09-01 02:10:40 | 48.17921 | 14.35092 | 114° | 40km/h | 930m | -1.8m/s | 14.4°C | 72.9% | 918.7hPa | 2.7V | 06:51:00 | 00:00:00 | 00:00:00 | |
| OE5DRO-10 | 2026-09-01 02:10:39 | 48.17925 | 14.35078 | 109° | 40km/h | 932m | -1.9m/s | 14.4°C | 73.1% | 918.6hPa | 2.7V | 00:00:00 | 00:00:00 | 00:00:00 | |
| PG1ADW-2 | 2026-09-01 02:10:38 | 48.17928 | 14.35063 | 106° | 46km/h | 934m | -1.8m/s | 14.4°C | 72.9% | 918.1hPa | 2.7V | 06:51:00 | 00:00:00 | 00:00:00 | |
| OE3JTB-15 | 2026-09-01 02:10:38 | 48.17928 | 14.35063 | 106° | 42km/h | 934m | -1.8m/s | 14.4°C | 72.9% | 918.1hPa | 2.7V | 00:00:00 | 03:41:09 | 00:00:00 | |
| OE5DRO-10 | 2026-09-01 02:10:37 | 48.17930 | 14.35047 | 103° | 46km/h | 935m | -1.8m/s | 14.4°C | 73.0% | 918.1hPa | 2.7V | 00:00:00 | 00:00:00 | 00:00:00 | |
| OE5WHR-10 | 2026-09-01 02:10:37 | 48.17930 | 14.35047 | 103° | 46km/h | 935m | -1.8m/s | 14.4°C | 73.0% | 918.1hPa | 2.7V | 00:00:00 | 00:00:00 | 00:00:00 | |
| OE3JTB-15 | 2026-09-01 02:10:36 | 48.17933 | 14.35030 | 104° | 47km/h | 937m | -1.6m/s | 14.4°C | 73.0% | 918.0hPa | 2.7V | 00:00:00 | 00:00:00 | 00:00:00 | |
| OE5DRO-10 | 2026-09-01 02:10:35 | 48.17936 | 14.35013 | 106° | 47km/h | 939m | -1.7m/s | 14.4°C | 73.0% | 917.7hPa | 2.7V | 00:00:00 | 00:00:00 | 00:00:00 | |
| OE3JTB-15 | 2026-09-01 02:10:34 | 48.17940 | 14.34996 | 109° | 47km/h | 941m | -1.9m/s | 14.4°C | 73.2% | 917.5hPa | 2.7V | 00:00:00 | 00:00:00 | 00:00:00 | |
| OE5WHR-10 | 2026-09-01 02:10:34 | 48.17940 | 14.34996 | 109° | 47km/h | 941m | -1.9m/s | 14.4°C | 73.2% | 917.5hPa | 2.7V | 00:00:00 | 03:41:05 | 00:00:00 | |
| OE5DRO-10 | 2026-09-01 02:10:33 | 48.17944 | 14.34979 | 113° | 46km/h | 943m | -1.7m/s | 14.4°C | 73.2% | 917.4hPa | 2.7V | 00:00:00 | 00:00:00 | 00:00:00 | |
| OE3JTB-15 | 2026-09-01 02:10:32 | 48.17949 | 14.34963 | 114° | 44km/h | 944m | -1.7m/s | 14.3°C | 73.2% | 917.0hPa | 2.7V | 00:00:00 | 03:41:03 | 00:00:00 | |
| PG1ADW-2 | 2026-09-01 02:10:32 | 48.17949 | 14.34963 | 114° | 44km/h | 944m | -1.7m/s | 14.3°C | 73.2% | 917.0hPa | 2.7V | 00:00:00 | 00:00:00 | 00:00:00 | |
| OE5DRO-10 | 2026-09-01 02:10:31 | 48.17953 | 14.34948 | 115° | 42km/h | 946m | -1.6m/s | 14.3°C | 73.2% | 916.9hPa | 2.7V | 00:00:00 | 00:00:00 | 00:00:00 | |
| OE5WHR-10 | 2026-09-01 02:10:31 | 48.17953 | 14.34948 | 115° | 40km/h | 946m | -1.6m/s | 14.3°C | 73.2% | 916.9hPa | 2.7V | 00:00:00 | 00:00:00 | 00:00:00 | |
| OE3JTB-15 | 2026-09-01 02:10:30 | 48.17957 | 14.34934 | 113° | 40km/h | 948m | -1.7m/s | 14.3°C | 73.2% | 916.6hPa | 2.7V | 06:52:00 | 00:00:00 | 00:00:00 | |
| OE5DRO-10 | 2026-09-01 02:10:29 | 48.17961 | 14.34919 | 110° | 38km/h | 949m | -1.7m/s | 14.3°C | 73.2% | 916.6hPa | 2.7V | 00:00:00 | 00:00:00 | 00:00:00 | |
| OE3JTB-15 | 2026-09-01 02:10:28 | 48.17964 | 14.34906 | 107° | 40km/h | 951m | -1.8m/s | 14.3°C | 73.4% | 916.4hPa | 2.7V | 00:00:00 | 00:00:00 | 00:00:00 | |
| OE5WHR-10 | 2026-09-01 02:10:28 | 48.17964 | 14.34906 | 107° | 40km/h | 951m | -1.8m/s | 14.3°C | 73.4% | 916.4hPa | 2.7V | 00:00:00 | 00:00:00 | 00:00:00 | |
| OE5DRO-10 | 2026-09-01 02:10:27 | 48.17967 | 14.34891 | 104° | 42km/h | 953m | -1.7m/s | 14.3°C | 73.3% | 916.1hPa | 2.7V | 06:52:00 | 00:00:00 | 00:00:00 | |
| OE3JTB-15 | 2026-09-01 02:10:26 | 48.17969 | 14.34876 | 103° | 44km/h | 955m | -1.8m/s | 14.3°C | 73.2% | 915.8hPa | 2.7V | 00:00:00 | 03:40:57 | 00:00:00 | |
| OE5DRO-10 | 2026-09-01 02:10:25 | 48.17971 | 14.34860 | 103° | 46km/h | 957m | -1.8m/s | 14.2°C | 73.4% | 915.8hPa | 2.7V | 00:00:00 | 00:00:00 | 00:00:00 | |
| OE5WHR-10 | 2026-09-01 02:10:25 | 48.17971 | 14.34860 | 103° | 46km/h | 957m | -1.8m/s | 14.2°C | 73.4% | 915.8hPa | 2.7V | 00:00:00 | 03:40:56 | 00:00:00 | |
| OE3JTB-15 | 2026-09-01 02:10:24 | 48.17974 | 14.34843 | 105° | 47km/h | 959m | -1.7m/s | 14.2°C | 73.6% | 915.6hPa | 2.7V | 00:00:00 | 00:00:00 | 00:00:00 | |
| OE5DRO-10 | 2026-09-01 02:10:23 | 48.17977 | 14.34826 | 109° | 47km/h | 960m | -1.6m/s | 14.2°C | 73.4% | 915.3hPa | 2.7V | 00:00:00 | 00:00:00 | 00:00:00 | |
| PG1ADW-2 | 2026-09-01 02:10:22 | 48.17981 | 14.34809 | 112° | 42km/h | 962m | -1.6m/s | 14.2°C | 73.5% | 915.3hPa | 2.7V | 00:00:00 | 03:40:53 | 00:00:00 | |
| OE3JTB-15 | 2026-09-01 02:10:22 | 48.17981 | 14.34809 | 112° | 46km/h | 962m | -1.6m/s | 14.2°C | 73.5% | 915.3hPa | 2.7V | 00:00:00 | 00:00:00 | 00:00:00 | |
| OE5WHR-10 | 2026-09-01 02:10:22 | 48.17981 | 14.34809 | 112° | 44km/h | 962m | -1.6m/s | 14.2°C | 73.5% | 915.3hPa | 2.7V | 00:00:00 | 00:00:00 | 00:00:00 | |
| OE5DRO-10 | 2026-09-01 02:10:21 | 48.17986 | 14.34793 | 115° | 44km/h | 963m | -1.4m/s | 14.2°C | 73.5% | 915.1hPa | 2.7V | 00:00:00 | 00:00:00 | 00:00:00 | |
| OE3JTB-15 | 2026-09-01 02:10:20 | 48.17991 | 14.34778 | 116° | 42km/h | 965m | -1.7m/s | 14.2°C | 73.4% | 915.0hPa | 2.7V | 00:00:00 | 03:40:51 | 00:00:00 | |
| OE5DRO-10 | 2026-09-01 02:10:19 | 48.17995 | 14.34764 | 115° | 40km/h | 967m | -1.5m/s | 14.2°C | 73.3% | 914.7hPa | 2.7V | 00:00:00 | 00:00:00 | 00:00:00 | |
| OE5WHR-10 | 2026-09-01 02:10:19 | 48.17995 | 14.34764 | 115° | 40km/h | 967m | -1.5m/s | 14.2°C | 73.3% | 914.7hPa | 2.7V | 06:52:00 | 00:00:00 | 00:00:00 | |
| OE3JTB-15 | 2026-09-01 02:10:18 | 48.17999 | 14.34750 | 112° | 38km/h | 968m | -2.0m/s | 14.2°C | 73.4% | 914.4hPa | 2.7V | 00:00:00 | 00:00:00 | 00:00:00 | |
| OE5DRO-10 | 2026-09-01 02:10:17 | 48.18002 | 14.34736 | 108° | 40km/h | 970m | -1.8m/s | 14.1°C | 73.2% | 914.3hPa | 2.7V | 00:00:00 | 00:00:00 | 00:00:00 | |
| OE3JTB-15 | 2026-09-01 02:10:16 | 48.18005 | 14.34722 | 105° | 42km/h | 972m | -1.7m/s | 14.1°C | 73.4% | 914.1hPa | 2.7V | 06:52:00 | 00:00:00 | 00:00:00 | |
| PG1ADW-2 | 2026-09-01 02:10:16 | 48.18005 | 14.34722 | 105° | 46km/h | 972m | -1.7m/s | 14.1°C | 73.4% | 914.1hPa | 2.7V | 00:00:00 | 00:00:00 | 00:00:00 | |
| OE5WHR-10 | 2026-09-01 02:10:16 | 48.18005 | 14.34722 | 105° | 44km/h | 972m | -1.7m/s | 14.1°C | 73.4% | 914.1hPa | 2.7V | 00:00:00 | 03:40:47 | 00:00:00 | |
| OE5DRO-10 | 2026-09-01 02:10:15 | 48.18008 | 14.34706 | 105° | 46km/h | 974m | -1.7m/s | 14.1°C | 73.1% | 913.9hPa | 2.7V | 00:00:00 | 00:00:00 | 00:00:00 | |
| OE3JTB-15 | 2026-09-01 02:10:14 | 48.18011 | 14.34689 | 106° | 47km/h | 975m | -1.6m/s | 14.1°C | 73.4% | 913.8hPa | 2.7V | 00:00:00 | 03:40:45 | 00:00:00 | |
| OE5DRO-10 | 2026-09-01 02:10:13 | 48.18014 | 14.34672 | 109° | 49km/h | 977m | -1.6m/s | 14.1°C | 73.2% | 913.5hPa | 2.7V | 06:52:00 | 00:00:00 | 00:00:00 | |
| OE5WHR-10 | 2026-09-01 02:10:13 | 48.18014 | 14.34672 | 109° | 49km/h | 977m | -1.6m/s | 14.1°C | 73.2% | 913.5hPa | 2.7V | 00:00:00 | 00:00:00 | 00:00:00 | |
| OE3JTB-15 | 2026-09-01 02:10:12 | 48.18019 | 14.34654 | 112° | 49km/h | 979m | -2.0m/s | 14.1°C | 73.4% | 913.3hPa | 2.7V | 00:00:00 | 00:00:00 | 00:00:00 | |
| OE5DRO-10 | 2026-09-01 02:10:11 | 48.18023 | 14.34637 | 114° | 47km/h | 981m | -1.8m/s | 14.1°C | 73.1% | 913.1hPa | 2.7V | 00:00:00 | 00:00:00 | 00:00:00 | |
| OE5DRO-10 | 2026-09-01 02:10:09 | 48.18033 | 14.34606 | 116° | 42km/h | 985m | -1.6m/s | 14.1°C | 72.9% | 912.7hPa | 2.7V | 00:00:00 | 00:00:00 | 00:00:00 | |
| OE3JTB-15 | 2026-09-01 02:10:08 | 48.18038 | 14.34592 | 114° | 40km/h | 986m | -1.8m/s | 14.1°C | 72.6% | 912.7hPa | 2.7V | 00:00:00 | 03:40:39 | 00:00:00 | |
| OE5DRO-10 | 2026-09-01 02:10:07 | 48.18041 | 14.34577 | 110° | 40km/h | 988m | -1.8m/s | 14.1°C | 72.5% | 912.4hPa | 2.7V | 00:00:00 | 00:00:00 | 00:00:00 | |
| OE5WHR-10 | 2026-09-01 02:10:07 | 48.18041 | 14.34577 | 110° | 40km/h | 988m | -1.8m/s | 14.1°C | 72.5% | 912.4hPa | 2.7V | 00:00:00 | 03:40:38 | 00:00:00 | |
| OE3JTB-15 | 2026-09-01 02:10:06 | 48.18044 | 14.34563 | 107° | 42km/h | 990m | -1.8m/s | 14.1°C | 72.3% | 912.2hPa | 2.7V | 00:00:00 | 00:00:00 | 00:00:00 | |
| OE5DRO-10 | 2026-09-01 02:10:05 | 48.18047 | 14.34548 | 104° | 44km/h | 992m | -1.9m/s | 14.1°C | 72.0% | 911.9hPa | 2.7V | 00:00:00 | 00:00:00 | 00:00:00 | |
| PG1ADW-2 | 2026-09-01 02:10:04 | 48.18050 | 14.34531 | 105° | 47km/h | 993m | -1.7m/s | 14.1°C | 71.9% | 911.9hPa | 2.7V | 00:00:00 | 00:00:00 | 00:00:00 | |
| OE3JTB-15 | 2026-09-01 02:10:04 | 48.18050 | 14.34531 | 105° | 46km/h | 993m | -1.7m/s | 14.1°C | 71.9% | 911.9hPa | 2.7V | 00:00:00 | 00:00:00 | 00:00:00 | |
| OE5WHR-10 | 2026-09-01 02:10:04 | 48.18050 | 14.34531 | 105° | 47km/h | 993m | -1.7m/s | 14.1°C | 71.9% | 911.9hPa | 2.7V | 00:00:00 | 00:00:00 | 00:00:00 | |
| OE5DRO-10 | 2026-09-01 02:10:03 | 48.18053 | 14.34514 | 106° | 47km/h | 995m | -1.7m/s | 14.1°C | 72.0% | 911.6hPa | 2.7V | 00:00:00 | 00:00:00 | 00:00:00 | |
| OE3JTB-15 | 2026-09-01 02:10:02 | 48.18056 | 14.34497 | 109° | 49km/h | 997m | -1.9m/s | 14.1°C | 71.8% | 911.3hPa | 2.7V | 06:52:00 | 03:40:33 | 00:00:00 | |
| OE5DRO-10 | 2026-09-01 02:10:01 | 48.18060 | 14.34480 | 110° | 47km/h | 999m | -2.0m/s | 14.1°C | 71.6% | 911.1hPa | 2.7V | 00:00:00 | 00:00:00 | 00:00:00 | |
| OE5WHR-10 | 2026-09-01 02:10:01 | 48.18060 | 14.34480 | 110° | 47km/h | 999m | -2.0m/s | 14.1°C | 71.6% | 911.1hPa | 2.7V | 00:00:00 | 00:00:00 | 00:00:00 | |
| OE3JTB-15 | 2026-09-01 02:10:00 | 48.18065 | 14.34463 | 113° | 47km/h | 1001m | -1.9m/s | 14.1°C | 71.5% | 910.8hPa | 2.7V | 00:00:00 | 00:00:00 | 00:00:00 | |
| OE5DRO-10 | 2026-09-01 02:09:59 | 48.18069 | 14.34446 | 114° | 46km/h | 1003m | -1.7m/s | 14.1°C | 71.0% | 910.7hPa | 2.7V | 06:52:00 | 00:00:00 | 00:00:00 | |
| PG1ADW-2 | 2026-09-01 02:09:58 | 48.18074 | 14.34431 | 113° | 44km/h | 1005m | -1.8m/s | 14.1°C | 70.6% | 910.4hPa | 2.7V | 00:00:00 | 03:40:29 | 00:00:00 | |
| OE3JTB-15 | 2026-09-01 02:09:58 | 48.18074 | 14.34431 | 113° | 42km/h | 1005m | -1.8m/s | 14.1°C | 70.6% | 910.4hPa | 2.7V | 00:00:00 | 00:00:00 | 00:00:00 | |
| OE5WHR-10 | 2026-09-01 02:09:58 | 48.18074 | 14.34431 | 113° | 42km/h | 1005m | -1.8m/s | 14.1°C | 70.6% | 910.4hPa | 2.7V | 06:52:00 | 03:40:29 | 00:00:00 | |
| OE5DRO-10 | 2026-09-01 02:09:57 | 48.18078 | 14.34416 | 110° | 42km/h | 1006m | -1.8m/s | 14.1°C | 70.0% | 910.3hPa | 2.7V | 00:00:00 | 00:00:00 | 00:00:00 | |
| OE3JTB-15 | 2026-09-01 02:09:56 | 48.18081 | 14.34400 | 106° | 42km/h | 1008m | -1.7m/s | 14.1°C | 69.7% | 910.2hPa | 2.7V | 00:00:00 | 03:40:27 | 00:00:00 | |
| OE5DRO-10 | 2026-09-01 02:09:55 | 48.18084 | 14.34385 | 104° | 44km/h | 1010m | -1.7m/s | 14.2°C | 69.6% | 909.9hPa | 2.7V | 00:00:00 | 00:00:00 | 00:00:00 | |
| OE5WHR-10 | 2026-09-01 02:09:55 | 48.18084 | 14.34385 | 104° | 46km/h | 1010m | -1.7m/s | 14.2°C | 69.6% | 909.9hPa | 2.7V | 00:00:00 | 00:00:00 | 00:00:00 | |
| OE3JTB-15 | 2026-09-01 02:09:54 | 48.18086 | 14.34369 | 104° | 46km/h | 1012m | -2.0m/s | 14.2°C | 68.9% | 909.6hPa | 2.7V | 00:00:00 | 00:00:00 | 00:00:00 | |
| OE5DRO-10 | 2026-09-01 02:09:53 | 48.18089 | 14.34351 | 105° | 47km/h | 1014m | -1.8m/s | 14.2°C | 68.8% | 909.5hPa | 2.7V | 00:00:00 | 00:00:00 | 00:00:00 | |
| PG1ADW-2 | 2026-09-01 02:09:52 | 48.18092 | 14.34334 | 107° | 46km/h | 1016m | -2.0m/s | 14.2°C | 68.7% | 909.3hPa | 2.7V | 06:52:00 | 00:00:00 | 00:00:00 | |
| OE3JTB-15 | 2026-09-01 02:09:52 | 48.18092 | 14.34334 | 107° | 49km/h | 1016m | -2.0m/s | 14.2°C | 68.7% | 909.3hPa | 2.7V | 00:00:00 | 00:00:00 | 00:00:00 | |
| OE5WHR-10 | 2026-09-01 02:09:52 | 48.18092 | 14.34334 | 107° | 49km/h | 1016m | -2.0m/s | 14.2°C | 68.7% | 909.3hPa | 2.7V | 00:00:00 | 00:00:00 | 00:00:00 | |
| OE5DRO-10 | 2026-09-01 02:09:51 | 48.18096 | 14.34316 | 109° | 49km/h | 1018m | -1.9m/s | 14.2°C | 68.6% | 909.2hPa | 2.7V | 00:00:00 | 00:00:00 | 00:00:00 | |
| OE3JTB-15 | 2026-09-01 02:09:50 | 48.18100 | 14.34299 | 111° | 47km/h | 1020m | -1.7m/s | 14.2°C | 68.6% | 908.9hPa | 2.7V | 00:00:00 | 03:40:21 | 00:00:00 | |
| OE5DRO-10 | 2026-09-01 02:09:49 | 48.18105 | 14.34282 | 112° | 44km/h | 1022m | -1.8m/s | 14.2°C | 68.8% | 908.9hPa | 2.7V | 00:00:00 | 00:00:00 | 00:00:00 | |
| OE5WHR-10 | 2026-09-01 02:09:49 | 48.18105 | 14.34282 | 112° | 44km/h | 1022m | -1.8m/s | 14.2°C | 68.8% | 908.9hPa | 2.7V | 00:00:00 | 03:40:20 | 00:00:00 | |
| OE3JTB-15 | 2026-09-01 02:09:48 | 48.18109 | 14.34267 | 111° | 42km/h | 1023m | -1.8m/s | 14.2°C | 68.8% | 908.4hPa | 2.7V | 06:52:00 | 00:00:00 | 00:00:00 | |
| OE5DRO-10 | 2026-09-01 02:09:47 | 48.18112 | 14.34251 | 108° | 42km/h | 1025m | -1.8m/s | 14.2°C | 68.9% | 908.4hPa | 2.7V | 00:00:00 | 00:00:00 | 00:00:00 | |
| PG1ADW-2 | 2026-09-01 02:09:46 | 48.18115 | 14.34236 | 105° | 46km/h | 1027m | -1.8m/s | 14.2°C | 69.0% | 908.1hPa | 2.7V | 00:00:00 | 00:00:00 | 00:00:00 | |
| OE3JTB-15 | 2026-09-01 02:09:46 | 48.18115 | 14.34236 | 105° | 42km/h | 1027m | -1.8m/s | 14.2°C | 69.0% | 908.1hPa | 2.7V | 00:00:00 | 00:00:00 | 00:00:00 | |
| OE5WHR-10 | 2026-09-01 02:09:46 | 48.18115 | 14.34236 | 105° | 42km/h | 1027m | -1.8m/s | 14.2°C | 69.0% | 908.1hPa | 2.7V | 00:00:00 | 00:00:00 | 00:00:00 | |
| OE5DRO-10 | 2026-09-01 02:09:45 | 48.18118 | 14.34221 | 103° | 44km/h | 1029m | -1.9m/s | 14.1°C | 69.2% | 907.9hPa | 2.7V | 06:52:00 | 00:00:00 | 00:00:00 | |
| OE3JTB-15 | 2026-09-01 02:09:44 | 48.18120 | 14.34205 | 102° | 46km/h | 1031m | -2.0m/s | 14.1°C | 69.2% | 907.7hPa | 2.7V | 00:00:00 | 03:40:15 | 00:00:00 | |
| OE3JTB-15 | 2026-09-01 02:09:42 | 48.18125 | 14.34170 | 105° | 49km/h | 1035m | -1.9m/s | 14.1°C | 69.9% | 907.4hPa | 2.7V | 00:00:00 | 00:00:00 | 00:00:00 | |
| OE5DRO-10 | 2026-09-01 02:09:41 | 48.18128 | 14.34152 | 107° | 51km/h | 1037m | -1.9m/s | 14.1°C | 70.2% | 907.1hPa | 2.7V | 00:00:00 | 00:00:00 | 00:00:00 | |
| PG1ADW-2 | 2026-09-01 02:09:40 | 48.18132 | 14.34134 | 110° | 46km/h | 1039m | -1.8m/s | 14.1°C | 70.2% | 906.9hPa | 2.7V | 00:00:00 | 00:00:00 | 00:00:00 | |
| OE3JTB-15 | 2026-09-01 02:09:40 | 48.18132 | 14.34134 | 110° | 49km/h | 1039m | -1.8m/s | 14.1°C | 70.2% | 906.9hPa | 2.7V | 00:00:00 | 00:00:00 | 00:00:00 | |
| OE5WHR-10 | 2026-09-01 02:09:40 | 48.18132 | 14.34134 | 110° | 49km/h | 1039m | -1.8m/s | 14.1°C | 70.2% | 906.9hPa | 2.7V | 00:00:00 | 03:40:11 | 00:00:00 | |
| OE5DRO-10 | 2026-09-01 02:09:39 | 48.18137 | 14.34116 | 112° | 47km/h | 1041m | -1.8m/s | 14.1°C | 70.4% | 906.8hPa | 2.7V | 00:00:00 | 00:00:00 | 00:00:00 | |
| OE3JTB-15 | 2026-09-01 02:09:38 | 48.18141 | 14.34099 | 112° | 46km/h | 1043m | -1.8m/s | 14.1°C | 70.3% | 906.5hPa | 2.7V | 00:00:00 | 03:40:09 | 00:00:00 | |
| OE5DRO-10 | 2026-09-01 02:09:37 | 48.18145 | 14.34084 | 111° | 42km/h | 1045m | -1.7m/s | 14.1°C | 70.5% | 906.3hPa | 2.7V | 00:00:00 | 00:00:00 | 00:00:00 | |
| OE5WHR-10 | 2026-09-01 02:09:37 | 48.18145 | 14.34084 | 111° | 42km/h | 1045m | -1.7m/s | 14.1°C | 70.5% | 906.3hPa | 2.7V | 06:52:00 | 00:00:00 | 00:00:00 | |
| OE3JTB-15 | 2026-09-01 02:09:36 | 48.18149 | 14.34068 | 109° | 42km/h | 1046m | -1.8m/s | 14.0°C | 70.5% | 906.1hPa | 2.7V | 00:00:00 | 00:00:00 | 00:00:00 | |
| OE5DRO-10 | 2026-09-01 02:09:35 | 48.18152 | 14.34053 | 105° | 44km/h | 1048m | -1.9m/s | 14.0°C | 70.5% | 906.0hPa | 2.7V | 00:00:00 | 00:00:00 | 00:00:00 | |
| PG1ADW-2 | 2026-09-01 02:09:34 | 48.18154 | 14.34037 | 103° | 49km/h | 1050m | -2.0m/s | 14.0°C | 70.8% | 905.7hPa | 2.7V | 00:00:00 | 03:40:05 | 00:00:00 | |
| OE3JTB-15 | 2026-09-01 02:09:34 | 48.18154 | 14.34037 | 103° | 46km/h | 1050m | -2.0m/s | 14.0°C | 70.8% | 905.7hPa | 2.7V | 06:52:00 | 00:00:00 | 00:00:00 | |
| OE5WHR-10 | 2026-09-01 02:09:34 | 48.18154 | 14.34037 | 103° | 46km/h | 1050m | -2.0m/s | 14.0°C | 70.8% | 905.7hPa | 2.7V | 00:00:00 | 00:00:00 | 00:00:00 | |
| OE5DRO-10 | 2026-09-01 02:09:33 | 48.18157 | 14.34021 | 102° | 47km/h | 1052m | -2.0m/s | 14.0°C | 70.9% | 905.4hPa | 2.7V | 00:00:00 | 00:00:00 | 00:00:00 | |
| OE3JTB-15 | 2026-09-01 02:09:32 | 48.18160 | 14.34003 | 104° | 49km/h | 1054m | -1.9m/s | 14.0°C | 70.8% | 905.3hPa | 2.7V | 00:00:00 | 03:40:03 | 00:00:00 | |
| OE5DRO-10 | 2026-09-01 02:09:31 | 48.18163 | 14.33984 | 106° | 51km/h | 1056m | -1.7m/s | 13.9°C | 71.0% | 905.2hPa | 2.7V | 06:53:00 | 00:00:00 | 00:00:00 | |
| OE5WHR-10 | 2026-09-01 02:09:31 | 48.18163 | 14.33984 | 106° | 51km/h | 1056m | -1.7m/s | 13.9°C | 71.0% | 905.2hPa | 2.7V | 00:00:00 | 03:40:02 | 00:00:00 | |
| OE3JTB-15 | 2026-09-01 02:09:30 | 48.18167 | 14.33966 | 110° | 51km/h | 1058m | -1.8m/s | 13.9°C | 71.1% | 904.8hPa | 2.7V | 00:00:00 | 00:00:00 | 00:00:00 | |
| OE5DRO-10 | 2026-09-01 02:09:29 | 48.18171 | 14.33948 | 113° | 49km/h | 1059m | -1.7m/s | 13.9°C | 71.2% | 904.6hPa | 2.7V | 00:00:00 | 00:00:00 | 00:00:00 | |
| OE3JTB-15 | 2026-09-01 02:09:28 | 48.18176 | 14.33931 | 115° | 47km/h | 1062m | -2.0m/s | 13.9°C | 71.3% | 904.5hPa | 2.7V | 00:00:00 | 00:00:00 | 00:00:00 | |
| PG1ADW-2 | 2026-09-01 02:09:28 | 48.18176 | 14.33931 | 115° | 44km/h | 1062m | -2.0m/s | 13.9°C | 71.3% | 904.5hPa | 2.7V | 00:00:00 | 00:00:00 | 00:00:00 | |
| OE5WHR-10 | 2026-09-01 02:09:28 | 48.18176 | 14.33931 | 115° | 46km/h | 1062m | -2.0m/s | 13.9°C | 71.3% | 904.5hPa | 2.7V | 00:00:00 | 00:00:00 | 00:00:00 | |
| OE5DRO-10 | 2026-09-01 02:09:27 | 48.18181 | 14.33915 | 114° | 44km/h | 1063m | -1.8m/s | 13.9°C | 71.2% | 904.3hPa | 2.7V | 00:00:00 | 00:00:00 | 00:00:00 | |
| OE3JTB-15 | 2026-09-01 02:09:26 | 48.18185 | 14.33899 | 113° | 42km/h | 1065m | -1.9m/s | 13.9°C | 71.3% | 904.2hPa | 2.7V | 00:00:00 | 03:39:57 | 00:00:00 | |
| OE5DRO-10 | 2026-09-01 02:09:25 | 48.18189 | 14.33884 | 109° | 42km/h | 1067m | -1.8m/s | 13.8°C | 71.4% | 903.9hPa | 2.7V | 00:00:00 | 00:00:00 | 00:00:00 | |
| OE5WHR-10 | 2026-09-01 02:09:25 | 48.18189 | 14.33884 | 109° | 42km/h | 1067m | -1.8m/s | 13.8°C | 71.4% | 903.9hPa | 2.7V | 00:00:00 | 00:00:00 | 00:00:00 | |
| OE3JTB-15 | 2026-09-01 02:09:24 | 48.18192 | 14.33869 | 105° | 44km/h | 1069m | -1.9m/s | 13.8°C | 71.4% | 903.6hPa | 2.7V | 00:00:00 | 00:00:00 | 00:00:00 | |
| OE5DRO-10 | 2026-09-01 02:09:23 | 48.18195 | 14.33853 | 103° | 46km/h | 1071m | -2.1m/s | 13.8°C | 71.7% | 903.3hPa | 2.7V | 00:00:00 | 00:00:00 | 00:00:00 | |
| PG1ADW-2 | 2026-09-01 02:09:22 | 48.18197 | 14.33837 | 102° | 49km/h | 1073m | -1.9m/s | 13.8°C | 71.7% | 902.9hPa | 2.7V | 00:00:00 | 00:00:00 | 00:00:00 | |
| OE3JTB-15 | 2026-09-01 02:09:22 | 48.18197 | 14.33837 | 102° | 47km/h | 1073m | -1.9m/s | 13.8°C | 71.7% | 902.9hPa | 2.7V | 00:00:00 | 00:00:00 | 00:00:00 | |
| OE5WHR-10 | 2026-09-01 02:09:22 | 48.18197 | 14.33837 | 102° | 49km/h | 1073m | -1.9m/s | 13.8°C | 71.7% | 902.9hPa | 2.7V | 00:00:00 | 03:39:53 | 00:00:00 | |
| OE5DRO-10 | 2026-09-01 02:09:21 | 48.18200 | 14.33819 | 103° | 49km/h | 1075m | -2.0m/s | 13.7°C | 71.8% | 902.9hPa | 2.7V | 00:00:00 | 00:00:00 | 00:00:00 | |
| OE3JTB-15 | 2026-09-01 02:09:20 | 48.18203 | 14.33801 | 106° | 51km/h | 1077m | -1.9m/s | 13.7°C | 71.6% | 902.6hPa | 2.7V | 06:53:00 | 03:39:51 | 00:00:00 | |
| OE5DRO-10 | 2026-09-01 02:09:19 | 48.18206 | 14.33782 | 109° | 51km/h | 1079m | -2.0m/s | 13.7°C | 71.8% | 902.6hPa | 2.7V | 00:00:00 | 00:00:00 | 00:00:00 | |
| OE5WHR-10 | 2026-09-01 02:09:19 | 48.18206 | 14.33782 | 109° | 49km/h | 1079m | -2.0m/s | 13.7°C | 71.8% | 902.6hPa | 2.7V | 00:00:00 | 00:00:00 | 00:00:00 | |
| OE3JTB-15 | 2026-09-01 02:09:18 | 48.18211 | 14.33764 | 112° | 49km/h | 1081m | -2.1m/s | 13.7°C | 72.1% | 902.4hPa | 2.7V | 00:00:00 | 00:00:00 | 00:00:00 | |
| OE5DRO-10 | 2026-09-01 02:09:17 | 48.18216 | 14.33747 | 114° | 47km/h | 1083m | -1.8m/s | 13.7°C | 72.0% | 902.0hPa | 2.7V | 06:53:00 | 00:00:00 | 00:00:00 | |
| PG1ADW-2 | 2026-09-01 02:09:16 | 48.18221 | 14.33730 | 115° | 44km/h | 1085m | -2.0m/s | 13.7°C | 72.3% | 902.0hPa | 2.7V | 00:00:00 | 00:00:00 | 00:00:00 | |
| OE3JTB-15 | 2026-09-01 02:09:16 | 48.18221 | 14.33730 | 115° | 46km/h | 1085m | -2.0m/s | 13.7°C | 72.3% | 902.0hPa | 2.7V | 00:00:00 | 00:00:00 | 00:00:00 | |
| OE5WHR-10 | 2026-09-01 02:09:16 | 48.18221 | 14.33730 | 115° | 44km/h | 1085m | -2.0m/s | 13.7°C | 72.3% | 902.0hPa | 2.7V | 06:53:00 | 00:00:00 | 00:00:00 | |
| OE5DRO-10 | 2026-09-01 02:09:15 | 48.18225 | 14.33714 | 114° | 44km/h | 1087m | -2.0m/s | 13.7°C | 72.1% | 901.7hPa | 2.7V | 00:00:00 | 00:00:00 | 00:00:00 | |
| OE3JTB-15 | 2026-09-01 02:09:14 | 48.18229 | 14.33699 | 111° | 42km/h | 1089m | -1.9m/s | 13.7°C | 72.2% | 901.5hPa | 2.7V | 00:00:00 | 03:39:45 | 00:00:00 | |
| OE5DRO-10 | 2026-09-01 02:09:13 | 48.18232 | 14.33684 | 108° | 44km/h | 1091m | -2.0m/s | 13.6°C | 72.3% | 901.3hPa | 2.7V | 00:00:00 | 00:00:00 | 00:00:00 | |
| OE5WHR-10 | 2026-09-01 02:09:13 | 48.18232 | 14.33684 | 108° | 46km/h | 1091m | -2.0m/s | 13.6°C | 72.3% | 901.3hPa | 2.7V | 00:00:00 | 03:39:44 | 00:00:00 | |
| OE3JTB-15 | 2026-09-01 02:09:12 | 48.18236 | 14.33668 | 105° | 46km/h | 1093m | -1.9m/s | 13.6°C | 72.4% | 901.2hPa | 2.7V | 00:00:00 | 00:00:00 | 00:00:00 | |
| OE5DRO-10 | 2026-09-01 02:09:11 | 48.18238 | 14.33651 | 105° | 49km/h | 1095m | -1.9m/s | 13.6°C | 72.4% | 900.9hPa | 2.7V | 00:00:00 | 00:00:00 | 00:00:00 | |
| PG1ADW-2 | 2026-09-01 02:09:10 | 48.18242 | 14.33633 | 106° | 49km/h | 1097m | -1.9m/s | 13.6°C | 72.5% | 900.8hPa | 2.7V | 06:53:00 | 03:39:41 | 00:00:00 | |
| OE3JTB-15 | 2026-09-01 02:09:10 | 48.18242 | 14.33633 | 106° | 51km/h | 1097m | -1.9m/s | 13.6°C | 72.5% | 900.8hPa | 2.7V | 00:00:00 | 00:00:00 | 00:00:00 | |
| OE5WHR-10 | 2026-09-01 02:09:10 | 48.18242 | 14.33633 | 106° | 51km/h | 1097m | -1.9m/s | 13.6°C | 72.5% | 900.8hPa | 2.7V | 00:00:00 | 00:00:00 | 00:00:00 | |
| OE5DRO-10 | 2026-09-01 02:09:09 | 48.18245 | 14.33614 | 109° | 51km/h | 1099m | -2.0m/s | 13.6°C | 72.7% | 900.3hPa | 2.7V | 00:00:00 | 00:00:00 | 00:00:00 | |
| OE5HKT-10 | 2026-09-01 02:09:09 | 48.18245 | 14.33614 | 109° | 51km/h | 1099m | -2.0m/s | 13.6°C | 72.7% | 900.3hPa | 2.7V | 00:00:00 | 00:00:00 | 00:00:00 | |
| OE3JTB-15 | 2026-09-01 02:09:08 | 48.18250 | 14.33596 | 111° | 49km/h | 1101m | -2.0m/s | 13.5°C | 72.5% | 900.2hPa | 2.7V | 00:00:00 | 03:39:39 | 00:00:00 | |
| OE5DRO-10 | 2026-09-01 02:09:07 | 48.18255 | 14.33579 | 114° | 47km/h | 1103m | -2.0m/s | 13.5°C | 72.7% | 900.1hPa | 2.7V | 00:00:00 | 00:00:00 | 00:00:00 | |
| OE5WHR-10 | 2026-09-01 02:09:07 | 48.18255 | 14.33579 | 114° | 46km/h | 1103m | -2.0m/s | 13.5°C | 72.7% | 900.1hPa | 2.7V | 00:00:00 | 00:00:00 | 00:00:00 | |
| OE3JTB-15 | 2026-09-01 02:09:06 | 48.18260 | 14.33562 | 115° | 46km/h | 1106m | -1.9m/s | 13.5°C | 72.7% | 899.8hPa | 2.7V | 06:53:00 | 00:00:00 | 00:00:00 | |
| OE5DRO-10 | 2026-09-01 02:09:05 | 48.18264 | 14.33547 | 114° | 42km/h | 1107m | -1.8m/s | 13.5°C | 72.6% | 899.6hPa | 2.7V | 00:00:00 | 00:00:00 | 00:00:00 | |
| PG1ADW-2 | 2026-09-01 02:09:04 | 48.18269 | 14.33532 | 112° | 46km/h | 1109m | -2.0m/s | 13.5°C | 72.9% | 899.4hPa | 2.7V | 00:00:00 | 00:00:00 | 00:00:00 | |
| OE3JTB-15 | 2026-09-01 02:09:04 | 48.18269 | 14.33532 | 112° | 42km/h | 1109m | -2.0m/s | 13.5°C | 72.9% | 899.4hPa | 2.7V | 00:00:00 | 00:00:00 | 00:00:00 | |
| OE5WHR-10 | 2026-09-01 02:09:04 | 48.18269 | 14.33532 | 112° | 42km/h | 1109m | -2.0m/s | 13.5°C | 72.9% | 899.4hPa | 2.7V | 00:00:00 | 03:39:35 | 00:00:00 | |
| OE5DRO-10 | 2026-09-01 02:09:03 | 48.18272 | 14.33517 | 108° | 42km/h | 1111m | -2.0m/s | 13.5°C | 72.6% | 899.2hPa | 2.7V | 06:53:00 | 00:00:00 | 00:00:00 | |
| OE3JTB-15 | 2026-09-01 02:09:02 | 48.18275 | 14.33501 | 104° | 44km/h | 1113m | -2.0m/s | 13.5°C | 72.9% | 899.0hPa | 2.7V | 00:00:00 | 03:39:33 | 00:00:00 | |
| OE5DRO-10 | 2026-09-01 02:09:01 | 48.18277 | 14.33485 | 103° | 47km/h | 1116m | -2.0m/s | 13.4°C | 72.8% | 898.5hPa | 2.7V | 00:00:00 | 00:00:00 | 00:00:00 | |
| OE5WHR-10 | 2026-09-01 02:09:01 | 48.18277 | 14.33485 | 103° | 47km/h | 1116m | -2.0m/s | 13.4°C | 72.8% | 898.5hPa | 2.7V | 00:00:00 | 00:00:00 | 00:00:00 | |
| OE3JTB-15 | 2026-09-01 02:09:00 | 48.18280 | 14.33468 | 104° | 49km/h | 1118m | -2.0m/s | 13.4°C | 72.8% | 898.5hPa | 2.7V | 00:00:00 | 00:00:00 | 00:00:00 | |
| OE5DRO-10 | 2026-09-01 02:08:59 | 48.18283 | 14.33449 | 106° | 51km/h | 1120m | -2.1m/s | 13.4°C | 72.8% | 898.2hPa | 2.7V | 00:00:00 | 00:00:00 | 00:00:00 | |
| PG1ADW-2 | 2026-09-01 02:08:58 | 48.18287 | 14.33431 | 109° | 49km/h | 1122m | -2.0m/s | 13.4°C | 72.9% | 898.0hPa | 2.7V | 00:00:00 | 00:00:00 | 00:00:00 | |
| OE3JTB-15 | 2026-09-01 02:08:58 | 48.18287 | 14.33431 | 109° | 51km/h | 1122m | -2.0m/s | 13.4°C | 72.9% | 898.0hPa | 2.7V | 00:00:00 | 00:00:00 | 00:00:00 | |
| OE5WHR-10 | 2026-09-01 02:08:58 | 48.18287 | 14.33431 | 109° | 51km/h | 1122m | -2.0m/s | 13.4°C | 72.9% | 898.0hPa | 2.7V | 00:00:00 | 00:00:00 | 00:00:00 | |
| OE5DRO-10 | 2026-09-01 02:08:57 | 48.18291 | 14.33412 | 112° | 51km/h | 1124m | -1.9m/s | 13.4°C | 72.9% | 898.0hPa | 2.7V | 00:00:00 | 00:00:00 | 00:00:00 | |
| OE3JTB-15 | 2026-09-01 02:08:56 | 48.18296 | 14.33394 | 115° | 49km/h | 1126m | -2.1m/s | 13.4°C | 72.9% | 897.7hPa | 2.7V | 00:00:00 | 03:39:27 | 00:00:00 | |
| OE5DRO-10 | 2026-09-01 02:08:55 | 48.18302 | 14.33377 | 117° | 47km/h | 1128m | -2.2m/s | 13.4°C | 72.6% | 897.4hPa | 2.7V | 00:00:00 | 00:00:00 | 00:00:00 | |
| OE5WHR-10 | 2026-09-01 02:08:55 | 48.18302 | 14.33377 | 117° | 46km/h | 1128m | -2.2m/s | 13.4°C | 72.6% | 897.4hPa | 2.7V | 06:53:00 | 03:39:26 | 00:00:00 | |
| OE5HKT-10 | 2026-09-01 02:08:55 | 48.18302 | 14.33377 | 117° | 47km/h | 1128m | -2.2m/s | 13.4°C | 72.6% | 897.4hPa | 2.7V | 00:00:00 | 00:00:00 | 00:00:00 | |
| OE3JTB-15 | 2026-09-01 02:08:54 | 48.18307 | 14.33361 | 117° | 44km/h | 1130m | -2.1m/s | 13.4°C | 72.2% | 897.1hPa | 2.7V | 00:00:00 | 00:00:00 | 00:00:00 | |
| OE5DRO-10 | 2026-09-01 02:08:53 | 48.18312 | 14.33346 | 116° | 42km/h | 1132m | -1.8m/s | 13.4°C | 72.0% | 896.9hPa | 2.7V | 00:00:00 | 00:00:00 | 00:00:00 | |
| OE3JTB-15 | 2026-09-01 02:08:52 | 48.18316 | 14.33332 | 113° | 40km/h | 1134m | -2.1m/s | 13.3°C | 72.3% | 896.7hPa | 2.7V | 06:53:00 | 00:00:00 | 00:00:00 | |
| PG1ADW-2 | 2026-09-01 02:08:52 | 48.18316 | 14.33332 | 113° | 44km/h | 1134m | -2.1m/s | 13.3°C | 72.3% | 896.7hPa | 2.7V | 00:00:00 | 00:00:00 | 00:00:00 | |
| OE5HKT-10 | 2026-09-01 02:08:52 | 48.18316 | 14.33332 | 113° | 46km/h | 1134m | -2.1m/s | 13.3°C | 72.3% | 896.7hPa | 2.7V | 06:53:00 | 03:39:23 | 00:00:00 | |
| OE5WHR-10 | 2026-09-01 02:08:52 | 48.18316 | 14.33332 | 113° | 42km/h | 1134m | -2.1m/s | 13.3°C | 72.3% | 896.7hPa | 2.7V | 00:00:00 | 00:00:00 | 00:00:00 | |
| OE5DRO-10 | 2026-09-01 02:08:51 | 48.18320 | 14.33317 | 109° | 42km/h | 1136m | -2.2m/s | 13.3°C | 72.1% | 896.6hPa | 2.7V | 00:00:00 | 00:00:00 | 00:00:00 | |
| OE3JTB-15 | 2026-09-01 02:08:50 | 48.18323 | 14.33302 | 105° | 44km/h | 1138m | -1.9m/s | 13.3°C | 72.3% | 896.4hPa | 2.7V | 00:00:00 | 03:39:21 | 00:00:00 | |
| OE5DRO-10 | 2026-09-01 02:08:49 | 48.18325 | 14.33286 | 102° | 46km/h | 1141m | -2.2m/s | 13.3°C | 72.1% | 896.2hPa | 2.7V | 06:53:00 | 00:00:00 | 00:00:00 | |
| OE5WHR-10 | 2026-09-01 02:08:49 | 48.18325 | 14.33286 | 102° | 47km/h | 1141m | -2.2m/s | 13.3°C | 72.1% | 896.2hPa | 2.7V | 00:00:00 | 00:00:00 | 00:00:00 | |
| OE3JTB-15 | 2026-09-01 02:08:48 | 48.18327 | 14.33269 | 102° | 49km/h | 1143m | -1.9m/s | 13.3°C | 72.1% | 895.9hPa | 2.7V | 00:00:00 | 00:00:00 | 00:00:00 | |
| OE5DRO-10 | 2026-09-01 02:08:47 | 48.18330 | 14.33251 | 103° | 51km/h | 1145m | -2.3m/s | 13.2°C | 72.3% | 895.7hPa | 2.7V | 00:00:00 | 00:00:00 | 00:00:00 | |
| PG1ADW-2 | 2026-09-01 02:08:46 | 48.18333 | 14.33232 | 106° | 49km/h | 1147m | -2.1m/s | 13.3°C | 72.1% | 895.4hPa | 2.7V | 00:00:00 | 03:39:17 | 00:00:00 | |
| OE3JTB-15 | 2026-09-01 02:08:46 | 48.18333 | 14.33232 | 106° | 51km/h | 1147m | -2.1m/s | 13.3°C | 72.1% | 895.4hPa | 2.7V | 00:00:00 | 00:00:00 | 00:00:00 | |
| OE5WHR-10 | 2026-09-01 02:08:46 | 48.18333 | 14.33232 | 106° | 51km/h | 1147m | -2.1m/s | 13.3°C | 72.1% | 895.4hPa | 2.7V | 00:00:00 | 03:39:17 | 00:00:00 | |
| OE5DRO-10 | 2026-09-01 02:08:45 | 48.18337 | 14.33214 | 109° | 51km/h | 1149m | -2.1m/s | 13.2°C | 72.0% | 895.3hPa | 2.7V | 00:00:00 | 00:00:00 | 00:00:00 | |
| OE3JTB-15 | 2026-09-01 02:08:44 | 48.18342 | 14.33195 | 113° | 51km/h | 1152m | -2.0m/s | 13.2°C | 72.0% | 894.9hPa | 2.7V | 00:00:00 | 03:39:15 | 00:00:00 | |
| OE5HKT-10 | 2026-09-01 02:08:44 | 48.18342 | 14.33195 | 113° | 51km/h | 1152m | -2.0m/s | 13.2°C | 72.0% | 894.9hPa | 2.7V | 00:00:00 | 00:00:00 | 00:00:00 | |
| OE5DRO-10 | 2026-09-01 02:08:43 | 48.18347 | 14.33178 | 115° | 49km/h | 1154m | -1.8m/s | 13.2°C | 72.0% | 894.8hPa | 2.7V | 00:00:00 | 00:00:00 | 00:00:00 | |
| OE5WHR-10 | 2026-09-01 02:08:43 | 48.18347 | 14.33178 | 115° | 47km/h | 1154m | -1.8m/s | 13.2°C | 72.0% | 894.8hPa | 2.7V | 00:00:00 | 00:00:00 | 00:00:00 | |
| OE3JTB-15 | 2026-09-01 02:08:42 | 48.18352 | 14.33161 | 117° | 46km/h | 1156m | -2.1m/s | 13.2°C | 72.2% | 894.6hPa | 2.7V | 00:00:00 | 00:00:00 | 00:00:00 | |
| OE5DRO-10 | 2026-09-01 02:08:41 | 48.18358 | 14.33146 | 118° | 44km/h | 1158m | -2.0m/s | 13.2°C | 72.1% | 894.3hPa | 2.7V | 00:00:00 | 00:00:00 | 00:00:00 | |
| OE3JTB-15 | 2026-09-01 02:08:40 | 48.18363 | 14.33131 | 117° | 42km/h | 1160m | -2.1m/s | 13.2°C | 72.0% | 894.0hPa | 2.7V | 00:00:00 | 00:00:00 | 00:00:00 | |
| PG1ADW-2 | 2026-09-01 02:08:40 | 48.18363 | 14.33131 | 117° | 40km/h | 1160m | -2.1m/s | 13.2°C | 72.0% | 894.0hPa | 2.7V | 00:00:00 | 00:00:00 | 00:00:00 | |
| OE5WHR-10 | 2026-09-01 02:08:40 | 48.18363 | 14.33131 | 117° | 40km/h | 1160m | -2.1m/s | 13.2°C | 72.0% | 894.0hPa | 2.7V | 00:00:00 | 00:00:00 | 00:00:00 | |
| OE5DRO-10 | 2026-09-01 02:08:39 | 48.18367 | 14.33117 | 114° | 40km/h | 1162m | -1.9m/s | 13.1°C | 72.1% | 893.9hPa | 2.7V | 00:00:00 | 00:00:00 | 00:00:00 | |
| OE3JTB-15 | 2026-09-01 02:08:38 | 48.18371 | 14.33103 | 111° | 40km/h | 1164m | -2.1m/s | 13.1°C | 72.2% | 893.5hPa | 2.7V | 06:53:00 | 03:39:09 | 00:00:00 | |
| OE5HKT-10 | 2026-09-01 02:08:38 | 48.18371 | 14.33103 | 111° | 46km/h | 1164m | -2.1m/s | 13.1°C | 72.2% | 893.5hPa | 2.7V | 00:00:00 | 00:00:00 | 00:00:00 | |
| OE5DRO-10 | 2026-09-01 02:08:37 | 48.18374 | 14.33088 | 107° | 40km/h | 1166m | -2.1m/s | 13.1°C | 72.1% | 893.4hPa | 2.7V | 00:00:00 | 00:00:00 | 00:00:00 | |
| OE5WHR-10 | 2026-09-01 02:08:37 | 48.18374 | 14.33088 | 107° | 42km/h | 1166m | -2.1m/s | 13.1°C | 72.1% | 893.4hPa | 2.7V | 00:00:00 | 03:39:08 | 00:00:00 | |
| OE3JTB-15 | 2026-09-01 02:08:36 | 48.18377 | 14.33074 | 105° | 42km/h | 1169m | -2.1m/s | 13.1°C | 71.9% | 893.1hPa | 2.7V | 00:00:00 | 00:00:00 | 00:00:00 | |
| OE5DRO-10 | 2026-09-01 02:08:35 | 48.18379 | 14.33058 | 102° | 44km/h | 1171m | -2.2m/s | 13.1°C | 72.1% | 892.9hPa | 2.7V | 06:53:00 | 00:00:00 | 00:00:00 | |
| PG1ADW-2 | 2026-09-01 02:08:34 | 48.18382 | 14.33042 | 102° | 47km/h | 1173m | -2.0m/s | 13.1°C | 72.1% | 892.7hPa | 2.7V | 00:00:00 | 00:00:00 | 00:00:00 | |
| OE3JTB-15 | 2026-09-01 02:08:34 | 48.18382 | 14.33042 | 102° | 47km/h | 1173m | -2.0m/s | 13.1°C | 72.1% | 892.7hPa | 2.7V | 00:00:00 | 00:00:00 | 00:00:00 | |
| OE5WHR-10 | 2026-09-01 02:08:34 | 48.18382 | 14.33042 | 102° | 47km/h | 1173m | -2.0m/s | 13.1°C | 72.1% | 892.7hPa | 2.7V | 06:53:00 | 00:00:00 | 00:00:00 | |
| OE5DRO-10 | 2026-09-01 02:08:33 | 48.18384 | 14.33025 | 102° | 49km/h | 1175m | -2.1m/s | 13.0°C | 72.1% | 892.4hPa | 2.7V | 00:00:00 | 00:00:00 | 00:00:00 | |
| OE3JTB-15 | 2026-09-01 02:08:32 | 48.18386 | 14.33007 | 105° | 49km/h | 1177m | -1.9m/s | 13.0°C | 72.2% | 892.3hPa | 2.7V | 00:00:00 | 03:39:03 | 00:00:00 | |
| OE5DRO-10 | 2026-09-01 02:08:31 | 48.18390 | 14.32989 | 107° | 49km/h | 1179m | -2.1m/s | 13.0°C | 72.3% | 892.0hPa | 2.7V | 00:00:00 | 00:00:00 | 00:00:00 | |
| OE5WHR-10 | 2026-09-01 02:08:31 | 48.18390 | 14.32989 | 107° | 47km/h | 1179m | -2.1m/s | 13.0°C | 72.3% | 892.0hPa | 2.7V | 00:00:00 | 00:00:00 | 00:00:00 | |
| OE3JTB-15 | 2026-09-01 02:08:30 | 48.18394 | 14.32971 | 110° | 47km/h | 1181m | -2.0m/s | 13.0°C | 72.3% | 891.8hPa | 2.7V | 00:00:00 | 00:00:00 | 00:00:00 | |
| OE5DRO-10 | 2026-09-01 02:08:29 | 48.18398 | 14.32954 | 113° | 46km/h | 1183m | -1.9m/s | 13.0°C | 72.2% | 891.6hPa | 2.7V | 00:00:00 | 00:00:00 | 00:00:00 | |
| OE5WHR-10 | 2026-09-01 02:08:29 | 48.18398 | 14.32954 | 113° | 46km/h | 1183m | -1.9m/s | 13.0°C | 72.2% | 891.6hPa | 2.7V | 00:00:00 | 00:00:00 | 00:00:00 | |
| PG1ADW-2 | 2026-09-01 02:08:28 | 48.18402 | 14.32938 | 113° | 42km/h | 1185m | -2.0m/s | 13.0°C | 72.2% | 891.4hPa | 2.7V | 06:54:00 | 00:00:00 | 00:00:00 | |
| OE3JTB-15 | 2026-09-01 02:08:28 | 48.18402 | 14.32938 | 113° | 44km/h | 1185m | -2.0m/s | 13.0°C | 72.2% | 891.4hPa | 2.7V | 00:00:00 | 00:00:00 | 00:00:00 | |
| OE5WHR-10 | 2026-09-01 02:08:28 | 48.18402 | 14.32938 | 113° | 42km/h | 1185m | -2.0m/s | 13.0°C | 72.2% | 891.4hPa | 2.7V | 00:00:00 | 03:38:59 | 00:00:00 | |
| OE5DRO-10 | 2026-09-01 02:08:27 | 48.18407 | 14.32923 | 113° | 42km/h | 1187m | -2.0m/s | 12.9°C | 72.1% | 891.1hPa | 2.7V | 00:00:00 | 00:00:00 | 00:00:00 | |
| OE3JTB-15 | 2026-09-01 02:08:26 | 48.18410 | 14.32908 | 110° | 40km/h | 1189m | -2.1m/s | 12.9°C | 72.1% | 891.0hPa | 2.7V | 00:00:00 | 03:38:57 | 00:00:00 | |
| OE5DRO-10 | 2026-09-01 02:08:25 | 48.18413 | 14.32894 | 106° | 42km/h | 1191m | -2.0m/s | 12.9°C | 72.1% | 890.8hPa | 2.7V | 00:00:00 | 00:00:00 | 00:00:00 | |
| OE5WHR-10 | 2026-09-01 02:08:25 | 48.18413 | 14.32894 | 106° | 42km/h | 1191m | -2.0m/s | 12.9°C | 72.1% | 890.8hPa | 2.7V | 00:00:00 | 00:00:00 | 00:00:00 | |
| OE3JTB-15 | 2026-09-01 02:08:24 | 48.18416 | 14.32879 | 104° | 44km/h | 1194m | -2.2m/s | 12.9°C | 72.1% | 890.5hPa | 2.7V | 06:54:00 | 00:00:00 | 00:00:00 | |
| OE5DRO-10 | 2026-09-01 02:08:23 | 48.18418 | 14.32862 | 103° | 46km/h | 1196m | -2.0m/s | 12.9°C | 72.2% | 890.1hPa | 2.7V | 00:00:00 | 00:00:00 | 00:00:00 | |
| PG1ADW-2 | 2026-09-01 02:08:22 | 48.18421 | 14.32846 | 103° | 46km/h | 1198m | -2.2m/s | 12.9°C | 72.2% | 890.0hPa | 2.7V | 00:00:00 | 03:38:53 | 00:00:00 | |
| OE3JTB-15 | 2026-09-01 02:08:22 | 48.18421 | 14.32846 | 103° | 47km/h | 1198m | -2.2m/s | 12.9°C | 72.2% | 890.0hPa | 2.7V | 00:00:00 | 00:00:00 | 00:00:00 | |
| OE5WHR-10 | 2026-09-01 02:08:22 | 48.18421 | 14.32846 | 103° | 47km/h | 1198m | -2.2m/s | 12.9°C | 72.2% | 890.0hPa | 2.7V | 00:00:00 | 00:00:00 | 00:00:00 | |
| OE5DRO-10 | 2026-09-01 02:08:21 | 48.18424 | 14.32829 | 106° | 47km/h | 1200m | -2.1m/s | 12.9°C | 72.0% | 889.8hPa | 2.7V | 06:54:00 | 00:00:00 | 00:00:00 | |
| OE3JTB-15 | 2026-09-01 02:08:20 | 48.18427 | 14.32812 | 110° | 47km/h | 1202m | -2.1m/s | 12.9°C | 72.0% | 889.7hPa | 2.7V | 00:00:00 | 03:38:51 | 00:00:00 | |
| OE5DRO-10 | 2026-09-01 02:08:19 | 48.18432 | 14.32795 | 113° | 46km/h | 1204m | -2.0m/s | 12.8°C | 72.0% | 889.4hPa | 2.7V | 00:00:00 | 00:00:00 | 00:00:00 | |
| OE5WHR-10 | 2026-09-01 02:08:19 | 48.18432 | 14.32795 | 113° | 44km/h | 1204m | -2.0m/s | 12.8°C | 72.0% | 889.4hPa | 2.7V | 00:00:00 | 03:38:50 | 00:00:00 | |
| OE3JTB-15 | 2026-09-01 02:08:18 | 48.18436 | 14.32779 | 114° | 44km/h | 1206m | -2.2m/s | 12.8°C | 72.1% | 889.2hPa | 2.7V | 00:00:00 | 00:00:00 | 00:00:00 | |
| OE5DRO-10 | 2026-09-01 02:08:17 | 48.18440 | 14.32764 | 114° | 40km/h | 1209m | -2.2m/s | 12.8°C | 72.0% | 889.0hPa | 2.7V | 00:00:00 | 00:00:00 | 00:00:00 | |
| OE5WHR-10 | 2026-09-01 02:08:17 | 48.18440 | 14.32764 | 114° | 40km/h | 1209m | -2.2m/s | 12.8°C | 72.0% | 889.0hPa | 2.7V | 00:00:00 | 00:00:00 | 00:00:00 | |
| PG1ADW-2 | 2026-09-01 02:08:16 | 48.18445 | 14.32750 | 112° | 42km/h | 1211m | -2.0m/s | 12.8°C | 71.9% | 888.8hPa | 2.7V | 00:00:00 | 00:00:00 | 00:00:00 | |
| OE3JTB-15 | 2026-09-01 02:08:16 | 48.18445 | 14.32750 | 112° | 40km/h | 1211m | -2.0m/s | 12.8°C | 71.9% | 888.8hPa | 2.7V | 00:00:00 | 00:00:00 | 00:00:00 | |
| OE5WHR-10 | 2026-09-01 02:08:16 | 48.18445 | 14.32750 | 112° | 40km/h | 1211m | -2.0m/s | 12.8°C | 71.9% | 888.8hPa | 2.7V | 00:00:00 | 00:00:00 | 00:00:00 | |
| OE5DRO-10 | 2026-09-01 02:08:15 | 48.18448 | 14.32736 | 108° | 40km/h | 1213m | -2.1m/s | 12.8°C | 72.1% | 888.6hPa | 2.7V | 00:00:00 | 00:00:00 | 00:00:00 | |
| OE5DRO-10 | 2026-09-01 02:08:13 | 48.18453 | 14.32706 | 103° | 44km/h | 1218m | -2.2m/s | 12.7°C | 72.0% | 888.1hPa | 2.7V | 00:00:00 | 00:00:00 | 00:00:00 | |
| OE5WHR-10 | 2026-09-01 02:08:13 | 48.18453 | 14.32706 | 103° | 46km/h | 1218m | -2.2m/s | 12.7°C | 72.0% | 888.1hPa | 2.7V | 06:54:00 | 00:00:00 | 00:00:00 | |
| OE3JTB-15 | 2026-09-01 02:08:12 | 48.18455 | 14.32690 | 102° | 46km/h | 1220m | -2.1m/s | 12.7°C | 72.2% | 887.9hPa | 2.7V | 00:00:00 | 00:00:00 | 00:00:00 | |
| OE5DRO-10 | 2026-09-01 02:08:11 | 48.18458 | 14.32673 | 105° | 47km/h | 1222m | -2.1m/s | 12.7°C | 72.2% | 887.5hPa | 2.7V | 00:00:00 | 00:00:00 | 00:00:00 | |
| PG1ADW-2 | 2026-09-01 02:08:10 | 48.18461 | 14.32656 | 108° | 46km/h | 1224m | -1.9m/s | 12.7°C | 72.1% | 887.3hPa | 2.7V | 00:00:00 | 00:00:00 | 00:00:00 | |
| OE3JTB-15 | 2026-09-01 02:08:10 | 48.18461 | 14.32656 | 108° | 49km/h | 1224m | -1.9m/s | 12.7°C | 72.1% | 887.3hPa | 2.7V | 06:54:00 | 00:00:00 | 00:00:00 | |
| OE5WHR-10 | 2026-09-01 02:08:10 | 48.18461 | 14.32656 | 108° | 49km/h | 1224m | -1.9m/s | 12.7°C | 72.1% | 887.3hPa | 2.7V | 00:00:00 | 03:38:41 | 00:00:00 | |
| OE3JTB-15 | 2026-09-01 02:08:08 | 48.18470 | 14.32621 | 115° | 47km/h | 1228m | -2.1m/s | 12.6°C | 72.4% | 887.0hPa | 2.7V | 00:00:00 | 03:38:39 | 00:00:00 | |
| OE5DRO-10 | 2026-09-01 02:08:07 | 48.18475 | 14.32605 | 117° | 44km/h | 1230m | -2.1m/s | 12.6°C | 72.4% | 886.8hPa | 2.7V | 06:54:00 | 00:00:00 | 00:00:00 | |
| OE5WHR-10 | 2026-09-01 02:08:07 | 48.18475 | 14.32605 | 117° | 44km/h | 1230m | -2.1m/s | 12.6°C | 72.4% | 886.8hPa | 2.7V | 00:00:00 | 00:00:00 | 00:00:00 | |
| OE3JTB-15 | 2026-09-01 02:08:06 | 48.18480 | 14.32590 | 117° | 42km/h | 1233m | -1.9m/s | 12.6°C | 72.3% | 886.5hPa | 2.7V | 00:00:00 | 00:00:00 | 00:00:00 | |
| OE5DRO-10 | 2026-09-01 02:08:05 | 48.18485 | 14.32575 | 116° | 40km/h | 1234m | -2.1m/s | 12.6°C | 72.6% | 886.3hPa | 2.7V | 00:00:00 | 00:00:00 | 00:00:00 | |
| OE3JTB-15 | 2026-09-01 02:08:04 | 48.18489 | 14.32562 | 113° | 38km/h | 1237m | -2.3m/s | 12.6°C | 72.6% | 885.9hPa | 2.7V | 00:00:00 | 00:00:00 | 00:00:00 | |
| PG1ADW-2 | 2026-09-01 02:08:04 | 48.18489 | 14.32562 | 113° | 42km/h | 1237m | -2.3m/s | 12.6°C | 72.6% | 885.9hPa | 2.7V | 00:00:00 | 00:00:00 | 00:00:00 | |
| OE5WHR-10 | 2026-09-01 02:08:04 | 48.18489 | 14.32562 | 113° | 38km/h | 1237m | -2.3m/s | 12.6°C | 72.6% | 885.9hPa | 2.7V | 00:00:00 | 00:00:00 | 00:00:00 | |
| OE5DRO-10 | 2026-09-01 02:08:03 | 48.18493 | 14.32548 | 109° | 38km/h | 1239m | -2.1m/s | 12.6°C | 72.4% | 885.7hPa | 2.7V | 00:00:00 | 00:00:00 | 00:00:00 | |
| OE3JTB-15 | 2026-09-01 02:08:02 | 48.18495 | 14.32534 | 106° | 40km/h | 1241m | -2.0m/s | 12.5°C | 72.7% | 885.5hPa | 2.7V | 00:00:00 | 03:38:33 | 00:00:00 | |
| OE5DRO-10 | 2026-09-01 02:08:01 | 48.18498 | 14.32519 | 103° | 44km/h | 1243m | -2.0m/s | 12.5°C | 72.6% | 885.3hPa | 2.7V | 00:00:00 | 00:00:00 | 00:00:00 | |
| OE5WHR-10 | 2026-09-01 02:08:01 | 48.18498 | 14.32519 | 103° | 46km/h | 1243m | -2.0m/s | 12.5°C | 72.6% | 885.3hPa | 2.7V | 00:00:00 | 03:38:32 | 00:00:00 | |
| OE3JTB-15 | 2026-09-01 02:08:00 | 48.18501 | 14.32503 | 103° | 46km/h | 1245m | -2.0m/s | 12.5°C | 72.5% | 885.1hPa | 2.7V | 00:00:00 | 00:00:00 | 00:00:00 | |
| OE5DRO-10 | 2026-09-01 02:07:59 | 48.18503 | 14.32486 | 105° | 47km/h | 1248m | -1.9m/s | 12.5°C | 72.4% | 884.9hPa | 2.7V | 00:00:00 | 00:00:00 | 00:00:00 | |
| PG1ADW-2 | 2026-09-01 02:07:58 | 48.18506 | 14.32468 | 108° | 46km/h | 1249m | -2.0m/s | 12.5°C | 72.4% | 884.7hPa | 2.7V | 00:00:00 | 03:38:29 | 00:00:00 | |
| OE3JTB-15 | 2026-09-01 02:07:58 | 48.18506 | 14.32468 | 108° | 49km/h | 1249m | -2.0m/s | 12.5°C | 72.4% | 884.7hPa | 2.7V | 00:00:00 | 00:00:00 | 00:00:00 | |
| OE5WHR-10 | 2026-09-01 02:07:58 | 48.18506 | 14.32468 | 108° | 47km/h | 1249m | -2.0m/s | 12.5°C | 72.4% | 884.7hPa | 2.7V | 00:00:00 | 00:00:00 | 00:00:00 | |
| OE5DRO-10 | 2026-09-01 02:07:57 | 48.18510 | 14.32451 | 111° | 47km/h | 1252m | -2.0m/s | 12.5°C | 72.4% | 884.4hPa | 2.7V | 00:00:00 | 00:00:00 | 00:00:00 | |
| OE3JTB-15 | 2026-09-01 02:07:56 | 48.18515 | 14.32434 | 114° | 46km/h | 1254m | -2.1m/s | 12.5°C | 72.5% | 884.2hPa | 2.7V | 06:54:00 | 03:38:27 | 00:00:00 | |
| OE5DRO-10 | 2026-09-01 02:07:55 | 48.18519 | 14.32418 | 115° | 42km/h | 1256m | -2.0m/s | 12.4°C | 72.4% | 884.0hPa | 2.7V | 00:00:00 | 00:00:00 | 00:00:00 | |
| OE5WHR-10 | 2026-09-01 02:07:55 | 48.18519 | 14.32418 | 115° | 42km/h | 1256m | -2.0m/s | 12.4°C | 72.4% | 884.0hPa | 2.7V | 00:00:00 | 00:00:00 | 00:00:00 | |
| OE3JTB-15 | 2026-09-01 02:07:54 | 48.18524 | 14.32403 | 114° | 40km/h | 1258m | -2.1m/s | 12.4°C | 72.6% | 883.7hPa | 2.7V | 00:00:00 | 00:00:00 | 00:00:00 | |
| OE5WHR-10 | 2026-09-01 02:07:54 | 48.18524 | 14.32403 | 114° | 40km/h | 1258m | -2.1m/s | 12.4°C | 72.6% | 883.7hPa | 2.7V | 06:54:00 | 03:38:25 | 00:00:00 | |
| OE5DRO-10 | 2026-09-01 02:07:53 | 48.18528 | 14.32389 | 111° | 38km/h | 1260m | -2.0m/s | 12.4°C | 72.6% | 883.5hPa | 2.7V | 06:54:00 | 00:00:00 | 00:00:00 | |
| PG1ADW-2 | 2026-09-01 02:07:52 | 48.18531 | 14.32375 | 107° | 44km/h | 1262m | -2.1m/s | 12.4°C | 72.5% | 883.3hPa | 2.7V | 00:00:00 | 00:00:00 | 00:00:00 | |
| OE3JTB-15 | 2026-09-01 02:07:52 | 48.18531 | 14.32375 | 107° | 40km/h | 1262m | -2.1m/s | 12.4°C | 72.5% | 883.3hPa | 2.7V | 00:00:00 | 00:00:00 | 00:00:00 | |
| OE5WHR-10 | 2026-09-01 02:07:52 | 48.18531 | 14.32375 | 107° | 42km/h | 1262m | -2.1m/s | 12.4°C | 72.5% | 883.3hPa | 2.7V | 06:54:00 | 03:38:23 | 00:00:00 | |
| OE5DRO-10 | 2026-09-01 02:07:51 | 48.18533 | 14.32360 | 103° | 42km/h | 1264m | -2.1m/s | 12.4°C | 72.6% | 883.3hPa | 2.7V | 00:00:00 | 00:00:00 | 00:00:00 | |
| OE5WHR-10 | 2026-09-01 02:07:51 | 48.18533 | 14.32360 | 103° | 46km/h | 1264m | -2.1m/s | 12.4°C | 72.6% | 883.3hPa | 2.7V | 00:00:00 | 00:00:00 | 00:00:00 | |
| OE3JTB-15 | 2026-09-01 02:07:50 | 48.18536 | 14.32345 | 103° | 46km/h | 1266m | -2.0m/s | 12.4°C | 72.7% | 882.9hPa | 2.7V | 00:00:00 | 03:38:21 | 00:00:00 | |
| OE5DRO-10 | 2026-09-01 02:07:49 | 48.18538 | 14.32328 | 105° | 47km/h | 1269m | -2.0m/s | 12.3°C | 72.6% | 882.7hPa | 2.7V | 00:00:00 | 00:00:00 | 00:00:00 | |
| OE5WHR-10 | 2026-09-01 02:07:49 | 48.18538 | 14.32328 | 105° | 47km/h | 1269m | -2.0m/s | 12.3°C | 72.6% | 882.7hPa | 2.7V | 00:00:00 | 00:00:00 | 00:00:00 | |
| OE3JTB-15 | 2026-09-01 02:07:48 | 48.18542 | 14.32311 | 107° | 49km/h | 1271m | -2.0m/s | 12.3°C | 72.6% | 882.4hPa | 2.7V | 00:00:00 | 00:00:00 | 00:00:00 | |
| OE5DRO-10 | 2026-09-01 02:07:47 | 48.18545 | 14.32293 | 111° | 47km/h | 1273m | -1.9m/s | 12.3°C | 72.6% | 882.3hPa | 2.7V | 00:00:00 | 00:00:00 | 00:00:00 | |
| PG1ADW-2 | 2026-09-01 02:07:46 | 48.18550 | 14.32277 | 114° | 42km/h | 1275m | -2.1m/s | 12.3°C | 72.7% | 882.0hPa | 2.7V | 06:54:00 | 00:00:00 | 00:00:00 | |
| OE3JTB-15 | 2026-09-01 02:07:46 | 48.18550 | 14.32277 | 114° | 46km/h | 1275m | -2.1m/s | 12.3°C | 72.7% | 882.0hPa | 2.7V | 00:00:00 | 00:00:00 | 00:00:00 | |
| OE5WHR-10 | 2026-09-01 02:07:46 | 48.18550 | 14.32277 | 114° | 46km/h | 1275m | -2.1m/s | 12.3°C | 72.7% | 882.0hPa | 2.7V | 00:00:00 | 00:00:00 | 00:00:00 | |
| OE5DRO-10 | 2026-09-01 02:07:45 | 48.18555 | 14.32260 | 116° | 44km/h | 1277m | -1.9m/s | 12.3°C | 72.8% | 881.7hPa | 2.7V | 00:00:00 | 00:00:00 | 00:00:00 | |
| OE3JTB-15 | 2026-09-01 02:07:44 | 48.18559 | 14.32245 | 115° | 40km/h | 1279m | -2.2m/s | 12.2°C | 72.7% | 881.6hPa | 2.7V | 00:00:00 | 03:38:15 | 00:00:00 | |
| OE5WHR-10 | 2026-09-01 02:07:43 | 48.18564 | 14.32231 | 114° | 40km/h | 1281m | -1.8m/s | 12.2°C | 72.7% | 881.3hPa | 2.7V | 00:00:00 | 03:38:14 | 00:00:00 | |
| OE5DRO-10 | 2026-09-01 02:07:43 | 48.18564 | 14.32231 | 114° | 40km/h | 1281m | -1.8m/s | 12.2°C | 72.7% | 881.3hPa | 2.7V | 00:00:00 | 00:00:00 | 00:00:00 | |
| OE3JTB-15 | 2026-09-01 02:07:42 | 48.18567 | 14.32218 | 109° | 38km/h | 1283m | -1.9m/s | 12.2°C | 71.9% | 881.2hPa | 2.7V | 06:54:00 | 00:00:00 | 00:00:00 | |
| OE5DRO-10 | 2026-09-01 02:07:41 | 48.18570 | 14.32203 | 106° | 40km/h | 1285m | -2.2m/s | 12.2°C | 71.8% | 880.7hPa | 2.7V | 00:00:00 | 00:00:00 | 00:00:00 | |
| PG1ADW-2 | 2026-09-01 02:07:40 | 48.18572 | 14.32188 | 103° | 46km/h | 1287m | -2.2m/s | 12.2°C | 71.7% | 880.6hPa | 2.7V | 00:00:00 | 00:00:00 | 00:00:00 | |
| OE3JTB-15 | 2026-09-01 02:07:40 | 48.18572 | 14.32188 | 103° | 44km/h | 1287m | -2.2m/s | 12.2°C | 71.7% | 880.6hPa | 2.7V | 00:00:00 | 00:00:00 | 00:00:00 | |
| OE5WHR-10 | 2026-09-01 02:07:40 | 48.18572 | 14.32188 | 103° | 44km/h | 1287m | -2.2m/s | 12.2°C | 71.7% | 880.6hPa | 2.7V | 00:00:00 | 00:00:00 | 00:00:00 | |
| OE5DRO-10 | 2026-09-01 02:07:39 | 48.18575 | 14.32173 | 103° | 46km/h | 1289m | -2.0m/s | 12.2°C | 71.6% | 880.4hPa | 2.7V | 06:54:00 | 00:00:00 | 00:00:00 | |
| OE3JTB-15 | 2026-09-01 02:07:38 | 48.18577 | 14.32156 | 105° | 47km/h | 1291m | -2.0m/s | 12.2°C | 71.6% | 880.2hPa | 2.7V | 00:00:00 | 03:38:09 | 00:00:00 | |
| OE5DRO-10 | 2026-09-01 02:07:37 | 48.18580 | 14.32139 | 107° | 47km/h | 1294m | -2.3m/s | 12.2°C | 71.7% | 879.9hPa | 2.7V | 00:00:00 | 00:00:00 | 00:00:00 | |
| OE5WHR-10 | 2026-09-01 02:07:37 | 48.18580 | 14.32139 | 107° | 47km/h | 1294m | -2.3m/s | 12.2°C | 71.7% | 879.9hPa | 2.7V | 00:00:00 | 00:00:00 | 00:00:00 | |
| PG1ADW-2 | 2026-09-01 02:07:34 | 48.18593 | 14.32089 | 114° | 44km/h | 1300m | -2.0m/s | 12.1°C | 71.6% | 879.2hPa | 2.7V | 00:00:00 | 03:38:05 | 00:00:00 | |
| OE3JTB-15 | 2026-09-01 02:07:34 | 48.18593 | 14.32089 | 114° | 44km/h | 1300m | -2.0m/s | 12.1°C | 71.6% | 879.2hPa | 2.7V | 00:00:00 | 00:00:00 | 00:00:00 | |
| OE5WHR-10 | 2026-09-01 02:07:34 | 48.18593 | 14.32089 | 114° | 42km/h | 1300m | -2.0m/s | 12.1°C | 71.6% | 879.2hPa | 2.7V | 00:00:00 | 03:38:05 | 00:00:00 | |
| OE5DRO-10 | 2026-09-01 02:07:33 | 48.18597 | 14.32074 | 112° | 42km/h | 1302m | -2.3m/s | 12.1°C | 71.3% | 879.0hPa | 2.7V | 00:00:00 | 00:00:00 | 00:00:00 | |
| OE3JTB-15 | 2026-09-01 02:07:32 | 48.18601 | 14.32059 | 109° | 42km/h | 1304m | -2.3m/s | 12.1°C | 70.9% | 878.8hPa | 2.7V | 00:00:00 | 03:38:03 | 00:00:00 | |
| OE5WHR-10 | 2026-09-01 02:07:32 | 48.18601 | 14.32059 | 109° | 40km/h | 1304m | -2.3m/s | 12.1°C | 70.9% | 878.8hPa | 2.7V | 00:00:00 | 03:38:03 | 00:00:00 | |
| OE5DRO-10 | 2026-09-01 02:07:31 | 48.18604 | 14.32044 | 105° | 42km/h | 1307m | -2.4m/s | 12.1°C | 70.9% | 878.6hPa | 2.7V | 00:00:00 | 00:00:00 | 00:00:00 | |
| OE5WHR-10 | 2026-09-01 02:07:31 | 48.18604 | 14.32044 | 105° | 44km/h | 1307m | -2.4m/s | 12.1°C | 70.9% | 878.6hPa | 2.7V | 06:55:00 | 00:00:00 | 00:00:00 | |
| OE3JTB-15 | 2026-09-01 02:07:30 | 48.18606 | 14.32028 | 103° | 44km/h | 1309m | -2.5m/s | 12.1°C | 71.0% | 878.4hPa | 2.7V | 00:00:00 | 00:00:00 | 00:00:00 | |
| OE5DRO-10 | 2026-09-01 02:07:29 | 48.18608 | 14.32012 | 102° | 47km/h | 1312m | -2.2m/s | 12.1°C | 71.1% | 878.1hPa | 2.7V | 00:00:00 | 00:00:00 | 00:00:00 | |
| PG1ADW-2 | 2026-09-01 02:07:28 | 48.18611 | 14.31994 | 105° | 46km/h | 1314m | -2.5m/s | 12.1°C | 71.1% | 878.0hPa | 2.7V | 00:00:00 | 00:00:00 | 00:00:00 | |
| OE3JTB-15 | 2026-09-01 02:07:28 | 48.18611 | 14.31994 | 105° | 49km/h | 1314m | -2.5m/s | 12.1°C | 71.1% | 878.0hPa | 2.7V | 06:55:00 | 00:00:00 | 00:00:00 | |
| OE5WHR-10 | 2026-09-01 02:07:28 | 48.18611 | 14.31994 | 105° | 49km/h | 1314m | -2.5m/s | 12.1°C | 71.1% | 878.0hPa | 2.7V | 00:00:00 | 00:00:00 | 00:00:00 | |
| OE5DRO-10 | 2026-09-01 02:07:27 | 48.18614 | 14.31976 | 107° | 49km/h | 1316m | -2.2m/s | 12.1°C | 71.0% | 877.7hPa | 2.7V | 00:00:00 | 00:00:00 | 00:00:00 | |
| OE3JTB-15 | 2026-09-01 02:07:26 | 48.18618 | 14.31958 | 109° | 47km/h | 1319m | -2.8m/s | 12.0°C | 71.1% | 877.4hPa | 2.7V | 00:00:00 | 03:37:57 | 00:00:00 | |
| OE5DRO-10 | 2026-09-01 02:07:25 | 48.18623 | 14.31942 | 113° | 46km/h | 1321m | -2.3m/s | 12.0°C | 71.2% | 877.4hPa | 2.7V | 06:55:00 | 00:00:00 | 00:00:00 | |
| OE5WHR-10 | 2026-09-01 02:07:25 | 48.18623 | 14.31942 | 113° | 44km/h | 1321m | -2.3m/s | 12.0°C | 71.2% | 877.4hPa | 2.7V | 00:00:00 | 03:37:56 | 00:00:00 | |
| OE3JTB-15 | 2026-09-01 02:07:24 | 48.18627 | 14.31926 | 115° | 42km/h | 1323m | -2.0m/s | 12.0°C | 71.3% | 877.2hPa | 2.7V | 00:00:00 | 00:00:00 | 00:00:00 | |
| OE5DRO-10 | 2026-09-01 02:07:23 | 48.18631 | 14.31912 | 113° | 38km/h | 1326m | -1.8m/s | 12.0°C | 71.2% | 876.9hPa | 2.7V | 00:00:00 | 00:00:00 | 00:00:00 | |
| OE3JTB-15 | 2026-09-01 02:07:22 | 48.18635 | 14.31898 | 111° | 38km/h | 1327m | -1.8m/s | 12.0°C | 70.8% | 876.7hPa | 2.7V | 00:00:00 | 00:00:00 | 00:00:00 | |
| PG1ADW-2 | 2026-09-01 02:07:22 | 48.18635 | 14.31898 | 111° | 40km/h | 1327m | -1.8m/s | 12.0°C | 70.8% | 876.7hPa | 2.7V | 00:00:00 | 00:00:00 | 00:00:00 | |
| OE5WHR-10 | 2026-09-01 02:07:22 | 48.18635 | 14.31898 | 111° | 37km/h | 1327m | -1.8m/s | 12.0°C | 70.8% | 876.7hPa | 2.7V | 00:00:00 | 00:00:00 | 00:00:00 | |
| OE5WHR-10 | 2026-09-01 02:07:22 | 48.18635 | 14.31898 | 111° | 38km/h | 1327m | -1.8m/s | 12.0°C | 70.8% | 876.7hPa | 2.7V | 00:00:00 | 00:00:00 | 00:00:00 | |
| OE5DRO-10 | 2026-09-01 02:07:21 | 48.18638 | 14.31884 | 107° | 38km/h | 1330m | -2.5m/s | 12.0°C | 70.6% | 876.4hPa | 2.7V | 00:00:00 | 00:00:00 | 00:00:00 | |
| OE3JTB-15 | 2026-09-01 02:07:20 | 48.18640 | 14.31870 | 103° | 40km/h | 1332m | -2.0m/s | 12.0°C | 70.6% | 876.3hPa | 2.7V | 00:00:00 | 03:37:51 | 00:00:00 | |
| OE5DRO-10 | 2026-09-01 02:07:19 | 48.18642 | 14.31855 | 101° | 42km/h | 1334m | -2.1m/s | 11.9°C | 70.6% | 875.9hPa | 2.7V | 00:00:00 | 00:00:00 | 00:00:00 | |
| OE5WHR-10 | 2026-09-01 02:07:19 | 48.18642 | 14.31855 | 101° | 42km/h | 1334m | -2.1m/s | 11.9°C | 70.6% | 875.9hPa | 2.7V | 00:00:00 | 00:00:00 | 00:00:00 | |
| OE3JTB-15 | 2026-09-01 02:07:18 | 48.18644 | 14.31840 | 99° | 44km/h | 1336m | -1.5m/s | 11.9°C | 70.6% | 875.7hPa | 2.7V | 00:00:00 | 00:00:00 | 00:00:00 | |
| OE5DRO-10 | 2026-09-01 02:07:17 | 48.18646 | 14.31824 | 102° | 47km/h | 1338m | -1.9m/s | 11.9°C | 70.6% | 875.5hPa | 2.7V | 00:00:00 | 00:00:00 | 00:00:00 | |
| OE5WHR-10 | 2026-09-01 02:07:17 | 48.18646 | 14.31824 | 102° | 46km/h | 1338m | -1.9m/s | 11.9°C | 70.6% | 875.5hPa | 2.7V | 00:00:00 | 00:00:00 | 00:00:00 | |
| PG1ADW-2 | 2026-09-01 02:07:16 | 48.18648 | 14.31806 | 101° | 49km/h | 1340m | -1.9m/s | 11.9°C | 70.5% | 875.3hPa | 2.7V | 00:00:00 | 00:00:00 | 00:00:00 | |
| OE3JTB-15 | 2026-09-01 02:07:16 | 48.18648 | 14.31806 | 101° | 49km/h | 1340m | -1.9m/s | 11.9°C | 70.5% | 875.3hPa | 2.7V | 00:00:00 | 00:00:00 | 00:00:00 | |
| OE5WHR-10 | 2026-09-01 02:07:16 | 48.18648 | 14.31806 | 101° | 49km/h | 1340m | -1.9m/s | 11.9°C | 70.5% | 875.3hPa | 2.7V | 00:00:00 | 03:37:47 | 00:00:00 | |
| OE3JTB-15 | 2026-09-01 02:07:14 | 48.18654 | 14.31769 | 106° | 51km/h | 1345m | -2.0m/s | 11.9°C | 70.7% | 874.9hPa | 2.7V | 06:55:00 | 03:37:45 | 00:00:00 | |
| OE3JTB-15 | 2026-09-01 02:07:12 | 48.18662 | 14.31734 | 112° | 46km/h | 1349m | -1.6m/s | 11.8°C | 70.8% | 874.3hPa | 2.7V | 00:00:00 | 00:00:00 | 00:00:00 | |
| OE5WHR-10 | 2026-09-01 02:07:11 | 48.18666 | 14.31718 | 111° | 42km/h | 1351m | -2.1m/s | 11.8°C | 70.7% | 874.1hPa | 2.7V | 00:00:00 | 00:00:00 | 00:00:00 | |
| PG1ADW-2 | 2026-09-01 02:07:10 | 48.18670 | 14.31702 | 110° | 42km/h | 1353m | -1.9m/s | 11.8°C | 70.5% | 874.1hPa | 2.7V | 00:00:00 | 03:37:41 | 00:00:00 | |
| OE3JTB-15 | 2026-09-01 02:07:10 | 48.18670 | 14.31702 | 110° | 40km/h | 1353m | -1.9m/s | 11.8°C | 70.5% | 874.1hPa | 2.7V | 00:00:00 | 00:00:00 | 00:00:00 | |
| OE5HKT-10 | 2026-09-01 02:07:10 | 48.18670 | 14.31702 | 110° | 44km/h | 1353m | -1.9m/s | 11.8°C | 70.5% | 874.1hPa | 2.7V | 00:00:00 | 03:37:41 | 00:00:00 | |
| OE5DRO-10 | 2026-09-01 02:07:08 | 48.18676 | 14.31673 | 103° | 46km/h | 1358m | -1.9m/s | 11.8°C | 70.4% | 873.6hPa | 2.7V | 00:00:00 | 00:00:00 | 00:00:00 | |
| OE3JTB-15 | 2026-09-01 02:07:08 | 48.18676 | 14.31673 | 103° | 42km/h | 1358m | -1.9m/s | 11.8°C | 70.4% | 873.6hPa | 2.7V | 00:00:00 | 03:37:39 | 00:00:00 | |
| OE5WHR-10 | 2026-09-01 02:07:07 | 48.18678 | 14.31657 | 100° | 47km/h | 1360m | -1.9m/s | 11.8°C | 70.0% | 873.4hPa | 2.7V | 00:00:00 | 03:37:38 | 00:00:00 | |
| OE3JTB-15 | 2026-09-01 02:07:06 | 48.18680 | 14.31641 | 100° | 46km/h | 1362m | -2.3m/s | 11.8°C | 69.9% | 873.0hPa | 2.7V | 00:00:00 | 00:00:00 | 00:00:00 | |
| OE5WHR-10 | 2026-09-01 02:07:05 | 48.18681 | 14.31624 | 99° | 47km/h | 1364m | -1.5m/s | 11.8°C | 69.8% | 873.0hPa | 2.7V | 06:55:00 | 00:00:00 | 00:00:00 | |
| OE3JTB-15 | 2026-09-01 02:07:04 | 48.18683 | 14.31606 | 102° | 49km/h | 1366m | -2.1m/s | 11.8°C | 69.6% | 872.6hPa | 2.7V | 00:00:00 | 00:00:00 | 00:00:00 | |
| PG1ADW-2 | 2026-09-01 02:07:04 | 48.18683 | 14.31606 | 102° | 47km/h | 1366m | -2.1m/s | 11.8°C | 69.6% | 872.6hPa | 2.7V | 06:55:00 | 00:00:00 | 00:00:00 | |
| OE5HKT-10 | 2026-09-01 02:07:03 | 48.18686 | 14.31587 | 104° | 47km/h | 1368m | -2.3m/s | 11.8°C | 69.6% | 872.3hPa | 2.7V | 00:00:00 | 00:00:00 | 00:00:00 | |
| OE3JTB-15 | 2026-09-01 02:07:02 | 48.18690 | 14.31569 | 107° | 47km/h | 1370m | -1.7m/s | 11.7°C | 69.7% | 872.2hPa | 2.7V | 00:00:00 | 03:37:33 | 00:00:00 | |
| OE5DRO-10 | 2026-09-01 02:07:01 | 48.18693 | 14.31551 | 107° | 44km/h | 1372m | -2.6m/s | 11.7°C | 69.7% | 871.9hPa | 2.7V | 06:55:00 | 00:00:00 | 00:00:00 | |
| OE5WHR-10 | 2026-09-01 02:07:01 | 48.18693 | 14.31551 | 107° | 46km/h | 1372m | -2.6m/s | 11.7°C | 69.7% | 871.9hPa | 2.7V | 06:55:00 | 00:00:00 | 00:00:00 | |
| OE3JTB-15 | 2026-09-01 02:07:00 | 48.18697 | 14.31535 | 108° | 44km/h | 1375m | -2.2m/s | 11.7°C | 69.8% | 871.9hPa | 2.7V | 06:55:00 | 00:00:00 | 00:00:00 | |
| OE5WHR-10 | 2026-09-01 02:06:59 | 48.18700 | 14.31519 | 107° | 46km/h | 1377m | -2.6m/s | 11.7°C | 69.7% | 871.5hPa | 2.7V | 00:00:00 | 03:37:30 | 00:00:00 | |
| PG1ADW-2 | 2026-09-01 02:06:58 | 48.18703 | 14.31503 | 104° | 46km/h | 1380m | -2.1m/s | 11.7°C | 69.2% | 871.1hPa | 2.7V | 00:00:00 | 00:00:00 | 00:00:00 | |
| OE3JTB-15 | 2026-09-01 02:06:58 | 48.18703 | 14.31503 | 104° | 42km/h | 1380m | -2.1m/s | 11.7°C | 69.2% | 871.1hPa | 2.7V | 00:00:00 | 00:00:00 | 00:00:00 | |
| OE3JTB-15 | 2026-09-01 02:06:56 | 48.18706 | 14.31471 | 98° | 46km/h | 1384m | -1.9m/s | 11.7°C | 69.4% | 870.8hPa | 2.7V | 00:00:00 | 03:37:27 | 00:00:00 | |
| OE5WHR-10 | 2026-09-01 02:06:55 | 48.18708 | 14.31454 | 100° | 49km/h | 1386m | -1.7m/s | 11.7°C | 68.9% | 870.5hPa | 2.7V | 00:00:00 | 00:00:00 | 00:00:00 | |
| OE5DRO-10 | 2026-09-01 02:06:54 | 48.18710 | 14.31436 | 100° | 47km/h | 1388m | -2.0m/s | 11.6°C | 69.1% | 870.3hPa | 2.7V | 00:00:00 | 00:00:00 | 00:00:00 | |
| OE3JTB-15 | 2026-09-01 02:06:54 | 48.18710 | 14.31436 | 100° | 51km/h | 1388m | -2.0m/s | 11.6°C | 69.1% | 870.3hPa | 2.7V | 00:00:00 | 00:00:00 | 00:00:00 | |
| OE5WHR-10 | 2026-09-01 02:06:53 | 48.18712 | 14.31417 | 102° | 47km/h | 1390m | -2.2m/s | 11.6°C | 69.4% | 870.1hPa | 2.7V | 00:00:00 | 00:00:00 | 00:00:00 | |
| OE3JTB-15 | 2026-09-01 02:06:52 | 48.18715 | 14.31397 | 105° | 51km/h | 1392m | -2.2m/s | 11.6°C | 69.7% | 870.0hPa | 2.7V | 00:00:00 | 00:00:00 | 00:00:00 | |
| PG1ADW-2 | 2026-09-01 02:06:52 | 48.18715 | 14.31397 | 105° | 46km/h | 1392m | -2.2m/s | 11.6°C | 69.7% | 870.0hPa | 2.7V | 00:00:00 | 00:00:00 | 00:00:00 | |
| OE5HKT-10 | 2026-09-01 02:06:52 | 48.18715 | 14.31397 | 105° | 51km/h | 1392m | -2.2m/s | 11.6°C | 69.7% | 870.0hPa | 2.7V | 00:00:00 | 00:00:00 | 00:00:00 | |
| OE3JTB-15 | 2026-09-01 02:06:50 | 48.18723 | 14.31361 | 110° | 46km/h | 1397m | -2.4m/s | 11.6°C | 69.1% | 869.6hPa | 2.7V | 00:00:00 | 03:37:21 | 00:00:00 | |
| OE5WHR-10 | 2026-09-01 02:06:49 | 48.18727 | 14.31345 | 111° | 42km/h | 1400m | -1.8m/s | 11.6°C | 69.2% | 869.4hPa | 2.7V | 00:00:00 | 03:37:20 | 00:00:00 | |
| OE3JTB-15 | 2026-09-01 02:06:48 | 48.18730 | 14.31330 | 108° | 40km/h | 1402m | -2.0m/s | 11.5°C | 69.2% | 869.2hPa | 2.7V | 00:00:00 | 00:00:00 | 00:00:00 | |
| OE5DRO-10 | 2026-09-01 02:06:47 | 48.18733 | 14.31315 | 104° | 44km/h | 1404m | -1.9m/s | 11.5°C | 69.3% | 868.9hPa | 2.7V | 00:00:00 | 00:00:00 | 00:00:00 | |
| OE5WHR-10 | 2026-09-01 02:06:47 | 48.18733 | 14.31315 | 104° | 42km/h | 1404m | -1.9m/s | 11.5°C | 69.3% | 868.9hPa | 2.7V | 00:00:00 | 00:00:00 | 00:00:00 | |
| PG1ADW-2 | 2026-09-01 02:06:46 | 48.18735 | 14.31301 | 100° | 44km/h | 1406m | -1.6m/s | 11.5°C | 69.0% | 868.8hPa | 2.7V | 00:00:00 | 03:37:17 | 00:00:00 | |
| OE3JTB-15 | 2026-09-01 02:06:46 | 48.18735 | 14.31301 | 100° | 40km/h | 1406m | -1.6m/s | 11.5°C | 69.0% | 868.8hPa | 2.7V | 06:55:00 | 00:00:00 | 00:00:00 | |
| OE3JTB-15 | 2026-09-01 02:06:44 | 48.18737 | 14.31270 | 95° | 44km/h | 1410m | -2.0m/s | 11.5°C | 69.0% | 868.2hPa | 2.7V | 00:00:00 | 03:37:15 | 00:00:00 | |
| OE5WHR-10 | 2026-09-01 02:06:43 | 48.18738 | 14.31253 | 94° | 51km/h | 1412m | -1.8m/s | 11.5°C | 69.1% | 868.0hPa | 2.7V | 00:00:00 | 00:00:00 | 00:00:00 | |
| OE3JTB-15 | 2026-09-01 02:06:42 | 48.18739 | 14.31236 | 94° | 49km/h | 1414m | -1.7m/s | 11.5°C | 68.7% | 867.7hPa | 2.7V | 00:00:00 | 00:00:00 | 00:00:00 | |
| OE5WHR-10 | 2026-09-01 02:06:41 | 48.18740 | 14.31217 | 95° | 51km/h | 1416m | -2.4m/s | 11.5°C | 68.5% | 867.4hPa | 2.7V | 00:00:00 | 03:37:12 | 00:00:00 | |
| OE5DRO-10 | 2026-09-01 02:06:40 | 48.18741 | 14.31198 | 99° | 49km/h | 1418m | -2.4m/s | 11.4°C | 68.5% | 867.1hPa | 2.7V | 00:00:00 | 00:00:00 | 00:00:00 | |
| OE3JTB-15 | 2026-09-01 02:06:40 | 48.18741 | 14.31198 | 99° | 53km/h | 1418m | -2.4m/s | 11.4°C | 68.5% | 867.1hPa | 2.7V | 00:00:00 | 00:00:00 | 00:00:00 | |
| OE5HKT-10 | 2026-09-01 02:06:40 | 48.18741 | 14.31198 | 99° | 46km/h | 1418m | -2.4m/s | 11.4°C | 68.5% | 867.1hPa | 2.7V | 00:00:00 | 03:37:11 | 00:00:00 | |
| PG1ADW-2 | 2026-09-01 02:06:40 | 48.18741 | 14.31198 | 99° | 49km/h | 1418m | -2.4m/s | 11.4°C | 68.5% | 867.1hPa | 2.7V | 00:00:00 | 00:00:00 | 00:00:00 | |
| OE3JTB-15 | 2026-09-01 02:06:38 | 48.18746 | 14.31159 | 104° | 51km/h | 1423m | -1.8m/s | 11.4°C | 68.7% | 866.8hPa | 2.7V | 00:00:00 | 03:37:09 | 00:00:00 | |
| OE3JTB-15 | 2026-09-01 02:06:36 | 48.18753 | 14.31122 | 107° | 47km/h | 1427m | -1.5m/s | 11.4°C | 68.9% | 866.3hPa | 2.7V | 00:00:00 | 00:00:00 | 00:00:00 | |
| OE5WHR-10 | 2026-09-01 02:06:36 | 48.18753 | 14.31122 | 107° | 44km/h | 1427m | -1.5m/s | 11.4°C | 68.9% | 866.3hPa | 2.7V | 00:00:00 | 00:00:00 | 00:00:00 | |
| OE5WHR-10 | 2026-09-01 02:06:35 | 48.18756 | 14.31105 | 108° | 44km/h | 1429m | -1.6m/s | 11.3°C | 69.0% | 866.2hPa | 2.7V | 00:00:00 | 00:00:00 | 00:00:00 | |
| PG1ADW-2 | 2026-09-01 02:06:34 | 48.18759 | 14.31089 | 104° | 46km/h | 1430m | -1.6m/s | 11.3°C | 69.1% | 866.0hPa | 2.7V | 00:00:00 | 00:00:00 | 00:00:00 | |
| OE3JTB-15 | 2026-09-01 02:06:34 | 48.18759 | 14.31089 | 104° | 42km/h | 1430m | -1.6m/s | 11.3°C | 69.1% | 866.0hPa | 2.7V | 00:00:00 | 00:00:00 | 00:00:00 | |
| OE5DRO-10 | 2026-09-01 02:06:33 | 48.18762 | 14.31074 | 103° | 47km/h | 1432m | -2.0m/s | 11.3°C | 69.2% | 865.7hPa | 2.7V | 00:00:00 | 00:00:00 | 00:00:00 | |
| OE3JTB-15 | 2026-09-01 02:06:32 | 48.18763 | 14.31058 | 98° | 46km/h | 1434m | -1.8m/s | 11.3°C | 69.0% | 865.6hPa | 2.7V | 06:56:00 | 03:37:03 | 00:00:00 | |
| OE5HKT-10 | 2026-09-01 02:06:31 | 48.18764 | 14.31041 | 97° | 46km/h | 1437m | -2.1m/s | 11.3°C | 69.1% | 865.4hPa | 2.7V | 06:56:00 | 00:00:00 | 00:00:00 | |
| OE3JTB-15 | 2026-09-01 02:06:30 | 48.18766 | 14.31024 | 96° | 49km/h | 1439m | -1.9m/s | 11.3°C | 69.3% | 865.1hPa | 2.7V | 00:00:00 | 00:00:00 | 00:00:00 | |
| OE5WHR-10 | 2026-09-01 02:06:30 | 48.18766 | 14.31024 | 96° | 51km/h | 1439m | -1.9m/s | 11.3°C | 69.3% | 865.1hPa | 2.7V | 00:00:00 | 03:37:01 | 00:00:00 | |
| OE5WHR-10 | 2026-09-01 02:06:29 | 48.18767 | 14.31005 | 95° | 51km/h | 1441m | -1.8m/s | 11.2°C | 69.4% | 864.9hPa | 2.7V | 00:00:00 | 00:00:00 | 00:00:00 | |
| PG1ADW-2 | 2026-09-01 02:06:28 | 48.18768 | 14.30986 | 98° | 49km/h | 1443m | -2.3m/s | 11.2°C | 69.3% | 864.7hPa | 2.7V | 00:00:00 | 00:00:00 | 00:00:00 | |
| OE3JTB-15 | 2026-09-01 02:06:28 | 48.18768 | 14.30986 | 98° | 51km/h | 1443m | -2.3m/s | 11.2°C | 69.3% | 864.7hPa | 2.7V | 00:00:00 | 00:00:00 | 00:00:00 | |
| OE3JTB-15 | 2026-09-01 02:06:26 | 48.18772 | 14.30947 | 101° | 51km/h | 1447m | -1.6m/s | 11.2°C | 69.6% | 864.2hPa | 2.7V | 00:00:00 | 03:36:57 | 00:00:00 | |
| OE5DRO-10 | 2026-09-01 02:06:26 | 48.18772 | 14.30947 | 101° | 47km/h | 1447m | -1.6m/s | 11.2°C | 69.6% | 864.2hPa | 2.7V | 00:00:00 | 00:00:00 | 00:00:00 | |
| OE5HKT-10 | 2026-09-01 02:06:25 | 48.18775 | 14.30929 | 103° | 51km/h | 1449m | -1.5m/s | 11.1°C | 69.9% | 863.9hPa | 2.7V | 00:00:00 | 00:00:00 | 00:00:00 | |
| OE3JTB-15 | 2026-09-01 02:06:24 | 48.18777 | 14.30910 | 103° | 47km/h | 1451m | -1.2m/s | 11.1°C | 69.9% | 864.0hPa | 2.7V | 00:00:00 | 00:00:00 | 00:00:00 | |
| OE5WHR-10 | 2026-09-01 02:06:24 | 48.18777 | 14.30910 | 103° | 46km/h | 1451m | -1.2m/s | 11.1°C | 69.9% | 864.0hPa | 2.7V | 00:00:00 | 00:00:00 | 00:00:00 | |
| OE5WHR-10 | 2026-09-01 02:06:23 | 48.18780 | 14.30893 | 102° | 46km/h | 1452m | -1.6m/s | 11.1°C | 69.9% | 863.7hPa | 2.7V | 06:56:00 | 03:36:54 | 00:00:00 | |
| PG1ADW-2 | 2026-09-01 02:06:22 | 48.18782 | 14.30876 | 99° | 47km/h | 1454m | -1.4m/s | 11.1°C | 70.0% | 863.6hPa | 2.7V | 06:56:00 | 03:36:53 | 00:00:00 | |
| OE3JTB-15 | 2026-09-01 02:06:22 | 48.18782 | 14.30876 | 99° | 44km/h | 1454m | -1.4m/s | 11.1°C | 70.0% | 863.6hPa | 2.7V | 00:00:00 | 00:00:00 | 00:00:00 | |
| OE3JTB-15 | 2026-09-01 02:06:20 | 48.18784 | 14.30843 | 96° | 47km/h | 1458m | -2.5m/s | 11.1°C | 70.0% | 863.1hPa | 2.7V | 00:00:00 | 03:36:51 | 00:00:00 | |
| OE5DRO-10 | 2026-09-01 02:06:19 | 48.18786 | 14.30825 | 95° | 49km/h | 1460m | -1.9m/s | 11.0°C | 69.9% | 862.7hPa | 2.7V | 00:00:00 | 00:00:00 | 00:00:00 | |
| OE5WHR-10 | 2026-09-01 02:06:18 | 48.18787 | 14.30806 | 96° | 47km/h | 1462m | -2.1m/s | 11.0°C | 70.2% | 862.5hPa | 2.7V | 06:56:00 | 00:00:00 | 00:00:00 | |
| OE3JTB-15 | 2026-09-01 02:06:18 | 48.18787 | 14.30806 | 96° | 51km/h | 1462m | -2.1m/s | 11.0°C | 70.2% | 862.5hPa | 2.7V | 06:56:00 | 00:00:00 | 00:00:00 | |
| OE5WHR-10 | 2026-09-01 02:06:17 | 48.18788 | 14.30787 | 99° | 49km/h | 1464m | -2.2m/s | 11.0°C | 70.2% | 862.3hPa | 2.7V | 00:00:00 | 00:00:00 | 00:00:00 | |
| OE3JTB-15 | 2026-09-01 02:06:16 | 48.18790 | 14.30768 | 101° | 51km/h | 1466m | -1.8m/s | 11.0°C | 70.2% | 862.0hPa | 2.7V | 00:00:00 | 00:00:00 | 00:00:00 | |
| PG1ADW-2 | 2026-09-01 02:06:16 | 48.18790 | 14.30768 | 101° | 47km/h | 1466m | -1.8m/s | 11.0°C | 70.2% | 862.0hPa | 2.7V | 00:00:00 | 00:00:00 | 00:00:00 | |
| OE3JTB-15 | 2026-09-01 02:06:14 | 48.18796 | 14.30730 | 105° | 47km/h | 1471m | -1.7m/s | 10.9°C | 70.1% | 861.7hPa | 2.7V | 00:00:00 | 03:36:45 | 00:00:00 | |
| OE5HKT-10 | 2026-09-01 02:06:13 | 48.18799 | 14.30713 | 104° | 53km/h | 1472m | -1.6m/s | 10.9°C | 70.2% | 861.2hPa | 2.7V | 00:00:00 | 03:36:44 | 00:00:00 | |
| OE5DRO-10 | 2026-09-01 02:06:12 | 48.18801 | 14.30696 | 101° | 49km/h | 1475m | -2.4m/s | 10.9°C | 70.0% | 861.2hPa | 2.7V | 06:56:00 | 00:00:00 | 00:00:00 | |
| OE3JTB-15 | 2026-09-01 02:06:12 | 48.18801 | 14.30696 | 101° | 44km/h | 1475m | -2.4m/s | 10.9°C | 70.0% | 861.2hPa | 2.7V | 00:00:00 | 00:00:00 | 00:00:00 | |
| OE5WHR-10 | 2026-09-01 02:06:12 | 48.18801 | 14.30696 | 101° | 47km/h | 1475m | -2.4m/s | 10.9°C | 70.0% | 861.2hPa | 2.7V | 00:00:00 | 03:36:43 | 00:00:00 | |
| OE5WHR-10 | 2026-09-01 02:06:11 | 48.18803 | 14.30680 | 98° | 49km/h | 1477m | -2.3m/s | 10.9°C | 70.2% | 861.1hPa | 2.7V | 00:00:00 | 00:00:00 | 00:00:00 | |
| OE3JTB-15 | 2026-09-01 02:06:10 | 48.18804 | 14.30663 | 96° | 46km/h | 1479m | -2.5m/s | 10.9°C | 69.7% | 861.0hPa | 2.7V | 00:00:00 | 00:00:00 | 00:00:00 | |
| PG1ADW-2 | 2026-09-01 02:06:10 | 48.18804 | 14.30663 | 96° | 51km/h | 1479m | -2.5m/s | 10.9°C | 69.7% | 861.0hPa | 2.7V | 00:00:00 | 00:00:00 | 00:00:00 | |
| OE3JTB-15 | 2026-09-01 02:06:08 | 48.18806 | 14.30627 | 95° | 53km/h | 1483m | -2.1m/s | 10.9°C | 69.3% | 860.3hPa | 2.7V | 00:00:00 | 03:36:39 | 00:00:00 | |
| OE3JTB-15 | 2026-09-01 02:06:06 | 48.18809 | 14.30587 | 98° | 55km/h | 1487m | -2.1m/s | 10.9°C | 69.0% | 860.0hPa | 2.7V | 00:00:00 | 00:00:00 | 00:00:00 | |
| OE5WHR-10 | 2026-09-01 02:06:06 | 48.18809 | 14.30587 | 98° | 47km/h | 1487m | -2.1m/s | 10.9°C | 69.0% | 860.0hPa | 2.7V | 00:00:00 | 00:00:00 | 00:00:00 | |
| OE5DRO-10 | 2026-09-01 02:06:05 | 48.18812 | 14.30566 | 103° | 47km/h | 1490m | -2.4m/s | 10.9°C | 69.0% | 859.7hPa | 2.7V | 00:00:00 | 00:00:00 | 00:00:00 | |
| OE5WHR-10 | 2026-09-01 02:06:05 | 48.18812 | 14.30566 | 103° | 49km/h | 1490m | -2.4m/s | 10.9°C | 69.0% | 859.7hPa | 2.7V | 00:00:00 | 03:36:36 | 00:00:00 | |
| PG1ADW-2 | 2026-09-01 02:06:04 | 48.18815 | 14.30546 | 105° | 47km/h | 1492m | -1.6m/s | 10.9°C | 68.9% | 859.6hPa | 2.7V | 00:00:00 | 00:00:00 | 00:00:00 | |
| OE3JTB-15 | 2026-09-01 02:06:04 | 48.18815 | 14.30546 | 105° | 53km/h | 1492m | -1.6m/s | 10.9°C | 68.9% | 859.6hPa | 2.7V | 06:56:00 | 00:00:00 | 00:00:00 | |
| OE5HKT-10 | 2026-09-01 02:06:04 | 48.18815 | 14.30546 | 105° | 46km/h | 1492m | -1.6m/s | 10.9°C | 68.9% | 859.6hPa | 2.7V | 00:00:00 | 00:00:00 | 00:00:00 | |
| OE3JTB-15 | 2026-09-01 02:06:02 | 48.18822 | 14.30509 | 109° | 46km/h | 1496m | -2.1m/s | 10.8°C | 69.1% | 859.1hPa | 2.7V | 00:00:00 | 03:36:33 | 00:00:00 | |
| OE3JTB-15 | 2026-09-01 02:06:00 | 48.18828 | 14.30476 | 103° | 42km/h | 1499m | -1.6m/s | 10.8°C | 69.0% | 858.6hPa | 2.7V | 00:00:00 | 00:00:00 | 00:00:00 | |
| OE5WHR-10 | 2026-09-01 02:05:59 | 48.18830 | 14.30460 | 101° | 44km/h | 1501m | -1.6m/s | 10.8°C | 69.0% | 858.5hPa | 2.7V | 00:00:00 | 00:00:00 | 00:00:00 | |
| OE5DRO-10 | 2026-09-01 02:05:58 | 48.18832 | 14.30445 | 99° | 46km/h | 1503m | -2.0m/s | 10.7°C | 69.0% | 858.3hPa | 2.7V | 00:00:00 | 00:00:00 | 00:00:00 | |
| PG1ADW-2 | 2026-09-01 02:05:58 | 48.18832 | 14.30445 | 99° | 44km/h | 1503m | -2.0m/s | 10.7°C | 69.0% | 858.3hPa | 2.7V | 00:00:00 | 03:36:29 | 00:00:00 | |
| OE3JTB-15 | 2026-09-01 02:05:58 | 48.18832 | 14.30445 | 99° | 42km/h | 1503m | -2.0m/s | 10.7°C | 69.0% | 858.3hPa | 2.7V | 00:00:00 | 00:00:00 | 00:00:00 | |
| OE5HKT-10 | 2026-09-01 02:05:58 | 48.18832 | 14.30445 | 99° | 42km/h | 1503m | -2.0m/s | 10.7°C | 69.0% | 858.3hPa | 2.7V | 00:00:00 | 00:00:00 | 00:00:00 | |
| OE5WHR-10 | 2026-09-01 02:05:58 | 48.18832 | 14.30445 | 99° | 44km/h | 1503m | -2.0m/s | 10.7°C | 69.0% | 858.3hPa | 2.7V | 00:00:00 | 00:00:00 | 00:00:00 | |
| OE3JTB-15 | 2026-09-01 02:05:56 | 48.18834 | 14.30412 | 95° | 42km/h | 1507m | -2.1m/s | 10.7°C | 69.6% | 857.8hPa | 2.7V | 00:00:00 | 03:36:27 | 00:00:00 | |
| OE3JTB-15 | 2026-09-01 02:05:54 | 48.18835 | 14.30380 | 91° | 47km/h | 1510m | -1.7m/s | 10.7°C | 69.6% | 857.6hPa | 2.7V | 00:00:00 | 00:00:00 | 00:00:00 | |
| OE5WHR-10 | 2026-09-01 02:05:53 | 48.18836 | 14.30362 | 90° | 51km/h | 1512m | -2.0m/s | 10.6°C | 69.8% | 857.3hPa | 2.7V | 00:00:00 | 00:00:00 | 00:00:00 | |
| PG1ADW-2 | 2026-09-01 02:05:52 | 48.18836 | 14.30343 | 91° | 53km/h | 1514m | -1.5m/s | 10.6°C | 69.7% | 857.1hPa | 2.7V | 00:00:00 | 00:00:00 | 00:00:00 | |
| OE3JTB-15 | 2026-09-01 02:05:52 | 48.18836 | 14.30343 | 91° | 51km/h | 1514m | -1.5m/s | 10.6°C | 69.7% | 857.1hPa | 2.7V | 00:00:00 | 00:00:00 | 00:00:00 | |
| OE5HKT-10 | 2026-09-01 02:05:52 | 48.18836 | 14.30343 | 91° | 53km/h | 1514m | -1.5m/s | 10.6°C | 69.7% | 857.1hPa | 2.7V | 00:00:00 | 03:36:23 | 00:00:00 | |
| OE5WHR-10 | 2026-09-01 02:05:52 | 48.18836 | 14.30343 | 91° | 53km/h | 1514m | -1.5m/s | 10.6°C | 69.7% | 857.1hPa | 2.7V | 00:00:00 | 03:36:23 | 00:00:00 | |
| OE5DRO-10 | 2026-09-01 02:05:51 | 48.18836 | 14.30323 | 93° | 51km/h | 1516m | -1.6m/s | 10.6°C | 70.0% | 856.9hPa | 2.7V | 00:00:00 | 00:00:00 | 00:00:00 | |
| OE3JTB-15 | 2026-09-01 02:05:50 | 48.18837 | 14.30303 | 97° | 53km/h | 1518m | -2.4m/s | 10.6°C | 70.0% | 856.6hPa | 2.7V | 06:56:00 | 03:36:21 | 00:00:00 | |
| OE3JTB-15 | 2026-09-01 02:05:48 | 48.18841 | 14.30263 | 102° | 51km/h | 1522m | -2.6m/s | 10.5°C | 70.1% | 856.3hPa | 2.7V | 00:00:00 | 00:00:00 | 00:00:00 | |
| OE5WHR-10 | 2026-09-01 02:05:47 | 48.18844 | 14.30244 | 104° | 47km/h | 1524m | -1.7m/s | 10.5°C | 70.3% | 856.1hPa | 2.7V | 00:00:00 | 03:36:18 | 00:00:00 | |
| PG1ADW-2 | 2026-09-01 02:05:46 | 48.18847 | 14.30226 | 104° | 47km/h | 1526m | -2.2m/s | 10.5°C | 70.0% | 856.0hPa | 2.7V | 00:00:00 | 00:00:00 | 00:00:00 | |
| OE3JTB-15 | 2026-09-01 02:05:46 | 48.18847 | 14.30226 | 104° | 46km/h | 1526m | -2.2m/s | 10.5°C | 70.0% | 856.0hPa | 2.7V | 00:00:00 | 00:00:00 | 00:00:00 | |
| OE5HKT-10 | 2026-09-01 02:05:46 | 48.18847 | 14.30226 | 104° | 47km/h | 1526m | -2.2m/s | 10.5°C | 70.0% | 856.0hPa | 2.7V | 00:00:00 | 00:00:00 | 00:00:00 | |
| OE5WHR-10 | 2026-09-01 02:05:46 | 48.18847 | 14.30226 | 104° | 47km/h | 1526m | -2.2m/s | 10.5°C | 70.0% | 856.0hPa | 2.7V | 00:00:00 | 00:00:00 | 00:00:00 | |
| OE3JTB-15 | 2026-09-01 02:05:44 | 48.18851 | 14.30193 | 98° | 46km/h | 1530m | -1.6m/s | 10.5°C | 70.0% | 855.6hPa | 2.7V | 00:00:00 | 03:36:15 | 00:00:00 | |
| OE5DRO-10 | 2026-09-01 02:05:44 | 48.18851 | 14.30193 | 98° | 49km/h | 1530m | -1.6m/s | 10.5°C | 70.0% | 855.6hPa | 2.7V | 00:00:00 | 00:00:00 | 00:00:00 | |
| OE3JTB-15 | 2026-09-01 02:05:42 | 48.18852 | 14.30158 | 92° | 49km/h | 1533m | -1.9m/s | 10.5°C | 69.9% | 855.0hPa | 2.7V | 00:00:00 | 00:00:00 | 00:00:00 | |
| OE5WHR-10 | 2026-09-01 02:05:41 | 48.18853 | 14.30139 | 92° | 51km/h | 1535m | -2.1m/s | 10.5°C | 69.8% | 854.8hPa | 2.7V | 06:56:00 | 00:00:00 | 00:00:00 | |
| PG1ADW-2 | 2026-09-01 02:05:40 | 48.18853 | 14.30120 | 93° | 51km/h | 1537m | -2.1m/s | 10.4°C | 70.2% | 854.7hPa | 2.7V | 06:56:00 | 00:00:00 | 00:00:00 | |
| OE3JTB-15 | 2026-09-01 02:05:40 | 48.18853 | 14.30120 | 93° | 53km/h | 1537m | -2.1m/s | 10.4°C | 70.2% | 854.7hPa | 2.7V | 00:00:00 | 00:00:00 | 00:00:00 | |
| OE5HKT-10 | 2026-09-01 02:05:40 | 48.18853 | 14.30120 | 93° | 49km/h | 1537m | -2.1m/s | 10.4°C | 70.2% | 854.7hPa | 2.7V | 06:56:00 | 00:00:00 | 00:00:00 | |
| OE5WHR-10 | 2026-09-01 02:05:40 | 48.18853 | 14.30120 | 93° | 51km/h | 1537m | -2.1m/s | 10.4°C | 70.2% | 854.7hPa | 2.7V | 00:00:00 | 00:00:00 | 00:00:00 | |
| OE3JTB-15 | 2026-09-01 02:05:38 | 48.18856 | 14.30079 | 97° | 53km/h | 1541m | -1.9m/s | 10.4°C | 70.2% | 854.3hPa | 2.7V | 00:00:00 | 03:36:09 | 00:00:00 | |
| OE5DRO-10 | 2026-09-01 02:05:37 | 48.18857 | 14.30060 | 99° | 47km/h | 1543m | -1.8m/s | 10.4°C | 70.3% | 854.1hPa | 2.7V | 00:00:00 | 00:00:00 | 00:00:00 | |
| OE3JTB-15 | 2026-09-01 02:05:36 | 48.18859 | 14.30041 | 100° | 47km/h | 1545m | -1.5m/s | 10.4°C | 70.4% | 853.9hPa | 2.7V | 06:56:00 | 00:00:00 | 00:00:00 | |
| OE5WHR-10 | 2026-09-01 02:05:35 | 48.18861 | 14.30023 | 99° | 47km/h | 1547m | -1.6m/s | 10.3°C | 70.5% | 853.6hPa | 2.7V | 00:00:00 | 00:00:00 | 00:00:00 | |
| PG1ADW-2 | 2026-09-01 02:05:34 | 48.18863 | 14.30006 | 97° | 49km/h | 1548m | -1.5m/s | 10.3°C | 70.5% | 853.4hPa | 2.7V | 00:00:00 | 03:36:05 | 00:00:00 | |
| OE3JTB-15 | 2026-09-01 02:05:34 | 48.18863 | 14.30006 | 97° | 46km/h | 1548m | -1.5m/s | 10.3°C | 70.5% | 853.4hPa | 2.7V | 00:00:00 | 00:00:00 | 00:00:00 | |
| OE5HKT-10 | 2026-09-01 02:05:34 | 48.18863 | 14.30006 | 97° | 49km/h | 1548m | -1.5m/s | 10.3°C | 70.5% | 853.4hPa | 2.7V | 00:00:00 | 03:36:05 | 00:00:00 | |
| OE5WHR-10 | 2026-09-01 02:05:34 | 48.18863 | 14.30006 | 97° | 49km/h | 1548m | -1.5m/s | 10.3°C | 70.5% | 853.4hPa | 2.7V | 06:56:00 | 03:36:05 | 00:00:00 | |
| OE3JTB-15 | 2026-09-01 02:05:32 | 48.18864 | 14.29971 | 91° | 49km/h | 1552m | -2.2m/s | 10.3°C | 70.4% | 853.1hPa | 2.7V | 00:00:00 | 03:36:03 | 00:00:00 | |
| OE3JTB-15 | 2026-09-01 02:05:30 | 48.18864 | 14.29932 | 92° | 53km/h | 1557m | -2.2m/s | 10.3°C | 70.5% | 852.5hPa | 2.7V | 00:00:00 | 00:00:00 | 00:00:00 | |
| OE5DRO-10 | 2026-09-01 02:05:30 | 48.18864 | 14.29932 | 92° | 49km/h | 1557m | -2.2m/s | 10.3°C | 70.5% | 852.5hPa | 2.7V | 00:00:00 | 00:00:00 | 00:00:00 | |
| OE5WHR-10 | 2026-09-01 02:05:29 | 48.18865 | 14.29912 | 93° | 49km/h | 1559m | -1.7m/s | 10.3°C | 70.7% | 852.5hPa | 2.7V | 00:00:00 | 03:36:00 | 00:00:00 | |
| OE3JTB-15 | 2026-09-01 02:05:28 | 48.18866 | 14.29892 | 96° | 51km/h | 1561m | -1.7m/s | 10.2°C | 70.7% | 852.4hPa | 2.7V | 00:00:00 | 00:00:00 | 00:00:00 | |
| PG1ADW-2 | 2026-09-01 02:05:28 | 48.18866 | 14.29892 | 96° | 47km/h | 1561m | -1.7m/s | 10.2°C | 70.7% | 852.4hPa | 2.7V | 00:00:00 | 00:00:00 | 00:00:00 | |
| OE5WHR-10 | 2026-09-01 02:05:28 | 48.18866 | 14.29892 | 96° | 51km/h | 1561m | -1.7m/s | 0°C | 0% | 0hPa | 2.7V | 00:00:00 | 00:00:00 | 00:00:00 | |
| OE3JTB-15 | 2026-09-01 02:05:26 | 48.18869 | 14.29854 | 99° | 47km/h | 1564m | -1.7m/s | 10.2°C | 70.9% | 851.9hPa | 2.7V | 00:00:00 | 03:35:57 | 00:00:00 | |
| OE5HKT-10 | 2026-09-01 02:05:25 | 48.18871 | 14.29836 | 98° | 46km/h | 1566m | -2.1m/s | 10.2°C | 71.0% | 851.6hPa | 2.7V | 00:00:00 | 00:00:00 | 00:00:00 | |
| OE3JTB-15 | 2026-09-01 02:05:24 | 48.18872 | 14.29820 | 95° | 44km/h | 1568m | -2.0m/s | 10.2°C | 71.1% | 851.3hPa | 2.7V | 00:00:00 | 00:00:00 | 00:00:00 | |
| OE5DRO-10 | 2026-09-01 02:05:23 | 48.18872 | 14.29803 | 92° | 51km/h | 1570m | -2.1m/s | 10.1°C | 71.1% | 851.3hPa | 2.7V | 06:57:00 | 00:00:00 | 00:00:00 | |
| OE5WHR-10 | 2026-09-01 02:05:23 | 48.18872 | 14.29803 | 92° | 51km/h | 1570m | -2.1m/s | 10.1°C | 71.1% | 851.3hPa | 2.7V | 00:00:00 | 00:00:00 | 00:00:00 | |
| PG1ADW-2 | 2026-09-01 02:05:22 | 48.18872 | 14.29786 | 90° | 53km/h | 1572m | -1.9m/s | 10.1°C | 71.4% | 851.1hPa | 2.7V | 00:00:00 | 00:00:00 | 00:00:00 | |
| OE3JTB-15 | 2026-09-01 02:05:22 | 48.18872 | 14.29786 | 90° | 49km/h | 1572m | -1.9m/s | 10.1°C | 71.4% | 851.1hPa | 2.7V | 06:57:00 | 00:00:00 | 00:00:00 | |
| OE5WHR-10 | 2026-09-01 02:05:22 | 48.18872 | 14.29786 | 90° | 53km/h | 1572m | -1.9m/s | 0°C | 0% | 0hPa | 2.7V | 00:00:00 | 00:00:00 | 00:00:00 | |
| OE3JTB-15 | 2026-09-01 02:05:20 | 48.18872 | 14.29748 | 91° | 53km/h | 1576m | -2.0m/s | 10.1°C | 71.3% | 850.8hPa | 2.7V | 00:00:00 | 03:35:51 | 00:00:00 | |
| OE5HKT-10 | 2026-09-01 02:05:19 | 48.18872 | 14.29727 | 92° | 49km/h | 1578m | -2.0m/s | 10.1°C | 71.4% | 850.6hPa | 2.7V | 00:00:00 | 00:00:00 | 00:00:00 | |
| OE3JTB-15 | 2026-09-01 02:05:18 | 48.18873 | 14.29706 | 96° | 55km/h | 1580m | -1.9m/s | 10.0°C | 71.7% | 850.2hPa | 2.7V | 00:00:00 | 00:00:00 | 00:00:00 | |
| OE5WHR-10 | 2026-09-01 02:05:17 | 48.18875 | 14.29686 | 99° | 49km/h | 1582m | -1.5m/s | 10.0°C | 71.7% | 850.0hPa | 2.7V | 00:00:00 | 00:00:00 | 00:00:00 | |
| PG1ADW-2 | 2026-09-01 02:05:16 | 48.18877 | 14.29666 | 101° | 47km/h | 1583m | -1.7m/s | 10.0°C | 71.6% | 850.0hPa | 2.7V | 00:00:00 | 00:00:00 | 00:00:00 | |
| OE5DRO-10 | 2026-09-01 02:05:16 | 48.18877 | 14.29666 | 101° | 49km/h | 1583m | -1.7m/s | 10.0°C | 71.6% | 850.0hPa | 2.7V | 00:00:00 | 00:00:00 | 00:00:00 | |
| OE3JTB-15 | 2026-09-01 02:05:16 | 48.18877 | 14.29666 | 101° | 51km/h | 1583m | -1.7m/s | 10.0°C | 71.6% | 850.0hPa | 2.7V | 00:00:00 | 00:00:00 | 00:00:00 | |
| OE5WHR-10 | 2026-09-01 02:05:16 | 48.18877 | 14.29666 | 101° | 49km/h | 1583m | -1.7m/s | 0°C | 0% | 0hPa | 2.7V | 00:00:00 | 03:35:47 | 00:00:00 | |
| OE3JTB-15 | 2026-09-01 02:05:14 | 48.18882 | 14.29629 | 100° | 46km/h | 1587m | -1.8m/s | 10.0°C | 71.7% | 849.6hPa | 2.7V | 00:00:00 | 03:35:45 | 00:00:00 | |
| OE3JTB-15 | 2026-09-01 02:05:12 | 48.18884 | 14.29594 | 93° | 47km/h | 1591m | -1.8m/s | 9.9°C | 71.9% | 849.2hPa | 2.7V | 00:00:00 | 00:00:00 | 00:00:00 | |
| OE5WHR-10 | 2026-09-01 02:05:11 | 48.18884 | 14.29576 | 91° | 53km/h | 1593m | -1.7m/s | 9.9°C | 71.9% | 849.0hPa | 2.7V | 00:00:00 | 03:35:42 | 00:00:00 | |
| PG1ADW-2 | 2026-09-01 02:05:10 | 48.18884 | 14.29557 | 91° | 53km/h | 1595m | -1.8m/s | 9.9°C | 72.0% | 848.8hPa | 2.7V | 00:00:00 | 03:35:41 | 00:00:00 | |
| OE3JTB-15 | 2026-09-01 02:05:10 | 48.18884 | 14.29557 | 91° | 53km/h | 1595m | -1.8m/s | 9.9°C | 72.0% | 848.8hPa | 2.7V | 00:00:00 | 00:00:00 | 00:00:00 | |
| OE5WHR-10 | 2026-09-01 02:05:10 | 48.18884 | 14.29557 | 91° | 53km/h | 1595m | -1.8m/s | 0°C | 0% | 0hPa | 2.7V | 00:00:00 | 00:00:00 | 00:00:00 | |
| OE5HKT-10 | 2026-09-01 02:05:09 | 48.18885 | 14.29537 | 92° | 51km/h | 1597m | -1.6m/s | 9.9°C | 72.0% | 848.5hPa | 2.7V | 00:00:00 | 03:35:40 | 00:00:00 | |
| OE5DRO-10 | 2026-09-01 02:05:09 | 48.18885 | 14.29537 | 92° | 51km/h | 1597m | -1.6m/s | 9.9°C | 72.0% | 848.5hPa | 2.7V | 00:00:00 | 00:00:00 | 00:00:00 | |
| OE3JTB-15 | 2026-09-01 02:05:08 | 48.18886 | 14.29517 | 94° | 55km/h | 1598m | -1.8m/s | 9.9°C | 72.1% | 848.4hPa | 2.7V | 06:57:00 | 03:35:39 | 00:00:00 | |
| OE3JTB-15 | 2026-09-01 02:05:06 | 48.18888 | 14.29477 | 97° | 49km/h | 1602m | -1.7m/s | 9.9°C | 72.2% | 848.1hPa | 2.7V | 00:00:00 | 00:00:00 | 00:00:00 | |
| OE5WHR-10 | 2026-09-01 02:05:05 | 48.18890 | 14.29458 | 97° | 49km/h | 1604m | -1.5m/s | 9.9°C | 72.0% | 847.9hPa | 2.7V | 00:00:00 | 00:00:00 | 00:00:00 | |
| PG1ADW-2 | 2026-09-01 02:05:04 | 48.18890 | 14.29440 | 95° | 49km/h | 1605m | -1.5m/s | 9.9°C | 72.2% | 847.7hPa | 2.7V | 00:00:00 | 00:00:00 | 00:00:00 | |
| OE3JTB-15 | 2026-09-01 02:05:04 | 48.18890 | 14.29440 | 95° | 46km/h | 1605m | -1.5m/s | 9.9°C | 72.2% | 847.7hPa | 2.7V | 00:00:00 | 00:00:00 | 00:00:00 | |
| OE5WHR-10 | 2026-09-01 02:05:04 | 48.18890 | 14.29440 | 95° | 49km/h | 1605m | -1.5m/s | 0°C | 0% | 0hPa | 2.7V | 00:00:00 | 00:00:00 | 00:00:00 | |
| OE5HKT-10 | 2026-09-01 02:05:03 | 48.18891 | 14.29423 | 92° | 53km/h | 1607m | -1.8m/s | 9.8°C | 72.2% | 847.6hPa | 2.7V | 00:00:00 | 00:00:00 | 00:00:00 | |
| OE5DRO-10 | 2026-09-01 02:05:02 | 48.18891 | 14.29405 | 89° | 53km/h | 1608m | -1.9m/s | 9.8°C | 72.4% | 847.3hPa | 2.7V | 00:00:00 | 00:00:00 | 00:00:00 | |
| OE3JTB-15 | 2026-09-01 02:05:02 | 48.18891 | 14.29405 | 89° | 49km/h | 1608m | -1.9m/s | 9.8°C | 72.4% | 847.3hPa | 2.7V | 00:00:00 | 03:35:33 | 00:00:00 | |
| OE3JTB-15 | 2026-09-01 02:05:00 | 48.18891 | 14.29367 | 90° | 55km/h | 1612m | -1.9m/s | 9.8°C | 72.7% | 847.0hPa | 2.7V | 00:00:00 | 00:00:00 | 00:00:00 | |
| OE5WHR-10 | 2026-09-01 02:04:59 | 48.18891 | 14.29347 | 92° | 53km/h | 1614m | -1.8m/s | 9.7°C | 73.0% | 846.6hPa | 2.7V | 06:57:00 | 00:00:00 | 00:00:00 | |
| PG1ADW-2 | 2026-09-01 02:04:58 | 48.18892 | 14.29326 | 95° | 51km/h | 1616m | -1.8m/s | 9.7°C | 72.8% | 846.6hPa | 2.7V | 06:57:00 | 00:00:00 | 00:00:00 | |
| OE3JTB-15 | 2026-09-01 02:04:58 | 48.18892 | 14.29326 | 95° | 55km/h | 1616m | -1.8m/s | 9.7°C | 72.8% | 846.6hPa | 2.7V | 00:00:00 | 00:00:00 | 00:00:00 | |
| OE5WHR-10 | 2026-09-01 02:04:58 | 48.18892 | 14.29326 | 95° | 51km/h | 1616m | -1.8m/s | 0°C | 0% | 0hPa | 2.7V | 00:00:00 | 03:35:29 | 00:00:00 | |
| OE3JTB-15 | 2026-09-01 02:04:56 | 48.18895 | 14.29285 | 100° | 51km/h | 1620m | -1.8m/s | 9.7°C | 72.9% | 846.1hPa | 2.7V | 00:00:00 | 03:35:27 | 00:00:00 | |
| OE5DRO-10 | 2026-09-01 02:04:55 | 48.18897 | 14.29266 | 100° | 49km/h | 1622m | -1.9m/s | 9.7°C | 73.0% | 845.9hPa | 2.7V | 00:00:00 | 00:00:00 | 00:00:00 | |
| OE5HKT-10 | 2026-09-01 02:04:55 | 48.18897 | 14.29266 | 100° | 55km/h | 1622m | -1.9m/s | 9.7°C | 73.0% | 845.9hPa | 2.7V | 00:00:00 | 00:00:00 | 00:00:00 | |
| OE3JTB-15 | 2026-09-01 02:04:54 | 48.18899 | 14.29248 | 98° | 46km/h | 1624m | -2.0m/s | 9.7°C | 73.0% | 846.0hPa | 2.7V | 06:57:00 | 00:00:00 | 00:00:00 | |
| OE5WHR-10 | 2026-09-01 02:04:53 | 48.18900 | 14.29231 | 95° | 49km/h | 1626m | -1.9m/s | 9.7°C | 73.1% | 845.4hPa | 2.7V | 00:00:00 | 03:35:24 | 00:00:00 | |
| PG1ADW-2 | 2026-09-01 02:04:52 | 48.18901 | 14.29214 | 91° | 53km/h | 1628m | -1.8m/s | 9.6°C | 73.1% | 845.3hPa | 2.7V | 00:00:00 | 00:00:00 | 00:00:00 | |
| OE3JTB-15 | 2026-09-01 02:04:52 | 48.18901 | 14.29214 | 91° | 47km/h | 1628m | -1.8m/s | 9.6°C | 73.1% | 845.3hPa | 2.7V | 00:00:00 | 00:00:00 | 00:00:00 | |
| OE5WHR-10 | 2026-09-01 02:04:52 | 48.18901 | 14.29214 | 91° | 55km/h | 1628m | -1.8m/s | 0°C | 0% | 0hPa | 2.7V | 06:57:00 | 00:00:00 | 00:00:00 | |
| OE3JTB-15 | 2026-09-01 02:04:50 | 48.18900 | 14.29177 | 88° | 53km/h | 1631m | -2.1m/s | 9.6°C | 73.4% | 845.1hPa | 2.7V | 00:00:00 | 03:35:21 | 00:00:00 | |
| OE5DRO-10 | 2026-09-01 02:04:48 | 48.18899 | 14.29136 | 90° | 55km/h | 1636m | -1.9m/s | 9.6°C | 73.4% | 844.7hPa | 2.7V | 00:00:00 | 00:00:00 | 00:00:00 | |
| OE3JTB-15 | 2026-09-01 02:04:48 | 48.18899 | 14.29136 | 90° | 57km/h | 1636m | -1.9m/s | 9.6°C | 73.4% | 844.7hPa | 2.7V | 00:00:00 | 00:00:00 | 00:00:00 | |
| OE5WHR-10 | 2026-09-01 02:04:47 | 48.18899 | 14.29115 | 92° | 55km/h | 1637m | -2.0m/s | 9.6°C | 73.4% | 844.3hPa | 2.7V | 00:00:00 | 00:00:00 | 00:00:00 | |
| PG1ADW-2 | 2026-09-01 02:04:46 | 48.18900 | 14.29093 | 95° | 53km/h | 1640m | -1.9m/s | 9.6°C | 73.9% | 844.2hPa | 2.7V | 00:00:00 | 03:35:17 | 00:00:00 | |
| OE3JTB-15 | 2026-09-01 02:04:46 | 48.18900 | 14.29093 | 95° | 57km/h | 1640m | -1.9m/s | 9.6°C | 73.9% | 844.2hPa | 2.7V | 00:00:00 | 00:00:00 | 00:00:00 | |
| OE3JTB-15 | 2026-09-01 02:04:44 | 48.18903 | 14.29050 | 99° | 53km/h | 1643m | -1.7m/s | 9.5°C | 74.2% | 843.9hPa | 2.7V | 00:00:00 | 03:35:15 | 00:00:00 | |
| OE5HKT-10 | 2026-09-01 02:04:44 | 48.18903 | 14.29050 | 99° | 47km/h | 1643m | -1.7m/s | 9.5°C | 74.2% | 843.9hPa | 2.7V | 06:57:00 | 03:35:15 | 00:00:00 | |
| OE3JTB-15 | 2026-09-01 02:04:42 | 48.18907 | 14.29012 | 100° | 47km/h | 1647m | -1.5m/s | 9.5°C | 74.4% | 843.4hPa | 2.7V | 00:00:00 | 00:00:00 | 00:00:00 | |
| OE5DRO-10 | 2026-09-01 02:04:41 | 48.18909 | 14.28994 | 97° | 47km/h | 1649m | -1.8m/s | 9.5°C | 74.5% | 843.4hPa | 2.7V | 00:00:00 | 00:00:00 | 00:00:00 | |
| OE5WHR-10 | 2026-09-01 02:04:41 | 48.18909 | 14.28994 | 97° | 47km/h | 1649m | -1.8m/s | 9.5°C | 74.5% | 843.4hPa | 2.7V | 00:00:00 | 00:00:00 | 00:00:00 | |
| PG1ADW-2 | 2026-09-01 02:04:40 | 48.18910 | 14.28977 | 94° | 49km/h | 1650m | -1.7m/s | 9.5°C | 74.5% | 843.0hPa | 2.7V | 00:00:00 | 00:00:00 | 00:00:00 | |
| OE3JTB-15 | 2026-09-01 02:04:40 | 48.18910 | 14.28977 | 94° | 46km/h | 1650m | -1.7m/s | 9.5°C | 74.5% | 843.0hPa | 2.7V | 06:57:00 | 00:00:00 | 00:00:00 | |
| OE5WHR-10 | 2026-09-01 02:04:39 | 48.18910 | 14.28960 | 91° | 51km/h | 1652m | -1.9m/s | 0°C | 0% | 0hPa | 2.7V | 00:00:00 | 03:35:10 | 00:00:00 | |
| OE3JTB-15 | 2026-09-01 02:04:38 | 48.18910 | 14.28943 | 88° | 47km/h | 1654m | -1.8m/s | 9.4°C | 74.7% | 842.8hPa | 2.7V | 00:00:00 | 03:35:09 | 00:00:00 | |
| OE5HKT-10 | 2026-09-01 02:04:38 | 48.18910 | 14.28943 | 88° | 53km/h | 1654m | -1.8m/s | 9.4°C | 74.7% | 842.8hPa | 2.7V | 00:00:00 | 00:00:00 | 00:00:00 | |
| OE5MMP-10 | 2026-09-01 02:04:38 | 48.18910 | 14.28943 | 88° | 51km/h | 1654m | -1.8m/s | 9.4°C | 74.7% | 842.8hPa | 2.7V | 00:00:00 | 03:35:09 | 00:00:00 | |
| OE3JTB-15 | 2026-09-01 02:04:36 | 48.18909 | 14.28906 | 87° | 53km/h | 1658m | -2.0m/s | 9.4°C | 75.6% | 842.3hPa | 2.7V | 00:00:00 | 00:00:00 | 00:00:00 | |
| OE5WHR-10 | 2026-09-01 02:04:35 | 48.18908 | 14.28886 | 87° | 55km/h | 1660m | -2.0m/s | 9.4°C | 75.2% | 842.1hPa | 2.7V | 00:00:00 | 03:35:06 | 00:00:00 | |
| OE5DRO-10 | 2026-09-01 02:04:34 | 48.18908 | 14.28865 | 89° | 53km/h | 1662m | -1.8m/s | 9.4°C | 75.4% | 841.8hPa | 2.7V | 06:57:00 | 00:00:00 | 00:00:00 | |
| OE3JTB-15 | 2026-09-01 02:04:34 | 48.18908 | 14.28865 | 89° | 57km/h | 1662m | -1.8m/s | 9.4°C | 75.4% | 841.8hPa | 2.7V | 00:00:00 | 00:00:00 | 00:00:00 | |
| PG1ADW-2 | 2026-09-01 02:04:34 | 48.18908 | 14.28865 | 89° | 55km/h | 1662m | -1.8m/s | 9.4°C | 75.4% | 841.8hPa | 2.7V | 00:00:00 | 00:00:00 | 00:00:00 | |
| OE5WHR-10 | 2026-09-01 02:04:33 | 48.18907 | 14.28843 | 91° | 55km/h | 1664m | -1.7m/s | 0°C | 0% | 0hPa | 2.7V | 00:00:00 | 00:00:00 | 00:00:00 | |
| OE5MMP-10 | 2026-09-01 02:04:33 | 48.18907 | 14.28843 | 91° | 57km/h | 1664m | -1.7m/s | 9.4°C | 75.2% | 841.7hPa | 2.7V | 00:00:00 | 03:35:04 | 00:00:00 | |
| OE3JTB-15 | 2026-09-01 02:04:32 | 48.18908 | 14.28822 | 93° | 57km/h | 1665m | -1.8m/s | 9.3°C | 76.6% | 841.6hPa | 2.7V | 00:00:00 | 03:35:03 | 00:00:00 | |
| OE5HKT-10 | 2026-09-01 02:04:32 | 48.18908 | 14.28822 | 93° | 53km/h | 1665m | -1.8m/s | 9.3°C | 76.6% | 841.6hPa | 2.7V | 00:00:00 | 00:00:00 | 00:00:00 | |
| OE3JTB-15 | 2026-09-01 02:04:30 | 48.18910 | 14.28780 | 95° | 51km/h | 1668m | -1.6m/s | 9.3°C | 76.4% | 841.2hPa | 2.7V | 00:00:00 | 00:00:00 | 00:00:00 | |
| OE5WHR-10 | 2026-09-01 02:04:29 | 48.18910 | 14.28761 | 95° | 49km/h | 1670m | -1.7m/s | 9.3°C | 76.5% | 841.0hPa | 2.7V | 00:00:00 | 00:00:00 | 00:00:00 | |
| PG1ADW-2 | 2026-09-01 02:04:28 | 48.18911 | 14.28743 | 92° | 51km/h | 1672m | -1.7m/s | 9.3°C | 76.6% | 840.9hPa | 2.7V | 00:00:00 | 00:00:00 | 00:00:00 | |
| OE3JTB-15 | 2026-09-01 02:04:28 | 48.18911 | 14.28743 | 92° | 47km/h | 1672m | -1.7m/s | 9.3°C | 76.6% | 840.9hPa | 2.7V | 00:00:00 | 00:00:00 | 00:00:00 | |
| OE5DRO-10 | 2026-09-01 02:04:27 | 48.18911 | 14.28725 | 90° | 53km/h | 1674m | -1.6m/s | 9.3°C | 77.0% | 840.7hPa | 2.7V | 00:00:00 | 00:00:00 | 00:00:00 | |
| OE5HKT-10 | 2026-09-01 02:04:26 | 48.18911 | 14.28706 | 87° | 55km/h | 1675m | -1.8m/s | 9.3°C | 77.0% | 840.5hPa | 2.7V | 00:00:00 | 03:34:57 | 00:00:00 | |
| OE3JTB-15 | 2026-09-01 02:04:26 | 48.18911 | 14.28706 | 87° | 51km/h | 1675m | -1.8m/s | 9.3°C | 77.0% | 840.5hPa | 2.7V | 06:58:00 | 03:34:57 | 00:00:00 | |
| OE3JTB-15 | 2026-09-01 02:04:24 | 48.18909 | 14.28667 | 87° | 55km/h | 1679m | -1.9m/s | 9.2°C | 77.2% | 840.1hPa | 2.7V | 00:00:00 | 00:00:00 | 00:00:00 | |
| OE5WHR-10 | 2026-09-01 02:04:23 | 48.18909 | 14.28647 | 89° | 55km/h | 1681m | -1.7m/s | 9.2°C | 77.2% | 840.0hPa | 2.7V | 00:00:00 | 00:00:00 | 00:00:00 | |
| PG1ADW-2 | 2026-09-01 02:04:22 | 48.18908 | 14.28625 | 90° | 53km/h | 1682m | -1.9m/s | 9.2°C | 77.1% | 840.0hPa | 2.7V | 00:00:00 | 03:34:53 | 00:00:00 | |
| OE3JTB-15 | 2026-09-01 02:04:22 | 48.18908 | 14.28625 | 90° | 57km/h | 1682m | -1.9m/s | 9.2°C | 77.1% | 840.0hPa | 2.7V | 00:00:00 | 00:00:00 | 00:00:00 | |
| OE5WHR-10 | 2026-09-01 02:04:21 | 48.18909 | 14.28603 | 93° | 53km/h | 1684m | -1.7m/s | 0°C | 0% | 0hPa | 2.7V | 00:00:00 | 00:00:00 | 00:00:00 | |
| OE5DRO-10 | 2026-09-01 02:04:20 | 48.18910 | 14.28582 | 94° | 51km/h | 1686m | -1.6m/s | 9.2°C | 77.5% | 839.4hPa | 2.7V | 00:00:00 | 00:00:00 | 00:00:00 | |
| OE3JTB-15 | 2026-09-01 02:04:20 | 48.18910 | 14.28582 | 94° | 53km/h | 1686m | -1.6m/s | 9.2°C | 77.5% | 839.4hPa | 2.7V | 00:00:00 | 03:34:51 | 00:00:00 | |
| OE5HKT-10 | 2026-09-01 02:04:20 | 48.18910 | 14.28582 | 94° | 51km/h | 1686m | -1.6m/s | 9.2°C | 77.5% | 839.4hPa | 2.7V | 00:00:00 | 00:00:00 | 00:00:00 | |
| OE3JTB-15 | 2026-09-01 02:04:18 | 48.18911 | 14.28542 | 93° | 49km/h | 1690m | -1.6m/s | 9.1°C | 77.7% | 839.0hPa | 2.7V | 00:00:00 | 00:00:00 | 00:00:00 | |
| OE5WHR-10 | 2026-09-01 02:04:17 | 48.18911 | 14.28524 | 91° | 53km/h | 1691m | -1.6m/s | 9.1°C | 77.9% | 839.0hPa | 2.7V | 06:58:00 | 03:34:48 | 00:00:00 | |
| PG1ADW-2 | 2026-09-01 02:04:16 | 48.18911 | 14.28505 | 89° | 53km/h | 1693m | -1.7m/s | 9.1°C | 78.0% | 838.8hPa | 2.7V | 06:58:00 | 00:00:00 | 00:00:00 | |
| OE3JTB-15 | 2026-09-01 02:04:16 | 48.18911 | 14.28505 | 89° | 49km/h | 1693m | -1.7m/s | 9.1°C | 78.0% | 838.8hPa | 2.7V | 00:00:00 | 00:00:00 | 00:00:00 | |
| OE5WHR-10 | 2026-09-01 02:04:15 | 48.18910 | 14.28486 | 87° | 55km/h | 1694m | -1.6m/s | 0°C | 0% | 0hPa | 2.7V | 00:00:00 | 03:34:46 | 00:00:00 | |
| OE3JTB-15 | 2026-09-01 02:04:14 | 48.18910 | 14.28467 | 87° | 55km/h | 1696m | -1.7m/s | 9.1°C | 77.9% | 838.3hPa | 2.7V | 00:00:00 | 03:34:45 | 00:00:00 | |
| OE5HKT-10 | 2026-09-01 02:04:14 | 48.18910 | 14.28467 | 87° | 55km/h | 1696m | -1.7m/s | 9.1°C | 77.9% | 838.3hPa | 2.7V | 00:00:00 | 00:00:00 | 00:00:00 | |
| OE5DRO-10 | 2026-09-01 02:04:13 | 48.18909 | 14.28446 | 88° | 53km/h | 1698m | -1.6m/s | 9.1°C | 78.2% | 838.2hPa | 2.7V | 00:00:00 | 00:00:00 | 00:00:00 | |
| OE3JTB-15 | 2026-09-01 02:04:12 | 48.18908 | 14.28425 | 90° | 57km/h | 1700m | -1.9m/s | 9.0°C | 78.5% | 837.9hPa | 2.7V | 06:58:00 | 00:00:00 | 00:00:00 | |
| OE5WHR-10 | 2026-09-01 02:04:11 | 48.18908 | 14.28403 | 91° | 53km/h | 1701m | -1.5m/s | 9.0°C | 78.8% | 837.7hPa | 2.7V | 00:00:00 | 00:00:00 | 00:00:00 | |
| OE3JTB-15 | 2026-09-01 02:04:10 | 48.18909 | 14.28382 | 93° | 53km/h | 1703m | -1.6m/s | 9.0°C | 79.1% | 837.8hPa | 2.7V | 00:00:00 | 00:00:00 | 00:00:00 | |
| PG1ADW-2 | 2026-09-01 02:04:10 | 48.18909 | 14.28382 | 93° | 51km/h | 1703m | -1.6m/s | 9.0°C | 79.1% | 837.8hPa | 2.7V | 00:00:00 | 00:00:00 | 00:00:00 | |
| OE5WHR-10 | 2026-09-01 02:04:09 | 48.18909 | 14.28362 | 92° | 53km/h | 1704m | -1.7m/s | 0°C | 0% | 0hPa | 2.7V | 00:00:00 | 00:00:00 | 00:00:00 | |
| OE5HKT-10 | 2026-09-01 02:04:08 | 48.18910 | 14.28342 | 90° | 51km/h | 1706m | -1.4m/s | 9.0°C | 79.5% | 837.4hPa | 2.7V | 00:00:00 | 03:34:39 | 00:00:00 | |
| OE3JTB-15 | 2026-09-01 02:04:08 | 48.18910 | 14.28342 | 90° | 49km/h | 1706m | -1.4m/s | 9.0°C | 79.5% | 837.4hPa | 2.7V | 00:00:00 | 03:34:39 | 00:00:00 | |
| OE3JTB-15 | 2026-09-01 02:04:06 | 48.18908 | 14.28305 | 85° | 51km/h | 1709m | -1.8m/s | 9.0°C | 80.7% | 837.1hPa | 2.7V | 00:00:00 | 00:00:00 | 00:00:00 | |
| OE5DRO-10 | 2026-09-01 02:04:06 | 48.18908 | 14.28305 | 85° | 55km/h | 1709m | -1.8m/s | 9.0°C | 80.7% | 837.1hPa | 2.7V | 00:00:00 | 00:00:00 | 00:00:00 | |
| OE5WHR-10 | 2026-09-01 02:04:05 | 48.18907 | 14.28286 | 84° | 55km/h | 1711m | -1.8m/s | 9.0°C | 80.6% | 836.7hPa | 2.7V | 00:00:00 | 00:00:00 | 00:00:00 | |
| PG1ADW-2 | 2026-09-01 02:04:04 | 48.18906 | 14.28266 | 84° | 57km/h | 1713m | -1.6m/s | 9.0°C | 80.6% | 836.7hPa | 2.7V | 00:00:00 | 00:00:00 | 00:00:00 | |
| OE3JTB-15 | 2026-09-01 02:04:04 | 48.18906 | 14.28266 | 84° | 55km/h | 1713m | -1.6m/s | 9.0°C | 80.6% | 836.7hPa | 2.7V | 00:00:00 | 00:00:00 | 00:00:00 | |
| OE5WHR-10 | 2026-09-01 02:04:03 | 48.18904 | 14.28245 | 85° | 55km/h | 1715m | -1.7m/s | 0°C | 0% | 0hPa | 2.7V | 06:58:00 | 00:00:00 | 00:00:00 | |
| OE3JTB-15 | 2026-09-01 02:04:02 | 48.18903 | 14.28223 | 88° | 58km/h | 1716m | -1.8m/s | 9.0°C | 81.4% | 836.3hPa | 2.7V | 00:00:00 | 03:34:33 | 00:00:00 | |
| OE5HKT-10 | 2026-09-01 02:04:02 | 48.18903 | 14.28223 | 88° | 55km/h | 1716m | -1.8m/s | 9.0°C | 81.4% | 836.3hPa | 2.7V | 06:58:00 | 00:00:00 | 00:00:00 | |
| OE3JTB-15 | 2026-09-01 02:04:00 | 48.18903 | 14.28180 | 91° | 55km/h | 1720m | -1.6m/s | 9.0°C | 81.9% | 835.9hPa | 2.7V | 00:00:00 | 00:00:00 | 00:00:00 | |
| OE5DRO-10 | 2026-09-01 02:03:59 | 48.18903 | 14.28159 | 91° | 53km/h | 1722m | -1.7m/s | 9.0°C | 82.1% | 835.8hPa | 2.7V | 00:00:00 | 00:00:00 | 00:00:00 | |
| OE5WHR-10 | 2026-09-01 02:03:59 | 48.18903 | 14.28159 | 91° | 51km/h | 1722m | -1.7m/s | 9.0°C | 82.1% | 835.8hPa | 2.7V | 00:00:00 | 03:34:30 | 00:00:00 | |
| PG1ADW-2 | 2026-09-01 02:03:58 | 48.18903 | 14.28139 | 90° | 53km/h | 1723m | -1.6m/s | 9.0°C | 82.2% | 835.7hPa | 2.7V | 00:00:00 | 03:34:29 | 00:00:00 | |
| OE3JTB-15 | 2026-09-01 02:03:58 | 48.18903 | 14.28139 | 90° | 51km/h | 1723m | -1.6m/s | 9.0°C | 82.2% | 835.7hPa | 2.7V | 06:58:00 | 00:00:00 | 00:00:00 | |
| OE5WHR-10 | 2026-09-01 02:03:57 | 48.18902 | 14.28120 | 88° | 53km/h | 1725m | -1.7m/s | 0°C | 0% | 0hPa | 2.7V | 00:00:00 | 03:34:28 | 00:00:00 | |
| OE3JTB-15 | 2026-09-01 02:03:56 | 48.18901 | 14.28101 | 86° | 51km/h | 1726m | -1.7m/s | 8.9°C | 82.4% | 835.3hPa | 2.7V | 00:00:00 | 03:34:27 | 00:00:00 | |
| OE5HKT-10 | 2026-09-01 02:03:56 | 48.18901 | 14.28101 | 86° | 55km/h | 1726m | -1.7m/s | 8.9°C | 82.4% | 835.3hPa | 2.7V | 00:00:00 | 00:00:00 | 00:00:00 | |
| OE3JTB-15 | 2026-09-01 02:03:54 | 48.18899 | 14.28062 | 83° | 55km/h | 1730m | -1.7m/s | 8.9°C | 82.6% | 835.0hPa | 2.7V | 00:00:00 | 00:00:00 | 00:00:00 | |
| OE5WHR-10 | 2026-09-01 02:03:53 | 48.18897 | 14.28041 | 84° | 55km/h | 1732m | -1.5m/s | 8.9°C | 83.2% | 834.8hPa | 2.7V | 00:00:00 | 00:00:00 | 00:00:00 | |
| OE5DRO-10 | 2026-09-01 02:03:52 | 48.18896 | 14.28020 | 87° | 53km/h | 1733m | -1.6m/s | 8.9°C | 83.2% | 834.7hPa | 2.7V | 00:00:00 | 00:00:00 | 00:00:00 | |
| PG1ADW-2 | 2026-09-01 02:03:52 | 48.18896 | 14.28020 | 87° | 53km/h | 1733m | -1.6m/s | 8.9°C | 83.2% | 834.7hPa | 2.7V | 00:00:00 | 00:00:00 | 00:00:00 | |
| OE3JTB-15 | 2026-09-01 02:03:52 | 48.18896 | 14.28020 | 87° | 57km/h | 1733m | -1.6m/s | 8.9°C | 83.2% | 834.7hPa | 2.7V | 00:00:00 | 00:00:00 | 00:00:00 | |
| OE5WHR-10 | 2026-09-01 02:03:51 | 48.18895 | 14.27998 | 88° | 55km/h | 1735m | -1.7m/s | 0°C | 0% | 0hPa | 2.7V | 00:00:00 | 00:00:00 | 00:00:00 | |
| OE3JTB-15 | 2026-09-01 02:03:50 | 48.18895 | 14.27977 | 90° | 55km/h | 1736m | -1.6m/s | 8.9°C | 83.6% | 834.4hPa | 2.7V | 00:00:00 | 03:34:21 | 00:00:00 | |
| OE5HKT-10 | 2026-09-01 02:03:50 | 48.18895 | 14.27977 | 90° | 53km/h | 1736m | -1.6m/s | 8.9°C | 83.6% | 834.4hPa | 2.7V | 00:00:00 | 03:34:21 | 00:00:00 | |
| OE5DXL-15 | 2026-09-01 02:03:49 | 48.18895 | 14.27956 | 90° | 53km/h | 1738m | -1.5m/s | 8.9°C | 83.7% | 834.2hPa | 2.7V | 00:00:00 | 00:00:00 | 00:00:00 | |
| OE3JTB-15 | 2026-09-01 02:03:48 | 48.18894 | 14.27936 | 89° | 49km/h | 1740m | -1.6m/s | 8.9°C | 84.1% | 834.2hPa | 2.7V | 00:00:00 | 00:00:00 | 00:00:00 | |
| OE5WHR-10 | 2026-09-01 02:03:47 | 48.18894 | 14.27918 | 87° | 53km/h | 1741m | -1.5m/s | 8.9°C | 84.1% | 833.7hPa | 2.7V | 00:00:00 | 00:00:00 | 00:00:00 | |
| OE3JTB-15 | 2026-09-01 02:03:46 | 48.18893 | 14.27899 | 84° | 51km/h | 1743m | -1.6m/s | 8.9°C | 84.2% | 833.6hPa | 2.7V | 00:00:00 | 00:00:00 | 00:00:00 | |
| PG1ADW-2 | 2026-09-01 02:03:46 | 48.18893 | 14.27899 | 84° | 55km/h | 1743m | -1.6m/s | 8.9°C | 84.2% | 833.6hPa | 2.7V | 00:00:00 | 00:00:00 | 00:00:00 | |
| OE5DRO-10 | 2026-09-01 02:03:45 | 48.18891 | 14.27880 | 82° | 55km/h | 1745m | -1.7m/s | 8.9°C | 84.0% | 833.4hPa | 2.7V | 06:58:00 | 00:00:00 | 00:00:00 | |
| OE3JTB-15 | 2026-09-01 02:03:44 | 48.18889 | 14.27860 | 82° | 55km/h | 1747m | -1.6m/s | 8.9°C | 84.3% | 833.3hPa | 2.7V | 06:58:00 | 03:34:15 | 00:00:00 | |
| OE5HKT-10 | 2026-09-01 02:03:44 | 48.18889 | 14.27860 | 82° | 55km/h | 1747m | -1.6m/s | 8.9°C | 84.3% | 833.3hPa | 2.7V | 00:00:00 | 00:00:00 | 00:00:00 | |
| OE3JTB-15 | 2026-09-01 02:03:42 | 48.18886 | 14.27818 | 86° | 58km/h | 1750m | -1.6m/s | 8.9°C | 84.8% | 832.9hPa | 2.7V | 00:00:00 | 00:00:00 | 00:00:00 | |
| OE5WHR-10 | 2026-09-01 02:03:41 | 48.18885 | 14.27795 | 89° | 53km/h | 1751m | -1.4m/s | 8.9°C | 85.2% | 832.9hPa | 2.7V | 00:00:00 | 03:34:12 | 00:00:00 | |
| PG1ADW-2 | 2026-09-01 02:03:40 | 48.18885 | 14.27774 | 91° | 51km/h | 1753m | -1.5m/s | 8.9°C | 84.8% | 832.8hPa | 2.7V | 00:00:00 | 00:00:00 | 00:00:00 | |
| OE3JTB-15 | 2026-09-01 02:03:40 | 48.18885 | 14.27774 | 91° | 55km/h | 1753m | -1.5m/s | 8.9°C | 84.8% | 832.8hPa | 2.7V | 00:00:00 | 00:00:00 | 00:00:00 | |
| OE5FHM-15 | 2026-09-01 02:03:40 | 48.18885 | 14.27774 | 91° | 51km/h | 1753m | -1.5m/s | 8.9°C | 84.8% | 832.8hPa | 2.7V | 00:00:00 | 03:34:11 | 00:00:00 | |
| OE5DRO-10 | 2026-09-01 02:03:38 | 48.18886 | 14.27733 | 93° | 49km/h | 1756m | -1.4m/s | 8.9°C | 84.7% | 832.4hPa | 2.7V | 00:00:00 | 00:00:00 | 00:00:00 | |
| OE3JTB-15 | 2026-09-01 02:03:38 | 48.18886 | 14.27733 | 93° | 49km/h | 1756m | -1.4m/s | 8.9°C | 84.7% | 832.4hPa | 2.7V | 00:00:00 | 03:34:09 | 00:00:00 | |
| OE5HKT-10 | 2026-09-01 02:03:37 | 48.18886 | 14.27715 | 91° | 49km/h | 1757m | -1.6m/s | 8.9°C | 84.7% | 832.3hPa | 2.7V | 00:00:00 | 00:00:00 | 00:00:00 | |
| OE3JTB-15 | 2026-09-01 02:03:36 | 48.18886 | 14.27697 | 88° | 47km/h | 1759m | -1.7m/s | 8.9°C | 84.2% | 832.1hPa | 2.7V | 00:00:00 | 00:00:00 | 00:00:00 | |
| OE5WHR-10 | 2026-09-01 02:03:35 | 48.18885 | 14.27679 | 84° | 53km/h | 1761m | -1.5m/s | 8.9°C | 83.2% | 832.0hPa | 2.7V | 06:58:00 | 00:00:00 | 00:00:00 | |
| PG1ADW-2 | 2026-09-01 02:03:34 | 48.18883 | 14.27660 | 82° | 55km/h | 1762m | -1.6m/s | 8.9°C | 82.5% | 831.8hPa | 2.7V | 06:58:00 | 03:34:05 | 00:00:00 | |
| OE3JTB-15 | 2026-09-01 02:03:34 | 48.18883 | 14.27660 | 82° | 51km/h | 1762m | -1.6m/s | 8.9°C | 82.5% | 831.8hPa | 2.7V | 00:00:00 | 00:00:00 | 00:00:00 | |
| OE5DRO-10 | 2026-09-01 02:03:31 | 48.18877 | 14.27600 | 84° | 55km/h | 1767m | -1.6m/s | 8.9°C | 81.8% | 831.2hPa | 2.7V | 00:00:00 | 00:00:00 | 00:00:00 | |
| OE5HKT-10 | 2026-09-01 02:03:31 | 48.18877 | 14.27600 | 84° | 57km/h | 1767m | -1.6m/s | 8.9°C | 81.8% | 831.2hPa | 2.7V | 00:00:00 | 03:34:02 | 00:00:00 | |
| OE3JTB-15 | 2026-09-01 02:03:30 | 48.18875 | 14.27578 | 87° | 58km/h | 1769m | -1.7m/s | 8.9°C | 81.5% | 831.1hPa | 2.7V | 06:59:00 | 00:00:00 | 00:00:00 | |
| OE5DXL-15 | 2026-09-01 02:03:29 | 48.18875 | 14.27556 | 90° | 53km/h | 1771m | -1.6m/s | 8.9°C | 81.5% | 831.1hPa | 2.7V | 00:00:00 | 00:00:00 | 00:00:00 | |
| OE5WHR-10 | 2026-09-01 02:03:29 | 48.18875 | 14.27556 | 90° | 53km/h | 1771m | -1.6m/s | 8.9°C | 81.5% | 831.1hPa | 2.7V | 00:00:00 | 00:00:00 | 00:00:00 | |
| OE3JTB-15 | 2026-09-01 02:03:28 | 48.18875 | 14.27534 | 92° | 55km/h | 1772m | -1.5m/s | 8.9°C | 81.2% | 830.8hPa | 2.7V | 00:00:00 | 00:00:00 | 00:00:00 | |
| PG1ADW-2 | 2026-09-01 02:03:28 | 48.18875 | 14.27534 | 92° | 51km/h | 1772m | -1.5m/s | 8.9°C | 81.2% | 830.8hPa | 2.7V | 00:00:00 | 00:00:00 | 00:00:00 | |
| OE3JTB-15 | 2026-09-01 02:03:26 | 48.18877 | 14.27493 | 94° | 51km/h | 1775m | -1.6m/s | 8.9°C | 80.7% | 830.5hPa | 2.7V | 00:00:00 | 03:33:57 | 00:00:00 | |
| OE5HKT-10 | 2026-09-01 02:03:25 | 48.18877 | 14.27474 | 92° | 49km/h | 1777m | -1.6m/s | 8.9°C | 80.1% | 830.3hPa | 2.7V | 00:00:00 | 00:00:00 | 00:00:00 | |
| OE5DRO-10 | 2026-09-01 02:03:24 | 48.18877 | 14.27455 | 89° | 51km/h | 1779m | -1.6m/s | 8.9°C | 80.1% | 830.2hPa | 2.7V | 00:00:00 | 00:00:00 | 00:00:00 | |
| OE3JTB-15 | 2026-09-01 02:03:24 | 48.18877 | 14.27455 | 89° | 47km/h | 1779m | -1.6m/s | 8.9°C | 80.1% | 830.2hPa | 2.7V | 00:00:00 | 00:00:00 | 00:00:00 | |
| OE5WHR-10 | 2026-09-01 02:03:24 | 48.18877 | 14.27455 | 89° | 53km/h | 1779m | -1.6m/s | 0°C | 0% | 0hPa | 2.7V | 00:00:00 | 00:00:00 | 00:00:00 | |
| OE5WHR-10 | 2026-09-01 02:03:23 | 48.18877 | 14.27438 | 86° | 51km/h | 1780m | -1.5m/s | 8.9°C | 79.6% | 830.0hPa | 2.7V | 00:00:00 | 03:33:54 | 00:00:00 | |
| PG1ADW-2 | 2026-09-01 02:03:22 | 48.18875 | 14.27420 | 82° | 53km/h | 1782m | -1.6m/s | 8.9°C | 79.4% | 829.8hPa | 2.7V | 00:00:00 | 00:00:00 | 00:00:00 | |
| OE3JTB-15 | 2026-09-01 02:03:22 | 48.18875 | 14.27420 | 82° | 49km/h | 1782m | -1.6m/s | 8.9°C | 79.4% | 829.8hPa | 2.7V | 00:00:00 | 00:00:00 | 00:00:00 | |
| OE3JTB-15 | 2026-09-01 02:03:20 | 48.18871 | 14.27383 | 79° | 53km/h | 1785m | -1.5m/s | 8.9°C | 79.1% | 829.4hPa | 2.7V | 00:00:00 | 03:33:51 | 00:00:00 | |
| OE5HKT-10 | 2026-09-01 02:03:19 | 48.18868 | 14.27363 | 79° | 58km/h | 1786m | -1.6m/s | 8.9°C | 77.3% | 829.4hPa | 2.7V | 06:59:00 | 00:00:00 | 00:00:00 | |
| OE3JTB-15 | 2026-09-01 02:03:18 | 48.18865 | 14.27342 | 81° | 58km/h | 1788m | -1.6m/s | 8.9°C | 77.5% | 829.0hPa | 2.7V | 00:00:00 | 00:00:00 | 00:00:00 | |
| OE5DRO-10 | 2026-09-01 02:03:17 | 48.18863 | 14.27320 | 83° | 55km/h | 1790m | -1.5m/s | 8.8°C | 77.2% | 828.9hPa | 2.7V | 00:00:00 | 00:00:00 | 00:00:00 | |
| OE5WHR-10 | 2026-09-01 02:03:17 | 48.18863 | 14.27320 | 83° | 57km/h | 1790m | -1.5m/s | 8.8°C | 77.2% | 828.9hPa | 2.7V | 00:00:00 | 00:00:00 | 00:00:00 | |
| PG1ADW-2 | 2026-09-01 02:03:16 | 48.18861 | 14.27297 | 86° | 55km/h | 1792m | -1.8m/s | 8.8°C | 77.0% | 828.8hPa | 2.7V | 00:00:00 | 00:00:00 | 00:00:00 | |
| OE3JTB-15 | 2026-09-01 02:03:16 | 48.18861 | 14.27297 | 86° | 58km/h | 1792m | -1.8m/s | 8.8°C | 77.0% | 828.8hPa | 2.7V | 06:59:00 | 00:00:00 | 00:00:00 | |
| OE3JTB-15 | 2026-09-01 02:03:14 | 48.18860 | 14.27253 | 91° | 55km/h | 1795m | -1.6m/s | 8.8°C | 77.2% | 828.5hPa | 2.7V | 00:00:00 | 03:33:45 | 00:00:00 | |
| OE5HKT-10 | 2026-09-01 02:03:13 | 48.18861 | 14.27232 | 93° | 49km/h | 1796m | -1.5m/s | 8.8°C | 76.9% | 828.4hPa | 2.7V | 00:00:00 | 03:33:44 | 00:00:00 | |
| OE3JTB-15 | 2026-09-01 02:03:12 | 48.18861 | 14.27212 | 93° | 49km/h | 1798m | -1.6m/s | 8.8°C | 77.1% | 828.2hPa | 2.7V | 00:00:00 | 00:00:00 | 00:00:00 | |
| OE5MMP-10 | 2026-09-01 02:03:12 | 48.18861 | 14.27212 | 93° | 47km/h | 1798m | -1.6m/s | 8.8°C | 77.1% | 828.2hPa | 2.7V | 00:00:00 | 03:33:43 | 00:00:00 | |
| OE5WHR-10 | 2026-09-01 02:03:11 | 48.18862 | 14.27193 | 92° | 49km/h | 1800m | -1.6m/s | 8.8°C | 76.0% | 828.0hPa | 2.7V | 00:00:00 | 00:00:00 | 00:00:00 | |
| OE5DRO-10 | 2026-09-01 02:03:10 | 48.18862 | 14.27175 | 89° | 51km/h | 1801m | -1.4m/s | 8.8°C | 75.9% | 827.8hPa | 2.7V | 00:00:00 | 00:00:00 | 00:00:00 | |
| PG1ADW-2 | 2026-09-01 02:03:10 | 48.18862 | 14.27175 | 89° | 49km/h | 1801m | -1.4m/s | 8.8°C | 75.9% | 827.8hPa | 2.7V | 00:00:00 | 03:33:41 | 00:00:00 | |
| OE3JTB-15 | 2026-09-01 02:03:10 | 48.18862 | 14.27175 | 89° | 47km/h | 1801m | -1.4m/s | 8.8°C | 75.9% | 827.8hPa | 2.7V | 00:00:00 | 00:00:00 | 00:00:00 | |
| OE5DXL-15 | 2026-09-01 02:03:09 | 48.18861 | 14.27157 | 85° | 51km/h | 1803m | -1.5m/s | 8.8°C | 76.0% | 827.6hPa | 2.7V | 00:00:00 | 00:00:00 | 00:00:00 | |
| OE3JTB-15 | 2026-09-01 02:03:08 | 48.18860 | 14.27140 | 82° | 49km/h | 1804m | -1.5m/s | 8.8°C | 76.0% | 827.6hPa | 2.7V | 00:00:00 | 03:33:39 | 00:00:00 | |
| OE5MMP-10 | 2026-09-01 02:03:07 | 48.18858 | 14.27121 | 80° | 55km/h | 1806m | -1.6m/s | 8.8°C | 76.3% | 827.3hPa | 2.7V | 00:00:00 | 03:33:38 | 00:00:00 | |
| OE3JTB-15 | 2026-09-01 02:03:06 | 48.18855 | 14.27103 | 80° | 55km/h | 1807m | -1.5m/s | 8.7°C | 76.8% | 827.1hPa | 2.7V | 00:00:00 | 00:00:00 | 00:00:00 | |
| OE5HKT-10 | 2026-09-01 02:03:06 | 48.18855 | 14.27103 | 80° | 55km/h | 1807m | -1.5m/s | 8.7°C | 76.8% | 827.1hPa | 2.7V | 00:00:00 | 00:00:00 | 00:00:00 | |
| OE5WHR-10 | 2026-09-01 02:03:05 | 48.18853 | 14.27082 | 81° | 55km/h | 1809m | -1.6m/s | 8.7°C | 76.6% | 827.1hPa | 2.7V | 00:00:00 | 03:33:36 | 00:00:00 | |
| PG1ADW-2 | 2026-09-01 02:03:04 | 48.18851 | 14.27061 | 84° | 53km/h | 1811m | -1.5m/s | 8.7°C | 76.7% | 826.9hPa | 2.7V | 00:00:00 | 00:00:00 | 00:00:00 | |
| OE3JTB-15 | 2026-09-01 02:03:04 | 48.18851 | 14.27061 | 84° | 57km/h | 1811m | -1.5m/s | 8.7°C | 76.7% | 826.9hPa | 2.7V | 00:00:00 | 00:00:00 | 00:00:00 | |
| OE5DRO-10 | 2026-09-01 02:03:03 | 48.18849 | 14.27040 | 87° | 51km/h | 1812m | -1.5m/s | 8.7°C | 77.0% | 826.7hPa | 2.7V | 00:00:00 | 00:00:00 | 00:00:00 | |
| OE3JTB-15 | 2026-09-01 02:03:02 | 48.18849 | 14.27019 | 90° | 55km/h | 1814m | -1.5m/s | 8.7°C | 77.8% | 826.8hPa | 2.7V | 06:59:00 | 03:33:33 | 00:00:00 | |
| OE5MMP-10 | 2026-09-01 02:03:02 | 48.18849 | 14.27019 | 90° | 51km/h | 1814m | -1.5m/s | 8.7°C | 77.8% | 826.8hPa | 2.7V | 06:59:00 | 03:33:33 | 00:00:00 | |
| OE3JTB-15 | 2026-09-01 02:03:00 | 48.18849 | 14.26979 | 91° | 49km/h | 1817m | -1.5m/s | 8.7°C | 78.0% | 826.1hPa | 2.7V | 00:00:00 | 00:00:00 | 00:00:00 | |
| OE5HKT-10 | 2026-09-01 02:03:00 | 48.18849 | 14.26979 | 91° | 49km/h | 1817m | -1.5m/s | 8.7°C | 78.0% | 826.1hPa | 2.7V | 00:00:00 | 00:00:00 | 00:00:00 | |
| OE5WHR-10 | 2026-09-01 02:02:59 | 48.18849 | 14.26960 | 89° | 49km/h | 1818m | -1.4m/s | 8.7°C | 77.3% | 826.1hPa | 2.7V | 00:00:00 | 00:00:00 | 00:00:00 | |
| PG1ADW-2 | 2026-09-01 02:02:58 | 48.18848 | 14.26943 | 86° | 51km/h | 1820m | -1.6m/s | 8.7°C | 76.9% | 826.1hPa | 2.7V | 00:00:00 | 00:00:00 | 00:00:00 | |
| OE3JTB-15 | 2026-09-01 02:02:58 | 48.18848 | 14.26943 | 86° | 47km/h | 1820m | -1.6m/s | 8.7°C | 76.9% | 826.1hPa | 2.7V | 00:00:00 | 00:00:00 | 00:00:00 | |
| OE5MMP-10 | 2026-09-01 02:02:57 | 48.18847 | 14.26925 | 82° | 51km/h | 1821m | -1.7m/s | 8.6°C | 76.3% | 825.8hPa | 2.7V | 00:00:00 | 03:33:28 | 00:00:00 | |
| OE5DRO-10 | 2026-09-01 02:02:56 | 48.18845 | 14.26907 | 80° | 53km/h | 1823m | -1.5m/s | 8.6°C | 76.4% | 825.6hPa | 2.7V | 06:59:00 | 00:00:00 | 00:00:00 | |
| OE3JTB-15 | 2026-09-01 02:02:56 | 48.18845 | 14.26907 | 80° | 51km/h | 1823m | -1.5m/s | 8.6°C | 76.4% | 825.6hPa | 2.7V | 00:00:00 | 03:33:27 | 00:00:00 | |
| OE3JTB-15 | 2026-09-01 02:02:54 | 48.18840 | 14.26869 | 81° | 55km/h | 1826m | -1.4m/s | 8.6°C | 76.5% | 825.4hPa | 2.7V | 00:00:00 | 00:00:00 | 00:00:00 | |
| OE5HKT-10 | 2026-09-01 02:02:54 | 48.18840 | 14.26869 | 81° | 53km/h | 1826m | -1.4m/s | 8.6°C | 76.5% | 825.4hPa | 2.7V | 00:00:00 | 03:33:25 | 00:00:00 | |
| OE5WHR-10 | 2026-09-01 02:02:53 | 48.18838 | 14.26848 | 84° | 51km/h | 1827m | -1.5m/s | 8.6°C | 76.7% | 825.2hPa | 2.7V | 06:59:00 | 00:00:00 | 00:00:00 | |
| PG1ADW-2 | 2026-09-01 02:02:52 | 48.18837 | 14.26827 | 87° | 49km/h | 1829m | -1.4m/s | 8.6°C | 76.6% | 824.9hPa | 2.7V | 06:59:00 | 00:00:00 | 00:00:00 | |
| OE3JTB-15 | 2026-09-01 02:02:52 | 48.18837 | 14.26827 | 87° | 55km/h | 1829m | -1.4m/s | 8.6°C | 76.6% | 824.9hPa | 2.7V | 00:00:00 | 00:00:00 | 00:00:00 | |
| OE5MMP-10 | 2026-09-01 02:02:52 | 48.18837 | 14.26827 | 87° | 51km/h | 1829m | -1.4m/s | 8.6°C | 76.6% | 824.9hPa | 2.7V | 00:00:00 | 03:33:23 | 00:00:00 | |
| OE3JTB-15 | 2026-09-01 02:02:50 | 48.18836 | 14.26787 | 90° | 49km/h | 1832m | -1.5m/s | 8.6°C | 75.7% | 824.6hPa | 2.7V | 00:00:00 | 03:33:21 | 00:00:00 | |
| OE5DXL-15 | 2026-09-01 02:02:49 | 48.18836 | 14.26768 | 89° | 51km/h | 1833m | -1.5m/s | 8.6°C | 75.8% | 824.6hPa | 2.7V | 00:00:00 | 00:00:00 | 00:00:00 | |
| OE5DRO-10 | 2026-09-01 02:02:49 | 48.18836 | 14.26768 | 89° | 49km/h | 1833m | -1.5m/s | 8.6°C | 75.8% | 824.6hPa | 2.7V | 00:00:00 | 00:00:00 | 00:00:00 | |
| OE3JTB-15 | 2026-09-01 02:02:48 | 48.18835 | 14.26750 | 87° | 46km/h | 1835m | -1.5m/s | 8.6°C | 75.9% | 824.5hPa | 2.7V | 06:59:00 | 00:00:00 | 00:00:00 | |
| OE5HKT-10 | 2026-09-01 02:02:48 | 48.18835 | 14.26750 | 87° | 49km/h | 1835m | -1.5m/s | 8.6°C | 75.9% | 824.5hPa | 2.7V | 00:00:00 | 00:00:00 | 00:00:00 | |
| OE5WHR-10 | 2026-09-01 02:02:47 | 48.18834 | 14.26732 | 84° | 51km/h | 1836m | -1.6m/s | 8.5°C | 76.3% | 824.4hPa | 2.7V | 00:00:00 | 03:33:18 | 00:00:00 | |
| OE5MMP-10 | 2026-09-01 02:02:47 | 48.18834 | 14.26732 | 84° | 49km/h | 1836m | -1.6m/s | 8.5°C | 76.3% | 824.4hPa | 2.7V | 00:00:00 | 03:33:18 | 00:00:00 | |
| PG1ADW-2 | 2026-09-01 02:02:46 | 48.18833 | 14.26715 | 81° | 51km/h | 1838m | -1.6m/s | 8.5°C | 76.3% | 824.1hPa | 2.7V | 00:00:00 | 03:33:17 | 00:00:00 | |
| OE3JTB-15 | 2026-09-01 02:02:46 | 48.18833 | 14.26715 | 81° | 47km/h | 1838m | -1.6m/s | 8.5°C | 76.3% | 824.1hPa | 2.7V | 00:00:00 | 00:00:00 | 00:00:00 | |
| OE3JTB-15 | 2026-09-01 02:02:44 | 48.18829 | 14.26678 | 81° | 53km/h | 1841m | -1.5m/s | 8.5°C | 75.4% | 824.0hPa | 2.7V | 00:00:00 | 03:33:15 | 00:00:00 | |
| OE5DRO-10 | 2026-09-01 02:02:42 | 48.18825 | 14.26638 | 86° | 51km/h | 1844m | -1.4m/s | 8.5°C | 75.2% | 823.7hPa | 2.7V | 00:00:00 | 00:00:00 | 00:00:00 | |
| OE3JTB-15 | 2026-09-01 02:02:42 | 48.18825 | 14.26638 | 86° | 53km/h | 1844m | -1.4m/s | 8.5°C | 75.2% | 823.7hPa | 2.7V | 00:00:00 | 00:00:00 | 00:00:00 | |
| OE5HKT-10 | 2026-09-01 02:02:42 | 48.18825 | 14.26638 | 86° | 51km/h | 1844m | -1.4m/s | 8.5°C | 75.2% | 823.7hPa | 2.7V | 00:00:00 | 00:00:00 | 00:00:00 | |
| OE5MMP-10 | 2026-09-01 02:02:42 | 48.18825 | 14.26638 | 86° | 51km/h | 1844m | -1.4m/s | 8.5°C | 75.2% | 823.7hPa | 2.7V | 00:00:00 | 03:33:13 | 00:00:00 | |
| OE5WHR-10 | 2026-09-01 02:02:41 | 48.18824 | 14.26617 | 88° | 49km/h | 1845m | -1.5m/s | 8.5°C | 75.2% | 823.5hPa | 2.7V | 00:00:00 | 00:00:00 | 00:00:00 | |
| OE3JTB-15 | 2026-09-01 02:02:40 | 48.18824 | 14.26597 | 89° | 49km/h | 1846m | -1.5m/s | 8.5°C | 75.1% | 823.1hPa | 2.7V | 00:00:00 | 00:00:00 | 00:00:00 | |
| PG1ADW-2 | 2026-09-01 02:02:40 | 48.18824 | 14.26597 | 89° | 49km/h | 1846m | -1.5m/s | 8.5°C | 75.1% | 823.1hPa | 2.7V | 00:00:00 | 00:00:00 | 00:00:00 | |
| OE3JTB-15 | 2026-09-01 02:02:38 | 48.18823 | 14.26560 | 85° | 47km/h | 1850m | -1.7m/s | 8.5°C | 74.5% | 822.9hPa | 2.7V | 00:00:00 | 03:33:09 | 00:00:00 | |
| OE5MMP-10 | 2026-09-01 02:02:37 | 48.18821 | 14.26542 | 83° | 53km/h | 1851m | -1.5m/s | 8.4°C | 74.5% | 822.7hPa | 2.7V | 00:00:00 | 03:33:08 | 00:00:00 | |
| OE3JTB-15 | 2026-09-01 02:02:36 | 48.18819 | 14.26524 | 81° | 51km/h | 1853m | -1.4m/s | 8.4°C | 74.2% | 822.5hPa | 2.7V | 00:00:00 | 00:00:00 | 00:00:00 | |
| OE5HKT-10 | 2026-09-01 02:02:36 | 48.18819 | 14.26524 | 81° | 53km/h | 1853m | -1.4m/s | 8.4°C | 74.2% | 822.5hPa | 2.7V | 06:59:00 | 03:33:07 | 00:00:00 | |
| OE5DRO-10 | 2026-09-01 02:02:35 | 48.18817 | 14.26505 | 81° | 51km/h | 1854m | -1.6m/s | 8.4°C | 73.9% | 822.3hPa | 2.7V | 00:00:00 | 00:00:00 | 00:00:00 | |
| OE5WHR-10 | 2026-09-01 02:02:35 | 48.18817 | 14.26505 | 81° | 53km/h | 1854m | -1.6m/s | 8.4°C | 73.9% | 822.3hPa | 2.7V | 00:00:00 | 00:00:00 | 00:00:00 | |
| PG1ADW-2 | 2026-09-01 02:02:34 | 48.18815 | 14.26485 | 83° | 51km/h | 1856m | -1.6m/s | 8.4°C | 73.7% | 822.4hPa | 2.7V | 00:00:00 | 00:00:00 | 00:00:00 | |
| OE3JTB-15 | 2026-09-01 02:02:34 | 48.18815 | 14.26485 | 83° | 51km/h | 1856m | -1.6m/s | 8.4°C | 73.7% | 822.4hPa | 2.7V | 06:59:00 | 00:00:00 | 00:00:00 | |
| OE5MMP-10 | 2026-09-01 02:02:32 | 48.18813 | 14.26444 | 88° | 49km/h | 1859m | -1.6m/s | 8.4°C | 73.7% | 821.9hPa | 2.7V | 00:00:00 | 03:33:03 | 00:00:00 | |
| OE5HKT-10 | 2026-09-01 02:02:30 | 48.18812 | 14.26405 | 88° | 49km/h | 1862m | -1.6m/s | 8.4°C | 73.9% | 821.5hPa | 2.7V | 00:00:00 | 00:00:00 | 00:00:00 | |
| OE5DXL-15 | 2026-09-01 02:02:29 | 48.18811 | 14.26387 | 85° | 49km/h | 1864m | -1.6m/s | 8.4°C | 73.9% | 821.5hPa | 2.7V | 00:00:00 | 00:00:00 | 00:00:00 | |
| OE5WHR-10 | 2026-09-01 02:02:29 | 48.18811 | 14.26387 | 85° | 49km/h | 1864m | -1.6m/s | 8.4°C | 73.9% | 821.5hPa | 2.7V | 00:00:00 | 03:33:00 | 00:00:00 | |
| OE5DRO-10 | 2026-09-01 02:02:28 | 48.18809 | 14.26370 | 82° | 51km/h | 1865m | -1.5m/s | 8.4°C | 74.0% | 821.3hPa | 2.7V | 00:00:00 | 00:00:00 | 00:00:00 | |
| OE3JTB-15 | 2026-09-01 02:02:27 | 48.18807 | 14.26352 | 79° | 51km/h | 1867m | -1.6m/s | 8.4°C | 74.2% | 821.2hPa | 2.7V | 00:00:00 | 03:32:58 | 00:00:00 | |
| OE5MMP-10 | 2026-09-01 02:02:27 | 48.18807 | 14.26352 | 79° | 53km/h | 1867m | -1.6m/s | 8.4°C | 74.2% | 821.2hPa | 2.7V | 00:00:00 | 03:32:58 | 00:00:00 | |
| PG1ADW-2 | 2026-09-01 02:02:26 | 48.18805 | 14.26334 | 79° | 49km/h | 1868m | -1.6m/s | 8.3°C | 74.1% | 821.0hPa | 2.7V | 00:00:00 | 00:00:00 | 00:00:00 | |
| OE5HKT-10 | 2026-09-01 02:02:24 | 48.18800 | 14.26294 | 82° | 51km/h | 1871m | -1.5m/s | 8.3°C | 73.3% | 820.7hPa | 2.7V | 00:00:00 | 00:00:00 | 00:00:00 | |
| OE5WHR-10 | 2026-09-01 02:02:23 | 48.18798 | 14.26273 | 85° | 49km/h | 1872m | -1.4m/s | 8.3°C | 73.7% | 820.4hPa | 2.7V | 00:00:00 | 00:00:00 | 00:00:00 | |
| OE5MMP-10 | 2026-09-01 02:02:22 | 48.18797 | 14.26253 | 88° | 49km/h | 1874m | -1.4m/s | 8.3°C | 74.0% | 820.3hPa | 2.7V | 00:00:00 | 03:32:53 | 00:00:00 | |
| OE5FHM-15 | 2026-09-01 02:02:22 | 48.18797 | 14.26253 | 88° | 49km/h | 1874m | -1.4m/s | 8.3°C | 74.0% | 820.3hPa | 2.7V | 00:00:00 | 03:32:53 | 00:00:00 | |
| OE5DRO-10 | 2026-09-01 02:02:21 | 48.18797 | 14.26233 | 90° | 47km/h | 1875m | -1.3m/s | 8.3°C | 74.2% | 820.2hPa | 2.7V | 00:00:00 | 00:00:00 | 00:00:00 | |
| OE3JTB-15 | 2026-09-01 02:02:18 | 48.18796 | 14.26178 | 85° | 49km/h | 1880m | -1.6m/s | 8.2°C | 74.0% | 819.7hPa | 2.7V | 07:00:00 | 00:00:00 | 00:00:00 | |
| OE5HKT-10 | 2026-09-01 02:02:18 | 48.18796 | 14.26178 | 85° | 49km/h | 1880m | -1.6m/s | 8.2°C | 74.0% | 819.7hPa | 2.7V | 00:00:00 | 03:32:49 | 00:00:00 | |
| OE5WHR-10 | 2026-09-01 02:02:17 | 48.18794 | 14.26161 | 82° | 51km/h | 1881m | -1.7m/s | 8.2°C | 74.3% | 819.5hPa | 2.7V | 00:00:00 | 00:00:00 | 00:00:00 | |
| OE5MMP-10 | 2026-09-01 02:02:17 | 48.18794 | 14.26161 | 82° | 51km/h | 1881m | -1.7m/s | 8.2°C | 74.3% | 819.5hPa | 2.7V | 00:00:00 | 03:32:48 | 00:00:00 | |
| OE5DRO-10 | 2026-09-01 02:02:14 | 48.18788 | 14.26105 | 83° | 49km/h | 1886m | -1.7m/s | 8.2°C | 73.2% | 819.1hPa | 2.7V | 00:00:00 | 00:00:00 | 00:00:00 | |
| OE5HKT-10 | 2026-09-01 02:02:12 | 48.18786 | 14.26066 | 88° | 49km/h | 1889m | -1.7m/s | 8.1°C | 74.6% | 818.8hPa | 2.7V | 00:00:00 | 00:00:00 | 00:00:00 | |
| OE5FHM-15 | 2026-09-01 02:02:12 | 48.18786 | 14.26066 | 88° | 51km/h | 1889m | -1.7m/s | 8.1°C | 74.6% | 818.8hPa | 2.7V | 00:00:00 | 03:32:43 | 00:00:00 | |
| OE5MMP-10 | 2026-09-01 02:02:12 | 48.18786 | 14.26066 | 88° | 49km/h | 1889m | -1.7m/s | 8.1°C | 74.6% | 818.8hPa | 2.7V | 07:00:00 | 03:32:43 | 00:00:00 | |
| OE5WHR-10 | 2026-09-01 02:02:11 | 48.18785 | 14.26047 | 89° | 47km/h | 1890m | -1.8m/s | 8.1°C | 75.3% | 818.7hPa | 2.7V | 00:00:00 | 03:32:42 | 00:00:00 | |
| OE5DXL-15 | 2026-09-01 02:02:09 | 48.18784 | 14.26010 | 85° | 51km/h | 1893m | -1.3m/s | 8.1°C | 75.6% | 818.2hPa | 2.7V | 00:00:00 | 00:00:00 | 00:00:00 | |
| OE3JTB-15 | 2026-09-01 02:02:09 | 48.18784 | 14.26010 | 85° | 51km/h | 1893m | -1.3m/s | 8.1°C | 75.6% | 818.2hPa | 2.7V | 00:00:00 | 00:00:00 | 00:00:00 | |
| OE5DRO-10 | 2026-09-01 02:02:07 | 48.18780 | 14.25975 | 81° | 51km/h | 1896m | -1.3m/s | 8.0°C | 75.7% | 818.0hPa | 2.7V | 00:00:00 | 00:00:00 | 00:00:00 | |
| OE5MMP-10 | 2026-09-01 02:02:07 | 48.18780 | 14.25975 | 81° | 51km/h | 1896m | -1.3m/s | 8.0°C | 75.7% | 818.0hPa | 2.7V | 00:00:00 | 03:32:38 | 00:00:00 | |
| PG1ADW-2 | 2026-09-01 02:02:06 | 48.18778 | 14.25956 | 79° | 49km/h | 1898m | -2.0m/s | 8.0°C | 75.8% | 817.8hPa | 2.7V | 00:00:00 | 03:32:37 | 00:00:00 | |
| OE5HKT-10 | 2026-09-01 02:02:06 | 48.18778 | 14.25956 | 79° | 53km/h | 1898m | -2.0m/s | 8.0°C | 75.8% | 817.8hPa | 2.7V | 00:00:00 | 00:00:00 | 00:00:00 | |
| OE5WHR-10 | 2026-09-01 02:02:05 | 48.18776 | 14.25937 | 81° | 51km/h | 1900m | -2.1m/s | 8.0°C | 75.9% | 817.8hPa | 2.7V | 07:00:00 | 00:00:00 | 00:00:00 | |
| OE5MMP-10 | 2026-09-01 02:02:02 | 48.18772 | 14.25877 | 89° | 47km/h | 1905m | -1.8m/s | 8.0°C | 76.1% | 817.0hPa | 2.7V | 00:00:00 | 03:32:33 | 00:00:00 | |
| OE5FHM-15 | 2026-09-01 02:02:02 | 48.18772 | 14.25877 | 89° | 51km/h | 1905m | -1.8m/s | 8.0°C | 76.1% | 817.0hPa | 2.7V | 00:00:00 | 03:32:33 | 00:00:00 | |
| OE3JTB-15 | 2026-09-01 02:02:00 | 48.18772 | 14.25838 | 88° | 49km/h | 1908m | -1.4m/s | 7.9°C | 76.2% | 816.7hPa | 2.7V | 00:00:00 | 03:32:31 | 00:00:00 | |
| OE5HKT-10 | 2026-09-01 02:02:00 | 48.18772 | 14.25838 | 88° | 47km/h | 1908m | -1.4m/s | 7.9°C | 76.2% | 816.7hPa | 2.7V | 07:00:00 | 03:32:31 | 00:00:00 | |
| OE5DRO-10 | 2026-09-01 02:02:00 | 48.18772 | 14.25838 | 88° | 47km/h | 1908m | -1.4m/s | 7.9°C | 76.2% | 816.7hPa | 2.7V | 00:00:00 | 00:00:00 | 00:00:00 | |
| OE5WHR-10 | 2026-09-01 02:01:59 | 48.18771 | 14.25821 | 86° | 47km/h | 1910m | -1.5m/s | 7.9°C | 76.1% | 816.7hPa | 2.7V | 00:00:00 | 00:00:00 | 00:00:00 | |
| OE5MMP-10 | 2026-09-01 02:01:57 | 48.18768 | 14.25787 | 78° | 51km/h | 1913m | -1.9m/s | 7.9°C | 75.5% | 816.3hPa | 2.7V | 00:00:00 | 03:32:28 | 00:00:00 | |
| OE5HKT-10 | 2026-09-01 02:01:54 | 48.18759 | 14.25731 | 79° | 53km/h | 1919m | -1.6m/s | 7.8°C | 76.0% | 815.9hPa | 2.7V | 00:00:00 | 00:00:00 | 00:00:00 | |
| OE5DRO-10 | 2026-09-01 02:01:53 | 48.18757 | 14.25711 | 84° | 49km/h | 1921m | -1.2m/s | 7.8°C | 75.8% | 815.7hPa | 2.7V | 07:00:00 | 00:00:00 | 00:00:00 | |
| OE5WHR-10 | 2026-09-01 02:01:53 | 48.18757 | 14.25711 | 84° | 51km/h | 1921m | -1.2m/s | 7.8°C | 75.8% | 815.7hPa | 2.7V | 00:00:00 | 03:32:24 | 00:00:00 | |
| OE5FHM-15 | 2026-09-01 02:01:52 | 48.18756 | 14.25690 | 86° | 51km/h | 1922m | -2.3m/s | 7.8°C | 75.4% | 815.5hPa | 2.7V | 07:00:00 | 03:32:23 | 00:00:00 | |
| OE5MMP-10 | 2026-09-01 02:01:52 | 48.18756 | 14.25690 | 86° | 51km/h | 1922m | -2.3m/s | 7.8°C | 75.4% | 815.5hPa | 2.7V | 00:00:00 | 03:32:23 | 00:00:00 | |
| OE3JTB-15 | 2026-09-01 02:01:51 | 48.18756 | 14.25670 | 90° | 46km/h | 1924m | -1.7m/s | 7.8°C | 76.0% | 815.3hPa | 2.7V | 00:00:00 | 00:00:00 | 00:00:00 | |
| OE5DXL-15 | 2026-09-01 02:01:49 | 48.18756 | 14.25632 | 92° | 49km/h | 1927m | -1.7m/s | 7.8°C | 76.1% | 815.0hPa | 2.7V | 00:00:00 | 00:00:00 | 00:00:00 | |
| OE5HKT-10 | 2026-09-01 02:01:48 | 48.18756 | 14.25614 | 92° | 44km/h | 1929m | -2.7m/s | 7.8°C | 76.1% | 814.8hPa | 2.7V | 00:00:00 | 00:00:00 | 00:00:00 | |
| OE5MMP-10 | 2026-09-01 02:01:47 | 48.18756 | 14.25597 | 89° | 44km/h | 1931m | -1.9m/s | 7.7°C | 76.3% | 814.8hPa | 2.7V | 00:00:00 | 03:32:18 | 00:00:00 | |
| OE5WHR-10 | 2026-09-01 02:01:47 | 48.18756 | 14.25597 | 89° | 46km/h | 1931m | -1.9m/s | 7.7°C | 76.3% | 814.8hPa | 2.7V | 00:00:00 | 00:00:00 | 00:00:00 | |
| PG1ADW-2 | 2026-09-01 02:01:46 | 48.18755 | 14.25581 | 85° | 49km/h | 1933m | -1.4m/s | 7.7°C | 76.1% | 814.6hPa | 2.7V | 00:00:00 | 00:00:00 | 00:00:00 | |
| OE5DRO-10 | 2026-09-01 02:01:46 | 48.18755 | 14.25581 | 85° | 47km/h | 1933m | -1.4m/s | 7.7°C | 76.1% | 814.6hPa | 2.7V | 00:00:00 | 00:00:00 | 00:00:00 | |
| OE5WHR-10 | 2026-09-01 02:01:44 | 48.18752 | 14.25549 | 79° | 51km/h | 1936m | -2.0m/s | 0°C | 0% | 0hPa | 2.7V | 00:00:00 | 03:32:15 | 00:00:00 | |
| OE3JTB-15 | 2026-09-01 02:01:42 | 48.18747 | 14.25513 | 77° | 51km/h | 1940m | -1.5m/s | 7.7°C | 75.7% | 813.8hPa | 2.7V | 00:00:00 | 00:00:00 | 00:00:00 | |
| OE5HKT-10 | 2026-09-01 02:01:42 | 48.18747 | 14.25513 | 77° | 55km/h | 1940m | -1.5m/s | 7.7°C | 75.7% | 813.8hPa | 2.7V | 00:00:00 | 03:32:13 | 00:00:00 | |
| OE5MMP-10 | 2026-09-01 02:01:42 | 48.18747 | 14.25513 | 77° | 55km/h | 1940m | -1.5m/s | 7.7°C | 75.7% | 813.8hPa | 2.7V | 00:00:00 | 03:32:13 | 00:00:00 | |
| OE5WHR-10 | 2026-09-01 02:01:41 | 48.18744 | 14.25494 | 79° | 55km/h | 1941m | -1.9m/s | 7.7°C | 75.7% | 813.7hPa | 2.7V | 00:00:00 | 00:00:00 | 00:00:00 | |
| OE5DRO-10 | 2026-09-01 02:01:39 | 48.18739 | 14.25453 | 84° | 51km/h | 1945m | -1.9m/s | 7.6°C | 76.7% | 813.3hPa | 2.7V | 00:00:00 | 00:00:00 | 00:00:00 | |
| OE5WHR-10 | 2026-09-01 02:01:37 | 48.18738 | 14.25412 | 89° | 47km/h | 1947m | -1.8m/s | 0°C | 0% | 0hPa | 2.7V | 00:00:00 | 00:00:00 | 00:00:00 | |
| OE5MMP-10 | 2026-09-01 02:01:37 | 48.18738 | 14.25412 | 89° | 49km/h | 1947m | -1.8m/s | 7.6°C | 76.8% | 813.0hPa | 2.7V | 00:00:00 | 03:32:08 | 00:00:00 | |
| OE5HKT-10 | 2026-09-01 02:01:36 | 48.18738 | 14.25392 | 90° | 47km/h | 1949m | -1.5m/s | 7.6°C | 77.0% | 812.7hPa | 2.7V | 00:00:00 | 00:00:00 | 00:00:00 | |
| OE5WHR-10 | 2026-09-01 02:01:35 | 48.18737 | 14.25373 | 90° | 47km/h | 1950m | -1.5m/s | 7.6°C | 77.0% | 812.7hPa | 2.7V | 00:00:00 | 03:32:06 | 00:00:00 | |
| OE3JTB-15 | 2026-09-01 02:01:33 | 48.18736 | 14.25338 | 86° | 49km/h | 1953m | -1.4m/s | 7.5°C | 75.3% | 812.4hPa | 2.7V | 00:00:00 | 03:32:04 | 00:00:00 | |
| OE5WHR-10 | 2026-09-01 02:01:31 | 48.18734 | 14.25304 | 82° | 51km/h | 1957m | -1.9m/s | 0°C | 0% | 0hPa | 2.7V | 07:01:00 | 00:00:00 | 00:00:00 | |
| OE5HKT-10 | 2026-09-01 02:01:30 | 48.18732 | 14.25285 | 82° | 51km/h | 1958m | -1.8m/s | 7.5°C | 74.4% | 811.8hPa | 2.7V | 00:00:00 | 00:00:00 | 00:00:00 | |
| OE5DXL-15 | 2026-09-01 02:01:29 | 48.18730 | 14.25266 | 83° | 47km/h | 1960m | -1.8m/s | 7.5°C | 74.2% | 811.6hPa | 2.7V | 07:01:00 | 00:00:00 | 00:00:00 | |
| OE5WHR-10 | 2026-09-01 02:01:29 | 48.18730 | 14.25266 | 83° | 49km/h | 1960m | -1.8m/s | 7.5°C | 74.2% | 811.6hPa | 2.7V | 00:00:00 | 00:00:00 | 00:00:00 | |
| OE5MMP-10 | 2026-09-01 02:01:27 | 48.18728 | 14.25227 | 89° | 47km/h | 1963m | -1.3m/s | 7.5°C | 74.4% | 811.3hPa | 2.7V | 00:00:00 | 03:31:58 | 00:00:00 | |
| PG1ADW-2 | 2026-09-01 02:01:26 | 48.18728 | 14.25207 | 92° | 46km/h | 1964m | -2.0m/s | 7.4°C | 74.8% | 811.1hPa | 2.7V | 00:00:00 | 00:00:00 | 00:00:00 | |
| OE5FHM-15 | 2026-09-01 02:01:25 | 48.18729 | 14.25188 | 93° | 47km/h | 1966m | -2.1m/s | 7.4°C | 74.6% | 810.9hPa | 2.7V | 00:00:00 | 03:31:56 | 00:00:00 | |
| OE5WHR-10 | 2026-09-01 02:01:25 | 48.18729 | 14.25188 | 93° | 44km/h | 1966m | -2.1m/s | 0°C | 0% | 0hPa | 2.7V | 00:00:00 | 03:31:56 | 00:00:00 | |
| OE5DRO-10 | 2026-09-01 02:01:25 | 48.18729 | 14.25188 | 93° | 46km/h | 1966m | -2.1m/s | 7.4°C | 74.6% | 810.9hPa | 2.7V | 00:00:00 | 00:00:00 | 00:00:00 | |
| OE3JTB-15 | 2026-09-01 02:01:24 | 48.18729 | 14.25171 | 93° | 47km/h | 1968m | -2.0m/s | 7.4°C | 74.5% | 810.9hPa | 2.7V | 00:00:00 | 00:00:00 | 00:00:00 | |
| OE5HKT-10 | 2026-09-01 02:01:24 | 48.18729 | 14.25171 | 93° | 44km/h | 1968m | -2.0m/s | 7.4°C | 74.5% | 810.9hPa | 2.7V | 00:00:00 | 03:31:55 | 00:00:00 | |
| OE5WHR-10 | 2026-09-01 02:01:23 | 48.18729 | 14.25154 | 89° | 46km/h | 1970m | -1.9m/s | 7.4°C | 74.7% | 810.6hPa | 2.7V | 00:00:00 | 00:00:00 | 00:00:00 | |
| OE5MMP-10 | 2026-09-01 02:01:22 | 48.18728 | 14.25138 | 85° | 46km/h | 1971m | -1.5m/s | 7.4°C | 74.5% | 810.4hPa | 2.7V | 00:00:00 | 03:31:53 | 00:00:00 | |
| OE5WHR-10 | 2026-09-01 02:01:19 | 48.18723 | 14.25088 | 79° | 51km/h | 1976m | -1.7m/s | 0°C | 0% | 0hPa | 2.7V | 00:00:00 | 00:00:00 | 00:00:00 | |
| OE5DRO-10 | 2026-09-01 02:01:18 | 48.18721 | 14.25069 | 81° | 49km/h | 1978m | -1.9m/s | 7.3°C | 75.5% | 809.8hPa | 2.7V | 00:00:00 | 00:00:00 | 00:00:00 | |
| OE5HKT-10 | 2026-09-01 02:01:18 | 48.18721 | 14.25069 | 81° | 49km/h | 1978m | -1.9m/s | 7.3°C | 75.5% | 809.8hPa | 2.7V | 00:00:00 | 00:00:00 | 00:00:00 | |
| OE5MMP-10 | 2026-09-01 02:01:17 | 48.18719 | 14.25050 | 84° | 49km/h | 1980m | -1.9m/s | 7.3°C | 75.5% | 809.8hPa | 2.7V | 00:00:00 | 03:31:48 | 00:00:00 | |
| OE5WHR-10 | 2026-09-01 02:01:17 | 48.18719 | 14.25050 | 84° | 49km/h | 1980m | -1.9m/s | 7.3°C | 75.5% | 809.8hPa | 2.7V | 07:01:00 | 03:31:48 | 00:00:00 | |
| OE3JTB-15 | 2026-09-01 02:01:15 | 48.18717 | 14.25010 | 91° | 46km/h | 1984m | -1.8m/s | 7.3°C | 75.0% | 809.3hPa | 2.7V | 00:00:00 | 00:00:00 | 00:00:00 | |
| OE5FHM-15 | 2026-09-01 02:01:15 | 48.18717 | 14.25010 | 91° | 46km/h | 1984m | -1.8m/s | 7.3°C | 75.0% | 809.3hPa | 2.7V | 00:00:00 | 03:31:46 | 00:00:00 | |
| OE5WHR-10 | 2026-09-01 02:01:13 | 48.18718 | 14.24974 | 94° | 46km/h | 1987m | -2.3m/s | 0°C | 0% | 0hPa | 2.7V | 00:00:00 | 00:00:00 | 00:00:00 | |
| OE5HKT-10 | 2026-09-01 02:01:12 | 48.18719 | 14.24957 | 92° | 44km/h | 1990m | -2.2m/s | 7.3°C | 74.2% | 808.7hPa | 2.7V | 07:01:00 | 00:00:00 | 00:00:00 | |
| OE5MMP-10 | 2026-09-01 02:01:12 | 48.18719 | 14.24957 | 92° | 42km/h | 1990m | -2.2m/s | 7.3°C | 74.2% | 808.7hPa | 2.7V | 00:00:00 | 03:31:43 | 00:00:00 | |
| OE5DRO-10 | 2026-09-01 02:01:11 | 48.18719 | 14.24941 | 87° | 46km/h | 1992m | -1.6m/s | 7.2°C | 73.1% | 808.7hPa | 2.7V | 00:00:00 | 00:00:00 | 00:00:00 | |
| OE5WHR-10 | 2026-09-01 02:01:11 | 48.18719 | 14.24941 | 87° | 44km/h | 1992m | -1.6m/s | 7.2°C | 73.1% | 808.7hPa | 2.7V | 00:00:00 | 00:00:00 | 00:00:00 | |
| OE5DXL-15 | 2026-09-01 02:01:09 | 48.18717 | 14.24910 | 82° | 47km/h | 1995m | -2.2m/s | 7.2°C | 72.7% | 808.2hPa | 2.7V | 00:00:00 | 00:00:00 | 00:00:00 | |
| OE5MMP-10 | 2026-09-01 02:01:07 | 48.18713 | 14.24876 | 80° | 51km/h | 1999m | -1.5m/s | 7.2°C | 72.2% | 807.9hPa | 2.7V | 00:00:00 | 03:31:38 | 00:00:00 | |
| OE5WHR-10 | 2026-09-01 02:01:07 | 48.18713 | 14.24876 | 80° | 51km/h | 1999m | -1.5m/s | 0°C | 0% | 0hPa | 2.7V | 00:00:00 | 03:31:38 | 00:00:00 | |
| PG1ADW-2 | 2026-09-01 02:01:06 | 48.18711 | 14.24858 | 83° | 47km/h | 2000m | -1.7m/s | 7.2°C | 72.5% | 807.7hPa | 2.7V | 00:00:00 | 00:00:00 | 00:00:00 | |
| OE3JTB-15 | 2026-09-01 02:01:06 | 48.18711 | 14.24858 | 83° | 47km/h | 2000m | -1.7m/s | 7.2°C | 72.5% | 807.7hPa | 2.7V | 07:01:00 | 03:31:37 | 00:00:00 | |
| OE5HKT-10 | 2026-09-01 02:01:06 | 48.18711 | 14.24858 | 83° | 51km/h | 2000m | -1.7m/s | 7.2°C | 72.5% | 807.7hPa | 2.7V | 00:00:00 | 03:31:37 | 00:00:00 | |
| OE5WHR-10 | 2026-09-01 02:01:05 | 48.18709 | 14.24839 | 84° | 49km/h | 2002m | -1.7m/s | 7.2°C | 72.7% | 807.4hPa | 2.7V | 00:00:00 | 00:00:00 | 00:00:00 | |
| OE5DRO-10 | 2026-09-01 02:01:04 | 48.18708 | 14.24819 | 88° | 47km/h | 2003m | -1.8m/s | 7.1°C | 72.7% | 807.2hPa | 2.7V | 00:00:00 | 00:00:00 | 00:00:00 | |
| OE5MMP-10 | 2026-09-01 02:01:01 | 48.18709 | 14.24762 | 94° | 46km/h | 2010m | -2.4m/s | 7.1°C | 72.9% | 806.8hPa | 2.7V | 00:00:00 | 03:31:32 | 00:00:00 | |
| OE5HKT-10 | 2026-09-01 02:01:00 | 48.18710 | 14.24745 | 93° | 44km/h | 2012m | -1.9m/s | 7.1°C | 72.8% | 806.5hPa | 2.7V | 00:00:00 | 00:00:00 | 00:00:00 | |
| OE5WHR-10 | 2026-09-01 02:00:59 | 48.18710 | 14.24728 | 90° | 42km/h | 2014m | -2.3m/s | 7.1°C | 72.8% | 806.2hPa | 2.7V | 00:00:00 | 03:31:30 | 00:00:00 | |
| OE3JTB-15 | 2026-09-01 02:00:57 | 48.18708 | 14.24698 | 82° | 47km/h | 2018m | -2.0m/s | 7.0°C | 73.0% | 805.8hPa | 2.7V | 00:00:00 | 00:00:00 | 00:00:00 | |
| OE5HKT-10 | 2026-09-01 02:00:54 | 48.18702 | 14.24649 | 78° | 51km/h | 2024m | -2.1m/s | 7.0°C | 73.4% | 805.5hPa | 2.7V | 00:00:00 | 00:00:00 | 00:00:00 | |
| OE5WHR-10 | 2026-09-01 02:00:53 | 48.18699 | 14.24631 | 78° | 51km/h | 2026m | -2.2m/s | 6.9°C | 73.3% | 805.1hPa | 2.7V | 00:00:00 | 00:00:00 | 00:00:00 | |
| OE5MMP-10 | 2026-09-01 02:00:51 | 48.18695 | 14.24592 | 86° | 46km/h | 2031m | -2.4m/s | 6.9°C | 73.5% | 804.8hPa | 2.7V | 00:00:00 | 03:31:22 | 00:00:00 | |
| OE5DRO-10 | 2026-09-01 02:00:50 | 48.18694 | 14.24572 | 88° | 46km/h | 2033m | -1.6m/s | 6.9°C | 73.7% | 804.6hPa | 2.7V | 00:00:00 | 00:00:00 | 00:00:00 | |
| OE5DXL-15 | 2026-09-01 02:00:49 | 48.18694 | 14.24553 | 91° | 46km/h | 2035m | -2.2m/s | 6.9°C | 73.2% | 804.3hPa | 2.7V | 00:00:00 | 00:00:00 | 00:00:00 | |
| OE5HKT-10 | 2026-09-01 02:00:48 | 48.18694 | 14.24534 | 94° | 44km/h | 2037m | -2.4m/s | 6.9°C | 73.2% | 804.3hPa | 2.7V | 00:00:00 | 03:31:19 | 00:00:00 | |
| OE5WHR-10 | 2026-09-01 02:00:47 | 48.18695 | 14.24517 | 94° | 42km/h | 2039m | -2.3m/s | 6.9°C | 73.2% | 804.0hPa | 2.7V | 00:00:00 | 00:00:00 | 00:00:00 | |
| PG1ADW-2 | 2026-09-01 02:00:46 | 48.18695 | 14.24500 | 92° | 47km/h | 2042m | -2.1m/s | 6.9°C | 72.7% | 803.8hPa | 2.7V | 00:00:00 | 03:31:17 | 00:00:00 | |
| OE5WHR-10 | 2026-09-01 02:00:43 | 48.18694 | 14.24453 | 82° | 47km/h | 2048m | -1.8m/s | 0°C | 0% | 0hPa | 2.7V | 00:00:00 | 03:31:14 | 00:00:00 | |
| OE5FHM-15 | 2026-09-01 02:00:42 | 48.18692 | 14.24437 | 80° | 49km/h | 2049m | -2.2m/s | 6.8°C | 73.2% | 803.0hPa | 2.7V | 00:00:00 | 03:31:13 | 00:00:00 | |
| OE5WHR-10 | 2026-09-01 02:00:41 | 48.18690 | 14.24420 | 80° | 51km/h | 2052m | -2.0m/s | 6.8°C | 72.9% | 802.8hPa | 2.7V | 00:00:00 | 03:31:12 | 00:00:00 | |
| OE3JTB-15 | 2026-09-01 02:00:39 | 48.18686 | 14.24382 | 84° | 47km/h | 2055m | -2.1m/s | 6.8°C | 73.1% | 802.4hPa | 2.7V | 00:00:00 | 03:31:10 | 00:00:00 | |
| OE5WHR-10 | 2026-09-01 02:00:37 | 48.18684 | 14.24343 | 90° | 49km/h | 2059m | -2.3m/s | 0°C | 0% | 0hPa | 2.7V | 00:00:00 | 00:00:00 | 00:00:00 | |
| OE5DRO-10 | 2026-09-01 02:00:36 | 48.18684 | 14.24324 | 92° | 46km/h | 2061m | -2.2m/s | 6.7°C | 73.3% | 801.8hPa | 2.7V | 00:00:00 | 00:00:00 | 00:00:00 | |
| OE5WHR-10 | 2026-09-01 02:00:35 | 48.18684 | 14.24305 | 93° | 46km/h | 2063m | -2.6m/s | 6.7°C | 73.2% | 801.5hPa | 2.7V | 00:00:00 | 00:00:00 | 00:00:00 | |
| OE5HKT-10 | 2026-09-01 02:00:30 | 48.18684 | 14.24221 | 86° | 51km/h | 2074m | -2.2m/s | 6.6°C | 73.0% | 800.6hPa | 2.7V | 00:00:00 | 03:31:01 | 00:00:00 | |
| OE5WHR-10 | 2026-09-01 02:00:29 | 48.18684 | 14.24203 | 86° | 51km/h | 2077m | -2.4m/s | 6.6°C | 73.1% | 800.3hPa | 2.7V | 07:02:00 | 00:00:00 | 00:00:00 | |
| PG1ADW-2 | 2026-09-01 02:00:26 | 48.18682 | 14.24144 | 93° | 49km/h | 2083m | -2.1m/s | 6.6°C | 72.9% | 799.7hPa | 2.7V | 00:00:00 | 00:00:00 | 00:00:00 | |
| OE5HKT-10 | 2026-09-01 02:00:24 | 48.18684 | 14.24105 | 95° | 46km/h | 2088m | -2.9m/s | 6.6°C | 72.2% | 799.3hPa | 2.7V | 07:02:00 | 00:00:00 | 00:00:00 | |
| OE5WHR-10 | 2026-09-01 02:00:23 | 48.18685 | 14.24087 | 98° | 44km/h | 2091m | -2.6m/s | 6.5°C | 72.3% | 799.0hPa | 2.7V | 00:00:00 | 03:30:54 | 00:00:00 | |
| OE5FHM-15 | 2026-09-01 02:00:22 | 48.18687 | 14.24069 | 97° | 47km/h | 2093m | -2.7m/s | 6.5°C | 72.5% | 799.1hPa | 2.7V | 00:00:00 | 03:30:53 | 00:00:00 | |
| OE5MMP-10 | 2026-09-01 02:00:21 | 48.18688 | 14.24053 | 96° | 47km/h | 2096m | -2.5m/s | 6.5°C | 73.3% | 798.7hPa | 2.7V | 00:00:00 | 03:30:52 | 00:00:00 | |
| OE5HKT-10 | 2026-09-01 02:00:18 | 48.18688 | 14.24005 | 86° | 49km/h | 2102m | -2.5m/s | 6.4°C | 73.2% | 798.2hPa | 2.7V | 00:00:00 | 00:00:00 | 00:00:00 | |
| OE5WHR-10 | 2026-09-01 02:00:17 | 48.18687 | 14.23988 | 82° | 51km/h | 2105m | -1.6m/s | 6.4°C | 73.0% | 797.9hPa | 2.7V | 00:00:00 | 00:00:00 | 00:00:00 | |
| OE5DRO-10 | 2026-09-01 02:00:15 | 48.18684 | 14.23951 | 86° | 53km/h | 2109m | -2.2m/s | 6.4°C | 72.7% | 797.6hPa | 2.7V | 00:00:00 | 00:00:00 | 00:00:00 | |
| OE5HKT-10 | 2026-09-01 02:00:12 | 48.18683 | 14.23891 | 92° | 53km/h | 2116m | -1.7m/s | 6.5°C | 69.5% | 796.9hPa | 2.7V | 00:00:00 | 03:30:43 | 00:00:00 | |
| OE5DXL-15 | 2026-09-01 02:00:09 | 48.18686 | 14.23831 | 97° | 47km/h | 2121m | -2.3m/s | 6.4°C | 70.1% | 796.5hPa | 2.7V | 00:00:00 | 00:00:00 | 00:00:00 | |
| OE5DRO-10 | 2026-09-01 02:00:08 | 48.18688 | 14.23811 | 99° | 46km/h | 2124m | -2.0m/s | 6.4°C | 70.4% | 796.2hPa | 2.7V | 00:00:00 | 00:00:00 | 00:00:00 | |
| OE5HKT-10 | 2026-09-01 02:00:06 | 48.18692 | 14.23774 | 100° | 44km/h | 2128m | -2.2m/s | 6.4°C | 70.2% | 795.9hPa | 2.7V | 00:00:00 | 00:00:00 | 00:00:00 | |
| OE5WHR-10 | 2026-09-01 02:00:05 | 48.18694 | 14.23756 | 100° | 44km/h | 2130m | -2.0m/s | 6.4°C | 70.4% | 795.6hPa | 2.7V | 00:00:00 | 03:30:36 | 00:00:00 | |
| OE5MMP-10 | 2026-09-01 02:00:01 | 48.18699 | 14.23692 | 92° | 49km/h | 2139m | -1.9m/s | 6.4°C | 70.0% | 794.7hPa | 2.7V | 00:00:00 | 03:30:32 | 00:00:00 | |
| OE5HKT-10 | 2026-09-01 02:00:00 | 48.18699 | 14.23675 | 89° | 51km/h | 2141m | -1.6m/s | 6.4°C | 69.9% | 794.6hPa | 2.7V | 00:00:00 | 00:00:00 | 00:00:00 | |
| OE5WHR-10 | 2026-09-01 01:59:59 | 48.18699 | 14.23656 | 88° | 53km/h | 2142m | -1.5m/s | 6.4°C | 69.7% | 794.4hPa | 2.7V | 00:00:00 | 00:00:00 | 00:00:00 | |
| OE5HKT-10 | 2026-09-01 01:59:54 | 48.18701 | 14.23556 | 99° | 47km/h | 2152m | -2.1m/s | 6.3°C | 69.7% | 793.4hPa | 2.7V | 00:00:00 | 03:30:25 | 00:00:00 | |
| OE5WHR-10 | 2026-09-01 01:59:53 | 48.18703 | 14.23537 | 100° | 46km/h | 2154m | -2.2m/s | 6.3°C | 69.9% | 793.3hPa | 2.7V | 00:00:00 | 00:00:00 | 00:00:00 | |
| OE5MMP-10 | 2026-09-01 01:59:51 | 48.18707 | 14.23502 | 100° | 49km/h | 2159m | -2.0m/s | 6.4°C | 68.7% | 792.8hPa | 2.7V | 00:00:00 | 03:30:22 | 00:00:00 | |
| OE5DXL-15 | 2026-09-01 01:59:49 | 48.18709 | 14.23469 | 91° | 51km/h | 2163m | -1.9m/s | 6.3°C | 68.2% | 792.5hPa | 2.7V | 00:00:00 | 00:00:00 | 00:00:00 | |
| OE5HKT-10 | 2026-09-01 01:59:48 | 48.18709 | 14.23452 | 88° | 51km/h | 2165m | -1.7m/s | 6.3°C | 68.3% | 792.3hPa | 2.7V | 00:00:00 | 00:00:00 | 00:00:00 | |
| OE5WHR-10 | 2026-09-01 01:59:47 | 48.18708 | 14.23434 | 87° | 53km/h | 2167m | -2.0m/s | 6.3°C | 68.9% | 792.2hPa | 2.7V | 00:00:00 | 03:30:18 | 00:00:00 | |
| PG1ADW-2 | 2026-09-01 01:59:46 | 48.18708 | 14.23415 | 88° | 51km/h | 2169m | -2.0m/s | 6.2°C | 69.2% | 791.9hPa | 2.7V | 00:00:00 | 00:00:00 | 00:00:00 | |
| OE3JTB-15 | 2026-09-01 01:59:45 | 48.18707 | 14.23395 | 90° | 51km/h | 2171m | -2.3m/s | 6.3°C | 67.8% | 791.7hPa | 2.7V | 00:00:00 | 03:30:16 | 00:00:00 | |
| OE5FHM-15 | 2026-09-01 01:59:43 | 48.18708 | 14.23354 | 96° | 51km/h | 2176m | -2.2m/s | 6.2°C | 67.9% | 791.4hPa | 2.7V | 00:00:00 | 03:30:14 | 00:00:00 | |
| OE5HKT-10 | 2026-09-01 01:59:42 | 48.18710 | 14.23334 | 99° | 49km/h | 2178m | -2.1m/s | 6.2°C | 67.7% | 791.1hPa | 2.7V | 00:00:00 | 00:00:00 | 00:00:00 | |
| OE5WHR-10 | 2026-09-01 01:59:41 | 48.18712 | 14.23314 | 100° | 47km/h | 2180m | -2.1m/s | 6.2°C | 67.6% | 790.8hPa | 2.7V | 07:02:00 | 00:00:00 | 00:00:00 | |
| OE5DRO-10 | 2026-09-01 01:59:40 | 48.18714 | 14.23295 | 101° | 49km/h | 2183m | -2.2m/s | 6.2°C | 68.1% | 790.6hPa | 2.7V | 00:00:00 | 00:00:00 | 00:00:00 | |
| OE3JTB-15 | 2026-09-01 01:59:36 | 48.18719 | 14.23224 | 90° | 53km/h | 2192m | -2.1m/s | 6.1°C | 68.7% | 789.9hPa | 2.7V | 00:00:00 | 00:00:00 | 00:00:00 | |
| OE5WHR-10 | 2026-09-01 01:59:35 | 48.18718 | 14.23205 | 89° | 55km/h | 2194m | -2.0m/s | 6.1°C | 68.5% | 789.5hPa | 2.7V | 00:00:00 | 00:00:00 | 00:00:00 | |
| OE5DRO-10 | 2026-09-01 01:59:33 | 48.18719 | 14.23164 | 93° | 53km/h | 2199m | -2.1m/s | 6.1°C | 68.2% | 789.2hPa | 2.7V | 00:00:00 | 00:00:00 | 00:00:00 | |
| OE5MMP-10 | 2026-09-01 01:59:31 | 48.18721 | 14.23122 | 97° | 51km/h | 2203m | -2.3m/s | 6.1°C | 68.3% | 788.8hPa | 2.7V | 00:00:00 | 03:30:02 | 00:00:00 | |
| OE5HKT-10 | 2026-09-01 01:59:30 | 48.18723 | 14.23101 | 100° | 49km/h | 2206m | -2.2m/s | 6.1°C | 68.5% | 788.7hPa | 2.7V | 00:00:00 | 00:00:00 | 00:00:00 | |
| OE5WHR-10 | 2026-09-01 01:59:29 | 48.18725 | 14.23082 | 101° | 49km/h | 2208m | -1.9m/s | 6.0°C | 68.6% | 788.3hPa | 2.7V | 00:00:00 | 03:30:00 | 00:00:00 | |
| OE3JTB-15 | 2026-09-01 01:59:27 | 48.18730 | 14.23044 | 100° | 51km/h | 2213m | -1.9m/s | 6.0°C | 69.5% | 787.9hPa | 2.7V | 00:00:00 | 00:00:00 | 00:00:00 | |
| OE5DRO-10 | 2026-09-01 01:59:26 | 48.18732 | 14.23027 | 97° | 51km/h | 2215m | -1.9m/s | 6.0°C | 69.6% | 787.7hPa | 2.7V | 00:00:00 | 00:00:00 | 00:00:00 | |
| OE5HKT-10 | 2026-09-01 01:59:24 | 48.18733 | 14.22990 | 91° | 53km/h | 2219m | -1.8m/s | 5.9°C | 69.5% | 787.4hPa | 2.7V | 00:00:00 | 00:00:00 | 00:00:00 | |
| OE5FHM-15 | 2026-09-01 01:59:23 | 48.18733 | 14.22971 | 90° | 51km/h | 2221m | -2.0m/s | 5.9°C | 69.3% | 787.1hPa | 2.7V | 00:00:00 | 03:29:54 | 00:00:00 | |
| OE5MMP-10 | 2026-09-01 01:59:21 | 48.18734 | 14.22930 | 95° | 51km/h | 2225m | -2.1m/s | 5.9°C | 70.1% | 786.8hPa | 2.7V | 07:03:00 | 03:29:52 | 00:00:00 | |
| OE5DRO-10 | 2026-09-01 01:59:19 | 48.18737 | 14.22889 | 100° | 51km/h | 2230m | -2.1m/s | 5.8°C | 70.0% | 786.3hPa | 2.7V | 00:00:00 | 00:00:00 | 00:00:00 | |
| OE5HKT-10 | 2026-09-01 01:59:18 | 48.18739 | 14.22869 | 100° | 49km/h | 2232m | -1.9m/s | 5.8°C | 69.9% | 786.0hPa | 2.7V | 00:00:00 | 03:29:49 | 00:00:00 | |
| OE5WHR-10 | 2026-09-01 01:59:17 | 48.18741 | 14.22851 | 98° | 51km/h | 2234m | -1.8m/s | 5.8°C | 70.1% | 785.8hPa | 2.7V | 00:00:00 | 00:00:00 | 00:00:00 | |
| OE5DRO-10 | 2026-09-01 01:59:12 | 48.18744 | 14.22756 | 93° | 53km/h | 2245m | -1.9m/s | 5.7°C | 71.1% | 784.9hPa | 2.7V | 00:00:00 | 00:00:00 | 00:00:00 | |
| OE5MMP-10 | 2026-09-01 01:59:11 | 48.18745 | 14.22735 | 97° | 51km/h | 2247m | -2.6m/s | 5.7°C | 71.2% | 784.7hPa | 2.7V | 00:00:00 | 03:29:42 | 00:00:00 | |
| OE3JTB-15 | 2026-09-01 01:59:09 | 48.18749 | 14.22694 | 103° | 51km/h | 2252m | -1.8m/s | 5.7°C | 70.8% | 784.3hPa | 2.7V | 00:00:00 | 00:00:00 | 00:00:00 | |
| OE5HKT-10 | 2026-09-01 01:59:06 | 48.18756 | 14.22639 | 98° | 53km/h | 2258m | -2.3m/s | 5.7°C | 69.7% | 783.7hPa | 2.7V | 00:00:00 | 00:00:00 | 00:00:00 | |
| OE5MMP-10 | 2026-09-01 01:59:01 | 48.18762 | 14.22541 | 99° | 51km/h | 2269m | -1.6m/s | 5.6°C | 68.5% | 782.7hPa | 2.7V | 00:00:00 | 03:29:32 | 00:00:00 | |
| OE5HKT-10 | 2026-09-01 01:59:00 | 48.18764 | 14.22519 | 102° | 51km/h | 2270m | -1.7m/s | 5.6°C | 68.5% | 782.5hPa | 2.7V | 00:00:00 | 03:29:31 | 00:00:00 | |
| OE5WHR-10 | 2026-09-01 01:58:59 | 48.18767 | 14.22499 | 104° | 49km/h | 2272m | -1.9m/s | 5.6°C | 68.3% | 782.3hPa | 2.7V | 00:00:00 | 00:00:00 | 00:00:00 | |
| OE5DRO-10 | 2026-09-01 01:58:58 | 48.18771 | 14.22479 | 105° | 49km/h | 2274m | -2.1m/s | 5.6°C | 68.3% | 782.1hPa | 2.7V | 00:00:00 | 00:00:00 | 00:00:00 | |
| OE5HKT-10 | 2026-09-01 01:58:54 | 48.18779 | 14.22408 | 94° | 55km/h | 2283m | -2.0m/s | 5.5°C | 67.8% | 781.1hPa | 2.7V | 00:00:00 | 00:00:00 | 00:00:00 | |
| OE5WHR-10 | 2026-09-01 01:58:53 | 48.18779 | 14.22389 | 93° | 57km/h | 2285m | -1.7m/s | 5.5°C | 67.8% | 781.0hPa | 2.7V | 07:03:00 | 03:29:24 | 00:00:00 | |
| OE5MMP-10 | 2026-09-01 01:58:51 | 48.18780 | 14.22348 | 94° | 55km/h | 2288m | -1.5m/s | 5.5°C | 68.1% | 780.6hPa | 2.7V | 00:00:00 | 03:29:22 | 00:00:00 | |
| OE5DXL-15 | 2026-09-01 01:58:49 | 48.18783 | 14.22304 | 96° | 55km/h | 2291m | -1.8m/s | 5.5°C | 68.2% | 780.2hPa | 2.7V | 07:03:00 | 00:00:00 | 00:00:00 | |
| OE5HKT-10 | 2026-09-01 01:58:48 | 48.18784 | 14.22282 | 100° | 55km/h | 2293m | -2.2m/s | 5.4°C | 69.1% | 780.0hPa | 2.7V | 07:03:00 | 00:00:00 | 00:00:00 | |
| OE5WHR-10 | 2026-09-01 01:58:47 | 48.18787 | 14.22260 | 103° | 53km/h | 2295m | -1.8m/s | 5.4°C | 69.3% | 779.7hPa | 2.7V | 00:00:00 | 00:00:00 | 00:00:00 | |
| PG1ADW-2 | 2026-09-01 01:58:46 | 48.18790 | 14.22238 | 103° | 55km/h | 2297m | -2.2m/s | 5.4°C | 69.3% | 779.6hPa | 2.7V | 00:00:00 | 00:00:00 | 00:00:00 | |
| OE5DRO-10 | 2026-09-01 01:58:44 | 48.18797 | 14.22198 | 106° | 49km/h | 2301m | -2.3m/s | 5.4°C | 69.0% | 779.1hPa | 2.7V | 00:00:00 | 00:00:00 | 00:00:00 | |
| OE5HKT-10 | 2026-09-01 01:58:42 | 48.18804 | 14.22162 | 107° | 49km/h | 2306m | -2.4m/s | 5.4°C | 68.7% | 778.9hPa | 2.7V | 00:00:00 | 03:29:13 | 00:00:00 | |
| OE5MMP-10 | 2026-09-01 01:58:41 | 48.18807 | 14.22145 | 104° | 55km/h | 2308m | -2.3m/s | 5.4°C | 64.9% | 778.5hPa | 2.7V | 00:00:00 | 03:29:12 | 00:00:00 | |
| OE5DRO-10 | 2026-09-01 01:58:37 | 48.18815 | 14.22070 | 98° | 60km/h | 2316m | -2.2m/s | 5.4°C | 60.2% | 777.7hPa | 2.7V | 00:00:00 | 00:00:00 | 00:00:00 | |
| OE5HKT-10 | 2026-09-01 01:58:36 | 48.18817 | 14.22049 | 98° | 60km/h | 2318m | -2.6m/s | 5.5°C | 58.1% | 777.7hPa | 2.7V | 00:00:00 | 00:00:00 | 00:00:00 | |
| OE5WHR-10 | 2026-09-01 01:58:35 | 48.18819 | 14.22026 | 99° | 60km/h | 2321m | -2.7m/s | 5.5°C | 57.2% | 777.4hPa | 2.7V | 00:00:00 | 03:29:06 | 00:00:00 | |
| OE3JTB-15 | 2026-09-01 01:58:33 | 48.18824 | 14.21981 | 101° | 55km/h | 2327m | -3.0m/s | 5.4°C | 54.9% | 776.9hPa | 2.7V | 00:00:00 | 00:00:00 | 00:00:00 | |
| OE5MMP-10 | 2026-09-01 01:58:31 | 48.18831 | 14.21937 | 104° | 53km/h | 2333m | -2.5m/s | 5.4°C | 55.6% | 776.4hPa | 2.7V | 00:00:00 | 03:29:02 | 00:00:00 | |
| OE5HKT-10 | 2026-09-01 01:58:30 | 48.18834 | 14.21915 | 105° | 51km/h | 2336m | -2.3m/s | 5.4°C | 53.9% | 776.1hPa | 2.7V | 00:00:00 | 00:00:00 | 00:00:00 | |
| OE5WHR-10 | 2026-09-01 01:58:29 | 48.18838 | 14.21894 | 107° | 51km/h | 2338m | -2.4m/s | 5.4°C | 53.3% | 775.9hPa | 2.7V | 00:00:00 | 00:00:00 | 00:00:00 | |
| PG1ADW-2 | 2026-09-01 01:58:26 | 48.18849 | 14.21839 | 105° | 53km/h | 2346m | -2.0m/s | 5.5°C | 57.5% | 775.3hPa | 2.7V | 00:00:00 | 00:00:00 | 00:00:00 | |
| OE5HKT-10 | 2026-09-01 01:58:24 | 48.18854 | 14.21803 | 100° | 57km/h | 2350m | -1.8m/s | 5.5°C | 58.0% | 774.8hPa | 2.7V | 00:00:00 | 03:28:55 | 00:00:00 | |
| OE5WHR-10 | 2026-09-01 01:58:23 | 48.18856 | 14.21783 | 99° | 58km/h | 2352m | -2.0m/s | 5.4°C | 58.1% | 774.7hPa | 2.7V | 00:00:00 | 00:00:00 | 00:00:00 | |
| OE5MMP-10 | 2026-09-01 01:58:21 | 48.18861 | 14.21740 | 102° | 55km/h | 2356m | -1.6m/s | 5.4°C | 58.3% | 774.3hPa | 2.7V | 00:00:00 | 03:28:52 | 00:00:00 | |
| OE5HKT-10 | 2026-09-01 01:58:18 | 48.18871 | 14.21674 | 107° | 55km/h | 2363m | -2.1m/s | 5.3°C | 58.7% | 773.6hPa | 2.7V | 00:00:00 | 00:00:00 | 00:00:00 | |
| OE5WHR-10 | 2026-09-01 01:58:17 | 48.18876 | 14.21653 | 109° | 53km/h | 2365m | -2.3m/s | 5.3°C | 59.0% | 773.5hPa | 2.7V | 00:00:00 | 03:28:48 | 00:00:00 | |
| OE5DRO-10 | 2026-09-01 01:58:16 | 48.18880 | 14.21633 | 110° | 51km/h | 2367m | -1.7m/s | 5.3°C | 59.0% | 773.1hPa | 2.7V | 00:00:00 | 00:00:00 | 00:00:00 | |
| OE3JTB-15 | 2026-09-01 01:58:15 | 48.18885 | 14.21614 | 110° | 51km/h | 2369m | -2.2m/s | 5.2°C | 59.1% | 773.0hPa | 2.7V | 00:00:00 | 00:00:00 | 00:00:00 | |
| OE5HKT-10 | 2026-09-01 01:58:12 | 48.18897 | 14.21560 | 106° | 51km/h | 2376m | -2.0m/s | 5.2°C | 59.4% | 772.2hPa | 2.7V | 00:00:00 | 00:00:00 | 00:00:00 | |
| OE5WHR-10 | 2026-09-01 01:58:11 | 48.18900 | 14.21543 | 102° | 53km/h | 2378m | -2.3m/s | 5.2°C | 59.4% | 772.0hPa | 2.7V | 00:00:00 | 00:00:00 | 00:00:00 | |
| OE5DRO-10 | 2026-09-01 01:58:09 | 48.18904 | 14.21506 | 99° | 55km/h | 2382m | -2.2m/s | 5.1°C | 60.2% | 771.6hPa | 2.7V | 07:04:00 | 00:00:00 | 00:00:00 | |
| OE5HKT-10 | 2026-09-01 01:58:06 | 48.18913 | 14.21442 | 105° | 53km/h | 2389m | -2.1m/s | 5.0°C | 60.1% | 770.9hPa | 2.7V | 00:00:00 | 03:28:37 | 00:00:00 | |
| OE5MMP-10 | 2026-09-01 01:58:01 | 48.18936 | 14.21346 | 110° | 51km/h | 2398m | -2.6m/s | 5.0°C | 63.2% | 769.7hPa | 2.7V | 07:04:00 | 03:28:32 | 00:00:00 | |
| OE5HKT-10 | 2026-09-01 01:58:00 | 48.18940 | 14.21330 | 106° | 51km/h | 2401m | -2.6m/s | 5.0°C | 62.3% | 769.5hPa | 2.7V | 07:04:00 | 00:00:00 | 00:00:00 | |
| OE3JTB-15 | 2026-09-01 01:57:57 | 48.18946 | 14.21278 | 97° | 55km/h | 2408m | -2.4m/s | 5.0°C | 62.5% | 768.9hPa | 2.7V | 00:00:00 | 03:28:28 | 00:00:00 | |
| OE5WHR-10 | 2026-09-01 01:57:55 | 48.18949 | 14.21239 | 99° | 55km/h | 2413m | -2.3m/s | 4.9°C | 62.7% | 768.5hPa | 2.7V | 00:00:00 | 03:28:26 | 00:00:00 | |
| OE5MMP-10 | 2026-09-01 01:57:51 | 48.18962 | 14.21154 | 109° | 53km/h | 2422m | -2.3m/s | 4.9°C | 62.6% | 767.5hPa | 2.7V | 00:00:00 | 03:28:22 | 00:00:00 | |
| PG1ADW-2 | 2026-09-01 01:57:46 | 48.18985 | 14.21062 | 106° | 53km/h | 2434m | -2.4m/s | 4.8°C | 62.0% | 766.4hPa | 2.7V | 00:00:00 | 00:00:00 | 00:00:00 | |
| OE5DRO-10 | 2026-09-01 01:57:45 | 48.18988 | 14.21044 | 103° | 55km/h | 2437m | -2.3m/s | 4.7°C | 61.8% | 766.3hPa | 2.7V | 00:00:00 | 00:00:00 | 00:00:00 | |
| OE5HKT-10 | 2026-09-01 01:57:43 | 48.18993 | 14.21006 | 103° | 55km/h | 2441m | -2.0m/s | 4.7°C | 60.5% | 765.8hPa | 2.7V | 00:00:00 | 00:00:00 | 00:00:00 | |
| OE5DXL-15 | 2026-09-01 01:57:42 | 48.18997 | 14.20985 | 105° | 55km/h | 2443m | -2.0m/s | 4.7°C | 60.7% | 765.6hPa | 2.7V | 00:00:00 | 00:00:00 | 00:00:00 | |
| OE5MMP-10 | 2026-09-01 01:57:41 | 48.19000 | 14.20964 | 107° | 55km/h | 2445m | -2.3m/s | 4.7°C | 60.7% | 765.4hPa | 2.7V | 00:00:00 | 03:28:12 | 00:00:00 | |
| OE5FHM-15 | 2026-09-01 01:57:40 | 48.19005 | 14.20943 | 110° | 55km/h | 2448m | -2.0m/s | 4.7°C | 59.3% | 765.2hPa | 2.7V | 00:00:00 | 03:28:11 | 00:00:00 | |
| OE5WHR-10 | 2026-09-01 01:57:38 | 48.19015 | 14.20904 | 113° | 53km/h | 2452m | -2.3m/s | 4.6°C | 60.7% | 764.8hPa | 2.7V | 00:00:00 | 00:00:00 | 00:00:00 | |
| OE5MMP-10 | 2026-09-01 01:57:31 | 48.19042 | 14.20769 | 107° | 55km/h | 2467m | -2.3m/s | 4.5°C | 62.3% | 763.4hPa | 2.7V | 00:00:00 | 03:28:02 | 00:00:00 | |
| OE5DRO-10 | 2026-09-01 01:57:29 | 48.19051 | 14.20729 | 110° | 55km/h | 2471m | -2.3m/s | 4.4°C | 61.9% | 763.0hPa | 2.7V | 00:00:00 | 00:00:00 | 00:00:00 | |
| OE5HKT-10 | 2026-09-01 01:57:26 | 48.19062 | 14.20673 | 104° | 57km/h | 2478m | -2.0m/s | 4.4°C | 61.9% | 762.2hPa | 2.7V | 00:00:00 | 03:27:57 | 00:00:00 | |
| OE5FHM-15 | 2026-09-01 01:57:20 | 48.19086 | 14.20552 | 112° | 53km/h | 2490m | -2.0m/s | 4.2°C | 62.0% | 761.1hPa | 2.7V | 00:00:00 | 03:27:51 | 00:00:00 | |
| OE3JTB-15 | 2026-09-01 01:57:19 | 48.19091 | 14.20533 | 111° | 55km/h | 2492m | -2.3m/s | 4.3°C | 61.6% | 760.9hPa | 2.7V | 00:00:00 | 00:00:00 | 00:00:00 | |
| OE5DRO-10 | 2026-09-01 01:57:13 | 48.19110 | 14.20414 | 104° | 57km/h | 2505m | -2.3m/s | 4.1°C | 62.0% | 759.8hPa | 2.7V | 00:00:00 | 00:00:00 | 00:00:00 | |
| OE5DXL-15 | 2026-09-01 01:57:12 | 48.19114 | 14.20392 | 107° | 57km/h | 2508m | -2.5m/s | 4.1°C | 62.1% | 759.6hPa | 2.7V | 00:00:00 | 00:00:00 | 00:00:00 | |
| OE5MMP-10 | 2026-09-01 01:57:11 | 48.19119 | 14.20370 | 110° | 55km/h | 2510m | -2.5m/s | 4.1°C | 62.1% | 759.3hPa | 2.7V | 00:00:00 | 03:27:42 | 00:00:00 | |
| OE5HKT-10 | 2026-09-01 01:57:09 | 48.19130 | 14.20328 | 113° | 55km/h | 2515m | -2.6m/s | 4.1°C | 62.9% | 758.9hPa | 2.7V | 00:00:00 | 00:00:00 | 00:00:00 | |
| PG1ADW-2 | 2026-09-01 01:57:06 | 48.19145 | 14.20270 | 109° | 55km/h | 2523m | -2.4m/s | 4.1°C | 63.9% | 758.3hPa | 2.7V | 00:00:00 | 00:00:00 | 00:00:00 | |
| OE5WHR-10 | 2026-09-01 01:57:04 | 48.19152 | 14.20233 | 102° | 55km/h | 2527m | -2.3m/s | 4.0°C | 64.1% | 757.8hPa | 2.7V | 00:00:00 | 03:27:35 | 00:00:00 | |
| OE5MMP-10 | 2026-09-01 01:57:01 | 48.19160 | 14.20171 | 103° | 55km/h | 2534m | -2.4m/s | 4.0°C | 64.4% | 757.0hPa | 2.7V | 00:00:00 | 03:27:32 | 00:00:00 | |
| OE5FHM-15 | 2026-09-01 01:57:00 | 48.19164 | 14.20148 | 105° | 57km/h | 2537m | -2.4m/s | 3.9°C | 64.5% | 757.0hPa | 2.7V | 00:00:00 | 03:27:31 | 00:00:00 | |
| OE5DRO-10 | 2026-09-01 01:56:57 | 48.19178 | 14.20084 | 113° | 57km/h | 2544m | -2.2m/s | 3.9°C | 64.8% | 756.3hPa | 2.7V | 00:00:00 | 00:00:00 | 00:00:00 | |
| OE5HKT-10 | 2026-09-01 01:56:52 | 48.19198 | 14.19994 | 101° | 57km/h | 2556m | -2.5m/s | 3.8°C | 65.4% | 755.0hPa | 2.7V | 00:00:00 | 00:00:00 | 00:00:00 | |
| OE5MMP-10 | 2026-09-01 01:56:51 | 48.19200 | 14.19975 | 99° | 60km/h | 2559m | -2.3m/s | 3.7°C | 65.6% | 754.8hPa | 2.7V | 00:00:00 | 03:27:22 | 00:00:00 | |
| OE5WHR-10 | 2026-09-01 01:56:47 | 48.19209 | 14.19889 | 101° | 58km/h | 2568m | -2.3m/s | 3.6°C | 65.8% | 753.9hPa | 2.7V | 00:00:00 | 00:00:00 | 00:00:00 | |
| PG1ADW-2 | 2026-09-01 01:56:46 | 48.19212 | 14.19866 | 103° | 58km/h | 2571m | -2.6m/s | 3.6°C | 66.0% | 753.8hPa | 2.7V | 00:00:00 | 03:27:17 | 00:00:00 | |
| OE5DXL-15 | 2026-09-01 01:56:42 | 48.19232 | 14.19776 | 113° | 57km/h | 2580m | -2.1m/s | 3.5°C | 66.0% | 752.8hPa | 2.7V | 00:00:00 | 00:00:00 | 00:00:00 | |
| OE5MMP-10 | 2026-09-01 01:56:41 | 48.19238 | 14.19755 | 115° | 53km/h | 2583m | -2.4m/s | 3.5°C | 66.1% | 752.6hPa | 2.7V | 07:05:00 | 03:27:12 | 00:00:00 | |
| OE5FHM-15 | 2026-09-01 01:56:40 | 48.19243 | 14.19736 | 115° | 57km/h | 2585m | -2.5m/s | 3.5°C | 66.1% | 752.5hPa | 2.7V | 00:00:00 | 03:27:11 | 00:00:00 | |
| OE5HKT-10 | 2026-09-01 01:56:35 | 48.19264 | 14.19643 | 101° | 58km/h | 2597m | -2.4m/s | 3.4°C | 66.9% | 751.2hPa | 2.7V | 00:00:00 | 03:27:06 | 00:00:00 | |
| OE5MMP-10 | 2026-09-01 01:56:31 | 48.19273 | 14.19559 | 102° | 60km/h | 2607m | -2.6m/s | 3.3°C | 68.3% | 750.3hPa | 2.7V | 00:00:00 | 03:27:02 | 00:00:00 | |
| OE5WHR-10 | 2026-09-01 01:56:30 | 48.19276 | 14.19536 | 103° | 58km/h | 2610m | -2.7m/s | 3.3°C | 68.0% | 750.2hPa | 2.7V | 00:00:00 | 00:00:00 | 00:00:00 | |
| PG1ADW-2 | 2026-09-01 01:56:26 | 48.19291 | 14.19448 | 105° | 58km/h | 2621m | -2.6m/s | 3.1°C | 68.4% | 749.2hPa | 2.7V | 00:00:00 | 00:00:00 | 00:00:00 | |
| OE5DRO-10 | 2026-09-01 01:56:25 | 48.19295 | 14.19427 | 103° | 58km/h | 2623m | -2.4m/s | 3.1°C | 68.4% | 748.8hPa | 2.7V | 00:00:00 | 00:00:00 | 00:00:00 | |
| OE3JTB-15 | 2026-09-01 01:56:22 | 48.19304 | 14.19361 | 103° | 60km/h | 2632m | -2.6m/s | 3.0°C | 68.9% | 748.1hPa | 2.7V | 00:00:00 | 00:00:00 | 00:00:00 | |
| OE5FHM-15 | 2026-09-01 01:56:20 | 48.19312 | 14.19315 | 107° | 60km/h | 2637m | -2.7m/s | 3.0°C | 70.9% | 747.5hPa | 2.7V | 00:00:00 | 03:26:51 | 00:00:00 | |
| OE5HKT-10 | 2026-09-01 01:56:18 | 48.19321 | 14.19272 | 110° | 60km/h | 2642m | -2.4m/s | 3.0°C | 71.6% | 747.2hPa | 2.7V | 00:00:00 | 00:00:00 | 00:00:00 | |
| OE5WHR-10 | 2026-09-01 01:56:13 | 48.19338 | 14.19170 | 101° | 60km/h | 2655m | -2.4m/s | 2.8°C | 73.2% | 746.0hPa | 2.7V | 00:00:00 | 03:26:44 | 00:00:00 | |
| OE5DXL-15 | 2026-09-01 01:56:12 | 48.19341 | 14.19147 | 102° | 60km/h | 2657m | -2.5m/s | 2.8°C | 73.3% | 745.6hPa | 2.7V | 00:00:00 | 00:00:00 | 00:00:00 | |
| OE5MMP-10 | 2026-09-01 01:56:11 | 48.19344 | 14.19124 | 104° | 62km/h | 2660m | -2.6m/s | 2.8°C | 73.0% | 745.4hPa | 2.7V | 00:00:00 | 03:26:42 | 00:00:00 | |
| OE5DRO-10 | 2026-09-01 01:56:09 | 48.19353 | 14.19078 | 108° | 60km/h | 2665m | -2.9m/s | 2.7°C | 72.7% | 745.0hPa | 2.7V | 07:06:00 | 00:00:00 | 00:00:00 | |
| PG1ADW-2 | 2026-09-01 01:56:06 | 48.19365 | 14.19013 | 105° | 60km/h | 2673m | -2.4m/s | 2.7°C | 73.1% | 744.4hPa | 2.7V | 00:00:00 | 00:00:00 | 00:00:00 | |
| OE3JTB-15 | 2026-09-01 01:56:03 | 48.19375 | 14.18946 | 104° | 60km/h | 2681m | -2.5m/s | 2.6°C | 73.8% | 743.5hPa | 2.7V | 00:00:00 | 03:26:34 | 00:00:00 | |
| OE5MMP-10 | 2026-09-01 01:56:01 | 48.19384 | 14.18900 | 107° | 60km/h | 2686m | -2.6m/s | 2.5°C | 74.1% | 743.2hPa | 2.7V | 00:00:00 | 03:26:32 | 00:00:00 | |
| OE5FHM-15 | 2026-09-01 01:56:00 | 48.19388 | 14.18878 | 108° | 60km/h | 2688m | -2.4m/s | 2.5°C | 74.1% | 742.7hPa | 2.7V | 07:06:00 | 03:26:31 | 00:00:00 | |
| OE5WHR-10 | 2026-09-01 01:55:56 | 48.19403 | 14.18792 | 102° | 60km/h | 2699m | -2.6m/s | 2.4°C | 73.7% | 742.1hPa | 2.7V | 07:06:00 | 00:00:00 | 00:00:00 | |
| OE5DRO-10 | 2026-09-01 01:55:53 | 48.19414 | 14.18724 | 107° | 60km/h | 2706m | -2.4m/s | 2.4°C | 73.5% | 741.3hPa | 2.7V | 00:00:00 | 00:00:00 | 00:00:00 | |
| OE5MMP-10 | 2026-09-01 01:55:51 | 48.19423 | 14.18681 | 108° | 60km/h | 2712m | -2.5m/s | 2.3°C | 73.6% | 740.9hPa | 2.7V | 00:00:00 | 03:26:22 | 00:00:00 | |
| PG1ADW-2 | 2026-09-01 01:55:46 | 48.19437 | 14.18575 | 99° | 60km/h | 2725m | -2.7m/s | 2.2°C | 75.0% | 739.5hPa | 2.7V | 00:00:00 | 00:00:00 | 00:00:00 | |
| OE5HKT-10 | 2026-09-01 01:55:44 | 48.19443 | 14.18528 | 104° | 60km/h | 2730m | -2.6m/s | 2.1°C | 76.1% | 739.0hPa | 2.7V | 07:06:00 | 03:26:15 | 00:00:00 | |
| OE5DXL-15 | 2026-09-01 01:55:42 | 48.19452 | 14.18480 | 109° | 60km/h | 2736m | -2.4m/s | 2.1°C | 75.7% | 738.5hPa | 2.7V | 00:00:00 | 00:00:00 | 00:00:00 | |
| OE5MMP-10 | 2026-09-01 01:55:41 | 48.19458 | 14.18457 | 110° | 58km/h | 2738m | -2.7m/s | 2.0°C | 76.8% | 738.4hPa | 2.7V | 00:00:00 | 03:26:12 | 00:00:00 | |
| OE5FHM-15 | 2026-09-01 01:55:40 | 48.19463 | 14.18436 | 110° | 58km/h | 2741m | -2.7m/s | 2.0°C | 76.9% | 738.0hPa | 2.7V | 00:00:00 | 03:26:11 | 00:00:00 | |
| OE5WHR-10 | 2026-09-01 01:55:39 | 48.19468 | 14.18415 | 108° | 58km/h | 2744m | -2.8m/s | 2.0°C | 77.2% | 737.8hPa | 2.7V | 00:00:00 | 00:00:00 | 00:00:00 | |
| OE5DRO-10 | 2026-09-01 01:55:37 | 48.19474 | 14.18375 | 102° | 60km/h | 2749m | -2.6m/s | 1.9°C | 77.4% | 737.3hPa | 2.7V | 00:00:00 | 00:00:00 | 00:00:00 | |
| OE5MMP-10 | 2026-09-01 01:55:31 | 48.19492 | 14.18239 | 107° | 58km/h | 2766m | -2.4m/s | 1.8°C | 78.1% | 735.7hPa | 2.7V | 00:00:00 | 03:26:02 | 00:00:00 | |
| OE5HKT-10 | 2026-09-01 01:55:27 | 48.19511 | 14.18153 | 107° | 60km/h | 2776m | -2.6m/s | 1.7°C | 78.6% | 734.8hPa | 2.7V | 00:00:00 | 00:00:00 | 00:00:00 | |
| PG1ADW-2 | 2026-09-01 01:55:26 | 48.19514 | 14.18134 | 103° | 60km/h | 2779m | -2.5m/s | 1.6°C | 79.1% | 734.6hPa | 2.7V | 00:00:00 | 03:25:57 | 00:00:00 | |
| OE3JTB-15 | 2026-09-01 01:55:24 | 48.19520 | 14.18092 | 100° | 62km/h | 2784m | -2.4m/s | 1.6°C | 79.3% | 734.2hPa | 2.7V | 00:00:00 | 00:00:00 | 00:00:00 | |
| OE5WHR-10 | 2026-09-01 01:55:22 | 48.19525 | 14.18045 | 101° | 62km/h | 2789m | -2.4m/s | 1.5°C | 79.6% | 733.8hPa | 2.7V | 00:00:00 | 03:25:53 | 00:00:00 | |
| OE5MMP-10 | 2026-09-01 01:55:21 | 48.19528 | 14.18021 | 103° | 60km/h | 2791m | -2.4m/s | 1.5°C | 79.8% | 733.4hPa | 2.7V | 07:07:00 | 03:25:52 | 00:00:00 | |
| OE5FHM-15 | 2026-09-01 01:55:20 | 48.19532 | 14.17997 | 106° | 60km/h | 2794m | -2.5m/s | 1.5°C | 79.9% | 733.3hPa | 2.7V | 00:00:00 | 03:25:51 | 00:00:00 | |
| OE5DXL-15 | 2026-09-01 01:55:12 | 48.19559 | 14.17824 | 99° | 62km/h | 2816m | -2.8m/s | 1.3°C | 80.8% | 731.2hPa | 2.7V | 07:07:00 | 00:00:00 | 00:00:00 | |
| OE5MMP-10 | 2026-09-01 01:55:11 | 48.19561 | 14.17799 | 100° | 60km/h | 2819m | -2.8m/s | 1.3°C | 80.8% | 731.1hPa | 2.7V | 00:00:00 | 03:25:42 | 00:00:00 | |
| OE5HKT-10 | 2026-09-01 01:55:10 | 48.19564 | 14.17775 | 103° | 60km/h | 2822m | -2.8m/s | 1.3°C | 80.7% | 730.7hPa | 2.7V | 00:00:00 | 00:00:00 | 00:00:00 | |
| PG1ADW-2 | 2026-09-01 01:55:06 | 48.19582 | 14.17681 | 106° | 60km/h | 2833m | -2.7m/s | 1.1°C | 81.3% | 729.7hPa | 2.7V | 00:00:00 | 00:00:00 | 00:00:00 | |
| OE5WHR-10 | 2026-09-01 01:55:05 | 48.19585 | 14.17660 | 104° | 60km/h | 2836m | -2.7m/s | 1.1°C | 81.5% | 729.5hPa | 2.7V | 00:00:00 | 00:00:00 | 00:00:00 | |
| OE5MMP-10 | 2026-09-01 01:55:01 | 48.19594 | 14.17576 | 97° | 62km/h | 2847m | -3.0m/s | 1.0°C | 82.0% | 728.5hPa | 2.7V | 00:00:00 | 03:25:32 | 00:00:00 | |
| OE5FHM-15 | 2026-09-01 01:55:00 | 48.19596 | 14.17553 | 97° | 60km/h | 2850m | -2.8m/s | 1.0°C | 82.3% | 728.2hPa | 2.7V | 00:00:00 | 03:25:31 | 00:00:00 | |
| OE5HKT-10 | 2026-09-01 01:54:53 | 48.19612 | 14.17391 | 98° | 62km/h | 2870m | -2.9m/s | 0.8°C | 82.8% | 726.4hPa | 2.7V | 00:00:00 | 03:25:24 | 00:00:00 | |
| OE5MMP-10 | 2026-09-01 01:54:51 | 48.19616 | 14.17345 | 96° | 62km/h | 2876m | -2.9m/s | 0.7°C | 83.3% | 725.8hPa | 2.7V | 00:00:00 | 03:25:22 | 00:00:00 | |
| OE5DRO-10 | 2026-09-01 01:54:49 | 48.19620 | 14.17297 | 99° | 60km/h | 2882m | -2.9m/s | 0.7°C | 83.3% | 725.2hPa | 2.7V | 00:00:00 | 00:00:00 | 00:00:00 | |
| OE5WHR-10 | 2026-09-01 01:54:48 | 48.19622 | 14.17273 | 101° | 60km/h | 2885m | -2.7m/s | 0.7°C | 83.1% | 725.0hPa | 2.7V | 00:00:00 | 00:00:00 | 00:00:00 | |
| OE3JTB-15 | 2026-09-01 01:54:46 | 48.19628 | 14.17227 | 102° | 60km/h | 2890m | -2.8m/s | 0.7°C | 84.0% | 724.6hPa | 2.7V | 00:00:00 | 00:00:00 | 00:00:00 | |
| OE5DXL-15 | 2026-09-01 01:54:42 | 48.19636 | 14.17140 | 95° | 60km/h | 2902m | -2.8m/s | 0.7°C | 84.0% | 723.4hPa | 2.7V | 00:00:00 | 00:00:00 | 00:00:00 | |
| OE5MMP-10 | 2026-09-01 01:54:41 | 48.19637 | 14.17116 | 96° | 60km/h | 2905m | -2.7m/s | 0.7°C | 83.4% | 723.1hPa | 2.7V | 00:00:00 | 03:25:12 | 00:00:00 | |
| OE5FHM-15 | 2026-09-01 01:54:40 | 48.19639 | 14.17092 | 98° | 62km/h | 2907m | -3.0m/s | 0.7°C | 83.5% | 722.9hPa | 2.7V | 00:00:00 | 03:25:11 | 00:00:00 | |
| OE5HKT-10 | 2026-09-01 01:54:36 | 48.19650 | 14.17001 | 100° | 62km/h | 2919m | -2.9m/s | 0.7°C | 82.2% | 722.0hPa | 2.7V | 00:00:00 | 00:00:00 | 00:00:00 | |
| OE5DRO-10 | 2026-09-01 01:54:33 | 48.19654 | 14.16935 | 94° | 62km/h | 2928m | -2.9m/s | 0.5°C | 83.0% | 721.1hPa | 2.7V | 00:00:00 | 00:00:00 | 00:00:00 | |
| OE5MMP-10 | 2026-09-01 01:54:31 | 48.19657 | 14.16887 | 97° | 62km/h | 2934m | -2.9m/s | 0.5°C | 83.1% | 720.7hPa | 2.7V | 00:00:00 | 03:25:02 | 00:00:00 | |
| OE3JTB-15 | 2026-09-01 01:54:27 | 48.19667 | 14.16794 | 98° | 60km/h | 2945m | -2.8m/s | 0.5°C | 82.0% | 719.5hPa | 2.7V | 07:08:00 | 00:00:00 | 00:00:00 | |
| PG1ADW-2 | 2026-09-01 01:54:26 | 48.19668 | 14.16772 | 96° | 58km/h | 2948m | -2.9m/s | 0.6°C | 80.2% | 719.3hPa | 2.7V | 00:00:00 | 00:00:00 | 00:00:00 | |
| OE5MMP-10 | 2026-09-01 01:54:21 | 48.19675 | 14.16655 | 99° | 60km/h | 2963m | -2.8m/s | 0.5°C | 79.8% | 717.9hPa | 2.7V | 00:00:00 | 03:24:52 | 00:00:00 | |
| OE5FHM-15 | 2026-09-01 01:54:20 | 48.19677 | 14.16632 | 101° | 60km/h | 2966m | -3.0m/s | 0.5°C | 79.8% | 717.6hPa | 2.7V | 00:00:00 | 03:24:51 | 00:00:00 | |
| OE5HKT-10 | 2026-09-01 01:54:19 | 48.19680 | 14.16609 | 101° | 58km/h | 2969m | -3.0m/s | 0.4°C | 80.0% | 717.3hPa | 2.7V | 00:00:00 | 00:00:00 | 00:00:00 | |
| OE5DRO-10 | 2026-09-01 01:54:17 | 48.19684 | 14.16567 | 96° | 60km/h | 2975m | -3.0m/s | 0.4°C | 80.3% | 716.9hPa | 2.7V | 00:00:00 | 00:00:00 | 00:00:00 | |
| OE5WHR-10 | 2026-09-01 01:54:14 | 48.19687 | 14.16501 | 94° | 62km/h | 2984m | -2.7m/s | 0.3°C | 80.8% | 716.1hPa | 2.7V | 00:00:00 | 00:00:00 | 00:00:00 | |
| OE5DXL-15 | 2026-09-01 01:54:12 | 48.19690 | 14.16454 | 98° | 62km/h | 2990m | -2.8m/s | 0.3°C | 81.1% | 715.6hPa | 2.7V | 00:00:00 | 00:00:00 | 00:00:00 | |
| OE5MMP-10 | 2026-09-01 01:54:11 | 48.19692 | 14.16430 | 101° | 58km/h | 2993m | -2.8m/s | 0.2°C | 81.1% | 715.4hPa | 2.7V | 00:00:00 | 03:24:42 | 00:00:00 | |
| OE3JTB-15 | 2026-09-01 01:54:08 | 48.19701 | 14.16365 | 100° | 60km/h | 3002m | -3.0m/s | 0.1°C | 81.6% | 714.5hPa | 2.7V | 00:00:00 | 03:24:39 | 00:00:00 | |
| PG1ADW-2 | 2026-09-01 01:54:03 | 48.19705 | 14.16256 | 92° | 62km/h | 3017m | -2.8m/s | 0.0°C | 81.9% | 713.2hPa | 2.7V | 00:00:00 | 03:24:34 | 00:00:00 | |
| OE5HKT-10 | 2026-09-01 01:54:02 | 48.19706 | 14.16232 | 94° | 64km/h | 3019m | -2.8m/s | 0.0°C | 82.1% | 712.9hPa | 2.7V | 00:00:00 | 03:24:33 | 00:00:00 | |
| OE5MMP-10 | 2026-09-01 01:54:01 | 48.19707 | 14.16207 | 97° | 62km/h | 3022m | -3.0m/s | 0.0°C | 81.7% | 712.7hPa | 2.7V | 07:08:00 | 03:24:32 | 00:00:00 | |
| OE5FHM-15 | 2026-09-01 01:54:00 | 48.19709 | 14.16181 | 99° | 62km/h | 3025m | -2.8m/s | 0.0°C | 81.7% | 712.4hPa | 2.7V | 00:00:00 | 03:24:31 | 00:00:00 | |
| OE5WHR-10 | 2026-09-01 01:53:57 | 48.19719 | 14.16109 | 103° | 60km/h | 3034m | -2.8m/s | -0.0°C | 81.7% | 711.7hPa | 2.7V | 00:00:00 | 00:00:00 | 00:00:00 | |
| OE5MMP-10 | 2026-09-01 01:53:51 | 48.19728 | 14.15977 | 91° | 62km/h | 3052m | -2.9m/s | -0.2°C | 81.1% | 709.9hPa | 2.7V | 00:00:00 | 03:24:22 | 00:00:00 | |
| OE3JTB-15 | 2026-09-01 01:53:49 | 48.19729 | 14.15928 | 94° | 62km/h | 3058m | -2.9m/s | -0.2°C | 80.3% | 709.5hPa | 2.7V | 00:00:00 | 00:00:00 | 00:00:00 | |
| OE5HKT-10 | 2026-09-01 01:53:45 | 48.19739 | 14.15829 | 103° | 60km/h | 3070m | -2.7m/s | -0.3°C | 80.4% | 708.4hPa | 2.7V | 00:00:00 | 00:00:00 | 00:00:00 | |
| PG1ADW-2 | 2026-09-01 01:53:43 | 48.19745 | 14.15784 | 101° | 60km/h | 3076m | -3.0m/s | -0.4°C | 80.7% | 708.0hPa | 2.7V | 00:00:00 | 00:00:00 | 00:00:00 | |
| OE5DXL-15 | 2026-09-01 01:53:42 | 48.19747 | 14.15764 | 98° | 62km/h | 3079m | -2.7m/s | -0.4°C | 81.0% | 707.6hPa | 2.7V | 00:00:00 | 00:00:00 | 00:00:00 | |
| OE5MMP-10 | 2026-09-01 01:53:41 | 48.19749 | 14.15743 | 94° | 62km/h | 3082m | -2.8m/s | -0.4°C | 81.1% | 707.3hPa | 2.7V | 00:00:00 | 03:24:12 | 00:00:00 | |
| OE5WHR-10 | 2026-09-01 01:53:40 | 48.19749 | 14.15723 | 92° | 60km/h | 3085m | -2.8m/s | -0.4°C | 80.8% | 707.2hPa | 2.7V | 07:08:00 | 03:24:11 | 00:00:00 | |
| OE5MMP-10 | 2026-09-01 01:53:31 | 48.19756 | 14.15510 | 100° | 60km/h | 3110m | -2.7m/s | -0.6°C | 78.7% | 704.9hPa | 2.7V | 00:00:00 | 03:24:02 | 00:00:00 | |
| OE5FHM-15 | 2026-09-01 01:53:30 | 48.19758 | 14.15487 | 100° | 64km/h | 3113m | -2.7m/s | -0.6°C | 78.3% | 704.5hPa | 2.7V | 00:00:00 | 03:24:01 | 00:00:00 | |
| OE5DRO-10 | 2026-09-01 01:53:29 | 48.19760 | 14.15465 | 99° | 60km/h | 3115m | -2.6m/s | -0.6°C | 78.6% | 704.4hPa | 2.7V | 00:00:00 | 00:00:00 | 00:00:00 | |
| OE5HKT-10 | 2026-09-01 01:53:28 | 48.19762 | 14.15444 | 96° | 62km/h | 3118m | -2.7m/s | -0.7°C | 79.7% | 704.1hPa | 2.7V | 07:09:00 | 00:00:00 | 00:00:00 | |
| OE5WHR-10 | 2026-09-01 01:53:23 | 48.19767 | 14.15329 | 95° | 66km/h | 3132m | -2.7m/s | -0.8°C | 79.7% | 702.9hPa | 2.7V | 00:00:00 | 00:00:00 | 00:00:00 | |
| OE5MMP-10 | 2026-09-01 01:53:21 | 48.19770 | 14.15280 | 97° | 62km/h | 3138m | -3.0m/s | -0.8°C | 79.9% | 702.4hPa | 2.7V | 00:00:00 | 03:23:52 | 00:00:00 | |
| DO3MHA-11 | 2026-09-01 01:53:20 | 48.19772 | 14.15256 | 96° | 60km/h | 3141m | -2.9m/s | -0.9°C | 79.7% | 702.2hPa | 2.7V | 00:00:00 | 03:23:51 | 00:00:00 | |
| DO3MHA-11 | 2026-09-01 01:53:15 | 48.19772 | 14.15143 | 88° | 68km/h | 3156m | -3.1m/s | -1.0°C | 78.5% | 700.8hPa | 2.7V | 00:00:00 | 03:23:46 | 00:00:00 | |
| OE5DRO-10 | 2026-09-01 01:53:13 | 48.19771 | 14.15094 | 89° | 66km/h | 3162m | -2.9m/s | -1.0°C | 78.7% | 700.4hPa | 2.7V | 00:00:00 | 00:00:00 | 00:00:00 | |
| OE5DXL-15 | 2026-09-01 01:53:12 | 48.19771 | 14.15068 | 91° | 68km/h | 3165m | -3.0m/s | -1.0°C | 78.2% | 700.0hPa | 2.7V | 00:00:00 | 00:00:00 | 00:00:00 | |
| OE5MMP-10 | 2026-09-01 01:53:11 | 48.19771 | 14.15042 | 92° | 66km/h | 3168m | -3.0m/s | -1.1°C | 78.7% | 699.8hPa | 2.7V | 00:00:00 | 03:23:42 | 00:00:00 | |
| DO3MHA-11 | 2026-09-01 01:53:09 | 48.19773 | 14.14988 | 96° | 66km/h | 3174m | -3.0m/s | -1.1°C | 77.8% | 699.3hPa | 2.7V | 00:00:00 | 03:23:40 | 00:00:00 | |
| OE5WHR-10 | 2026-09-01 01:53:06 | 48.19780 | 14.14913 | 99° | 66km/h | 3183m | -2.9m/s | -1.1°C | 74.9% | 698.5hPa | 2.7V | 00:00:00 | 00:00:00 | 00:00:00 | |
| DO3MHA-11 | 2026-09-01 01:53:04 | 48.19784 | 14.14867 | 95° | 66km/h | 3189m | -2.8m/s | -1.2°C | 74.9% | 697.9hPa | 2.7V | 00:00:00 | 03:23:35 | 00:00:00 | |
| PG1ADW-2 | 2026-09-01 01:53:03 | 48.19785 | 14.14844 | 92° | 68km/h | 3192m | -2.6m/s | -1.2°C | 75.1% | 697.7hPa | 2.7V | 00:00:00 | 00:00:00 | 00:00:00 | |
| OE5MMP-10 | 2026-09-01 01:53:01 | 48.19785 | 14.14797 | 90° | 68km/h | 3197m | -2.7m/s | -1.3°C | 75.4% | 697.2hPa | 2.7V | 00:00:00 | 03:23:32 | 00:00:00 | |
| DO3MHA-11 | 2026-09-01 01:52:57 | 48.19787 | 14.14692 | 94° | 68km/h | 3208m | -3.0m/s | -1.3°C | 74.3% | 696.1hPa | 2.7V | 00:00:00 | 03:23:28 | 00:00:00 | |
| OE5HKT-10 | 2026-09-01 01:52:54 | 48.19789 | 14.14617 | 91° | 69km/h | 3217m | -3.1m/s | -1.4°C | 74.8% | 695.3hPa | 2.7V | 00:00:00 | 00:00:00 | 00:00:00 | |
| DO3MHA-11 | 2026-09-01 01:52:52 | 48.19790 | 14.14565 | 91° | 69km/h | 3224m | -3.1m/s | -1.5°C | 74.8% | 694.8hPa | 2.7V | 07:09:00 | 03:23:23 | 00:00:00 | |
| OE5MMP-10 | 2026-09-01 01:52:51 | 48.19790 | 14.14539 | 93° | 69km/h | 3227m | -3.1m/s | -1.5°C | 75.1% | 694.5hPa | 2.7V | 00:00:00 | 03:23:22 | 00:00:00 | |
| OE5WHR-10 | 2026-09-01 01:52:49 | 48.19792 | 14.14487 | 93° | 69km/h | 3233m | -3.0m/s | -1.5°C | 74.3% | 694.0hPa | 2.7V | 00:00:00 | 03:23:20 | 00:00:00 | |
| DO3MHA-11 | 2026-09-01 01:52:47 | 48.19793 | 14.14435 | 92° | 69km/h | 3239m | -2.8m/s | -1.6°C | 74.5% | 693.5hPa | 2.7V | 00:00:00 | 03:23:18 | 00:00:00 | |
| PG1ADW-2 | 2026-09-01 01:52:43 | 48.19797 | 14.14330 | 93° | 71km/h | 3251m | -2.9m/s | -1.7°C | 75.1% | 692.5hPa | 2.7V | 00:00:00 | 03:23:14 | 00:00:00 | |
| OE5DXL-15 | 2026-09-01 01:52:42 | 48.19797 | 14.14305 | 92° | 71km/h | 3254m | -2.8m/s | -1.7°C | 75.0% | 692.3hPa | 2.7V | 00:00:00 | 00:00:00 | 00:00:00 | |
| OE5MMP-10 | 2026-09-01 01:52:41 | 48.19797 | 14.14280 | 91° | 71km/h | 3257m | -2.8m/s | -1.7°C | 74.5% | 691.8hPa | 2.6V | 07:09:00 | 03:23:12 | 00:00:00 | |
| DO3MHA-11 | 2026-09-01 01:52:37 | 48.19799 | 14.14172 | 94° | 71km/h | 3269m | -3.2m/s | -1.8°C | 72.7% | 691.0hPa | 2.6V | 00:00:00 | 03:23:08 | 00:00:00 | |
| OE3JTB-15 | 2026-09-01 01:52:33 | 48.19802 | 14.14066 | 91° | 73km/h | 3281m | -3.0m/s | -1.9°C | 72.3% | 689.9hPa | 2.6V | 00:00:00 | 00:00:00 | 00:00:00 | |
| OE5WHR-10 | 2026-09-01 01:52:32 | 48.19803 | 14.14038 | 92° | 73km/h | 3285m | -3.0m/s | -1.9°C | 72.7% | 689.6hPa | 2.6V | 00:00:00 | 00:00:00 | 00:00:00 | |
| OE5MMP-10 | 2026-09-01 01:52:31 | 48.19803 | 14.14011 | 93° | 73km/h | 3288m | -3.1m/s | -2.0°C | 72.8% | 689.3hPa | 2.6V | 00:00:00 | 03:23:02 | 00:00:00 | |
| OE5FHM-15 | 2026-09-01 01:52:30 | 48.19804 | 14.13984 | 93° | 73km/h | 3291m | -3.0m/s | -2.0°C | 72.7% | 689.0hPa | 2.7V | 00:00:00 | 03:23:01 | 00:00:00 | |
| DO3MHA-11 | 2026-09-01 01:52:27 | 48.19805 | 14.13902 | 91° | 73km/h | 3300m | -3.0m/s | -2.1°C | 72.8% | 688.2hPa | 2.7V | 00:00:00 | 03:22:58 | 00:00:00 | |
| OE5DRO-10 | 2026-09-01 01:52:25 | 48.19806 | 14.13846 | 94° | 73km/h | 3306m | -3.0m/s | -2.1°C | 71.6% | 687.7hPa | 2.6V | 00:00:00 | 00:00:00 | 00:00:00 | |
| PG1ADW-2 | 2026-09-01 01:52:23 | 48.19809 | 14.13790 | 94° | 73km/h | 3313m | -3.1m/s | -2.1°C | 71.8% | 687.2hPa | 2.6V | 00:00:00 | 00:00:00 | 00:00:00 | |
| DO3MHA-11 | 2026-09-01 01:52:22 | 48.19810 | 14.13763 | 93° | 73km/h | 3316m | -2.9m/s | -2.1°C | 71.9% | 687.0hPa | 2.7V | 00:00:00 | 03:22:53 | 00:00:00 | |
| OE5MMP-10 | 2026-09-01 01:52:21 | 48.19810 | 14.13736 | 93° | 73km/h | 3319m | -3.1m/s | -2.2°C | 72.0% | 686.7hPa | 2.7V | 00:00:00 | 03:22:52 | 00:00:00 | |
| OE5HKT-10 | 2026-09-01 01:52:20 | 48.19812 | 14.13708 | 94° | 73km/h | 3322m | -3.0m/s | -2.2°C | 72.1% | 686.3hPa | 2.7V | 00:00:00 | 03:22:51 | 00:00:00 | |
| DO3MHA-11 | 2026-09-01 01:52:17 | 48.19815 | 14.13626 | 92° | 73km/h | 3331m | -3.1m/s | -2.3°C | 72.3% | 685.6hPa | 2.7V | 00:00:00 | 03:22:48 | 00:00:00 | |
| OE5WHR-10 | 2026-09-01 01:52:15 | 48.19815 | 14.13572 | 90° | 75km/h | 3338m | -3.1m/s | -2.3°C | 72.4% | 685.1hPa | 2.7V | 00:00:00 | 00:00:00 | 00:00:00 | |
| OE3JTB-15 | 2026-09-01 01:52:14 | 48.19814 | 14.13544 | 90° | 75km/h | 3341m | -3.0m/s | -2.3°C | 72.6% | 684.8hPa | 2.7V | 00:00:00 | 03:22:45 | 00:00:00 | |
| DO3MHA-11 | 2026-09-01 01:52:12 | 48.19815 | 14.13487 | 93° | 75km/h | 3347m | -2.9m/s | -2.4°C | 72.8% | 684.2hPa | 2.7V | 07:10:00 | 03:22:43 | 00:00:00 | |
| OE5MMP-10 | 2026-09-01 01:52:11 | 48.19816 | 14.13458 | 93° | 75km/h | 3350m | -3.1m/s | -2.4°C | 72.8% | 684.0hPa | 2.7V | 00:00:00 | 03:22:42 | 00:00:00 | |
| OE5DRO-10 | 2026-09-01 01:52:09 | 48.19817 | 14.13402 | 91° | 75km/h | 3356m | -3.1m/s | -2.4°C | 72.8% | 683.4hPa | 2.7V | 00:00:00 | 00:00:00 | 00:00:00 | |
| DO3MHA-11 | 2026-09-01 01:52:07 | 48.19817 | 14.13345 | 92° | 75km/h | 3363m | -3.1m/s | -2.5°C | 73.0% | 682.9hPa | 2.7V | 00:00:00 | 03:22:38 | 00:00:00 | |
| OE5HKT-10 | 2026-09-01 01:52:03 | 48.19819 | 14.13232 | 91° | 75km/h | 3375m | -3.1m/s | -2.6°C | 72.3% | 681.9hPa | 2.7V | 00:00:00 | 00:00:00 | 00:00:00 | |
| DO3MHA-11 | 2026-09-01 01:52:02 | 48.19819 | 14.13203 | 91° | 73km/h | 3378m | -2.9m/s | -2.6°C | 73.4% | 681.7hPa | 2.7V | 00:00:00 | 03:22:33 | 00:00:00 | |
| OE5MMP-10 | 2026-09-01 01:52:01 | 48.19819 | 14.13175 | 92° | 75km/h | 3381m | -2.9m/s | -2.6°C | 73.6% | 681.4hPa | 2.7V | 00:00:00 | 03:22:32 | 00:00:00 | |
| OE5FHM-15 | 2026-09-01 01:52:00 | 48.19820 | 14.13147 | 92° | 75km/h | 3384m | -2.8m/s | -2.7°C | 73.7% | 681.1hPa | 2.7V | 00:00:00 | 03:22:31 | 00:00:00 | |
| OE5WHR-10 | 2026-09-01 01:51:58 | 48.19820 | 14.13092 | 89° | 75km/h | 3390m | -2.9m/s | -2.7°C | 73.8% | 680.6hPa | 2.7V | 00:00:00 | 03:22:29 | 00:00:00 | |
| DO3MHA-11 | 2026-09-01 01:51:57 | 48.19819 | 14.13064 | 89° | 75km/h | 3393m | -3.0m/s | -2.8°C | 74.5% | 680.3hPa | 2.7V | 00:00:00 | 03:22:28 | 00:00:00 | |
| OE5DRO-10 | 2026-09-01 01:51:53 | 48.19819 | 14.12950 | 90° | 75km/h | 3405m | -3.0m/s | -2.9°C | 77.1% | 679.4hPa | 2.7V | 07:10:00 | 00:00:00 | 00:00:00 | |
| OE3JTB-15 | 2026-09-01 01:51:48 | 48.19819 | 14.12808 | 93° | 73km/h | 3420m | -2.8m/s | -2.9°C | 76.2% | 678.0hPa | 2.7V | 07:10:00 | 00:00:00 | 00:00:00 | |
| OE5HKT-10 | 2026-09-01 01:51:46 | 48.19820 | 14.12753 | 91° | 75km/h | 3426m | -3.0m/s | -3.0°C | 76.5% | 677.4hPa | 2.7V | 00:00:00 | 00:00:00 | 00:00:00 | |
| OE5DXL-15 | 2026-09-01 01:51:42 | 48.19819 | 14.12643 | 89° | 73km/h | 3438m | -3.0m/s | -3.0°C | 74.5% | 676.4hPa | 2.7V | 00:00:00 | 00:00:00 | 00:00:00 | |
| OE5WHR-10 | 2026-09-01 01:51:41 | 48.19818 | 14.12615 | 88° | 75km/h | 3441m | -2.9m/s | -3.0°C | 72.0% | 676.2hPa | 2.7V | 00:00:00 | 00:00:00 | 00:00:00 | |
| DO3MHA-11 | 2026-09-01 01:51:38 | 48.19815 | 14.12529 | 88° | 78km/h | 3450m | -2.9m/s | -3.1°C | 71.1% | 675.4hPa | 2.7V | 00:00:00 | 03:22:09 | 00:00:00 | |
| OE5DRO-10 | 2026-09-01 01:51:37 | 48.19815 | 14.12499 | 90° | 75km/h | 3453m | -2.7m/s | -3.1°C | 70.8% | 675.1hPa | 2.6V | 00:00:00 | 00:00:00 | 00:00:00 | |
| DO3MHA-11 | 2026-09-01 01:51:33 | 48.19819 | 14.12382 | 94° | 73km/h | 3465m | -2.8m/s | -3.2°C | 70.8% | 674.0hPa | 2.6V | 00:00:00 | 03:22:04 | 00:00:00 | |
| OE5MMP-10 | 2026-09-01 01:51:31 | 48.19820 | 14.12327 | 91° | 73km/h | 3470m | -3.0m/s | -3.2°C | 70.7% | 673.7hPa | 2.6V | 00:00:00 | 03:22:02 | 00:00:00 | |
| OE5FHM-15 | 2026-09-01 01:51:30 | 48.19820 | 14.12301 | 90° | 71km/h | 3474m | -3.0m/s | -3.3°C | 70.8% | 673.5hPa | 2.7V | 00:00:00 | 03:22:01 | 00:00:00 | |
| OE5HKT-10 | 2026-09-01 01:51:29 | 48.19820 | 14.12273 | 90° | 73km/h | 3477m | -2.9m/s | -3.3°C | 70.7% | 673.2hPa | 2.7V | 00:00:00 | 03:22:00 | 00:00:00 | |
| DO3MHA-11 | 2026-09-01 01:51:28 | 48.19820 | 14.12245 | 91° | 73km/h | 3480m | -3.1m/s | -3.3°C | 70.7% | 673.0hPa | 2.7V | 07:11:00 | 03:21:59 | 00:00:00 | |
| OE5WHR-10 | 2026-09-01 01:51:24 | 48.19823 | 14.12134 | 92° | 71km/h | 3492m | -2.6m/s | -3.4°C | 70.8% | 671.8hPa | 2.7V | 07:11:00 | 00:00:00 | 00:00:00 | |
| DO3MHA-11 | 2026-09-01 01:51:23 | 48.19823 | 14.12107 | 91° | 71km/h | 3495m | -2.7m/s | -3.5°C | 70.5% | 671.6hPa | 2.7V | 00:00:00 | 03:21:54 | 00:00:00 | |
| OE5MMP-10 | 2026-09-01 01:51:21 | 48.19823 | 14.12052 | 92° | 71km/h | 3500m | -2.5m/s | -3.5°C | 70.4% | 671.2hPa | 2.7V | 07:11:00 | 03:21:52 | 00:00:00 | |
| OE3JTB-15 | 2026-09-01 01:51:19 | 48.19825 | 14.11997 | 93° | 71km/h | 3505m | -2.7m/s | -3.6°C | 70.6% | 670.7hPa | 2.7V | 00:00:00 | 00:00:00 | 00:00:00 | |
| DO3MHA-11 | 2026-09-01 01:51:18 | 48.19825 | 14.11970 | 92° | 71km/h | 3508m | -2.6m/s | -3.6°C | 70.6% | 670.5hPa | 2.7V | 00:00:00 | 03:21:49 | 00:00:00 | |
| DO3MHA-11 | 2026-09-01 01:51:13 | 48.19826 | 14.11834 | 93° | 71km/h | 3521m | -2.7m/s | -3.7°C | 69.3% | 669.4hPa | 2.7V | 00:00:00 | 03:21:44 | 00:00:00 | |
| OE5DXL-15 | 2026-09-01 01:51:12 | 48.19827 | 14.11807 | 93° | 71km/h | 3524m | -2.6m/s | -3.7°C | 69.4% | 669.2hPa | 2.7V | 07:11:00 | 00:00:00 | 00:00:00 | |
| OE5MMP-10 | 2026-09-01 01:51:11 | 48.19828 | 14.11780 | 92° | 71km/h | 3527m | -2.4m/s | -3.7°C | 69.4% | 668.8hPa | 2.7V | 00:00:00 | 03:21:42 | 00:00:00 | |
| DO3MHA-11 | 2026-09-01 01:51:08 | 48.19830 | 14.11698 | 94° | 71km/h | 3534m | -2.7m/s | -3.8°C | 68.3% | 668.2hPa | 2.7V | 00:00:00 | 03:21:39 | 00:00:00 | |
| OE5WHR-10 | 2026-09-01 01:51:07 | 48.19831 | 14.11671 | 95° | 71km/h | 3537m | -2.9m/s | -3.8°C | 68.1% | 667.9hPa | 2.7V | 00:00:00 | 03:21:38 | 00:00:00 | |
| OE5DRO-10 | 2026-09-01 01:51:05 | 48.19833 | 14.11617 | 93° | 71km/h | 3543m | -2.7m/s | -3.9°C | 68.3% | 667.3hPa | 2.7V | 00:00:00 | 00:00:00 | 00:00:00 | |
| DO3MHA-11 | 2026-09-01 01:51:03 | 48.19835 | 14.11563 | 93° | 71km/h | 3548m | -2.7m/s | -3.9°C | 67.9% | 667.1hPa | 2.6V | 00:00:00 | 03:21:34 | 00:00:00 | |
| PG1ADW-2 | 2026-09-01 01:51:02 | 48.19836 | 14.11536 | 94° | 69km/h | 3551m | -2.6m/s | -3.9°C | 65.8% | 666.7hPa | 2.6V | 00:00:00 | 00:00:00 | 00:00:00 | |
| OE5MMP-10 | 2026-09-01 01:51:01 | 48.19837 | 14.11509 | 95° | 71km/h | 3554m | -2.7m/s | -3.9°C | 63.8% | 666.5hPa | 2.6V | 00:00:00 | 03:21:32 | 00:00:00 | |
| OE5FHM-15 | 2026-09-01 01:51:00 | 48.19838 | 14.11482 | 94° | 69km/h | 3556m | -2.6m/s | -3.9°C | 64.0% | 666.4hPa | 2.7V | 00:00:00 | 03:21:31 | 00:00:00 | |
| DO3MHA-11 | 2026-09-01 01:50:58 | 48.19840 | 14.11429 | 92° | 71km/h | 3562m | -2.5m/s | -4.0°C | 63.5% | 665.9hPa | 2.7V | 00:00:00 | 03:21:29 | 00:00:00 | |
| OE5HKT-10 | 2026-09-01 01:50:55 | 48.19843 | 14.11347 | 96° | 69km/h | 3570m | -2.7m/s | -4.0°C | 63.4% | 665.2hPa | 2.7V | 00:00:00 | 00:00:00 | 00:00:00 | |
| DO3MHA-11 | 2026-09-01 01:50:53 | 48.19846 | 14.11294 | 95° | 69km/h | 3575m | -2.7m/s | -4.1°C | 63.7% | 664.8hPa | 2.7V | 00:00:00 | 03:21:24 | 00:00:00 | |
| OE5MMP-10 | 2026-09-01 01:50:51 | 48.19848 | 14.11241 | 94° | 69km/h | 3580m | -2.6m/s | -4.2°C | 64.9% | 664.4hPa | 2.7V | 00:00:00 | 03:21:22 | 00:00:00 | |
| OE5WHR-10 | 2026-09-01 01:50:50 | 48.19849 | 14.11214 | 95° | 68km/h | 3583m | -2.6m/s | -4.2°C | 64.8% | 664.2hPa | 2.7V | 00:00:00 | 00:00:00 | 00:00:00 | |
| DO3MHA-11 | 2026-09-01 01:50:48 | 48.19853 | 14.11162 | 96° | 69km/h | 3588m | -2.4m/s | -4.2°C | 65.1% | 663.7hPa | 2.7V | 07:11:00 | 03:21:19 | 00:00:00 | |
| DO3MHA-11 | 2026-09-01 01:50:43 | 48.19857 | 14.11031 | 94° | 68km/h | 3602m | -2.6m/s | -4.4°C | 65.4% | 662.6hPa | 2.7V | 00:00:00 | 03:21:14 | 00:00:00 | |
| OE5DXL-15 | 2026-09-01 01:50:42 | 48.19858 | 14.11005 | 94° | 66km/h | 3605m | -2.6m/s | -4.3°C | 64.9% | 662.4hPa | 2.7V | 00:00:00 | 00:00:00 | 00:00:00 | |
| OE5MMP-10 | 2026-09-01 01:50:41 | 48.19859 | 14.10980 | 94° | 68km/h | 3607m | -2.5m/s | -4.3°C | 62.3% | 662.2hPa | 2.7V | 00:00:00 | 03:21:12 | 00:00:00 | |
| DO3MHA-11 | 2026-09-01 01:50:38 | 48.19862 | 14.10903 | 94° | 68km/h | 3615m | -2.5m/s | -4.3°C | 61.4% | 661.6hPa | 2.7V | 00:00:00 | 03:21:09 | 00:00:00 | |
| DO3MHA-11 | 2026-09-01 01:50:33 | 48.19868 | 14.10776 | 94° | 68km/h | 3628m | -2.6m/s | -4.3°C | 56.9% | 660.4hPa | 2.6V | 00:00:00 | 03:21:04 | 00:00:00 | |
| OE5MMP-10 | 2026-09-01 01:50:31 | 48.19871 | 14.10725 | 96° | 66km/h | 3633m | -2.4m/s | -4.3°C | 56.9% | 659.9hPa | 2.6V | 00:00:00 | 03:21:02 | 00:00:00 | |
| OE5FHM-15 | 2026-09-01 01:50:30 | 48.19873 | 14.10700 | 97° | 66km/h | 3635m | -2.4m/s | -4.2°C | 55.5% | 659.8hPa | 2.7V | 00:00:00 | 03:21:01 | 00:00:00 | |
| DO3MHA-11 | 2026-09-01 01:50:28 | 48.19876 | 14.10650 | 96° | 66km/h | 3641m | -2.5m/s | -4.2°C | 54.4% | 659.3hPa | 2.7V | 00:00:00 | 03:20:59 | 00:00:00 | |
| DO3MHA-11 | 2026-09-01 01:50:23 | 48.19884 | 14.10528 | 94° | 68km/h | 3654m | -2.6m/s | -4.1°C | 48.9% | 658.2hPa | 2.7V | 00:00:00 | 03:20:54 | 00:00:00 | |
| PG1ADW-2 | 2026-09-01 01:50:22 | 48.19884 | 14.10504 | 92° | 66km/h | 3656m | -2.5m/s | -4.0°C | 46.2% | 657.9hPa | 2.7V | 00:00:00 | 00:00:00 | 00:00:00 | |
| OE5MMP-10 | 2026-09-01 01:50:21 | 48.19885 | 14.10479 | 91° | 68km/h | 3659m | -2.5m/s | -4.0°C | 45.2% | 657.9hPa | 2.7V | 00:00:00 | 03:20:52 | 00:00:00 | |
| DO3MHA-11 | 2026-09-01 01:50:18 | 48.19887 | 14.10399 | 96° | 66km/h | 3667m | -2.5m/s | -3.7°C | 38.9% | 657.2hPa | 2.7V | 00:00:00 | 03:20:49 | 00:00:00 | |
| OE5WHR-10 | 2026-09-01 01:50:16 | 48.19891 | 14.10348 | 97° | 64km/h | 3672m | -2.5m/s | -3.7°C | 38.2% | 656.7hPa | 2.7V | 00:00:00 | 03:20:47 | 00:00:00 | |
| DO3MHA-11 | 2026-09-01 01:50:13 | 48.19896 | 14.10276 | 95° | 64km/h | 3679m | -2.4m/s | -3.7°C | 38.1% | 656.1hPa | 2.7V | 00:00:00 | 03:20:44 | 00:00:00 | |
| OE5DXL-15 | 2026-09-01 01:50:12 | 48.19897 | 14.10251 | 96° | 64km/h | 3681m | -2.2m/s | -3.7°C | 38.0% | 655.8hPa | 2.7V | 00:00:00 | 00:00:00 | 00:00:00 | |
| OE5MMP-10 | 2026-09-01 01:50:11 | 48.19899 | 14.10227 | 97° | 64km/h | 3684m | -2.3m/s | -3.7°C | 37.5% | 655.7hPa | 2.7V | 00:00:00 | 03:20:42 | 00:00:00 | |
| DO3MHA-11 | 2026-09-01 01:50:08 | 48.19906 | 14.10155 | 97° | 64km/h | 3691m | -2.4m/s | -3.7°C | 37.1% | 655.1hPa | 2.7V | 07:12:00 | 03:20:39 | 00:00:00 | |
| OE5HKT-10 | 2026-09-01 01:50:04 | 48.19913 | 14.10057 | 98° | 62km/h | 3700m | -2.4m/s | -3.7°C | 35.9% | 654.3hPa | 2.6V | 00:00:00 | 00:00:00 | 00:00:00 | |
| DO3MHA-11 | 2026-09-01 01:50:03 | 48.19915 | 14.10034 | 97° | 64km/h | 3702m | -2.4m/s | -3.7°C | 35.8% | 654.2hPa | 2.6V | 00:00:00 | 03:20:34 | 00:00:00 | |
| PG1ADW-2 | 2026-09-01 01:50:02 | 48.19917 | 14.10010 | 96° | 64km/h | 3705m | -2.2m/s | -3.7°C | 35.8% | 654.0hPa | 2.6V | 00:00:00 | 03:20:33 | 00:00:00 | |
| OE5MMP-10 | 2026-09-01 01:50:01 | 48.19918 | 14.09986 | 96° | 62km/h | 3707m | -2.2m/s | -3.7°C | 35.4% | 653.7hPa | 2.6V | 07:12:00 | 03:20:32 | 00:00:00 | |
| OE5FHM-15 | 2026-09-01 01:50:00 | 48.19920 | 14.09962 | 97° | 62km/h | 3709m | -2.2m/s | -3.7°C | 35.1% | 653.6hPa | 2.7V | 00:00:00 | 03:20:31 | 00:00:00 | |
| OE5WHR-10 | 2026-09-01 01:49:59 | 48.19922 | 14.09937 | 98° | 64km/h | 3712m | -2.3m/s | -3.7°C | 34.8% | 653.5hPa | 2.7V | 00:00:00 | 00:00:00 | 00:00:00 | |
| DO3MHA-11 | 2026-09-01 01:49:58 | 48.19924 | 14.09913 | 99° | 62km/h | 3714m | -2.4m/s | -3.7°C | 34.6% | 653.2hPa | 2.7V | 00:00:00 | 03:20:29 | 00:00:00 | |
| OM5KV | 2026-09-01 01:49:57 | 48.19924 | 14.09913 | 99° | 62km/h | 3714m | -2.5m/s | -3.7°C | 34.4% | 653.2hPa | 2.7V | 00:00:00 | 00:00:00 | 00:00:00 | |
| DO3MHA-11 | 2026-09-01 01:49:53 | 48.19933 | 14.09796 | 97° | 62km/h | 3726m | -2.3m/s | -3.6°C | 32.5% | 652.3hPa | 2.7V | 00:00:00 | 03:20:24 | 00:00:00 | |
| OE3JTB-15 | 2026-09-01 01:49:52 | 48.19935 | 14.09773 | 97° | 62km/h | 3728m | -2.3m/s | -3.6°C | 32.2% | 651.9hPa | 2.7V | 00:00:00 | 00:00:00 | 00:00:00 | |
| OE5MMP-10 | 2026-09-01 01:49:51 | 48.19936 | 14.09750 | 96° | 64km/h | 3730m | -2.3m/s | -3.6°C | 31.9% | 651.8hPa | 2.7V | 00:00:00 | 03:20:22 | 00:00:00 | |
| DO3MHA-11 | 2026-09-01 01:49:48 | 48.19940 | 14.09679 | 97° | 64km/h | 3737m | -2.4m/s | -3.7°C | 32.3% | 651.2hPa | 2.7V | 00:00:00 | 03:20:19 | 00:00:00 | |
| OE5DRO-10 | 2026-09-01 01:49:44 | 48.19950 | 14.09582 | 99° | 62km/h | 3747m | -2.2m/s | -3.7°C | 33.0% | 650.5hPa | 2.7V | 07:12:00 | 00:00:00 | 00:00:00 | |
| DO3MHA-11 | 2026-09-01 01:49:43 | 48.19952 | 14.09558 | 98° | 64km/h | 3749m | -2.1m/s | -3.8°C | 33.2% | 650.4hPa | 2.7V | 00:00:00 | 03:20:14 | 00:00:00 | |
| OE5WHR-10 | 2026-09-01 01:49:42 | 48.19955 | 14.09534 | 99° | 62km/h | 3751m | -2.2m/s | -3.8°C | 33.3% | 650.2hPa | 2.7V | 00:00:00 | 00:00:00 | 00:00:00 | |
| OE5MMP-10 | 2026-09-01 01:49:41 | 48.19957 | 14.09510 | 101° | 60km/h | 3754m | -2.3m/s | -3.8°C | 33.4% | 649.9hPa | 2.7V | 00:00:00 | 03:20:12 | 00:00:00 | |
| DO3MHA-11 | 2026-09-01 01:49:38 | 48.19966 | 14.09441 | 99° | 60km/h | 3761m | -1.9m/s | -3.9°C | 33.8% | 649.3hPa | 2.7V | 00:00:00 | 03:20:09 | 00:00:00 | |
| DO3MHA-11 | 2026-09-01 01:49:33 | 48.19978 | 14.09329 | 102° | 62km/h | 3772m | -2.3m/s | -3.9°C | 33.3% | 648.5hPa | 2.7V | 00:00:00 | 03:20:04 | 00:00:00 | |
| OE5MMP-10 | 2026-09-01 01:49:31 | 48.19984 | 14.09284 | 101° | 64km/h | 3777m | -2.4m/s | -3.9°C | 33.5% | 648.0hPa | 2.7V | 00:00:00 | 03:20:02 | 00:00:00 | |
| OE5FHM-15 | 2026-09-01 01:49:30 | 48.19986 | 14.09261 | 101° | 60km/h | 3780m | -2.0m/s | -3.9°C | 33.7% | 647.9hPa | 2.7V | 00:00:00 | 03:20:01 | 00:00:00 | |
| DO3MHA-11 | 2026-09-01 01:49:28 | 48.19993 | 14.09212 | 103° | 66km/h | 3784m | -2.3m/s | -4.0°C | 33.9% | 647.4hPa | 2.7V | 07:13:00 | 03:19:59 | 00:00:00 | |
| OE5WHR-10 | 2026-09-01 01:49:25 | 48.20006 | 14.09139 | 107° | 60km/h | 3791m | -2.6m/s | -4.0°C | 34.3% | 646.8hPa | 2.7V | 00:00:00 | 03:19:56 | 00:00:00 | |
| DO3MHA-11 | 2026-09-01 01:49:23 | 48.20016 | 14.09093 | 109° | 57km/h | 3796m | -2.5m/s | -4.0°C | 33.8% | 646.3hPa | 2.7V | 00:00:00 | 03:19:54 | 00:00:00 | |
| PG1ADW-2 | 2026-09-01 01:49:22 | 48.20021 | 14.09072 | 109° | 60km/h | 3799m | -2.2m/s | -3.9°C | 33.1% | 646.2hPa | 2.7V | 07:13:00 | 00:00:00 | 00:00:00 | |
| OE5MMP-10 | 2026-09-01 01:49:21 | 48.20025 | 14.09051 | 108° | 58km/h | 3801m | -2.1m/s | -3.9°C | 33.0% | 646.0hPa | 2.7V | 00:00:00 | 03:19:52 | 00:00:00 | |
| DO3MHA-11 | 2026-09-01 01:49:18 | 48.20035 | 14.08991 | 101° | 58km/h | 3808m | -2.2m/s | -3.9°C | 32.3% | 645.4hPa | 2.7V | 00:00:00 | 03:19:49 | 00:00:00 | |
| OM5KV | 2026-09-01 01:49:15 | 48.20040 | 14.08949 | 99° | 58km/h | 3812m | -1.9m/s | -4.0°C | 32.1% | 645.1hPa | 2.7V | 00:00:00 | 00:00:00 | 00:00:00 | |
| DO3MHA-11 | 2026-09-01 01:49:13 | 48.20047 | 14.08880 | 102° | 62km/h | 3819m | -2.1m/s | -4.0°C | 32.4% | 644.6hPa | 2.7V | 00:00:00 | 03:19:44 | 00:00:00 | |
| OE5DXL-15 | 2026-09-01 01:49:12 | 48.20051 | 14.08856 | 104° | 60km/h | 3821m | -2.3m/s | -4.0°C | 32.5% | 644.3hPa | 2.7V | 00:00:00 | 00:00:00 | 00:00:00 | |
| OE5MMP-10 | 2026-09-01 01:49:11 | 48.20055 | 14.08833 | 105° | 60km/h | 3823m | -2.1m/s | -4.1°C | 32.6% | 644.1hPa | 2.7V | 00:00:00 | 03:19:42 | 00:00:00 | |
| OM5KV | 2026-09-01 01:49:10 | 48.20055 | 14.08833 | 106° | 62km/h | 3823m | -2.2m/s | -4.1°C | 32.4% | 644.1hPa | 2.7V | 07:14:00 | 00:00:00 | 00:00:00 | |
| DO3MHA-11 | 2026-09-01 01:49:08 | 48.20067 | 14.08767 | 105° | 60km/h | 3830m | -2.2m/s | -4.0°C | 32.0% | 643.6hPa | 2.7V | 00:00:00 | 03:19:39 | 00:00:00 | |
| OM5KV | 2026-09-01 01:49:04 | 48.20078 | 14.08700 | 106° | 60km/h | 3837m | -2.2m/s | -3.8°C | 30.2% | 643.2hPa | 2.7V | 07:14:00 | 00:00:00 | 00:00:00 | |
| DO3MHA-11 | 2026-09-01 01:49:03 | 48.20086 | 14.08656 | 104° | 62km/h | 3841m | -2.0m/s | -3.7°C | 30.2% | 642.8hPa | 2.7V | 00:00:00 | 03:19:34 | 00:00:00 | |
| PG1ADW-2 | 2026-09-01 01:49:02 | 48.20089 | 14.08634 | 102° | 60km/h | 3843m | -1.9m/s | -3.7°C | 30.2% | 642.6hPa | 2.7V | 00:00:00 | 00:00:00 | 00:00:00 | |
| OE5MMP-10 | 2026-09-01 01:49:01 | 48.20092 | 14.08611 | 102° | 60km/h | 3845m | -2.1m/s | -3.7°C | 29.1% | 642.5hPa | 2.7V | 00:00:00 | 03:19:32 | 00:00:00 | |
| OE5FHM-15 | 2026-09-01 01:49:00 | 48.20096 | 14.08587 | 104° | 60km/h | 3847m | -2.2m/s | -3.7°C | 28.7% | 642.3hPa | 2.7V | 07:13:00 | 03:19:31 | 00:00:00 | |
| OM5KV | 2026-09-01 01:48:59 | 48.20096 | 14.08587 | 104° | 64km/h | 3847m | -2.2m/s | -3.7°C | 28.5% | 642.3hPa | 2.7V | 07:14:00 | 00:00:00 | 00:00:00 | |
| DO3MHA-11 | 2026-09-01 01:48:58 | 48.20104 | 14.08540 | 105° | 62km/h | 3851m | -2.0m/s | -3.7°C | 28.6% | 641.9hPa | 2.7V | 00:00:00 | 03:19:29 | 00:00:00 | |
| OE5DRO-10 | 2026-09-01 01:48:56 | 48.20111 | 14.08495 | 104° | 58km/h | 3856m | -1.9m/s | -3.7°C | 29.1% | 641.7hPa | 2.7V | 00:00:00 | 00:00:00 | 00:00:00 | |
| OE3JTB-15 | 2026-09-01 01:48:54 | 48.20119 | 14.08450 | 107° | 60km/h | 3860m | -2.1m/s | -3.8°C | 29.6% | 641.2hPa | 2.7V | 00:00:00 | 00:00:00 | 00:00:00 | |
| DO3MHA-11 | 2026-09-01 01:48:53 | 48.20124 | 14.08429 | 108° | 55km/h | 3862m | -2.0m/s | -3.8°C | 30.8% | 641.1hPa | 2.7V | 00:00:00 | 03:19:24 | 00:00:00 | |
| OE5WHR-10 | 2026-09-01 01:48:51 | 48.20132 | 14.08389 | 105° | 58km/h | 3866m | -2.2m/s | -3.8°C | 35.9% | 640.7hPa | 2.7V | 00:00:00 | 00:00:00 | 00:00:00 | |
| DO3MHA-11 | 2026-09-01 01:48:48 | 48.20139 | 14.08330 | 97° | 62km/h | 3873m | -2.1m/s | -3.9°C | 36.3% | 640.1hPa | 2.7V | 07:13:00 | 03:19:19 | 00:00:00 | |
| OM5KV | 2026-09-01 01:48:46 | 48.20141 | 14.08308 | 98° | 58km/h | 3875m | -2.2m/s | -3.9°C | 37.4% | 640.0hPa | 2.7V | 07:14:00 | 00:00:00 | 00:00:00 | |
| OM5KV | 2026-09-01 01:48:45 | 48.20143 | 14.08285 | 98° | 62km/h | 3877m | -2.2m/s | -4.0°C | 37.6% | 639.8hPa | 2.7V | 07:14:00 | 00:00:00 | 00:00:00 | |
| DO3MHA-11 | 2026-09-01 01:48:43 | 48.20151 | 14.08212 | 104° | 62km/h | 3884m | -2.1m/s | -4.0°C | 38.0% | 639.2hPa | 2.7V | 00:00:00 | 03:19:14 | 00:00:00 | |
| OE5DXL-15 | 2026-09-01 01:48:42 | 48.20156 | 14.08188 | 107° | 60km/h | 3887m | -2.3m/s | -4.0°C | 37.9% | 639.1hPa | 2.7V | 00:00:00 | 00:00:00 | 00:00:00 | |
| OE5MMP-10 | 2026-09-01 01:48:41 | 48.20160 | 14.08165 | 109° | 60km/h | 3889m | -2.1m/s | -4.0°C | 38.1% | 638.9hPa | 2.7V | 07:13:00 | 03:19:12 | 00:00:00 | |
| OE5DRO-10 | 2026-09-01 01:48:40 | 48.20165 | 14.08143 | 109° | 60km/h | 3891m | -2.1m/s | -4.0°C | 38.0% | 638.8hPa | 2.7V | 00:00:00 | 00:00:00 | 00:00:00 | |
| OE5HKT-10 | 2026-09-01 01:48:39 | 48.20170 | 14.08122 | 108° | 60km/h | 3893m | -2.0m/s | -4.0°C | 37.3% | 638.5hPa | 2.7V | 00:00:00 | 00:00:00 | 00:00:00 | |
| DO3MHA-11 | 2026-09-01 01:48:38 | 48.20174 | 14.08101 | 106° | 58km/h | 3895m | -2.1m/s | -4.0°C | 37.2% | 638.4hPa | 2.7V | 00:00:00 | 03:19:09 | 00:00:00 | |
| OM5KV | 2026-09-01 01:48:36 | 48.20178 | 14.08081 | 104° | 57km/h | 3897m | -2.0m/s | -4.1°C | 37.0% | 638.2hPa | 2.7V | 07:14:00 | 00:00:00 | 00:00:00 | |
| OE5WHR-10 | 2026-09-01 01:48:34 | 48.20186 | 14.08016 | 100° | 60km/h | 3904m | -1.9m/s | -4.1°C | 37.9% | 637.8hPa | 2.7V | 00:00:00 | 03:19:05 | 00:00:00 | |
| DO3MHA-11 | 2026-09-01 01:48:33 | 48.20189 | 14.07992 | 102° | 60km/h | 3906m | -2.1m/s | -4.1°C | 37.9% | 637.5hPa | 2.7V | 00:00:00 | 03:19:04 | 00:00:00 | |
| OE5MMP-10 | 2026-09-01 01:48:31 | 48.20195 | 14.07947 | 103° | 60km/h | 3910m | -2.0m/s | -4.2°C | 38.2% | 637.3hPa | 2.7V | 00:00:00 | 03:19:02 | 00:00:00 | |
| OM5KV | 2026-09-01 01:48:30 | 48.20195 | 14.07947 | 103° | 60km/h | 3910m | -2.1m/s | -4.2°C | 37.9% | 637.3hPa | 2.6V | 07:14:00 | 00:00:00 | 00:00:00 | |
| OE5FHM-15 | 2026-09-01 01:48:29 | 48.20201 | 14.07903 | 101° | 60km/h | 3914m | -2.1m/s | -4.2°C | 37.7% | 636.8hPa | 2.6V | 00:00:00 | 03:19:00 | 00:00:00 | |
| DO3MHA-11 | 2026-09-01 01:48:28 | 48.20204 | 14.07880 | 101° | 60km/h | 3916m | -2.2m/s | -4.2°C | 36.9% | 636.7hPa | 2.6V | 00:00:00 | 03:18:59 | 00:00:00 | |
| OE3JTB-15 | 2026-09-01 01:48:25 | 48.20214 | 14.07812 | 104° | 60km/h | 3923m | -2.0m/s | -4.2°C | 37.1% | 636.1hPa | 2.6V | 00:00:00 | 00:00:00 | 00:00:00 | |
| OE5DRO-10 | 2026-09-01 01:48:24 | 48.20217 | 14.07790 | 103° | 60km/h | 3925m | -2.0m/s | -4.3°C | 37.2% | 636.0hPa | 2.6V | 00:00:00 | 00:00:00 | 00:00:00 | |
| DO3MHA-11 | 2026-09-01 01:48:23 | 48.20220 | 14.07769 | 101° | 60km/h | 3927m | -2.0m/s | -4.3°C | 37.4% | 635.8hPa | 2.6V | 00:00:00 | 03:18:54 | 00:00:00 | |
| OE5HKT-10 | 2026-09-01 01:48:22 | 48.20223 | 14.07747 | 101° | 60km/h | 3929m | -2.0m/s | -4.3°C | 37.5% | 635.7hPa | 2.7V | 00:00:00 | 00:00:00 | 00:00:00 | |
| OE5MMP-10 | 2026-09-01 01:48:21 | 48.20226 | 14.07724 | 101° | 60km/h | 3931m | -2.0m/s | -4.3°C | 37.8% | 635.4hPa | 2.7V | 00:00:00 | 03:18:52 | 00:00:00 | |
| OM5KV | 2026-09-01 01:48:19 | 48.20229 | 14.07701 | 103° | 62km/h | 3933m | -2.1m/s | -4.4°C | 37.6% | 635.3hPa | 2.7V | 07:15:00 | 00:00:00 | 00:00:00 | |
| DO3MHA-11 | 2026-09-01 01:48:18 | 48.20236 | 14.07656 | 104° | 60km/h | 3938m | -2.0m/s | -4.4°C | 38.0% | 634.9hPa | 2.7V | 00:00:00 | 03:18:49 | 00:00:00 | |
| OE5WHR-10 | 2026-09-01 01:48:17 | 48.20239 | 14.07634 | 103° | 60km/h | 3940m | -2.2m/s | -4.4°C | 38.2% | 634.7hPa | 2.7V | 00:00:00 | 00:00:00 | 00:00:00 | |
| DO3MHA-11 | 2026-09-01 01:48:13 | 48.20251 | 14.07544 | 103° | 58km/h | 3948m | -1.9m/s | -4.5°C | 38.1% | 634.0hPa | 2.7V | 00:00:00 | 03:18:44 | 00:00:00 | |
| OE5DXL-15 | 2026-09-01 01:48:12 | 48.20255 | 14.07522 | 103° | 58km/h | 3951m | -2.1m/s | -4.5°C | 37.6% | 633.9hPa | 2.7V | 00:00:00 | 00:00:00 | 00:00:00 | |
| OE5MMP-10 | 2026-09-01 01:48:11 | 48.20257 | 14.07501 | 101° | 58km/h | 3953m | -2.2m/s | -4.5°C | 35.3% | 633.7hPa | 2.6V | 00:00:00 | 03:18:42 | 00:00:00 | |
| DO3MHA-11 | 2026-09-01 01:48:08 | 48.20265 | 14.07434 | 100° | 58km/h | 3959m | -2.0m/s | -4.5°C | 34.1% | 633.2hPa | 2.6V | 07:14:00 | 03:18:39 | 00:00:00 | |
| OE5HKT-10 | 2026-09-01 01:48:05 | 48.20274 | 14.07368 | 102° | 58km/h | 3966m | -2.2m/s | -4.6°C | 36.5% | 632.5hPa | 2.6V | 00:00:00 | 03:18:36 | 00:00:00 | |
| DO3MHA-11 | 2026-09-01 01:48:03 | 48.20279 | 14.07324 | 99° | 60km/h | 3970m | -2.2m/s | -4.6°C | 36.8% | 632.3hPa | 2.6V | 00:00:00 | 03:18:34 | 00:00:00 | |
| OE5MMP-10 | 2026-09-01 01:48:01 | 48.20283 | 14.07280 | 100° | 58km/h | 3975m | -2.1m/s | -4.7°C | 39.4% | 632.0hPa | 2.6V | 00:00:00 | 03:18:32 | 00:00:00 | |
| OE5WHR-10 | 2026-09-01 01:48:00 | 48.20286 | 14.07257 | 102° | 58km/h | 3977m | -2.1m/s | -4.7°C | 39.0% | 631.7hPa | 2.7V | 00:00:00 | 00:00:00 | 00:00:00 | |
| OE5FHM-15 | 2026-09-01 01:47:59 | 48.20289 | 14.07235 | 101° | 58km/h | 3979m | -2.2m/s | -4.7°C | 38.3% | 631.5hPa | 2.7V | 00:00:00 | 03:18:30 | 00:00:00 | |
| DO3MHA-11 | 2026-09-01 01:47:58 | 48.20291 | 14.07214 | 100° | 58km/h | 3981m | -2.2m/s | -4.7°C | 37.9% | 631.3hPa | 2.7V | 00:00:00 | 03:18:29 | 00:00:00 | |
| OM5KV | 2026-09-01 01:47:57 | 48.20292 | 14.07214 | 100° | 57km/h | 3981m | -2.3m/s | -4.8°C | 37.6% | 631.4hPa | 2.7V | 07:15:00 | 00:00:00 | 00:00:00 | |
| OE3JTB-15 | 2026-09-01 01:47:56 | 48.20295 | 14.07170 | 98° | 58km/h | 3986m | -2.1m/s | -4.8°C | 39.3% | 631.1hPa | 2.7V | 07:14:00 | 03:18:27 | 00:00:00 | |
| OM5KV | 2026-09-01 01:47:55 | 48.20295 | 14.07170 | 98° | 60km/h | 3986m | -2.1m/s | -4.8°C | 39.0% | 631.1hPa | 2.7V | 07:15:00 | 00:00:00 | 00:00:00 | |
| OE5HKT-10 | 2026-09-01 01:47:54 | 48.20300 | 14.07125 | 101° | 58km/h | 3990m | -2.1m/s | 0°C | 0% | 0hPa | 2.7V | 00:00:00 | 00:00:00 | 00:00:00 | |
| DO3MHA-11 | 2026-09-01 01:47:53 | 48.20303 | 14.07103 | 101° | 58km/h | 3992m | -2.3m/s | -4.8°C | 42.0% | 630.4hPa | 2.7V | 00:00:00 | 03:18:24 | 00:00:00 | |
| OE5DRO-10 | 2026-09-01 01:47:52 | 48.20305 | 14.07081 | 100° | 58km/h | 3994m | -2.2m/s | -4.8°C | 41.7% | 630.3hPa | 2.7V | 00:00:00 | 00:00:00 | 00:00:00 | |
| OE5MMP-10 | 2026-09-01 01:47:51 | 48.20308 | 14.07060 | 99° | 58km/h | 3997m | -2.1m/s | -4.8°C | 41.6% | 630.0hPa | 2.7V | 00:00:00 | 03:18:22 | 00:00:00 | |
| OM5KV | 2026-09-01 01:47:50 | 48.20308 | 14.07060 | 99° | 58km/h | 3997m | -2.1m/s | -4.8°C | 41.3% | 630.1hPa | 2.7V | 07:15:00 | 00:00:00 | 00:00:00 | |
| DO3MHA-11 | 2026-09-01 01:47:48 | 48.20314 | 14.06992 | 101° | 58km/h | 4004m | -2.0m/s | -4.8°C | 40.6% | 629.5hPa | 2.7V | 00:00:00 | 03:18:19 | 00:00:00 | |
| DO3MHA-11 | 2026-09-01 01:47:43 | 48.20326 | 14.06884 | 99° | 58km/h | 4015m | -2.3m/s | -4.8°C | 40.9% | 628.7hPa | 2.7V | 00:00:00 | 03:18:14 | 00:00:00 | |
| OE5DXL-15 | 2026-09-01 01:47:42 | 48.20329 | 14.06862 | 100° | 57km/h | 4017m | -2.2m/s | -4.8°C | 41.0% | 628.5hPa | 2.7V | 00:00:00 | 03:18:13 | 00:00:00 | |
| OE5MMP-10 | 2026-09-01 01:47:41 | 48.20331 | 14.06840 | 101° | 57km/h | 4019m | -2.1m/s | -4.8°C | 41.0% | 628.3hPa | 2.7V | 00:00:00 | 03:18:12 | 00:00:00 | |
| OM5KV | 2026-09-01 01:47:38 | 48.20338 | 14.06776 | 99° | 58km/h | 4026m | -2.4m/s | -4.9°C | 40.3% | 627.8hPa | 2.7V | 07:15:00 | 00:00:00 | 00:00:00 | |
| OE5DRO-10 | 2026-09-01 01:47:36 | 48.20343 | 14.06732 | 102° | 58km/h | 4031m | -2.3m/s | -4.8°C | 40.4% | 627.4hPa | 2.7V | 07:14:00 | 00:00:00 | 00:00:00 | |
| DO3MHA-11 | 2026-09-01 01:47:33 | 48.20352 | 14.06668 | 101° | 57km/h | 4038m | -2.4m/s | -4.8°C | 39.7% | 626.7hPa | 2.7V | 00:00:00 | 03:18:04 | 00:00:00 | |
| OE5HKT-10 | 2026-09-01 01:47:31 | 48.20357 | 14.06626 | 100° | 57km/h | 4043m | -2.2m/s | -4.8°C | 39.3% | 626.5hPa | 2.7V | 00:00:00 | 00:00:00 | 00:00:00 | |
| OE5FHM-15 | 2026-09-01 01:47:29 | 48.20362 | 14.06583 | 101° | 57km/h | 4048m | -2.2m/s | -4.9°C | 39.1% | 626.0hPa | 2.7V | 00:00:00 | 03:18:00 | 00:00:00 | |
| DO3MHA-11 | 2026-09-01 01:47:28 | 48.20365 | 14.06562 | 100° | 58km/h | 4050m | -2.3m/s | -4.9°C | 39.1% | 625.9hPa | 2.7V | 07:15:00 | 03:17:59 | 00:00:00 | |
| OE3JTB-15 | 2026-09-01 01:47:27 | 48.20367 | 14.06541 | 98° | 57km/h | 4053m | -2.3m/s | -4.9°C | 39.0% | 625.7hPa | 2.7V | 00:00:00 | 00:00:00 | 00:00:00 | |
| OE5WHR-10 | 2026-09-01 01:47:26 | 48.20369 | 14.06519 | 97° | 57km/h | 4055m | -2.3m/s | -4.9°C | 38.8% | 625.5hPa | 2.7V | 00:00:00 | 00:00:00 | 00:00:00 | |
| OM5KV | 2026-09-01 01:47:24 | 48.20370 | 14.06497 | 99° | 60km/h | 4057m | -2.4m/s | -4.9°C | 38.4% | 625.4hPa | 2.6V | 07:15:00 | 00:00:00 | 00:00:00 | |
| DO3MHA-11 | 2026-09-01 01:47:23 | 48.20376 | 14.06451 | 103° | 57km/h | 4062m | -2.3m/s | -4.9°C | 38.6% | 625.0hPa | 2.6V | 00:00:00 | 03:17:54 | 00:00:00 | |
| OE5MMP-10 | 2026-09-01 01:47:21 | 48.20383 | 14.06408 | 104° | 55km/h | 4067m | -2.2m/s | -4.9°C | 38.5% | 624.6hPa | 2.7V | 07:15:00 | 03:17:52 | 00:00:00 | |
| OE5DRO-10 | 2026-09-01 01:47:20 | 48.20386 | 14.06388 | 103° | 57km/h | 4069m | -2.2m/s | -5.0°C | 38.5% | 624.3hPa | 2.7V | 00:00:00 | 00:00:00 | 00:00:00 | |
| OM5KV | 2026-09-01 01:47:19 | 48.20386 | 14.06388 | 103° | 55km/h | 4069m | -2.3m/s | -5.0°C | 38.2% | 624.4hPa | 2.7V | 07:15:00 | 00:00:00 | 00:00:00 | |
| DO3MHA-11 | 2026-09-01 01:47:18 | 48.20392 | 14.06346 | 102° | 55km/h | 4073m | -2.3m/s | -5.0°C | 38.3% | 624.0hPa | 2.7V | 00:00:00 | 03:17:49 | 00:00:00 | |
| OE5HKT-10 | 2026-09-01 01:47:14 | 48.20404 | 14.06264 | 102° | 57km/h | 4083m | -2.4m/s | -5.0°C | 38.0% | 623.3hPa | 2.7V | 00:00:00 | 03:17:45 | 00:00:00 | |
| DO3MHA-11 | 2026-09-01 01:47:13 | 48.20407 | 14.06244 | 100° | 57km/h | 4086m | -2.3m/s | -5.0°C | 37.7% | 623.0hPa | 2.7V | 00:00:00 | 03:17:44 | 00:00:00 | |
| OE5DXL-15 | 2026-09-01 01:47:12 | 48.20409 | 14.06223 | 100° | 57km/h | 4088m | -2.2m/s | -5.1°C | 37.4% | 623.0hPa | 2.7V | 07:15:00 | 00:00:00 | 00:00:00 | |
| OE5MMP-10 | 2026-09-01 01:47:11 | 48.20412 | 14.06202 | 101° | 57km/h | 4090m | -2.3m/s | -5.1°C | 37.3% | 622.7hPa | 2.7V | 00:00:00 | 03:17:42 | 00:00:00 | |
| OE5WHR-10 | 2026-09-01 01:47:09 | 48.20417 | 14.06160 | 102° | 57km/h | 4095m | -2.3m/s | -5.1°C | 37.0% | 622.3hPa | 2.7V | 00:00:00 | 00:00:00 | 00:00:00 | |
| DO3MHA-11 | 2026-09-01 01:47:08 | 48.20420 | 14.06139 | 101° | 57km/h | 4097m | -2.3m/s | -5.1°C | 36.7% | 622.2hPa | 2.7V | 00:00:00 | 03:17:39 | 00:00:00 | |
| OE5DRO-10 | 2026-09-01 01:47:04 | 48.20429 | 14.06055 | 102° | 57km/h | 4107m | -2.3m/s | -5.1°C | 34.9% | 621.3hPa | 2.6V | 00:00:00 | 00:00:00 | 00:00:00 | |
| DO3MHA-11 | 2026-09-01 01:47:03 | 48.20432 | 14.06034 | 101° | 55km/h | 4109m | -2.3m/s | -5.1°C | 34.3% | 621.3hPa | 2.7V | 00:00:00 | 03:17:34 | 00:00:00 | |
| OM5KV | 2026-09-01 01:47:02 | 48.20432 | 14.06034 | 102° | 55km/h | 4109m | -2.4m/s | -5.2°C | 34.0% | 621.4hPa | 2.7V | 07:15:00 | 00:00:00 | 00:00:00 | |
| OE5MMP-10 | 2026-09-01 01:47:01 | 48.20437 | 14.05994 | 99° | 57km/h | 4114m | -2.4m/s | -5.1°C | 33.9% | 620.8hPa | 2.7V | 00:00:00 | 03:17:32 | 00:00:00 | |
| OE5FHM-15 | 2026-09-01 01:46:59 | 48.20441 | 14.05952 | 101° | 57km/h | 4119m | -2.3m/s | -5.1°C | 32.6% | 620.4hPa | 2.6V | 00:00:00 | 03:17:30 | 00:00:00 | |
| DO3MHA-11 | 2026-09-01 01:46:58 | 48.20444 | 14.05931 | 102° | 57km/h | 4121m | -2.3m/s | -5.1°C | 31.4% | 620.2hPa | 2.6V | 00:00:00 | 03:17:29 | 00:00:00 | |
| OE5HKT-10 | 2026-09-01 01:46:57 | 48.20447 | 14.05910 | 102° | 57km/h | 4124m | -2.3m/s | -5.1°C | 29.7% | 620.1hPa | 2.6V | 00:00:00 | 00:00:00 | 00:00:00 | |
| DO3MHA-11 | 2026-09-01 01:46:53 | 48.20455 | 14.05826 | 99° | 57km/h | 4133m | -2.3m/s | -5.1°C | 29.8% | 619.2hPa | 2.7V | 00:00:00 | 03:17:24 | 00:00:00 | |
| OE5WHR-10 | 2026-09-01 01:46:52 | 48.20458 | 14.05804 | 100° | 57km/h | 4136m | -2.4m/s | -5.1°C | 28.2% | 619.0hPa | 2.7V | 07:15:00 | 03:17:23 | 00:00:00 | |
| OE5MMP-10 | 2026-09-01 01:46:51 | 48.20460 | 14.05783 | 101° | 57km/h | 4138m | -2.3m/s | -5.1°C | 28.6% | 618.9hPa | 2.7V | 00:00:00 | 03:17:22 | 00:00:00 | |
| DO3MHA-11 | 2026-09-01 01:46:48 | 48.20467 | 14.05719 | 100° | 57km/h | 4145m | -2.4m/s | -5.1°C | 28.6% | 618.4hPa | 2.7V | 07:15:00 | 03:17:19 | 00:00:00 | |
| OM5KV | 2026-09-01 01:46:46 | 48.20469 | 14.05698 | 102° | 58km/h | 4147m | -2.3m/s | 0°C | 0% | 0hPa | 2.7V | 00:00:00 | 00:00:00 | 00:00:00 | |
| DO3MHA-11 | 2026-09-01 01:46:43 | 48.20481 | 14.05615 | 99° | 57km/h | 4157m | -2.4m/s | -5.2°C | 27.8% | 617.4hPa | 2.7V | 00:00:00 | 03:17:14 | 00:00:00 | |
| OE5DXL-15 | 2026-09-01 01:46:42 | 48.20483 | 14.05594 | 98° | 58km/h | 4160m | -2.4m/s | -5.2°C | 27.9% | 617.2hPa | 2.7V | 00:00:00 | 00:00:00 | 00:00:00 | |
| OE5MMP-10 | 2026-09-01 01:46:41 | 48.20485 | 14.05573 | 98° | 58km/h | 4162m | -2.3m/s | -5.2°C | 28.1% | 617.1hPa | 2.7V | 00:00:00 | 03:17:12 | 00:00:00 | |
| OE5HKT-10 | 2026-09-01 01:46:40 | 48.20487 | 14.05551 | 99° | 58km/h | 4164m | -2.4m/s | -5.2°C | 28.4% | 616.8hPa | 2.7V | 07:15:00 | 00:00:00 | 00:00:00 | |
| DO3MHA-11 | 2026-09-01 01:46:38 | 48.20492 | 14.05507 | 100° | 58km/h | 4169m | -2.3m/s | -5.2°C | 28.5% | 616.4hPa | 2.7V | 00:00:00 | 03:17:09 | 00:00:00 | |
| OE5WHR-10 | 2026-09-01 01:46:35 | 48.20498 | 14.05442 | 99° | 58km/h | 4177m | -2.5m/s | -5.3°C | 28.3% | 615.9hPa | 2.7V | 00:00:00 | 00:00:00 | 00:00:00 | |
| DO3MHA-11 | 2026-09-01 01:46:33 | 48.20503 | 14.05398 | 101° | 57km/h | 4182m | -2.3m/s | -5.3°C | 28.4% | 615.5hPa | 2.6V | 00:00:00 | 03:17:04 | 00:00:00 | |
| OE5DRO-10 | 2026-09-01 01:46:32 | 48.20506 | 14.05376 | 102° | 57km/h | 4184m | -2.3m/s | -5.3°C | 28.3% | 615.2hPa | 2.6V | 00:00:00 | 00:00:00 | 00:00:00 | |
| OE5MMP-10 | 2026-09-01 01:46:31 | 48.20508 | 14.05356 | 100° | 57km/h | 4186m | -2.4m/s | -5.3°C | 28.4% | 615.2hPa | 2.6V | 00:00:00 | 03:17:02 | 00:00:00 | |
| OM5KV | 2026-09-01 01:46:30 | 48.20508 | 14.05356 | 101° | 55km/h | 4186m | -2.4m/s | -5.4°C | 28.1% | 615.3hPa | 2.6V | 07:16:00 | 00:00:00 | 00:00:00 | |
| OE3JTB-15 | 2026-09-01 01:46:29 | 48.20512 | 14.05314 | 97° | 58km/h | 4191m | -2.5m/s | -5.4°C | 28.3% | 614.8hPa | 2.6V | 00:00:00 | 03:17:00 | 00:00:00 | |
| DO3MHA-11 | 2026-09-01 01:46:28 | 48.20514 | 14.05292 | 97° | 58km/h | 4193m | -2.5m/s | -5.4°C | 28.4% | 614.5hPa | 2.6V | 00:00:00 | 03:16:59 | 00:00:00 | |
| OE5FHM-15 | 2026-09-01 01:46:26 | 48.20518 | 14.05247 | 100° | 58km/h | 4198m | -2.4m/s | -5.4°C | 28.4% | 614.2hPa | 2.6V | 00:00:00 | 03:16:57 | 00:00:00 | |
| OM5KV | 2026-09-01 01:46:24 | 48.20520 | 14.05225 | 101° | 58km/h | 4201m | -2.4m/s | -5.5°C | 28.1% | 614.0hPa | 2.6V | 07:16:00 | 00:00:00 | 00:00:00 | |
| DO3MHA-11 | 2026-09-01 01:46:23 | 48.20525 | 14.05183 | 98° | 57km/h | 4205m | -2.3m/s | -5.4°C | 28.3% | 613.6hPa | 2.6V | 00:00:00 | 03:16:54 | 00:00:00 | |
| OE5MMP-10 | 2026-09-01 01:46:21 | 48.20528 | 14.05140 | 98° | 58km/h | 4210m | -2.4m/s | -5.5°C | 28.2% | 613.3hPa | 2.7V | 00:00:00 | 03:16:52 | 00:00:00 | |
| OE5WHR-10 | 2026-09-01 01:46:18 | 48.20535 | 14.05075 | 100° | 58km/h | 4218m | -2.7m/s | -5.5°C | 28.3% | 612.6hPa | 2.7V | 00:00:00 | 00:00:00 | 00:00:00 | |
| OE5DRO-10 | 2026-09-01 01:46:16 | 48.20539 | 14.05033 | 97° | 58km/h | 4223m | -2.5m/s | -5.6°C | 28.3% | 612.2hPa | 2.7V | 00:00:00 | 00:00:00 | 00:00:00 | |
| DO3MHA-11 | 2026-09-01 01:46:12 | 48.20547 | 14.04944 | 100° | 58km/h | 4232m | -2.5m/s | -5.6°C | 28.3% | 611.5hPa | 2.7V | 00:00:00 | 03:16:43 | 00:00:00 | |
| OE5MMP-10 | 2026-09-01 01:46:11 | 48.20550 | 14.04922 | 99° | 58km/h | 4235m | -2.6m/s | -5.6°C | 28.4% | 611.4hPa | 2.7V | 00:00:00 | 03:16:42 | 00:00:00 | |
| DO3MHA-11 | 2026-09-01 01:46:07 | 48.20558 | 14.04835 | 100° | 58km/h | 4245m | -2.4m/s | -5.7°C | 28.3% | 610.5hPa | 2.7V | 07:16:00 | 03:16:38 | 00:00:00 | |
| OE5HKT-10 | 2026-09-01 01:46:06 | 48.20560 | 14.04813 | 100° | 58km/h | 4248m | -2.5m/s | -5.7°C | 28.3% | 610.2hPa | 2.7V | 00:00:00 | 00:00:00 | 00:00:00 | |
| DO3MHA-11 | 2026-09-01 01:46:02 | 48.20569 | 14.04725 | 100° | 58km/h | 4258m | -2.4m/s | -5.8°C | 28.2% | 609.6hPa | 2.7V | 00:00:00 | 03:16:33 | 00:00:00 | |
| OE5MMP-10 | 2026-09-01 01:46:01 | 48.20572 | 14.04703 | 101° | 58km/h | 4260m | -2.5m/s | -5.8°C | 28.3% | 609.4hPa | 2.7V | 07:16:00 | 03:16:32 | 00:00:00 | |
| OE3JTB-15 | 2026-09-01 01:46:00 | 48.20574 | 14.04681 | 100° | 58km/h | 4263m | -2.6m/s | -5.8°C | 28.3% | 609.1hPa | 2.7V | 00:00:00 | 00:00:00 | 00:00:00 | |
| OE5FHM-15 | 2026-09-01 01:45:56 | 48.20582 | 14.04593 | 99° | 60km/h | 4273m | -2.5m/s | -5.9°C | 28.4% | 608.4hPa | 2.7V | 00:00:00 | 03:16:27 | 00:00:00 | |
| OM5KV | 2026-09-01 01:45:55 | 48.20582 | 14.04593 | 100° | 60km/h | 4273m | -2.6m/s | -6.0°C | 28.1% | 608.4hPa | 2.6V | 07:16:00 | 00:00:00 | 00:00:00 | |
| OE5MMP-10 | 2026-09-01 01:45:51 | 48.20594 | 14.04481 | 99° | 60km/h | 4286m | -2.6m/s | -6.0°C | 28.7% | 607.3hPa | 2.6V | 00:00:00 | 03:16:22 | 00:00:00 | |
| OE5HKT-10 | 2026-09-01 01:45:49 | 48.20599 | 14.04435 | 102° | 58km/h | 4291m | -2.5m/s | -6.1°C | 28.7% | 607.0hPa | 2.6V | 00:00:00 | 00:00:00 | 00:00:00 | |
| OE5WHR-10 | 2026-09-01 01:45:44 | 48.20614 | 14.04324 | 100° | 58km/h | 4304m | -2.4m/s | -6.2°C | 28.9% | 606.0hPa | 2.6V | 00:00:00 | 00:00:00 | 00:00:00 | |
| OM5KV | 2026-09-01 01:45:43 | 48.20614 | 14.04324 | 101° | 62km/h | 4304m | -2.5m/s | -6.2°C | 28.6% | 606.0hPa | 2.7V | 07:17:00 | 00:00:00 | 00:00:00 | |
| OE5DXL-15 | 2026-09-01 01:45:42 | 48.20620 | 14.04279 | 103° | 58km/h | 4309m | -2.4m/s | -6.2°C | 29.0% | 605.6hPa | 2.7V | 00:00:00 | 00:00:00 | 00:00:00 | |
| OE5MMP-10 | 2026-09-01 01:45:41 | 48.20623 | 14.04257 | 103° | 58km/h | 4312m | -2.6m/s | -6.3°C | 29.0% | 605.3hPa | 2.7V | 00:00:00 | 03:16:12 | 00:00:00 | |
| DO3MHA-11 | 2026-09-01 01:45:38 | 48.20631 | 14.04193 | 100° | 58km/h | 4320m | -2.4m/s | -6.3°C | 29.2% | 604.8hPa | 2.7V | 00:00:00 | 03:16:09 | 00:00:00 | |
| OM5KV | 2026-09-01 01:45:37 | 48.20631 | 14.04193 | 101° | 58km/h | 4320m | -2.4m/s | -6.4°C | 28.9% | 604.8hPa | 2.7V | 07:17:00 | 00:00:00 | 00:00:00 | |
| DO3MHA-11 | 2026-09-01 01:45:33 | 48.20644 | 14.04085 | 99° | 60km/h | 4333m | -2.5m/s | -6.4°C | 29.4% | 603.7hPa | 2.7V | 00:00:00 | 03:16:04 | 00:00:00 | |
| OE5HKT-10 | 2026-09-01 01:45:32 | 48.20646 | 14.04062 | 100° | 60km/h | 4335m | -2.4m/s | -6.5°C | 29.4% | 603.5hPa | 2.6V | 00:00:00 | 03:16:03 | 00:00:00 | |
| OE5MMP-10 | 2026-09-01 01:45:31 | 48.20649 | 14.04039 | 102° | 58km/h | 4338m | -2.6m/s | -6.5°C | 29.4% | 603.4hPa | 2.6V | 00:00:00 | 03:16:02 | 00:00:00 | |
| DO3MHA-11 | 2026-09-01 01:45:28 | 48.20660 | 14.03973 | 105° | 58km/h | 4346m | -2.6m/s | -6.5°C | 29.6% | 602.7hPa | 2.6V | 00:00:00 | 03:15:59 | 00:00:00 | |
| OE5WHR-10 | 2026-09-01 01:45:27 | 48.20664 | 14.03951 | 104° | 58km/h | 4348m | -2.5m/s | -6.5°C | 29.8% | 602.6hPa | 2.6V | 00:00:00 | 00:00:00 | 00:00:00 | |
| OE5FHM-15 | 2026-09-01 01:45:26 | 48.20667 | 14.03930 | 104° | 57km/h | 4351m | -2.5m/s | -6.6°C | 29.8% | 602.3hPa | 2.6V | 00:00:00 | 03:15:57 | 00:00:00 | |
| DO3MHA-11 | 2026-09-01 01:45:23 | 48.20677 | 14.03866 | 102° | 58km/h | 4359m | -2.8m/s | -6.6°C | 30.0% | 601.7hPa | 2.6V | 00:00:00 | 03:15:54 | 00:00:00 | |
| OE5MMP-10 | 2026-09-01 01:45:21 | 48.20682 | 14.03825 | 96° | 60km/h | 4365m | -2.6m/s | -6.7°C | 30.3% | 601.3hPa | 2.6V | 00:00:00 | 03:15:52 | 00:00:00 | |
| OM5KV | 2026-09-01 01:45:20 | 48.20682 | 14.03825 | 97° | 57km/h | 4365m | -2.6m/s | -6.7°C | 29.9% | 601.3hPa | 2.6V | 07:17:00 | 00:00:00 | 00:00:00 | |
| DO3MHA-11 | 2026-09-01 01:45:18 | 48.20687 | 14.03756 | 101° | 62km/h | 4373m | -2.7m/s | -6.7°C | 30.5% | 600.7hPa | 2.6V | 00:00:00 | 03:15:49 | 00:00:00 | |
| OE5HKT-10 | 2026-09-01 01:45:15 | 48.20699 | 14.03687 | 108° | 57km/h | 4382m | -2.7m/s | -6.8°C | 31.0% | 600.0hPa | 2.7V | 00:00:00 | 00:00:00 | 00:00:00 | |
| DO3MHA-11 | 2026-09-01 01:45:13 | 48.20708 | 14.03645 | 107° | 55km/h | 4387m | -2.7m/s | -6.9°C | 31.0% | 599.6hPa | 2.7V | 00:00:00 | 03:15:44 | 00:00:00 | |
| OE5DRO-10 | 2026-09-01 01:45:12 | 48.20712 | 14.03626 | 105° | 57km/h | 4390m | -2.8m/s | -6.9°C | 31.2% | 599.3hPa | 2.7V | 00:00:00 | 00:00:00 | 00:00:00 | |
| OE5MMP-10 | 2026-09-01 01:45:11 | 48.20715 | 14.03606 | 103° | 57km/h | 4393m | -2.8m/s | -6.9°C | 31.4% | 599.2hPa | 2.7V | 00:00:00 | 03:15:42 | 00:00:00 | |
| OE5WHR-10 | 2026-09-01 01:45:10 | 48.20717 | 14.03586 | 101° | 57km/h | 4396m | -2.7m/s | -6.9°C | 31.6% | 598.9hPa | 2.7V | 00:00:00 | 03:15:41 | 00:00:00 | |
| OE5REO-15 | 2026-09-01 01:45:09 | 48.20718 | 14.03586 | 101° | 55km/h | 4396m | -2.7m/s | -7.0°C | 31.2% | 599.0hPa | 2.7V | 00:00:00 | 00:00:00 | 00:00:00 | |
| DO3MHA-11 | 2026-09-01 01:45:08 | 48.20722 | 14.03544 | 99° | 57km/h | 4401m | -2.6m/s | -7.0°C | 32.1% | 598.5hPa | 2.7V | 07:17:00 | 03:15:39 | 00:00:00 | |
| OM5KV | 2026-09-01 01:45:03 | 48.20733 | 14.03459 | 101° | 55km/h | 4412m | -2.8m/s | -7.1°C | 32.3% | 597.7hPa | 2.7V | 07:17:00 | 00:00:00 | 00:00:00 | |
| OE3JTB-15 | 2026-09-01 01:45:02 | 48.20738 | 14.03418 | 101° | 57km/h | 4417m | -2.7m/s | -7.0°C | 32.9% | 597.2hPa | 2.7V | 00:00:00 | 03:15:33 | 00:00:00 | |
| OE5MMP-10 | 2026-09-01 01:45:01 | 48.20740 | 14.03396 | 102° | 57km/h | 4421m | -2.7m/s | -7.0°C | 32.9% | 597.1hPa | 2.7V | 00:00:00 | 03:15:32 | 00:00:00 | |
| DO3MHA-11 | 2026-09-01 01:44:58 | 48.20749 | 14.03334 | 101° | 58km/h | 4429m | -2.7m/s | -7.0°C | 27.7% | 596.3hPa | 2.6V | 00:00:00 | 03:15:29 | 00:00:00 | |
| OM5KV | 2026-09-01 01:44:57 | 48.20749 | 14.03334 | 102° | 55km/h | 4429m | -2.7m/s | -7.0°C | 27.3% | 596.4hPa | 2.6V | 07:18:00 | 00:00:00 | 00:00:00 | |
| OE5FHM-15 | 2026-09-01 01:44:56 | 48.20754 | 14.03291 | 99° | 57km/h | 4435m | -2.6m/s | -6.8°C | 22.7% | 596.0hPa | 2.6V | 07:17:00 | 03:15:27 | 00:00:00 | |
| DO3MHA-11 | 2026-09-01 01:44:53 | 48.20762 | 14.03226 | 101° | 57km/h | 4443m | -2.6m/s | -6.8°C | 22.4% | 595.4hPa | 2.6V | 00:00:00 | 03:15:24 | 00:00:00 | |
| OE5MMP-10 | 2026-09-01 01:44:51 | 48.20767 | 14.03184 | 99° | 58km/h | 4448m | -2.8m/s | -6.8°C | 24.1% | 594.9hPa | 2.6V | 00:00:00 | 03:15:22 | 00:00:00 | |
| DO3MHA-11 | 2026-09-01 01:44:48 | 48.20773 | 14.03119 | 101° | 57km/h | 4456m | -2.8m/s | -6.9°C | 28.5% | 594.2hPa | 2.6V | 00:00:00 | 03:15:19 | 00:00:00 | |
| OM5KV | 2026-09-01 01:44:45 | 48.20779 | 14.03077 | 100° | 57km/h | 4462m | -2.8m/s | -7.0°C | 30.4% | 593.7hPa | 2.6V | 07:18:00 | 00:00:00 | 00:00:00 | |
| DO3MHA-11 | 2026-09-01 01:44:43 | 48.20785 | 14.03012 | 101° | 57km/h | 4471m | -2.8m/s | -7.0°C | 33.3% | 593.1hPa | 2.6V | 00:00:00 | 03:15:14 | 00:00:00 | |
| OE5DXL-15 | 2026-09-01 01:44:42 | 48.20788 | 14.02990 | 102° | 57km/h | 4474m | -2.8m/s | -7.0°C | 34.4% | 593.0hPa | 2.6V | 00:00:00 | 00:00:00 | 00:00:00 | |
| OE5MMP-10 | 2026-09-01 01:44:41 | 48.20790 | 14.02969 | 102° | 57km/h | 4476m | -2.8m/s | -7.0°C | 32.9% | 592.7hPa | 2.6V | 07:17:00 | 03:15:12 | 00:00:00 | |
| OE5DRO-10 | 2026-09-01 01:44:40 | 48.20793 | 14.02948 | 100° | 57km/h | 4479m | -2.8m/s | -6.9°C | 30.3% | 592.5hPa | 2.6V | 00:00:00 | 00:00:00 | 00:00:00 | |
| DO3MHA-11 | 2026-09-01 01:44:38 | 48.20797 | 14.02906 | 98° | 58km/h | 4485m | -2.8m/s | -6.9°C | 23.3% | 592.0hPa | 2.7V | 00:00:00 | 03:15:09 | 00:00:00 | |
| OE5REO-15 | 2026-09-01 01:44:37 | 48.20797 | 14.02906 | 98° | 57km/h | 4485m | -2.8m/s | -6.9°C | 23.0% | 592.0hPa | 2.7V | 07:18:00 | 00:00:00 | 00:00:00 | |
| OE5WHR-10 | 2026-09-01 01:44:36 | 48.20801 | 14.02862 | 100° | 57km/h | 4490m | -2.7m/s | -6.8°C | 21.8% | 591.6hPa | 2.7V | 07:17:00 | 00:00:00 | 00:00:00 | |
| OM5KV | 2026-09-01 01:44:34 | 48.20804 | 14.02840 | 101° | 58km/h | 4493m | -2.8m/s | -6.8°C | 19.9% | 591.4hPa | 2.7V | 07:18:00 | 00:00:00 | 00:00:00 | |
| DO3MHA-11 | 2026-09-01 01:44:33 | 48.20808 | 14.02798 | 99° | 58km/h | 4499m | -2.8m/s | -6.5°C | 12.1% | 590.9hPa | 2.7V | 00:00:00 | 03:15:04 | 00:00:00 | |
| OE5MMP-10 | 2026-09-01 01:44:31 | 48.20813 | 14.02754 | 101° | 57km/h | 4505m | -2.8m/s | -6.5°C | 12.6% | 590.6hPa | 2.7V | 00:00:00 | 03:15:02 | 00:00:00 | |
| DO3MHA-11 | 2026-09-01 01:44:28 | 48.20822 | 14.02690 | 102° | 55km/h | 4513m | -2.8m/s | -6.3°C | 11.4% | 589.8hPa | 2.7V | 07:18:00 | 03:14:59 | 00:00:00 | |
| OE5FHM-15 | 2026-09-01 01:44:26 | 48.20827 | 14.02649 | 98° | 58km/h | 4519m | -2.8m/s | -6.2°C | 10.4% | 589.5hPa | 2.7V | 00:00:00 | 03:14:57 | 00:00:00 | |
| OE5DRO-10 | 2026-09-01 01:44:24 | 48.20831 | 14.02607 | 100° | 57km/h | 4525m | -2.8m/s | -6.3°C | 10.0% | 589.1hPa | 2.7V | 00:00:00 | 00:00:00 | 00:00:00 | |
| DO3MHA-11 | 2026-09-01 01:44:23 | 48.20833 | 14.02586 | 100° | 55km/h | 4527m | -2.9m/s | -6.3°C | 10.1% | 588.8hPa | 2.7V | 00:00:00 | 03:14:54 | 00:00:00 | |
| OM5KV | 2026-09-01 01:44:22 | 48.20833 | 14.02586 | 100° | 55km/h | 4527m | -2.9m/s | -6.3°C | 9.9% | 588.9hPa | 2.7V | 07:18:00 | 00:00:00 | 00:00:00 | |
| OE5MMP-10 | 2026-09-01 01:44:21 | 48.20837 | 14.02545 | 97° | 58km/h | 4533m | -2.8m/s | -6.3°C | 10.7% | 588.4hPa | 2.7V | 00:00:00 | 03:14:52 | 00:00:00 | |
| OE5WHR-10 | 2026-09-01 01:44:19 | 48.20841 | 14.02501 | 100° | 58km/h | 4539m | -2.8m/s | -6.4°C | 11.0% | 587.9hPa | 2.7V | 00:00:00 | 03:14:50 | 00:00:00 | |
| DO3MHA-11 | 2026-09-01 01:44:18 | 48.20844 | 14.02479 | 102° | 57km/h | 4542m | -2.8m/s | -6.4°C | 11.0% | 587.8hPa | 2.7V | 00:00:00 | 03:14:49 | 00:00:00 | |
| DO3MHA-11 | 2026-09-01 01:44:13 | 48.20859 | 14.02373 | 102° | 58km/h | 4557m | -2.7m/s | -6.6°C | 11.7% | 586.6hPa | 2.7V | 00:00:00 | 03:14:44 | 00:00:00 | |
| OE5DXL-15 | 2026-09-01 01:44:12 | 48.20862 | 14.02351 | 103° | 58km/h | 4560m | -2.9m/s | -6.6°C | 11.8% | 586.4hPa | 2.7V | 00:00:00 | 00:00:00 | 00:00:00 | |
| OE5MMP-10 | 2026-09-01 01:44:11 | 48.20865 | 14.02330 | 104° | 58km/h | 4563m | -3.0m/s | -6.6°C | 11.9% | 586.1hPa | 2.7V | 00:00:00 | 03:14:42 | 00:00:00 | |
| DO3MHA-11 | 2026-09-01 01:44:08 | 48.20874 | 14.02265 | 100° | 60km/h | 4572m | -2.8m/s | -6.7°C | 11.9% | 585.5hPa | 2.7V | 00:00:00 | 03:14:39 | 00:00:00 | |
| OE5HKT-10 | 2026-09-01 01:44:07 | 48.20876 | 14.02242 | 101° | 58km/h | 4574m | -2.9m/s | -6.7°C | 12.0% | 585.3hPa | 2.7V | 00:00:00 | 00:00:00 | 00:00:00 | |
| OM5KV | 2026-09-01 01:44:06 | 48.20876 | 14.02242 | 102° | 62km/h | 4574m | -2.9m/s | 0°C | 0% | 585.4hPa | 2.7V | 07:19:00 | 00:00:00 | 00:00:00 | |
| OE5REO-15 | 2026-09-01 01:44:05 | 48.20880 | 14.02220 | 104° | 60km/h | 4577m | -2.9m/s | -6.8°C | 11.8% | 585.1hPa | 2.7V | 07:19:00 | 00:00:00 | 00:00:00 | |
| OE3JTB-15 | 2026-09-01 01:44:04 | 48.20886 | 14.02176 | 104° | 58km/h | 4584m | -2.8m/s | -6.8°C | 11.9% | 584.6hPa | 2.7V | 07:18:00 | 00:00:00 | 00:00:00 | |
| OE5WHR-10 | 2026-09-01 01:44:02 | 48.20892 | 14.02133 | 101° | 58km/h | 4589m | -3.0m/s | -6.8°C | 11.9% | 584.2hPa | 2.7V | 00:00:00 | 00:00:00 | 00:00:00 | |
| OE5MMP-10 | 2026-09-01 01:44:01 | 48.20895 | 14.02111 | 102° | 58km/h | 4592m | -2.8m/s | -6.9°C | 11.9% | 583.9hPa | 2.7V | 00:00:00 | 03:14:32 | 00:00:00 | |
| OM5KV | 2026-09-01 01:43:59 | 48.20899 | 14.02088 | 104° | 60km/h | 4595m | -3.0m/s | 0°C | 0% | 583.7hPa | 2.6V | 07:19:00 | 00:00:00 | 00:00:00 | |
| DO3MHA-11 | 2026-09-01 01:43:58 | 48.20906 | 14.02045 | 103° | 58km/h | 4601m | -2.9m/s | -6.9°C | 11.8% | 583.3hPa | 2.6V | 00:00:00 | 03:14:29 | 00:00:00 | |
| OE5FHM-15 | 2026-09-01 01:43:56 | 48.20912 | 14.02002 | 101° | 60km/h | 4607m | -2.8m/s | -7.0°C | 11.5% | 582.8hPa | 2.6V | 00:00:00 | 03:14:27 | 00:00:00 | |
| DO3MHA-11 | 2026-09-01 01:43:53 | 48.20922 | 14.01935 | 105° | 58km/h | 4616m | -3.0m/s | -6.9°C | 10.1% | 582.1hPa | 2.6V | 00:00:00 | 03:14:24 | 00:00:00 | |
| OE5DRO-10 | 2026-09-01 01:43:52 | 48.20925 | 14.01914 | 105° | 58km/h | 4619m | -2.8m/s | -6.8°C | 9.5% | 581.9hPa | 2.6V | 00:00:00 | 00:00:00 | 00:00:00 | |
| OE5MMP-10 | 2026-09-01 01:43:51 | 48.20929 | 14.01893 | 103° | 60km/h | 4622m | -2.8m/s | -6.8°C | 9.1% | 581.8hPa | 2.7V | 00:00:00 | 03:14:22 | 00:00:00 | |
| OE5HKT-10 | 2026-09-01 01:43:50 | 48.20932 | 14.01871 | 102° | 58km/h | 4625m | -3.0m/s | -6.8°C | 9.0% | 581.5hPa | 2.7V | 00:00:00 | 03:14:21 | 00:00:00 | |
| DO3MHA-11 | 2026-09-01 01:43:48 | 48.20938 | 14.01827 | 104° | 58km/h | 4631m | -3.0m/s | -6.8°C | 8.7% | 581.0hPa | 2.7V | 07:18:00 | 03:14:19 | 00:00:00 | |
| OE5WHR-10 | 2026-09-01 01:43:45 | 48.20949 | 14.01762 | 102° | 60km/h | 4640m | -3.0m/s | -6.8°C | 8.3% | 580.4hPa | 2.7V | 00:00:00 | 00:00:00 | 00:00:00 | |
| DO3MHA-11 | 2026-09-01 01:43:43 | 48.20955 | 14.01717 | 103° | 60km/h | 4646m | -3.0m/s | -6.9°C | 8.2% | 579.9hPa | 2.7V | 00:00:00 | 03:14:14 | 00:00:00 | |
| OE5DXL-15 | 2026-09-01 01:43:42 | 48.20958 | 14.01695 | 105° | 60km/h | 4649m | -2.9m/s | -6.9°C | 8.2% | 579.8hPa | 2.7V | 00:00:00 | 00:00:00 | 00:00:00 | |
| OE5MMP-10 | 2026-09-01 01:43:41 | 48.20962 | 14.01673 | 105° | 58km/h | 4652m | -2.8m/s | -6.9°C | 8.2% | 579.4hPa | 2.6V | 00:00:00 | 03:14:12 | 00:00:00 | |
| DO3MHA-11 | 2026-09-01 01:43:38 | 48.20972 | 14.01608 | 102° | 58km/h | 4660m | -2.9m/s | -7.0°C | 8.3% | 578.9hPa | 2.6V | 00:00:00 | 03:14:09 | 00:00:00 | |
| OE5DRO-10 | 2026-09-01 01:43:36 | 48.20979 | 14.01564 | 104° | 60km/h | 4666m | -2.9m/s | -7.0°C | 8.3% | 578.5hPa | 2.6V | 00:00:00 | 00:00:00 | 00:00:00 | |
| OE3JTB-15 | 2026-09-01 01:43:35 | 48.20982 | 14.01542 | 104° | 60km/h | 4670m | -2.9m/s | -7.0°C | 8.3% | 578.1hPa | 2.6V | 00:00:00 | 03:14:06 | 00:00:00 | |
| DO3MHA-11 | 2026-09-01 01:43:33 | 48.20988 | 14.01499 | 100° | 60km/h | 4676m | -3.0m/s | -7.1°C | 8.4% | 577.7hPa | 2.6V | 00:00:00 | 03:14:04 | 00:00:00 | |
| OE5MMP-10 | 2026-09-01 01:43:31 | 48.20994 | 14.01454 | 102° | 60km/h | 4681m | -2.9m/s | -7.1°C | 8.4% | 577.3hPa | 2.7V | 00:00:00 | 03:14:02 | 00:00:00 | |
| OE5WHR-10 | 2026-09-01 01:43:28 | 48.21003 | 14.01387 | 101° | 60km/h | 4690m | -2.9m/s | -7.2°C | 8.4% | 576.7hPa | 2.7V | 00:00:00 | 03:13:59 | 00:00:00 | |
| OE5FHM-15 | 2026-09-01 01:43:26 | 48.21008 | 14.01342 | 100° | 62km/h | 4696m | -3.0m/s | -7.3°C | 8.4% | 576.2hPa | 2.7V | 00:00:00 | 03:13:57 | 00:00:00 | |
| OM5KV | 2026-09-01 01:43:24 | 48.21011 | 14.01319 | 101° | 62km/h | 4699m | -2.9m/s | 0°C | 0% | 576.0hPa | 2.7V | 07:19:00 | 00:00:00 | 00:00:00 | |
| DO3MHA-11 | 2026-09-01 01:43:23 | 48.21017 | 14.01274 | 102° | 60km/h | 4706m | -2.9m/s | -7.3°C | 8.4% | 575.5hPa | 2.7V | 00:00:00 | 03:13:54 | 00:00:00 | |
| OE5MMP-10 | 2026-09-01 01:43:21 | 48.21022 | 14.01230 | 98° | 60km/h | 4711m | -3.1m/s | -7.4°C | 8.8% | 575.2hPa | 2.7V | 07:19:00 | 03:13:52 | 00:00:00 | |
| OE5DRO-10 | 2026-09-01 01:43:20 | 48.21024 | 14.01208 | 99° | 62km/h | 4714m | -3.0m/s | -7.4°C | 8.9% | 574.8hPa | 2.7V | 07:19:00 | 00:00:00 | 00:00:00 | |
| DO3MHA-11 | 2026-09-01 01:43:18 | 48.21029 | 14.01162 | 100° | 60km/h | 4720m | -2.9m/s | -7.4°C | 9.7% | 574.4hPa | 2.7V | 00:00:00 | 03:13:49 | 00:00:00 | |
| OE5HKT-10 | 2026-09-01 01:43:16 | 48.21033 | 14.01118 | 98° | 62km/h | 4727m | -3.1m/s | -7.5°C | 10.0% | 574.0hPa | 2.7V | 00:00:00 | 00:00:00 | 00:00:00 | |
| DO3MHA-11 | 2026-09-01 01:43:13 | 48.21039 | 14.01049 | 99° | 62km/h | 4736m | -3.0m/s | -7.5°C | 10.0% | 573.3hPa | 2.7V | 00:00:00 | 03:13:44 | 00:00:00 | |
| OE5DXL-15 | 2026-09-01 01:43:12 | 48.21041 | 14.01025 | 101° | 62km/h | 4739m | -2.8m/s | -7.5°C | 10.4% | 573.0hPa | 2.7V | 07:19:00 | 00:00:00 | 00:00:00 | |
| OE5WHR-10 | 2026-09-01 01:43:11 | 48.21044 | 14.01001 | 101° | 62km/h | 4742m | -2.8m/s | -7.5°C | 10.4% | 572.8hPa | 2.7V | 00:00:00 | 00:00:00 | 00:00:00 | |
| DO3MHA-11 | 2026-09-01 01:43:08 | 48.21052 | 14.00932 | 99° | 62km/h | 4751m | -3.1m/s | -7.6°C | 10.1% | 572.1hPa | 2.7V | 07:19:00 | 03:13:39 | 00:00:00 | |
| OE3JTB-15 | 2026-09-01 01:43:06 | 48.21057 | 14.00886 | 101° | 62km/h | 4757m | -2.9m/s | -7.6°C | 9.4% | 571.6hPa | 2.7V | 00:00:00 | 00:00:00 | 00:00:00 | |
| OE5DRO-10 | 2026-09-01 01:43:04 | 48.21063 | 14.00840 | 100° | 62km/h | 4763m | -3.1m/s | -7.6°C | 9.0% | 571.2hPa | 2.6V | 00:00:00 | 00:00:00 | 00:00:00 | |
| DO3MHA-11 | 2026-09-01 01:43:03 | 48.21065 | 14.00818 | 97° | 62km/h | 4766m | -3.1m/s | -7.6°C | 9.0% | 571.0hPa | 2.6V | 00:00:00 | 03:13:34 | 00:00:00 | |
| OE5REO-15 | 2026-09-01 01:43:02 | 48.21065 | 14.00818 | 98° | 60km/h | 4766m | -3.2m/s | -7.7°C | 8.8% | 571.0hPa | 2.7V | 07:20:00 | 00:00:00 | 00:00:00 | |
| OE5MMP-10 | 2026-09-01 01:43:01 | 48.21068 | 14.00772 | 96° | 62km/h | 4773m | -3.0m/s | -7.7°C | 9.1% | 570.5hPa | 2.7V | 00:00:00 | 03:13:32 | 00:00:00 | |
| OE5HKT-10 | 2026-09-01 01:42:59 | 48.21072 | 14.00724 | 99° | 64km/h | 4779m | -3.0m/s | -7.7°C | 9.6% | 570.1hPa | 2.7V | 00:00:00 | 03:13:30 | 00:00:00 | |
| OE5FHM-15 | 2026-09-01 01:42:56 | 48.21079 | 14.00655 | 97° | 64km/h | 4788m | -3.1m/s | -7.7°C | 11.4% | 569.4hPa | 2.7V | 00:00:00 | 03:13:27 | 00:00:00 | |
| OE5WHR-10 | 2026-09-01 01:42:54 | 48.21082 | 14.00607 | 99° | 64km/h | 4794m | -2.9m/s | -7.7°C | 8.3% | 568.9hPa | 2.7V | 00:00:00 | 00:00:00 | 00:00:00 | |
| OE5MMP-10 | 2026-09-01 01:42:51 | 48.21090 | 14.00537 | 99° | 64km/h | 4804m | -3.0m/s | -7.7°C | 7.6% | 568.3hPa | 2.7V | 00:00:00 | 03:13:22 | 00:00:00 | |
| OE5DRO-10 | 2026-09-01 01:42:48 | 48.21097 | 14.00466 | 98° | 64km/h | 4813m | -3.0m/s | -7.8°C | 7.6% | 567.6hPa | 2.7V | 00:00:00 | 00:00:00 | 00:00:00 | |
| OE5REO-15 | 2026-09-01 01:42:47 | 48.21097 | 14.00466 | 99° | 64km/h | 4813m | -3.1m/s | -7.8°C | 7.4% | 567.6hPa | 2.7V | 07:20:00 | 00:00:00 | 00:00:00 | |
| DO3MHA-11 | 2026-09-01 01:42:44 | 48.21106 | 14.00371 | 98° | 64km/h | 4825m | -3.0m/s | -7.9°C | 7.4% | 566.7hPa | 2.7V | 00:00:00 | 03:13:15 | 00:00:00 | |
| OE5DXL-15 | 2026-09-01 01:42:42 | 48.21111 | 14.00322 | 100° | 66km/h | 4832m | -3.1m/s | -7.8°C | 7.2% | 566.2hPa | 2.7V | 00:00:00 | 00:00:00 | 00:00:00 | |
| OE5MMP-10 | 2026-09-01 01:42:41 | 48.21114 | 14.00298 | 101° | 64km/h | 4835m | -3.0m/s | -7.9°C | 7.2% | 566.0hPa | 2.7V | 00:00:00 | 03:13:12 | 00:00:00 | |
| DO3MHA-11 | 2026-09-01 01:42:37 | 48.21123 | 14.00203 | 97° | 66km/h | 4848m | -3.1m/s | -7.9°C | 7.1% | 565.1hPa | 2.7V | 00:00:00 | 03:13:08 | 00:00:00 | |
| OE5DRO-10 | 2026-09-01 01:42:32 | 48.21136 | 14.00080 | 99° | 66km/h | 4863m | -3.0m/s | -8.0°C | 6.9% | 564.0hPa | 2.7V | 00:00:00 | 00:00:00 | 00:00:00 | |
| OE5MMP-10 | 2026-09-01 01:42:31 | 48.21139 | 14.00056 | 98° | 66km/h | 4866m | -3.0m/s | -8.1°C | 6.9% | 563.7hPa | 2.7V | 00:00:00 | 03:13:02 | 00:00:00 | |
| OE5FHM-15 | 2026-09-01 01:42:26 | 48.21152 | 13.99936 | 98° | 66km/h | 4882m | -3.1m/s | -8.1°C | 6.8% | 562.5hPa | 2.7V | 00:00:00 | 03:12:57 | 00:00:00 | |
| OE5HKT-10 | 2026-09-01 01:42:25 | 48.21154 | 13.99911 | 98° | 66km/h | 4885m | -3.1m/s | -8.2°C | 6.7% | 562.3hPa | 2.7V | 00:00:00 | 00:00:00 | 00:00:00 | |
| OE5MMP-10 | 2026-09-01 01:42:21 | 48.21163 | 13.99812 | 98° | 66km/h | 4898m | -3.1m/s | -8.3°C | 6.7% | 561.4hPa | 2.7V | 00:00:00 | 03:12:52 | 00:00:00 | |
| OE5WHR-10 | 2026-09-01 01:42:20 | 48.21165 | 13.99787 | 99° | 66km/h | 4901m | -3.0m/s | -8.3°C | 6.7% | 561.3hPa | 2.7V | 07:20:00 | 00:00:00 | 00:00:00 | |
| DO3MHA-11 | 2026-09-01 01:42:17 | 48.21175 | 13.99713 | 102° | 64km/h | 4910m | -3.0m/s | -8.3°C | 6.8% | 560.6hPa | 2.6V | 00:00:00 | 03:12:48 | 00:00:00 | |
| OE5DRO-10 | 2026-09-01 01:42:16 | 48.21178 | 13.99689 | 101° | 66km/h | 4913m | -3.1m/s | -8.4°C | 6.8% | 560.3hPa | 2.6V | 00:00:00 | 00:00:00 | 00:00:00 | |
| OE5DXL-15 | 2026-09-01 01:42:12 | 48.21187 | 13.99593 | 99° | 64km/h | 4926m | -2.9m/s | -8.5°C | 6.7% | 559.4hPa | 2.7V | 00:00:00 | 00:00:00 | 00:00:00 | |
| OE5MMP-10 | 2026-09-01 01:42:11 | 48.21190 | 13.99568 | 101° | 66km/h | 4929m | -2.9m/s | -8.5°C | 6.6% | 559.3hPa | 2.7V | 00:00:00 | 03:12:42 | 00:00:00 | |
| OE5HKT-10 | 2026-09-01 01:42:08 | 48.21198 | 13.99496 | 99° | 66km/h | 4938m | -2.9m/s | -8.6°C | 6.6% | 558.4hPa | 2.7V | 07:20:00 | 03:12:39 | 00:00:00 | |
| OE5WHR-10 | 2026-09-01 01:42:03 | 48.21213 | 13.99373 | 100° | 64km/h | 4953m | -3.0m/s | -8.7°C | 6.7% | 557.4hPa | 2.7V | 00:00:00 | 00:00:00 | 00:00:00 | |
| OE5MMP-10 | 2026-09-01 01:42:01 | 48.21218 | 13.99325 | 100° | 64km/h | 4959m | -3.0m/s | -8.8°C | 6.8% | 556.9hPa | 2.7V | 07:20:00 | 03:12:32 | 00:00:00 | |
| DO3MHA-11 | 2026-09-01 01:42:00 | 48.21221 | 13.99299 | 101° | 64km/h | 4962m | -3.0m/s | -8.8°C | 6.8% | 556.7hPa | 2.7V | 07:20:00 | 03:12:31 | 00:00:00 | |
| OE5FHM-15 | 2026-09-01 01:41:56 | 48.21232 | 13.99203 | 98° | 64km/h | 4974m | -2.9m/s | -8.9°C | 6.9% | 555.9hPa | 2.7V | 00:00:00 | 03:12:27 | 00:00:00 | |
| DO3MHA-11 | 2026-09-01 01:41:55 | 48.21234 | 13.99179 | 99° | 64km/h | 4977m | -3.0m/s | -8.9°C | 6.9% | 555.6hPa | 2.7V | 00:00:00 | 03:12:26 | 00:00:00 | |
| OE5MMP-10 | 2026-09-01 01:41:51 | 48.21246 | 13.99084 | 100° | 64km/h | 4989m | -3.0m/s | -8.9°C | 6.7% | 554.7hPa | 2.7V | 00:00:00 | 03:12:22 | 00:00:00 | |
| DO3MHA-11 | 2026-09-01 01:41:50 | 48.21249 | 13.99061 | 99° | 64km/h | 4992m | -3.0m/s | -8.9°C | 6.6% | 554.6hPa | 2.7V | 00:00:00 | 03:12:21 | 00:00:00 | |
| OE5WHR-10 | 2026-09-01 01:41:46 | 48.21260 | 13.98965 | 101° | 64km/h | 5004m | -3.0m/s | -8.9°C | 6.3% | 553.5hPa | 2.7V | 00:00:00 | 03:12:17 | 00:00:00 | |
| DO3MHA-11 | 2026-09-01 01:41:45 | 48.21262 | 13.98941 | 100° | 64km/h | 5007m | -3.0m/s | -9.0°C | 6.3% | 553.4hPa | 2.7V | 00:00:00 | 03:12:16 | 00:00:00 | |
| OE5DRO-10 | 2026-09-01 01:41:44 | 48.21265 | 13.98918 | 99° | 66km/h | 5011m | -3.0m/s | -9.0°C | 6.3% | 553.2hPa | 2.7V | 00:00:00 | 00:00:00 | 00:00:00 | |
| OE5DXL-15 | 2026-09-01 01:41:42 | 48.21270 | 13.98868 | 101° | 66km/h | 5017m | -3.0m/s | -9.0°C | 6.2% | 552.7hPa | 2.7V | 00:00:00 | 00:00:00 | 00:00:00 | |
| OE5MMP-10 | 2026-09-01 01:41:41 | 48.21273 | 13.98844 | 103° | 64km/h | 5020m | -3.0m/s | -9.1°C | 6.2% | 552.5hPa | 2.7V | 00:00:00 | 03:12:12 | 00:00:00 | |
| OE3JTB-15 | 2026-09-01 01:41:39 | 48.21280 | 13.98796 | 102° | 66km/h | 5026m | -3.0m/s | -9.1°C | 6.0% | 552.2hPa | 2.7V | 00:00:00 | 00:00:00 | 00:00:00 | |
| DO3MHA-11 | 2026-09-01 01:41:35 | 48.21294 | 13.98701 | 103° | 66km/h | 5038m | -3.1m/s | -9.2°C | 5.7% | 551.2hPa | 2.7V | 00:00:00 | 03:12:06 | 00:00:00 | |
| OE5HKT-10 | 2026-09-01 01:41:34 | 48.21297 | 13.98679 | 100° | 66km/h | 5041m | -3.2m/s | -9.2°C | 5.6% | 551.0hPa | 2.7V | 00:00:00 | 00:00:00 | 00:00:00 | |
| OE5MMP-10 | 2026-09-01 01:41:31 | 48.21303 | 13.98606 | 98° | 66km/h | 5051m | -3.0m/s | -9.2°C | 5.3% | 550.4hPa | 2.7V | 00:00:00 | 03:12:02 | 00:00:00 | |
| OE5WHR-10 | 2026-09-01 01:41:29 | 48.21308 | 13.98555 | 102° | 68km/h | 5056m | -3.0m/s | -9.2°C | 5.1% | 550.1hPa | 2.6V | 00:00:00 | 00:00:00 | 00:00:00 | |
| OE5DRO-10 | 2026-09-01 01:41:28 | 48.21312 | 13.98530 | 103° | 68km/h | 5060m | -2.9m/s | -9.2°C | 5.0% | 549.8hPa | 2.7V | 00:00:00 | 00:00:00 | 00:00:00 | |
| OE5FHM-15 | 2026-09-01 01:41:26 | 48.21319 | 13.98482 | 103° | 68km/h | 5065m | -2.9m/s | -9.2°C | 4.7% | 549.3hPa | 2.7V | 00:00:00 | 03:11:57 | 00:00:00 | |
| DO3MHA-11 | 2026-09-01 01:41:25 | 48.21323 | 13.98457 | 101° | 68km/h | 5069m | -2.8m/s | -9.2°C | 4.7% | 549.2hPa | 2.7V | 00:00:00 | 03:11:56 | 00:00:00 | |
| OE5MMP-10 | 2026-09-01 01:41:21 | 48.21334 | 13.98360 | 98° | 68km/h | 5080m | -2.8m/s | -9.3°C | 4.5% | 548.4hPa | 2.6V | 00:00:00 | 03:11:52 | 00:00:00 | |
| OM5KV | 2026-09-01 01:41:18 | 48.21338 | 13.98311 | 96° | 68km/h | 5086m | -3.1m/s | 0°C | 0% | 547.9hPa | 2.6V | 07:21:00 | 00:00:00 | 00:00:00 | |
| OE5HKT-10 | 2026-09-01 01:41:17 | 48.21342 | 13.98258 | 98° | 68km/h | 5093m | -3.0m/s | -9.4°C | 4.5% | 547.3hPa | 2.6V | 00:00:00 | 03:11:48 | 00:00:00 | |
| DO3MHA-11 | 2026-09-01 01:41:15 | 48.21347 | 13.98206 | 102° | 68km/h | 5099m | -2.9m/s | -9.5°C | 4.5% | 547.0hPa | 2.6V | 00:00:00 | 03:11:46 | 00:00:00 | |
| OE5REO-15 | 2026-09-01 01:41:14 | 48.21347 | 13.98206 | 103° | 69km/h | 5099m | -3.0m/s | -9.5°C | 4.3% | 547.1hPa | 2.6V | 07:21:00 | 00:00:00 | 00:00:00 | |
| OE5WHR-10 | 2026-09-01 01:41:12 | 48.21359 | 13.98131 | 103° | 68km/h | 5108m | -2.9m/s | -9.6°C | 4.5% | 546.4hPa | 2.6V | 00:00:00 | 00:00:00 | 00:00:00 | |
| OE5MMP-10 | 2026-09-01 01:41:11 | 48.21362 | 13.98106 | 102° | 68km/h | 5111m | -2.8m/s | -9.6°C | 4.5% | 546.1hPa | 2.6V | 00:00:00 | 03:11:42 | 00:00:00 | |
| OE3JTB-15 | 2026-09-01 01:41:10 | 48.21366 | 13.98081 | 102° | 68km/h | 5114m | -2.9m/s | -9.6°C | 4.5% | 545.9hPa | 2.6V | 00:00:00 | 00:00:00 | 00:00:00 | |
| DO3MHA-11 | 2026-09-01 01:41:05 | 48.21386 | 13.97958 | 103° | 68km/h | 5129m | -3.0m/s | -9.6°C | 4.3% | 544.8hPa | 2.6V | 00:00:00 | 03:11:36 | 00:00:00 | |
| OE5MMP-10 | 2026-09-01 01:41:01 | 48.21401 | 13.97860 | 104° | 68km/h | 5141m | -2.9m/s | -9.7°C | 4.7% | 544.0hPa | 2.6V | 00:00:00 | 03:11:32 | 00:00:00 | |
| OE5HKT-10 | 2026-09-01 01:41:00 | 48.21405 | 13.97836 | 103° | 68km/h | 5144m | -2.9m/s | -9.7°C | 4.8% | 543.8hPa | 2.6V | 00:00:00 | 00:00:00 | 00:00:00 | |
| OE5REO-15 | 2026-09-01 01:40:59 | 48.21405 | 13.97836 | 104° | 64km/h | 5144m | -3.0m/s | -9.7°C | 4.6% | 543.9hPa | 2.6V | 07:21:00 | 00:00:00 | 00:00:00 | |
| OE5FHM-15 | 2026-09-01 01:40:56 | 48.21419 | 13.97736 | 104° | 68km/h | 5155m | -2.8m/s | -9.8°C | 5.2% | 542.9hPa | 2.6V | 07:21:00 | 03:11:27 | 00:00:00 | |
| DO3MHA-11 | 2026-09-01 01:40:55 | 48.21423 | 13.97711 | 104° | 68km/h | 5158m | -2.8m/s | -9.8°C | 5.2% | 542.8hPa | 2.6V | 07:21:00 | 03:11:26 | 00:00:00 | |
| OE5MMP-10 | 2026-09-01 01:40:51 | 48.21439 | 13.97610 | 106° | 68km/h | 5170m | -3.0m/s | -9.8°C | 6.3% | 542.0hPa | 2.7V | 00:00:00 | 03:11:22 | 00:00:00 | |
| OM5KV | 2026-09-01 01:40:48 | 48.21449 | 13.97560 | 106° | 66km/h | 5176m | -3.1m/s | 0°C | 0% | 541.6hPa | 2.7V | 07:21:00 | 00:00:00 | 00:00:00 | |
| DO3MHA-11 | 2026-09-01 01:40:45 | 48.21464 | 13.97461 | 104° | 68km/h | 5188m | -2.8m/s | -10.0°C | 8.2% | 540.7hPa | 2.7V | 00:00:00 | 03:11:16 | 00:00:00 | |
| OE5HKT-10 | 2026-09-01 01:40:43 | 48.21472 | 13.97411 | 106° | 68km/h | 5193m | -2.7m/s | -10.0°C | 11.5% | 540.3hPa | 2.7V | 00:00:00 | 00:00:00 | 00:00:00 | |
| OE5DXL-15 | 2026-09-01 01:40:42 | 48.21476 | 13.97387 | 105° | 69km/h | 5196m | -2.9m/s | -10.1°C | 12.8% | 540.2hPa | 2.7V | 00:00:00 | 00:00:00 | 00:00:00 | |
| OE3JTB-15 | 2026-09-01 01:40:41 | 48.21480 | 13.97362 | 104° | 69km/h | 5199m | -2.9m/s | -10.1°C | 15.2% | 539.9hPa | 2.7V | 00:00:00 | 03:11:12 | 00:00:00 | |
| OE5DRO-10 | 2026-09-01 01:40:40 | 48.21484 | 13.97338 | 105° | 68km/h | 5202m | -2.8m/s | -10.1°C | 15.1% | 539.7hPa | 2.7V | 00:00:00 | 00:00:00 | 00:00:00 | |
| OE5WHR-10 | 2026-09-01 01:40:38 | 48.21494 | 13.97288 | 107° | 68km/h | 5208m | -3.0m/s | -10.2°C | 16.6% | 539.3hPa | 2.6V | 00:00:00 | 00:00:00 | 00:00:00 | |
| DO3MHA-11 | 2026-09-01 01:40:35 | 48.21507 | 13.97215 | 104° | 69km/h | 5217m | -2.7m/s | -10.3°C | 25.8% | 538.7hPa | 2.7V | 00:00:00 | 03:11:06 | 00:00:00 | |
| OM5KV | 2026-09-01 01:40:34 | 48.21507 | 13.97215 | 104° | 66km/h | 5217m | -2.7m/s | 0°C | 0% | 538.7hPa | 2.7V | 00:00:00 | 00:00:00 | 00:00:00 | |
| OE5MMP-10 | 2026-09-01 01:40:31 | 48.21524 | 13.97116 | 106° | 69km/h | 5228m | -2.6m/s | -10.4°C | 26.8% | 537.9hPa | 2.7V | 00:00:00 | 03:11:02 | 00:00:00 | |
| OM5KV | 2026-09-01 01:40:29 | 48.21528 | 13.97091 | 105° | 68km/h | 5231m | -2.7m/s | 0°C | 0% | 0hPa | 2.7V | 00:00:00 | 00:00:00 | 00:00:00 | |
| OE5REO-15 | 2026-09-01 01:40:28 | 48.21532 | 13.97066 | 105° | 69km/h | 5233m | -2.6m/s | -10.5°C | 24.9% | 537.6hPa | 2.7V | 07:22:00 | 00:00:00 | 00:00:00 | |
| OE5FHM-15 | 2026-09-01 01:40:26 | 48.21547 | 13.96989 | 108° | 71km/h | 5242m | -2.7m/s | -10.5°C | 25.9% | 536.9hPa | 2.7V | 00:00:00 | 03:10:57 | 00:00:00 | |
| DO3MHA-11 | 2026-09-01 01:40:25 | 48.21552 | 13.96964 | 108° | 69km/h | 5244m | -2.6m/s | -10.5°C | 25.1% | 536.8hPa | 2.7V | 00:00:00 | 03:10:56 | 00:00:00 | |
| OE5DRO-10 | 2026-09-01 01:40:24 | 48.21557 | 13.96939 | 106° | 69km/h | 5247m | -2.6m/s | -10.6°C | 25.0% | 536.7hPa | 2.7V | 00:00:00 | 00:00:00 | 00:00:00 | |
| OM5KV | 2026-09-01 01:40:23 | 48.21557 | 13.96939 | 107° | 69km/h | 5247m | -2.7m/s | 0°C | 0% | 0hPa | 2.7V | 00:00:00 | 00:00:00 | 00:00:00 | |
| OE5WHR-10 | 2026-09-01 01:40:21 | 48.21572 | 13.96862 | 107° | 69km/h | 5255m | -2.6m/s | -10.7°C | 32.5% | 536.0hPa | 2.7V | 00:00:00 | 00:00:00 | 00:00:00 | |
| OM5KV | 2026-09-01 01:40:18 | 48.21582 | 13.96812 | 108° | 69km/h | 5261m | -2.7m/s | 0°C | 0% | 0hPa | 2.7V | 00:00:00 | 00:00:00 | 00:00:00 | |
| DO3MHA-11 | 2026-09-01 01:40:15 | 48.21601 | 13.96708 | 108° | 69km/h | 5271m | -2.6m/s | -10.7°C | 23.5% | 534.9hPa | 2.7V | 00:00:00 | 03:10:46 | 00:00:00 | |
| OE5DXL-15 | 2026-09-01 01:40:12 | 48.21616 | 13.96632 | 105° | 71km/h | 5279m | -2.6m/s | -10.7°C | 22.1% | 534.3hPa | 2.7V | 00:00:00 | 00:00:00 | 00:00:00 | |
| OE5MMP-10 | 2026-09-01 01:40:11 | 48.21621 | 13.96606 | 105° | 69km/h | 5282m | -2.6m/s | -10.7°C | 21.5% | 534.1hPa | 2.7V | 00:00:00 | 03:10:42 | 00:00:00 | |
| OE5DRO-10 | 2026-09-01 01:40:08 | 48.21635 | 13.96530 | 105° | 71km/h | 5290m | -2.5m/s | -10.8°C | 19.7% | 533.7hPa | 2.7V | 00:00:00 | 00:00:00 | 00:00:00 | |
| OM5KV | 2026-09-01 01:40:07 | 48.21635 | 13.96530 | 106° | 68km/h | 5290m | -2.6m/s | 0°C | 0% | 0hPa | 2.7V | 00:00:00 | 00:00:00 | 00:00:00 | |
| DO3MHA-11 | 2026-09-01 01:40:05 | 48.21647 | 13.96454 | 103° | 71km/h | 5298m | -2.7m/s | -10.7°C | 13.0% | 533.1hPa | 2.7V | 00:00:00 | 03:10:36 | 00:00:00 | |
| OE5WHR-10 | 2026-09-01 01:40:04 | 48.21651 | 13.96427 | 104° | 71km/h | 5301m | -2.6m/s | -10.7°C | 10.1% | 532.8hPa | 2.7V | 07:22:00 | 03:10:35 | 00:00:00 | |
| OE5MMP-10 | 2026-09-01 01:40:01 | 48.21665 | 13.96349 | 105° | 71km/h | 5309m | -2.5m/s | -10.7°C | 6.1% | 532.3hPa | 2.7V | 00:00:00 | 03:10:32 | 00:00:00 | |
| OE5REO-15 | 2026-09-01 01:39:57 | 48.21679 | 13.96269 | 108° | 73km/h | 5317m | -2.7m/s | -10.8°C | 4.6% | 531.7hPa | 2.7V | 07:22:00 | 00:00:00 | 00:00:00 | |
| OE5FHM-15 | 2026-09-01 01:39:56 | 48.21689 | 13.96218 | 106° | 71km/h | 5322m | -2.4m/s | -10.8°C | 4.1% | 531.3hPa | 2.7V | 00:00:00 | 03:10:27 | 00:00:00 | |
| DO3MHA-11 | 2026-09-01 01:39:55 | 48.21694 | 13.96193 | 105° | 71km/h | 5325m | -2.6m/s | -10.8°C | 3.9% | 531.2hPa | 2.6V | 00:00:00 | 03:10:26 | 00:00:00 | |
| OE5DRO-10 | 2026-09-01 01:39:52 | 48.21706 | 13.96115 | 105° | 71km/h | 5333m | -2.4m/s | -10.8°C | 3.8% | 530.5hPa | 2.7V | 00:00:00 | 00:00:00 | 00:00:00 | |
| OE5MMP-10 | 2026-09-01 01:39:51 | 48.21710 | 13.96088 | 105° | 71km/h | 5335m | -2.5m/s | -10.9°C | 3.8% | 530.4hPa | 2.7V | 00:00:00 | 03:10:22 | 00:00:00 | |
| OM5KV | 2026-09-01 01:39:50 | 48.21710 | 13.96088 | 106° | 71km/h | 5335m | -2.6m/s | 0°C | 0% | 0hPa | 2.7V | 00:00:00 | 00:00:00 | 00:00:00 | |
| OE5WHR-10 | 2026-09-01 01:39:47 | 48.21728 | 13.95982 | 105° | 71km/h | 5346m | -2.4m/s | -10.9°C | 3.6% | 529.7hPa | 2.7V | 00:00:00 | 00:00:00 | 00:00:00 | |
| DO3MHA-11 | 2026-09-01 01:39:45 | 48.21738 | 13.95929 | 107° | 71km/h | 5351m | -2.6m/s | -10.9°C | 3.4% | 529.4hPa | 2.7V | 00:00:00 | 03:10:16 | 00:00:00 | |
| OM5KV | 2026-09-01 01:39:44 | 48.21738 | 13.95929 | 107° | 71km/h | 5351m | -2.7m/s | 0°C | 0% | 0hPa | 2.7V | 00:00:00 | 00:00:00 | 00:00:00 | |
| OE3JTB-15 | 2026-09-01 01:39:43 | 48.21747 | 13.95878 | 105° | 71km/h | 5357m | -2.5m/s | -10.9°C | 3.4% | 529.0hPa | 2.7V | 00:00:00 | 00:00:00 | 00:00:00 | |
| OE5DXL-15 | 2026-09-01 01:39:42 | 48.21751 | 13.95853 | 103° | 71km/h | 5359m | -2.5m/s | -10.9°C | 3.4% | 528.7hPa | 2.7V | 00:00:00 | 00:00:00 | 00:00:00 | |
| OE5MMP-10 | 2026-09-01 01:39:41 | 48.21755 | 13.95827 | 103° | 71km/h | 5362m | -2.4m/s | -11.0°C | 3.5% | 528.6hPa | 2.7V | 00:00:00 | 03:10:12 | 00:00:00 | |
| OM5KV | 2026-09-01 01:39:38 | 48.21763 | 13.95773 | 105° | 71km/h | 5367m | -2.5m/s | 0°C | 0% | 0hPa | 2.7V | 00:00:00 | 00:00:00 | 00:00:00 | |
| DO3MHA-11 | 2026-09-01 01:39:35 | 48.21779 | 13.95668 | 103° | 71km/h | 5377m | -2.4m/s | -11.1°C | 3.4% | 527.5hPa | 2.7V | 07:22:00 | 03:10:06 | 00:00:00 | |
| OE5MMP-10 | 2026-09-01 01:39:31 | 48.21797 | 13.95562 | 104° | 71km/h | 5388m | -2.6m/s | -11.2°C | 3.4% | 526.8hPa | 2.7V | 00:00:00 | 03:10:02 | 00:00:00 | |
| OE5DRO-10 | 2026-09-01 01:39:29 | 48.21805 | 13.95510 | 105° | 71km/h | 5393m | -2.5m/s | -11.2°C | 3.4% | 526.5hPa | 2.7V | 00:00:00 | 00:00:00 | 00:00:00 | |
| OM5KV | 2026-09-01 01:39:28 | 48.21806 | 13.95510 | 105° | 73km/h | 5393m | -2.5m/s | 0°C | 0% | 0hPa | 2.7V | 00:00:00 | 00:00:00 | 00:00:00 | |
| OE5FHM-15 | 2026-09-01 01:39:26 | 48.21819 | 13.95432 | 103° | 71km/h | 5401m | -2.5m/s | -11.3°C | 3.4% | 526.0hPa | 2.7V | 00:00:00 | 03:09:57 | 00:00:00 | |
| DO3MHA-11 | 2026-09-01 01:39:25 | 48.21822 | 13.95407 | 102° | 73km/h | 5403m | -2.5m/s | -11.3°C | 3.4% | 525.8hPa | 2.7V | 00:00:00 | 03:09:56 | 00:00:00 | |
| OE5MMP-10 | 2026-09-01 01:39:21 | 48.21838 | 13.95299 | 105° | 71km/h | 5413m | -2.5m/s | -11.4°C | 3.4% | 525.1hPa | 2.7V | 07:23:00 | 03:09:52 | 00:00:00 | |
| DO3MHA-11 | 2026-09-01 01:39:15 | 48.21866 | 13.95138 | 107° | 71km/h | 5429m | -2.6m/s | -11.5°C | 3.5% | 524.1hPa | 2.7V | 00:00:00 | 03:09:46 | 00:00:00 | |
| OE5HKT-10 | 2026-09-01 01:39:14 | 48.21871 | 13.95112 | 105° | 71km/h | 5432m | -2.5m/s | -11.6°C | 3.5% | 523.8hPa | 2.7V | 00:00:00 | 00:00:00 | 00:00:00 | |
| OE5DXL-15 | 2026-09-01 01:39:12 | 48.21878 | 13.95062 | 101° | 73km/h | 5437m | -2.4m/s | -11.6°C | 3.5% | 523.4hPa | 2.7V | 07:23:00 | 00:00:00 | 00:00:00 | |
| OE5MMP-10 | 2026-09-01 01:39:11 | 48.21881 | 13.95035 | 100° | 73km/h | 5439m | -2.5m/s | -11.6°C | 3.5% | 523.3hPa | 2.7V | 00:00:00 | 03:09:42 | 00:00:00 | |
| OE5DRO-10 | 2026-09-01 01:39:10 | 48.21884 | 13.95008 | 101° | 71km/h | 5442m | -2.5m/s | -11.6°C | 3.5% | 523.2hPa | 2.7V | 00:00:00 | 00:00:00 | 00:00:00 | |
| DO3MHA-11 | 2026-09-01 01:39:05 | 48.21905 | 13.94873 | 103° | 71km/h | 5454m | -2.4m/s | -11.8°C | 3.5% | 522.3hPa | 2.7V | 00:00:00 | 03:09:36 | 00:00:00 | |
| OE5MMP-10 | 2026-09-01 01:39:01 | 48.21922 | 13.94767 | 105° | 71km/h | 5464m | -2.4m/s | -11.8°C | 3.5% | 521.6hPa | 2.7V | 00:00:00 | 03:09:32 | 00:00:00 | |
| OE5FHM-15 | 2026-09-01 01:38:56 | 48.21943 | 13.94635 | 105° | 71km/h | 5477m | -2.4m/s | -12.0°C | 3.5% | 520.7hPa | 2.6V | 00:00:00 | 03:09:27 | 00:00:00 | |
| DO3MHA-11 | 2026-09-01 01:38:55 | 48.21947 | 13.94609 | 105° | 73km/h | 5479m | -2.3m/s | -12.0°C | 3.6% | 520.7hPa | 2.6V | 00:00:00 | 03:09:26 | 00:00:00 | |
| OE5REO-15 | 2026-09-01 01:38:54 | 48.21947 | 13.94609 | 106° | 71km/h | 5479m | -2.4m/s | -12.0°C | 3.4% | 520.8hPa | 2.6V | 07:24:00 | 00:00:00 | 00:00:00 | |
| OE5HKT-10 | 2026-09-01 01:38:53 | 48.21956 | 13.94557 | 103° | 71km/h | 5484m | -2.4m/s | -12.0°C | 3.6% | 520.2hPa | 2.6V | 00:00:00 | 00:00:00 | 00:00:00 | |
| OE5MMP-10 | 2026-09-01 01:38:51 | 48.21964 | 13.94503 | 104° | 73km/h | 5489m | -2.4m/s | -12.1°C | 3.6% | 519.9hPa | 2.6V | 00:00:00 | 03:09:22 | 00:00:00 | |
| DO3MHA-11 | 2026-09-01 01:38:45 | 48.21988 | 13.94342 | 104° | 71km/h | 5504m | -2.5m/s | -12.2°C | 3.6% | 518.9hPa | 2.6V | 00:00:00 | 03:09:16 | 00:00:00 | |
| OE5WHR-10 | 2026-09-01 01:38:44 | 48.21993 | 13.94314 | 106° | 71km/h | 5506m | -2.4m/s | -12.2°C | 3.6% | 518.8hPa | 2.6V | 00:00:00 | 00:00:00 | 00:00:00 | |
| OE5DXL-15 | 2026-09-01 01:38:42 | 48.22003 | 13.94262 | 105° | 71km/h | 5511m | -2.5m/s | -12.3°C | 3.7% | 518.4hPa | 2.7V | 00:00:00 | 00:00:00 | 00:00:00 | |
| OE5MMP-10 | 2026-09-01 01:38:41 | 48.22007 | 13.94236 | 103° | 71km/h | 5514m | -2.4m/s | -12.3°C | 3.7% | 518.2hPa | 2.7V | 00:00:00 | 03:09:12 | 00:00:00 | |
| OE5REO-15 | 2026-09-01 01:38:38 | 48.22015 | 13.94183 | 105° | 73km/h | 5518m | -2.5m/s | -12.4°C | 3.5% | 518.0hPa | 2.7V | 07:24:00 | 00:00:00 | 00:00:00 | |
| DO3MHA-11 | 2026-09-01 01:38:35 | 48.22032 | 13.94080 | 103° | 71km/h | 5528m | -2.5m/s | -12.4°C | 3.7% | 517.3hPa | 2.7V | 00:00:00 | 03:09:06 | 00:00:00 | |
| OE5HKT-10 | 2026-09-01 01:38:32 | 48.22045 | 13.94000 | 106° | 69km/h | 5536m | -2.4m/s | -12.4°C | 3.7% | 516.7hPa | 2.7V | 00:00:00 | 03:09:03 | 00:00:00 | |
| OE5MMP-10 | 2026-09-01 01:38:31 | 48.22050 | 13.93974 | 105° | 69km/h | 5538m | -2.3m/s | -12.5°C | 3.7% | 516.6hPa | 2.7V | 00:00:00 | 03:09:02 | 00:00:00 | |
| OE5FHM-15 | 2026-09-01 01:38:26 | 48.22073 | 13.93843 | 107° | 69km/h | 5551m | -2.6m/s | -12.6°C | 3.7% | 515.8hPa | 2.7V | 00:00:00 | 03:08:57 | 00:00:00 | |
| DO3MHA-11 | 2026-09-01 01:38:25 | 48.22078 | 13.93819 | 107° | 69km/h | 5553m | -2.4m/s | -12.6°C | 3.7% | 515.6hPa | 2.7V | 00:00:00 | 03:08:56 | 00:00:00 | |
| OE5WHR-10 | 2026-09-01 01:38:23 | 48.22086 | 13.93769 | 103° | 69km/h | 5558m | -2.5m/s | -12.6°C | 3.8% | 515.3hPa | 2.6V | 00:00:00 | 00:00:00 | 00:00:00 | |
| OE5MMP-10 | 2026-09-01 01:38:21 | 48.22095 | 13.93717 | 104° | 69km/h | 5563m | -2.4m/s | -12.6°C | 3.8% | 515.0hPa | 2.6V | 00:00:00 | 03:08:52 | 00:00:00 | |
| OE3JTB-15 | 2026-09-01 01:38:16 | 48.22116 | 13.93589 | 104° | 69km/h | 5575m | -2.3m/s | -12.7°C | 3.9% | 514.0hPa | 2.6V | 00:00:00 | 00:00:00 | 00:00:00 | |
| DO3MHA-11 | 2026-09-01 01:38:15 | 48.22120 | 13.93562 | 105° | 69km/h | 5578m | -2.3m/s | -12.7°C | 3.8% | 513.9hPa | 2.6V | 07:24:00 | 03:08:46 | 00:00:00 | |
| OE5DXL-15 | 2026-09-01 01:38:12 | 48.22134 | 13.93486 | 105° | 69km/h | 5585m | -2.4m/s | -12.8°C | 3.7% | 513.4hPa | 2.6V | 00:00:00 | 00:00:00 | 00:00:00 | |
| OE5HKT-10 | 2026-09-01 01:38:11 | 48.22139 | 13.93460 | 105° | 69km/h | 5588m | -2.5m/s | -12.8°C | 3.7% | 513.3hPa | 2.6V | 00:00:00 | 00:00:00 | 00:00:00 | |
| OE5REO-15 | 2026-09-01 01:38:07 | 48.22153 | 13.93384 | 107° | 68km/h | 5595m | -2.6m/s | -12.9°C | 3.5% | 512.8hPa | 2.6V | 07:25:00 | 00:00:00 | 00:00:00 | |
| DG1MFX-10 | 2026-09-01 01:38:06 | 48.22157 | 13.93360 | 106° | 66km/h | 5598m | -2.3m/s | -13.0°C | 3.5% | 512.6hPa | 2.6V | 07:25:00 | 00:00:00 | 00:00:00 | |
| DO3MHA-11 | 2026-09-01 01:38:05 | 48.22165 | 13.93311 | 103° | 69km/h | 5603m | -2.4m/s | -13.0°C | 3.8% | 512.2hPa | 2.6V | 00:00:00 | 03:08:36 | 00:00:00 | |
| OE5WHR-10 | 2026-09-01 01:38:02 | 48.22178 | 13.93234 | 107° | 69km/h | 5610m | -2.4m/s | -13.0°C | 3.7% | 511.7hPa | 2.6V | 00:00:00 | 03:08:33 | 00:00:00 | |
| OE5MMP-10 | 2026-09-01 01:38:01 | 48.22183 | 13.93209 | 106° | 69km/h | 5613m | -2.3m/s | -13.0°C | 3.7% | 511.6hPa | 2.6V | 07:24:00 | 03:08:32 | 00:00:00 | |
| OE5FHM-15 | 2026-09-01 01:37:56 | 48.22206 | 13.93082 | 107° | 69km/h | 5626m | -2.4m/s | -13.1°C | 3.6% | 510.8hPa | 2.7V | 00:00:00 | 03:08:27 | 00:00:00 | |
| DO3MHA-11 | 2026-09-01 01:37:55 | 48.22211 | 13.93058 | 106° | 68km/h | 5628m | -2.4m/s | -13.1°C | 3.6% | 510.6hPa | 2.7V | 00:00:00 | 03:08:26 | 00:00:00 | |
| OE5DRO-10 | 2026-09-01 01:37:54 | 48.22215 | 13.93033 | 105° | 69km/h | 5631m | -2.5m/s | -13.2°C | 3.6% | 510.4hPa | 2.7V | 00:00:00 | 00:00:00 | 00:00:00 | |
| OE5REO-15 | 2026-09-01 01:37:52 | 48.22219 | 13.93008 | 106° | 69km/h | 5633m | -2.5m/s | -13.2°C | 3.3% | 510.3hPa | 2.7V | 07:25:00 | 00:00:00 | 00:00:00 | |
| OE5MMP-10 | 2026-09-01 01:37:51 | 48.22229 | 13.92958 | 108° | 68km/h | 5638m | -2.4m/s | -13.2°C | 3.5% | 509.8hPa | 2.7V | 00:00:00 | 03:08:22 | 00:00:00 | |
| OE5HKT-10 | 2026-09-01 01:37:50 | 48.22234 | 13.92933 | 108° | 69km/h | 5641m | -2.7m/s | -13.2°C | 3.4% | 509.7hPa | 2.7V | 00:00:00 | 00:00:00 | 00:00:00 | |
| OE3JTB-15 | 2026-09-01 01:37:47 | 48.22248 | 13.92859 | 105° | 69km/h | 5649m | -2.4m/s | -13.3°C | 3.4% | 509.3hPa | 2.7V | 00:00:00 | 03:08:18 | 00:00:00 | |
| DO3MHA-11 | 2026-09-01 01:37:45 | 48.22257 | 13.92808 | 107° | 69km/h | 5653m | -2.4m/s | -13.3°C | 3.4% | 508.9hPa | 2.7V | 00:00:00 | 03:08:16 | 00:00:00 | |
| OE5DXL-15 | 2026-09-01 01:37:42 | 48.22271 | 13.92733 | 105° | 71km/h | 5661m | -2.5m/s | -13.3°C | 3.4% | 508.4hPa | 2.7V | 00:00:00 | 00:00:00 | 00:00:00 | |
| OE5WHR-10 | 2026-09-01 01:37:41 | 48.22276 | 13.92707 | 106° | 69km/h | 5663m | -2.5m/s | -13.3°C | 3.3% | 508.2hPa | 2.7V | 00:00:00 | 00:00:00 | 00:00:00 | |
| OE5REO-15 | 2026-09-01 01:37:37 | 48.22291 | 13.92631 | 107° | 68km/h | 5671m | -2.6m/s | -13.4°C | 3.0% | 507.8hPa | 2.7V | 07:25:00 | 00:00:00 | 00:00:00 | |
| DO3MHA-11 | 2026-09-01 01:37:35 | 48.22304 | 13.92555 | 105° | 69km/h | 5679m | -2.6m/s | -13.4°C | 3.1% | 507.2hPa | 2.7V | 00:00:00 | 03:08:06 | 00:00:00 | |
| S52SK | 2026-09-01 01:37:34 | 48.22304 | 13.92555 | 105° | 71km/h | 5679m | -2.6m/s | -13.4°C | 2.9% | 507.3hPa | 2.7V | 00:00:00 | 00:00:00 | 00:00:00 | |
| OE5MMP-10 | 2026-09-01 01:37:31 | 48.22322 | 13.92453 | 104° | 71km/h | 5689m | -2.4m/s | -13.4°C | 3.0% | 506.6hPa | 2.7V | 00:00:00 | 03:08:02 | 00:00:00 | |
| OE5HKT-10 | 2026-09-01 01:37:29 | 48.22330 | 13.92401 | 104° | 71km/h | 5694m | -2.6m/s | -13.5°C | 3.0% | 506.2hPa | 2.7V | 00:00:00 | 03:08:00 | 00:00:00 | |
| S52SK | 2026-09-01 01:37:28 | 48.22330 | 13.92401 | 105° | 71km/h | 5694m | -2.6m/s | -13.5°C | 2.8% | 506.3hPa | 2.7V | 00:00:00 | 00:00:00 | 00:00:00 | |
| OE5FHM-15 | 2026-09-01 01:37:26 | 48.22344 | 13.92324 | 106° | 73km/h | 5702m | -2.5m/s | -13.5°C | 2.9% | 505.6hPa | 2.7V | 00:00:00 | 03:07:57 | 00:00:00 | |
| DO3MHA-11 | 2026-09-01 01:37:25 | 48.22349 | 13.92298 | 104° | 71km/h | 5705m | -2.5m/s | -13.5°C | 2.9% | 505.5hPa | 2.7V | 00:00:00 | 03:07:56 | 00:00:00 | |
| DG1MFX-10 | 2026-09-01 01:37:24 | 48.22348 | 13.92298 | 105° | 69km/h | 5705m | -2.6m/s | -13.5°C | 2.7% | 505.5hPa | 2.6V | 07:25:00 | 00:00:00 | 00:00:00 | |
| OE5REO-15 | 2026-09-01 01:37:22 | 48.22357 | 13.92246 | 106° | 71km/h | 5710m | -2.6m/s | -13.5°C | 2.6% | 505.2hPa | 2.6V | 07:25:00 | 00:00:00 | 00:00:00 | |
| OE5MMP-10 | 2026-09-01 01:37:21 | 48.22367 | 13.92194 | 106° | 71km/h | 5715m | -2.4m/s | -13.5°C | 2.8% | 504.8hPa | 2.6V | 00:00:00 | 03:07:52 | 00:00:00 | |
| OE5WHR-10 | 2026-09-01 01:37:20 | 48.22371 | 13.92168 | 104° | 73km/h | 5717m | -2.5m/s | -13.5°C | 2.8% | 504.6hPa | 2.6V | 07:25:00 | 00:00:00 | 00:00:00 | |
| OE3JTB-15 | 2026-09-01 01:37:18 | 48.22379 | 13.92116 | 104° | 73km/h | 5723m | -2.5m/s | -13.5°C | 2.8% | 504.3hPa | 2.6V | 00:00:00 | 00:00:00 | 00:00:00 | |
| OE5DRO-10 | 2026-09-01 01:37:16 | 48.22389 | 13.92062 | 106° | 73km/h | 5727m | -2.4m/s | -13.5°C | 2.7% | 504.0hPa | 2.7V | 00:00:00 | 00:00:00 | 00:00:00 | |
| DO3MHA-11 | 2026-09-01 01:37:15 | 48.22394 | 13.92035 | 107° | 73km/h | 5730m | -2.5m/s | -13.5°C | 2.7% | 503.8hPa | 2.7V | 00:00:00 | 03:07:46 | 00:00:00 | |
| OE5DXL-15 | 2026-09-01 01:37:12 | 48.22408 | 13.91956 | 105° | 75km/h | 5738m | -2.4m/s | -13.4°C | 2.6% | 503.3hPa | 2.7V | 00:00:00 | 00:00:00 | 00:00:00 | |
| OE5MMP-10 | 2026-09-01 01:37:11 | 48.22412 | 13.91929 | 105° | 73km/h | 5740m | -2.5m/s | -13.4°C | 2.6% | 503.1hPa | 2.7V | 00:00:00 | 03:07:42 | 00:00:00 | |
| OE5HKT-10 | 2026-09-01 01:37:08 | 48.22427 | 13.91849 | 104° | 75km/h | 5748m | -2.3m/s | -13.4°C | 2.5% | 502.6hPa | 2.7V | 07:25:00 | 00:00:00 | 00:00:00 | |
| OE5REO-15 | 2026-09-01 01:37:06 | 48.22431 | 13.91822 | 104° | 75km/h | 5750m | -2.5m/s | -13.4°C | 2.3% | 0hPa | 2.6V | 07:26:00 | 00:00:00 | 00:00:00 | |
| DO3MHA-11 | 2026-09-01 01:37:05 | 48.22440 | 13.91767 | 106° | 73km/h | 5755m | -2.7m/s | -13.3°C | 2.5% | 502.2hPa | 2.6V | 00:00:00 | 03:07:36 | 00:00:00 | |
| DG1MFX-10 | 2026-09-01 01:37:03 | 48.22446 | 13.91739 | 107° | 75km/h | 5758m | -2.5m/s | -13.4°C | 2.3% | 502.0hPa | 2.6V | 00:00:00 | 00:00:00 | 00:00:00 | |
| OE5MMP-10 | 2026-09-01 01:37:01 | 48.22460 | 13.91659 | 104° | 75km/h | 5766m | -2.5m/s | -13.3°C | 2.5% | 501.3hPa | 2.6V | 00:00:00 | 03:07:32 | 00:00:00 | |
| OE5DRO-10 | 2026-09-01 01:36:57 | 48.22480 | 13.91551 | 108° | 75km/h | 5776m | -2.6m/s | -13.3°C | 2.5% | 500.7hPa | 2.7V | 00:00:00 | 00:00:00 | 00:00:00 | |
| OE5FHM-15 | 2026-09-01 01:36:56 | 48.22486 | 13.91524 | 107° | 73km/h | 5779m | -2.7m/s | -13.3°C | 2.4% | 500.5hPa | 2.6V | 07:25:00 | 03:07:27 | 00:00:00 | |
| DO3MHA-11 | 2026-09-01 01:36:55 | 48.22491 | 13.91497 | 106° | 75km/h | 5781m | -2.6m/s | -13.3°C | 2.4% | 500.3hPa | 2.6V | 07:25:00 | 03:07:26 | 00:00:00 | |
| OE5MMP-10 | 2026-09-01 01:36:51 | 48.22513 | 13.91390 | 108° | 75km/h | 5792m | -2.6m/s | -13.3°C | 2.4% | 499.7hPa | 2.7V | 00:00:00 | 03:07:22 | 00:00:00 | |
| OE3JTB-15 | 2026-09-01 01:36:49 | 48.22524 | 13.91336 | 106° | 73km/h | 5798m | -2.6m/s | -13.3°C | 2.3% | 499.3hPa | 2.7V | 00:00:00 | 00:00:00 | 00:00:00 | |
| OE5HKT-10 | 2026-09-01 01:36:46 | 48.22540 | 13.91253 | 110° | 73km/h | 5806m | -2.5m/s | -13.3°C | 2.3% | 498.8hPa | 2.7V | 00:00:00 | 00:00:00 | 00:00:00 | |
| DO3MHA-11 | 2026-09-01 01:36:45 | 48.22547 | 13.91227 | 110° | 73km/h | 5808m | -2.5m/s | -13.3°C | 2.2% | 498.6hPa | 2.7V | 00:00:00 | 03:07:16 | 00:00:00 | |
| DG1MFX-10 | 2026-09-01 01:36:43 | 48.22552 | 13.91201 | 109° | 73km/h | 5811m | -2.6m/s | -13.3°C | 2.0% | 498.5hPa | 2.7V | 00:00:00 | 00:00:00 | 00:00:00 | |
| OE5DXL-15 | 2026-09-01 01:36:42 | 48.22563 | 13.91147 | 107° | 73km/h | 5816m | -2.7m/s | -13.2°C | 2.1% | 498.0hPa | 2.7V | 00:00:00 | 00:00:00 | 00:00:00 | |
| OE5MMP-10 | 2026-09-01 01:36:41 | 48.22569 | 13.91120 | 107° | 73km/h | 5819m | -2.5m/s | -13.2°C | 2.1% | 497.9hPa | 2.7V | 07:25:00 | 03:07:12 | 00:00:00 | |
| OE5WHR-10 | 2026-09-01 01:36:38 | 48.22585 | 13.91040 | 107° | 73km/h | 5827m | -2.7m/s | -13.2°C | 2.0% | 497.4hPa | 2.7V | 00:00:00 | 00:00:00 | 00:00:00 | |
| DO3MHA-11 | 2026-09-01 01:36:35 | 48.22601 | 13.90960 | 108° | 73km/h | 5835m | -2.6m/s | -13.2°C | 2.0% | 496.8hPa | 2.6V | 00:00:00 | 03:07:06 | 00:00:00 | |
| OE5FHM-15 | 2026-09-01 01:36:26 | 48.22651 | 13.90722 | 107° | 77km/h | 5860m | -2.7m/s | -13.2°C | 2.5% | 495.3hPa | 2.6V | 00:00:00 | 03:06:57 | 00:00:00 | |
| DO3MHA-11 | 2026-09-01 01:36:25 | 48.22656 | 13.90695 | 107° | 73km/h | 5862m | -2.6m/s | -13.2°C | 2.5% | 495.1hPa | 2.6V | 00:00:00 | 03:06:56 | 00:00:00 | |
| DG1MFX-10 | 2026-09-01 01:36:22 | 48.22673 | 13.90616 | 109° | 71km/h | 5870m | -2.8m/s | -13.3°C | 2.3% | 494.5hPa | 2.6V | 00:00:00 | 00:00:00 | 00:00:00 | |
| OE5MMP-10 | 2026-09-01 01:36:21 | 48.22678 | 13.90590 | 107° | 75km/h | 5873m | -2.7m/s | -13.2°C | 2.5% | 494.3hPa | 2.6V | 00:00:00 | 03:06:52 | 00:00:00 | |
| OE3JTB-15 | 2026-09-01 01:36:20 | 48.22683 | 13.90564 | 105° | 78km/h | 5876m | -2.8m/s | -13.3°C | 2.6% | 494.1hPa | 2.6V | 07:26:00 | 03:06:51 | 00:00:00 | |
| OE5DRO-10 | 2026-09-01 01:36:19 | 48.22688 | 13.90538 | 105° | 77km/h | 5879m | -2.9m/s | -13.3°C | 2.6% | 493.9hPa | 2.6V | 07:26:00 | 00:00:00 | 00:00:00 | |
| OE5WHR-10 | 2026-09-01 01:36:17 | 48.22698 | 13.90483 | 107° | 78km/h | 5884m | -2.6m/s | -13.3°C | 2.6% | 493.7hPa | 2.6V | 00:00:00 | 00:00:00 | 00:00:00 | |
| DO3MHA-11 | 2026-09-01 01:36:15 | 48.22708 | 13.90428 | 106° | 77km/h | 5890m | -2.7m/s | -13.4°C | 2.6% | 493.3hPa | 2.6V | 00:00:00 | 03:06:46 | 00:00:00 | |
| S52SK | 2026-09-01 01:36:13 | 48.22714 | 13.90400 | 106° | 77km/h | 5893m | -3.0m/s | -13.4°C | 2.4% | 493.1hPa | 2.6V | 00:00:00 | 00:00:00 | 00:00:00 | |
| OE5DXL-15 | 2026-09-01 01:36:12 | 48.22725 | 13.90343 | 108° | 80km/h | 5898m | -2.8m/s | -13.4°C | 2.6% | 492.6hPa | 2.6V | 00:00:00 | 00:00:00 | 00:00:00 | |
| OE5MMP-10 | 2026-09-01 01:36:11 | 48.22731 | 13.90315 | 109° | 78km/h | 5902m | -2.9m/s | -13.4°C | 2.6% | 492.6hPa | 2.6V | 00:00:00 | 03:06:42 | 00:00:00 | |
| DO3MHA-11 | 2026-09-01 01:36:05 | 48.22766 | 13.90147 | 108° | 80km/h | 5918m | -2.7m/s | -13.5°C | 2.7% | 491.3hPa | 2.6V | 00:00:00 | 03:06:36 | 00:00:00 | |
| OE5HKT-10 | 2026-09-01 01:36:04 | 48.22772 | 13.90119 | 109° | 80km/h | 5921m | -2.8m/s | -13.5°C | 2.8% | 491.2hPa | 2.6V | 00:00:00 | 00:00:00 | 00:00:00 | |
| OE5MMP-10 | 2026-09-01 01:36:01 | 48.22790 | 13.90033 | 107° | 80km/h | 5930m | -2.9m/s | -13.5°C | 2.9% | 490.7hPa | 2.6V | 00:00:00 | 03:06:32 | 00:00:00 | |
| OE5DRO-10 | 2026-09-01 01:36:00 | 48.22796 | 13.90004 | 108° | 82km/h | 5933m | -2.8m/s | -13.5°C | 2.9% | 490.5hPa | 2.6V | 00:00:00 | 00:00:00 | 00:00:00 | |
| OE5FHM-15 | 2026-09-01 01:35:56 | 48.22823 | 13.89888 | 109° | 84km/h | 5944m | -2.8m/s | -13.5°C | 3.0% | 489.8hPa | 2.6V | 00:00:00 | 03:06:27 | 00:00:00 | |
| DO3MHA-11 | 2026-09-01 01:35:55 | 48.22829 | 13.89860 | 109° | 82km/h | 5947m | -2.7m/s | -13.5°C | 3.0% | 489.7hPa | 2.6V | 00:00:00 | 03:06:26 | 00:00:00 | |
| OE5MMP-10 | 2026-09-01 01:35:51 | 48.22855 | 13.89743 | 109° | 82km/h | 5959m | -2.7m/s | -13.5°C | 3.1% | 488.9hPa | 2.6V | 00:00:00 | 03:06:22 | 00:00:00 | |
| OE5REO-15 | 2026-09-01 01:35:48 | 48.22867 | 13.89686 | 106° | 80km/h | 5964m | -2.9m/s | -13.6°C | 2.9% | 488.5hPa | 2.6V | 07:26:00 | 00:00:00 | 00:00:00 | |
| DO3MHA-11 | 2026-09-01 01:35:45 | 48.22892 | 13.89564 | 110° | 82km/h | 5976m | -2.7m/s | -13.5°C | 3.2% | 487.7hPa | 2.6V | 00:00:00 | 03:06:16 | 00:00:00 | |
| OE5HKT-10 | 2026-09-01 01:35:43 | 48.22906 | 13.89504 | 109° | 86km/h | 5982m | -2.8m/s | -13.5°C | 3.3% | 487.4hPa | 2.6V | 00:00:00 | 00:00:00 | 00:00:00 | |
| OE5DXL-15 | 2026-09-01 01:35:42 | 48.22912 | 13.89474 | 109° | 86km/h | 5984m | -2.7m/s | -13.5°C | 3.3% | 487.3hPa | 2.6V | 00:00:00 | 00:00:00 | 00:00:00 | |
| OE5MMP-10 | 2026-09-01 01:35:41 | 48.22919 | 13.89443 | 110° | 84km/h | 5987m | -2.7m/s | -13.6°C | 3.3% | 487.0hPa | 2.6V | 00:00:00 | 03:06:12 | 00:00:00 | |
| DG1MFX-10 | 2026-09-01 01:35:39 | 48.22927 | 13.89413 | 111° | 84km/h | 5990m | -3.0m/s | -13.6°C | 3.0% | 486.9hPa | 2.6V | 00:00:00 | 00:00:00 | 00:00:00 | |
| DO3MHA-11 | 2026-09-01 01:35:35 | 48.22958 | 13.89265 | 106° | 88km/h | 6005m | -3.0m/s | -13.7°C | 3.4% | 485.8hPa | 2.6V | 07:26:00 | 03:06:06 | 00:00:00 | |
| OE5REO-15 | 2026-09-01 01:35:32 | 48.22971 | 13.89202 | 108° | 88km/h | 6011m | -2.8m/s | -13.7°C | 3.2% | 485.6hPa | 2.6V | 07:27:00 | 00:00:00 | 00:00:00 | |
| OE5MMP-10 | 2026-09-01 01:35:31 | 48.22985 | 13.89139 | 109° | 86km/h | 6016m | -2.9m/s | -13.7°C | 3.4% | 485.2hPa | 2.6V | 00:00:00 | 03:06:02 | 00:00:00 | |
| OE5FHM-15 | 2026-09-01 01:35:26 | 48.23019 | 13.88982 | 110° | 89km/h | 6031m | -2.8m/s | -13.7°C | 3.4% | 484.2hPa | 2.6V | 00:00:00 | 03:05:57 | 00:00:00 | |
| DO3MHA-11 | 2026-09-01 01:35:25 | 48.23025 | 13.88952 | 108° | 89km/h | 6034m | -2.8m/s | -13.8°C | 3.4% | 484.1hPa | 2.6V | 00:00:00 | 03:05:56 | 00:00:00 | |
| OE5HKT-10 | 2026-09-01 01:35:22 | 48.23043 | 13.88859 | 105° | 89km/h | 6043m | -2.9m/s | -13.8°C | 3.4% | 483.5hPa | 2.6V | 00:00:00 | 03:05:53 | 00:00:00 | |
| OE5MMP-10 | 2026-09-01 01:35:21 | 48.23049 | 13.88827 | 105° | 89km/h | 6046m | -2.9m/s | -13.8°C | 3.5% | 483.3hPa | 2.6V | 07:27:00 | 03:05:52 | 00:00:00 | |
| OE5REO-15 | 2026-09-01 01:35:17 | 48.23067 | 13.88727 | 107° | 91km/h | 6054m | -2.9m/s | -13.9°C | 3.1% | 482.7hPa | 2.6V | 07:27:00 | 00:00:00 | 00:00:00 | |
| DO3MHA-11 | 2026-09-01 01:35:15 | 48.23086 | 13.88627 | 108° | 88km/h | 6063m | -3.0m/s | -13.8°C | 2.9% | 482.1hPa | 2.6V | 00:00:00 | 03:05:46 | 00:00:00 | |
| OE5WHR-10 | 2026-09-01 01:35:14 | 48.23094 | 13.88595 | 109° | 89km/h | 6066m | -2.9m/s | -13.8°C | 2.8% | 482.0hPa | 2.6V | 00:00:00 | 00:00:00 | 00:00:00 | |
| OE5DXL-15 | 2026-09-01 01:35:12 | 48.23107 | 13.88532 | 108° | 89km/h | 6072m | -2.8m/s | -13.7°C | 2.6% | 481.7hPa | 2.6V | 07:27:00 | 00:00:00 | 00:00:00 | |
| OE5MMP-10 | 2026-09-01 01:35:11 | 48.23113 | 13.88502 | 106° | 89km/h | 6075m | -3.0m/s | -13.7°C | 2.5% | 481.5hPa | 2.6V | 00:00:00 | 03:05:42 | 00:00:00 | |
| S52SK | 2026-09-01 01:35:07 | 48.23129 | 13.88406 | 104° | 91km/h | 6084m | -2.9m/s | -13.8°C | 2.1% | 480.9hPa | 2.6V | 00:00:00 | 00:00:00 | 00:00:00 | |
| DO3MHA-11 | 2026-09-01 01:35:05 | 48.23147 | 13.88305 | 106° | 89km/h | 6093m | -2.8m/s | -13.7°C | 2.3% | 480.3hPa | 2.6V | 00:00:00 | 03:05:36 | 00:00:00 | |
| OE5DRO-10 | 2026-09-01 01:35:03 | 48.23158 | 13.88240 | 104° | 91km/h | 6099m | -2.9m/s | -13.6°C | 2.3% | 480.0hPa | 2.6V | 00:00:00 | 00:00:00 | 00:00:00 | |
| S52SK | 2026-09-01 01:35:02 | 48.23158 | 13.88240 | 104° | 89km/h | 6099m | -3.0m/s | -13.7°C | 2.0% | 480.1hPa | 2.6V | 00:00:00 | 00:00:00 | 00:00:00 | |
| OE5MMP-10 | 2026-09-01 01:35:01 | 48.23169 | 13.88173 | 105° | 89km/h | 6105m | -2.9m/s | -13.6°C | 2.3% | 479.6hPa | 2.6V | 00:00:00 | 03:05:32 | 00:00:00 | |
| OE5FHM-15 | 2026-09-01 01:34:56 | 48.23196 | 13.88008 | 104° | 91km/h | 6119m | -2.8m/s | -13.7°C | 3.0% | 478.7hPa | 2.6V | 00:00:00 | 03:05:27 | 00:00:00 | |
| DO3MHA-11 | 2026-09-01 01:34:55 | 48.23201 | 13.87974 | 105° | 91km/h | 6122m | -2.8m/s | -13.7°C | 3.1% | 478.4hPa | 2.6V | 00:00:00 | 03:05:26 | 00:00:00 | |
| OE5WHR-10 | 2026-09-01 01:34:53 | 48.23213 | 13.87908 | 105° | 91km/h | 6128m | -2.9m/s | -13.7°C | 3.3% | 478.2hPa | 2.6V | 00:00:00 | 03:05:24 | 00:00:00 | |
| OE5MMP-10 | 2026-09-01 01:34:51 | 48.23224 | 13.87841 | 104° | 91km/h | 6134m | -3.0m/s | -13.8°C | 3.3% | 477.7hPa | 2.6V | 00:00:00 | 03:05:22 | 00:00:00 | |
| DO3MHA-11 | 2026-09-01 01:34:45 | 48.23258 | 13.87640 | 104° | 91km/h | 6152m | -2.9m/s | -13.8°C | 4.1% | 476.7hPa | 2.6V | 00:00:00 | 03:05:16 | 00:00:00 | |
| OE5DRO-10 | 2026-09-01 01:34:44 | 48.23264 | 13.87606 | 105° | 91km/h | 6155m | -3.0m/s | -13.9°C | 4.2% | 476.4hPa | 2.6V | 00:00:00 | 00:00:00 | 00:00:00 | |
| OE5DXL-15 | 2026-09-01 01:34:42 | 48.23275 | 13.87540 | 104° | 91km/h | 6161m | -2.8m/s | -13.9°C | 4.4% | 476.0hPa | 2.6V | 00:00:00 | 00:00:00 | 00:00:00 | |
| OE5MMP-10 | 2026-09-01 01:34:41 | 48.23280 | 13.87507 | 103° | 91km/h | 6164m | -2.9m/s | -13.9°C | 4.5% | 475.8hPa | 2.6V | 00:00:00 | 03:05:12 | 00:00:00 | |
| OE5HKT-10 | 2026-09-01 01:34:40 | 48.23286 | 13.87474 | 103° | 91km/h | 6167m | -2.9m/s | -13.9°C | 4.6% | 475.7hPa | 2.6V | 00:00:00 | 00:00:00 | 00:00:00 | |
| DO3MHA-11 | 2026-09-01 01:34:35 | 48.23313 | 13.87305 | 103° | 91km/h | 6182m | -3.0m/s | -14.1°C | 4.8% | 474.6hPa | 2.6V | 00:00:00 | 03:05:06 | 00:00:00 | |
| OE5WHR-10 | 2026-09-01 01:34:32 | 48.23329 | 13.87203 | 104° | 91km/h | 6191m | -3.1m/s | -14.2°C | 4.9% | 474.1hPa | 2.6V | 07:28:00 | 00:00:00 | 00:00:00 | |
| OE5MMP-10 | 2026-09-01 01:34:31 | 48.23335 | 13.87170 | 104° | 91km/h | 6194m | -2.8m/s | -14.2°C | 4.9% | 473.9hPa | 2.6V | 00:00:00 | 03:05:02 | 00:00:00 | |
| OE5REO-15 | 2026-09-01 01:34:29 | 48.23340 | 13.87137 | 103° | 89km/h | 6197m | -3.0m/s | -14.3°C | 4.7% | 473.9hPa | 2.6V | 07:28:00 | 00:00:00 | 00:00:00 | |
| OE5FHM-15 | 2026-09-01 01:34:26 | 48.23359 | 13.87002 | 104° | 91km/h | 6209m | -3.0m/s | -14.3°C | 5.2% | 473.0hPa | 2.6V | 00:00:00 | 03:04:57 | 00:00:00 | |
| DO3MHA-11 | 2026-09-01 01:34:25 | 48.23365 | 13.86969 | 103° | 91km/h | 6212m | -2.9m/s | -14.3°C | 5.2% | 472.8hPa | 2.6V | 00:00:00 | 03:04:56 | 00:00:00 | |
| OE3JTB-15 | 2026-09-01 01:34:24 | 48.23370 | 13.86935 | 103° | 91km/h | 6215m | -3.1m/s | -14.4°C | 5.3% | 472.6hPa | 2.6V | 00:00:00 | 00:00:00 | 00:00:00 | |
| OE5MMP-10 | 2026-09-01 01:34:21 | 48.23386 | 13.86831 | 105° | 89km/h | 6225m | -3.0m/s | -14.4°C | 5.4% | 472.1hPa | 2.6V | 00:00:00 | 03:04:52 | 00:00:00 | |
| OE5HKT-10 | 2026-09-01 01:34:19 | 48.23398 | 13.86764 | 104° | 91km/h | 6231m | -3.0m/s | -14.5°C | 5.5% | 471.5hPa | 2.6V | 07:28:00 | 03:04:50 | 00:00:00 | |
| DO3MHA-11 | 2026-09-01 01:34:15 | 48.23418 | 13.86632 | 103° | 91km/h | 6244m | -3.1m/s | -14.6°C | 5.6% | 470.8hPa | 2.6V | 07:28:00 | 03:04:46 | 00:00:00 | |
| OE5REO-15 | 2026-09-01 01:34:13 | 48.23423 | 13.86599 | 103° | 86km/h | 6247m | -3.3m/s | -14.7°C | 5.2% | 470.7hPa | 2.6V | 07:28:00 | 00:00:00 | 00:00:00 | |
| OE5DXL-15 | 2026-09-01 01:34:12 | 48.23430 | 13.86533 | 100° | 93km/h | 6253m | -3.2m/s | -14.7°C | 5.7% | 470.2hPa | 2.6V | 00:00:00 | 00:00:00 | 00:00:00 | |
| OE5WHR-10 | 2026-09-01 01:34:11 | 48.23434 | 13.86499 | 101° | 93km/h | 6256m | -3.1m/s | -14.7°C | 5.9% | 470.1hPa | 2.6V | 00:00:00 | 00:00:00 | 00:00:00 | |
| OE5DRO-10 | 2026-09-01 01:34:06 | 48.23462 | 13.86326 | 104° | 91km/h | 6272m | -2.9m/s | -14.8°C | 6.7% | 469.1hPa | 2.6V | 00:00:00 | 00:00:00 | 00:00:00 | |
| DO3MHA-11 | 2026-09-01 01:34:05 | 48.23467 | 13.86293 | 103° | 91km/h | 6276m | -3.1m/s | -14.8°C | 6.8% | 468.9hPa | 2.6V | 00:00:00 | 03:04:36 | 00:00:00 | |
| OE5MMP-10 | 2026-09-01 01:34:01 | 48.23486 | 13.86157 | 103° | 91km/h | 6288m | -3.0m/s | -14.9°C | 7.1% | 468.1hPa | 2.6V | 07:28:00 | 03:04:32 | 00:00:00 | |
| OE5HKT-10 | 2026-09-01 01:33:58 | 48.23499 | 13.86056 | 100° | 93km/h | 6297m | -3.1m/s | -15.0°C | 7.2% | 467.5hPa | 2.6V | 00:00:00 | 00:00:00 | 00:00:00 | |
| OE5REO-15 | 2026-09-01 01:33:57 | 48.23499 | 13.86056 | 101° | 91km/h | 6297m | -3.2m/s | -15.0°C | 6.8% | 467.6hPa | 2.6V | 07:28:00 | 00:00:00 | 00:00:00 | |
| OE5FHM-15 | 2026-09-01 01:33:56 | 48.23507 | 13.85987 | 101° | 93km/h | 6303m | -3.0m/s | -15.0°C | 7.4% | 467.2hPa | 2.6V | 00:00:00 | 03:04:27 | 00:00:00 | |
| DO3MHA-11 | 2026-09-01 01:33:55 | 48.23512 | 13.85952 | 102° | 93km/h | 6307m | -3.0m/s | -15.0°C | 7.5% | 467.0hPa | 2.6V | 00:00:00 | 03:04:26 | 00:00:00 | |
| OE5MMP-10 | 2026-09-01 01:33:51 | 48.23528 | 13.85813 | 101° | 93km/h | 6319m | -3.3m/s | -15.2°C | 7.7% | 466.2hPa | 2.6V | 00:00:00 | 03:04:22 | 00:00:00 | |
| OE5WHR-10 | 2026-09-01 01:33:50 | 48.23533 | 13.85778 | 102° | 93km/h | 6322m | -3.0m/s | -15.2°C | 7.7% | 466.0hPa | 2.6V | 00:00:00 | 03:04:21 | 00:00:00 | |
| OE5DRO-10 | 2026-09-01 01:33:47 | 48.23546 | 13.85675 | 101° | 93km/h | 6331m | -3.1m/s | -15.3°C | 7.9% | 465.5hPa | 2.6V | 07:28:00 | 00:00:00 | 00:00:00 | |
| DO3MHA-11 | 2026-09-01 01:33:45 | 48.23554 | 13.85606 | 100° | 93km/h | 6337m | -3.3m/s | -15.3°C | 8.0% | 465.1hPa | 2.6V | 00:00:00 | 03:04:16 | 00:00:00 | |
| DG1MFX-10 | 2026-09-01 01:33:43 | 48.23558 | 13.85572 | 102° | 93km/h | 6341m | -3.2m/s | -15.4°C | 7.6% | 464.9hPa | 2.6V | 00:00:00 | 00:00:00 | 00:00:00 | |
| OE5DXL-15 | 2026-09-01 01:33:42 | 48.23566 | 13.85503 | 100° | 93km/h | 6347m | -3.4m/s | -15.4°C | 8.2% | 464.5hPa | 2.6V | 00:00:00 | 00:00:00 | 00:00:00 | |
| OE5MMP-10 | 2026-09-01 01:33:41 | 48.23570 | 13.85469 | 100° | 93km/h | 6351m | -3.2m/s | -15.4°C | 8.2% | 464.3hPa | 2.6V | 00:00:00 | 03:04:12 | 00:00:00 | |
| S52SK | 2026-09-01 01:33:39 | 48.23574 | 13.85434 | 101° | 95km/h | 6354m | -3.1m/s | -15.5°C | 7.8% | 464.1hPa | 2.6V | 00:00:00 | 00:00:00 | 00:00:00 | |
| OE5HKT-10 | 2026-09-01 01:33:37 | 48.23588 | 13.85330 | 102° | 93km/h | 6363m | -3.2m/s | -15.5°C | 8.3% | 463.5hPa | 2.6V | 00:00:00 | 00:00:00 | 00:00:00 | |
| DO3MHA-11 | 2026-09-01 01:33:35 | 48.23596 | 13.85262 | 100° | 93km/h | 6370m | -3.1m/s | -15.5°C | 8.3% | 463.1hPa | 2.6V | 00:00:00 | 03:04:06 | 00:00:00 | |
| OE5MMP-10 | 2026-09-01 01:33:31 | 48.23612 | 13.85123 | 100° | 93km/h | 6382m | -3.2m/s | -15.6°C | 8.3% | 462.3hPa | 2.6V | 00:00:00 | 03:04:02 | 00:00:00 | |
| OE5WHR-10 | 2026-09-01 01:33:29 | 48.23619 | 13.85054 | 99° | 93km/h | 6389m | -3.1m/s | -15.6°C | 8.3% | 461.9hPa | 2.5V | 00:00:00 | 00:00:00 | 00:00:00 | |
| OE5DRO-10 | 2026-09-01 01:33:28 | 48.23622 | 13.85019 | 100° | 93km/h | 6392m | -3.1m/s | -15.6°C | 8.2% | 461.6hPa | 2.6V | 00:00:00 | 00:00:00 | 00:00:00 | |
| OE5FHM-15 | 2026-09-01 01:33:26 | 48.23630 | 13.84948 | 101° | 93km/h | 6398m | -3.2m/s | -15.7°C | 8.1% | 461.3hPa | 2.6V | 00:00:00 | 03:03:57 | 00:00:00 | |
| DO3MHA-11 | 2026-09-01 01:33:25 | 48.23634 | 13.84914 | 100° | 93km/h | 6401m | -3.0m/s | -15.7°C | 7.9% | 461.2hPa | 2.6V | 00:00:00 | 03:03:56 | 00:00:00 | |
| DG1MFX-10 | 2026-09-01 01:33:22 | 48.23642 | 13.84844 | 100° | 95km/h | 6408m | -3.2m/s | -15.7°C | 7.2% | 460.8hPa | 2.6V | 00:00:00 | 00:00:00 | 00:00:00 | |
| OE5MMP-10 | 2026-09-01 01:33:21 | 48.23650 | 13.84774 | 101° | 93km/h | 6414m | -3.2m/s | -15.7°C | 7.4% | 460.4hPa | 2.6V | 00:00:00 | 03:03:52 | 00:00:00 | |
| OE5HKT-10 | 2026-09-01 01:33:16 | 48.23669 | 13.84599 | 100° | 93km/h | 6430m | -3.2m/s | -15.8°C | 7.2% | 459.4hPa | 2.6V | 00:00:00 | 03:03:47 | 00:00:00 | |
| DO3MHA-11 | 2026-09-01 01:33:15 | 48.23673 | 13.84565 | 100° | 93km/h | 6433m | -3.1m/s | -15.8°C | 7.2% | 459.2hPa | 2.6V | 00:00:00 | 03:03:46 | 00:00:00 | |
| OE5DXL-15 | 2026-09-01 01:33:12 | 48.23684 | 13.84461 | 99° | 93km/h | 6443m | -3.3m/s | -15.9°C | 6.7% | 458.5hPa | 2.6V | 00:00:00 | 00:00:00 | 00:00:00 | |
| OE5MMP-10 | 2026-09-01 01:33:11 | 48.23688 | 13.84425 | 101° | 93km/h | 6446m | -3.1m/s | -15.9°C | 6.6% | 458.3hPa | 2.6V | 00:00:00 | 03:03:42 | 00:00:00 | |
| OE5REO-15 | 2026-09-01 01:33:10 | 48.23688 | 13.84425 | 101° | 95km/h | 6446m | -3.2m/s | -16.0°C | 6.2% | 458.4hPa | 2.6V | 07:29:00 | 00:00:00 | 00:00:00 | |
| OE5DRO-10 | 2026-09-01 01:33:09 | 48.23697 | 13.84355 | 101° | 93km/h | 6452m | -3.1m/s | -15.9°C | 6.5% | 458.0hPa | 2.6V | 00:00:00 | 00:00:00 | 00:00:00 | |
| OE5WHR-10 | 2026-09-01 01:33:08 | 48.23701 | 13.84321 | 100° | 93km/h | 6455m | -3.1m/s | -16.0°C | 6.6% | 457.9hPa | 2.5V | 00:00:00 | 00:00:00 | 00:00:00 | |
| DO3MHA-11 | 2026-09-01 01:33:05 | 48.23712 | 13.84216 | 101° | 93km/h | 6465m | -3.1m/s | -16.0°C | 6.6% | 457.2hPa | 2.5V | 00:00:00 | 03:03:36 | 00:00:00 | |
| OE5MMP-10 | 2026-09-01 01:33:01 | 48.23727 | 13.84077 | 99° | 95km/h | 6478m | -3.1m/s | -16.1°C | 6.5% | 456.5hPa | 2.5V | 00:00:00 | 03:03:32 | 00:00:00 | |
| OE3JTB-15 | 2026-09-01 01:32:57 | 48.23742 | 13.83935 | 100° | 95km/h | 6490m | -3.3m/s | -16.2°C | 6.5% | 455.7hPa | 2.5V | 00:00:00 | 00:00:00 | 00:00:00 | |
| OE5FHM-15 | 2026-09-01 01:32:56 | 48.23746 | 13.83901 | 99° | 95km/h | 6493m | -3.0m/s | -16.2°C | 6.4% | 455.5hPa | 2.6V | 07:29:00 | 03:03:27 | 00:00:00 | |
| DO3MHA-11 | 2026-09-01 01:32:55 | 48.23749 | 13.83865 | 98° | 95km/h | 6497m | -3.1m/s | -16.3°C | 6.4% | 455.3hPa | 2.6V | 07:29:00 | 03:03:26 | 00:00:00 | |
| OE5MMP-10 | 2026-09-01 01:32:51 | 48.23764 | 13.83724 | 99° | 95km/h | 6509m | -3.2m/s | -16.4°C | 6.7% | 454.5hPa | 2.6V | 00:00:00 | 03:03:22 | 00:00:00 | |
| OE5DRO-10 | 2026-09-01 01:32:50 | 48.23767 | 13.83689 | 98° | 95km/h | 6512m | -3.1m/s | -16.4°C | 6.8% | 454.4hPa | 2.6V | 00:00:00 | 00:00:00 | 00:00:00 | |
| OE5WHR-10 | 2026-09-01 01:32:47 | 48.23776 | 13.83582 | 99° | 95km/h | 6522m | -3.1m/s | -16.5°C | 7.0% | 453.8hPa | 2.6V | 00:00:00 | 03:03:18 | 00:00:00 | |
| DO3MHA-11 | 2026-09-01 01:32:45 | 48.23783 | 13.83512 | 97° | 95km/h | 6529m | -3.1m/s | -16.5°C | 7.1% | 453.3hPa | 2.6V | 00:00:00 | 03:03:16 | 00:00:00 | |
| OE5DXL-15 | 2026-09-01 01:32:42 | 48.23792 | 13.83405 | 98° | 95km/h | 6538m | -3.1m/s | -16.6°C | 7.2% | 452.8hPa | 2.6V | 00:00:00 | 00:00:00 | 00:00:00 | |
| OE5MMP-10 | 2026-09-01 01:32:41 | 48.23795 | 13.83369 | 99° | 93km/h | 6541m | -3.0m/s | -16.6°C | 7.2% | 452.6hPa | 2.6V | 07:29:00 | 03:03:12 | 00:00:00 | |
| OE5REO-15 | 2026-09-01 01:32:39 | 48.23798 | 13.83334 | 99° | 93km/h | 6544m | -3.3m/s | -16.7°C | 6.7% | 452.4hPa | 2.6V | 07:30:00 | 00:00:00 | 00:00:00 | |
| DO3MHA-11 | 2026-09-01 01:32:35 | 48.23814 | 13.83158 | 98° | 95km/h | 6560m | -3.1m/s | -16.8°C | 7.6% | 451.4hPa | 2.6V | 00:00:00 | 03:03:06 | 00:00:00 | |
| OE5HKT-10 | 2026-09-01 01:32:34 | 48.23817 | 13.83123 | 97° | 95km/h | 6563m | -3.2m/s | -16.8°C | 7.7% | 451.2hPa | 2.6V | 00:00:00 | 00:00:00 | 00:00:00 | |
| DG1MFX-10 | 2026-09-01 01:32:33 | 48.23817 | 13.83123 | 98° | 93km/h | 6563m | -3.3m/s | -16.8°C | 7.3% | 451.3hPa | 2.6V | 07:30:00 | 00:00:00 | 00:00:00 | |
| OE5MMP-10 | 2026-09-01 01:32:31 | 48.23825 | 13.83016 | 98° | 95km/h | 6573m | -3.1m/s | -16.9°C | 7.9% | 450.7hPa | 2.6V | 00:00:00 | 03:03:02 | 00:00:00 | |
| S52SK | 2026-09-01 01:32:29 | 48.23828 | 13.82980 | 99° | 95km/h | 6576m | -3.2m/s | -16.9°C | 7.5% | 450.6hPa | 2.6V | 00:00:00 | 00:00:00 | 00:00:00 | |
| OE3JTB-15 | 2026-09-01 01:32:28 | 48.23834 | 13.82909 | 97° | 95km/h | 6582m | -3.1m/s | -17.0°C | 8.1% | 450.2hPa | 2.6V | 07:30:00 | 00:00:00 | 00:00:00 | |
| OE5FHM-15 | 2026-09-01 01:32:26 | 48.23839 | 13.82838 | 96° | 95km/h | 6588m | -3.2m/s | -17.0°C | 8.3% | 449.7hPa | 2.6V | 00:00:00 | 03:02:57 | 00:00:00 | |
| DO3MHA-11 | 2026-09-01 01:32:25 | 48.23842 | 13.82802 | 97° | 95km/h | 6592m | -3.2m/s | -17.0°C | 8.6% | 449.6hPa | 2.6V | 00:00:00 | 03:02:56 | 00:00:00 | |
| OE5REO-15 | 2026-09-01 01:32:24 | 48.23841 | 13.82802 | 97° | 97km/h | 6592m | -3.2m/s | -17.1°C | 8.1% | 449.6hPa | 2.5V | 07:30:00 | 00:00:00 | 00:00:00 | |
| S52SK | 2026-09-01 01:32:23 | 48.23845 | 13.82766 | 98° | 95km/h | 6595m | -3.1m/s | -17.1°C | 8.3% | 449.5hPa | 2.5V | 00:00:00 | 00:00:00 | 00:00:00 | |
| OE5MMP-10 | 2026-09-01 01:32:21 | 48.23851 | 13.82658 | 95° | 95km/h | 6604m | -3.1m/s | -17.2°C | 9.7% | 448.8hPa | 2.5V | 00:00:00 | 03:02:52 | 00:00:00 | |
| DO3MHA-11 | 2026-09-01 01:32:15 | 48.23866 | 13.82443 | 95° | 97km/h | 6623m | -2.9m/s | -17.3°C | 10.0% | 447.7hPa | 2.5V | 00:00:00 | 03:02:46 | 00:00:00 | |
| OE5HKT-10 | 2026-09-01 01:32:13 | 48.23871 | 13.82371 | 96° | 97km/h | 6629m | -3.0m/s | -17.4°C | 10.1% | 447.3hPa | 2.5V | 00:00:00 | 03:02:44 | 00:00:00 | |
| OE5DXL-15 | 2026-09-01 01:32:12 | 48.23873 | 13.82335 | 96° | 97km/h | 6632m | -3.1m/s | -17.4°C | 10.3% | 447.1hPa | 2.5V | 00:00:00 | 00:00:00 | 00:00:00 | |
| OE5MMP-10 | 2026-09-01 01:32:11 | 48.23875 | 13.82299 | 96° | 97km/h | 6635m | -3.0m/s | -17.4°C | 10.2% | 447.0hPa | 2.5V | 00:00:00 | 03:02:42 | 00:00:00 | |
| OE5REO-15 | 2026-09-01 01:32:08 | 48.23879 | 13.82227 | 95° | 99km/h | 6642m | -3.2m/s | -17.5°C | 9.7% | 446.6hPa | 2.5V | 07:31:00 | 00:00:00 | 00:00:00 | |
| OE5WHR-10 | 2026-09-01 01:32:05 | 48.23890 | 13.82080 | 97° | 97km/h | 6654m | -3.0m/s | -17.6°C | 10.0% | 445.8hPa | 2.5V | 00:00:00 | 00:00:00 | 00:00:00 | |
| OE5MMP-10 | 2026-09-01 01:32:01 | 48.23899 | 13.81936 | 96° | 97km/h | 6666m | -3.1m/s | -17.7°C | 9.0% | 445.1hPa | 2.5V | 00:00:00 | 03:02:32 | 00:00:00 | |
| OE3JTB-15 | 2026-09-01 01:31:59 | 48.23904 | 13.81864 | 95° | 99km/h | 6672m | -3.1m/s | -17.8°C | 9.2% | 444.7hPa | 2.5V | 00:00:00 | 03:02:30 | 00:00:00 | |
| OE5FHM-15 | 2026-09-01 01:31:56 | 48.23910 | 13.81753 | 96° | 99km/h | 6682m | -3.1m/s | -17.8°C | 8.8% | 444.2hPa | 2.5V | 00:00:00 | 03:02:27 | 00:00:00 | |
| DO3MHA-11 | 2026-09-01 01:31:55 | 48.23912 | 13.81715 | 97° | 97km/h | 6685m | -2.9m/s | -17.9°C | 8.7% | 444.0hPa | 2.5V | 00:00:00 | 03:02:26 | 00:00:00 | |
| OE5DRO-10 | 2026-09-01 01:31:53 | 48.23919 | 13.81641 | 98° | 99km/h | 6691m | -2.9m/s | -17.9°C | 8.5% | 443.6hPa | 2.6V | 00:00:00 | 00:00:00 | 00:00:00 | |
| OE5HKT-10 | 2026-09-01 01:31:52 | 48.23921 | 13.81605 | 97° | 99km/h | 6694m | -2.8m/s | -17.9°C | 8.6% | 443.5hPa | 2.6V | 00:00:00 | 00:00:00 | 00:00:00 | |
| OE5MMP-10 | 2026-09-01 01:31:51 | 48.23924 | 13.81569 | 96° | 99km/h | 6697m | -2.9m/s | -17.9°C | 8.7% | 443.3hPa | 2.6V | 00:00:00 | 03:02:22 | 00:00:00 | |
| DO3MHA-11 | 2026-09-01 01:31:45 | 48.23938 | 13.81349 | 94° | 99km/h | 6715m | -3.0m/s | -18.1°C | 9.0% | 442.2hPa | 2.6V | 00:00:00 | 03:02:16 | 00:00:00 | |
| OE5WHR-10 | 2026-09-01 01:31:44 | 48.23940 | 13.81311 | 95° | 99km/h | 6718m | -3.0m/s | -18.1°C | 9.1% | 442.1hPa | 2.6V | 07:30:00 | 03:02:15 | 00:00:00 | |
| OE5DXL-15 | 2026-09-01 01:31:42 | 48.23945 | 13.81236 | 98° | 99km/h | 6724m | -2.9m/s | -18.2°C | 9.2% | 441.7hPa | 2.6V | 00:00:00 | 00:00:00 | 00:00:00 | |
| OE5MMP-10 | 2026-09-01 01:31:41 | 48.23948 | 13.81199 | 98° | 99km/h | 6727m | -2.9m/s | -18.2°C | 9.1% | 441.5hPa | 2.6V | 00:00:00 | 03:02:12 | 00:00:00 | |
| OE5REO-15 | 2026-09-01 01:31:36 | 48.23960 | 13.81051 | 98° | 99km/h | 6739m | -3.0m/s | -18.3°C | 9.6% | 440.8hPa | 2.6V | 07:31:00 | 00:00:00 | 00:00:00 | |
| DO3MHA-11 | 2026-09-01 01:31:35 | 48.23966 | 13.80977 | 97° | 99km/h | 6745m | -2.9m/s | -18.3°C | 10.6% | 440.4hPa | 2.6V | 07:30:00 | 03:02:06 | 00:00:00 | |
| OE5DRO-10 | 2026-09-01 01:31:34 | 48.23968 | 13.80940 | 96° | 99km/h | 6748m | -2.9m/s | -18.4°C | 11.1% | 440.3hPa | 2.6V | 00:00:00 | 00:00:00 | 00:00:00 | |
| DG1MFX-10 | 2026-09-01 01:31:32 | 48.23971 | 13.80903 | 97° | 100km/h | 6751m | -3.1m/s | -18.4°C | 10.8% | 440.2hPa | 2.6V | 07:31:00 | 00:00:00 | 00:00:00 | |
| OE5MMP-10 | 2026-09-01 01:31:31 | 48.23976 | 13.80827 | 98° | 99km/h | 6757m | -2.9m/s | -18.4°C | 12.0% | 439.8hPa | 2.6V | 00:00:00 | 03:02:02 | 00:00:00 | |
| OE3JTB-15 | 2026-09-01 01:31:30 | 48.23980 | 13.80790 | 98° | 100km/h | 6760m | -3.0m/s | -18.5°C | 12.5% | 439.6hPa | 2.6V | 00:00:00 | 00:00:00 | 00:00:00 | |
| OE5FHM-15 | 2026-09-01 01:31:26 | 48.23992 | 13.80640 | 99° | 100km/h | 6771m | -2.9m/s | -18.6°C | 13.3% | 438.9hPa | 2.5V | 00:00:00 | 03:01:57 | 00:00:00 | |
| DO3MHA-11 | 2026-09-01 01:31:25 | 48.23996 | 13.80603 | 99° | 99km/h | 6774m | -2.7m/s | -18.6°C | 13.6% | 438.8hPa | 2.5V | 00:00:00 | 03:01:56 | 00:00:00 | |
| OE5WHR-10 | 2026-09-01 01:31:23 | 48.24003 | 13.80530 | 97° | 100km/h | 6780m | -2.7m/s | -18.6°C | 14.3% | 438.4hPa | 2.6V | 00:00:00 | 00:00:00 | 00:00:00 | |
| OE5REO-15 | 2026-09-01 01:31:21 | 48.24006 | 13.80492 | 98° | 100km/h | 6783m | -3.0m/s | -18.7°C | 14.2% | 438.2hPa | 2.6V | 07:32:00 | 00:00:00 | 00:00:00 | |
| S52SK | 2026-09-01 01:31:17 | 48.24020 | 13.80342 | 100° | 99km/h | 6794m | -2.7m/s | -18.8°C | 15.4% | 437.6hPa | 2.6V | 00:00:00 | 00:00:00 | 00:00:00 | |
| DO3MHA-11 | 2026-09-01 01:31:15 | 48.24030 | 13.80230 | 98° | 99km/h | 6802m | -2.9m/s | -18.9°C | 16.5% | 437.1hPa | 2.6V | 00:00:00 | 03:01:46 | 00:00:00 | |
| OE5DXL-15 | 2026-09-01 01:31:12 | 48.24041 | 13.80119 | 98° | 100km/h | 6811m | -2.7m/s | -18.9°C | 16.9% | 436.5hPa | 2.6V | 07:31:00 | 00:00:00 | 00:00:00 | |
| OE5MMP-10 | 2026-09-01 01:31:11 | 48.24045 | 13.80082 | 98° | 100km/h | 6813m | -2.8m/s | -19.0°C | 17.2% | 436.3hPa | 2.6V | 00:00:00 | 03:01:42 | 00:00:00 | |
| OE5HKT-10 | 2026-09-01 01:31:10 | 48.24048 | 13.80044 | 98° | 100km/h | 6817m | -2.8m/s | -19.0°C | 17.6% | 436.3hPa | 2.6V | 00:00:00 | 03:01:41 | 00:00:00 | |
| S52SK | 2026-09-01 01:31:06 | 48.24059 | 13.79931 | 100° | 99km/h | 6825m | -2.9m/s | -19.1°C | 0% | 435.7hPa | 2.6V | 00:00:00 | 00:00:00 | 00:00:00 | |
| DO3MHA-11 | 2026-09-01 01:31:05 | 48.24066 | 13.79857 | 98° | 100km/h | 6831m | -2.8m/s | -19.1°C | 21.1% | 435.3hPa | 2.6V | 00:00:00 | 03:01:36 | 00:00:00 | |
| OE5WHR-10 | 2026-09-01 01:31:02 | 48.24078 | 13.79744 | 100° | 100km/h | 6840m | -2.7m/s | -19.2°C | 21.8% | 434.9hPa | 2.6V | 00:00:00 | 00:00:00 | 00:00:00 | |
| OE5MMP-10 | 2026-09-01 01:31:01 | 48.24082 | 13.79707 | 99° | 100km/h | 6842m | -2.8m/s | -19.2°C | 21.9% | 434.7hPa | 2.6V | 00:00:00 | 03:01:32 | 00:00:00 | |
| OE5FHM-15 | 2026-09-01 01:30:56 | 48.24101 | 13.79520 | 100° | 100km/h | 6856m | -2.7m/s | -19.3°C | 23.1% | 433.8hPa | 2.6V | 00:00:00 | 03:01:27 | 00:00:00 | |
| DO3MHA-11 | 2026-09-01 01:30:55 | 48.24105 | 13.79484 | 99° | 100km/h | 6859m | -2.8m/s | -19.4°C | 23.5% | 433.7hPa | 2.5V | 00:00:00 | 03:01:26 | 00:00:00 | |
| DG1MFX-10 | 2026-09-01 01:30:52 | 48.24113 | 13.79408 | 100° | 102km/h | 6865m | -2.7m/s | -19.5°C | 23.4% | 433.4hPa | 2.5V | 07:32:00 | 00:00:00 | 00:00:00 | |
| OE5MMP-10 | 2026-09-01 01:30:51 | 48.24122 | 13.79333 | 102° | 100km/h | 6870m | -2.6m/s | -19.5°C | 24.8% | 433.1hPa | 2.5V | 00:00:00 | 03:01:22 | 00:00:00 | |
| OE5HKT-10 | 2026-09-01 01:30:49 | 48.24131 | 13.79259 | 100° | 100km/h | 6876m | -2.7m/s | -19.5°C | 25.1% | 432.7hPa | 2.5V | 00:00:00 | 00:00:00 | 00:00:00 | |
| DO3MHA-11 | 2026-09-01 01:30:45 | 48.24148 | 13.79108 | 101° | 100km/h | 6887m | -2.8m/s | -19.6°C | 25.8% | 432.1hPa | 2.6V | 00:00:00 | 03:01:16 | 00:00:00 | |
| OE5DXL-15 | 2026-09-01 01:30:42 | 48.24161 | 13.78995 | 100° | 102km/h | 6895m | -2.7m/s | -19.7°C | 26.3% | 431.7hPa | 2.6V | 00:00:00 | 00:00:00 | 00:00:00 | |
| OE5WHR-10 | 2026-09-01 01:30:41 | 48.24165 | 13.78956 | 100° | 102km/h | 6898m | -2.9m/s | -19.7°C | 26.5% | 431.4hPa | 2.6V | 00:00:00 | 03:01:12 | 00:00:00 | |
| OE5DRO-10 | 2026-09-01 01:30:37 | 48.24184 | 13.78808 | 99° | 102km/h | 6909m | -2.8m/s | -19.8°C | 27.5% | 430.8hPa | 2.6V | 00:00:00 | 00:00:00 | 00:00:00 | |
| DO3MHA-11 | 2026-09-01 01:30:35 | 48.24191 | 13.78734 | 99° | 102km/h | 6915m | -2.8m/s | -19.9°C | 27.8% | 430.5hPa | 2.6V | 00:00:00 | 03:01:06 | 00:00:00 | |
| OE5REO-15 | 2026-09-01 01:30:34 | 48.24191 | 13.78734 | 99° | 102km/h | 6915m | -2.8m/s | -19.9°C | 26.7% | 430.5hPa | 2.6V | 07:32:00 | 00:00:00 | 00:00:00 | |
| OE3JTB-15 | 2026-09-01 01:30:32 | 48.24204 | 13.78618 | 101° | 104km/h | 6923m | -2.7m/s | -19.9°C | 28.8% | 430.0hPa | 2.6V | 00:00:00 | 03:01:03 | 00:00:00 | |
| OE5MMP-10 | 2026-09-01 01:30:31 | 48.24208 | 13.78580 | 101° | 102km/h | 6925m | -2.5m/s | -19.9°C | 29.1% | 429.8hPa | 2.6V | 00:00:00 | 03:01:02 | 00:00:00 | |
| OE5HKT-10 | 2026-09-01 01:30:28 | 48.24220 | 13.78467 | 99° | 104km/h | 6933m | -2.6m/s | -20.0°C | 30.6% | 429.4hPa | 2.6V | 00:00:00 | 00:00:00 | 00:00:00 | |
| OE5FHM-15 | 2026-09-01 01:30:26 | 48.24229 | 13.78390 | 101° | 106km/h | 6939m | -2.8m/s | -20.0°C | 31.3% | 429.0hPa | 2.6V | 00:00:00 | 03:00:57 | 00:00:00 | |
| DO3MHA-11 | 2026-09-01 01:30:25 | 48.24233 | 13.78352 | 100° | 104km/h | 6942m | -2.9m/s | -20.0°C | 31.6% | 428.9hPa | 2.6V | 00:00:00 | 03:00:56 | 00:00:00 | |
| OE5MMP-10 | 2026-09-01 01:30:21 | 48.24249 | 13.78196 | 100° | 106km/h | 6953m | -2.6m/s | -20.1°C | 32.1% | 428.3hPa | 2.6V | 00:00:00 | 03:00:52 | 00:00:00 | |
| OE5WHR-10 | 2026-09-01 01:30:20 | 48.24254 | 13.78157 | 100° | 106km/h | 6956m | -2.5m/s | -20.1°C | 32.5% | 428.1hPa | 2.6V | 00:00:00 | 00:00:00 | 00:00:00 | |
| OE5DRO-10 | 2026-09-01 01:30:18 | 48.24262 | 13.78079 | 98° | 106km/h | 6961m | -2.7m/s | -20.2°C | 32.6% | 427.9hPa | 2.5V | 00:00:00 | 00:00:00 | 00:00:00 | |
| DO3MHA-11 | 2026-09-01 01:30:15 | 48.24273 | 13.77959 | 100° | 106km/h | 6969m | -2.7m/s | -20.3°C | 32.9% | 427.2hPa | 2.5V | 07:32:00 | 03:00:46 | 00:00:00 | |
| OE5DXL-15 | 2026-09-01 01:30:12 | 48.24286 | 13.77840 | 99° | 106km/h | 6977m | -2.7m/s | -20.3°C | 33.1% | 426.8hPa | 2.5V | 00:00:00 | 00:00:00 | 00:00:00 | |
| OE5MMP-10 | 2026-09-01 01:30:11 | 48.24290 | 13.77800 | 99° | 104km/h | 6980m | -2.6m/s | -20.4°C | 33.2% | 426.7hPa | 2.5V | 00:00:00 | 03:00:42 | 00:00:00 | |
| DG1MFX-10 | 2026-09-01 01:30:10 | 48.24290 | 13.77800 | 99° | 108km/h | 6980m | -2.7m/s | -20.4°C | 32.0% | 426.8hPa | 2.5V | 07:32:00 | 00:00:00 | 00:00:00 | |
| OE5HKT-10 | 2026-09-01 01:30:07 | 48.24307 | 13.77642 | 99° | 104km/h | 6990m | -2.6m/s | -20.5°C | 33.7% | 426.1hPa | 2.5V | 00:00:00 | 03:00:38 | 00:00:00 | |
| DO3MHA-11 | 2026-09-01 01:30:05 | 48.24315 | 13.77564 | 99° | 106km/h | 6996m | -2.7m/s | -20.5°C | 33.9% | 425.8hPa | 2.5V | 00:00:00 | 03:00:36 | 00:00:00 | |
| OE5REO-15 | 2026-09-01 01:30:02 | 48.24323 | 13.77485 | 101° | 104km/h | 7001m | -2.6m/s | -20.6°C | 32.9% | 425.5hPa | 2.5V | 07:32:00 | 00:00:00 | 00:00:00 | |
| OE5MMP-10 | 2026-09-01 01:30:01 | 48.24331 | 13.77408 | 99° | 106km/h | 7007m | -2.8m/s | -20.5°C | 34.5% | 425.2hPa | 2.5V | 07:32:00 | 03:00:32 | 00:00:00 | |
| OE5WHR-10 | 2026-09-01 01:29:59 | 48.24338 | 13.77329 | 98° | 106km/h | 7012m | -2.6m/s | -20.6°C | 34.9% | 424.9hPa | 2.6V | 00:00:00 | 00:00:00 | 00:00:00 | |
| OE5FHM-15 | 2026-09-01 01:29:56 | 48.24351 | 13.77209 | 100° | 104km/h | 7021m | -2.6m/s | -20.6°C | 35.4% | 424.4hPa | 2.6V | 00:00:00 | 03:00:27 | 00:00:00 | |
| DO3MHA-11 | 2026-09-01 01:29:55 | 48.24355 | 13.77170 | 99° | 104km/h | 7023m | -2.5m/s | -20.6°C | 35.6% | 424.3hPa | 2.6V | 00:00:00 | 03:00:26 | 00:00:00 | |
| OE5MMP-10 | 2026-09-01 01:29:51 | 48.24371 | 13.77012 | 99° | 106km/h | 7034m | -2.7m/s | -20.7°C | 36.0% | 423.7hPa | 2.6V | 00:00:00 | 03:00:22 | 00:00:00 | |
| DG1MFX-10 | 2026-09-01 01:29:50 | 48.24371 | 13.77012 | 100° | 104km/h | 7034m | -2.7m/s | -20.7°C | 34.7% | 423.7hPa | 2.6V | 07:32:00 | 00:00:00 | 00:00:00 | |
| OE5HKT-10 | 2026-09-01 01:29:46 | 48.24387 | 13.76816 | 98° | 104km/h | 7048m | -2.6m/s | -20.8°C | 36.3% | 422.9hPa | 2.6V | 00:00:00 | 00:00:00 | 00:00:00 | |
| DO3MHA-11 | 2026-09-01 01:29:45 | 48.24390 | 13.76776 | 99° | 104km/h | 7050m | -2.6m/s | -20.8°C | 36.5% | 422.7hPa | 2.5V | 00:00:00 | 03:00:16 | 00:00:00 | |
| OE5DXL-15 | 2026-09-01 01:29:42 | 48.24402 | 13.76657 | 99° | 104km/h | 7058m | -2.7m/s | -20.9°C | 36.6% | 422.3hPa | 2.5V | 00:00:00 | 00:00:00 | 00:00:00 | |
| OE5MMP-10 | 2026-09-01 01:29:41 | 48.24406 | 13.76618 | 100° | 104km/h | 7061m | -2.7m/s | -20.9°C | 36.8% | 422.1hPa | 2.5V | 00:00:00 | 03:00:12 | 00:00:00 | |
| OE5DRO-10 | 2026-09-01 01:29:40 | 48.24411 | 13.76578 | 101° | 104km/h | 7064m | -2.7m/s | -21.0°C | 36.7% | 421.9hPa | 2.5V | 00:00:00 | 00:00:00 | 00:00:00 | |
| OE5WHR-10 | 2026-09-01 01:29:38 | 48.24419 | 13.76502 | 98° | 104km/h | 7070m | -2.8m/s | -21.0°C | 36.9% | 421.7hPa | 2.5V | 00:00:00 | 03:00:09 | 00:00:00 | |
| DO3MHA-11 | 2026-09-01 01:29:35 | 48.24429 | 13.76386 | 98° | 104km/h | 7078m | -2.6m/s | -21.1°C | 37.3% | 421.1hPa | 2.5V | 00:00:00 | 03:00:06 | 00:00:00 | |
| OE3JTB-15 | 2026-09-01 01:29:34 | 48.24432 | 13.76346 | 98° | 104km/h | 7081m | -2.6m/s | -21.1°C | 37.4% | 421.0hPa | 2.5V | 00:00:00 | 00:00:00 | 00:00:00 | |
| OE5MMP-10 | 2026-09-01 01:29:31 | 48.24443 | 13.76228 | 98° | 104km/h | 7089m | -2.6m/s | -21.2°C | 37.8% | 420.6hPa | 2.5V | 00:00:00 | 03:00:02 | 00:00:00 | |
| DG1MFX-10 | 2026-09-01 01:29:30 | 48.24446 | 13.76189 | 98° | 106km/h | 7091m | -2.6m/s | -21.2°C | 36.6% | 420.4hPa | 2.5V | 07:33:00 | 00:00:00 | 00:00:00 | |
| OE5FHM-15 | 2026-09-01 01:29:26 | 48.24461 | 13.76032 | 98° | 104km/h | 7102m | -2.8m/s | -21.3°C | 38.7% | 419.7hPa | 2.5V | 00:00:00 | 02:59:57 | 00:00:00 | |
| DO3MHA-11 | 2026-09-01 01:29:25 | 48.24464 | 13.75994 | 97° | 104km/h | 7105m | -2.7m/s | -21.3°C | 38.8% | 419.6hPa | 2.6V | 00:00:00 | 02:59:56 | 00:00:00 | |
| OE5MMP-10 | 2026-09-01 01:29:21 | 48.24477 | 13.75836 | 98° | 104km/h | 7116m | -2.6m/s | -21.4°C | 39.2% | 419.0hPa | 2.6V | 00:00:00 | 02:59:52 | 00:00:00 | |
| OE5WHR-10 | 2026-09-01 01:29:17 | 48.24490 | 13.75679 | 98° | 106km/h | 7127m | -2.7m/s | -21.5°C | 39.2% | 418.4hPa | 2.6V | 00:00:00 | 00:00:00 | 00:00:00 | |
| DO3MHA-11 | 2026-09-01 01:29:15 | 48.24498 | 13.75599 | 99° | 104km/h | 7132m | -2.6m/s | -21.5°C | 39.2% | 418.1hPa | 2.5V | 00:00:00 | 02:59:46 | 00:00:00 | |
| OE5DXL-15 | 2026-09-01 01:29:12 | 48.24508 | 13.75484 | 97° | 106km/h | 7141m | -2.5m/s | -21.6°C | 38.8% | 417.6hPa | 2.5V | 00:00:00 | 00:00:00 | 00:00:00 | |
| OE5MMP-10 | 2026-09-01 01:29:11 | 48.24511 | 13.75445 | 98° | 108km/h | 7143m | -2.6m/s | -21.6°C | 38.6% | 417.5hPa | 2.5V | 00:00:00 | 02:59:42 | 00:00:00 | |
| DG1MFX-10 | 2026-09-01 01:29:09 | 48.24514 | 13.75406 | 98° | 104km/h | 7146m | -2.7m/s | -21.7°C | 37.0% | 417.4hPa | 2.5V | 07:33:00 | 00:00:00 | 00:00:00 | |
| DO3MHA-11 | 2026-09-01 01:29:05 | 48.24528 | 13.75206 | 98° | 106km/h | 7159m | -2.7m/s | -21.8°C | 38.4% | 416.5hPa | 2.5V | 00:00:00 | 02:59:36 | 00:00:00 | |
| OE5HKT-10 | 2026-09-01 01:29:04 | 48.24532 | 13.75164 | 99° | 106km/h | 7162m | -2.8m/s | -21.8°C | 38.6% | 416.4hPa | 2.5V | 00:00:00 | 02:59:35 | 00:00:00 | |
| OE5DRO-10 | 2026-09-01 01:29:02 | 48.24541 | 13.75082 | 100° | 104km/h | 7168m | -2.7m/s | -21.9°C | 38.9% | 416.1hPa | 2.5V | 00:00:00 | 00:00:00 | 00:00:00 | |
| OE5MMP-10 | 2026-09-01 01:29:01 | 48.24545 | 13.75043 | 100° | 104km/h | 7170m | -2.8m/s | -21.9°C | 38.8% | 415.9hPa | 2.5V | 00:00:00 | 02:59:32 | 00:00:00 | |
| OE5REO-15 | 2026-09-01 01:28:59 | 48.24550 | 13.75004 | 99° | 102km/h | 7173m | -2.8m/s | -22.0°C | 37.1% | 415.8hPa | 2.5V | 07:33:00 | 00:00:00 | 00:00:00 | |
| OE5WHR-10 | 2026-09-01 01:28:56 | 48.24562 | 13.74848 | 97° | 104km/h | 7184m | -2.8m/s | -22.0°C | 38.5% | 415.1hPa | 2.5V | 07:33:00 | 00:00:00 | 00:00:00 | |
| DO3MHA-11 | 2026-09-01 01:28:55 | 48.24566 | 13.74809 | 98° | 104km/h | 7187m | -2.8m/s | -22.1°C | 38.4% | 415.0hPa | 2.5V | 07:33:00 | 02:59:26 | 00:00:00 | |
| OE5MMP-10 | 2026-09-01 01:28:51 | 48.24576 | 13.74652 | 96° | 104km/h | 7198m | -2.7m/s | -22.2°C | 38.5% | 414.3hPa | 2.5V | 00:00:00 | 02:59:22 | 00:00:00 | |
| DG1MFX-10 | 2026-09-01 01:28:50 | 48.24579 | 13.74612 | 98° | 106km/h | 7201m | -2.7m/s | -22.2°C | 37.2% | 414.2hPa | 2.5V | 07:33:00 | 00:00:00 | 00:00:00 | |
| DO3MHA-11 | 2026-09-01 01:28:45 | 48.24595 | 13.74415 | 97° | 104km/h | 7215m | -2.8m/s | -22.3°C | 38.6% | 413.4hPa | 2.5V | 00:00:00 | 02:59:16 | 00:00:00 | |
| OE5REO-15 | 2026-09-01 01:28:44 | 48.24595 | 13.74415 | 98° | 106km/h | 7215m | -2.8m/s | -22.4°C | 37.1% | 413.5hPa | 2.5V | 07:34:00 | 00:00:00 | 00:00:00 | |
| OE5HKT-10 | 2026-09-01 01:28:43 | 48.24601 | 13.74336 | 97° | 104km/h | 7221m | -2.8m/s | -22.4°C | 38.3% | 413.1hPa | 2.5V | 07:33:00 | 00:00:00 | 00:00:00 | |
| OE5DXL-15 | 2026-09-01 01:28:42 | 48.24604 | 13.74297 | 97° | 104km/h | 7223m | -2.8m/s | -22.4°C | 38.3% | 412.9hPa | 2.5V | 00:00:00 | 00:00:00 | 00:00:00 | |
| OE5MMP-10 | 2026-09-01 01:28:41 | 48.24607 | 13.74258 | 96° | 104km/h | 7227m | -2.9m/s | -22.4°C | 38.3% | 412.7hPa | 2.5V | 07:33:00 | 02:59:12 | 00:00:00 | |
| S52SK | 2026-09-01 01:28:38 | 48.24612 | 13.74179 | 98° | 106km/h | 7232m | -2.8m/s | -22.5°C | 0% | 412.5hPa | 2.5V | 00:00:00 | 00:00:00 | 00:00:00 | |
| OE3JTB-15 | 2026-09-01 01:28:36 | 48.24622 | 13.74063 | 97° | 104km/h | 7241m | -2.6m/s | -22.6°C | 38.6% | 412.0hPa | 2.5V | 07:33:00 | 00:00:00 | 00:00:00 | |
| OE5WHR-10 | 2026-09-01 01:28:35 | 48.24625 | 13.74024 | 96° | 104km/h | 7243m | -2.7m/s | -22.6°C | 38.7% | 411.8hPa | 2.5V | 00:00:00 | 02:59:06 | 00:00:00 | |
| S52SK | 2026-09-01 01:28:32 | 48.24631 | 13.73945 | 98° | 106km/h | 7249m | -2.8m/s | -22.7°C | 0% | 411.6hPa | 2.5V | 00:00:00 | 00:00:00 | 00:00:00 | |
| OE5MMP-10 | 2026-09-01 01:28:31 | 48.24637 | 13.73866 | 97° | 104km/h | 7255m | -2.7m/s | -22.7°C | 38.8% | 411.3hPa | 2.5V | 00:00:00 | 02:59:02 | 00:00:00 | |
| DG1MFX-10 | 2026-09-01 01:28:29 | 48.24643 | 13.73787 | 97° | 106km/h | 7260m | -2.9m/s | -22.8°C | 37.2% | 411.0hPa | 2.5V | 07:34:00 | 00:00:00 | 00:00:00 | |
| OE5FHM-15 | 2026-09-01 01:28:26 | 48.24652 | 13.73668 | 97° | 104km/h | 7269m | -2.8m/s | -22.8°C | 39.0% | 410.4hPa | 2.5V | 00:00:00 | 02:58:57 | 00:00:00 | |
| DO3MHA-11 | 2026-09-01 01:28:25 | 48.24655 | 13.73629 | 96° | 106km/h | 7272m | -2.8m/s | -22.8°C | 39.0% | 410.2hPa | 2.5V | 00:00:00 | 02:58:56 | 00:00:00 | |
| OE5DRO-10 | 2026-09-01 01:28:24 | 48.24657 | 13.73590 | 95° | 104km/h | 7275m | -2.8m/s | -22.9°C | 39.1% | 410.1hPa | 2.5V | 00:00:00 | 00:00:00 | 00:00:00 | |
| OE5HKT-10 | 2026-09-01 01:28:22 | 48.24662 | 13.73511 | 96° | 104km/h | 7280m | -2.9m/s | -22.9°C | 39.3% | 409.8hPa | 2.5V | 00:00:00 | 00:00:00 | 00:00:00 | |
| OE5MMP-10 | 2026-09-01 01:28:21 | 48.24664 | 13.73471 | 97° | 104km/h | 7283m | -3.0m/s | -23.0°C | 39.4% | 409.6hPa | 2.5V | 00:00:00 | 02:58:52 | 00:00:00 | |
| DO3MHA-11 | 2026-09-01 01:28:15 | 48.24680 | 13.73232 | 97° | 104km/h | 7301m | -2.9m/s | -23.1°C | 39.8% | 408.6hPa | 2.5V | 00:00:00 | 02:58:46 | 00:00:00 | |
| OE5WHR-10 | 2026-09-01 01:28:14 | 48.24683 | 13.73194 | 96° | 104km/h | 7304m | -2.9m/s | -23.2°C | 39.8% | 408.5hPa | 2.5V | 00:00:00 | 00:00:00 | 00:00:00 | |
| OE5DXL-15 | 2026-09-01 01:28:12 | 48.24688 | 13.73116 | 95° | 104km/h | 7310m | -3.0m/s | -23.2°C | 40.0% | 408.1hPa | 2.5V | 00:00:00 | 00:00:00 | 00:00:00 | |
| OE5MMP-10 | 2026-09-01 01:28:11 | 48.24690 | 13.73076 | 96° | 104km/h | 7313m | -2.8m/s | -23.2°C | 40.1% | 407.9hPa | 2.5V | 00:00:00 | 02:58:42 | 00:00:00 | |
| OE3JTB-15 | 2026-09-01 01:28:07 | 48.24701 | 13.72920 | 96° | 104km/h | 7324m | -3.0m/s | -23.4°C | 40.3% | 407.3hPa | 2.5V | 00:00:00 | 00:00:00 | 00:00:00 | |
| DO3MHA-11 | 2026-09-01 01:28:05 | 48.24705 | 13.72842 | 94° | 106km/h | 7330m | -2.9m/s | -23.4°C | 40.3% | 407.0hPa | 2.5V | 00:00:00 | 02:58:36 | 00:00:00 | |
| OE5HKT-10 | 2026-09-01 01:28:01 | 48.24714 | 13.72681 | 96° | 104km/h | 7342m | -2.8m/s | -23.5°C | 39.3% | 406.3hPa | 2.5V | 00:00:00 | 02:58:32 | 00:00:00 | |
| OE5FHM-15 | 2026-09-01 01:27:56 | 48.24726 | 13.72483 | 96° | 104km/h | 7357m | -3.1m/s | -23.6°C | 39.5% | 405.5hPa | 2.5V | 00:00:00 | 02:58:27 | 00:00:00 | |
| DO3MHA-11 | 2026-09-01 01:27:55 | 48.24728 | 13.72445 | 95° | 104km/h | 7360m | -2.8m/s | -23.7°C | 39.5% | 405.4hPa | 2.5V | 00:00:00 | 02:58:26 | 00:00:00 | |
| OE5WHR-10 | 2026-09-01 01:27:53 | 48.24732 | 13.72366 | 95° | 104km/h | 7366m | -2.8m/s | -23.7°C | 39.5% | 405.0hPa | 2.6V | 00:00:00 | 00:00:00 | 00:00:00 | |
| OE5MMP-10 | 2026-09-01 01:27:51 | 48.24736 | 13.72286 | 96° | 104km/h | 7372m | -3.0m/s | -23.8°C | 39.5% | 404.7hPa | 2.6V | 00:00:00 | 02:58:22 | 00:00:00 | |
| OE5DRO-10 | 2026-09-01 01:27:46 | 48.24748 | 13.72088 | 96° | 104km/h | 7387m | -3.0m/s | -23.9°C | 40.0% | 403.8hPa | 2.6V | 00:00:00 | 00:00:00 | 00:00:00 | |
| DO3MHA-11 | 2026-09-01 01:27:45 | 48.24751 | 13.72049 | 97° | 104km/h | 7390m | -3.1m/s | -23.9°C | 40.1% | 403.6hPa | 2.6V | 00:00:00 | 02:58:16 | 00:00:00 | |
| OE5REO-15 | 2026-09-01 01:27:42 | 48.24757 | 13.71932 | 95° | 104km/h | 7398m | -3.0m/s | -24.1°C | 39.0% | 403.2hPa | 2.6V | 07:35:00 | 00:00:00 | 00:00:00 | |
| OE5MMP-10 | 2026-09-01 01:27:41 | 48.24760 | 13.71892 | 95° | 104km/h | 7401m | -2.9m/s | -24.1°C | 41.0% | 403.0hPa | 2.6V | 00:00:00 | 02:58:12 | 00:00:00 | |
| OE5HKT-10 | 2026-09-01 01:27:40 | 48.24762 | 13.71853 | 96° | 104km/h | 7405m | -2.9m/s | -24.1°C | 41.2% | 402.8hPa | 2.6V | 00:00:00 | 00:00:00 | 00:00:00 | |
| OE3JTB-15 | 2026-09-01 01:27:38 | 48.24767 | 13.71774 | 96° | 104km/h | 7411m | -3.1m/s | -24.1°C | 41.4% | 402.5hPa | 2.5V | 00:00:00 | 02:58:09 | 00:00:00 | |
| DO3MHA-11 | 2026-09-01 01:27:35 | 48.24776 | 13.71655 | 98° | 104km/h | 7420m | -2.9m/s | -24.2°C | 41.5% | 402.0hPa | 2.5V | 07:34:00 | 02:58:06 | 00:00:00 | |
| OE5WHR-10 | 2026-09-01 01:27:32 | 48.24786 | 13.71537 | 97° | 104km/h | 7429m | -3.0m/s | -24.3°C | 42.3% | 401.5hPa | 2.5V | 00:00:00 | 02:58:03 | 00:00:00 | |
| OE5MMP-10 | 2026-09-01 01:27:31 | 48.24789 | 13.71499 | 96° | 104km/h | 7432m | -3.0m/s | -24.3°C | 42.4% | 401.3hPa | 2.5V | 00:00:00 | 02:58:02 | 00:00:00 | |
| OE5DRO-10 | 2026-09-01 01:27:27 | 48.24798 | 13.71343 | 95° | 104km/h | 7445m | -3.2m/s | -24.5°C | 42.9% | 400.7hPa | 2.6V | 00:00:00 | 00:00:00 | 00:00:00 | |
| OE5FHM-15 | 2026-09-01 01:27:26 | 48.24800 | 13.71304 | 93° | 102km/h | 7448m | -3.0m/s | -24.5°C | 43.0% | 400.3hPa | 2.5V | 00:00:00 | 02:57:57 | 00:00:00 | |
| DO3MHA-11 | 2026-09-01 01:27:25 | 48.24801 | 13.71264 | 94° | 104km/h | 7451m | -3.2m/s | -24.5°C | 43.2% | 400.3hPa | 2.5V | 00:00:00 | 02:57:56 | 00:00:00 | |
| S52SK | 2026-09-01 01:27:21 | 48.24810 | 13.71144 | 98° | 106km/h | 7460m | -2.9m/s | -24.6°C | 0% | 399.9hPa | 2.5V | 00:00:00 | 00:00:00 | 00:00:00 | |
| OE5HKT-10 | 2026-09-01 01:27:19 | 48.24819 | 13.71027 | 97° | 102km/h | 7469m | -3.1m/s | -24.7°C | 44.4% | 399.3hPa | 2.5V | 00:00:00 | 00:00:00 | 00:00:00 | |
| DO3MHA-11 | 2026-09-01 01:27:15 | 48.24830 | 13.70873 | 96° | 102km/h | 7482m | -3.0m/s | -24.8°C | 45.0% | 398.6hPa | 2.5V | 00:00:00 | 02:57:46 | 00:00:00 | |
| OE5REO-15 | 2026-09-01 01:27:11 | 48.24840 | 13.70715 | 98° | 104km/h | 7494m | -3.0m/s | -24.9°C | 43.7% | 398.0hPa | 2.5V | 07:35:00 | 00:00:00 | 00:00:00 | |
| OE3JTB-15 | 2026-09-01 01:27:09 | 48.24846 | 13.70638 | 96° | 102km/h | 7500m | -3.1m/s | -24.9°C | 45.7% | 397.6hPa | 2.5V | 00:00:00 | 00:00:00 | 00:00:00 | |
| OE5DRO-10 | 2026-09-01 01:27:08 | 48.24849 | 13.70600 | 96° | 102km/h | 7503m | -3.2m/s | -25.0°C | 45.8% | 397.4hPa | 2.5V | 00:00:00 | 00:00:00 | 00:00:00 | |
| DO3MHA-11 | 2026-09-01 01:27:05 | 48.24857 | 13.70485 | 98° | 102km/h | 7512m | -3.2m/s | -25.1°C | 45.8% | 396.9hPa | 2.5V | 00:00:00 | 02:57:36 | 00:00:00 | |
| DG1MFX-10 | 2026-09-01 01:27:04 | 48.24857 | 13.70485 | 98° | 99km/h | 7512m | -3.3m/s | -25.1°C | 44.0% | 397.0hPa | 2.5V | 00:00:00 | 00:00:00 | 00:00:00 | |
| PG1ADW-2 | 2026-09-01 01:27:02 | 48.24865 | 13.70335 | 93° | 104km/h | 7526m | -3.2m/s | -25.2°C | 46.1% | 396.2hPa | 2.5V | 00:00:00 | 00:00:00 | 00:00:00 | |
| OE5MMP-10 | 2026-09-01 01:27:01 | 48.24865 | 13.70335 | 93° | 104km/h | 7526m | -3.2m/s | -25.2°C | 46.1% | 396.2hPa | 2.5V | 00:00:00 | 02:57:32 | 00:00:00 | |
| OE5HKT-10 | 2026-09-01 01:26:58 | 48.24870 | 13.70217 | 95° | 104km/h | 7535m | -2.9m/s | -25.2°C | 46.4% | 395.8hPa | 2.5V | 00:00:00 | 02:57:29 | 00:00:00 | |
| OE5FHM-15 | 2026-09-01 01:26:56 | 48.24874 | 13.70139 | 94° | 104km/h | 7541m | -3.0m/s | -25.3°C | 47.0% | 395.4hPa | 2.5V | 00:00:00 | 02:57:27 | 00:00:00 | |
| DO3MHA-11 | 2026-09-01 01:26:55 | 48.24876 | 13.70100 | 95° | 102km/h | 7544m | -2.9m/s | -25.3°C | 47.4% | 395.2hPa | 2.5V | 00:00:00 | 02:57:26 | 00:00:00 | |
| OE5REO-15 | 2026-09-01 01:26:54 | 48.24875 | 13.70100 | 95° | 106km/h | 7544m | -3.0m/s | -25.4°C | 45.5% | 395.3hPa | 2.5V | 07:36:00 | 00:00:00 | 00:00:00 | |
| OE5MMP-10 | 2026-09-01 01:26:51 | 48.24886 | 13.69943 | 96° | 104km/h | 7556m | -3.1m/s | -25.4°C | 48.9% | 394.5hPa | 2.5V | 00:00:00 | 02:57:22 | 00:00:00 | |
| OE5WHR-10 | 2026-09-01 01:26:50 | 48.24888 | 13.69906 | 95° | 104km/h | 7560m | -3.1m/s | -25.4°C | 49.5% | 394.4hPa | 2.5V | 00:00:00 | 00:00:00 | 00:00:00 | |
| OE5DRO-10 | 2026-09-01 01:26:49 | 48.24890 | 13.69867 | 95° | 104km/h | 7563m | -2.9m/s | -25.4°C | 49.8% | 394.2hPa | 2.5V | 00:00:00 | 00:00:00 | 00:00:00 | |
| DO3MHA-11 | 2026-09-01 01:26:45 | 48.24898 | 13.69712 | 94° | 106km/h | 7575m | -3.1m/s | -25.5°C | 49.9% | 393.5hPa | 2.5V | 00:00:00 | 02:57:16 | 00:00:00 | |
| DG1MFX-10 | 2026-09-01 01:26:43 | 48.24900 | 13.69672 | 94° | 106km/h | 7578m | -3.3m/s | -25.5°C | 47.9% | 393.4hPa | 2.5V | 00:00:00 | 00:00:00 | 00:00:00 | |
| OE5DXL-15 | 2026-09-01 01:26:42 | 48.24904 | 13.69591 | 96° | 104km/h | 7585m | -3.1m/s | -25.5°C | 48.9% | 393.0hPa | 2.5V | 00:00:00 | 00:00:00 | 00:00:00 | |
| OE5MMP-10 | 2026-09-01 01:26:41 | 48.24907 | 13.69551 | 97° | 104km/h | 7588m | -3.2m/s | -25.4°C | 48.6% | 392.8hPa | 2.5V | 00:00:00 | 02:57:12 | 00:00:00 | |
| OE3JTB-15 | 2026-09-01 01:26:40 | 48.24910 | 13.69511 | 97° | 104km/h | 7591m | -3.2m/s | -25.4°C | 48.1% | 392.6hPa | 2.5V | 00:00:00 | 00:00:00 | 00:00:00 | |
| OE5REO-15 | 2026-09-01 01:26:38 | 48.24912 | 13.69472 | 96° | 104km/h | 7594m | -3.1m/s | -25.5°C | 45.3% | 392.6hPa | 2.5V | 07:36:00 | 00:00:00 | 00:00:00 | |
| OE5HKT-10 | 2026-09-01 01:26:37 | 48.24917 | 13.69393 | 94° | 106km/h | 7600m | -3.0m/s | -25.4°C | 46.8% | 392.1hPa | 2.5V | 00:00:00 | 00:00:00 | 00:00:00 | |
| DO3MHA-11 | 2026-09-01 01:26:35 | 48.24921 | 13.69313 | 96° | 104km/h | 7607m | -3.1m/s | -25.5°C | 46.7% | 391.8hPa | 2.5V | 00:00:00 | 02:57:06 | 00:00:00 | |
| OE5MMP-10 | 2026-09-01 01:26:31 | 48.24929 | 13.69156 | 94° | 104km/h | 7619m | -3.2m/s | -25.5°C | 47.1% | 391.1hPa | 2.5V | 00:00:00 | 02:57:02 | 00:00:00 | |
| OE5DRO-10 | 2026-09-01 01:26:30 | 48.24931 | 13.69116 | 95° | 104km/h | 7622m | -3.1m/s | -25.6°C | 47.2% | 390.9hPa | 2.5V | 00:00:00 | 00:00:00 | 00:00:00 | |
| OE5WHR-10 | 2026-09-01 01:26:29 | 48.24934 | 13.69077 | 96° | 104km/h | 7625m | -2.9m/s | -25.6°C | 47.2% | 390.8hPa | 2.5V | 00:00:00 | 02:57:00 | 00:00:00 | |
| OE5FHM-15 | 2026-09-01 01:26:26 | 48.24939 | 13.68962 | 93° | 106km/h | 7635m | -3.1m/s | -25.6°C | 46.0% | 390.2hPa | 2.5V | 00:00:00 | 02:56:57 | 00:00:00 | |
| DO3MHA-11 | 2026-09-01 01:26:25 | 48.24940 | 13.68922 | 93° | 106km/h | 7638m | -3.2m/s | -25.6°C | 46.1% | 390.1hPa | 2.5V | 00:00:00 | 02:56:56 | 00:00:00 | |
| OE5REO-15 | 2026-09-01 01:26:23 | 48.24942 | 13.68882 | 95° | 108km/h | 7641m | -3.0m/s | -25.7°C | 44.2% | 390.0hPa | 2.6V | 07:36:00 | 00:00:00 | 00:00:00 | |
| DG1MFX-10 | 2026-09-01 01:26:22 | 48.24944 | 13.68841 | 96° | 108km/h | 7644m | -3.1m/s | -25.7°C | 44.3% | 389.8hPa | 2.6V | 00:00:00 | 00:00:00 | 00:00:00 | |
| OE5MMP-10 | 2026-09-01 01:26:21 | 48.24949 | 13.68761 | 95° | 106km/h | 7650m | -3.1m/s | -25.7°C | 46.2% | 389.4hPa | 2.6V | 00:00:00 | 02:56:52 | 00:00:00 | |
| OE5HKT-10 | 2026-09-01 01:26:16 | 48.24961 | 13.68560 | 96° | 104km/h | 7666m | -3.2m/s | -25.8°C | 45.7% | 388.6hPa | 2.6V | 00:00:00 | 00:00:00 | 00:00:00 | |
| DO3MHA-11 | 2026-09-01 01:26:15 | 48.24963 | 13.68521 | 95° | 106km/h | 7669m | -3.1m/s | -25.9°C | 45.7% | 388.5hPa | 2.6V | 07:36:00 | 02:56:46 | 00:00:00 | |
| OE5DXL-15 | 2026-09-01 01:26:12 | 48.24969 | 13.68403 | 95° | 104km/h | 7678m | -3.0m/s | -25.9°C | 46.1% | 387.9hPa | 2.6V | 00:00:00 | 00:00:00 | 00:00:00 | |
| OE5MMP-10 | 2026-09-01 01:26:11 | 48.24971 | 13.68364 | 95° | 104km/h | 7681m | -3.1m/s | -26.0°C | 46.3% | 387.8hPa | 2.6V | 00:00:00 | 02:56:42 | 00:00:00 | |
| OE5WHR-10 | 2026-09-01 01:26:08 | 48.24975 | 13.68245 | 94° | 104km/h | 7691m | -3.1m/s | -26.0°C | 46.3% | 387.3hPa | 2.6V | 07:36:00 | 00:00:00 | 00:00:00 | |
| OE5REO-15 | 2026-09-01 01:26:07 | 48.24975 | 13.68245 | 94° | 106km/h | 7691m | -3.1m/s | -26.1°C | 44.4% | 387.3hPa | 2.6V | 07:37:00 | 00:00:00 | 00:00:00 | |
| S52SK | 2026-09-01 01:26:06 | 48.24977 | 13.68204 | 95° | 108km/h | 7694m | -3.1m/s | -26.1°C | 0% | 387.2hPa | 2.6V | 00:00:00 | 00:00:00 | 00:00:00 | |
| DO3MHA-11 | 2026-09-01 01:26:05 | 48.24982 | 13.68123 | 97° | 104km/h | 7700m | -3.1m/s | -26.1°C | 46.5% | 386.7hPa | 2.6V | 00:00:00 | 02:56:36 | 00:00:00 | |
| OE5MMP-10 | 2026-09-01 01:26:01 | 48.24992 | 13.67967 | 95° | 104km/h | 7712m | -3.0m/s | -26.2°C | 46.5% | 386.1hPa | 2.6V | 07:36:00 | 02:56:32 | 00:00:00 | |
| S52SK | 2026-09-01 01:26:00 | 48.24992 | 13.67967 | 95° | 104km/h | 7712m | -3.0m/s | -26.3°C | 0% | 386.1hPa | 2.5V | 00:00:00 | 00:00:00 | 00:00:00 | |
| OE5FHM-15 | 2026-09-01 01:25:56 | 48.25001 | 13.67770 | 94° | 104km/h | 7728m | -3.0m/s | -26.3°C | 46.3% | 385.3hPa | 2.5V | 00:00:00 | 02:56:27 | 00:00:00 | |
| DO3MHA-11 | 2026-09-01 01:25:55 | 48.25003 | 13.67730 | 95° | 104km/h | 7731m | -3.2m/s | -26.4°C | 46.4% | 385.1hPa | 2.5V | 00:00:00 | 02:56:26 | 00:00:00 | |
| OE5DRO-10 | 2026-09-01 01:25:52 | 48.25010 | 13.67612 | 96° | 104km/h | 7740m | -3.0m/s | -26.4°C | 46.5% | 384.6hPa | 2.6V | 00:00:00 | 00:00:00 | 00:00:00 | |
| OE5MMP-10 | 2026-09-01 01:25:51 | 48.25012 | 13.67573 | 95° | 104km/h | 7743m | -3.0m/s | -26.4°C | 46.2% | 384.5hPa | 2.6V | 00:00:00 | 02:56:22 | 00:00:00 | |
| S52SK | 2026-09-01 01:25:49 | 48.25014 | 13.67534 | 95° | 104km/h | 7746m | -3.0m/s | -26.5°C | 0% | 384.3hPa | 2.6V | 00:00:00 | 00:00:00 | 00:00:00 | |
| OE5WHR-10 | 2026-09-01 01:25:47 | 48.25022 | 13.67416 | 96° | 104km/h | 7755m | -3.1m/s | -26.5°C | 46.0% | 383.8hPa | 2.6V | 00:00:00 | 00:00:00 | 00:00:00 | |
| DO3MHA-11 | 2026-09-01 01:25:45 | 48.25027 | 13.67339 | 95° | 104km/h | 7761m | -3.1m/s | -26.6°C | 46.1% | 383.4hPa | 2.6V | 00:00:00 | 02:56:16 | 00:00:00 | |
| S52SK | 2026-09-01 01:25:43 | 48.25029 | 13.67300 | 96° | 104km/h | 7764m | -3.1m/s | -26.7°C | 0% | 383.3hPa | 2.6V | 00:00:00 | 00:00:00 | 00:00:00 | |
| OE5DXL-15 | 2026-09-01 01:25:42 | 48.25034 | 13.67221 | 97° | 104km/h | 7771m | -3.0m/s | -26.7°C | 46.2% | 383.0hPa | 2.6V | 00:00:00 | 02:56:13 | 00:00:00 | |
| OE5MMP-10 | 2026-09-01 01:25:41 | 48.25036 | 13.67183 | 96° | 104km/h | 7774m | -2.9m/s | -26.7°C | 46.3% | 382.8hPa | 2.5V | 00:00:00 | 02:56:12 | 00:00:00 | |
| S52SK | 2026-09-01 01:25:38 | 48.25041 | 13.67106 | 95° | 104km/h | 7779m | -3.0m/s | -26.8°C | 0% | 382.6hPa | 2.5V | 00:00:00 | 00:00:00 | 00:00:00 | |
| OE5REO-15 | 2026-09-01 01:25:36 | 48.25045 | 13.67027 | 97° | 104km/h | 7786m | -3.1m/s | -26.8°C | 43.7% | 382.3hPa | 2.5V | 07:37:00 | 00:00:00 | 00:00:00 | |
| DO3MHA-11 | 2026-09-01 01:25:35 | 48.25050 | 13.66949 | 96° | 104km/h | 7792m | -3.1m/s | -26.8°C | 45.5% | 381.8hPa | 2.5V | 00:00:00 | 02:56:06 | 00:00:00 | |
| OE5HKT-10 | 2026-09-01 01:25:34 | 48.25053 | 13.66910 | 95° | 104km/h | 7795m | -3.1m/s | -26.8°C | 45.3% | 381.7hPa | 2.5V | 00:00:00 | 00:00:00 | 00:00:00 | |
| OE5DRO-10 | 2026-09-01 01:25:33 | 48.25055 | 13.66871 | 95° | 104km/h | 7798m | -3.0m/s | -26.9°C | 44.9% | 381.5hPa | 2.5V | 00:00:00 | 00:00:00 | 00:00:00 | |
| OE5MMP-10 | 2026-09-01 01:25:31 | 48.25059 | 13.66792 | 96° | 104km/h | 7804m | -3.1m/s | -26.9°C | 44.9% | 381.2hPa | 2.6V | 00:00:00 | 02:56:02 | 00:00:00 | |
| OE5FHM-15 | 2026-09-01 01:25:26 | 48.25069 | 13.66595 | 95° | 102km/h | 7819m | -3.1m/s | -27.0°C | 44.7% | 380.4hPa | 2.6V | 00:00:00 | 02:55:57 | 00:00:00 | |
| OE5MMP-10 | 2026-09-01 01:25:21 | 48.25082 | 13.66397 | 95° | 102km/h | 7835m | -3.1m/s | -27.2°C | 45.5% | 379.6hPa | 2.6V | 00:00:00 | 02:55:52 | 00:00:00 | |
| DO3MHA-11 | 2026-09-01 01:25:15 | 48.25097 | 13.66165 | 94° | 102km/h | 7854m | -3.0m/s | -27.3°C | 45.4% | 378.6hPa | 2.6V | 00:00:00 | 02:55:46 | 00:00:00 | |
| OE5DRO-10 | 2026-09-01 01:25:14 | 48.25099 | 13.66126 | 95° | 102km/h | 7857m | -3.1m/s | -27.3°C | 45.5% | 378.4hPa | 2.6V | 00:00:00 | 00:00:00 | 00:00:00 | |
| OE5HKT-10 | 2026-09-01 01:25:13 | 48.25101 | 13.66087 | 96° | 102km/h | 7860m | -3.0m/s | -27.4°C | 45.4% | 378.3hPa | 2.6V | 00:00:00 | 00:00:00 | 00:00:00 | |
| OE5DXL-15 | 2026-09-01 01:25:12 | 48.25104 | 13.66048 | 96° | 102km/h | 7863m | -3.1m/s | -27.4°C | 45.4% | 378.1hPa | 2.6V | 00:00:00 | 00:00:00 | 00:00:00 | |
| OE5MMP-10 | 2026-09-01 01:25:11 | 48.25106 | 13.66010 | 95° | 102km/h | 7866m | -3.1m/s | -27.4°C | 45.3% | 378.0hPa | 2.6V | 00:00:00 | 02:55:42 | 00:00:00 | |
| OE5WHR-10 | 2026-09-01 01:25:05 | 48.25120 | 13.65776 | 97° | 102km/h | 7884m | -3.0m/s | -27.5°C | 45.3% | 376.9hPa | 2.6V | 00:00:00 | 00:00:00 | 00:00:00 | |
| OE5MMP-10 | 2026-09-01 01:25:01 | 48.25132 | 13.65621 | 99° | 102km/h | 7896m | -3.0m/s | -27.6°C | 45.5% | 376.3hPa | 2.6V | 00:00:00 | 02:55:32 | 00:00:00 | |
| OE5FHM-15 | 2026-09-01 01:24:56 | 48.25145 | 13.65429 | 95° | 102km/h | 7912m | -3.0m/s | -27.7°C | 45.3% | 375.6hPa | 2.6V | 07:37:00 | 02:55:27 | 00:00:00 | |
| DO3MHA-11 | 2026-09-01 01:24:55 | 48.25147 | 13.65390 | 96° | 102km/h | 7915m | -3.0m/s | -27.8°C | 45.2% | 375.3hPa | 2.6V | 07:37:00 | 02:55:26 | 00:00:00 | |
| DG1MFX-10 | 2026-09-01 01:24:53 | 48.25150 | 13.65351 | 97° | 102km/h | 7918m | -3.2m/s | -27.8°C | 43.0% | 375.3hPa | 2.5V | 07:37:00 | 00:00:00 | 00:00:00 | |
| OE5HKT-10 | 2026-09-01 01:24:52 | 48.25156 | 13.65273 | 96° | 102km/h | 7924m | -3.0m/s | -27.8°C | 44.7% | 374.9hPa | 2.5V | 00:00:00 | 02:55:23 | 00:00:00 | |
| OE5MMP-10 | 2026-09-01 01:24:51 | 48.25158 | 13.65234 | 97° | 102km/h | 7928m | -3.1m/s | -27.9°C | 44.5% | 374.7hPa | 2.5V | 00:00:00 | 02:55:22 | 00:00:00 | |
| OE5REO-15 | 2026-09-01 01:24:50 | 48.25158 | 13.65234 | 98° | 104km/h | 7928m | -3.1m/s | -27.9°C | 42.5% | 374.7hPa | 2.5V | 07:37:00 | 00:00:00 | 00:00:00 | |
| DO3MHA-11 | 2026-09-01 01:24:45 | 48.25178 | 13.65008 | 94° | 102km/h | 7946m | -3.0m/s | -28.0°C | 44.6% | 373.8hPa | 2.5V | 00:00:00 | 02:55:16 | 00:00:00 | |
| OE5WHR-10 | 2026-09-01 01:24:44 | 48.25180 | 13.64970 | 94° | 102km/h | 7949m | -2.9m/s | -28.0°C | 44.7% | 373.7hPa | 2.5V | 00:00:00 | 00:00:00 | 00:00:00 | |
| OE5DXL-15 | 2026-09-01 01:24:42 | 48.25184 | 13.64892 | 96° | 102km/h | 7955m | -2.8m/s | -28.1°C | 45.0% | 373.2hPa | 2.5V | 00:00:00 | 00:00:00 | 00:00:00 | |
| OE5MMP-10 | 2026-09-01 01:24:41 | 48.25186 | 13.64853 | 96° | 102km/h | 7958m | -3.0m/s | -28.1°C | 45.0% | 373.1hPa | 2.5V | 07:37:00 | 02:55:12 | 00:00:00 | |
| OE5DRO-10 | 2026-09-01 01:24:36 | 48.25197 | 13.64660 | 96° | 102km/h | 7973m | -2.9m/s | -28.3°C | 44.6% | 372.3hPa | 2.5V | 00:00:00 | 00:00:00 | 00:00:00 | |
| DO3MHA-11 | 2026-09-01 01:24:35 | 48.25199 | 13.64621 | 96° | 102km/h | 7976m | -3.0m/s | -28.3°C | 44.2% | 372.2hPa | 2.5V | 00:00:00 | 02:55:06 | 00:00:00 | |
| OE5REO-15 | 2026-09-01 01:24:34 | 48.25199 | 13.64621 | 97° | 102km/h | 7976m | -3.0m/s | -28.3°C | 42.2% | 372.3hPa | 2.5V | 07:37:00 | 00:00:00 | 00:00:00 | |
| DG1MFX-10 | 2026-09-01 01:24:33 | 48.25202 | 13.64583 | 96° | 102km/h | 7979m | -2.9m/s | -28.3°C | 41.7% | 372.1hPa | 2.5V | 00:00:00 | 00:00:00 | 00:00:00 | |
| OE5MMP-10 | 2026-09-01 01:24:31 | 48.25209 | 13.64466 | 97° | 102km/h | 7989m | -3.0m/s | -28.3°C | 42.3% | 371.6hPa | 2.5V | 00:00:00 | 02:55:02 | 00:00:00 | |
| OE5FHM-15 | 2026-09-01 01:24:26 | 48.25221 | 13.64274 | 95° | 104km/h | 8004m | -3.0m/s | -28.4°C | 41.4% | 370.8hPa | 2.5V | 00:00:00 | 02:54:57 | 00:00:00 | |
| DO3MHA-11 | 2026-09-01 01:24:25 | 48.25223 | 13.64235 | 96° | 102km/h | 8006m | -2.9m/s | -28.4°C | 41.3% | 370.7hPa | 2.5V | 00:00:00 | 02:54:56 | 00:00:00 | |
| OE5WHR-10 | 2026-09-01 01:24:23 | 48.25228 | 13.64158 | 96° | 104km/h | 8013m | -2.9m/s | -28.4°C | 41.3% | 370.4hPa | 2.5V | 00:00:00 | 02:54:54 | 00:00:00 | |
| OE5MMP-10 | 2026-09-01 01:24:21 | 48.25232 | 13.64081 | 94° | 104km/h | 8018m | -3.0m/s | -28.5°C | 41.3% | 370.0hPa | 2.5V | 00:00:00 | 02:54:52 | 00:00:00 | |
| OE5REO-15 | 2026-09-01 01:24:18 | 48.25236 | 13.64003 | 97° | 104km/h | 8024m | -2.9m/s | -28.6°C | 39.3% | 369.7hPa | 2.5V | 07:38:00 | 00:00:00 | 00:00:00 | |
| OE5DRO-10 | 2026-09-01 01:24:17 | 48.25241 | 13.63925 | 95° | 104km/h | 8031m | -2.9m/s | -28.6°C | 41.3% | 369.4hPa | 2.5V | 00:00:00 | 00:00:00 | 00:00:00 | |
| OE3JTB-15 | 2026-09-01 01:24:15 | 48.25245 | 13.63846 | 95° | 104km/h | 8036m | -3.0m/s | -28.6°C | 41.4% | 369.1hPa | 2.5V | 00:00:00 | 00:00:00 | 00:00:00 | |
| OE5DXL-15 | 2026-09-01 01:24:12 | 48.25253 | 13.63728 | 96° | 104km/h | 8046m | -2.9m/s | -28.7°C | 41.3% | 368.7hPa | 2.6V | 00:00:00 | 00:00:00 | 00:00:00 | |
| OE5MMP-10 | 2026-09-01 01:24:11 | 48.25255 | 13.63689 | 95° | 104km/h | 8049m | -2.9m/s | -28.7°C | 41.3% | 368.5hPa | 2.5V | 00:00:00 | 02:54:42 | 00:00:00 | |
| OE5HKT-10 | 2026-09-01 01:24:10 | 48.25257 | 13.63650 | 95° | 104km/h | 8052m | -3.0m/s | -28.7°C | 41.5% | 368.4hPa | 2.5V | 00:00:00 | 00:00:00 | 00:00:00 | |
| OE5REO-15 | 2026-09-01 01:24:03 | 48.25272 | 13.63415 | 96° | 102km/h | 8070m | -2.9m/s | -28.9°C | 38.5% | 367.5hPa | 2.5V | 07:38:00 | 00:00:00 | 00:00:00 | |
| DL6DJ-15 | 2026-09-01 01:23:48 | 48.25308 | 13.62794 | 92° | 102km/h | 8117m | -3.0m/s | -29.1°C | 34.1% | 365.0hPa | 2.5V | 00:00:00 | 00:00:00 | 00:00:00 | |
| OE3JTB-15 | 2026-09-01 01:23:46 | 48.25310 | 13.62714 | 94° | 104km/h | 8124m | -3.1m/s | -29.1°C | 36.3% | 364.6hPa | 2.5V | 00:00:00 | 00:00:00 | 00:00:00 | |
| OE5DXL-15 | 2026-09-01 01:23:42 | 48.25319 | 13.62558 | 94° | 104km/h | 8136m | -2.9m/s | -29.2°C | 35.9% | 364.0hPa | 2.5V | 00:00:00 | 00:00:00 | 00:00:00 | |
| OE5MMP-10 | 2026-09-01 01:23:41 | 48.25320 | 13.62520 | 94° | 104km/h | 8138m | -2.9m/s | -29.2°C | 35.7% | 363.9hPa | 2.5V | 00:00:00 | 02:54:12 | 00:00:00 | |
| OE5DRO-10 | 2026-09-01 01:23:39 | 48.25323 | 13.62442 | 95° | 104km/h | 8144m | -3.0m/s | -29.3°C | 35.4% | 363.6hPa | 2.5V | 07:38:00 | 00:00:00 | 00:00:00 | |
| OE5REO-15 | 2026-09-01 01:23:33 | 48.25334 | 13.62243 | 97° | 108km/h | 8159m | -3.3m/s | -29.4°C | 33.4% | 362.8hPa | 2.6V | 07:39:00 | 00:00:00 | 00:00:00 | |
| OE5MMP-10 | 2026-09-01 01:23:31 | 48.25342 | 13.62127 | 96° | 102km/h | 8169m | -3.2m/s | -29.5°C | 35.7% | 362.3hPa | 2.6V | 00:00:00 | 02:54:02 | 00:00:00 | |
| OE5HKT-10 | 2026-09-01 01:23:28 | 48.25347 | 13.62012 | 93° | 104km/h | 8178m | -3.1m/s | -29.6°C | 36.0% | 361.9hPa | 2.5V | 00:00:00 | 00:00:00 | 00:00:00 | |
| OE5FHM-15 | 2026-09-01 01:23:26 | 48.25351 | 13.61934 | 95° | 104km/h | 8184m | -3.0m/s | -29.6°C | 36.1% | 361.5hPa | 2.6V | 00:00:00 | 02:53:57 | 00:00:00 | |
| OE5MMP-10 | 2026-09-01 01:23:21 | 48.25360 | 13.61737 | 95° | 104km/h | 8200m | -3.0m/s | -29.7°C | 35.0% | 360.7hPa | 2.5V | 07:39:00 | 02:53:52 | 00:00:00 | |
| OE5WHR-10 | 2026-09-01 01:23:20 | 48.25362 | 13.61698 | 95° | 104km/h | 8203m | -3.2m/s | -29.7°C | 34.8% | 360.6hPa | 2.5V | 07:39:00 | 02:53:51 | 00:00:00 | |
| OE5REO-15 | 2026-09-01 01:23:18 | 48.25365 | 13.61620 | 94° | 102km/h | 8209m | -3.2m/s | -29.8°C | 32.7% | 360.3hPa | 2.5V | 07:39:00 | 00:00:00 | 00:00:00 | |
| OE3JTB-15 | 2026-09-01 01:23:17 | 48.25367 | 13.61582 | 93° | 106km/h | 8213m | -3.3m/s | -29.8°C | 34.7% | 360.2hPa | 2.5V | 00:00:00 | 02:53:48 | 00:00:00 | |
| OE5DXL-15 | 2026-09-01 01:23:12 | 48.25371 | 13.61386 | 91° | 106km/h | 8228m | -3.3m/s | -29.9°C | 35.1% | 359.3hPa | 2.5V | 07:39:00 | 00:00:00 | 00:00:00 | |
| OE5MMP-10 | 2026-09-01 01:23:11 | 48.25372 | 13.61345 | 91° | 106km/h | 8231m | -3.4m/s | -29.9°C | 35.2% | 359.1hPa | 2.5V | 00:00:00 | 02:53:42 | 00:00:00 | |
| OE5HKT-10 | 2026-09-01 01:23:07 | 48.25378 | 13.61182 | 95° | 104km/h | 8244m | -3.0m/s | -30.1°C | 35.8% | 358.5hPa | 2.5V | 07:39:00 | 00:00:00 | 00:00:00 | |
| OE5MMP-10 | 2026-09-01 01:23:01 | 48.25386 | 13.60947 | 91° | 106km/h | 8263m | -3.3m/s | -30.2°C | 36.0% | 357.6hPa | 2.5V | 00:00:00 | 02:53:32 | 00:00:00 | |
| OE5WHR-10 | 2026-09-01 01:22:59 | 48.25385 | 13.60869 | 89° | 106km/h | 8270m | -3.4m/s | -30.3°C | 36.2% | 357.2hPa | 2.6V | 00:00:00 | 00:00:00 | 00:00:00 | |
| OE5FHM-15 | 2026-09-01 01:22:56 | 48.25386 | 13.60745 | 93° | 106km/h | 8280m | -3.1m/s | -30.3°C | 36.7% | 356.7hPa | 2.5V | 00:00:00 | 02:53:27 | 00:00:00 | |
| OE5MMP-10 | 2026-09-01 01:22:51 | 48.25393 | 13.60544 | 93° | 106km/h | 8296m | -3.2m/s | -30.5°C | 37.4% | 356.0hPa | 2.5V | 00:00:00 | 02:53:22 | 00:00:00 | |
| DG1MFX-10 | 2026-09-01 01:22:49 | 48.25396 | 13.60465 | 93° | 102km/h | 8302m | -3.2m/s | -30.6°C | 35.7% | 355.7hPa | 2.5V | 00:00:00 | 00:00:00 | 00:00:00 | |
| OE3JTB-15 | 2026-09-01 01:22:48 | 48.25397 | 13.60427 | 91° | 108km/h | 8305m | -3.2m/s | -30.5°C | 38.0% | 355.5hPa | 2.5V | 00:00:00 | 00:00:00 | 00:00:00 | |
| OE5HKT-10 | 2026-09-01 01:22:46 | 48.25396 | 13.60349 | 89° | 108km/h | 8312m | -3.4m/s | -30.6°C | 38.0% | 355.2hPa | 2.5V | 00:00:00 | 02:53:17 | 00:00:00 | |
| OE5REO-15 | 2026-09-01 01:22:45 | 48.25396 | 13.60349 | 89° | 104km/h | 8312m | -3.4m/s | -30.6°C | 35.9% | 355.2hPa | 2.5V | 07:40:00 | 00:00:00 | 00:00:00 | |
| OE5DXL-15 | 2026-09-01 01:22:42 | 48.25395 | 13.60185 | 92° | 108km/h | 8325m | -3.1m/s | -30.7°C | 38.4% | 354.5hPa | 2.5V | 00:00:00 | 00:00:00 | 00:00:00 | |
| OE5MMP-10 | 2026-09-01 01:22:41 | 48.25396 | 13.60144 | 93° | 108km/h | 8329m | -3.0m/s | -30.7°C | 38.3% | 354.3hPa | 2.6V | 00:00:00 | 02:53:12 | 00:00:00 | |
| OE5WHR-10 | 2026-09-01 01:22:38 | 48.25399 | 13.60023 | 92° | 108km/h | 8338m | -3.1m/s | -30.8°C | 38.6% | 353.9hPa | 2.6V | 00:00:00 | 00:00:00 | 00:00:00 | |
| OE5MMP-10 | 2026-09-01 01:22:31 | 48.25405 | 13.59738 | 93° | 108km/h | 8360m | -3.3m/s | -31.0°C | 39.7% | 352.8hPa | 2.6V | 00:00:00 | 02:53:02 | 00:00:00 | |
| OE5REO-15 | 2026-09-01 01:22:30 | 48.25405 | 13.59738 | 94° | 108km/h | 8360m | -3.3m/s | -31.1°C | 37.5% | 352.8hPa | 2.6V | 07:40:00 | 00:00:00 | 00:00:00 | |
| OE5FHM-15 | 2026-09-01 01:22:26 | 48.25407 | 13.59536 | 91° | 110km/h | 8376m | -3.3m/s | -31.1°C | 39.2% | 351.9hPa | 2.6V | 00:00:00 | 02:52:57 | 00:00:00 | |
| OE5HKT-10 | 2026-09-01 01:22:25 | 48.25408 | 13.59495 | 92° | 108km/h | 8380m | -3.3m/s | -31.2°C | 39.1% | 351.8hPa | 2.6V | 00:00:00 | 00:00:00 | 00:00:00 | |
| OE5DRO-10 | 2026-09-01 01:22:23 | 48.25408 | 13.59414 | 90° | 108km/h | 8386m | -3.3m/s | -31.2°C | 38.7% | 351.5hPa | 2.6V | 00:00:00 | 00:00:00 | 00:00:00 | |
| OE5MMP-10 | 2026-09-01 01:22:21 | 48.25408 | 13.59331 | 91° | 108km/h | 8393m | -3.1m/s | -31.3°C | 38.9% | 351.2hPa | 2.6V | 00:00:00 | 02:52:52 | 00:00:00 | |
| OE3JTB-15 | 2026-09-01 01:22:19 | 48.25410 | 13.59249 | 92° | 110km/h | 8399m | -3.2m/s | -31.3°C | 39.1% | 350.8hPa | 2.6V | 00:00:00 | 00:00:00 | 00:00:00 | |
| OE5WHR-10 | 2026-09-01 01:22:17 | 48.25410 | 13.59168 | 90° | 110km/h | 8406m | -3.4m/s | -31.4°C | 39.4% | 350.5hPa | 2.6V | 00:00:00 | 02:52:48 | 00:00:00 | |
| OE5REO-15 | 2026-09-01 01:22:14 | 48.25410 | 13.59085 | 92° | 110km/h | 8413m | -3.2m/s | -31.5°C | 37.4% | 350.3hPa | 2.6V | 07:40:00 | 00:00:00 | 00:00:00 | |
| OE5DXL-15 | 2026-09-01 01:22:12 | 48.25411 | 13.58962 | 90° | 110km/h | 8422m | -3.2m/s | -31.5°C | 40.1% | 349.7hPa | 2.6V | 00:00:00 | 00:00:00 | 00:00:00 | |
| OE5HKT-10 | 2026-09-01 01:22:04 | 48.25412 | 13.58632 | 91° | 110km/h | 8449m | -3.2m/s | -31.7°C | 40.1% | 348.4hPa | 2.6V | 00:00:00 | 00:00:00 | 00:00:00 | |
| OE5MMP-10 | 2026-09-01 01:22:01 | 48.25412 | 13.58510 | 89° | 110km/h | 8459m | -3.5m/s | -31.8°C | 40.3% | 347.9hPa | 2.6V | 07:40:00 | 02:52:32 | 00:00:00 | |
| OE5REO-15 | 2026-09-01 01:21:59 | 48.25411 | 13.58469 | 89° | 110km/h | 8462m | -3.4m/s | -31.9°C | 38.0% | 347.7hPa | 2.6V | 07:41:00 | 00:00:00 | 00:00:00 | |
| OE5FHM-15 | 2026-09-01 01:21:56 | 48.25410 | 13.58299 | 92° | 110km/h | 8476m | -3.3m/s | -32.0°C | 40.9% | 347.1hPa | 2.6V | 00:00:00 | 02:52:27 | 00:00:00 | |
| OE5MMP-10 | 2026-09-01 01:21:51 | 48.25410 | 13.58095 | 90° | 110km/h | 8492m | -3.3m/s | -32.1°C | 40.9% | 346.2hPa | 2.6V | 00:00:00 | 02:52:22 | 00:00:00 | |
| OE3JTB-15 | 2026-09-01 01:21:50 | 48.25410 | 13.58054 | 90° | 110km/h | 8495m | -3.1m/s | -32.1°C | 40.8% | 346.1hPa | 2.6V | 00:00:00 | 02:52:21 | 00:00:00 | |
| OE5DRO-10 | 2026-09-01 01:21:45 | 48.25406 | 13.57843 | 90° | 108km/h | 8512m | -3.3m/s | -32.3°C | 40.4% | 345.3hPa | 2.6V | 00:00:00 | 00:00:00 | 00:00:00 | |
| DL6DJ-15 | 2026-09-01 01:21:44 | 48.25407 | 13.57800 | 90° | 111km/h | 8516m | -3.4m/s | -32.4°C | 38.0% | 345.1hPa | 2.5V | 00:00:00 | 00:00:00 | 00:00:00 | |
| OE5HKT-10 | 2026-09-01 01:21:43 | 48.25407 | 13.57758 | 92° | 108km/h | 8519m | -3.3m/s | -32.3°C | 40.1% | 345.0hPa | 2.5V | 00:00:00 | 02:52:14 | 00:00:00 | |
| OE5DXL-15 | 2026-09-01 01:21:42 | 48.25408 | 13.57718 | 91° | 108km/h | 8522m | -3.4m/s | -32.4°C | 39.6% | 344.8hPa | 2.5V | 00:00:00 | 00:00:00 | 00:00:00 | |
| OE5MMP-10 | 2026-09-01 01:21:41 | 48.25408 | 13.57678 | 90° | 108km/h | 8526m | -3.2m/s | -32.4°C | 39.4% | 344.6hPa | 2.5V | 00:00:00 | 02:52:12 | 00:00:00 | |
| OE5WHR-10 | 2026-09-01 01:21:35 | 48.25407 | 13.57435 | 89° | 108km/h | 8546m | -3.3m/s | -32.6°C | 38.8% | 343.7hPa | 2.5V | 00:00:00 | 00:00:00 | 00:00:00 | |
| OE5MMP-10 | 2026-09-01 01:21:31 | 48.25405 | 13.57270 | 90° | 108km/h | 8558m | -3.2m/s | -32.7°C | 38.8% | 343.0hPa | 2.5V | 00:00:00 | 02:52:02 | 00:00:00 | |
| OE5REO-15 | 2026-09-01 01:21:27 | 48.25404 | 13.57146 | 91° | 111km/h | 8569m | -3.3m/s | -32.8°C | 36.8% | 342.6hPa | 2.6V | 07:41:00 | 00:00:00 | 00:00:00 | |
| OE5FHM-15 | 2026-09-01 01:21:26 | 48.25405 | 13.57063 | 92° | 108km/h | 8575m | -3.4m/s | -32.8°C | 39.5% | 342.2hPa | 2.6V | 00:00:00 | 02:51:57 | 00:00:00 | |
| OE5HKT-10 | 2026-09-01 01:21:22 | 48.25406 | 13.56901 | 92° | 108km/h | 8589m | -3.3m/s | -32.9°C | 39.3% | 341.5hPa | 2.6V | 00:00:00 | 00:00:00 | 00:00:00 | |
| OE5MMP-10 | 2026-09-01 01:21:21 | 48.25407 | 13.56860 | 93° | 108km/h | 8592m | -3.4m/s | -32.9°C | 39.2% | 341.4hPa | 2.5V | 00:00:00 | 02:51:52 | 00:00:00 | |
| OE5WHR-10 | 2026-09-01 01:21:14 | 48.25406 | 13.56577 | 91° | 108km/h | 8616m | -3.4m/s | -33.1°C | 39.7% | 340.1hPa | 2.5V | 00:00:00 | 02:51:45 | 00:00:00 | |
| DL6DJ-15 | 2026-09-01 01:21:13 | 48.25406 | 13.56536 | 90° | 108km/h | 8619m | -3.5m/s | -33.2°C | 37.4% | 340.0hPa | 2.5V | 00:00:00 | 00:00:00 | 00:00:00 | |
| OE5DXL-15 | 2026-09-01 01:21:12 | 48.25406 | 13.56495 | 90° | 108km/h | 8623m | -3.5m/s | -33.2°C | 39.9% | 339.9hPa | 2.5V | 00:00:00 | 00:00:00 | 00:00:00 | |
| OE5MMP-10 | 2026-09-01 01:21:11 | 48.25406 | 13.56454 | 91° | 108km/h | 8626m | -3.4m/s | -33.2°C | 39.9% | 339.7hPa | 2.6V | 00:00:00 | 02:51:42 | 00:00:00 | |
| OE5DRO-10 | 2026-09-01 01:21:07 | 48.25408 | 13.56293 | 90° | 108km/h | 8640m | -3.3m/s | -33.4°C | 40.0% | 339.1hPa | 2.6V | 07:41:00 | 00:00:00 | 00:00:00 | |
| OE5HKT-10 | 2026-09-01 01:21:01 | 48.25405 | 13.56049 | 89° | 108km/h | 8661m | -3.3m/s | -33.5°C | 40.3% | 338.0hPa | 2.6V | 00:00:00 | 00:00:00 | 00:00:00 | |
| OE5REO-15 | 2026-09-01 01:20:57 | 48.25403 | 13.55925 | 91° | 110km/h | 8671m | -3.4m/s | -33.6°C | 37.7% | 337.6hPa | 2.6V | 07:42:00 | 00:00:00 | 00:00:00 | |
| OE5FHM-15 | 2026-09-01 01:20:56 | 48.25404 | 13.55844 | 92° | 108km/h | 8678m | -3.4m/s | -33.6°C | 39.9% | 337.2hPa | 2.6V | 07:41:00 | 02:51:27 | 00:00:00 | |
| OE5WHR-10 | 2026-09-01 01:20:53 | 48.25404 | 13.55725 | 89° | 108km/h | 8689m | -3.4m/s | -33.7°C | 40.4% | 336.7hPa | 2.6V | 00:00:00 | 00:00:00 | 00:00:00 | |
| OE3JTB-15 | 2026-09-01 01:20:52 | 48.25404 | 13.55684 | 90° | 108km/h | 8692m | -3.4m/s | -33.7°C | 40.5% | 336.5hPa | 2.6V | 07:41:00 | 00:00:00 | 00:00:00 | |
| OE5MMP-10 | 2026-09-01 01:20:51 | 48.25403 | 13.55643 | 90° | 108km/h | 8696m | -3.5m/s | -33.8°C | 40.4% | 336.3hPa | 2.6V | 00:00:00 | 02:51:22 | 00:00:00 | |
| OE5DRO-10 | 2026-09-01 01:20:48 | 48.25403 | 13.55519 | 89° | 108km/h | 8707m | -3.5m/s | -33.9°C | 40.4% | 335.8hPa | 2.6V | 00:00:00 | 00:00:00 | 00:00:00 | |
| OE5DXL-15 | 2026-09-01 01:20:42 | 48.25406 | 13.55273 | 91° | 108km/h | 8728m | -3.5m/s | -34.1°C | 40.0% | 334.8hPa | 2.5V | 00:00:00 | 00:00:00 | 00:00:00 | |
| OE5MMP-10 | 2026-09-01 01:20:41 | 48.25406 | 13.55234 | 89° | 108km/h | 8732m | -3.4m/s | -34.1°C | 40.1% | 334.6hPa | 2.5V | 07:41:00 | 02:51:12 | 00:00:00 | |
| OE5HKT-10 | 2026-09-01 01:20:40 | 48.25406 | 13.55195 | 89° | 108km/h | 8735m | -3.3m/s | -34.1°C | 40.0% | 334.4hPa | 2.5V | 00:00:00 | 02:51:11 | 00:00:00 | |
| OE5WHR-10 | 2026-09-01 01:20:32 | 48.25406 | 13.54864 | 93° | 108km/h | 8764m | -3.5m/s | -34.4°C | 40.5% | 333.1hPa | 2.5V | 07:42:00 | 00:00:00 | 00:00:00 | |
| OE5MMP-10 | 2026-09-01 01:20:31 | 48.25407 | 13.54824 | 93° | 108km/h | 8768m | -3.3m/s | -34.4°C | 40.5% | 332.9hPa | 2.5V | 00:00:00 | 02:51:02 | 00:00:00 | |
| OE5DRO-10 | 2026-09-01 01:20:29 | 48.25408 | 13.54745 | 90° | 108km/h | 8774m | -3.5m/s | -34.5°C | 40.5% | 332.7hPa | 2.5V | 00:00:00 | 00:00:00 | 00:00:00 | |
| OE5FHM-15 | 2026-09-01 01:20:26 | 48.25407 | 13.54625 | 89° | 108km/h | 8785m | -3.8m/s | -34.6°C | 40.3% | 332.1hPa | 2.5V | 00:00:00 | 02:50:57 | 00:00:00 | |
| OE5REO-15 | 2026-09-01 01:20:25 | 48.25406 | 13.54625 | 90° | 106km/h | 8785m | -3.8m/s | -34.6°C | 37.7% | 332.1hPa | 2.6V | 07:42:00 | 00:00:00 | 00:00:00 | |
| OE3JTB-15 | 2026-09-01 01:20:23 | 48.25404 | 13.54501 | 90° | 108km/h | 8797m | -3.6m/s | -34.6°C | 40.6% | 331.5hPa | 2.6V | 00:00:00 | 02:50:54 | 00:00:00 | |
| OE5MMP-10 | 2026-09-01 01:20:21 | 48.25405 | 13.54417 | 92° | 108km/h | 8804m | -3.4m/s | -34.7°C | 40.9% | 331.2hPa | 2.6V | 00:00:00 | 02:50:52 | 00:00:00 | |
| OE5HKT-10 | 2026-09-01 01:20:19 | 48.25405 | 13.54336 | 90° | 106km/h | 8811m | -3.4m/s | -34.8°C | 40.9% | 330.9hPa | 2.6V | 07:42:00 | 00:00:00 | 00:00:00 | |
| OE5DXL-15 | 2026-09-01 01:20:12 | 48.25405 | 13.54053 | 90° | 106km/h | 8836m | -3.6m/s | -35.0°C | 41.6% | 329.7hPa | 2.5V | 00:00:00 | 00:00:00 | 00:00:00 | |
| DL6DJ-15 | 2026-09-01 01:20:11 | 48.25406 | 13.53931 | 90° | 104km/h | 8846m | -3.6m/s | -35.1°C | 38.9% | 329.2hPa | 2.5V | 00:00:00 | 00:00:00 | 00:00:00 | |
| OE5MMP-10 | 2026-09-01 01:20:01 | 48.25405 | 13.53606 | 91° | 106km/h | 8875m | -3.6m/s | -35.3°C | 42.7% | 327.8hPa | 2.5V | 00:00:00 | 02:50:32 | 00:00:00 | |
| OE5HKT-10 | 2026-09-01 01:19:58 | 48.25406 | 13.53488 | 90° | 106km/h | 8886m | -3.7m/s | -35.4°C | 42.7% | 327.3hPa | 2.6V | 00:00:00 | 00:00:00 | 00:00:00 | |
| OE5FHM-15 | 2026-09-01 01:19:56 | 48.25405 | 13.53409 | 89° | 106km/h | 8894m | -3.5m/s | -35.5°C | 42.9% | 327.0hPa | 2.6V | 00:00:00 | 02:50:27 | 00:00:00 | |
| OE3JTB-15 | 2026-09-01 01:19:54 | 48.25405 | 13.53327 | 91° | 104km/h | 8900m | -3.4m/s | -35.6°C | 42.9% | 326.7hPa | 2.6V | 00:00:00 | 00:00:00 | 00:00:00 | |
| OE5REO-15 | 2026-09-01 01:19:53 | 48.25405 | 13.53327 | 92° | 108km/h | 8900m | -3.4m/s | -35.6°C | 40.1% | 326.7hPa | 2.5V | 07:43:00 | 00:00:00 | 00:00:00 | |
| OE5MMP-10 | 2026-09-01 01:19:51 | 48.25406 | 13.53206 | 91° | 106km/h | 8912m | -3.8m/s | -35.7°C | 43.0% | 326.1hPa | 2.5V | 00:00:00 | 02:50:22 | 00:00:00 | |
| OE5WHR-10 | 2026-09-01 01:19:50 | 48.25406 | 13.53166 | 92° | 104km/h | 8915m | -3.6m/s | -35.7°C | 43.1% | 326.0hPa | 2.5V | 00:00:00 | 00:00:00 | 00:00:00 | |
| OE5DXL-15 | 2026-09-01 01:19:42 | 48.25407 | 13.52847 | 92° | 104km/h | 8944m | -3.5m/s | -36.0°C | 43.2% | 324.6hPa | 2.5V | 00:00:00 | 00:00:00 | 00:00:00 | |
| OE5MMP-10 | 2026-09-01 01:19:41 | 48.25407 | 13.52808 | 91° | 104km/h | 8948m | -3.8m/s | -36.0°C | 43.1% | 324.4hPa | 2.5V | 00:00:00 | 02:50:12 | 00:00:00 | |
| DG1MFX-10 | 2026-09-01 01:19:40 | 48.25407 | 13.52808 | 92° | 104km/h | 8948m | -3.8m/s | -36.1°C | 40.3% | 324.5hPa | 2.5V | 00:00:00 | 00:00:00 | 00:00:00 | |
| OE5REO-15 | 2026-09-01 01:19:38 | 48.25408 | 13.52729 | 92° | 102km/h | 8956m | -3.8m/s | -36.1°C | 40.2% | 324.1hPa | 2.5V | 07:43:00 | 00:00:00 | 00:00:00 | |
| OE5HKT-10 | 2026-09-01 01:19:37 | 48.25408 | 13.52652 | 89° | 106km/h | 8963m | -3.6m/s | -36.1°C | 43.1% | 323.8hPa | 2.5V | 00:00:00 | 02:50:08 | 00:00:00 | |
| OE5DRO-10 | 2026-09-01 01:19:32 | 48.25408 | 13.52453 | 90° | 104km/h | 8981m | -3.6m/s | -36.3°C | 41.9% | 322.9hPa | 2.5V | 00:00:00 | 00:00:00 | 00:00:00 | |
| OE5MMP-10 | 2026-09-01 01:19:31 | 48.25407 | 13.52413 | 90° | 106km/h | 8985m | -3.6m/s | -36.3°C | 41.7% | 322.7hPa | 2.5V | 00:00:00 | 02:50:02 | 00:00:00 | |
| OE5WHR-10 | 2026-09-01 01:19:29 | 48.25407 | 13.52333 | 91° | 106km/h | 8992m | -3.6m/s | -36.3°C | 41.8% | 322.4hPa | 2.5V | 00:00:00 | 00:00:00 | 00:00:00 | |
| OE5FHM-15 | 2026-09-01 01:19:26 | 48.25407 | 13.52216 | 89° | 106km/h | 9003m | -3.5m/s | -36.4°C | 41.8% | 321.9hPa | 2.5V | 00:00:00 | 02:49:57 | 00:00:00 | |
| OE3JTB-15 | 2026-09-01 01:19:25 | 48.25406 | 13.52176 | 88° | 106km/h | 9007m | -3.5m/s | -36.5°C | 41.8% | 321.7hPa | 2.5V | 00:00:00 | 00:00:00 | 00:00:00 | |
| OE5REO-15 | 2026-09-01 01:19:22 | 48.25406 | 13.52095 | 91° | 108km/h | 9014m | -3.4m/s | -36.6°C | 39.0% | 321.5hPa | 2.5V | 07:43:00 | 00:00:00 | 00:00:00 | |
| OE5MMP-10 | 2026-09-01 01:19:21 | 48.25405 | 13.52014 | 90° | 104km/h | 9021m | -3.5m/s | -36.6°C | 41.8% | 321.1hPa | 2.5V | 07:43:00 | 02:49:52 | 00:00:00 | |
| OE5HKT-10 | 2026-09-01 01:19:16 | 48.25406 | 13.51816 | 90° | 106km/h | 9039m | -3.5m/s | -36.7°C | 41.3% | 320.2hPa | 2.5V | 00:00:00 | 00:00:00 | 00:00:00 | |
| OE5DRO-10 | 2026-09-01 01:19:13 | 48.25404 | 13.51699 | 89° | 106km/h | 9049m | -3.4m/s | -36.8°C | 40.7% | 319.8hPa | 2.6V | 00:00:00 | 00:00:00 | 00:00:00 | |
| OE5DXL-15 | 2026-09-01 01:19:12 | 48.25403 | 13.51658 | 90° | 106km/h | 9053m | -3.5m/s | -36.8°C | 40.4% | 319.6hPa | 2.6V | 07:43:00 | 00:00:00 | 00:00:00 | |
| OE5MMP-10 | 2026-09-01 01:19:11 | 48.25403 | 13.51618 | 90° | 106km/h | 9057m | -3.6m/s | -36.8°C | 40.2% | 319.4hPa | 2.6V | 00:00:00 | 02:49:42 | 00:00:00 | |
| DO3MHA-11 | 2026-09-01 01:19:10 | 48.25402 | 13.51578 | 89° | 106km/h | 9060m | -3.6m/s | -36.9°C | 40.2% | 319.3hPa | 2.6V | 00:00:00 | 02:49:41 | 00:00:00 | |
| OE5WHR-10 | 2026-09-01 01:19:08 | 48.25401 | 13.51496 | 90° | 106km/h | 9067m | -3.6m/s | -36.9°C | 40.0% | 318.9hPa | 2.6V | 00:00:00 | 02:49:39 | 00:00:00 | |
| OE5REO-15 | 2026-09-01 01:19:06 | 48.25401 | 13.51455 | 92° | 108km/h | 9071m | -3.7m/s | -37.0°C | 37.1% | 318.8hPa | 2.6V | 07:43:00 | 00:00:00 | 00:00:00 | |
| OE5MMP-10 | 2026-09-01 01:19:01 | 48.25399 | 13.51217 | 90° | 106km/h | 9092m | -3.5m/s | -37.1°C | 39.9% | 317.8hPa | 2.6V | 00:00:00 | 02:49:32 | 00:00:00 | |
| OE5FHM-15 | 2026-09-01 01:18:56 | 48.25397 | 13.51017 | 91° | 108km/h | 9110m | -3.6m/s | -37.3°C | 39.8% | 317.0hPa | 2.6V | 00:00:00 | 02:49:27 | 00:00:00 | |
| OE5HKT-10 | 2026-09-01 01:18:55 | 48.25397 | 13.50977 | 90° | 108km/h | 9114m | -3.7m/s | -37.3°C | 39.9% | 316.8hPa | 2.5V | 00:00:00 | 00:00:00 | 00:00:00 | |
| DO3MHA-11 | 2026-09-01 01:18:53 | 48.25395 | 13.50898 | 88° | 108km/h | 9121m | -3.5m/s | -37.4°C | 39.6% | 316.4hPa | 2.5V | 00:00:00 | 02:49:24 | 00:00:00 | |
| OE5MMP-10 | 2026-09-01 01:18:51 | 48.25393 | 13.50816 | 89° | 106km/h | 9128m | -3.3m/s | -37.4°C | 39.2% | 316.1hPa | 2.5V | 00:00:00 | 02:49:22 | 00:00:00 | |
| OE5WHR-10 | 2026-09-01 01:18:47 | 48.25392 | 13.50653 | 89° | 108km/h | 9142m | -3.5m/s | -37.5°C | 39.0% | 315.4hPa | 2.5V | 00:00:00 | 00:00:00 | 00:00:00 | |
| OE5DXL-15 | 2026-09-01 01:18:42 | 48.25387 | 13.50454 | 87° | 110km/h | 9160m | -3.7m/s | -37.7°C | 38.8% | 314.7hPa | 2.5V | 00:00:00 | 00:00:00 | 00:00:00 | |
| OE5MMP-10 | 2026-09-01 01:18:41 | 48.25385 | 13.50413 | 88° | 108km/h | 9164m | -3.6m/s | -37.7°C | 38.9% | 314.4hPa | 2.5V | 00:00:00 | 02:49:12 | 00:00:00 | |
| DO3MHA-11 | 2026-09-01 01:18:40 | 48.25384 | 13.50372 | 89° | 110km/h | 9167m | -3.5m/s | -37.8°C | 38.9% | 314.3hPa | 2.5V | 00:00:00 | 02:49:11 | 00:00:00 | |
| DL6DJ-15 | 2026-09-01 01:18:37 | 48.25383 | 13.50249 | 88° | 106km/h | 9178m | -3.6m/s | -37.9°C | 35.4% | 313.9hPa | 2.5V | 00:00:00 | 00:00:00 | 00:00:00 | |
| OE5REO-15 | 2026-09-01 01:18:36 | 48.25382 | 13.50249 | 89° | 108km/h | 9178m | -3.6m/s | -37.9°C | 35.4% | 313.9hPa | 2.5V | 07:44:00 | 00:00:00 | 00:00:00 | |
| OE5DRO-10 | 2026-09-01 01:18:35 | 48.25381 | 13.50167 | 90° | 110km/h | 9185m | -3.5m/s | -37.9°C | 38.1% | 313.5hPa | 2.5V | 07:43:00 | 00:00:00 | 00:00:00 | |
| OE5HKT-10 | 2026-09-01 01:18:34 | 48.25381 | 13.50125 | 90° | 111km/h | 9189m | -3.6m/s | -37.9°C | 37.9% | 313.4hPa | 2.5V | 00:00:00 | 02:49:05 | 00:00:00 | |
| OE5MMP-10 | 2026-09-01 01:18:31 | 48.25378 | 13.50001 | 88° | 111km/h | 9199m | -3.5m/s | -38.0°C | 38.1% | 312.9hPa | 2.5V | 00:00:00 | 02:49:02 | 00:00:00 | |
| DO3MHA-11 | 2026-09-01 01:18:28 | 48.25376 | 13.49876 | 88° | 111km/h | 9210m | -3.4m/s | -38.1°C | 38.6% | 312.3hPa | 2.6V | 00:00:00 | 02:48:59 | 00:00:00 | |
| OE3JTB-15 | 2026-09-01 01:18:27 | 48.25374 | 13.49835 | 88° | 113km/h | 9214m | -3.6m/s | -38.1°C | 38.6% | 312.2hPa | 2.6V | 00:00:00 | 00:00:00 | 00:00:00 | |
| OE5FHM-15 | 2026-09-01 01:18:26 | 48.25373 | 13.49792 | 89° | 113km/h | 9217m | -3.6m/s | -38.2°C | 38.9% | 312.0hPa | 2.5V | 00:00:00 | 02:48:57 | 00:00:00 | |
| OE5MMP-10 | 2026-09-01 01:18:21 | 48.25369 | 13.49583 | 89° | 111km/h | 9235m | -3.5m/s | -38.3°C | 40.4% | 311.3hPa | 2.5V | 00:00:00 | 02:48:52 | 00:00:00 | |
| OE5REO-15 | 2026-09-01 01:18:20 | 48.25369 | 13.49583 | 89° | 111km/h | 9235m | -3.6m/s | -38.3°C | 37.4% | 311.3hPa | 2.5V | 07:44:00 | 00:00:00 | 00:00:00 | |
| DO3MHA-11 | 2026-09-01 01:18:18 | 48.25367 | 13.49457 | 88° | 111km/h | 9246m | -3.5m/s | -38.4°C | 41.5% | 310.7hPa | 2.5V | 07:44:00 | 02:48:49 | 00:00:00 | |
| OE5HKT-10 | 2026-09-01 01:18:13 | 48.25362 | 13.49244 | 88° | 115km/h | 9264m | -3.5m/s | -38.5°C | 42.9% | 309.9hPa | 2.5V | 00:00:00 | 00:00:00 | 00:00:00 | |
| OE5DXL-15 | 2026-09-01 01:18:12 | 48.25360 | 13.49201 | 87° | 115km/h | 9267m | -3.4m/s | -38.6°C | 43.2% | 309.8hPa | 2.6V | 00:00:00 | 00:00:00 | 00:00:00 | |
| OE5MMP-10 | 2026-09-01 01:18:11 | 48.25359 | 13.49157 | 88° | 113km/h | 9271m | -3.6m/s | -38.6°C | 43.5% | 309.7hPa | 2.6V | 00:00:00 | 02:48:42 | 00:00:00 | |
| OE5REO-15 | 2026-09-01 01:18:06 | 48.25353 | 13.48941 | 90° | 115km/h | 9289m | -3.7m/s | -38.8°C | 41.1% | 308.9hPa | 2.6V | 07:44:00 | 00:00:00 | 00:00:00 | |
| OE5WHR-10 | 2026-09-01 01:18:05 | 48.25353 | 13.48897 | 90° | 115km/h | 9292m | -3.5m/s | -38.8°C | 44.5% | 308.7hPa | 2.6V | 00:00:00 | 02:48:36 | 00:00:00 | |
| OE5MMP-10 | 2026-09-01 01:18:01 | 48.25349 | 13.48726 | 88° | 115km/h | 9306m | -3.5m/s | -38.9°C | 44.5% | 308.0hPa | 2.6V | 07:44:00 | 02:48:32 | 00:00:00 | |
| DG1MFX-10 | 2026-09-01 01:18:00 | 48.25349 | 13.48726 | 89° | 115km/h | 9306m | -3.5m/s | -39.0°C | 41.3% | 308.1hPa | 2.5V | 00:00:00 | 00:00:00 | 00:00:00 | |
| OE3JTB-15 | 2026-09-01 01:17:58 | 48.25346 | 13.48595 | 88° | 117km/h | 9317m | -3.6m/s | -39.0°C | 44.1% | 307.5hPa | 2.5V | 00:00:00 | 00:00:00 | 00:00:00 | |
| OE5DRO-10 | 2026-09-01 01:17:57 | 48.25345 | 13.48552 | 88° | 117km/h | 9320m | -3.5m/s | -39.0°C | 44.0% | 307.4hPa | 2.5V | 00:00:00 | 00:00:00 | 00:00:00 | |
| DO3MHA-11 | 2026-09-01 01:17:56 | 48.25344 | 13.48508 | 89° | 115km/h | 9324m | -3.4m/s | -39.1°C | 43.9% | 307.2hPa | 2.5V | 00:00:00 | 02:48:27 | 00:00:00 | |
| OE5HKT-10 | 2026-09-01 01:17:52 | 48.25341 | 13.48331 | 88° | 117km/h | 9338m | -3.5m/s | -39.1°C | 43.1% | 306.6hPa | 2.5V | 00:00:00 | 00:00:00 | 00:00:00 | |
| OE5MMP-10 | 2026-09-01 01:17:51 | 48.25340 | 13.48287 | 89° | 115km/h | 9342m | -3.5m/s | -39.2°C | 43.1% | 306.4hPa | 2.5V | 00:00:00 | 02:48:22 | 00:00:00 | |
| OE5REO-15 | 2026-09-01 01:17:49 | 48.25339 | 13.48242 | 91° | 119km/h | 9345m | -3.7m/s | -39.3°C | 39.8% | 306.3hPa | 2.5V | 07:44:00 | 00:00:00 | 00:00:00 | |
| OE5WHR-10 | 2026-09-01 01:17:44 | 48.25339 | 13.47976 | 91° | 115km/h | 9367m | -3.5m/s | -39.4°C | 42.3% | 305.3hPa | 2.5V | 07:44:00 | 00:00:00 | 00:00:00 | |
| OE5DXL-15 | 2026-09-01 01:17:42 | 48.25339 | 13.47890 | 89° | 115km/h | 9374m | -3.3m/s | -39.4°C | 42.2% | 304.9hPa | 2.6V | 00:00:00 | 00:00:00 | 00:00:00 | |
| PG1ADW-2 | 2026-09-01 01:17:41 | 48.25338 | 13.47847 | 89° | 115km/h | 9378m | -3.4m/s | -39.4°C | 42.0% | 304.8hPa | 2.6V | 00:00:00 | 00:00:00 | 00:00:00 | |
| OE5MMP-10 | 2026-09-01 01:17:40 | 48.25338 | 13.47803 | 90° | 117km/h | 9381m | -3.5m/s | -39.5°C | 41.8% | 304.7hPa | 2.6V | 00:00:00 | 02:48:11 | 00:00:00 | |
| OE5DRO-10 | 2026-09-01 01:17:38 | 48.25337 | 13.47715 | 90° | 115km/h | 9388m | -3.5m/s | -39.5°C | 41.6% | 304.4hPa | 2.6V | 00:00:00 | 00:00:00 | 00:00:00 | |
| DG1MFX-10 | 2026-09-01 01:17:34 | 48.25336 | 13.47581 | 92° | 119km/h | 9399m | -3.6m/s | -39.6°C | 37.9% | 304.0hPa | 2.6V | 07:45:00 | 00:00:00 | 00:00:00 | |
| OE5HKT-10 | 2026-09-01 01:17:31 | 48.25338 | 13.47406 | 90° | 113km/h | 9413m | -3.5m/s | -39.7°C | 41.0% | 303.2hPa | 2.6V | 07:45:00 | 02:48:02 | 00:00:00 | |
| OE5MMP-10 | 2026-09-01 01:17:30 | 48.25338 | 13.47362 | 91° | 115km/h | 9417m | -3.7m/s | -39.7°C | 40.8% | 303.1hPa | 2.6V | 00:00:00 | 02:48:01 | 00:00:00 | |
| OE3JTB-15 | 2026-09-01 01:17:29 | 48.25338 | 13.47318 | 92° | 113km/h | 9420m | -3.5m/s | -39.7°C | 40.9% | 303.0hPa | 2.5V | 00:00:00 | 02:48:00 | 00:00:00 | |
| OE5FHM-15 | 2026-09-01 01:17:26 | 48.25338 | 13.47189 | 90° | 113km/h | 9431m | -3.4m/s | -39.8°C | 41.3% | 302.5hPa | 2.5V | 00:00:00 | 02:47:57 | 00:00:00 | |
| OE5WHR-10 | 2026-09-01 01:17:23 | 48.25338 | 13.47058 | 92° | 113km/h | 9442m | -3.5m/s | -39.9°C | 41.6% | 302.0hPa | 2.5V | 00:00:00 | 00:00:00 | 00:00:00 | |
| PG1ADW-2 | 2026-09-01 01:17:21 | 48.25339 | 13.46972 | 90° | 113km/h | 9448m | -3.3m/s | -39.9°C | 42.0% | 301.7hPa | 2.5V | 07:45:00 | 00:00:00 | 00:00:00 | |
| OE5MMP-10 | 2026-09-01 01:17:20 | 48.25339 | 13.46930 | 90° | 113km/h | 9452m | -3.4m/s | -40.0°C | 42.1% | 301.6hPa | 2.5V | 00:00:00 | 02:47:51 | 00:00:00 | |
| OE5DRO-10 | 2026-09-01 01:17:19 | 48.25338 | 13.46886 | 90° | 113km/h | 9456m | -3.6m/s | -40.0°C | 42.3% | 301.4hPa | 2.5V | 00:00:00 | 00:00:00 | 00:00:00 | |
| OE5REO-15 | 2026-09-01 01:17:18 | 48.25339 | 13.46886 | 91° | 115km/h | 9456m | -3.6m/s | -40.0°C | 39.0% | 301.4hPa | 2.5V | 07:45:00 | 00:00:00 | 00:00:00 | |
| DG1MFX-10 | 2026-09-01 01:17:14 | 48.25338 | 13.46714 | 91° | 115km/h | 9470m | -3.5m/s | -40.2°C | 39.6% | 300.8hPa | 2.5V | 07:45:00 | 00:00:00 | 00:00:00 | |
| OE5DXL-15 | 2026-09-01 01:17:12 | 48.25340 | 13.46585 | 92° | 113km/h | 9480m | -3.4m/s | -40.2°C | 43.6% | 300.2hPa | 2.5V | 00:00:00 | 00:00:00 | 00:00:00 | |
| OE5MMP-10 | 2026-09-01 01:17:10 | 48.25341 | 13.46499 | 91° | 113km/h | 9487m | -3.5m/s | -40.3°C | 43.8% | 300.0hPa | 2.5V | 00:00:00 | 02:47:41 | 00:00:00 | |
| OE5REO-15 | 2026-09-01 01:17:03 | 48.25343 | 13.46244 | 91° | 113km/h | 9509m | -3.5m/s | -40.5°C | 41.2% | 299.1hPa | 2.5V | 07:45:00 | 00:00:00 | 00:00:00 | |
| OE5WHR-10 | 2026-09-01 01:17:02 | 48.25343 | 13.46159 | 90° | 113km/h | 9516m | -3.7m/s | -40.6°C | 45.0% | 298.7hPa | 2.5V | 00:00:00 | 02:47:33 | 00:00:00 | |
| PG1ADW-2 | 2026-09-01 01:17:01 | 48.25342 | 13.46116 | 90° | 113km/h | 9520m | -3.7m/s | -40.6°C | 45.2% | 298.5hPa | 2.5V | 00:00:00 | 00:00:00 | 00:00:00 | |
| OE5MMP-10 | 2026-09-01 01:17:00 | 48.25342 | 13.46072 | 91° | 113km/h | 9523m | -3.6m/s | -40.6°C | 45.3% | 298.4hPa | 2.5V | 00:00:00 | 02:47:31 | 00:00:00 | |
| OE5FHM-15 | 2026-09-01 01:16:56 | 48.25345 | 13.45901 | 90° | 115km/h | 9537m | -3.4m/s | -40.8°C | 45.7% | 297.8hPa | 2.5V | 07:45:00 | 02:47:27 | 00:00:00 | |
| DG1MFX-10 | 2026-09-01 01:16:54 | 48.25344 | 13.45858 | 91° | 115km/h | 9541m | -3.6m/s | -40.8°C | 42.2% | 297.7hPa | 2.5V | 07:46:00 | 00:00:00 | 00:00:00 | |
| OE5HKT-10 | 2026-09-01 01:16:49 | 48.25343 | 13.45599 | 90° | 115km/h | 9562m | -3.5m/s | -41.0°C | 45.4% | 296.7hPa | 2.5V | 00:00:00 | 00:00:00 | 00:00:00 | |
| OE5DXL-15 | 2026-09-01 01:16:42 | 48.25345 | 13.45297 | 90° | 115km/h | 9587m | -3.6m/s | -41.1°C | 44.2% | 295.6hPa | 2.5V | 00:00:00 | 00:00:00 | 00:00:00 | |
| OE5WHR-10 | 2026-09-01 01:16:41 | 48.25345 | 13.45255 | 89° | 115km/h | 9591m | -3.7m/s | -41.1°C | 44.0% | 295.5hPa | 2.6V | 00:00:00 | 00:00:00 | 00:00:00 | |
| OE5MMP-10 | 2026-09-01 01:16:39 | 48.25343 | 13.45168 | 90° | 115km/h | 9598m | -3.5m/s | -41.1°C | 43.8% | 295.2hPa | 2.6V | 07:45:00 | 02:47:10 | 00:00:00 | |
| DL6DJ-15 | 2026-09-01 01:16:33 | 48.25346 | 13.44904 | 92° | 113km/h | 9619m | -3.6m/s | -41.3°C | 39.2% | 294.3hPa | 2.6V | 00:00:00 | 00:00:00 | 00:00:00 | |
| OE3JTB-15 | 2026-09-01 01:16:31 | 48.25348 | 13.44819 | 91° | 115km/h | 9627m | -3.5m/s | -41.3°C | 42.6% | 293.9hPa | 2.6V | 00:00:00 | 00:00:00 | 00:00:00 | |
| OE5MMP-10 | 2026-09-01 01:16:29 | 48.25348 | 13.44734 | 90° | 115km/h | 9634m | -3.3m/s | -41.4°C | 42.7% | 293.6hPa | 2.6V | 00:00:00 | 02:47:00 | 00:00:00 | |
| OE5HKT-10 | 2026-09-01 01:16:28 | 48.25348 | 13.44690 | 91° | 115km/h | 9637m | -3.4m/s | -41.4°C | 42.7% | 293.5hPa | 2.5V | 00:00:00 | 02:46:59 | 00:00:00 | |
| OE5FHM-15 | 2026-09-01 01:16:26 | 48.25349 | 13.44603 | 91° | 115km/h | 9644m | -3.6m/s | -41.5°C | 42.6% | 293.2hPa | 2.5V | 00:00:00 | 02:46:57 | 00:00:00 | |
| OE5DRO-10 | 2026-09-01 01:16:22 | 48.25351 | 13.44429 | 93° | 115km/h | 9659m | -3.5m/s | -41.6°C | 42.8% | 292.6hPa | 2.5V | 00:00:00 | 00:00:00 | 00:00:00 | |
| PG1ADW-2 | 2026-09-01 01:16:21 | 48.25352 | 13.44386 | 92° | 115km/h | 9662m | -3.4m/s | -41.6°C | 42.8% | 292.4hPa | 2.5V | 00:00:00 | 00:00:00 | 00:00:00 | |
| OE5WHR-10 | 2026-09-01 01:16:20 | 48.25352 | 13.44344 | 90° | 115km/h | 9666m | -3.3m/s | -41.6°C | 42.8% | 292.2hPa | 2.5V | 00:00:00 | 00:00:00 | 00:00:00 | |
| OE5MMP-10 | 2026-09-01 01:16:19 | 48.25352 | 13.44301 | 90° | 115km/h | 9669m | -3.5m/s | -41.7°C | 42.7% | 292.1hPa | 2.5V | 00:00:00 | 02:46:50 | 00:00:00 | |
| OE5REO-15 | 2026-09-01 01:16:16 | 48.25352 | 13.44214 | 92° | 115km/h | 9676m | -3.8m/s | -41.8°C | 39.1% | 291.9hPa | 2.5V | 07:46:00 | 00:00:00 | 00:00:00 | |
| OE5DXL-15 | 2026-09-01 01:16:12 | 48.25353 | 13.43995 | 91° | 115km/h | 9695m | -3.5m/s | -41.9°C | 43.2% | 291.0hPa | 2.5V | 00:00:00 | 00:00:00 | 00:00:00 | |
| OE5MMP-10 | 2026-09-01 01:16:09 | 48.25354 | 13.43863 | 92° | 115km/h | 9705m | -3.7m/s | -42.0°C | 43.6% | 290.5hPa | 2.5V | 00:00:00 | 02:46:40 | 00:00:00 | |
| OE5HKT-10 | 2026-09-01 01:16:07 | 48.25355 | 13.43775 | 92° | 115km/h | 9713m | -3.4m/s | -42.1°C | 43.9% | 290.3hPa | 2.5V | 00:00:00 | 00:00:00 | 00:00:00 | |
| OE5DRO-10 | 2026-09-01 01:16:03 | 48.25357 | 13.43601 | 92° | 115km/h | 9727m | -3.4m/s | -42.2°C | 44.7% | 289.6hPa | 2.5V | 07:46:00 | 00:00:00 | 00:00:00 | |
| OE3JTB-15 | 2026-09-01 01:16:02 | 48.25358 | 13.43557 | 92° | 115km/h | 9730m | -3.5m/s | -42.2°C | 44.8% | 289.4hPa | 2.5V | 00:00:00 | 02:46:33 | 00:00:00 | |
| PG1ADW-2 | 2026-09-01 01:16:01 | 48.25358 | 13.43514 | 91° | 115km/h | 9734m | -3.4m/s | -42.3°C | 45.0% | 289.3hPa | 2.5V | 00:00:00 | 00:00:00 | 00:00:00 | |
| OE5REO-15 | 2026-09-01 01:16:00 | 48.25358 | 13.43514 | 91° | 113km/h | 9734m | -3.5m/s | -42.3°C | 41.2% | 289.3hPa | 2.5V | 07:47:00 | 00:00:00 | 00:00:00 | |
| OE5WHR-10 | 2026-09-01 01:15:59 | 48.25358 | 13.43427 | 92° | 115km/h | 9741m | -3.5m/s | -42.3°C | 45.3% | 289.1hPa | 2.5V | 00:00:00 | 02:46:30 | 00:00:00 | |
| OE5FHM-15 | 2026-09-01 01:15:56 | 48.25360 | 13.43296 | 91° | 115km/h | 9752m | -3.4m/s | -42.4°C | 45.4% | 288.6hPa | 2.5V | 00:00:00 | 02:46:27 | 00:00:00 | |
| DG1MFX-10 | 2026-09-01 01:15:51 | 48.25364 | 13.43119 | 93° | 115km/h | 9766m | -3.6m/s | -42.6°C | 41.9% | 288.0hPa | 2.5V | 07:47:00 | 00:00:00 | 00:00:00 | |
| OE5HKT-10 | 2026-09-01 01:15:46 | 48.25368 | 13.42859 | 91° | 115km/h | 9787m | -3.4m/s | -42.8°C | 45.6% | 287.1hPa | 2.5V | 00:00:00 | 00:00:00 | 00:00:00 | |
| OE5REO-15 | 2026-09-01 01:15:45 | 48.25368 | 13.42859 | 92° | 113km/h | 9787m | -3.5m/s | -42.8°C | 41.7% | 287.1hPa | 2.5V | 07:47:00 | 00:00:00 | 00:00:00 | |
| OE5DRO-10 | 2026-09-01 01:15:44 | 48.25369 | 13.42772 | 92° | 115km/h | 9794m | -3.3m/s | -42.8°C | 45.7% | 286.7hPa | 2.5V | 00:00:00 | 00:00:00 | 00:00:00 | |
| OE5DXL-15 | 2026-09-01 01:15:42 | 48.25371 | 13.42685 | 93° | 115km/h | 9801m | -3.4m/s | -42.9°C | 46.0% | 286.5hPa | 2.5V | 00:00:00 | 00:00:00 | 00:00:00 | |
| PG1ADW-2 | 2026-09-01 01:15:41 | 48.25372 | 13.42642 | 91° | 115km/h | 9805m | -3.5m/s | -42.9°C | 46.0% | 286.3hPa | 2.5V | 00:00:00 | 00:00:00 | 00:00:00 | |
| OE5MMP-10 | 2026-09-01 01:15:39 | 48.25373 | 13.42554 | 92° | 117km/h | 9812m | -3.6m/s | -43.0°C | 46.0% | 286.0hPa | 2.5V | 00:00:00 | 02:46:10 | 00:00:00 | |
| OE5WHR-10 | 2026-09-01 01:15:38 | 48.25374 | 13.42510 | 92° | 115km/h | 9815m | -3.6m/s | -43.0°C | 46.3% | 285.8hPa | 2.5V | 00:00:00 | 00:00:00 | 00:00:00 | |
| OE3JTB-15 | 2026-09-01 01:15:33 | 48.25378 | 13.42288 | 94° | 115km/h | 9833m | -3.4m/s | -43.2°C | 46.7% | 285.1hPa | 2.5V | 00:00:00 | 00:00:00 | 00:00:00 | |
| DL6DJ-15 | 2026-09-01 01:15:32 | 48.25381 | 13.42202 | 91° | 111km/h | 9840m | -3.6m/s | -43.3°C | 42.7% | 284.9hPa | 2.6V | 00:00:00 | 00:00:00 | 00:00:00 | |
| OE5REO-15 | 2026-09-01 01:15:30 | 48.25381 | 13.42202 | 93° | 113km/h | 9840m | -3.6m/s | -43.3°C | 42.7% | 284.9hPa | 2.6V | 07:47:00 | 00:00:00 | 00:00:00 | |
| OE5MMP-10 | 2026-09-01 01:15:29 | 48.25383 | 13.42116 | 93° | 115km/h | 9847m | -3.7m/s | -43.3°C | 46.3% | 284.5hPa | 2.6V | 00:00:00 | 02:46:00 | 00:00:00 | |
| OE5FHM-15 | 2026-09-01 01:15:26 | 48.25384 | 13.41990 | 90° | 115km/h | 9859m | -3.7m/s | -43.4°C | 46.5% | 284.0hPa | 2.5V | 00:00:00 | 02:45:57 | 00:00:00 | |
| OE5HKT-10 | 2026-09-01 01:15:25 | 48.25384 | 13.41945 | 91° | 115km/h | 9862m | -3.5m/s | -43.4°C | 46.6% | 283.9hPa | 2.5V | 00:00:00 | 02:45:56 | 00:00:00 | |
| PG1ADW-2 | 2026-09-01 01:15:21 | 48.25388 | 13.41768 | 93° | 115km/h | 9876m | -3.8m/s | -43.6°C | 46.8% | 283.3hPa | 2.5V | 00:00:00 | 02:45:52 | 00:00:00 | |
| OE5MMP-10 | 2026-09-01 01:15:19 | 48.25390 | 13.41681 | 93° | 115km/h | 9884m | -3.7m/s | -43.6°C | 47.0% | 282.9hPa | 2.5V | 07:47:00 | 02:45:50 | 00:00:00 | |
| OE5WHR-10 | 2026-09-01 01:15:17 | 48.25393 | 13.41594 | 93° | 115km/h | 9892m | -3.5m/s | -43.7°C | 47.3% | 282.6hPa | 2.5V | 00:00:00 | 00:00:00 | 00:00:00 | |
| OE5REO-15 | 2026-09-01 01:15:14 | 48.25394 | 13.41509 | 91° | 115km/h | 9899m | -3.6m/s | -43.8°C | 43.3% | 282.4hPa | 2.5V | 07:47:00 | 00:00:00 | 00:00:00 | |
| OE5DXL-15 | 2026-09-01 01:15:12 | 48.25396 | 13.41375 | 93° | 115km/h | 9910m | -3.5m/s | -43.8°C | 47.5% | 281.9hPa | 2.5V | 07:47:00 | 00:00:00 | 00:00:00 | |
| DG1MFX-10 | 2026-09-01 01:15:10 | 48.25397 | 13.41331 | 93° | 115km/h | 9914m | -3.4m/s | -43.9°C | 43.6% | 281.8hPa | 2.5V | 00:00:00 | 00:00:00 | 00:00:00 | |
| OE5MMP-10 | 2026-09-01 01:15:09 | 48.25399 | 13.41242 | 93° | 115km/h | 9921m | -3.7m/s | -44.0°C | 47.7% | 281.5hPa | 2.5V | 00:00:00 | 02:45:40 | 00:00:00 | |
| OE5DRO-10 | 2026-09-01 01:15:06 | 48.25405 | 13.41111 | 94° | 113km/h | 9932m | -3.5m/s | -44.1°C | 48.3% | 281.0hPa | 2.5V | 00:00:00 | 00:00:00 | 00:00:00 | |
| OE5HKT-10 | 2026-09-01 01:15:04 | 48.25406 | 13.41026 | 91° | 113km/h | 9939m | -3.4m/s | -44.1°C | 48.7% | 280.6hPa | 2.5V | 00:00:00 | 00:00:00 | 00:00:00 | |
| DL6DJ-15 | 2026-09-01 01:15:00 | 48.25409 | 13.40850 | 91° | 115km/h | 9953m | -3.8m/s | -44.3°C | 44.8% | 280.1hPa | 2.5V | 00:00:00 | 00:00:00 | 00:00:00 | |
| DB0ND-19 | 2026-09-01 01:14:55 | 48.25415 | 13.40589 | 91° | 113km/h | 9975m | -3.6m/s | -44.5°C | 45.3% | -1.0hPa | 2.5V | 00:00:00 | 00:00:00 | 00:00:00 | |
| OE5MMP-10 | 2026-09-01 01:14:49 | 48.25421 | 13.40375 | 92° | 111km/h | 9993m | -3.4m/s | -44.6°C | 49.4% | 278.4hPa | 2.5V | 00:00:00 | 02:45:20 | 00:00:00 | |
| OE5DRO-10 | 2026-09-01 01:14:47 | 48.25421 | 13.40290 | 92° | 110km/h | 10000m | -3.6m/s | -44.7°C | 49.4% | 278.1hPa | 2.5V | 00:00:00 | 00:00:00 | 00:00:00 | |
| OE5HKT-10 | 2026-09-01 01:14:43 | 48.25427 | 13.40122 | 93° | 110km/h | 10015m | -3.6m/s | -44.8°C | 48.4% | 277.4hPa | 2.5V | 07:47:00 | 00:00:00 | 00:00:00 | |
| OE5DXL-15 | 2026-09-01 01:14:42 | 48.25428 | 13.40080 | 93° | 108km/h | 10018m | -3.5m/s | -44.9°C | 47.9% | 277.3hPa | 2.5V | 00:00:00 | 00:00:00 | 00:00:00 | |
| PG1ADW-2 | 2026-09-01 01:14:41 | 48.25429 | 13.40038 | 94° | 110km/h | 10022m | -3.5m/s | -44.9°C | 47.6% | 277.2hPa | 2.5V | 07:47:00 | 00:00:00 | 00:00:00 | |
| OE5MMP-10 | 2026-09-01 01:14:39 | 48.25432 | 13.39956 | 93° | 110km/h | 10029m | -3.4m/s | -45.0°C | 46.6% | 276.9hPa | 2.5V | 00:00:00 | 02:45:10 | 00:00:00 | |
| OE5WHR-10 | 2026-09-01 01:14:35 | 48.25436 | 13.39790 | 94° | 108km/h | 10043m | -3.4m/s | -45.0°C | 44.2% | 276.4hPa | 2.5V | 00:00:00 | 00:00:00 | 00:00:00 | |
| OE5MMP-10 | 2026-09-01 01:14:29 | 48.25444 | 13.39543 | 93° | 110km/h | 10065m | -3.7m/s | -45.1°C | 42.5% | 275.5hPa | 2.5V | 00:00:00 | 02:45:00 | 00:00:00 | |
| OE5DRO-10 | 2026-09-01 01:14:28 | 48.25445 | 13.39503 | 92° | 108km/h | 10068m | -3.5m/s | -45.1°C | 42.5% | 275.3hPa | 2.6V | 00:00:00 | 00:00:00 | 00:00:00 | |
| OE5REO-15 | 2026-09-01 01:14:27 | 48.25445 | 13.39503 | 93° | 110km/h | 10068m | -3.6m/s | -45.2°C | 38.4% | 275.3hPa | 2.6V | 07:48:00 | 00:00:00 | 00:00:00 | |
| OE5FHM-15 | 2026-09-01 01:14:26 | 48.25447 | 13.39419 | 94° | 108km/h | 10076m | -3.5m/s | -45.2°C | 42.6% | 275.0hPa | 2.6V | 00:00:00 | 02:44:57 | 00:00:00 | |
| DB0ND-19 | 2026-09-01 01:14:24 | 48.25452 | 13.39296 | 92° | 108km/h | 10086m | -3.6m/s | 0°C | -1.0% | -1.0hPa | 2.5V | 00:00:00 | 00:00:00 | 00:00:00 | |
| OE5HKT-10 | 2026-09-01 01:14:22 | 48.25453 | 13.39255 | 94° | 108km/h | 10090m | -3.6m/s | -45.3°C | 42.3% | 274.4hPa | 2.5V | 00:00:00 | 02:44:53 | 00:00:00 | |
| PG1ADW-2 | 2026-09-01 01:14:21 | 48.25455 | 13.39214 | 95° | 108km/h | 10094m | -3.6m/s | -45.3°C | 42.2% | 274.2hPa | 2.5V | 00:00:00 | 00:00:00 | 00:00:00 | |
| OE5MMP-10 | 2026-09-01 01:14:19 | 48.25458 | 13.39132 | 94° | 108km/h | 10101m | -3.6m/s | -45.4°C | 42.4% | 273.9hPa | 2.5V | 00:00:00 | 02:44:50 | 00:00:00 | |
| OE5WHR-10 | 2026-09-01 01:14:14 | 48.25467 | 13.38930 | 92° | 106km/h | 10120m | -3.5m/s | -45.6°C | 42.8% | 273.2hPa | 2.5V | 00:00:00 | 00:00:00 | 00:00:00 | |
| OE5DXL-15 | 2026-09-01 01:14:12 | 48.25469 | 13.38849 | 94° | 106km/h | 10127m | -3.5m/s | -45.6°C | 42.9% | 272.8hPa | 2.5V | 00:00:00 | 00:00:00 | 00:00:00 | |
| OE5REO-15 | 2026-09-01 01:14:11 | 48.25469 | 13.38849 | 94° | 110km/h | 10127m | -3.6m/s | -45.7°C | 38.8% | 272.9hPa | 2.5V | 07:49:00 | 00:00:00 | 00:00:00 | |
| OE5MMP-10 | 2026-09-01 01:14:09 | 48.25475 | 13.38728 | 94° | 106km/h | 10138m | -3.6m/s | -45.7°C | 43.0% | 272.4hPa | 2.5V | 00:00:00 | 02:44:40 | 00:00:00 | |
| OE3JTB-15 | 2026-09-01 01:14:06 | 48.25480 | 13.38607 | 95° | 106km/h | 10149m | -3.7m/s | -45.8°C | 43.2% | 271.9hPa | 2.5V | 00:00:00 | 00:00:00 | 00:00:00 | |
| DL6DJ-15 | 2026-09-01 01:13:58 | 48.25494 | 13.38285 | 93° | 106km/h | 10178m | -3.6m/s | -46.1°C | 39.5% | 270.8hPa | 2.5V | 00:00:00 | 00:00:00 | 00:00:00 | |
| DB0ND-19 | 2026-09-01 01:13:53 | 48.25504 | 13.38046 | 94° | 104km/h | 10201m | -3.6m/s | 0°C | -1.0% | -1.0hPa | 2.5V | 00:00:00 | 00:00:00 | 00:00:00 | |
| OE5DRO-10 | 2026-09-01 01:13:50 | 48.25508 | 13.37968 | 94° | 106km/h | 10208m | -3.8m/s | -46.3°C | 43.8% | 269.5hPa | 2.5V | 00:00:00 | 00:00:00 | 00:00:00 | |
| OE5MMP-10 | 2026-09-01 01:13:49 | 48.25510 | 13.37929 | 92° | 106km/h | 10212m | -3.8m/s | -46.4°C | 43.8% | 269.3hPa | 2.5V | 00:00:00 | 02:44:20 | 00:00:00 | |
| OE5DXL-15 | 2026-09-01 01:13:42 | 48.25517 | 13.37647 | 93° | 106km/h | 10239m | -3.8m/s | -46.6°C | 42.3% | 268.3hPa | 2.5V | 00:00:00 | 00:00:00 | 00:00:00 | |
| PG1ADW-2 | 2026-09-01 01:13:41 | 48.25518 | 13.37607 | 93° | 106km/h | 10242m | -3.7m/s | -46.6°C | 42.2% | 268.1hPa | 2.5V | 00:00:00 | 00:00:00 | 00:00:00 | |
| OE5HKT-10 | 2026-09-01 01:13:40 | 48.25518 | 13.37568 | 92° | 106km/h | 10246m | -3.7m/s | -46.7°C | 41.9% | 268.0hPa | 2.5V | 00:00:00 | 00:00:00 | 00:00:00 | |
| OE5MMP-10 | 2026-09-01 01:13:39 | 48.25519 | 13.37528 | 91° | 106km/h | 10250m | -3.9m/s | -46.7°C | 41.7% | 267.9hPa | 2.5V | 00:00:00 | 02:44:10 | 00:00:00 | |
| OE3JTB-15 | 2026-09-01 01:13:37 | 48.25519 | 13.37447 | 92° | 106km/h | 10258m | -3.7m/s | -46.8°C | 41.0% | 267.6hPa | 2.5V | 00:00:00 | 00:00:00 | 00:00:00 | |
| OE5WHR-10 | 2026-09-01 01:13:32 | 48.25524 | 13.37247 | 92° | 106km/h | 10276m | -3.6m/s | -46.9°C | 38.9% | 266.8hPa | 2.5V | 00:00:00 | 00:00:00 | 00:00:00 | |
| OE5DRO-10 | 2026-09-01 01:13:31 | 48.25525 | 13.37206 | 93° | 106km/h | 10280m | -3.7m/s | -46.9°C | 38.3% | 266.6hPa | 2.5V | 07:49:00 | 00:00:00 | 00:00:00 | |
| OE5MMP-10 | 2026-09-01 01:13:29 | 48.25527 | 13.37126 | 93° | 106km/h | 10287m | -3.8m/s | -47.0°C | 37.3% | 266.4hPa | 2.5V | 00:00:00 | 02:44:00 | 00:00:00 | |
| DL6DJ-15 | 2026-09-01 01:13:27 | 48.25529 | 13.37046 | 91° | 106km/h | 10295m | -3.8m/s | -47.0°C | 32.3% | 266.1hPa | 2.5V | 00:00:00 | 00:00:00 | 00:00:00 | |
| OE5FHM-15 | 2026-09-01 01:13:26 | 48.25530 | 13.37006 | 93° | 106km/h | 10299m | -3.8m/s | -47.0°C | 36.2% | 265.9hPa | 2.5V | 00:00:00 | 02:43:57 | 00:00:00 | |
| PG1ADW-2 | 2026-09-01 01:13:21 | 48.25535 | 13.36805 | 93° | 106km/h | 10318m | -3.8m/s | -47.1°C | 35.1% | 265.1hPa | 2.5V | 00:00:00 | 00:00:00 | 00:00:00 | |
| OE5MMP-10 | 2026-09-01 01:13:19 | 48.25537 | 13.36725 | 92° | 106km/h | 10326m | -3.7m/s | -47.2°C | 34.9% | 264.8hPa | 2.5V | 00:00:00 | 02:43:50 | 00:00:00 | |
| OE5DXL-15 | 2026-09-01 01:13:12 | 48.25546 | 13.36445 | 93° | 106km/h | 10352m | -3.8m/s | -47.4°C | 34.4% | 263.8hPa | 2.5V | 00:00:00 | 00:00:00 | 00:00:00 | |
| OE5WHR-10 | 2026-09-01 01:13:11 | 48.25547 | 13.36405 | 93° | 106km/h | 10356m | -3.9m/s | -47.4°C | 34.3% | 263.6hPa | 2.5V | 00:00:00 | 00:00:00 | 00:00:00 | |
| OE5REO-15 | 2026-09-01 01:13:10 | 48.25547 | 13.36405 | 93° | 104km/h | 10356m | -3.9m/s | -47.4°C | 30.3% | 263.6hPa | 2.5V | 07:49:00 | 00:00:00 | 00:00:00 | |
| OE5MMP-10 | 2026-09-01 01:13:09 | 48.25549 | 13.36325 | 93° | 106km/h | 10364m | -3.9m/s | -47.5°C | 34.1% | 263.2hPa | 2.5V | 00:00:00 | 02:43:40 | 00:00:00 | |
| OE3JTB-15 | 2026-09-01 01:13:08 | 48.25550 | 13.36284 | 94° | 106km/h | 10368m | -3.9m/s | -47.5°C | 33.9% | 263.1hPa | 2.5V | 07:49:00 | 02:43:39 | 00:00:00 | |
| PG1ADW-2 | 2026-09-01 01:13:01 | 48.25562 | 13.36001 | 94° | 104km/h | 10396m | -4.0m/s | -47.6°C | 33.4% | 262.0hPa | 2.5V | 00:00:00 | 00:00:00 | 00:00:00 | |
| OE5MMP-10 | 2026-09-01 01:12:59 | 48.25566 | 13.35923 | 95° | 106km/h | 10404m | -4.1m/s | -47.7°C | 33.5% | 261.7hPa | 2.5V | 00:00:00 | 02:43:30 | 00:00:00 | |
| OE5FHM-15 | 2026-09-01 01:12:56 | 48.25568 | 13.35806 | 91° | 106km/h | 10416m | -3.8m/s | -47.8°C | 33.8% | 261.2hPa | 2.5V | 07:49:00 | 02:43:27 | 00:00:00 | |
| OE5REO-15 | 2026-09-01 01:12:55 | 48.25568 | 13.35806 | 91° | 106km/h | 10416m | -3.8m/s | -47.9°C | 29.8% | 261.3hPa | 2.5V | 07:49:00 | 00:00:00 | 00:00:00 | |
| OE5DRO-10 | 2026-09-01 01:12:53 | 48.25570 | 13.35684 | 93° | 104km/h | 10427m | -4.0m/s | -47.9°C | 33.7% | 260.7hPa | 2.5V | 00:00:00 | 00:00:00 | 00:00:00 | |
| OE5WHR-10 | 2026-09-01 01:12:50 | 48.25575 | 13.35564 | 95° | 104km/h | 10439m | -3.8m/s | -48.1°C | 33.5% | 260.2hPa | 2.5V | 00:00:00 | 02:43:21 | 00:00:00 | |
| OE5MMP-10 | 2026-09-01 01:12:49 | 48.25577 | 13.35525 | 95° | 104km/h | 10443m | -4.0m/s | -48.1°C | 33.4% | 260.1hPa | 2.5V | 00:00:00 | 02:43:20 | 00:00:00 | |
| OE5DXL-15 | 2026-09-01 01:12:42 | 48.25584 | 13.35248 | 93° | 106km/h | 10470m | -3.9m/s | -48.3°C | 31.5% | 259.1hPa | 2.5V | 00:00:00 | 00:00:00 | 00:00:00 | |
| PG1ADW-2 | 2026-09-01 01:12:41 | 48.25585 | 13.35208 | 92° | 106km/h | 10474m | -3.9m/s | -48.3°C | 31.1% | 258.9hPa | 2.5V | 00:00:00 | 02:43:12 | 00:00:00 | |
| OE5MMP-10 | 2026-09-01 01:12:39 | 48.25587 | 13.35127 | 94° | 104km/h | 10482m | -4.1m/s | -48.4°C | 30.6% | 258.6hPa | 2.5V | 07:49:00 | 02:43:10 | 00:00:00 | |
| OE5DRO-10 | 2026-09-01 01:12:34 | 48.25593 | 13.34931 | 92° | 106km/h | 10502m | -3.9m/s | -48.5°C | 30.0% | 257.8hPa | 2.5V | 00:00:00 | 00:00:00 | 00:00:00 | |
| OE5MMP-10 | 2026-09-01 01:12:29 | 48.25596 | 13.34731 | 94° | 106km/h | 10522m | -3.9m/s | -48.6°C | 29.8% | 257.0hPa | 2.5V | 00:00:00 | 02:43:00 | 00:00:00 | |
| OE5HKT-10 | 2026-09-01 01:12:28 | 48.25598 | 13.34691 | 94° | 108km/h | 10526m | -3.8m/s | -48.6°C | 29.7% | 256.8hPa | 2.5V | 00:00:00 | 00:00:00 | 00:00:00 | |
| OE5FHM-15 | 2026-09-01 01:12:26 | 48.25601 | 13.34612 | 93° | 106km/h | 10534m | -3.8m/s | -48.7°C | 29.6% | 256.5hPa | 2.5V | 00:00:00 | 02:42:57 | 00:00:00 | |
| DL6DJ-15 | 2026-09-01 01:12:25 | 48.25603 | 13.34531 | 93° | 108km/h | 10542m | -4.0m/s | -48.8°C | 25.5% | 256.3hPa | 2.5V | 00:00:00 | 00:00:00 | 00:00:00 | |
| OE5REO-15 | 2026-09-01 01:12:23 | 48.25603 | 13.34531 | 94° | 108km/h | 10542m | -4.0m/s | -48.8°C | 25.5% | 256.3hPa | 2.5V | 07:50:00 | 00:00:00 | 00:00:00 | |
| PG1ADW-2 | 2026-09-01 01:12:21 | 48.25608 | 13.34410 | 93° | 106km/h | 10554m | -3.8m/s | -48.8°C | 29.6% | 255.8hPa | 2.5V | 00:00:00 | 00:00:00 | 00:00:00 | |
| OE5MMP-10 | 2026-09-01 01:12:19 | 48.25609 | 13.34330 | 92° | 108km/h | 10562m | -3.8m/s | -48.9°C | 29.4% | 255.5hPa | 2.5V | 00:00:00 | 02:42:50 | 00:00:00 | |
| OE5DRO-10 | 2026-09-01 01:12:15 | 48.25614 | 13.34167 | 92° | 106km/h | 10577m | -4.1m/s | -49.0°C | 29.6% | 254.9hPa | 2.5V | 00:00:00 | 00:00:00 | 00:00:00 | |
| OE5DXL-15 | 2026-09-01 01:12:12 | 48.25617 | 13.34045 | 93° | 108km/h | 10589m | -3.9m/s | -49.1°C | 29.4% | 254.3hPa | 2.5V | 00:00:00 | 00:00:00 | 00:00:00 | |
| OE3JTB-15 | 2026-09-01 01:12:10 | 48.25619 | 13.33966 | 93° | 108km/h | 10597m | -4.0m/s | -49.2°C | 29.2% | 254.1hPa | 2.5V | 00:00:00 | 00:00:00 | 00:00:00 | |
| OE5MMP-10 | 2026-09-01 01:12:09 | 48.25621 | 13.33925 | 93° | 108km/h | 10601m | -4.0m/s | -49.2°C | 29.0% | 253.9hPa | 2.5V | 00:00:00 | 02:42:40 | 00:00:00 | |
| OE5WHR-10 | 2026-09-01 01:12:08 | 48.25622 | 13.33886 | 93° | 108km/h | 10606m | -4.0m/s | -49.2°C | 29.0% | 253.7hPa | 2.5V | 07:50:00 | 00:00:00 | 00:00:00 | |
| DL6DJ-15 | 2026-09-01 01:11:54 | 48.25639 | 13.33277 | 92° | 104km/h | 10666m | -3.9m/s | -49.8°C | 25.0% | 251.5hPa | 2.5V | 00:00:00 | 00:00:00 | 00:00:00 | |
| OE5REO-15 | 2026-09-01 01:11:53 | 48.25637 | 13.33318 | 94° | 108km/h | 10662m | -4.0m/s | -49.7°C | 25.0% | 251.7hPa | 2.5V | 07:50:00 | 00:00:00 | 00:00:00 | |
| OE5MMP-10 | 2026-09-01 01:11:49 | 48.25642 | 13.33115 | 93° | 108km/h | 10682m | -3.9m/s | -49.9°C | 29.3% | 250.9hPa | 2.5V | 00:00:00 | 02:42:20 | 00:00:00 | |
| OE5WHR-10 | 2026-09-01 01:11:47 | 48.25644 | 13.33034 | 92° | 108km/h | 10690m | -3.9m/s | -49.9°C | 29.3% | 250.5hPa | 2.5V | 00:00:00 | 02:42:18 | 00:00:00 | |
| OE5HKT-10 | 2026-09-01 01:11:45 | 48.25646 | 13.32952 | 93° | 108km/h | 10698m | -4.0m/s | -50.0°C | 29.4% | 250.1hPa | 2.5V | 00:00:00 | 00:00:00 | 00:00:00 | |
| OE5DXL-15 | 2026-09-01 01:11:42 | 48.25649 | 13.32830 | 92° | 108km/h | 10710m | -4.0m/s | -50.1°C | 29.5% | 249.7hPa | 2.5V | 00:00:00 | 00:00:00 | 00:00:00 | |
| PG1ADW-2 | 2026-09-01 01:11:41 | 48.25650 | 13.32790 | 92° | 108km/h | 10715m | -4.1m/s | -50.2°C | 29.4% | 249.6hPa | 2.5V | 00:00:00 | 00:00:00 | 00:00:00 | |
| OE5MMP-10 | 2026-09-01 01:11:39 | 48.25652 | 13.32710 | 93° | 108km/h | 10723m | -4.1m/s | -50.2°C | 29.4% | 249.2hPa | 2.5V | 00:00:00 | 02:42:10 | 00:00:00 | |
| DF3TZ-5 | 2026-09-01 01:11:37 | 48.25658 | 13.32467 | 92° | 104km/h | 10747m | -4.2m/s | -50.5°C | 24.9% | 248.4hPa | 2.5V | 00:00:00 | 00:00:00 | 00:00:00 | |
| OE5MMP-10 | 2026-09-01 01:11:29 | 48.25662 | 13.32304 | 93° | 110km/h | 10764m | -4.2m/s | -50.6°C | 28.8% | 247.7hPa | 2.5V | 00:00:00 | 02:42:00 | 00:00:00 | |
| OE5FHM-15 | 2026-09-01 01:11:26 | 48.25664 | 13.32182 | 91° | 110km/h | 10776m | -3.9m/s | -50.7°C | 28.6% | 247.2hPa | 2.5V | 00:00:00 | 02:41:57 | 00:00:00 | |
| DL6DJ-15 | 2026-09-01 01:11:23 | 48.25668 | 13.32016 | 92° | 108km/h | 10792m | -4.0m/s | -50.9°C | 24.5% | 246.6hPa | 2.5V | 00:00:00 | 00:00:00 | 00:00:00 | |
| OE5HKT-10 | 2026-09-01 01:11:22 | 48.25668 | 13.32016 | 93° | 110km/h | 10792m | -3.9m/s | -50.8°C | 28.7% | 246.6hPa | 2.5V | 00:00:00 | 02:41:53 | 00:00:00 | |
| PG1ADW-2 | 2026-09-01 01:11:21 | 48.25669 | 13.31975 | 92° | 110km/h | 10796m | -4.0m/s | -50.8°C | 28.7% | 246.5hPa | 2.5V | 00:00:00 | 02:41:52 | 00:00:00 | |
| OE5MMP-10 | 2026-09-01 01:11:19 | 48.25671 | 13.31891 | 94° | 110km/h | 10805m | -4.1m/s | -50.9°C | 28.6% | 246.1hPa | 2.5V | 07:51:00 | 02:41:50 | 00:00:00 | |
| OE5DRO-10 | 2026-09-01 01:11:18 | 48.25673 | 13.31850 | 94° | 110km/h | 10809m | -4.1m/s | -50.9°C | 28.5% | 245.9hPa | 2.5V | 00:00:00 | 00:00:00 | 00:00:00 | |
| OE3JTB-15 | 2026-09-01 01:11:12 | 48.25675 | 13.31606 | 90° | 110km/h | 10835m | -4.5m/s | -51.1°C | 28.1% | 244.9hPa | 2.5V | 00:00:00 | 00:00:00 | 00:00:00 | |
| OE5MMP-10 | 2026-09-01 01:11:09 | 48.25677 | 13.31479 | 94° | 110km/h | 10847m | -3.9m/s | -51.2°C | 28.3% | 244.5hPa | 2.5V | 00:00:00 | 02:41:40 | 00:00:00 | |
| OE5REO-15 | 2026-09-01 01:11:06 | 48.25680 | 13.31397 | 93° | 108km/h | 10855m | -4.1m/s | -51.4°C | 24.2% | 244.3hPa | 2.5V | 07:51:00 | 00:00:00 | 00:00:00 | |
| OE5WHR-10 | 2026-09-01 01:11:05 | 48.25681 | 13.31314 | 93° | 110km/h | 10864m | -4.3m/s | -51.4°C | 28.4% | 243.9hPa | 2.5V | 00:00:00 | 00:00:00 | 00:00:00 | |
| DL6DJ-15 | 2026-09-01 01:10:52 | 48.25695 | 13.30735 | 92° | 111km/h | 10923m | -4.2m/s | -51.9°C | 25.3% | 241.7hPa | 2.5V | 00:00:00 | 00:00:00 | 00:00:00 | |
| DB0ND-19 | 2026-09-01 01:10:46 | 48.25702 | 13.30483 | 92° | 110km/h | 10949m | -4.2m/s | -52.2°C | 25.6% | 240.8hPa | 2.5V | 00:00:00 | 00:00:00 | 00:00:00 | |
| OE5WHR-10 | 2026-09-01 01:10:44 | 48.25703 | 13.30442 | 93° | 111km/h | 10953m | -4.2m/s | -52.2°C | 30.1% | 240.6hPa | 2.5V | 00:00:00 | 02:41:15 | 00:00:00 | |
| OE3JTB-15 | 2026-09-01 01:10:43 | 48.25704 | 13.30399 | 93° | 111km/h | 10958m | -4.2m/s | -52.2°C | 30.1% | 240.4hPa | 2.5V | 00:00:00 | 00:00:00 | 00:00:00 | |
| OE5DXL-15 | 2026-09-01 01:10:42 | 48.25706 | 13.30357 | 94° | 111km/h | 10962m | -4.1m/s | -52.2°C | 30.2% | 240.2hPa | 2.5V | 00:00:00 | 00:00:00 | 00:00:00 | |
| PG1ADW-2 | 2026-09-01 01:10:41 | 48.25707 | 13.30314 | 95° | 111km/h | 10966m | -4.2m/s | -52.3°C | 30.1% | 240.1hPa | 2.5V | 00:00:00 | 00:00:00 | 00:00:00 | |
| OE5DRO-10 | 2026-09-01 01:10:40 | 48.25709 | 13.30273 | 95° | 111km/h | 10970m | -3.9m/s | -52.3°C | 29.9% | 239.9hPa | 2.5V | 00:00:00 | 00:00:00 | 00:00:00 | |
| OE5MMP-10 | 2026-09-01 01:10:39 | 48.25711 | 13.30231 | 94° | 111km/h | 10974m | -4.1m/s | -52.3°C | 30.0% | 239.7hPa | 2.5V | 00:00:00 | 02:41:10 | 00:00:00 | |
| DF3TZ-5 | 2026-09-01 01:10:35 | 48.25725 | 13.29852 | 93° | 113km/h | 11012m | -4.2m/s | -52.7°C | 24.5% | 238.4hPa | 2.5V | 00:00:00 | 00:00:00 | 00:00:00 | |
| OE5MMP-10 | 2026-09-01 01:10:29 | 48.25727 | 13.29809 | 94° | 113km/h | 11016m | -4.1m/s | -52.7°C | 28.8% | 238.2hPa | 2.5V | 00:00:00 | 02:41:00 | 00:00:00 | |
| DB0UT-7 | 2026-09-01 01:10:28 | 48.25729 | 13.29767 | 94° | 111km/h | 11021m | -4.1m/s | -52.7°C | 28.8% | 238.0hPa | 2.5V | 00:00:00 | 00:00:00 | 00:00:00 | |
| OE5FHM-15 | 2026-09-01 01:10:26 | 48.25731 | 13.29682 | 93° | 113km/h | 11029m | -4.1m/s | -52.8°C | 28.6% | 237.7hPa | 2.5V | 00:00:00 | 02:40:57 | 00:00:00 | |
| OE5HKT-10 | 2026-09-01 01:10:25 | 48.25733 | 13.29639 | 94° | 113km/h | 11033m | -4.1m/s | -52.8°C | 28.5% | 237.6hPa | 2.5V | 00:00:00 | 00:00:00 | 00:00:00 | |
| OE5WHR-10 | 2026-09-01 01:10:23 | 48.25736 | 13.29554 | 94° | 113km/h | 11042m | -4.3m/s | -52.9°C | 28.4% | 237.3hPa | 2.5V | 00:00:00 | 00:00:00 | 00:00:00 | |
| PG1ADW-2 | 2026-09-01 01:10:21 | 48.25740 | 13.29469 | 94° | 113km/h | 11051m | -4.2m/s | -53.0°C | 28.5% | 237.0hPa | 2.6V | 00:00:00 | 00:00:00 | 00:00:00 | |
| OE5REO-15 | 2026-09-01 01:10:20 | 48.25740 | 13.29469 | 95° | 115km/h | 11051m | -4.2m/s | -53.0°C | 24.0% | 237.0hPa | 2.5V | 07:52:00 | 00:00:00 | 00:00:00 | |
| OE5MMP-10 | 2026-09-01 01:10:19 | 48.25744 | 13.29383 | 96° | 111km/h | 11059m | -3.9m/s | -53.0°C | 28.7% | 236.6hPa | 2.5V | 00:00:00 | 02:40:50 | 00:00:00 | |
| DG1MFX-10 | 2026-09-01 01:10:17 | 48.25747 | 13.29341 | 95° | 110km/h | 11063m | -4.3m/s | -53.1°C | 24.3% | 236.5hPa | 2.5V | 07:52:00 | 00:00:00 | 00:00:00 | |
| DB0ND-19 | 2026-09-01 01:10:15 | 48.25751 | 13.29214 | 93° | 113km/h | 11076m | -4.0m/s | -53.2°C | -1.0% | 236.1hPa | 2.5V | 00:00:00 | 00:00:00 | 00:00:00 | |
| OE3JTB-15 | 2026-09-01 01:10:14 | 48.25753 | 13.29171 | 95° | 113km/h | 11080m | -4.0m/s | -53.2°C | 29.0% | 235.9hPa | 2.5V | 00:00:00 | 02:40:45 | 00:00:00 | |
| OE5DXL-15 | 2026-09-01 01:10:12 | 48.25757 | 13.29086 | 94° | 113km/h | 11088m | -4.4m/s | -53.2°C | 28.9% | 235.6hPa | 2.5V | 00:00:00 | 00:00:00 | 00:00:00 | |
| OE5MMP-10 | 2026-09-01 01:10:09 | 48.25762 | 13.28960 | 94° | 113km/h | 11102m | -4.3m/s | -53.4°C | 29.2% | 235.1hPa | 2.5V | 00:00:00 | 02:40:40 | 00:00:00 | |
| DF3TZ-5 | 2026-09-01 01:10:04 | 48.25774 | 13.28704 | 95° | 111km/h | 11127m | -4.5m/s | -53.6°C | 24.5% | 234.2hPa | 2.5V | 00:00:00 | 00:00:00 | 00:00:00 | |
| OE5HKT-10 | 2026-09-01 01:10:03 | 48.25774 | 13.28704 | 96° | 113km/h | 11127m | -4.4m/s | -53.5°C | 29.2% | 234.1hPa | 2.5V | 00:00:00 | 02:40:34 | 00:00:00 | |
| OE5WHR-10 | 2026-09-01 01:10:02 | 48.25776 | 13.28662 | 95° | 113km/h | 11132m | -4.4m/s | -53.6°C | 29.3% | 234.0hPa | 2.5V | 00:00:00 | 00:00:00 | 00:00:00 | |
| PG1ADW-2 | 2026-09-01 01:10:01 | 48.25778 | 13.28619 | 95° | 113km/h | 11136m | -4.4m/s | -53.6°C | 29.4% | 233.8hPa | 2.5V | 00:00:00 | 02:40:32 | 00:00:00 | |
| OE5MMP-10 | 2026-09-01 01:09:59 | 48.25782 | 13.28536 | 93° | 113km/h | 11145m | -4.3m/s | -53.7°C | 29.6% | 233.5hPa | 2.5V | 07:52:00 | 02:40:30 | 00:00:00 | |
| OE5FHM-15 | 2026-09-01 01:09:56 | 48.25784 | 13.28406 | 93° | 113km/h | 11158m | -4.1m/s | -53.8°C | 29.9% | 233.1hPa | 2.5V | 00:00:00 | 02:40:27 | 00:00:00 | |
| OE5MMP-10 | 2026-09-01 01:09:49 | 48.25801 | 13.28106 | 94° | 113km/h | 11188m | -4.2m/s | -54.0°C | 30.7% | 231.9hPa | 2.6V | 00:00:00 | 02:40:20 | 00:00:00 | |
| OE3JTB-15 | 2026-09-01 01:09:45 | 48.25808 | 13.27934 | 95° | 115km/h | 11204m | -4.0m/s | -54.1°C | 30.8% | 231.4hPa | 2.6V | 00:00:00 | 00:00:00 | 00:00:00 | |
| DB0ND-19 | 2026-09-01 01:09:44 | 48.25810 | 13.27891 | 94° | 111km/h | 11208m | -4.3m/s | 0°C | -1.0% | -1.0hPa | 2.5V | 00:00:00 | 00:00:00 | 00:00:00 | |
| OE5DRO-10 | 2026-09-01 01:09:43 | 48.25814 | 13.27805 | 95° | 115km/h | 11217m | -4.4m/s | -54.2°C | 31.1% | 230.9hPa | 2.5V | 00:00:00 | 00:00:00 | 00:00:00 | |
| OE5HKT-10 | 2026-09-01 01:09:42 | 48.25814 | 13.27805 | 95° | 115km/h | 11217m | -4.4m/s | -54.2°C | 31.1% | 230.9hPa | 2.5V | 00:00:00 | 00:00:00 | 00:00:00 | |
| OE5WHR-10 | 2026-09-01 01:09:41 | 48.25816 | 13.27762 | 95° | 115km/h | 11222m | -4.2m/s | -54.2°C | 31.3% | 230.8hPa | 2.5V | 00:00:00 | 02:40:12 | 00:00:00 | |
| OE5MMP-10 | 2026-09-01 01:09:39 | 48.25820 | 13.27676 | 94° | 115km/h | 11230m | -4.1m/s | -54.3°C | 31.5% | 230.5hPa | 2.5V | 00:00:00 | 02:40:10 | 00:00:00 | |
| DG1MFX-10 | 2026-09-01 01:09:35 | 48.25826 | 13.27544 | 96° | 115km/h | 11242m | -4.2m/s | -54.5°C | 27.1% | 230.1hPa | 2.5V | 07:53:00 | 00:00:00 | 00:00:00 | |
| DF3TZ-5 | 2026-09-01 01:09:33 | 48.25836 | 13.27372 | 95° | 113km/h | 11258m | -4.0m/s | -54.6°C | 27.7% | 229.5hPa | 2.5V | 00:00:00 | 00:00:00 | 00:00:00 | |
| OE5MMP-10 | 2026-09-01 01:09:29 | 48.25844 | 13.27245 | 95° | 117km/h | 11271m | -3.9m/s | -54.7°C | 33.7% | 228.9hPa | 2.5V | 00:00:00 | 02:40:00 | 00:00:00 | |
| OE5FHM-15 | 2026-09-01 01:09:26 | 48.25851 | 13.27116 | 94° | 115km/h | 11283m | -4.0m/s | -54.8°C | 34.2% | 228.5hPa | 2.5V | 00:00:00 | 02:39:57 | 00:00:00 | |
| OE5DRO-10 | 2026-09-01 01:09:24 | 48.25859 | 13.26938 | 96° | 117km/h | 11300m | -3.9m/s | -54.9°C | 34.7% | 227.9hPa | 2.5V | 00:00:00 | 00:00:00 | 00:00:00 | |
| OE5HKT-10 | 2026-09-01 01:09:21 | 48.25862 | 13.26894 | 97° | 115km/h | 11304m | -3.9m/s | -54.9°C | 34.9% | 227.7hPa | 2.6V | 00:00:00 | 00:00:00 | 00:00:00 | |
| OE5WHR-10 | 2026-09-01 01:09:20 | 48.25865 | 13.26850 | 96° | 115km/h | 11307m | -3.9m/s | -54.9°C | 35.1% | 227.7hPa | 2.6V | 07:53:00 | 00:00:00 | 00:00:00 | |
| OE5MMP-10 | 2026-09-01 01:09:19 | 48.25868 | 13.26807 | 96° | 115km/h | 11311m | -3.9m/s | -55.0°C | 35.2% | 227.5hPa | 2.5V | 00:00:00 | 02:39:50 | 00:00:00 | |
| DL6DJ-15 | 2026-09-01 01:09:18 | 48.25871 | 13.26763 | 95° | 117km/h | 11315m | -4.0m/s | -55.1°C | 29.9% | 227.4hPa | 2.5V | 00:00:00 | 00:00:00 | 00:00:00 | |
| OE5REO-15 | 2026-09-01 01:09:17 | 48.25871 | 13.26763 | 96° | 117km/h | 11315m | -4.0m/s | -55.1°C | 29.9% | 227.4hPa | 2.5V | 07:53:00 | 00:00:00 | 00:00:00 | |
| OE3JTB-15 | 2026-09-01 01:09:16 | 48.25877 | 13.26675 | 97° | 115km/h | 11323m | -3.9m/s | -55.1°C | 35.4% | 227.1hPa | 2.5V | 07:53:00 | 00:00:00 | 00:00:00 | |
| DG1MFX-10 | 2026-09-01 01:09:15 | 48.25877 | 13.26675 | 98° | 115km/h | 11323m | -3.9m/s | -55.1°C | 30.0% | 227.1hPa | 2.5V | 07:54:00 | 00:00:00 | 00:00:00 | |
| OE5DXL-15 | 2026-09-01 01:09:12 | 48.25888 | 13.26503 | 96° | 117km/h | 11340m | -4.2m/s | -55.2°C | 35.9% | 226.5hPa | 2.5V | 00:00:00 | 00:00:00 | 00:00:00 | |
| OE5MMP-10 | 2026-09-01 01:09:09 | 48.25894 | 13.26374 | 95° | 115km/h | 11353m | -4.0m/s | -55.3°C | 36.7% | 226.0hPa | 2.5V | 00:00:00 | 02:39:40 | 00:00:00 | |
| DB0UT-7 | 2026-09-01 01:09:03 | 48.25912 | 13.26112 | 96° | 104km/h | 11376m | -4.1m/s | -55.4°C | 37.7% | 225.2hPa | 2.5V | 00:00:00 | 02:39:34 | 00:00:00 | |
| DF3TZ-5 | 2026-09-01 01:09:02 | 48.25918 | 13.26026 | 94° | 113km/h | 11385m | -4.2m/s | -55.6°C | -1.0% | 224.9hPa | 2.5V | 00:00:00 | 00:00:00 | 00:00:00 | |
| PG1ADW-2 | 2026-09-01 01:09:01 | 48.25918 | 13.26025 | 95° | 117km/h | 11385m | -4.1m/s | -55.5°C | 38.1% | 224.9hPa | 2.5V | 00:00:00 | 00:00:00 | 00:00:00 | |
| OE5HKT-10 | 2026-09-01 01:09:00 | 48.25920 | 13.25982 | 95° | 117km/h | 11389m | -4.0m/s | -55.6°C | 38.5% | 224.8hPa | 2.5V | 00:00:00 | 02:39:31 | 00:00:00 | |
| OE5MMP-10 | 2026-09-01 01:08:59 | 48.25923 | 13.25937 | 95° | 119km/h | 11393m | -4.1m/s | -55.6°C | 38.6% | 224.7hPa | 2.5V | 00:00:00 | 02:39:30 | 00:00:00 | |
| DG1MFX-10 | 2026-09-01 01:08:54 | 48.25933 | 13.25761 | 95° | 117km/h | 11409m | -3.9m/s | -55.8°C | 33.5% | 224.2hPa | 2.5V | 07:54:00 | 00:00:00 | 00:00:00 | |
| OE5MMP-10 | 2026-09-01 01:08:49 | 48.25952 | 13.25494 | 98° | 117km/h | 11433m | -4.1m/s | -55.9°C | 39.6% | 223.2hPa | 2.5V | 00:00:00 | 02:39:20 | 00:00:00 | |
| OE3JTB-15 | 2026-09-01 01:08:47 | 48.25960 | 13.25408 | 96° | 119km/h | 11442m | -3.9m/s | -55.9°C | 39.5% | 222.9hPa | 2.5V | 00:00:00 | 02:39:18 | 00:00:00 | |
| OE5DRO-10 | 2026-09-01 01:08:45 | 48.25969 | 13.25232 | 96° | 119km/h | 11457m | -3.7m/s | -56.0°C | 39.1% | 222.4hPa | 2.5V | 00:00:00 | 00:00:00 | 00:00:00 | |
| OE5DXL-15 | 2026-09-01 01:08:42 | 48.25972 | 13.25188 | 97° | 119km/h | 11460m | -3.9m/s | -56.1°C | 39.0% | 222.3hPa | 2.5V | 00:00:00 | 00:00:00 | 00:00:00 | |
| PG1ADW-2 | 2026-09-01 01:08:41 | 48.25975 | 13.25143 | 96° | 119km/h | 11464m | -3.8m/s | -56.1°C | 38.9% | 222.1hPa | 2.5V | 00:00:00 | 02:39:12 | 00:00:00 | |
| OE5MMP-10 | 2026-09-01 01:08:39 | 48.25981 | 13.25053 | 96° | 120km/h | 11472m | -4.0m/s | -56.2°C | 38.8% | 221.9hPa | 2.5V | 07:53:00 | 02:39:10 | 00:00:00 | |
| OE5WHR-10 | 2026-09-01 01:08:38 | 48.25984 | 13.25007 | 97° | 119km/h | 11476m | -3.8m/s | -56.2°C | 38.9% | 221.8hPa | 2.5V | 00:00:00 | 02:39:09 | 00:00:00 | |
| DG1MFX-10 | 2026-09-01 01:08:33 | 48.25999 | 13.24827 | 96° | 119km/h | 11491m | -3.7m/s | -56.4°C | 33.3% | 221.2hPa | 2.5V | 07:54:00 | 00:00:00 | 00:00:00 | |
| DK5PH-5 | 2026-09-01 01:08:32 | 48.26005 | 13.24737 | 97° | 122km/h | 11499m | -3.7m/s | -56.3°C | 39.2% | 220.9hPa | 2.5V | 00:00:00 | 02:39:03 | 00:00:00 | |
| OE5REO-15 | 2026-09-01 01:08:31 | 48.26004 | 13.24737 | 97° | 120km/h | 11499m | -3.7m/s | -56.4°C | 33.3% | 221.0hPa | 2.5V | 07:54:00 | 00:00:00 | 00:00:00 | |
| OE5MMP-10 | 2026-09-01 01:08:29 | 48.26014 | 13.24603 | 96° | 119km/h | 11510m | -3.8m/s | -56.4°C | 39.3% | 220.5hPa | 2.5V | 00:00:00 | 02:39:00 | 00:00:00 | |
| OE5FHM-15 | 2026-09-01 01:08:26 | 48.26023 | 13.24467 | 97° | 120km/h | 11522m | -3.7m/s | -56.5°C | 39.3% | 220.1hPa | 2.5V | 00:00:00 | 02:38:57 | 00:00:00 | |
| PG1ADW-2 | 2026-09-01 01:08:21 | 48.26039 | 13.24245 | 97° | 120km/h | 11541m | -3.7m/s | -56.6°C | 39.2% | 219.5hPa | 2.5V | 00:00:00 | 00:00:00 | 00:00:00 | |
| OE5MMP-10 | 2026-09-01 01:08:19 | 48.26045 | 13.24156 | 96° | 120km/h | 11548m | -3.9m/s | -56.7°C | 39.1% | 219.2hPa | 2.5V | 00:00:00 | 02:38:50 | 00:00:00 | |
| OE5HKT-10 | 2026-09-01 01:08:18 | 48.26048 | 13.24110 | 96° | 120km/h | 11552m | -3.8m/s | -56.7°C | 39.3% | 219.1hPa | 2.5V | 00:00:00 | 00:00:00 | 00:00:00 | |
| OE5WHR-10 | 2026-09-01 01:08:17 | 48.26051 | 13.24065 | 97° | 120km/h | 11556m | -3.8m/s | -56.8°C | 39.4% | 218.9hPa | 2.5V | 00:00:00 | 00:00:00 | 00:00:00 | |
| DL6DJ-15 | 2026-09-01 01:08:16 | 48.26055 | 13.24020 | 96° | 119km/h | 11560m | -3.7m/s | -56.9°C | 33.4% | 218.9hPa | 2.6V | 00:00:00 | 00:00:00 | 00:00:00 | |
| OE5REO-15 | 2026-09-01 01:08:15 | 48.26055 | 13.24020 | 98° | 119km/h | 11560m | -3.7m/s | -56.9°C | 33.4% | 218.9hPa | 2.6V | 07:54:00 | 00:00:00 | 00:00:00 | |
| OE5DXL-15 | 2026-09-01 01:08:12 | 48.26067 | 13.23839 | 98° | 120km/h | 11575m | -3.7m/s | -56.9°C | 39.4% | 218.3hPa | 2.6V | 00:00:00 | 00:00:00 | 00:00:00 | |
| OE5MMP-10 | 2026-09-01 01:08:09 | 48.26078 | 13.23704 | 97° | 120km/h | 11586m | -3.7m/s | -57.0°C | 39.4% | 217.9hPa | 2.6V | 00:00:00 | 02:38:40 | 00:00:00 | |
| DL6DJ-15 | 2026-09-01 01:07:45 | 48.26152 | 13.22607 | 93° | 119km/h | 11676m | -3.6m/s | -57.7°C | 33.4% | 214.8hPa | 2.6V | 00:00:00 | 00:00:00 | 00:00:00 | |
| OE5DXL-15 | 2026-09-01 01:07:42 | 48.26159 | 13.22467 | 96° | 124km/h | 11687m | -3.7m/s | -57.8°C | 39.6% | 214.4hPa | 2.6V | 00:00:00 | 00:00:00 | 00:00:00 | |
| PG1ADW-2 | 2026-09-01 01:07:41 | 48.26162 | 13.22421 | 96° | 124km/h | 11691m | -3.6m/s | -57.8°C | 39.4% | 214.3hPa | 2.6V | 00:00:00 | 00:00:00 | 00:00:00 | |
| OE5MMP-10 | 2026-09-01 01:07:39 | 48.26167 | 13.22327 | 96° | 124km/h | 11698m | -3.7m/s | -57.8°C | 39.1% | 214.0hPa | 2.6V | 00:00:00 | 02:38:10 | 00:00:00 | |
| OE5HKT-10 | 2026-09-01 01:07:36 | 48.26179 | 13.22184 | 99° | 124km/h | 11709m | -3.7m/s | -57.9°C | 39.2% | 213.7hPa | 2.6V | 00:00:00 | 00:00:00 | 00:00:00 | |
| OE5WHR-10 | 2026-09-01 01:07:35 | 48.26183 | 13.22138 | 98° | 124km/h | 11713m | -3.9m/s | -57.9°C | 39.5% | 213.5hPa | 2.5V | 00:00:00 | 02:38:06 | 00:00:00 | |
| OE5REO-15 | 2026-09-01 01:07:30 | 48.26193 | 13.21908 | 94° | 130km/h | 11732m | -3.7m/s | -58.1°C | 33.3% | 212.9hPa | 2.5V | 07:55:00 | 00:00:00 | 00:00:00 | |
| OE5MMP-10 | 2026-09-01 01:07:29 | 48.26195 | 13.21859 | 95° | 124km/h | 11735m | -3.9m/s | -58.1°C | 39.8% | 212.8hPa | 2.5V | 00:00:00 | 02:38:00 | 00:00:00 | |
| OE5FHM-15 | 2026-09-01 01:07:26 | 48.26201 | 13.21713 | 94° | 126km/h | 11748m | -3.9m/s | -58.2°C | 39.9% | 212.4hPa | 2.5V | 00:00:00 | 02:37:57 | 00:00:00 | |
| PG1ADW-2 | 2026-09-01 01:07:21 | 48.26208 | 13.21484 | 89° | 126km/h | 11767m | -3.7m/s | -58.2°C | 39.4% | 211.7hPa | 2.5V | 00:00:00 | 02:37:52 | 00:00:00 | |
| OE3JTB-15 | 2026-09-01 01:07:20 | 48.26207 | 13.21439 | 88° | 126km/h | 11771m | -4.0m/s | -58.2°C | 39.5% | 211.5hPa | 2.5V | 00:00:00 | 02:37:51 | 00:00:00 | |
| OE5MMP-10 | 2026-09-01 01:07:19 | 48.26206 | 13.21393 | 88° | 126km/h | 11775m | -4.1m/s | -58.2°C | 39.4% | 211.4hPa | 2.5V | 07:55:00 | 02:37:50 | 00:00:00 | |
| DK5PH-5 | 2026-09-01 01:07:17 | 48.26203 | 13.21296 | 89° | 128km/h | 11783m | -3.9m/s | -58.2°C | 39.7% | 211.1hPa | 2.5V | 00:00:00 | 02:37:48 | 00:00:00 | |
| OE5HKT-10 | 2026-09-01 01:07:15 | 48.26203 | 13.21198 | 91° | 128km/h | 11790m | -3.2m/s | -58.3°C | 39.8% | 210.9hPa | 2.5V | 00:00:00 | 00:00:00 | 00:00:00 | |
| OE5REO-15 | 2026-09-01 01:07:14 | 48.26203 | 13.21150 | 91° | 126km/h | 11793m | -3.6m/s | -58.4°C | 33.0% | 210.9hPa | 2.5V | 07:55:00 | 00:00:00 | 00:00:00 | |
| OE5DXL-15 | 2026-09-01 01:07:12 | 48.26202 | 13.21056 | 89° | 128km/h | 11801m | -3.9m/s | -58.3°C | 39.1% | 210.6hPa | 2.5V | 07:55:00 | 00:00:00 | 00:00:00 | |
| OE5MMP-10 | 2026-09-01 01:07:09 | 48.26201 | 13.20912 | 90° | 128km/h | 11813m | -3.8m/s | -58.1°C | 38.0% | 210.2hPa | 2.5V | 00:00:00 | 02:37:40 | 00:00:00 | |
| DF3TZ-5 | 2026-09-01 01:06:57 | 48.26178 | 13.20331 | 88° | 128km/h | 11858m | -3.5m/s | -58.3°C | -1.0% | 208.7hPa | 2.5V | 00:00:00 | 00:00:00 | 00:00:00 | |
| OE5FHM-15 | 2026-09-01 01:06:56 | 48.26177 | 13.20283 | 89° | 130km/h | 11862m | -3.4m/s | -58.3°C | 39.4% | 208.6hPa | 2.5V | 00:00:00 | 02:37:27 | 00:00:00 | |
| OE5HKT-10 | 2026-09-01 01:06:54 | 48.26174 | 13.20190 | 85° | 131km/h | 11869m | -3.2m/s | -58.3°C | 39.5% | 208.2hPa | 2.5V | 00:00:00 | 02:37:25 | 00:00:00 | |
| OE5WHR-10 | 2026-09-01 01:06:53 | 48.26171 | 13.20144 | 84° | 131km/h | 11873m | -3.7m/s | -58.3°C | 39.3% | 208.2hPa | 2.5V | 00:00:00 | 00:00:00 | 00:00:00 | |
| OE3JTB-15 | 2026-09-01 01:06:51 | 48.26163 | 13.20048 | 84° | 131km/h | 11880m | -3.4m/s | -58.4°C | 39.4% | 208.0hPa | 2.5V | 00:00:00 | 00:00:00 | 00:00:00 | |
| OE5MMP-10 | 2026-09-01 01:06:49 | 48.26156 | 13.19951 | 84° | 131km/h | 11887m | -3.7m/s | -58.3°C | 39.2% | 207.7hPa | 2.5V | 00:00:00 | 02:37:20 | 00:00:00 | |
| DK5PH-5 | 2026-09-01 01:06:47 | 48.26148 | 13.19855 | 83° | 133km/h | 11895m | -4.0m/s | 0°C | 0% | 0hPa | 2.5V | 00:00:00 | 02:37:18 | 00:00:00 | |
| DL6DJ-15 | 2026-09-01 01:06:43 | 48.26134 | 13.19654 | 85° | 131km/h | 11911m | -3.5m/s | -58.5°C | 32.6% | 207.0hPa | 2.5V | 00:00:00 | 00:00:00 | 00:00:00 | |
| OE5DRO-10 | 2026-09-01 01:06:42 | 48.26128 | 13.19555 | 84° | 133km/h | 11918m | -3.4m/s | -58.5°C | 38.6% | 206.7hPa | 2.5V | 00:00:00 | 00:00:00 | 00:00:00 | |
| PG1ADW-2 | 2026-09-01 01:06:41 | 48.26128 | 13.19555 | 84° | 133km/h | 11918m | -3.4m/s | -58.5°C | 38.6% | 206.7hPa | 2.5V | 07:55:00 | 00:00:00 | 00:00:00 | |
| OE5MMP-10 | 2026-09-01 01:06:39 | 48.26119 | 13.19456 | 83° | 133km/h | 11925m | -3.8m/s | -58.5°C | 37.8% | 206.5hPa | 2.5V | 00:00:00 | 02:37:10 | 00:00:00 | |
| BAUMI2-15 | 2026-09-01 01:06:37 | 48.26111 | 13.19356 | 83° | 131km/h | 11934m | -4.1m/s | -58.5°C | 38.1% | 206.2hPa | 2.5V | 00:00:00 | 02:37:08 | 00:00:00 | |
| OE5HKT-10 | 2026-09-01 01:06:33 | 48.26093 | 13.19154 | 84° | 133km/h | 11949m | -3.7m/s | -58.7°C | 38.6% | 205.7hPa | 2.5V | 00:00:00 | 00:00:00 | 00:00:00 | |
| OE5WHR-10 | 2026-09-01 01:06:32 | 48.26090 | 13.19105 | 84° | 133km/h | 11953m | -3.6m/s | -58.7°C | 38.6% | 205.5hPa | 2.5V | 07:56:00 | 02:37:03 | 00:00:00 | |
| OE5MMP-10 | 2026-09-01 01:06:29 | 48.26078 | 13.18957 | 85° | 133km/h | 11964m | -3.5m/s | -58.8°C | 38.9% | 205.2hPa | 2.5V | 00:00:00 | 02:37:00 | 00:00:00 | |
| OE5REO-15 | 2026-09-01 01:06:27 | 48.26075 | 13.18908 | 85° | 130km/h | 11968m | -3.7m/s | -58.9°C | 32.4% | 205.2hPa | 2.6V | 07:56:00 | 00:00:00 | 00:00:00 | |
| OE5FHM-15 | 2026-09-01 01:06:26 | 48.26066 | 13.18810 | 82° | 135km/h | 11976m | -3.3m/s | -58.9°C | 39.2% | 204.8hPa | 2.6V | 00:00:00 | 02:36:57 | 00:00:00 | |
| BAUMI2-15 | 2026-09-01 01:06:24 | 48.26057 | 13.18709 | 84° | 133km/h | 11982m | -3.4m/s | -58.9°C | 39.0% | 204.6hPa | 2.6V | 00:00:00 | 02:36:55 | 00:00:00 | |
| OE5DRO-10 | 2026-09-01 01:06:23 | 48.26054 | 13.18658 | 85° | 133km/h | 11986m | -3.7m/s | -59.0°C | 38.9% | 204.5hPa | 2.5V | 00:00:00 | 00:00:00 | 00:00:00 | |
| OE3JTB-15 | 2026-09-01 01:06:22 | 48.26050 | 13.18608 | 85° | 135km/h | 11990m | -3.6m/s | -59.0°C | 39.0% | 204.4hPa | 2.5V | 00:00:00 | 00:00:00 | 00:00:00 | |
| PG1ADW-2 | 2026-09-01 01:06:21 | 48.26047 | 13.18558 | 84° | 135km/h | 11993m | -3.8m/s | -59.0°C | 38.9% | 204.3hPa | 2.5V | 00:00:00 | 00:00:00 | 00:00:00 | |
| OE5MMP-10 | 2026-09-01 01:06:19 | 48.26039 | 13.18457 | 84° | 133km/h | 12001m | -3.5m/s | -59.1°C | 39.0% | 204.0hPa | 2.5V | 00:00:00 | 02:36:50 | 00:00:00 | |
| DG1MFX-10 | 2026-09-01 01:06:18 | 48.26039 | 13.18457 | 85° | 135km/h | 12001m | -3.6m/s | -59.2°C | 32.5% | 204.0hPa | 2.5V | 07:56:00 | 00:00:00 | 00:00:00 | |
| DK5PH-5 | 2026-09-01 01:06:17 | 48.26032 | 13.18357 | 85° | 51km/h | 12008m | -3.6m/s | 0°C | 0% | 0hPa | 2.5V | 00:00:00 | 02:36:48 | 00:00:00 | |
| DO3MHA-11 | 2026-09-01 01:06:14 | 48.26019 | 13.18209 | 82° | 139km/h | 12019m | -3.9m/s | -59.3°C | 39.2% | 203.4hPa | 2.5V | 00:00:00 | 02:36:45 | 00:00:00 | |
| OE5HKT-10 | 2026-09-01 01:06:12 | 48.26010 | 13.18108 | 84° | 137km/h | 12027m | -3.5m/s | -59.4°C | 38.8% | 203.1hPa | 2.5V | 00:00:00 | 00:00:00 | 00:00:00 | |
| OE5WHR-10 | 2026-09-01 01:06:11 | 48.26006 | 13.18057 | 84° | 139km/h | 12031m | -4.1m/s | -59.4°C | 38.6% | 203.0hPa | 2.5V | 00:00:00 | 00:00:00 | 00:00:00 | |
| BAUMI2-15 | 2026-09-01 01:06:09 | 48.25997 | 13.17958 | 82° | 135km/h | 12039m | -3.9m/s | -59.5°C | 38.3% | 202.7hPa | 2.5V | 00:00:00 | 02:36:40 | 00:00:00 | |
| DF3TZ-5 | 2026-09-01 01:05:55 | 48.25924 | 13.17239 | 80° | 139km/h | 12099m | -4.6m/s | 0°C | -1.0% | 200.9hPa | 2.6V | 00:00:00 | 00:00:00 | 00:00:00 | |
| BAUMI2-15 | 2026-09-01 01:05:54 | 48.25918 | 13.17186 | 81° | 144km/h | 12104m | -4.3m/s | -60.1°C | 35.3% | 200.7hPa | 2.6V | 00:00:00 | 02:36:25 | 00:00:00 | |
| OE3JTB-15 | 2026-09-01 01:05:53 | 48.25912 | 13.17132 | 82° | 144km/h | 12108m | -4.7m/s | -60.1°C | 35.3% | 200.5hPa | 2.5V | 00:00:00 | 02:36:24 | 00:00:00 | |
| OE5HKT-10 | 2026-09-01 01:05:51 | 48.25903 | 13.17023 | 84° | 144km/h | 12117m | -4.3m/s | -60.2°C | 35.5% | 200.3hPa | 2.5V | 00:00:00 | 02:36:22 | 00:00:00 | |
| OE5WHR-10 | 2026-09-01 01:05:50 | 48.25899 | 13.16969 | 84° | 144km/h | 12122m | -4.3m/s | -60.2°C | 35.5% | 200.1hPa | 2.5V | 00:00:00 | 00:00:00 | 00:00:00 | |
| OE5MMP-10 | 2026-09-01 01:05:49 | 48.25894 | 13.16916 | 83° | 142km/h | 12126m | -4.3m/s | -60.3°C | 35.5% | 200.0hPa | 2.5V | 00:00:00 | 02:36:20 | 00:00:00 | |
| OE5DRO-10 | 2026-09-01 01:05:45 | 48.25873 | 13.16704 | 82° | 146km/h | 12143m | -4.5m/s | -60.4°C | 34.3% | 199.4hPa | 2.5V | 07:56:00 | 00:00:00 | 00:00:00 | |
| BAUMI2-15 | 2026-09-01 01:05:44 | 48.25868 | 13.16651 | 82° | 142km/h | 12147m | -4.3m/s | -60.4°C | 34.0% | 199.3hPa | 2.5V | 00:00:00 | 02:36:15 | 00:00:00 | |
| OE5DXL-15 | 2026-09-01 01:05:42 | 48.25856 | 13.16544 | 82° | 144km/h | 12156m | -4.5m/s | -60.4°C | 33.3% | 199.0hPa | 2.5V | 00:00:00 | 00:00:00 | 00:00:00 | |
| PG1ADW-2 | 2026-09-01 01:05:41 | 48.25851 | 13.16490 | 83° | 146km/h | 12161m | -4.3m/s | -60.5°C | 33.2% | 198.9hPa | 2.5V | 00:00:00 | 00:00:00 | 00:00:00 | |
| OE5REO-15 | 2026-09-01 01:05:40 | 48.25851 | 13.16490 | 83° | 144km/h | 12161m | -4.3m/s | -60.5°C | 26.8% | 198.9hPa | 2.5V | 07:57:00 | 00:00:00 | 00:00:00 | |
| BAUMI2-15 | 2026-09-01 01:05:39 | 48.25842 | 13.16382 | 84° | 146km/h | 12169m | -4.4m/s | -60.5°C | 32.5% | 198.6hPa | 2.5V | 00:00:00 | 02:36:10 | 00:00:00 | |
| DG1MFX-10 | 2026-09-01 01:05:37 | 48.25838 | 13.16328 | 84° | 142km/h | 12174m | -4.6m/s | -60.6°C | 25.9% | 198.5hPa | 2.5V | 07:57:00 | 00:00:00 | 00:00:00 | |
| BAUMI2-15 | 2026-09-01 01:05:34 | 48.25818 | 13.16108 | 82° | 131km/h | 12193m | -4.8m/s | -60.6°C | 30.8% | 197.8hPa | 2.5V | 00:00:00 | 02:36:05 | 00:00:00 | |
| OE5HKT-10 | 2026-09-01 01:05:30 | 48.25799 | 13.15882 | 86° | 144km/h | 12211m | -4.3m/s | -60.7°C | 30.6% | 197.3hPa | 2.5V | 00:00:00 | 00:00:00 | 00:00:00 | |
| OE5MMP-10 | 2026-09-01 01:05:29 | 48.25796 | 13.15827 | 86° | 144km/h | 12215m | -4.1m/s | -60.7°C | 30.2% | 197.1hPa | 2.5V | 00:00:00 | 02:36:00 | 00:00:00 | |
| OE5FHM-15 | 2026-09-01 01:05:26 | 48.25787 | 13.15664 | 87° | 137km/h | 12229m | -4.6m/s | -60.8°C | 28.5% | 196.7hPa | 2.5V | 00:00:00 | 02:35:57 | 00:00:00 | |
| OE3JTB-15 | 2026-09-01 01:05:24 | 48.25783 | 13.15553 | 88° | 137km/h | 12239m | -4.9m/s | -60.8°C | 27.5% | 196.4hPa | 2.5V | 07:57:00 | 00:00:00 | 00:00:00 | |
| PG1ADW-2 | 2026-09-01 01:05:21 | 48.25781 | 13.15387 | 91° | 137km/h | 12253m | -5.0m/s | -60.7°C | 26.2% | 195.9hPa | 2.5V | 00:00:00 | 00:00:00 | 00:00:00 | |
| OE5MMP-10 | 2026-09-01 01:05:19 | 48.25782 | 13.15280 | 90° | 141km/h | 12262m | -4.3m/s | -60.7°C | 25.9% | 195.6hPa | 2.5V | 00:00:00 | 02:35:50 | 00:00:00 | |
| DG1MFX-10 | 2026-09-01 01:05:17 | 48.25781 | 13.15227 | 90° | 139km/h | 12267m | -4.3m/s | -60.7°C | 19.6% | 195.5hPa | 2.5V | 07:57:00 | 00:00:00 | 00:00:00 | |
| OE5DXL-15 | 2026-09-01 01:05:12 | 48.25780 | 13.14904 | 91° | 130km/h | 12293m | -4.6m/s | -59.5°C | 20.9% | 194.7hPa | 2.5V | 00:00:00 | 00:00:00 | 00:00:00 | |
| DL6DJ-15 | 2026-09-01 01:05:10 | 48.25784 | 13.14746 | 92° | 133km/h | 12307m | -4.5m/s | -59.2°C | 14.9% | 194.2hPa | 2.5V | 00:00:00 | 00:00:00 | 00:00:00 | |
| OE5MMP-10 | 2026-09-01 01:05:09 | 48.25784 | 13.14745 | 93° | 131km/h | 12308m | -4.5m/s | -59.2°C | 20.0% | 194.2hPa | 2.5V | 00:00:00 | 02:35:40 | 00:00:00 | |
| OE5WHR-10 | 2026-09-01 01:05:08 | 48.25786 | 13.14695 | 93° | 130km/h | 12312m | -4.4m/s | -59.1°C | 19.7% | 194.1hPa | 2.5V | 00:00:00 | 00:00:00 | 00:00:00 | |
| OE5DRO-10 | 2026-09-01 01:05:07 | 48.25787 | 13.14645 | 92° | 130km/h | 12317m | -4.6m/s | -58.8°C | 19.0% | 193.9hPa | 2.6V | 00:00:00 | 00:00:00 | 00:00:00 | |
| DF3TZ-5 | 2026-09-01 01:04:53 | 48.25801 | 13.13962 | 92° | 130km/h | 12379m | -4.2m/s | 0°C | -1.0% | -1.0hPa | 2.6V | 00:00:00 | 00:00:00 | 00:00:00 | |
| OE5REO-15 | 2026-09-01 01:04:52 | 48.25800 | 13.13962 | 94° | 130km/h | 12379m | -4.2m/s | -57.6°C | 11.8% | 192.1hPa | 2.6V | 07:58:00 | 00:00:00 | 00:00:00 | |
| OE5MMP-10 | 2026-09-01 01:04:49 | 48.25807 | 13.13766 | 95° | 122km/h | 12398m | -4.6m/s | -57.1°C | 15.0% | 191.4hPa | 2.6V | 00:00:00 | 02:35:20 | 00:00:00 | |
| OE5HKT-10 | 2026-09-01 01:04:48 | 48.25810 | 13.13718 | 95° | 122km/h | 12402m | -4.3m/s | -57.1°C | 15.0% | 191.3hPa | 2.6V | 00:00:00 | 02:35:19 | 00:00:00 | |
| OE5WHR-10 | 2026-09-01 01:04:47 | 48.25812 | 13.13672 | 95° | 122km/h | 12407m | -4.2m/s | -57.1°C | 14.9% | 191.2hPa | 2.6V | 00:00:00 | 00:00:00 | 00:00:00 | |
| OE5DXL-15 | 2026-09-01 01:04:42 | 48.25820 | 13.13442 | 93° | 124km/h | 12429m | -4.4m/s | -57.1°C | 14.6% | 190.5hPa | 2.6V | 00:00:00 | 00:00:00 | 00:00:00 | |
| PG1ADW-2 | 2026-09-01 01:04:41 | 48.25821 | 13.13396 | 93° | 124km/h | 12433m | -4.4m/s | -57.1°C | 14.4% | 190.3hPa | 2.5V | 00:00:00 | 02:35:12 | 00:00:00 | |
| DL6DJ-15 | 2026-09-01 01:04:39 | 48.25826 | 13.13255 | 93° | 122km/h | 12447m | -4.9m/s | -57.0°C | 10.1% | 190.0hPa | 2.5V | 00:00:00 | 00:00:00 | 00:00:00 | |
| OE5REO-15 | 2026-09-01 01:04:37 | 48.25826 | 13.13255 | 95° | 124km/h | 12447m | -4.9m/s | -57.0°C | 10.2% | 190.0hPa | 2.5V | 07:58:00 | 00:00:00 | 00:00:00 | |
| DG1MFX-10 | 2026-09-01 01:04:36 | 48.25828 | 13.13208 | 95° | 124km/h | 12452m | -4.6m/s | -57.0°C | 10.1% | 189.8hPa | 2.5V | 07:58:00 | 00:00:00 | 00:00:00 | |
| OE5DRO-10 | 2026-09-01 01:04:30 | 48.25841 | 13.12836 | 93° | 126km/h | 12487m | -4.1m/s | -56.7°C | 13.3% | 188.7hPa | 2.5V | 00:00:00 | 00:00:00 | 00:00:00 | |
| OE5MMP-10 | 2026-09-01 01:04:29 | 48.25841 | 13.12836 | 93° | 126km/h | 12487m | -4.1m/s | -56.7°C | 13.3% | 188.7hPa | 2.5V | 00:00:00 | 02:35:00 | 00:00:00 | |
| OE5HKT-10 | 2026-09-01 01:04:27 | 48.25844 | 13.12741 | 93° | 126km/h | 12496m | -4.4m/s | -56.7°C | 13.1% | 188.4hPa | 2.5V | 00:00:00 | 00:00:00 | 00:00:00 | |
| OE5FHM-15 | 2026-09-01 01:04:26 | 48.25845 | 13.12695 | 92° | 126km/h | 12500m | -4.2m/s | -56.7°C | 13.0% | 188.3hPa | 2.5V | 00:00:00 | 02:34:57 | 00:00:00 | |
| DF3TZ-5 | 2026-09-01 01:04:22 | 48.25848 | 13.12504 | 91° | 124km/h | 12517m | -4.2m/s | 0°C | -1.0% | -1.0hPa | 2.5V | 00:00:00 | 00:00:00 | 00:00:00 | |
| PG1ADW-2 | 2026-09-01 01:04:21 | 48.25849 | 13.12457 | 92° | 126km/h | 12521m | -4.1m/s | -56.9°C | 12.8% | 187.7hPa | 2.5V | 00:00:00 | 00:00:00 | 00:00:00 | |
| OE5MMP-10 | 2026-09-01 01:04:19 | 48.25851 | 13.12360 | 93° | 126km/h | 12530m | -4.3m/s | -57.0°C | 12.7% | 187.5hPa | 2.5V | 00:00:00 | 02:34:50 | 00:00:00 | |
| DG1MFX-10 | 2026-09-01 01:04:15 | 48.25855 | 13.12219 | 93° | 122km/h | 12543m | -4.2m/s | -57.1°C | 8.6% | 187.2hPa | 2.5V | 07:58:00 | 00:00:00 | 00:00:00 | |
| OE5DXL-15 | 2026-09-01 01:04:12 | 48.25859 | 13.12027 | 93° | 124km/h | 12560m | -4.2m/s | -57.2°C | 11.9% | 186.6hPa | 2.5V | 00:00:00 | 00:00:00 | 00:00:00 | |
| OE5DRO-10 | 2026-09-01 01:04:10 | 48.25862 | 13.11930 | 93° | 126km/h | 12569m | -4.2m/s | -57.2°C | 11.7% | 186.3hPa | 2.5V | 00:00:00 | 00:00:00 | 00:00:00 | |
| OE5MMP-10 | 2026-09-01 01:04:09 | 48.25863 | 13.11882 | 93° | 126km/h | 12573m | -4.3m/s | -57.1°C | 11.5% | 186.2hPa | 2.5V | 00:00:00 | 02:34:40 | 00:00:00 | |
| DL6DJ-15 | 2026-09-01 01:04:08 | 48.25867 | 13.11785 | 93° | 124km/h | 12582m | -4.4m/s | -57.2°C | 7.6% | 186.0hPa | 2.5V | 00:00:00 | 00:00:00 | 00:00:00 | |
| OE5HKT-10 | 2026-09-01 01:04:06 | 48.25869 | 13.11738 | 93° | 124km/h | 12586m | -4.1m/s | -57.2°C | 11.2% | 185.8hPa | 2.5V | 00:00:00 | 00:00:00 | 00:00:00 | |
| OE5WHR-10 | 2026-09-01 01:04:05 | 48.25870 | 13.11692 | 91° | 124km/h | 12590m | -4.1m/s | -57.2°C | 11.1% | 185.7hPa | 2.5V | 00:00:00 | 00:00:00 | 00:00:00 | |
| PG1ADW-2 | 2026-09-01 01:04:01 | 48.25873 | 13.11502 | 93° | 122km/h | 12607m | -4.2m/s | -57.4°C | 10.8% | 185.2hPa | 2.5V | 07:58:00 | 00:00:00 | 00:00:00 | |
| OE5MMP-10 | 2026-09-01 01:03:59 | 48.25875 | 13.11406 | 92° | 124km/h | 12615m | -4.2m/s | -57.4°C | 10.5% | 185.0hPa | 2.5V | 00:00:00 | 02:34:30 | 00:00:00 | |
| OE3JTB-15 | 2026-09-01 01:03:57 | 48.25879 | 13.11308 | 95° | 117km/h | 12624m | -4.4m/s | -57.5°C | 10.2% | 184.7hPa | 2.5V | 00:00:00 | 00:00:00 | 00:00:00 | |
| OE5FHM-15 | 2026-09-01 01:03:56 | 48.25881 | 13.11260 | 95° | 115km/h | 12628m | -4.8m/s | -57.5°C | 10.0% | 184.5hPa | 2.6V | 00:00:00 | 02:34:27 | 00:00:00 | |
| DG1MFX-10 | 2026-09-01 01:03:54 | 48.25884 | 13.11212 | 96° | 128km/h | 12633m | -4.8m/s | -57.5°C | 6.4% | 184.5hPa | 2.6V | 07:59:00 | 00:00:00 | 00:00:00 | |
| OE5DRO-10 | 2026-09-01 01:03:51 | 48.25895 | 13.11029 | 94° | 115km/h | 12651m | -4.1m/s | -57.5°C | 9.5% | 183.9hPa | 2.6V | 00:00:00 | 00:00:00 | 00:00:00 | |
| OE5MMP-10 | 2026-09-01 01:03:49 | 48.25899 | 13.10940 | 93° | 117km/h | 12660m | -4.2m/s | -57.6°C | 9.2% | 183.7hPa | 2.6V | 00:00:00 | 02:34:20 | 00:00:00 | |
| OE5HKT-10 | 2026-09-01 01:03:45 | 48.25906 | 13.10759 | 94° | 113km/h | 12677m | -4.7m/s | -57.6°C | 8.5% | 183.1hPa | 2.6V | 00:00:00 | 02:34:16 | 00:00:00 | |
| OE5WHR-10 | 2026-09-01 01:03:44 | 48.25908 | 13.10714 | 96° | 113km/h | 12682m | -4.5m/s | -57.5°C | 8.3% | 183.0hPa | 2.6V | 07:58:00 | 00:00:00 | 00:00:00 | |
| OE5DXL-15 | 2026-09-01 01:03:42 | 48.25914 | 13.10626 | 96° | 113km/h | 12691m | -4.4m/s | -57.3°C | 7.9% | 182.8hPa | 2.6V | 00:00:00 | 02:34:13 | 00:00:00 | |
| PG1ADW-2 | 2026-09-01 01:03:41 | 48.25917 | 13.10584 | 94° | 111km/h | 12695m | -4.1m/s | -57.1°C | 7.6% | 182.6hPa | 2.6V | 00:00:00 | 00:00:00 | 00:00:00 | |
| OE5MMP-10 | 2026-09-01 01:03:39 | 48.25919 | 13.10500 | 93° | 113km/h | 12703m | -4.2m/s | -57.0°C | 7.3% | 182.4hPa | 2.6V | 00:00:00 | 02:34:10 | 00:00:00 | |
| DL6DJ-15 | 2026-09-01 01:03:37 | 48.25924 | 13.10373 | 92° | 110km/h | 12716m | -4.6m/s | -56.8°C | 3.7% | 182.1hPa | 2.6V | 00:00:00 | 00:00:00 | 00:00:00 | |
| OE5REO-15 | 2026-09-01 01:03:35 | 48.25924 | 13.10373 | 93° | 111km/h | 12717m | -4.6m/s | -56.8°C | 3.7% | 182.1hPa | 2.6V | 07:59:00 | 00:00:00 | 00:00:00 | |
| DG1MFX-10 | 2026-09-01 01:03:34 | 48.25925 | 13.10330 | 93° | 113km/h | 12721m | -4.6m/s | -56.7°C | 3.7% | 182.0hPa | 2.6V | 07:59:00 | 00:00:00 | 00:00:00 | |
| OE5DRO-10 | 2026-09-01 01:03:32 | 48.25929 | 13.10203 | 92° | 115km/h | 12734m | -4.4m/s | -56.6°C | 6.6% | 181.5hPa | 2.6V | 00:00:00 | 00:00:00 | 00:00:00 | |
| OE5MMP-10 | 2026-09-01 01:03:29 | 48.25931 | 13.10074 | 93° | 113km/h | 12747m | -4.4m/s | -56.5°C | 6.5% | 181.1hPa | 2.5V | 00:00:00 | 02:34:00 | 00:00:00 | |
| OE3JTB-15 | 2026-09-01 01:03:28 | 48.25932 | 13.10032 | 93° | 113km/h | 12751m | -4.1m/s | -56.5°C | 6.4% | 181.0hPa | 2.5V | 00:00:00 | 00:00:00 | 00:00:00 | |
| OE5FHM-15 | 2026-09-01 01:03:26 | 48.25934 | 13.09950 | 91° | 113km/h | 12760m | -4.3m/s | -56.4°C | 6.3% | 180.7hPa | 2.5V | 00:00:00 | 02:33:57 | 00:00:00 | |
| OE5HKT-10 | 2026-09-01 01:03:24 | 48.25936 | 13.09866 | 93° | 115km/h | 12769m | -4.6m/s | -56.2°C | 6.1% | 180.5hPa | 2.5V | 00:00:00 | 00:00:00 | 00:00:00 | |
| OE5WHR-10 | 2026-09-01 01:03:23 | 48.25937 | 13.09823 | 92° | 115km/h | 12774m | -4.7m/s | -56.2°C | 6.1% | 180.4hPa | 2.5V | 00:00:00 | 02:33:54 | 00:00:00 | |
| PG1ADW-2 | 2026-09-01 01:03:21 | 48.25939 | 13.09735 | 94° | 115km/h | 12782m | -4.2m/s | -56.2°C | 6.1% | 180.2hPa | 2.5V | 00:00:00 | 02:33:52 | 00:00:00 | |
| OE5REO-15 | 2026-09-01 01:03:20 | 48.25939 | 13.09735 | 94° | 119km/h | 12782m | -4.2m/s | -56.2°C | 3.2% | 180.2hPa | 2.5V | 07:59:00 | 00:00:00 | 00:00:00 | |
| OE5MMP-10 | 2026-09-01 01:03:19 | 48.25944 | 13.09646 | 95° | 119km/h | 12791m | -4.1m/s | -56.2°C | 6.1% | 179.9hPa | 2.5V | 07:59:00 | 02:33:50 | 00:00:00 | |
| DG1MFX-10 | 2026-09-01 01:03:14 | 48.25951 | 13.09467 | 95° | 120km/h | 12806m | -3.9m/s | -56.3°C | 3.2% | 179.5hPa | 2.5V | 00:00:00 | 00:00:00 | 00:00:00 | |
| OE5DRO-10 | 2026-09-01 01:03:13 | 48.25956 | 13.09377 | 95° | 111km/h | 12814m | -4.0m/s | -56.3°C | 6.2% | 179.2hPa | 2.5V | 07:59:00 | 00:00:00 | 00:00:00 | |
| OE5DXL-15 | 2026-09-01 01:03:12 | 48.25958 | 13.09331 | 96° | 106km/h | 12818m | -4.1m/s | -56.3°C | 6.3% | 179.1hPa | 2.5V | 07:59:00 | 00:00:00 | 00:00:00 | |
| OE5MMP-10 | 2026-09-01 01:03:09 | 48.25969 | 13.09200 | 98° | 110km/h | 12830m | -3.5m/s | -56.0°C | 6.1% | 178.7hPa | 2.6V | 00:00:00 | 02:33:40 | 00:00:00 | |
| OE5REO-15 | 2026-09-01 01:03:05 | 48.25977 | 13.09076 | 95° | 111km/h | 12842m | -3.9m/s | -56.0°C | 3.1% | 178.5hPa | 2.6V | 08:00:00 | 00:00:00 | 00:00:00 | |
| OE5HKT-10 | 2026-09-01 01:03:03 | 48.25982 | 13.08951 | 92° | 102km/h | 12854m | -4.4m/s | -56.0°C | 6.0% | 178.1hPa | 2.6V | 00:00:00 | 00:00:00 | 00:00:00 | |
| OE5WHR-10 | 2026-09-01 01:03:02 | 48.25982 | 13.08910 | 92° | 102km/h | 12859m | -4.7m/s | -55.9°C | 6.0% | 177.9hPa | 2.6V | 00:00:00 | 00:00:00 | 00:00:00 | |
| PG1ADW-2 | 2026-09-01 01:03:01 | 48.25984 | 13.08867 | 93° | 102km/h | 12863m | -4.3m/s | -55.8°C | 6.0% | 177.8hPa | 2.5V | 00:00:00 | 00:00:00 | 00:00:00 | |
| OE5MMP-10 | 2026-09-01 01:02:59 | 48.25988 | 13.08783 | 96° | 102km/h | 12872m | -4.1m/s | -55.7°C | 6.1% | 177.6hPa | 2.5V | 00:00:00 | 02:33:30 | 00:00:00 | |
| OE5FHM-15 | 2026-09-01 01:02:56 | 48.25996 | 13.08664 | 97° | 102km/h | 12884m | -4.2m/s | -55.5°C | 6.0% | 177.3hPa | 2.5V | 00:00:00 | 02:33:27 | 00:00:00 | |
| OE5DRO-10 | 2026-09-01 01:02:55 | 48.26003 | 13.08586 | 99° | 100km/h | 12892m | -4.2m/s | -55.3°C | 6.0% | 177.0hPa | 2.5V | 00:00:00 | 00:00:00 | 00:00:00 | |
| DG1MFX-10 | 2026-09-01 01:02:53 | 48.26003 | 13.08586 | 100° | 102km/h | 12892m | -4.3m/s | -55.3°C | 3.1% | 177.0hPa | 2.5V | 00:00:00 | 00:00:00 | 00:00:00 | |
| OE5REO-15 | 2026-09-01 01:02:50 | 48.26012 | 13.08477 | 95° | 97km/h | 12906m | -4.0m/s | -55.2°C | 3.1% | 176.7hPa | 2.5V | 08:00:00 | 00:00:00 | 00:00:00 | |
| OE5MMP-10 | 2026-09-01 01:02:49 | 48.26014 | 13.08402 | 92° | 100km/h | 12914m | -3.9m/s | -55.3°C | 6.1% | 176.4hPa | 2.5V | 00:00:00 | 02:33:20 | 00:00:00 | |
| OE5HKT-10 | 2026-09-01 01:02:42 | 48.26027 | 13.08136 | 96° | 104km/h | 12943m | -4.5m/s | -55.2°C | 6.3% | 175.7hPa | 2.5V | 00:00:00 | 02:33:13 | 00:00:00 | |
| OE5WHR-10 | 2026-09-01 01:02:41 | 48.26029 | 13.08099 | 96° | 104km/h | 12948m | -4.7m/s | -55.2°C | 6.2% | 175.5hPa | 2.5V | 00:00:00 | 00:00:00 | 00:00:00 | |
| OE5MMP-10 | 2026-09-01 01:02:39 | 48.26034 | 13.08021 | 96° | 104km/h | 12957m | -4.7m/s | -55.0°C | 6.2% | 175.3hPa | 2.5V | 00:00:00 | 02:33:10 | 00:00:00 | |
| OE5DRO-10 | 2026-09-01 01:02:35 | 48.26041 | 13.07865 | 94° | 106km/h | 12977m | -5.0m/s | -54.7°C | 6.0% | 174.7hPa | 2.5V | 00:00:00 | 00:00:00 | 00:00:00 | |
| OE5REO-15 | 2026-09-01 01:02:34 | 48.26041 | 13.07865 | 94° | 104km/h | 12977m | -5.0m/s | -54.8°C | 3.2% | 174.8hPa | 2.5V | 08:00:00 | 00:00:00 | 00:00:00 | |
| DG1MFX-10 | 2026-09-01 01:02:32 | 48.26043 | 13.07787 | 92° | 104km/h | 12986m | -4.6m/s | -54.8°C | 3.3% | 174.5hPa | 2.5V | 00:00:00 | 00:00:00 | 00:00:00 | |
| DB0ND-19 | 2026-09-01 01:02:30 | 48.26046 | 13.07667 | 93° | 106km/h | 13000m | -4.4m/s | -54.8°C | -1.0% | 174.2hPa | 2.5V | 00:00:00 | 00:00:00 | 00:00:00 | |
| OE5MMP-10 | 2026-09-01 01:02:29 | 48.26047 | 13.07627 | 95° | 104km/h | 13004m | -4.4m/s | -54.8°C | 6.1% | 174.0hPa | 2.5V | 08:00:00 | 02:33:00 | 00:00:00 | |
| OE5FHM-15 | 2026-09-01 01:02:26 | 48.26053 | 13.07510 | 95° | 106km/h | 13018m | -4.5m/s | -54.9°C | 6.1% | 173.6hPa | 2.5V | 00:00:00 | 02:32:57 | 00:00:00 | |
| PG1ADW-2 | 2026-09-01 01:02:21 | 48.26064 | 13.07312 | 94° | 106km/h | 13044m | -5.1m/s | -54.9°C | 6.2% | 172.9hPa | 2.6V | 08:00:00 | 00:00:00 | 00:00:00 | |
| OE5WHR-10 | 2026-09-01 01:02:20 | 48.26066 | 13.07273 | 93° | 106km/h | 13049m | -4.9m/s | -54.9°C | 6.2% | 172.8hPa | 2.6V | 00:00:00 | 02:32:51 | 00:00:00 | |
| OE5MMP-10 | 2026-09-01 01:02:19 | 48.26067 | 13.07232 | 93° | 104km/h | 13054m | -4.7m/s | -54.9°C | 6.1% | 172.6hPa | 2.6V | 00:00:00 | 02:32:50 | 00:00:00 | |
| OE5REO-15 | 2026-09-01 01:02:18 | 48.26067 | 13.07232 | 94° | 108km/h | 13054m | -4.7m/s | -55.0°C | 3.2% | 172.7hPa | 2.6V | 08:00:00 | 00:00:00 | 00:00:00 | |
| OE5DRO-10 | 2026-09-01 01:02:16 | 48.26072 | 13.07111 | 94° | 106km/h | 13068m | -4.4m/s | -54.8°C | 6.1% | 172.3hPa | 2.6V | 00:00:00 | 00:00:00 | 00:00:00 | |
| OE5DXL-15 | 2026-09-01 01:02:12 | 48.26076 | 13.06955 | 92° | 108km/h | 13086m | -4.8m/s | -54.5°C | 5.9% | 171.8hPa | 2.6V | 00:00:00 | 00:00:00 | 00:00:00 | |
| DG1MFX-10 | 2026-09-01 01:02:11 | 48.26076 | 13.06955 | 93° | 104km/h | 13086m | -4.8m/s | -54.6°C | 3.1% | 171.8hPa | 2.6V | 00:00:00 | 00:00:00 | 00:00:00 | |
| BAUMI2-15 | 2026-09-01 01:02:10 | 48.26076 | 13.06877 | 90° | 106km/h | 13096m | -4.7m/s | -54.4°C | 5.9% | 171.5hPa | 2.6V | 08:00:00 | 02:32:41 | 00:00:00 | |
| OE5MMP-10 | 2026-09-01 01:02:09 | 48.26075 | 13.06837 | 89° | 106km/h | 13101m | -4.5m/s | -54.4°C | 5.8% | 171.4hPa | 2.5V | 00:00:00 | 02:32:40 | 00:00:00 | |
| BAUMI2-15 | 2026-09-01 01:02:05 | 48.26077 | 13.06675 | 91° | 106km/h | 13119m | -4.4m/s | -54.3°C | 5.8% | 170.9hPa | 2.5V | 00:00:00 | 02:32:36 | 00:00:00 | |
| DL6DJ-15 | 2026-09-01 01:02:03 | 48.26077 | 13.06595 | 89° | 106km/h | 13128m | -4.8m/s | -54.2°C | 3.0% | 170.8hPa | 2.5V | 00:00:00 | 00:00:00 | 00:00:00 | |
| OE5REO-15 | 2026-09-01 01:02:02 | 48.26077 | 13.06595 | 91° | 106km/h | 13128m | -4.8m/s | -54.2°C | 3.0% | 170.8hPa | 2.5V | 08:00:00 | 00:00:00 | 00:00:00 | |
| PG1ADW-2 | 2026-09-01 01:02:01 | 48.26077 | 13.06515 | 90° | 110km/h | 13138m | -5.2m/s | -54.1°C | 5.5% | 170.4hPa | 2.5V | 00:00:00 | 02:32:32 | 00:00:00 | |
| BAUMI2-15 | 2026-09-01 01:02:00 | 48.26077 | 13.06475 | 90° | 108km/h | 13143m | -5.0m/s | -54.1°C | 5.5% | 170.3hPa | 2.5V | 00:00:00 | 02:32:31 | 00:00:00 | |
| OE5WHR-10 | 2026-09-01 01:01:59 | 48.26077 | 13.06434 | 91° | 110km/h | 13148m | -5.0m/s | -54.0°C | 5.5% | 170.1hPa | 2.5V | 00:00:00 | 00:00:00 | 00:00:00 | |
| OE5DRO-10 | 2026-09-01 01:01:57 | 48.26077 | 13.06353 | 90° | 111km/h | 13158m | -4.6m/s | -54.0°C | 5.5% | 169.9hPa | 2.5V | 00:00:00 | 00:00:00 | 00:00:00 | |
| OE5FHM-15 | 2026-09-01 01:01:56 | 48.26077 | 13.06312 | 89° | 115km/h | 13163m | -4.5m/s | -54.0°C | 5.5% | 169.7hPa | 2.5V | 00:00:00 | 02:32:27 | 00:00:00 | |
| BAUMI2-15 | 2026-09-01 01:01:55 | 48.26076 | 13.06270 | 90° | 110km/h | 13167m | -4.3m/s | -54.1°C | 5.4% | 169.7hPa | 2.5V | 00:00:00 | 02:32:26 | 00:00:00 | |
| OE5MMP-10 | 2026-09-01 01:01:49 | 48.26074 | 13.06025 | 88° | 111km/h | 13196m | -4.7m/s | -54.3°C | 5.5% | 168.9hPa | 2.5V | 00:00:00 | 02:32:20 | 00:00:00 | |
| OE5REO-15 | 2026-09-01 01:01:46 | 48.26070 | 13.05943 | 86° | 111km/h | 13206m | -5.0m/s | -54.4°C | 2.8% | 168.7hPa | 2.5V | 08:00:00 | 00:00:00 | 00:00:00 | |
| BAUMI2-15 | 2026-09-01 01:01:44 | 48.26067 | 13.05813 | 91° | 113km/h | 13220m | -4.4m/s | -54.5°C | 5.5% | 168.2hPa | 2.5V | 00:00:00 | 02:32:15 | 00:00:00 | |
| DG1MFX-10 | 2026-09-01 01:01:43 | 48.26067 | 13.05813 | 92° | 115km/h | 13220m | -4.5m/s | -54.5°C | 2.8% | 168.3hPa | 2.5V | 00:00:00 | 00:00:00 | 00:00:00 | |
| OE5DXL-15 | 2026-09-01 01:01:42 | 48.26068 | 13.05727 | 91° | 115km/h | 13229m | -4.5m/s | -54.5°C | 5.5% | 168.0hPa | 2.5V | 08:00:00 | 00:00:00 | 00:00:00 | |
| PG1ADW-2 | 2026-09-01 01:01:41 | 48.26068 | 13.05685 | 91° | 117km/h | 13234m | -4.7m/s | -54.6°C | 5.5% | 167.8hPa | 2.6V | 00:00:00 | 00:00:00 | 00:00:00 | |
| OE5HKT-10 | 2026-09-01 01:01:39 | 48.26069 | 13.05599 | 91° | 117km/h | 13243m | -4.7m/s | -54.6°C | 5.5% | 167.7hPa | 2.6V | 00:00:00 | 02:32:10 | 00:00:00 | |
| OE5WHR-10 | 2026-09-01 01:01:38 | 48.26069 | 13.05555 | 92° | 117km/h | 13248m | -4.6m/s | -54.7°C | 5.6% | 167.5hPa | 2.6V | 00:00:00 | 00:00:00 | 00:00:00 | |
| BAUMI2-15 | 2026-09-01 01:01:34 | 48.26067 | 13.05380 | 89° | 110km/h | 13266m | -4.3m/s | -54.8°C | 5.5% | 167.0hPa | 2.6V | 00:00:00 | 02:32:05 | 00:00:00 | |
| OE5MMP-10 | 2026-09-01 01:01:29 | 48.26068 | 13.05149 | 92° | 115km/h | 13290m | -4.7m/s | -55.0°C | 5.6% | 166.4hPa | 2.6V | 00:00:00 | 02:32:00 | 00:00:00 | |
| OE5FHM-15 | 2026-09-01 01:01:26 | 48.26074 | 13.05016 | 94° | 111km/h | 13305m | -4.2m/s | -55.0°C | 5.6% | 166.0hPa | 2.5V | 00:00:00 | 02:31:57 | 00:00:00 | |
| DG1MFX-10 | 2026-09-01 01:01:22 | 48.26075 | 13.04891 | 90° | 111km/h | 13318m | -4.6m/s | -55.1°C | 2.8% | 165.7hPa | 2.5V | 08:01:00 | 00:00:00 | 00:00:00 | |
| PG1ADW-2 | 2026-09-01 01:01:21 | 48.26075 | 13.04805 | 91° | 111km/h | 13328m | -4.6m/s | -55.1°C | 5.7% | 165.4hPa | 2.5V | 00:00:00 | 00:00:00 | 00:00:00 | |
| OE5MMP-10 | 2026-09-01 01:01:19 | 48.26075 | 13.04719 | 90° | 113km/h | 13337m | -4.9m/s | -55.0°C | 5.6% | 165.2hPa | 2.6V | 00:00:00 | 02:31:50 | 00:00:00 | |
| OE5HKT-10 | 2026-09-01 01:01:18 | 48.26075 | 13.04675 | 89° | 111km/h | 13342m | -4.9m/s | -55.0°C | 5.6% | 165.0hPa | 2.6V | 08:01:00 | 00:00:00 | 00:00:00 | |
| OE5WHR-10 | 2026-09-01 01:01:17 | 48.26075 | 13.04631 | 91° | 111km/h | 13347m | -4.8m/s | -55.0°C | 5.6% | 164.9hPa | 2.6V | 00:00:00 | 02:31:48 | 00:00:00 | |
| OE5REO-15 | 2026-09-01 01:01:16 | 48.26075 | 13.04631 | 91° | 119km/h | 13347m | -4.8m/s | -55.0°C | 2.7% | 165.0hPa | 2.6V | 08:01:00 | 00:00:00 | 00:00:00 | |
| OE5DXL-15 | 2026-09-01 01:01:12 | 48.26080 | 13.04415 | 92° | 110km/h | 13371m | -4.8m/s | -54.6°C | 5.4% | 164.3hPa | 2.6V | 00:00:00 | 00:00:00 | 00:00:00 | |
| OE5MMP-10 | 2026-09-01 01:01:09 | 48.26083 | 13.04289 | 92° | 110km/h | 13386m | -4.9m/s | -54.5°C | 5.4% | 163.9hPa | 2.6V | 00:00:00 | 02:31:40 | 00:00:00 | |
| PG1ADW-2 | 2026-09-01 01:01:01 | 48.26089 | 13.03958 | 92° | 108km/h | 13424m | -5.0m/s | -54.3°C | 5.3% | 163.0hPa | 2.6V | 00:00:00 | 00:00:00 | 00:00:00 | |
| OE5DRO-10 | 2026-09-01 01:01:00 | 48.26090 | 13.03917 | 91° | 108km/h | 13429m | -5.0m/s | -54.2°C | 5.3% | 162.8hPa | 2.6V | 00:00:00 | 00:00:00 | 00:00:00 | |
| OE5MMP-10 | 2026-09-01 01:00:59 | 48.26090 | 13.03875 | 91° | 110km/h | 13435m | -5.2m/s | -54.1°C | 5.3% | 162.7hPa | 2.6V | 08:01:00 | 02:31:30 | 00:00:00 | |
| OE5HKT-10 | 2026-09-01 01:00:57 | 48.26092 | 13.03791 | 94° | 106km/h | 13444m | -4.8m/s | -54.1°C | 5.3% | 162.5hPa | 2.5V | 00:00:00 | 00:00:00 | 00:00:00 | |
| OE5WHR-10 | 2026-09-01 01:00:56 | 48.26094 | 13.03749 | 95° | 106km/h | 13449m | -4.6m/s | -54.1°C | 5.3% | 162.3hPa | 2.5V | 00:00:00 | 00:00:00 | 00:00:00 | |
| OE3JTB-15 | 2026-09-01 01:00:53 | 48.26099 | 13.03627 | 93° | 104km/h | 13463m | -4.9m/s | -53.9°C | 5.2% | 161.9hPa | 2.6V | 00:00:00 | 00:00:00 | 00:00:00 | |
| OE5MMP-10 | 2026-09-01 01:00:49 | 48.26104 | 13.03463 | 91° | 106km/h | 13483m | -4.8m/s | -53.8°C | 5.2% | 161.4hPa | 2.5V | 00:00:00 | 02:31:20 | 00:00:00 | |
| OE5REO-15 | 2026-09-01 01:00:45 | 48.26104 | 13.03340 | 92° | 106km/h | 13497m | -4.7m/s | -53.9°C | 2.5% | 161.1hPa | 2.5V | 08:02:00 | 00:00:00 | 00:00:00 | |
| OE5DXL-15 | 2026-09-01 01:00:42 | 48.26106 | 13.03144 | 92° | 99km/h | 13523m | -5.4m/s | -54.0°C | 5.3% | 160.4hPa | 2.5V | 00:00:00 | 00:00:00 | 00:00:00 | |
| OE5DRO-10 | 2026-09-01 01:00:41 | 48.26106 | 13.03144 | 92° | 100km/h | 13523m | -5.4m/s | -54.0°C | 5.3% | 160.4hPa | 2.5V | 00:00:00 | 00:00:00 | 00:00:00 | |
| DG1MFX-10 | 2026-09-01 01:00:40 | 48.26106 | 13.03144 | 92° | 102km/h | 13523m | -5.4m/s | -54.0°C | 2.6% | 160.5hPa | 2.5V | 00:00:00 | 00:00:00 | 00:00:00 | |
| OE5MMP-10 | 2026-09-01 01:00:39 | 48.26108 | 13.03065 | 94° | 100km/h | 13533m | -5.1m/s | -54.1°C | 5.3% | 160.2hPa | 2.5V | 00:00:00 | 02:31:10 | 00:00:00 | |
| OE5HKT-10 | 2026-09-01 01:00:36 | 48.26115 | 13.02948 | 96° | 99km/h | 13549m | -4.7m/s | -54.0°C | 5.3% | 159.8hPa | 2.5V | 00:00:00 | 02:31:07 | 00:00:00 | |
| OE5WHR-10 | 2026-09-01 01:00:35 | 48.26118 | 13.02908 | 98° | 99km/h | 13554m | -4.9m/s | -54.0°C | 5.2% | 159.7hPa | 2.5V | 00:00:00 | 00:00:00 | 00:00:00 | |
| DL6DJ-15 | 2026-09-01 01:00:30 | 48.26129 | 13.02726 | 91° | 95km/h | 13577m | -4.5m/s | -54.1°C | 2.5% | 159.1hPa | 2.5V | 00:00:00 | 00:00:00 | 00:00:00 | |
| OE5MMP-10 | 2026-09-01 01:00:29 | 48.26130 | 13.02689 | 93° | 99km/h | 13582m | -4.7m/s | -54.1°C | 5.1% | 159.0hPa | 2.5V | 00:00:00 | 02:31:00 | 00:00:00 | |
| OE5FHM-15 | 2026-09-01 01:00:26 | 48.26132 | 13.02578 | 92° | 99km/h | 13597m | -5.0m/s | -53.7°C | 4.9% | 158.6hPa | 2.5V | 00:00:00 | 02:30:57 | 00:00:00 | |
| OE5DRO-10 | 2026-09-01 01:00:22 | 48.26138 | 13.02430 | 94° | 99km/h | 13617m | -5.2m/s | -53.5°C | 4.8% | 158.1hPa | 2.5V | 00:00:00 | 00:00:00 | 00:00:00 | |
| PG1ADW-2 | 2026-09-01 01:00:21 | 48.26140 | 13.02392 | 95° | 99km/h | 13622m | -5.1m/s | -53.5°C | 4.8% | 158.0hPa | 2.5V | 00:00:00 | 00:00:00 | 00:00:00 | |
| OE5MMP-10 | 2026-09-01 01:00:19 | 48.26144 | 13.02319 | 95° | 99km/h | 13632m | -5.0m/s | -53.5°C | 4.8% | 157.7hPa | 2.5V | 00:00:00 | 02:30:50 | 00:00:00 | |
| DG1MFX-10 | 2026-09-01 01:00:18 | 48.26144 | 13.02319 | 95° | 99km/h | 13632m | -5.0m/s | -53.6°C | 2.2% | 157.8hPa | 2.5V | 00:00:00 | 00:00:00 | 00:00:00 | |
| OE5HKT-10 | 2026-09-01 01:00:15 | 48.26150 | 13.02169 | 92° | 97km/h | 13653m | -5.0m/s | -53.5°C | 4.7% | 157.3hPa | 2.5V | 00:00:00 | 00:00:00 | 00:00:00 | |
| OE5WHR-10 | 2026-09-01 01:00:14 | 48.26151 | 13.02131 | 93° | 97km/h | 13658m | -5.2m/s | -53.4°C | 4.7% | 157.1hPa | 2.6V | 00:00:00 | 02:30:45 | 00:00:00 | |
| OE5DXL-15 | 2026-09-01 01:00:12 | 48.26153 | 13.02056 | 92° | 95km/h | 13669m | -5.4m/s | -53.4°C | 4.7% | 156.9hPa | 2.6V | 00:00:00 | 00:00:00 | 00:00:00 | |
| OE5MMP-10 | 2026-09-01 01:00:09 | 48.26156 | 13.01943 | 93° | 97km/h | 13685m | -5.5m/s | -53.5°C | 4.6% | 156.5hPa | 2.5V | 00:00:00 | 02:30:40 | 00:00:00 | |
| PG1ADW-2 | 2026-09-01 01:00:01 | 48.26168 | 13.01648 | 93° | 93km/h | 13726m | -4.9m/s | -53.6°C | 4.7% | 155.5hPa | 2.5V | 00:00:00 | 00:00:00 | 00:00:00 | |
| OE5MMP-10 | 2026-09-01 00:59:59 | 48.26170 | 13.01576 | 94° | 93km/h | 13735m | -4.4m/s | -53.6°C | 4.6% | 155.3hPa | 2.5V | 00:00:00 | 02:30:30 | 00:00:00 | |
| DG1MFX-10 | 2026-09-01 00:59:58 | 48.26170 | 13.01576 | 94° | 95km/h | 13735m | -4.5m/s | -53.6°C | 2.1% | 155.3hPa | 2.5V | 00:00:00 | 00:00:00 | 00:00:00 | |
| OE5FHM-15 | 2026-09-01 00:59:56 | 48.26176 | 13.01471 | 95° | 95km/h | 13749m | -4.8m/s | -53.6°C | 4.7% | 154.9hPa | 2.5V | 00:00:00 | 02:30:27 | 00:00:00 | |
| OE5HKT-10 | 2026-09-01 00:59:54 | 48.26179 | 13.01402 | 93° | 95km/h | 13759m | -4.5m/s | -53.6°C | 4.7% | 154.7hPa | 2.5V | 00:00:00 | 00:00:00 | 00:00:00 | |
| OE5WHR-10 | 2026-09-01 00:59:53 | 48.26180 | 13.01367 | 94° | 95km/h | 13763m | -4.5m/s | -53.6°C | 4.7% | 154.6hPa | 2.5V | 08:02:00 | 00:00:00 | 00:00:00 | |
| OE5MMP-10 | 2026-09-01 00:59:49 | 48.26186 | 13.01225 | 93° | 95km/h | 13782m | -5.0m/s | -53.6°C | 4.6% | 154.1hPa | 2.6V | 00:00:00 | 02:30:20 | 00:00:00 | |
| OE5DRO-10 | 2026-09-01 00:59:44 | 48.26190 | 13.01048 | 92° | 95km/h | 13809m | -5.4m/s | -53.7°C | 4.5% | 153.4hPa | 2.6V | 08:02:00 | 00:00:00 | 00:00:00 | |
| OE5DXL-15 | 2026-09-01 00:59:42 | 48.26191 | 13.00976 | 90° | 97km/h | 13820m | -5.1m/s | -53.7°C | 4.5% | 153.2hPa | 2.5V | 00:00:00 | 00:00:00 | 00:00:00 | |
| PG1ADW-2 | 2026-09-01 00:59:41 | 48.26191 | 13.00940 | 91° | 95km/h | 13825m | -5.5m/s | -53.7°C | 4.5% | 153.1hPa | 2.5V | 00:00:00 | 00:00:00 | 00:00:00 | |
| OE5MMP-10 | 2026-09-01 00:59:39 | 48.26191 | 13.00867 | 91° | 95km/h | 13835m | -5.2m/s | -53.8°C | 4.5% | 152.8hPa | 2.5V | 00:00:00 | 02:30:10 | 00:00:00 | |
| OE5HKT-10 | 2026-09-01 00:59:33 | 48.26195 | 13.00652 | 91° | 97km/h | 13867m | -5.0m/s | -53.7°C | 4.5% | 152.1hPa | 2.5V | 00:00:00 | 02:30:04 | 00:00:00 | |
| OE5WHR-10 | 2026-09-01 00:59:32 | 48.26195 | 13.00618 | 89° | 97km/h | 13872m | -4.8m/s | -53.7°C | 4.5% | 152.0hPa | 2.5V | 00:00:00 | 00:00:00 | 00:00:00 | |
| OE5MMP-10 | 2026-09-01 00:59:29 | 48.26190 | 13.00511 | 87° | 97km/h | 13886m | -4.7m/s | -53.8°C | 4.4% | 151.6hPa | 2.5V | 08:03:00 | 02:30:00 | 00:00:00 | |
| DL6DJ-15 | 2026-09-01 00:59:28 | 48.26189 | 13.00474 | 87° | 97km/h | 13891m | -4.9m/s | -53.9°C | 1.8% | 151.6hPa | 2.6V | 00:00:00 | 00:00:00 | 00:00:00 | |
| OE5FHM-15 | 2026-09-01 00:59:26 | 48.26186 | 13.00401 | 86° | 97km/h | 13902m | -5.2m/s | -53.9°C | 4.4% | 151.3hPa | 2.6V | 08:03:00 | 02:29:57 | 00:00:00 | |
| BAUMI2-15 | 2026-09-01 00:59:25 | 48.26184 | 13.00365 | 86° | 97km/h | 13907m | -5.3m/s | -53.9°C | 4.5% | 151.1hPa | 2.6V | 00:00:00 | 02:29:56 | 00:00:00 | |
| DG1MFX-10 | 2026-09-01 00:59:24 | 48.26184 | 13.00365 | 87° | 99km/h | 13907m | -5.3m/s | -53.9°C | 1.9% | 151.2hPa | 2.6V | 08:03:00 | 00:00:00 | 00:00:00 | |
| PG1ADW-2 | 2026-09-01 00:59:21 | 48.26177 | 13.00219 | 86° | 99km/h | 13928m | -5.1m/s | -53.9°C | 4.5% | 150.6hPa | 2.6V | 08:03:00 | 02:29:52 | 00:00:00 | |
| BAUMI2-15 | 2026-09-01 00:59:20 | 48.26175 | 13.00182 | 87° | 97km/h | 13933m | -5.3m/s | -53.8°C | 4.5% | 150.5hPa | 2.6V | 08:03:00 | 02:29:51 | 00:00:00 | |
| OE5MMP-10 | 2026-09-01 00:59:19 | 48.26173 | 13.00146 | 85° | 99km/h | 13938m | -5.3m/s | -53.8°C | 4.4% | 150.4hPa | 2.5V | 00:00:00 | 02:29:50 | 00:00:00 | |
| BAUMI2-15 | 2026-09-01 00:59:15 | 48.26165 | 12.99999 | 85° | 99km/h | 13960m | -5.6m/s | -53.8°C | 4.4% | 149.9hPa | 2.5V | 00:00:00 | 02:29:46 | 00:00:00 | |
| OE5HKT-10 | 2026-09-01 00:59:12 | 48.26159 | 12.99887 | 85° | 97km/h | 13977m | -5.4m/s | -53.9°C | 4.4% | 149.5hPa | 2.5V | 00:00:00 | 00:00:00 | 00:00:00 | |
| OE5WHR-10 | 2026-09-01 00:59:11 | 48.26156 | 12.99849 | 86° | 97km/h | 13983m | -5.5m/s | -54.0°C | 4.5% | 149.4hPa | 2.5V | 00:00:00 | 02:29:42 | 00:00:00 | |
| BAUMI2-15 | 2026-09-01 00:59:10 | 48.26155 | 12.99812 | 86° | 99km/h | 13988m | -5.8m/s | -54.0°C | 4.5% | 149.2hPa | 2.5V | 00:00:00 | 02:29:41 | 00:00:00 | |
| OE5MMP-10 | 2026-09-01 00:59:09 | 48.26153 | 12.99774 | 85° | 97km/h | 13994m | -5.7m/s | -54.0°C | 4.4% | 149.1hPa | 2.5V | 00:00:00 | 02:29:40 | 00:00:00 | |
| OE5DRO-10 | 2026-09-01 00:59:06 | 48.26147 | 12.99662 | 86° | 97km/h | 14011m | -5.7m/s | -54.0°C | 4.4% | 148.7hPa | 2.5V | 00:00:00 | 00:00:00 | 00:00:00 | |
| BAUMI2-15 | 2026-09-01 00:59:05 | 48.26145 | 12.99625 | 87° | 97km/h | 14017m | -5.7m/s | -54.0°C | 4.4% | 148.6hPa | 2.5V | 00:00:00 | 02:29:36 | 00:00:00 | |
| DH7VM-15 | 2026-09-01 00:59:03 | 48.26142 | 12.99552 | 87° | 95km/h | 14028m | -5.8m/s | -54.1°C | 0% | 0hPa | 2.5V | 00:00:00 | 00:00:00 | 00:00:00 | |
| DL6DJ-15 | 2026-09-01 00:58:57 | 48.26124 | 12.98901 | 88° | 95km/h | 14131m | -5.8m/s | -53.9°C | 1.8% | 146.0hPa | 2.5V | 00:00:00 | 00:00:00 | 00:00:00 | |
| OE5FHM-15 | 2026-09-01 00:58:56 | 48.26132 | 12.99298 | 88° | 99km/h | 14069m | -5.4m/s | -53.9°C | 4.4% | 147.4hPa | 2.5V | 00:00:00 | 02:29:27 | 00:00:00 | |
| BAUMI2-15 | 2026-09-01 00:58:54 | 48.26131 | 12.99225 | 89° | 95km/h | 14079m | -5.5m/s | -53.8°C | 4.4% | 147.2hPa | 2.5V | 00:00:00 | 02:29:25 | 00:00:00 | |
| OE5HKT-10 | 2026-09-01 00:58:51 | 48.26129 | 12.99116 | 90° | 97km/h | 14096m | -5.5m/s | -53.8°C | 4.3% | 146.8hPa | 2.5V | 00:00:00 | 00:00:00 | 00:00:00 | |
| OE5WHR-10 | 2026-09-01 00:58:50 | 48.26128 | 12.99080 | 88° | 97km/h | 14102m | -5.7m/s | -53.8°C | 4.3% | 146.6hPa | 2.5V | 00:00:00 | 00:00:00 | 00:00:00 | |
| BAUMI2-15 | 2026-09-01 00:58:49 | 48.26127 | 12.99045 | 88° | 95km/h | 14107m | -6.0m/s | -53.8°C | 4.3% | 146.5hPa | 2.5V | 00:00:00 | 02:29:20 | 00:00:00 | |
| DO3MHA-11 | 2026-09-01 00:58:47 | 48.26126 | 12.98973 | 88° | 97km/h | 14119m | -5.9m/s | -53.9°C | 4.4% | 146.3hPa | 2.5V | 00:00:00 | 02:29:18 | 00:00:00 | |
| BAUMI2-15 | 2026-09-01 00:58:44 | 48.26123 | 12.98864 | 88° | 97km/h | 14137m | -5.8m/s | -53.9°C | 4.4% | 145.9hPa | 2.5V | 00:00:00 | 02:29:15 | 00:00:00 | |
| DG1MFX-10 | 2026-09-01 00:58:43 | 48.26122 | 12.98828 | 88° | 97km/h | 14142m | -5.9m/s | -53.9°C | 1.8% | 145.7hPa | 2.5V | 08:04:00 | 00:00:00 | 00:00:00 | |
| OE5DXL-15 | 2026-09-01 00:58:42 | 48.26121 | 12.98792 | 89° | 99km/h | 14148m | -5.5m/s | -53.8°C | 4.3% | 145.6hPa | 2.5V | 00:00:00 | 00:00:00 | 00:00:00 | |
| PG1ADW-2 | 2026-09-01 00:58:41 | 48.26121 | 12.98755 | 88° | 99km/h | 14154m | -5.4m/s | -53.7°C | 4.3% | 145.4hPa | 2.6V | 00:00:00 | 00:00:00 | 00:00:00 | |
| DF3TZ-5 | 2026-09-01 00:58:40 | 48.26120 | 12.98718 | 86° | 97km/h | 14159m | -5.5m/s | 0°C | -1.0% | -1.0hPa | 2.6V | 00:00:00 | 00:00:00 | 00:00:00 | |
| BAUMI2-15 | 2026-09-01 00:58:39 | 48.26118 | 12.98681 | 88° | 99km/h | 14165m | -5.3m/s | -53.8°C | 4.3% | 145.2hPa | 2.6V | 00:00:00 | 02:29:10 | 00:00:00 | |
| DO3MHA-11 | 2026-09-01 00:58:37 | 48.26116 | 12.98606 | 87° | 100km/h | 14176m | -5.3m/s | -53.8°C | 4.3% | 144.9hPa | 2.6V | 00:00:00 | 02:29:08 | 00:00:00 | |
| BAUMI2-15 | 2026-09-01 00:58:34 | 48.26112 | 12.98493 | 87° | 100km/h | 14192m | -5.4m/s | -53.8°C | 4.3% | 144.5hPa | 2.6V | 08:03:00 | 02:29:05 | 00:00:00 | |
| OE5HKT-10 | 2026-09-01 00:58:30 | 48.26105 | 12.98343 | 85° | 97km/h | 14215m | -5.9m/s | -54.0°C | 4.4% | 144.1hPa | 2.5V | 00:00:00 | 02:29:01 | 00:00:00 | |
| OE5DRO-10 | 2026-09-01 00:58:28 | 48.26101 | 12.98267 | 86° | 97km/h | 14227m | -5.5m/s | -54.1°C | 4.4% | 143.8hPa | 2.5V | 00:00:00 | 00:00:00 | 00:00:00 | |
| DL6DJ-15 | 2026-09-01 00:58:26 | 48.26097 | 12.98191 | 86° | 100km/h | 14238m | -5.5m/s | -54.2°C | 1.8% | 143.6hPa | 2.5V | 00:00:00 | 00:00:00 | 00:00:00 | |
| DO3MHA-11 | 2026-09-01 00:58:24 | 48.26093 | 12.98116 | 86° | 99km/h | 14249m | -5.7m/s | -54.3°C | 4.4% | 143.3hPa | 2.5V | 00:00:00 | 02:28:55 | 00:00:00 | |
| OE5FHM-15 | 2026-09-01 00:58:22 | 48.26090 | 12.98041 | 87° | 89km/h | 14261m | -5.6m/s | -54.4°C | 4.5% | 143.0hPa | 2.6V | 00:00:00 | 02:28:53 | 00:00:00 | |
| PG1ADW-2 | 2026-09-01 00:58:21 | 48.26088 | 12.98003 | 86° | 95km/h | 14266m | -5.8m/s | -54.4°C | 4.5% | 142.9hPa | 2.6V | 00:00:00 | 00:00:00 | 00:00:00 | |
| BAUMI2-15 | 2026-09-01 00:58:19 | 48.26084 | 12.97929 | 87° | 97km/h | 14278m | -5.8m/s | -54.3°C | 4.5% | 142.6hPa | 2.5V | 00:00:00 | 02:28:50 | 00:00:00 | |
| BAUMI2-15 | 2026-09-01 00:58:14 | 48.26077 | 12.97748 | 86° | 95km/h | 14307m | -5.6m/s | -54.2°C | 4.5% | 142.0hPa | 2.5V | 00:00:00 | 02:28:45 | 00:00:00 | |
| DB0UT-7 | 2026-09-01 00:58:12 | 48.26074 | 12.97677 | 87° | 89km/h | 14318m | -5.6m/s | -54.3°C | 4.5% | 141.8hPa | 2.5V | 00:00:00 | 00:00:00 | 00:00:00 | |
| OE5MMP-10 | 2026-09-01 00:58:09 | 48.26069 | 12.97570 | 87° | 93km/h | 14335m | -5.5m/s | -54.4°C | 4.6% | 141.4hPa | 2.5V | 00:00:00 | 02:28:40 | 00:00:00 | |
| OE5WHR-10 | 2026-09-01 00:58:08 | 48.26068 | 12.97535 | 86° | 89km/h | 14341m | -5.5m/s | -54.4°C | 4.6% | 141.2hPa | 2.5V | 00:00:00 | 02:28:39 | 00:00:00 | |
| OE5HKT-10 | 2026-09-01 00:58:07 | 48.26066 | 12.97499 | 87° | 89km/h | 14346m | -5.4m/s | -54.5°C | 4.6% | 141.2hPa | 2.5V | 08:04:00 | 00:00:00 | 00:00:00 | |
| DO3MHA-11 | 2026-09-01 00:58:04 | 48.26063 | 12.97393 | 87° | 89km/h | 14362m | -5.6m/s | -54.6°C | 4.7% | 140.8hPa | 2.5V | 00:00:00 | 02:28:35 | 00:00:00 | |
| OE5REO-15 | 2026-09-01 00:58:03 | 48.26063 | 12.97393 | 88° | 93km/h | 14362m | -5.7m/s | -54.6°C | 1.9% | 140.9hPa | 2.5V | 08:05:00 | 00:00:00 | 00:00:00 | |
| PG1ADW-2 | 2026-09-01 00:58:01 | 48.26060 | 12.97290 | 88° | 88km/h | 14380m | -5.9m/s | -54.6°C | 4.7% | 140.4hPa | 2.5V | 00:00:00 | 02:28:32 | 00:00:00 | |
| BAUMI2-15 | 2026-09-01 00:57:59 | 48.26059 | 12.97222 | 89° | 89km/h | 14392m | -6.0m/s | -54.5°C | 4.7% | 140.2hPa | 2.5V | 00:00:00 | 02:28:30 | 00:00:00 | |
| BAUMI2-15 | 2026-09-01 00:57:54 | 48.26058 | 12.97054 | 91° | 88km/h | 14421m | -5.6m/s | -54.3°C | 4.6% | 139.5hPa | 2.5V | 00:00:00 | 02:28:25 | 00:00:00 | |
| DO3MHA-11 | 2026-09-01 00:57:51 | 48.26057 | 12.96954 | 90° | 88km/h | 14438m | -5.7m/s | -54.3°C | 4.6% | 139.1hPa | 2.5V | 00:00:00 | 02:28:22 | 00:00:00 | |
| OE5DRO-10 | 2026-09-01 00:57:50 | 48.26057 | 12.96921 | 90° | 88km/h | 14444m | -6.1m/s | -54.2°C | 4.6% | 139.0hPa | 2.5V | 00:00:00 | 00:00:00 | 00:00:00 | |
| OE5MMP-10 | 2026-09-01 00:57:49 | 48.26056 | 12.96888 | 88° | 88km/h | 14450m | -5.8m/s | -54.2°C | 4.5% | 138.8hPa | 2.6V | 00:00:00 | 02:28:20 | 00:00:00 | |
| OE5WHR-10 | 2026-09-01 00:57:47 | 48.26055 | 12.96821 | 90° | 88km/h | 14462m | -6.1m/s | -54.1°C | 4.5% | 138.6hPa | 2.6V | 00:00:00 | 00:00:00 | 00:00:00 | |
| OE5HKT-10 | 2026-09-01 00:57:45 | 48.26054 | 12.96755 | 90° | 89km/h | 14474m | -6.1m/s | -54.0°C | 4.5% | 138.3hPa | 2.6V | 00:00:00 | 00:00:00 | 00:00:00 | |
| BAUMI2-15 | 2026-09-01 00:57:44 | 48.26054 | 12.96722 | 90° | 88km/h | 14480m | -5.9m/s | -54.1°C | 4.5% | 138.2hPa | 2.6V | 00:00:00 | 02:28:15 | 00:00:00 | |
| OE5DXL-15 | 2026-09-01 00:57:42 | 48.26053 | 12.96656 | 90° | 89km/h | 14492m | -5.9m/s | -54.1°C | 4.5% | 137.9hPa | 2.6V | 00:00:00 | 00:00:00 | 00:00:00 | |
| DO3MHA-11 | 2026-09-01 00:57:41 | 48.26053 | 12.96623 | 90° | 86km/h | 14498m | -5.7m/s | -54.1°C | 4.4% | 137.8hPa | 2.6V | 00:00:00 | 02:28:12 | 00:00:00 | |
| DG1MFX-10 | 2026-09-01 00:57:40 | 48.26053 | 12.96623 | 91° | 86km/h | 14498m | -5.8m/s | -54.1°C | 1.8% | 137.8hPa | 2.6V | 08:05:00 | 00:00:00 | 00:00:00 | |
| BAUMI2-15 | 2026-09-01 00:57:39 | 48.26052 | 12.96558 | 88° | 88km/h | 14509m | -6.1m/s | -54.1°C | 4.4% | 137.5hPa | 2.6V | 00:00:00 | 02:28:10 | 00:00:00 | |
| OE5FHM-15 | 2026-09-01 00:57:36 | 48.26050 | 12.96457 | 88° | 89km/h | 14528m | -6.2m/s | -54.3°C | 4.5% | 137.1hPa | 2.6V | 00:00:00 | 02:28:07 | 00:00:00 | |
| BAUMI2-15 | 2026-09-01 00:57:34 | 48.26048 | 12.96390 | 88° | 86km/h | 14540m | -5.9m/s | -54.4°C | 4.5% | 136.9hPa | 2.5V | 00:00:00 | 02:28:05 | 00:00:00 | |
| OE5DRO-10 | 2026-09-01 00:57:31 | 48.26046 | 12.96289 | 88° | 89km/h | 14558m | -6.1m/s | -54.4°C | 4.5% | 136.5hPa | 2.6V | 00:00:00 | 00:00:00 | 00:00:00 | |
| OE5MMP-10 | 2026-09-01 00:57:29 | 48.26044 | 12.96221 | 89° | 91km/h | 14570m | -5.8m/s | -54.4°C | 4.5% | 136.3hPa | 2.6V | 00:00:00 | 02:28:00 | 00:00:00 | |
| DH7VM-15 | 2026-09-01 00:57:28 | 48.26044 | 12.96221 | 89° | 89km/h | 14570m | -5.8m/s | -54.5°C | 0% | 0hPa | 2.5V | 00:00:00 | 00:00:00 | 00:00:00 | |
| OE5WHR-10 | 2026-09-01 00:57:26 | 48.26040 | 12.96119 | 87° | 89km/h | 14587m | -6.0m/s | -54.5°C | 4.5% | 135.9hPa | 2.5V | 00:00:00 | 00:00:00 | 00:00:00 | |
| OE5HKT-10 | 2026-09-01 00:57:24 | 48.26036 | 12.96051 | 85° | 89km/h | 14599m | -5.9m/s | -54.6°C | 4.5% | 135.6hPa | 2.5V | 00:00:00 | 02:27:55 | 00:00:00 | |
| PG1ADW-2 | 2026-09-01 00:57:21 | 48.26030 | 12.95948 | 84° | 89km/h | 14617m | -6.4m/s | -54.6°C | 4.5% | 135.3hPa | 2.5V | 00:00:00 | 00:00:00 | 00:00:00 | |
| OE5MMP-10 | 2026-09-01 00:57:19 | 48.26025 | 12.95880 | 84° | 89km/h | 14630m | -6.2m/s | -54.6°C | 4.5% | 135.0hPa | 2.6V | 00:00:00 | 02:27:50 | 00:00:00 | |
| OE5REO-15 | 2026-09-01 00:57:15 | 48.26017 | 12.95777 | 85° | 89km/h | 14648m | -6.3m/s | -54.7°C | 1.8% | 134.6hPa | 2.6V | 08:06:00 | 00:00:00 | 00:00:00 | |
| OE5DRO-10 | 2026-09-01 00:57:12 | 48.26010 | 12.95643 | 86° | 88km/h | 14671m | -5.7m/s | -54.6°C | 4.5% | 134.1hPa | 2.6V | 00:00:00 | 00:00:00 | 00:00:00 | |
| OE5DXL-15 | 2026-09-01 00:57:11 | 48.26008 | 12.95609 | 87° | 84km/h | 14677m | -5.5m/s | -54.7°C | 4.5% | 134.0hPa | 2.6V | 08:05:00 | 00:00:00 | 00:00:00 | |
| OE5MMP-10 | 2026-09-01 00:57:09 | 48.26006 | 12.95542 | 88° | 88km/h | 14688m | -5.6m/s | -54.7°C | 4.5% | 133.7hPa | 2.5V | 00:00:00 | 02:27:40 | 00:00:00 | |
| OE5FHM-15 | 2026-09-01 00:57:06 | 48.26005 | 12.95442 | 90° | 82km/h | 14705m | -6.1m/s | -54.7°C | 4.4% | 133.4hPa | 2.5V | 00:00:00 | 02:27:37 | 00:00:00 | |
| OE5WHR-10 | 2026-09-01 00:57:05 | 48.26004 | 12.95410 | 88° | 84km/h | 14711m | -6.2m/s | -54.7°C | 4.4% | 133.3hPa | 2.5V | 00:00:00 | 02:27:36 | 00:00:00 | |
| OE5HKT-10 | 2026-09-01 00:57:03 | 48.26004 | 12.95343 | 90° | 82km/h | 14724m | -6.1m/s | -54.7°C | 4.4% | 133.0hPa | 2.5V | 00:00:00 | 00:00:00 | 00:00:00 | |
| DF7PN | 2026-09-01 00:56:59 | 48.26008 | 12.95145 | 94° | 84km/h | 14760m | -6.3m/s | -54.8°C | -1.0% | 132.3hPa | 2.5V | 00:00:00 | 00:00:00 | 00:00:00 | |
| DL6DJ-15 | 2026-09-01 00:56:53 | 48.26014 | 12.94987 | 91° | 82km/h | 14791m | -6.2m/s | -54.9°C | 1.7% | 131.7hPa | 2.5V | 00:00:00 | 00:00:00 | 00:00:00 | |
| OE5MMP-10 | 2026-09-01 00:56:49 | 48.26014 | 12.94893 | 91° | 77km/h | 14810m | -6.3m/s | -55.0°C | 4.5% | 131.2hPa | 2.5V | 00:00:00 | 02:27:20 | 00:00:00 | |
| OE5WHR-10 | 2026-09-01 00:56:44 | 48.26016 | 12.94745 | 91° | 75km/h | 14841m | -6.1m/s | -54.8°C | 4.4% | 130.6hPa | 2.5V | 08:05:00 | 00:00:00 | 00:00:00 | |
| PG1ADW-2 | 2026-09-01 00:56:41 | 48.26018 | 12.94660 | 91° | 73km/h | 14859m | -6.1m/s | -54.7°C | 4.3% | 130.2hPa | 2.5V | 00:00:00 | 02:27:12 | 00:00:00 | |
| OE5FHM-15 | 2026-09-01 00:56:36 | 48.26018 | 12.94522 | 91° | 75km/h | 14891m | -6.7m/s | -54.4°C | 4.3% | 129.6hPa | 2.5V | 00:00:00 | 02:27:07 | 00:00:00 | |
| OE5DRO-10 | 2026-09-01 00:56:34 | 48.26018 | 12.94467 | 90° | 75km/h | 14904m | -6.7m/s | -54.3°C | 4.2% | 129.3hPa | 2.5V | 00:00:00 | 00:00:00 | 00:00:00 | |
| OE5MMP-10 | 2026-09-01 00:56:29 | 48.26020 | 12.94323 | 92° | 73km/h | 14936m | -6.1m/s | -54.2°C | 4.2% | 128.7hPa | 2.5V | 08:06:00 | 02:27:00 | 00:00:00 | |
| DF7PN | 2026-09-01 00:56:28 | 48.26021 | 12.94267 | 92° | 73km/h | 14949m | -6.1m/s | 0°C | -1.0% | 128.4hPa | 2.5V | 00:00:00 | 00:00:00 | 00:00:00 | |
| OE5WHR-10 | 2026-09-01 00:56:23 | 48.26023 | 12.94158 | 90° | 75km/h | 14975m | -6.6m/s | -54.1°C | 4.1% | 127.9hPa | 2.5V | 00:00:00 | 00:00:00 | 00:00:00 | |
| OE5HKT-10 | 2026-09-01 00:56:21 | 48.26022 | 12.94103 | 91° | 75km/h | 14989m | -6.7m/s | -54.2°C | 4.2% | 127.6hPa | 2.5V | 00:00:00 | 02:26:52 | 00:00:00 | |
| OE5MMP-10 | 2026-09-01 00:56:19 | 48.26023 | 12.94047 | 91° | 75km/h | 15002m | -6.5m/s | -54.3°C | 4.2% | 127.3hPa | 2.5V | 00:00:00 | 02:26:50 | 00:00:00 | |
| DG1MFX-10 | 2026-09-01 00:56:18 | 48.26023 | 12.94047 | 92° | 75km/h | 15002m | -6.6m/s | -54.4°C | 1.6% | 127.4hPa | 2.5V | 08:06:00 | 00:00:00 | 00:00:00 | |
| OE5DRO-10 | 2026-09-01 00:56:15 | 48.26026 | 12.93933 | 95° | 77km/h | 15028m | -6.4m/s | -54.2°C | 4.2% | 126.8hPa | 2.5V | 00:00:00 | 00:00:00 | 00:00:00 | |
| OE5REO-15 | 2026-09-01 00:56:13 | 48.26028 | 12.93905 | 94° | 75km/h | 15034m | -6.9m/s | -54.3°C | 1.5% | 126.7hPa | 2.5V | 08:06:00 | 00:00:00 | 00:00:00 | |
| OE5DXL-15 | 2026-09-01 00:56:12 | 48.26030 | 12.93848 | 94° | 77km/h | 15048m | -6.7m/s | -54.2°C | 4.2% | 126.4hPa | 2.5V | 00:00:00 | 00:00:00 | 00:00:00 | |
| OE5MMP-10 | 2026-09-01 00:56:09 | 48.26031 | 12.93764 | 92° | 77km/h | 15068m | -6.9m/s | -54.3°C | 4.1% | 126.0hPa | 2.5V | 00:00:00 | 02:26:40 | 00:00:00 | |
| OE5FHM-15 | 2026-09-01 00:56:06 | 48.26031 | 12.93680 | 90° | 78km/h | 15089m | -7.3m/s | -54.4°C | 4.1% | 125.6hPa | 2.5V | 00:00:00 | 02:26:37 | 00:00:00 | |
| DF7PN | 2026-09-01 00:55:57 | 48.26028 | 12.93387 | 88° | 77km/h | 15158m | -7.2m/s | 0°C | -1.0% | -1.0hPa | 2.5V | 00:00:00 | 00:00:00 | 00:00:00 | |
| DL6DJ-15 | 2026-09-01 00:55:51 | 48.26026 | 12.93211 | 88° | 78km/h | 15199m | -6.8m/s | -54.7°C | 1.5% | 123.5hPa | 2.5V | 00:00:00 | 00:00:00 | 00:00:00 | |
| OE5MMP-10 | 2026-09-01 00:55:49 | 48.26025 | 12.93181 | 90° | 80km/h | 15206m | -7.3m/s | -54.7°C | 4.2% | 123.4hPa | 2.5V | 00:00:00 | 02:26:20 | 00:00:00 | |
| OE5REO-15 | 2026-09-01 00:55:43 | 48.26024 | 12.93031 | 91° | 80km/h | 15241m | -6.9m/s | -54.8°C | 1.5% | 122.7hPa | 2.5V | 08:06:00 | 00:00:00 | 00:00:00 | |
| OE5DXL-15 | 2026-09-01 00:55:42 | 48.26024 | 12.92971 | 89° | 77km/h | 15255m | -6.8m/s | -54.9°C | 4.3% | 122.4hPa | 2.5V | 00:00:00 | 00:00:00 | 00:00:00 | |
| OE5WHR-10 | 2026-09-01 00:55:41 | 48.26023 | 12.92940 | 90° | 77km/h | 15262m | -7.2m/s | -54.9°C | 4.3% | 122.3hPa | 2.5V | 00:00:00 | 00:00:00 | 00:00:00 | |
| OE5MMP-10 | 2026-09-01 00:55:39 | 48.26023 | 12.92879 | 90° | 78km/h | 15275m | -6.9m/s | -55.0°C | 4.3% | 122.0hPa | 2.5V | 00:00:00 | 02:26:10 | 00:00:00 | |
| OE5DRO-10 | 2026-09-01 00:55:37 | 48.26024 | 12.92817 | 92° | 77km/h | 15289m | -6.4m/s | -55.0°C | 4.3% | 121.7hPa | 2.5V | 00:00:00 | 00:00:00 | 00:00:00 | |
| OE5FHM-15 | 2026-09-01 00:55:36 | 48.26024 | 12.92787 | 91° | 73km/h | 15296m | -7.4m/s | -55.1°C | 4.3% | 121.6hPa | 2.5V | 00:00:00 | 02:26:07 | 00:00:00 | |
| DF3TZ-5 | 2026-09-01 00:55:34 | 48.26026 | 12.92640 | 91° | 75km/h | 15331m | -7.0m/s | 0°C | -1.0% | -1.0hPa | 2.5V | 00:00:00 | 00:00:00 | 00:00:00 | |
| OE5MMP-10 | 2026-09-01 00:55:29 | 48.26026 | 12.92582 | 91° | 75km/h | 15345m | -7.1m/s | -54.9°C | 4.2% | 120.7hPa | 2.5V | 00:00:00 | 02:26:00 | 00:00:00 | |
| BAUMI2-15 | 2026-09-01 00:55:28 | 48.26027 | 12.92554 | 91° | 75km/h | 15353m | -7.1m/s | -54.9°C | 4.3% | 120.5hPa | 2.6V | 00:00:00 | 02:25:59 | 00:00:00 | |
| OE5REO-15 | 2026-09-01 00:55:27 | 48.26027 | 12.92554 | 92° | 75km/h | 15353m | -7.2m/s | -54.9°C | 1.5% | 120.6hPa | 2.6V | 08:07:00 | 00:00:00 | 00:00:00 | |
| BAUMI2-15 | 2026-09-01 00:55:23 | 48.26025 | 12.92410 | 90° | 75km/h | 15388m | -7.2m/s | -54.8°C | 4.3% | 119.9hPa | 2.6V | 00:00:00 | 02:25:54 | 00:00:00 | |
| PG1ADW-2 | 2026-09-01 00:55:21 | 48.26024 | 12.92354 | 87° | 69km/h | 15402m | -6.8m/s | -54.8°C | 4.3% | 119.6hPa | 2.6V | 00:00:00 | 02:25:52 | 00:00:00 | |
| DL6DJ-15 | 2026-09-01 00:55:20 | 48.26023 | 12.92298 | 87° | 71km/h | 15416m | -7.4m/s | -54.9°C | 1.5% | 119.4hPa | 2.5V | 00:00:00 | 00:00:00 | 00:00:00 | |
| BAUMI2-15 | 2026-09-01 00:55:18 | 48.26022 | 12.92270 | 88° | 71km/h | 15423m | -7.3m/s | -54.8°C | 4.3% | 119.3hPa | 2.5V | 00:00:00 | 02:25:49 | 00:00:00 | |
| OE5MMP-10 | 2026-09-01 00:55:17 | 48.26021 | 12.92242 | 90° | 69km/h | 15431m | -6.6m/s | -54.9°C | 4.3% | 119.1hPa | 2.5V | 00:00:00 | 02:25:48 | 00:00:00 | |
| DG1MFX-10 | 2026-09-01 00:55:16 | 48.26021 | 12.92242 | 91° | 73km/h | 15431m | -6.6m/s | -54.9°C | 1.6% | 119.1hPa | 2.5V | 00:00:00 | 00:00:00 | 00:00:00 | |
| BAUMI2-15 | 2026-09-01 00:55:13 | 48.26020 | 12.92135 | 90° | 68km/h | 15459m | -7.1m/s | -54.9°C | 4.4% | 118.6hPa | 2.5V | 00:00:00 | 02:25:44 | 00:00:00 | |
| OE5DXL-15 | 2026-09-01 00:55:12 | 48.26020 | 12.92109 | 89° | 68km/h | 15466m | -7.8m/s | -54.9°C | 4.3% | 118.5hPa | 2.5V | 00:00:00 | 00:00:00 | 00:00:00 | |
| OE5REO-15 | 2026-09-01 00:55:11 | 48.26020 | 12.92109 | 90° | 69km/h | 15466m | -7.8m/s | -54.9°C | 1.5% | 118.5hPa | 2.5V | 08:07:00 | 00:00:00 | 00:00:00 | |
| BAUMI2-15 | 2026-09-01 00:55:08 | 48.26019 | 12.92007 | 88° | 68km/h | 15495m | -7.0m/s | -54.6°C | 4.2% | 117.9hPa | 2.5V | 00:00:00 | 02:25:39 | 00:00:00 | |
| OE5MMP-10 | 2026-09-01 00:55:07 | 48.26018 | 12.91982 | 86° | 68km/h | 15502m | -6.9m/s | -54.6°C | 4.2% | 117.8hPa | 2.5V | 00:00:00 | 02:25:38 | 00:00:00 | |
| OE5FHM-15 | 2026-09-01 00:55:06 | 48.26017 | 12.91957 | 86° | 66km/h | 15509m | -6.8m/s | -54.5°C | 4.2% | 117.7hPa | 2.5V | 00:00:00 | 02:25:37 | 00:00:00 | |
| PG1ADW-2 | 2026-09-01 00:55:01 | 48.26008 | 12.91827 | 83° | 66km/h | 15544m | -6.6m/s | -54.3°C | 4.1% | 117.0hPa | 2.5V | 00:00:00 | 00:00:00 | 00:00:00 | |
| OE5WHR-10 | 2026-09-01 00:54:59 | 48.26004 | 12.91775 | 86° | 64km/h | 15558m | -6.7m/s | -54.0°C | 4.0% | 116.8hPa | 2.5V | 00:00:00 | 02:25:30 | 00:00:00 | |
| BAUMI2-15 | 2026-09-01 00:54:58 | 48.26003 | 12.91749 | 84° | 64km/h | 15565m | -7.1m/s | -53.9°C | 4.0% | 116.7hPa | 2.5V | 00:00:00 | 02:25:29 | 00:00:00 | |
| OE5HKT-10 | 2026-09-01 00:54:57 | 48.26001 | 12.91724 | 84° | 64km/h | 15572m | -6.7m/s | -53.9°C | 4.0% | 116.5hPa | 2.5V | 08:07:00 | 00:00:00 | 00:00:00 | |
| OE5REO-15 | 2026-09-01 00:54:55 | 48.25999 | 12.91700 | 86° | 64km/h | 15578m | -6.6m/s | -54.0°C | 1.4% | 116.5hPa | 2.6V | 08:07:00 | 00:00:00 | 00:00:00 | |
| BAUMI2-15 | 2026-09-01 00:54:53 | 48.25992 | 12.91631 | 78° | 64km/h | 15598m | -6.1m/s | -54.0°C | 4.0% | 116.1hPa | 2.6V | 00:00:00 | 02:25:24 | 00:00:00 | |
| BAUMI2-15 | 2026-09-01 00:54:48 | 48.25976 | 12.91513 | 75° | 71km/h | 15629m | -6.4m/s | -54.1°C | 4.0% | 115.6hPa | 2.6V | 00:00:00 | 02:25:19 | 00:00:00 | |
| OE5MMP-10 | 2026-09-01 00:54:47 | 48.25971 | 12.91490 | 72° | 64km/h | 15635m | -5.9m/s | -54.2°C | 4.0% | 115.4hPa | 2.6V | 00:00:00 | 02:25:18 | 00:00:00 | |
| BAUMI2-15 | 2026-09-01 00:54:43 | 48.25953 | 12.91383 | 83° | 60km/h | 15658m | -5.7m/s | -54.4°C | 4.0% | 115.0hPa | 2.6V | 00:00:00 | 02:25:14 | 00:00:00 | |
| OE5DXL-15 | 2026-09-01 00:54:42 | 48.25952 | 12.91358 | 86° | 71km/h | 15664m | -5.5m/s | -54.4°C | 4.0% | 114.9hPa | 2.6V | 00:00:00 | 00:00:00 | 00:00:00 | |
| PG1ADW-2 | 2026-09-01 00:54:41 | 48.25950 | 12.91335 | 84° | 69km/h | 15670m | -5.5m/s | -54.5°C | 4.0% | 114.8hPa | 2.6V | 00:00:00 | 00:00:00 | 00:00:00 | |
| OE5DRO-10 | 2026-09-01 00:54:40 | 48.25938 | 12.91276 | 62° | 69km/h | 15687m | -6.1m/s | -54.5°C | 4.0% | 114.4hPa | 2.6V | 00:00:00 | 00:00:00 | 00:00:00 | |
| BAUMI2-15 | 2026-09-01 00:54:38 | 48.25938 | 12.91276 | 62° | 73km/h | 15687m | -6.1m/s | -54.5°C | 4.0% | 114.4hPa | 2.6V | 00:00:00 | 02:25:09 | 00:00:00 | |
| OE5MMP-10 | 2026-09-01 00:54:37 | 48.25931 | 12.91256 | 61° | 73km/h | 15694m | -5.9m/s | -54.5°C | 3.9% | 114.3hPa | 2.6V | 00:00:00 | 02:25:08 | 00:00:00 | |
| OE5FHM-15 | 2026-09-01 00:54:36 | 48.25922 | 12.91232 | 62° | 77km/h | 15700m | -5.9m/s | -54.6°C | 4.0% | 114.3hPa | 2.6V | 08:07:00 | 02:25:07 | 00:00:00 | |
| DO3MHA-11 | 2026-09-01 00:54:34 | 48.25905 | 12.91176 | 71° | 86km/h | 15712m | -6.1m/s | -54.7°C | 4.1% | 114.0hPa | 2.5V | 08:07:00 | 02:25:05 | 00:00:00 | |
| BAUMI2-15 | 2026-09-01 00:54:33 | 48.25899 | 12.91145 | 76° | 75km/h | 15718m | -5.7m/s | -54.7°C | 4.1% | 113.9hPa | 2.5V | 00:00:00 | 02:25:04 | 00:00:00 | |
| DG1MFX-10 | 2026-09-01 00:54:32 | 48.25899 | 12.91145 | 76° | 86km/h | 15718m | -5.8m/s | -54.8°C | 1.5% | 114.0hPa | 2.5V | 08:08:00 | 00:00:00 | 00:00:00 | |
| BAUMI2-15 | 2026-09-01 00:54:28 | 48.25887 | 12.91012 | 77° | 64km/h | 15747m | -6.0m/s | -55.1°C | 4.3% | 113.4hPa | 2.5V | 00:00:00 | 02:24:59 | 00:00:00 | |
| OE5MMP-10 | 2026-09-01 00:54:27 | 48.25883 | 12.90993 | 67° | 80km/h | 15752m | -6.1m/s | -55.1°C | 4.3% | 113.3hPa | 2.5V | 00:00:00 | 02:24:58 | 00:00:00 | |
| OE5REO-15 | 2026-09-01 00:54:24 | 48.25867 | 12.90952 | 58° | 71km/h | 15765m | -6.1m/s | -55.1°C | 1.4% | 113.1hPa | 2.5V | 08:08:00 | 00:00:00 | 00:00:00 | |
| BAUMI2-15 | 2026-09-01 00:54:23 | 48.25847 | 12.90899 | 64° | 91km/h | 15777m | -6.5m/s | -55.1°C | 4.2% | 112.8hPa | 2.5V | 00:00:00 | 02:24:54 | 00:00:00 | |
| PG1ADW-2 | 2026-09-01 00:54:21 | 48.25831 | 12.90834 | 75° | 80km/h | 15790m | -6.4m/s | -55.2°C | 4.1% | 112.6hPa | 2.5V | 00:00:00 | 00:00:00 | 00:00:00 | |
| DO3MHA-11 | 2026-09-01 00:54:19 | 48.25823 | 12.90766 | 86° | 77km/h | 15803m | -6.4m/s | -55.2°C | 4.1% | 112.3hPa | 2.6V | 00:00:00 | 02:24:50 | 00:00:00 | |
| BAUMI2-15 | 2026-09-01 00:54:18 | 48.25821 | 12.90733 | 90° | 69km/h | 15809m | -6.3m/s | -55.3°C | 4.2% | 112.3hPa | 2.6V | 08:08:00 | 02:24:49 | 00:00:00 | |
| OE5WHR-10 | 2026-09-01 00:54:17 | 48.25822 | 12.90703 | 93° | 73km/h | 15815m | -6.2m/s | -55.2°C | 4.2% | 112.2hPa | 2.6V | 00:00:00 | 00:00:00 | 00:00:00 | |
| BAUMI2-15 | 2026-09-01 00:54:13 | 48.25819 | 12.90609 | 74° | 75km/h | 15840m | -5.9m/s | -55.2°C | 4.3% | 111.7hPa | 2.6V | 00:00:00 | 02:24:44 | 00:00:00 | |
| OE5DXL-15 | 2026-09-01 00:54:12 | 48.25814 | 12.90587 | 67° | 77km/h | 15846m | -5.5m/s | -55.2°C | 4.3% | 111.7hPa | 2.6V | 00:00:00 | 00:00:00 | 00:00:00 | |
| OE5REO-15 | 2026-09-01 00:54:09 | 48.25797 | 12.90536 | 67° | 84km/h | 15857m | -5.6m/s | -55.3°C | 1.5% | 111.5hPa | 2.5V | 08:08:00 | 00:00:00 | 00:00:00 | |
| OE5MMP-10 | 2026-09-01 00:54:08 | 48.25777 | 12.90436 | 81° | 73km/h | 15875m | -6.6m/s | -55.3°C | 4.3% | 111.1hPa | 2.5V | 00:00:00 | 02:24:38 | 00:00:00 | |
| OE5FHM-15 | 2026-09-01 00:54:06 | 48.25774 | 12.90400 | 86° | 75km/h | 15882m | -6.8m/s | -55.3°C | 4.2% | 111.0hPa | 2.5V | 00:00:00 | 02:24:37 | 00:00:00 | |
| BAUMI2-15 | 2026-09-01 00:54:03 | 48.25776 | 12.90303 | 98° | 60km/h | 15901m | -6.0m/s | -55.4°C | 4.2% | 110.6hPa | 2.5V | 00:00:00 | 02:24:34 | 00:00:00 | |
| DL6DJ-15 | 2026-09-01 00:53:47 | 48.25727 | 12.89864 | 73° | 66km/h | 16001m | -5.6m/s | -55.6°C | 1.4% | 109.0hPa | 2.5V | 00:00:00 | 00:00:00 | 00:00:00 | |
| DO3MHA-11 | 2026-09-01 00:53:46 | 48.25727 | 12.89864 | 74° | 75km/h | 16001m | -5.6m/s | -55.5°C | 4.4% | 109.0hPa | 2.5V | 00:00:00 | 02:24:17 | 00:00:00 | |
| BAUMI2-15 | 2026-09-01 00:53:43 | 48.25709 | 12.89780 | 77° | 88km/h | 16018m | -5.7m/s | -55.2°C | 4.2% | 108.7hPa | 2.5V | 00:00:00 | 02:24:14 | 00:00:00 | |
| OE5DXL-15 | 2026-09-01 00:53:42 | 48.25705 | 12.89746 | 83° | 75km/h | 16024m | -5.8m/s | -55.1°C | 4.1% | 108.6hPa | 2.5V | 00:00:00 | 00:00:00 | 00:00:00 | |
| PG1ADW-2 | 2026-09-01 00:53:41 | 48.25703 | 12.89712 | 88° | 73km/h | 16030m | -5.9m/s | -55.0°C | 4.1% | 108.5hPa | 2.5V | 00:00:00 | 00:00:00 | 00:00:00 | |
| BAUMI2-15 | 2026-09-01 00:53:38 | 48.25707 | 12.89617 | 98° | 66km/h | 16048m | -5.8m/s | -54.9°C | 4.1% | 108.1hPa | 2.5V | 00:00:00 | 02:24:09 | 00:00:00 | |
| OE5MMP-10 | 2026-09-01 00:53:37 | 48.25709 | 12.89591 | 96° | 77km/h | 16054m | -5.6m/s | -54.9°C | 4.2% | 108.1hPa | 2.5V | 00:00:00 | 02:24:08 | 00:00:00 | |
| OE5FHM-15 | 2026-09-01 00:53:36 | 48.25710 | 12.89568 | 90° | 69km/h | 16060m | -5.8m/s | -55.0°C | 4.2% | 108.0hPa | 2.5V | 00:00:00 | 02:24:07 | 00:00:00 | |
| OE5WHR-10 | 2026-09-01 00:53:35 | 48.25709 | 12.89545 | 81° | 75km/h | 16066m | -5.5m/s | -55.0°C | 4.2% | 107.9hPa | 2.5V | 08:08:00 | 00:00:00 | 00:00:00 | |
| BAUMI2-15 | 2026-09-01 00:53:33 | 48.25700 | 12.89495 | 73° | 77km/h | 16077m | -5.6m/s | -55.1°C | 4.3% | 107.7hPa | 2.6V | 08:09:00 | 02:24:04 | 00:00:00 | |
| OE5MMP-10 | 2026-09-01 00:53:27 | 48.25690 | 12.89306 | 100° | 68km/h | 16111m | -5.9m/s | -55.0°C | 4.2% | 107.1hPa | 2.6V | 08:09:00 | 02:23:58 | 00:00:00 | |
| OE5REO-15 | 2026-09-01 00:53:23 | 48.25695 | 12.89217 | 81° | 53km/h | 16136m | -6.3m/s | -54.9°C | 1.4% | 106.7hPa | 2.6V | 08:09:00 | 00:00:00 | 00:00:00 | |
| PG1ADW-2 | 2026-09-01 00:53:21 | 48.25687 | 12.89174 | 71° | 71km/h | 16148m | -6.0m/s | -54.7°C | 4.3% | 106.5hPa | 2.6V | 08:09:00 | 00:00:00 | 00:00:00 | |
| DL6DJ-15 | 2026-09-01 00:53:16 | 48.25670 | 12.88991 | 97° | 78km/h | 16183m | -6.3m/s | -54.6°C | 1.3% | 106.0hPa | 2.5V | 00:00:00 | 00:00:00 | 00:00:00 | |
| OE5WHR-10 | 2026-09-01 00:53:14 | 48.25673 | 12.88963 | 101° | 64km/h | 16189m | -6.2m/s | -54.4°C | 4.2% | 105.8hPa | 2.5V | 00:00:00 | 00:00:00 | 00:00:00 | |
| DO3MHA-11 | 2026-09-01 00:53:13 | 48.25675 | 12.88939 | 102° | 53km/h | 16196m | -6.0m/s | -54.4°C | 4.2% | 105.7hPa | 2.5V | 00:00:00 | 02:23:44 | 00:00:00 | |
| OE5DXL-15 | 2026-09-01 00:53:12 | 48.25678 | 12.88918 | 99° | 68km/h | 16202m | -6.0m/s | -54.2°C | 4.2% | 105.6hPa | 2.5V | 00:00:00 | 00:00:00 | 00:00:00 | |
| OE5MMP-10 | 2026-09-01 00:53:07 | 48.25662 | 12.88827 | 65° | 75km/h | 16233m | -6.1m/s | -53.2°C | 3.8% | 105.1hPa | 2.5V | 00:00:00 | 02:23:38 | 00:00:00 | |
| OE5FHM-15 | 2026-09-01 00:53:06 | 48.25655 | 12.88802 | 68° | 66km/h | 16239m | -6.3m/s | -53.0°C | 3.8% | 104.9hPa | 2.5V | 00:00:00 | 02:23:37 | 00:00:00 | |
| DO3MHA-11 | 2026-09-01 00:53:03 | 48.25639 | 12.88710 | 85° | 58km/h | 16258m | -6.4m/s | -52.7°C | 3.6% | 104.7hPa | 2.6V | 00:00:00 | 02:23:34 | 00:00:00 | |
| PG1ADW-2 | 2026-09-01 00:53:01 | 48.25639 | 12.88645 | 96° | 66km/h | 16271m | -6.2m/s | -52.7°C | 3.6% | 104.4hPa | 2.6V | 00:00:00 | 00:00:00 | 00:00:00 | |
| OE5MMP-10 | 2026-09-01 00:52:57 | 48.25648 | 12.88552 | 89° | 69km/h | 16296m | -6.1m/s | -52.8°C | 3.7% | 104.0hPa | 2.6V | 00:00:00 | 02:23:28 | 00:00:00 | |
| DG1MFX-10 | 2026-09-01 00:52:55 | 48.25647 | 12.88536 | 75° | 44km/h | 16302m | -6.5m/s | -52.9°C | 1.2% | 104.0hPa | 2.5V | 08:10:00 | 00:00:00 | 00:00:00 | |
| OE5WHR-10 | 2026-09-01 00:52:53 | 48.25628 | 12.88482 | 59° | 68km/h | 16321m | -6.7m/s | -53.0°C | 3.7% | 103.6hPa | 2.5V | 00:00:00 | 02:23:24 | 00:00:00 | |
| OE5REO-15 | 2026-09-01 00:52:52 | 48.25628 | 12.88482 | 60° | 68km/h | 16321m | -6.7m/s | -53.1°C | 1.1% | 103.7hPa | 2.5V | 08:10:00 | 00:00:00 | 00:00:00 | |
| OE5MMP-10 | 2026-09-01 00:52:47 | 48.25595 | 12.88303 | 94° | 55km/h | 16360m | -5.6m/s | -53.3°C | 3.8% | 103.0hPa | 2.5V | 00:00:00 | 02:23:18 | 00:00:00 | |
| DL6DJ-15 | 2026-09-01 00:52:45 | 48.25604 | 12.88225 | 102° | 57km/h | 16380m | -7.2m/s | -53.4°C | 1.2% | 102.7hPa | 2.5V | 00:00:00 | 00:00:00 | 00:00:00 | |
| OE5HKT-10 | 2026-09-01 00:52:44 | 48.25603 | 12.88225 | 103° | 53km/h | 16380m | -7.1m/s | -53.3°C | 3.9% | 102.6hPa | 2.5V | 00:00:00 | 00:00:00 | 00:00:00 | |
| OE5DXL-15 | 2026-09-01 00:52:42 | 48.25607 | 12.88188 | 93° | 55km/h | 16395m | -7.3m/s | -53.4°C | 3.9% | 102.4hPa | 2.5V | 08:09:00 | 00:00:00 | 00:00:00 | |
| PG1ADW-2 | 2026-09-01 00:52:41 | 48.25606 | 12.88173 | 81° | 55km/h | 16402m | -7.2m/s | -53.5°C | 4.0% | 102.3hPa | 2.5V | 00:00:00 | 02:23:12 | 00:00:00 | |
| OE5MMP-10 | 2026-09-01 00:52:37 | 48.25582 | 12.88109 | 56° | 69km/h | 16428m | -6.6m/s | -53.2°C | 4.0% | 101.9hPa | 2.5V | 00:00:00 | 02:23:08 | 00:00:00 | |
| OE5FHM-15 | 2026-09-01 00:52:36 | 48.25573 | 12.88087 | 61° | 51km/h | 16435m | -6.4m/s | -53.0°C | 3.9% | 101.8hPa | 2.5V | 00:00:00 | 02:23:07 | 00:00:00 | |
| DG1MFX-10 | 2026-09-01 00:52:34 | 48.25564 | 12.88061 | 67° | 80km/h | 16441m | -6.4m/s | -53.0°C | 1.2% | 101.8hPa | 2.5V | 08:10:00 | 00:00:00 | 00:00:00 | |
| OE5WHR-10 | 2026-09-01 00:52:32 | 48.25550 | 12.87971 | 88° | 51km/h | 16462m | -6.9m/s | -52.6°C | 3.8% | 101.4hPa | 2.5V | 00:00:00 | 00:00:00 | 00:00:00 | |
| OE5MMP-10 | 2026-09-01 00:52:27 | 48.25559 | 12.87861 | 95° | 44km/h | 16495m | -7.0m/s | -52.2°C | 3.7% | 100.8hPa | 2.5V | 00:00:00 | 02:22:58 | 00:00:00 | |
| OE5HKT-10 | 2026-09-01 00:52:23 | 48.25546 | 12.87818 | 47° | 47km/h | 16526m | -7.6m/s | -52.2°C | 3.8% | 100.3hPa | 2.5V | 00:00:00 | 02:22:54 | 00:00:00 | |
| PG1ADW-2 | 2026-09-01 00:52:21 | 48.25529 | 12.87790 | 51° | 51km/h | 16540m | -6.4m/s | -52.2°C | 3.8% | 100.1hPa | 2.5V | 00:00:00 | 00:00:00 | 00:00:00 | |
| OE5REO-15 | 2026-09-01 00:52:20 | 48.25529 | 12.87790 | 51° | 58km/h | 16540m | -6.5m/s | -52.3°C | 1.2% | 100.2hPa | 2.5V | 08:10:00 | 00:00:00 | 00:00:00 | |
| DF7PN | 2026-09-01 00:52:19 | 48.25512 | 12.87748 | 66° | 68km/h | 16552m | -5.7m/s | -52.2°C | 1.2% | 100.0hPa | 2.5V | 00:00:00 | 00:00:00 | 00:00:00 | |
| OE5MMP-10 | 2026-09-01 00:52:17 | 48.25504 | 12.87698 | 87° | 35km/h | 16563m | -5.7m/s | -52.1°C | 3.8% | 99.8hPa | 2.5V | 00:00:00 | 02:22:48 | 00:00:00 | |
| DL6DJ-15 | 2026-09-01 00:52:13 | 48.25510 | 12.87625 | 102° | 27km/h | 16590m | -7.1m/s | -50.9°C | 1.0% | 99.4hPa | 2.5V | 00:00:00 | 00:00:00 | 00:00:00 | |
| OE5DXL-15 | 2026-09-01 00:52:12 | 48.25510 | 12.87617 | 89° | 46km/h | 16597m | -6.9m/s | -50.7°C | 3.4% | 99.3hPa | 2.5V | 00:00:00 | 00:00:00 | 00:00:00 | |
| OE5WHR-10 | 2026-09-01 00:52:11 | 48.25509 | 12.87610 | 55° | 44km/h | 16604m | -7.0m/s | -50.6°C | 3.3% | 99.1hPa | 2.5V | 00:00:00 | 00:00:00 | 00:00:00 | |
| OE5REO-15 | 2026-09-01 00:52:06 | 48.25469 | 12.87569 | 46° | 60km/h | 16638m | -6.8m/s | -50.3°C | 1.0% | 98.7hPa | 2.5V | 08:11:00 | 00:00:00 | 00:00:00 | |
| OE5DRO-10 | 2026-09-01 00:52:04 | 48.25444 | 12.87507 | 71° | 47km/h | 16658m | -6.7m/s | -50.4°C | 3.2% | 98.3hPa | 2.5V | 00:00:00 | 00:00:00 | 00:00:00 | |
| DF7PN | 2026-09-01 00:51:48 | 48.25379 | 12.87299 | 73° | 64km/h | 16761m | -6.8m/s | -51.4°C | -1.0% | -1.0hPa | 2.5V | 00:00:00 | 00:00:00 | 00:00:00 | |
| OE5DRO-10 | 2026-09-01 00:51:45 | 48.25375 | 12.87234 | 97° | 44km/h | 16782m | -6.9m/s | -51.6°C | 3.3% | 96.5hPa | 2.5V | 00:00:00 | 00:00:00 | 00:00:00 | |
| OE5DXL-15 | 2026-09-01 00:51:42 | 48.25381 | 12.87196 | 99° | 46km/h | 16801m | -6.1m/s | -51.7°C | 3.4% | 96.2hPa | 2.5V | 00:00:00 | 00:00:00 | 00:00:00 | |
| OE5HKT-10 | 2026-09-01 00:51:41 | 48.25380 | 12.87190 | 62° | 24km/h | 16808m | -6.1m/s | -51.8°C | 3.4% | 96.1hPa | 2.5V | 00:00:00 | 00:00:00 | 00:00:00 | |
| OE5FHM-15 | 2026-09-01 00:51:36 | 48.25343 | 12.87154 | 43° | 46km/h | 16839m | -6.8m/s | -52.1°C | 3.4% | 95.6hPa | 2.5V | 00:00:00 | 02:22:07 | 00:00:00 | |
| OE5REO-15 | 2026-09-01 00:51:35 | 48.25343 | 12.87154 | 43° | 58km/h | 16839m | -6.9m/s | -52.1°C | 1.1% | 95.7hPa | 2.5V | 08:11:00 | 00:00:00 | 00:00:00 | |
| OE5MMP-10 | 2026-09-01 00:51:33 | 48.25316 | 12.87096 | 69° | 40km/h | 16861m | -7.1m/s | -52.3°C | 3.5% | 95.3hPa | 2.5V | 00:00:00 | 02:22:04 | 00:00:00 | |
| OE5WHR-10 | 2026-09-01 00:51:29 | 48.25311 | 12.87010 | 104° | 40km/h | 16889m | -6.8m/s | -52.5°C | 3.5% | 94.9hPa | 2.5V | 00:00:00 | 00:00:00 | 00:00:00 | |
| BAUMI2-15 | 2026-09-01 00:51:28 | 48.25314 | 12.86995 | 109° | 24km/h | 16896m | -7.0m/s | -52.6°C | 3.5% | 94.8hPa | 2.6V | 00:00:00 | 02:21:59 | 00:00:00 | |
| DO3MHA-11 | 2026-09-01 00:51:27 | 48.25317 | 12.86984 | 108° | 44km/h | 16903m | -7.0m/s | -52.7°C | 3.5% | 94.6hPa | 2.6V | 00:00:00 | 02:21:58 | 00:00:00 | |
| OE5DRO-10 | 2026-09-01 00:51:26 | 48.25318 | 12.86976 | 93° | 42km/h | 16910m | -7.0m/s | -52.7°C | 3.6% | 94.6hPa | 2.6V | 00:00:00 | 00:00:00 | 00:00:00 | |
| BAUMI2-15 | 2026-09-01 00:51:23 | 48.25306 | 12.86959 | 31° | 53km/h | 16931m | -6.4m/s | -52.9°C | 3.6% | 94.3hPa | 2.6V | 00:00:00 | 02:21:54 | 00:00:00 | |
| PG1ADW-2 | 2026-09-01 00:51:21 | 48.25288 | 12.86938 | 44° | 49km/h | 16943m | -6.3m/s | -53.0°C | 3.6% | 94.1hPa | 2.6V | 00:00:00 | 02:21:52 | 00:00:00 | |
| OE5REO-15 | 2026-09-01 00:51:20 | 48.25278 | 12.86922 | 53° | 62km/h | 16950m | -6.4m/s | -53.2°C | 1.1% | 94.0hPa | 2.5V | 08:11:00 | 00:00:00 | 00:00:00 | |
| BAUMI2-15 | 2026-09-01 00:51:18 | 48.25262 | 12.86878 | 71° | 60km/h | 16963m | -7.2m/s | -53.2°C | 3.7% | 93.8hPa | 2.5V | 00:00:00 | 02:21:49 | 00:00:00 | |
| OE5MMP-10 | 2026-09-01 00:51:13 | 48.25262 | 12.86771 | 109° | 37km/h | 17000m | -7.1m/s | -53.6°C | 3.8% | 93.3hPa | 2.5V | 00:00:00 | 02:21:44 | 00:00:00 | |
| OE5DXL-15 | 2026-09-01 00:51:12 | 48.25265 | 12.86758 | 112° | 46km/h | 17007m | -6.9m/s | -53.6°C | 3.8% | 93.2hPa | 2.5V | 00:00:00 | 00:00:00 | 00:00:00 | |
| DL6DJ-15 | 2026-09-01 00:51:11 | 48.25267 | 12.86749 | 104° | 20km/h | 17013m | -7.2m/s | -53.7°C | 1.2% | 93.1hPa | 2.5V | 00:00:00 | 00:00:00 | 00:00:00 | |
| OE5WHR-10 | 2026-09-01 00:51:08 | 48.25260 | 12.86732 | 33° | 47km/h | 17035m | -6.9m/s | -53.8°C | 3.8% | 92.8hPa | 2.5V | 00:00:00 | 00:00:00 | 00:00:00 | |
| OE5DRO-10 | 2026-09-01 00:51:07 | 48.25253 | 12.86724 | 36° | 47km/h | 17042m | -7.2m/s | -53.9°C | 3.8% | 92.6hPa | 2.5V | 00:00:00 | 00:00:00 | 00:00:00 | |
| OE5FHM-15 | 2026-09-01 00:51:06 | 48.25244 | 12.86714 | 41° | 46km/h | 17049m | -6.9m/s | -54.0°C | 3.8% | 92.5hPa | 2.5V | 00:00:00 | 02:21:37 | 00:00:00 | |
| OE5REO-15 | 2026-09-01 00:51:04 | 48.25234 | 12.86699 | 50° | 58km/h | 17056m | -6.8m/s | -54.1°C | 1.2% | 92.5hPa | 2.5V | 08:11:00 | 00:00:00 | 00:00:00 | |
| OE5MMP-10 | 2026-09-01 00:51:03 | 48.25218 | 12.86659 | 67° | 46km/h | 17069m | -6.6m/s | -54.2°C | 3.9% | 92.2hPa | 2.5V | 00:00:00 | 02:21:34 | 00:00:00 | |
| DF7PN | 2026-09-01 00:50:46 | 48.25174 | 12.86375 | 88° | 66km/h | 17189m | -7.6m/s | 0°C | -1.0% | -1.0hPa | 2.5V | 00:00:00 | 00:00:00 | 00:00:00 | |
| OE5MMP-10 | 2026-09-01 00:50:43 | 48.25182 | 12.86309 | 112° | 31km/h | 17211m | -6.7m/s | -54.8°C | 4.0% | 90.2hPa | 2.5V | 00:00:00 | 02:21:14 | 00:00:00 | |
| OE5DXL-15 | 2026-09-01 00:50:42 | 48.25187 | 12.86293 | 119° | 42km/h | 17218m | -7.0m/s | -54.8°C | 4.0% | 90.1hPa | 2.5V | 00:00:00 | 00:00:00 | 00:00:00 | |
| PG1ADW-2 | 2026-09-01 00:50:41 | 48.25191 | 12.86282 | 123° | 40km/h | 17225m | -7.1m/s | -54.8°C | 4.0% | 90.0hPa | 2.5V | 00:00:00 | 00:00:00 | 00:00:00 | |
| DL6DJ-15 | 2026-09-01 00:50:40 | 48.25194 | 12.86274 | 118° | 18km/h | 17232m | -7.4m/s | -54.8°C | 1.2% | 90.0hPa | 2.5V | 00:00:00 | 00:00:00 | 00:00:00 | |
| BAUMI2-15 | 2026-09-01 00:50:38 | 48.25195 | 12.86263 | 59° | 33km/h | 17246m | -7.4m/s | -54.5°C | 4.0% | 89.7hPa | 2.5V | 00:00:00 | 02:21:09 | 00:00:00 | |
| DO3MHA-11 | 2026-09-01 00:50:36 | 48.25187 | 12.86250 | 44° | 55km/h | 17261m | -7.3m/s | -54.4°C | 3.9% | 89.5hPa | 2.5V | 08:11:00 | 02:21:07 | 00:00:00 | |
| BAUMI2-15 | 2026-09-01 00:50:33 | 48.25167 | 12.86207 | 67° | 62km/h | 17283m | -7.1m/s | -54.5°C | 4.0% | 89.2hPa | 2.5V | 00:00:00 | 02:21:04 | 00:00:00 | |
| OE5REO-15 | 2026-09-01 00:50:32 | 48.25167 | 12.86207 | 68° | 58km/h | 17283m | -7.1m/s | -54.6°C | 1.2% | 89.3hPa | 2.6V | 08:12:00 | 00:00:00 | 00:00:00 | |
| OE5DRO-10 | 2026-09-01 00:50:29 | 48.25165 | 12.86114 | 108° | 44km/h | 17311m | -7.3m/s | -54.8°C | 4.0% | 88.8hPa | 2.6V | 00:00:00 | 00:00:00 | 00:00:00 | |
| OE5HKT-10 | 2026-09-01 00:50:28 | 48.25170 | 12.86093 | 117° | 33km/h | 17319m | -7.9m/s | -54.8°C | 4.0% | 88.7hPa | 2.6V | 08:12:00 | 00:00:00 | 00:00:00 | |
| DO3MHA-11 | 2026-09-01 00:50:26 | 48.25184 | 12.86060 | 131° | 27km/h | 17335m | -8.4m/s | -55.0°C | 4.1% | 88.5hPa | 2.5V | 00:00:00 | 02:20:57 | 00:00:00 | |
| BAUMI2-15 | 2026-09-01 00:50:23 | 48.25201 | 12.86036 | 137° | 22km/h | 17358m | -7.5m/s | -55.0°C | 4.2% | 88.1hPa | 2.5V | 00:00:00 | 02:20:54 | 00:00:00 | |
| PG1ADW-2 | 2026-09-01 00:50:21 | 48.25203 | 12.86027 | 61° | 35km/h | 17373m | -7.3m/s | -55.1°C | 4.3% | 88.0hPa | 2.5V | 08:12:00 | 00:00:00 | 00:00:00 | |
| OE5REO-15 | 2026-09-01 00:50:18 | 48.25191 | 12.85996 | 69° | 46km/h | 17394m | -6.7m/s | -55.0°C | 1.3% | 87.7hPa | 2.6V | 08:12:00 | 00:00:00 | 00:00:00 | |
| DO3MHA-11 | 2026-09-01 00:50:16 | 48.25186 | 12.85957 | 89° | 53km/h | 17408m | -7.1m/s | -54.8°C | 4.2% | 87.5hPa | 2.6V | 00:00:00 | 02:20:47 | 00:00:00 | |
| OE5MMP-10 | 2026-09-01 00:50:13 | 48.25197 | 12.85892 | 121° | 29km/h | 17431m | -7.9m/s | -54.8°C | 4.1% | 87.2hPa | 2.6V | 00:00:00 | 02:20:44 | 00:00:00 | |
| OE5DXL-15 | 2026-09-01 00:50:12 | 48.25205 | 12.85875 | 131° | 29km/h | 17439m | -7.5m/s | -54.8°C | 4.1% | 87.1hPa | 2.6V | 00:00:00 | 00:00:00 | 00:00:00 | |
| OE5DRO-10 | 2026-09-01 00:50:10 | 48.25223 | 12.85853 | 153° | 29km/h | 17453m | -7.4m/s | -54.6°C | 4.1% | 86.8hPa | 2.6V | 00:00:00 | 00:00:00 | 00:00:00 | |
| DL6DJ-15 | 2026-09-01 00:50:09 | 48.25238 | 12.85845 | 170° | 20km/h | 17468m | -7.3m/s | -54.5°C | 1.2% | 86.7hPa | 2.6V | 00:00:00 | 00:00:00 | 00:00:00 | |
| BAUMI2-15 | 2026-09-01 00:50:08 | 48.25238 | 12.85845 | 171° | 11km/h | 17468m | -7.2m/s | -54.5°C | 4.1% | 86.7hPa | 2.6V | 00:00:00 | 02:20:39 | 00:00:00 | |
| OE5HKT-10 | 2026-09-01 00:50:07 | 48.25242 | 12.85844 | 178° | 20km/h | 17475m | -7.1m/s | -54.3°C | 4.0% | 86.5hPa | 2.6V | 00:00:00 | 00:00:00 | 00:00:00 | |
| OE5FHM-15 | 2026-09-01 00:50:06 | 48.25244 | 12.85844 | 161° | 27km/h | 17483m | -8.1m/s | -54.2°C | 4.0% | 86.4hPa | 2.6V | 08:12:00 | 02:20:37 | 00:00:00 | |
| OE5WHR-10 | 2026-09-01 00:50:05 | 48.25243 | 12.85843 | 34° | 29km/h | 17491m | -8.0m/s | -54.1°C | 4.0% | 86.3hPa | 2.5V | 00:00:00 | 00:00:00 | 00:00:00 | |
| DH7VM-15 | 2026-09-01 00:50:04 | 48.25243 | 12.85843 | 35° | 5km/h | 17491m | -8.0m/s | -54.2°C | 0% | 0hPa | 2.5V | 00:00:00 | 00:00:00 | 00:00:00 | |
| OE5MMP-10 | 2026-09-01 00:50:03 | 48.25238 | 12.85836 | 46° | 37km/h | 17507m | -8.0m/s | -54.1°C | 4.1% | 86.1hPa | 2.5V | 00:00:00 | 02:20:34 | 00:00:00 | |
| PG1ADW-2 | 2026-09-01 00:50:01 | 48.25231 | 12.85818 | 73° | 31km/h | 17522m | -6.8m/s | -54.0°C | 4.1% | 85.9hPa | 2.5V | 00:00:00 | 02:20:32 | 00:00:00 | |
| BAUMI2-15 | 2026-09-01 00:49:53 | 48.25274 | 12.85747 | 209° | 22km/h | 17575m | -7.9m/s | -53.4°C | 3.8% | 85.2hPa | 2.5V | 00:00:00 | 02:20:24 | 00:00:00 | |
| OE5DRO-10 | 2026-09-01 00:49:51 | 48.25280 | 12.85759 | 265° | 27km/h | 17591m | -7.5m/s | -53.1°C | 3.8% | 85.0hPa | 2.5V | 00:00:00 | 00:00:00 | 00:00:00 | |
| BAUMI2-15 | 2026-09-01 00:49:48 | 48.25271 | 12.85778 | 347° | 29km/h | 17612m | -6.7m/s | -52.9°C | 3.7% | 84.8hPa | 2.5V | 00:00:00 | 02:20:19 | 00:00:00 | |
| OE5REO-15 | 2026-09-01 00:49:46 | 48.25265 | 12.85777 | 14° | 26km/h | 17619m | -7.3m/s | -52.9°C | 1.1% | 84.7hPa | 2.5V | 08:12:00 | 00:00:00 | 00:00:00 | |
| DO3MHA-11 | 2026-09-01 00:49:45 | 48.25253 | 12.85766 | 52° | 27km/h | 17633m | -6.7m/s | -53.0°C | 3.8% | 84.4hPa | 2.5V | 00:00:00 | 02:20:16 | 00:00:00 | |
| OE5WHR-10 | 2026-09-01 00:49:44 | 48.25249 | 12.85756 | 71° | 27km/h | 17640m | -7.3m/s | -53.0°C | 3.8% | 84.4hPa | 2.5V | 00:00:00 | 02:20:15 | 00:00:00 | |
| BAUMI2-15 | 2026-09-01 00:49:43 | 48.25248 | 12.85745 | 89° | 26km/h | 17647m | -6.8m/s | -52.9°C | 3.8% | 84.3hPa | 2.5V | 00:00:00 | 02:20:14 | 00:00:00 | |
| OE5DXL-15 | 2026-09-01 00:49:42 | 48.25249 | 12.85735 | 113° | 31km/h | 17653m | -6.3m/s | -52.6°C | 3.6% | 84.2hPa | 2.5V | 00:00:00 | 00:00:00 | 00:00:00 | |
| PG1ADW-2 | 2026-09-01 00:49:41 | 48.25253 | 12.85727 | 142° | 27km/h | 17660m | -6.0m/s | -52.6°C | 3.6% | 84.1hPa | 2.5V | 00:00:00 | 00:00:00 | 00:00:00 | |
| DL6DJ-15 | 2026-09-01 00:49:38 | 48.25275 | 12.85737 | 241° | 27km/h | 17687m | -7.8m/s | -52.7°C | 1.1% | 83.8hPa | 2.5V | 00:00:00 | 00:00:00 | 00:00:00 | |
| OE5FHM-15 | 2026-09-01 00:49:36 | 48.25277 | 12.85747 | 264° | 31km/h | 17695m | -7.7m/s | -52.7°C | 3.6% | 83.6hPa | 2.5V | 00:00:00 | 02:20:07 | 00:00:00 | |
| DO3MHA-11 | 2026-09-01 00:49:35 | 48.25277 | 12.85758 | 284° | 29km/h | 17703m | -7.6m/s | -52.8°C | 3.6% | 83.5hPa | 2.5V | 00:00:00 | 02:20:06 | 00:00:00 | |
| OE5MMP-10 | 2026-09-01 00:49:33 | 48.25268 | 12.85779 | 318° | 29km/h | 17717m | -6.9m/s | -52.9°C | 3.6% | 83.4hPa | 2.5V | 00:00:00 | 02:20:04 | 00:00:00 | |
| OE5DRO-10 | 2026-09-01 00:49:32 | 48.25261 | 12.85786 | 334° | 31km/h | 17725m | -8.0m/s | -52.9°C | 3.6% | 83.2hPa | 2.5V | 00:00:00 | 00:00:00 | 00:00:00 | |
| OE5REO-15 | 2026-09-01 00:49:30 | 48.25253 | 12.85791 | 349° | 37km/h | 17733m | -7.6m/s | -52.9°C | 1.1% | 83.2hPa | 2.5V | 08:13:00 | 00:00:00 | 00:00:00 | |
| DO3MHA-11 | 2026-09-01 00:49:25 | 48.25223 | 12.85761 | 120° | 24km/h | 17778m | -7.0m/s | -53.1°C | 3.7% | 82.6hPa | 2.5V | 00:00:00 | 02:19:56 | 00:00:00 | |
| OE5WHR-10 | 2026-09-01 00:49:23 | 48.25231 | 12.85757 | 198° | 29km/h | 17791m | -6.8m/s | -53.2°C | 3.8% | 82.4hPa | 2.5V | 00:00:00 | 00:00:00 | 00:00:00 | |
| PG1ADW-2 | 2026-09-01 00:49:21 | 48.25238 | 12.85770 | 255° | 31km/h | 17806m | -7.0m/s | -53.3°C | 3.9% | 82.2hPa | 2.6V | 00:00:00 | 00:00:00 | 00:00:00 | |
| OE8JPQ-2 | 2026-09-01 00:49:19 | 48.25236 | 12.85792 | 296° | 38km/h | 17820m | -7.1m/s | -53.4°C | 3.8% | 82.0hPa | 2.5V | 00:00:00 | 00:00:00 | 00:00:00 | |
| DO3MHA-11 | 2026-09-01 00:49:15 | 48.25204 | 12.85818 | 5° | 31km/h | 17849m | -7.5m/s | -53.4°C | 3.8% | 81.7hPa | 2.6V | 00:00:00 | 02:19:46 | 00:00:00 | |
| OE5REO-15 | 2026-09-01 00:49:14 | 48.25204 | 12.85818 | 5° | 42km/h | 17849m | -7.5m/s | -53.5°C | 1.2% | 81.7hPa | 2.5V | 08:13:00 | 00:00:00 | 00:00:00 | |
| OE5DRO-10 | 2026-09-01 00:49:13 | 48.25177 | 12.85798 | 50° | 33km/h | 17872m | -8.1m/s | -53.5°C | 3.8% | 81.3hPa | 2.5V | 00:00:00 | 00:00:00 | 00:00:00 | |
| OE5DXL-15 | 2026-09-01 00:49:12 | 48.25177 | 12.85798 | 50° | 31km/h | 17872m | -8.1m/s | -53.5°C | 3.8% | 81.3hPa | 2.5V | 00:00:00 | 00:00:00 | 00:00:00 | |
| DL6DJ-15 | 2026-09-01 00:49:07 | 48.25177 | 12.85747 | 193° | 11km/h | 17916m | -6.8m/s | -53.4°C | 1.1% | 80.9hPa | 2.5V | 00:00:00 | 00:00:00 | 00:00:00 | |
| OE5FHM-15 | 2026-09-01 00:49:06 | 48.25177 | 12.85747 | 194° | 35km/h | 17916m | -6.8m/s | -53.4°C | 3.8% | 80.8hPa | 2.5V | 00:00:00 | 02:19:37 | 00:00:00 | |
| DO3MHA-11 | 2026-09-01 00:49:05 | 48.25180 | 12.85750 | 247° | 24km/h | 17923m | -6.9m/s | -53.4°C | 3.8% | 80.7hPa | 2.5V | 00:00:00 | 02:19:36 | 00:00:00 | |
| OE5MMP-10 | 2026-09-01 00:49:03 | 48.25177 | 12.85764 | 310° | 40km/h | 17938m | -7.6m/s | -53.3°C | 3.8% | 80.6hPa | 2.5V | 00:00:00 | 02:19:34 | 00:00:00 | |
| OE5WHR-10 | 2026-09-01 00:49:02 | 48.25171 | 12.85771 | 330° | 35km/h | 17945m | -7.4m/s | -53.2°C | 3.7% | 80.4hPa | 2.5V | 00:00:00 | 00:00:00 | 00:00:00 | |
| PG1ADW-2 | 2026-09-01 00:49:01 | 48.25163 | 12.85777 | 347° | 35km/h | 17953m | -7.5m/s | -53.1°C | 3.7% | 80.3hPa | 2.5V | 00:00:00 | 00:00:00 | 00:00:00 | |
| OE8JPQ-2 | 2026-09-01 00:48:59 | 48.25141 | 12.85775 | 18° | 37km/h | 17968m | -7.4m/s | -53.0°C | 3.6% | 80.2hPa | 2.5V | 00:00:00 | 00:00:00 | 00:00:00 | |
| OE5DRO-10 | 2026-09-01 00:48:54 | 48.25108 | 12.85714 | 91° | 33km/h | 18005m | -7.7m/s | -53.3°C | 3.6% | 79.7hPa | 2.5V | 00:00:00 | 00:00:00 | 00:00:00 | |
| OE5MMP-10 | 2026-09-01 00:48:53 | 48.25110 | 12.85702 | 107° | 26km/h | 18012m | -7.5m/s | -53.3°C | 3.6% | 79.6hPa | 2.6V | 08:13:00 | 02:19:24 | 00:00:00 | |
| OE5REO-15 | 2026-09-01 00:48:44 | 48.25095 | 12.85713 | 361° | 44km/h | 18072m | -6.9m/s | -53.9°C | 1.1% | 78.9hPa | 2.5V | 08:14:00 | 00:00:00 | 00:00:00 | |
| OE5MMP-10 | 2026-09-01 00:48:43 | 48.25073 | 12.85704 | 28° | 35km/h | 18087m | -7.5m/s | -54.0°C | 3.7% | 78.7hPa | 2.5V | 00:00:00 | 02:19:14 | 00:00:00 | |
| OE5DXL-15 | 2026-09-01 00:48:42 | 48.25062 | 12.85693 | 42° | 40km/h | 18094m | -7.4m/s | -54.0°C | 3.8% | 78.6hPa | 2.5V | 00:00:00 | 00:00:00 | 00:00:00 | |
| OE5WHR-10 | 2026-09-01 00:48:41 | 48.25054 | 12.85679 | 54° | 44km/h | 18102m | -7.8m/s | -54.1°C | 3.8% | 78.5hPa | 2.5V | 00:00:00 | 02:19:12 | 00:00:00 | |
| OE5HKT-10 | 2026-09-01 00:48:38 | 48.25043 | 12.85632 | 92° | 26km/h | 18125m | -7.5m/s | -54.3°C | 3.9% | 78.2hPa | 2.5V | 00:00:00 | 00:00:00 | 00:00:00 | |
| OE5FHM-15 | 2026-09-01 00:48:36 | 48.25046 | 12.85610 | 114° | 44km/h | 18140m | -7.0m/s | -54.3°C | 3.9% | 78.0hPa | 2.6V | 00:00:00 | 02:19:07 | 00:00:00 | |
| OE5DRO-10 | 2026-09-01 00:48:35 | 48.25047 | 12.85606 | 127° | 42km/h | 18147m | -6.8m/s | -54.4°C | 4.0% | 78.0hPa | 2.5V | 00:00:00 | 00:00:00 | 00:00:00 | |
| OE5MMP-10 | 2026-09-01 00:48:33 | 48.25045 | 12.85607 | 337° | 51km/h | 18160m | -6.4m/s | -54.5°C | 4.0% | 77.8hPa | 2.5V | 00:00:00 | 02:19:04 | 00:00:00 | |
| OE8JPQ-2 | 2026-09-01 00:48:32 | 48.25039 | 12.85610 | 347° | 47km/h | 18166m | -6.4m/s | -54.5°C | 4.0% | 77.8hPa | 2.5V | 00:00:00 | 02:19:03 | 00:00:00 | |
| OE5REO-15 | 2026-09-01 00:48:28 | 48.25006 | 12.85605 | 20° | 53km/h | 18189m | -7.9m/s | -54.8°C | 1.1% | 77.5hPa | 2.5V | 08:14:00 | 00:00:00 | 00:00:00 | |
| OE5MMP-10 | 2026-09-01 00:48:23 | 48.24945 | 12.85505 | 76° | 35km/h | 18237m | -7.8m/s | -54.9°C | 4.2% | 76.8hPa | 2.5V | 00:00:00 | 02:18:54 | 00:00:00 | |
| PG1ADW-2 | 2026-09-01 00:48:21 | 48.24942 | 12.85463 | 94° | 44km/h | 18252m | -7.6m/s | -54.9°C | 4.3% | 76.6hPa | 2.5V | 00:00:00 | 00:00:00 | 00:00:00 | |
| OE5WHR-10 | 2026-09-01 00:48:20 | 48.24944 | 12.85446 | 103° | 40km/h | 18260m | -7.3m/s | -55.0°C | 4.3% | 76.6hPa | 2.5V | 00:00:00 | 00:00:00 | 00:00:00 | |
| OE5HKT-10 | 2026-09-01 00:48:17 | 48.24948 | 12.85420 | 70° | 42km/h | 18282m | -7.4m/s | -54.5°C | 4.2% | 76.3hPa | 2.6V | 00:00:00 | 00:00:00 | 00:00:00 | |
| OE5DRO-10 | 2026-09-01 00:48:16 | 48.24946 | 12.85417 | 19° | 40km/h | 18290m | -7.0m/s | -54.3°C | 4.1% | 76.2hPa | 2.6V | 00:00:00 | 00:00:00 | 00:00:00 | |
| OE5MMP-10 | 2026-09-01 00:48:13 | 48.24923 | 12.85406 | 27° | 58km/h | 18311m | -7.5m/s | -53.9°C | 3.9% | 76.0hPa | 2.6V | 00:00:00 | 02:18:44 | 00:00:00 | |
| OE8JPQ-2 | 2026-09-01 00:48:12 | 48.24911 | 12.85395 | 37° | 46km/h | 18319m | -7.4m/s | -53.9°C | 3.9% | 75.9hPa | 2.6V | 00:00:00 | 00:00:00 | 00:00:00 | |
| DF7PN | 2026-09-01 00:48:11 | 48.24877 | 12.85267 | 97° | 57km/h | 18365m | -7.9m/s | 0°C | -1.0% | -1.0hPa | 2.5V | 00:00:00 | 00:00:00 | 00:00:00 | |
| OE5FHM-15 | 2026-09-01 00:48:06 | 48.24877 | 12.85267 | 98° | 42km/h | 18365m | -7.9m/s | -54.0°C | 3.8% | 75.3hPa | 2.5V | 00:00:00 | 02:18:37 | 00:00:00 | |
| DL6DJ-15 | 2026-09-01 00:48:04 | 48.24884 | 12.85231 | 116° | 40km/h | 18381m | -8.5m/s | -54.1°C | 1.1% | 75.2hPa | 2.5V | 00:00:00 | 00:00:00 | 00:00:00 | |
| OE5MMP-10 | 2026-09-01 00:48:03 | 48.24889 | 12.85219 | 125° | 33km/h | 18389m | -8.1m/s | -54.1°C | 3.9% | 75.0hPa | 2.5V | 00:00:00 | 02:18:34 | 00:00:00 | |
| PG1ADW-2 | 2026-09-01 00:48:01 | 48.24896 | 12.85207 | 127° | 38km/h | 18405m | -8.0m/s | -54.2°C | 4.0% | 74.8hPa | 2.5V | 00:00:00 | 00:00:00 | 00:00:00 | |
| OE5WHR-10 | 2026-09-01 00:47:59 | 48.24893 | 12.85203 | 21° | 44km/h | 18422m | -7.9m/s | -54.2°C | 4.0% | 74.7hPa | 2.5V | 00:00:00 | 00:00:00 | 00:00:00 | |
| OE5DRO-10 | 2026-09-01 00:47:57 | 48.24881 | 12.85192 | 36° | 47km/h | 18437m | -7.4m/s | -54.1°C | 4.0% | 74.5hPa | 2.5V | 08:14:00 | 00:00:00 | 00:00:00 | |
| OE5MMP-10 | 2026-09-01 00:47:43 | 48.24877 | 12.84992 | 36° | 57km/h | 18541m | -7.2m/s | -53.5°C | 3.8% | 73.3hPa | 2.6V | 00:00:00 | 02:18:14 | 00:00:00 | |
| OE5DXL-15 | 2026-09-01 00:47:42 | 48.24870 | 12.84984 | 43° | 47km/h | 18549m | -7.6m/s | -53.5°C | 3.8% | 73.2hPa | 2.6V | 00:00:00 | 00:00:00 | 00:00:00 | |
| DO7DH-14 | 2026-09-01 00:47:41 | 48.24862 | 12.84970 | 52° | 42km/h | 18557m | -8.1m/s | -53.5°C | 3.8% | 73.1hPa | 2.6V | 00:00:00 | 02:18:12 | 00:00:00 | |
| DF7PN | 2026-09-01 00:47:40 | 48.24843 | 12.84909 | 79° | 66km/h | 18582m | -8.2m/s | 0°C | -1.0% | -1.0hPa | 2.6V | 00:00:00 | 00:00:00 | 00:00:00 | |
| OE5WHR-10 | 2026-09-01 00:47:38 | 48.24843 | 12.84908 | 80° | 51km/h | 18582m | -8.2m/s | -53.3°C | 3.8% | 72.8hPa | 2.6V | 00:00:00 | 02:18:09 | 00:00:00 | |
| OE5FHM-15 | 2026-09-01 00:47:36 | 48.24843 | 12.84858 | 101° | 44km/h | 18598m | -7.7m/s | -53.3°C | 3.8% | 72.6hPa | 2.6V | 00:00:00 | 02:18:07 | 00:00:00 | |
| PETON7-10 | 2026-09-01 00:47:33 | 48.24863 | 12.84800 | 134° | 37km/h | 18621m | -7.6m/s | -53.1°C | 3.7% | 72.4hPa | 2.6V | 00:00:00 | 00:00:00 | 00:00:00 | |
| BAUMI2-15 | 2026-09-01 00:47:28 | 48.24881 | 12.84768 | 54° | 44km/h | 18664m | -7.9m/s | -53.3°C | 3.7% | 71.9hPa | 2.5V | 00:00:00 | 02:17:59 | 00:00:00 | |
| OE5REO-15 | 2026-09-01 00:47:26 | 48.24877 | 12.84761 | 50° | 33km/h | 18671m | -7.5m/s | -53.4°C | 1.1% | 71.9hPa | 2.5V | 08:15:00 | 00:00:00 | 00:00:00 | |
| BAUMI2-15 | 2026-09-01 00:47:23 | 48.24856 | 12.84686 | 83° | 69km/h | 18701m | -7.9m/s | -53.5°C | 3.8% | 71.5hPa | 2.5V | 00:00:00 | 02:17:54 | 00:00:00 | |
| OE5HKT-10 | 2026-09-01 00:47:21 | 48.24858 | 12.84632 | 102° | 44km/h | 18719m | -9.1m/s | 0°C | 0% | 0hPa | 2.5V | 00:00:00 | 02:17:52 | 00:00:00 | |
| OE5DRO-10 | 2026-09-01 00:47:19 | 48.24879 | 12.84565 | 131° | 40km/h | 18745m | -8.0m/s | -53.7°C | 3.8% | 71.0hPa | 2.5V | 00:00:00 | 00:00:00 | 00:00:00 | |
| BAUMI2-15 | 2026-09-01 00:47:18 | 48.24879 | 12.84565 | 131° | 35km/h | 18745m | -8.0m/s | -53.7°C | 3.8% | 71.0hPa | 2.5V | 08:15:00 | 02:17:49 | 00:00:00 | |
| OE5WHR-10 | 2026-09-01 00:47:17 | 48.24888 | 12.84551 | 141° | 37km/h | 18753m | -7.4m/s | -53.7°C | 3.8% | 70.9hPa | 2.6V | 08:15:00 | 00:00:00 | 00:00:00 | |
| PETON7-10 | 2026-09-01 00:47:15 | 48.24903 | 12.84537 | 157° | 24km/h | 18768m | -7.8m/s | -53.7°C | 3.9% | 70.7hPa | 2.6V | 00:00:00 | 00:00:00 | 00:00:00 | |
| BAUMI2-15 | 2026-09-01 00:47:13 | 48.24908 | 12.84532 | 72° | 26km/h | 18785m | -8.9m/s | -53.8°C | 4.0% | 70.5hPa | 2.6V | 00:00:00 | 02:17:44 | 00:00:00 | |
| OE5DXL-15 | 2026-09-01 00:47:12 | 48.24906 | 12.84529 | 44° | 37km/h | 18794m | -9.0m/s | -53.9°C | 4.0% | 70.4hPa | 2.6V | 00:00:00 | 00:00:00 | 00:00:00 | |
| OE5REO-15 | 2026-09-01 00:47:11 | 48.24906 | 12.84529 | 44° | 16km/h | 18794m | -9.1m/s | -53.9°C | 1.1% | 70.5hPa | 2.6V | 08:15:00 | 00:00:00 | 00:00:00 | |
| OE8JPQ-2 | 2026-09-01 00:47:10 | 48.24897 | 12.84514 | 55° | 37km/h | 18812m | -8.6m/s | -54.0°C | 4.1% | 70.2hPa | 2.6V | 00:00:00 | 02:17:41 | 00:00:00 | |
| BAUMI2-15 | 2026-09-01 00:47:08 | 48.24889 | 12.84485 | 78° | 57km/h | 18828m | -7.3m/s | -53.9°C | 4.2% | 70.1hPa | 2.6V | 00:00:00 | 02:17:39 | 00:00:00 | |
| OE5FHM-15 | 2026-09-01 00:47:06 | 48.24890 | 12.84443 | 105° | 35km/h | 18843m | -7.0m/s | -53.9°C | 4.2% | 69.9hPa | 2.6V | 00:00:00 | 02:17:37 | 00:00:00 | |
| BAUMI2-15 | 2026-09-01 00:47:03 | 48.24914 | 12.84391 | 145° | 40km/h | 18867m | -8.7m/s | -53.3°C | 3.9% | 69.7hPa | 2.5V | 00:00:00 | 02:17:34 | 00:00:00 | |
| DL6DJ-15 | 2026-09-01 00:47:02 | 48.24925 | 12.84382 | 157° | 47km/h | 18876m | -8.9m/s | -53.3°C | 1.1% | 69.6hPa | 2.5V | 00:00:00 | 00:00:00 | 00:00:00 | |
| PG1ADW-2 | 2026-09-01 00:47:01 | 48.24936 | 12.84377 | 172° | 31km/h | 18885m | -8.6m/s | -53.0°C | 3.8% | 69.4hPa | 2.5V | 00:00:00 | 00:00:00 | 00:00:00 | |
| PETON7-10 | 2026-09-01 00:47:00 | 48.24945 | 12.84377 | 189° | 24km/h | 18894m | -9.0m/s | -52.8°C | 3.7% | 69.3hPa | 2.5V | 00:00:00 | 02:17:31 | 00:00:00 | |
| BAUMI2-15 | 2026-09-01 00:46:58 | 48.24957 | 12.84386 | 235° | 20km/h | 18911m | -8.2m/s | -52.7°C | 3.7% | 69.2hPa | 2.5V | 00:00:00 | 02:17:29 | 00:00:00 | |
| OE5WHR-10 | 2026-09-01 00:46:56 | 48.24957 | 12.84397 | 321° | 33km/h | 18927m | -7.9m/s | -52.4°C | 3.6% | 69.0hPa | 2.5V | 00:00:00 | 00:00:00 | 00:00:00 | |
| OE5REO-15 | 2026-09-01 00:46:55 | 48.24957 | 12.84397 | 322° | 16km/h | 18927m | -8.0m/s | -52.4°C | 1.0% | 69.1hPa | 2.5V | 08:16:00 | 00:00:00 | 00:00:00 | |
| OE5MMP-10 | 2026-09-01 00:46:53 | 48.24940 | 12.84393 | 39° | 37km/h | 18952m | -8.8m/s | -52.2°C | 3.4% | 68.7hPa | 2.5V | 00:00:00 | 02:17:24 | 00:00:00 | |
| BAUMI2-15 | 2026-09-01 00:46:48 | 48.24933 | 12.84325 | 119° | 37km/h | 18997m | -8.1m/s | -52.4°C | 3.5% | 68.2hPa | 2.6V | 00:00:00 | 02:17:19 | 00:00:00 | |
| PETON7-10 | 2026-09-01 00:46:45 | 48.24955 | 12.84301 | 179° | 35km/h | 19020m | -8.4m/s | -52.5°C | 3.5% | 68.0hPa | 2.5V | 00:00:00 | 00:00:00 | 00:00:00 | |
| OE5MMP-10 | 2026-09-01 00:46:43 | 48.24967 | 12.84308 | 233° | 35km/h | 19037m | -8.3m/s | -52.6°C | 3.5% | 67.8hPa | 2.5V | 00:00:00 | 02:17:14 | 00:00:00 | |
| OE5DXL-15 | 2026-09-01 00:46:42 | 48.24969 | 12.84315 | 267° | 38km/h | 19046m | -8.6m/s | -52.7°C | 3.5% | 67.7hPa | 2.5V | 00:00:00 | 00:00:00 | 00:00:00 | |
| PG1ADW-2 | 2026-09-01 00:46:41 | 48.24968 | 12.84323 | 303° | 35km/h | 19055m | -8.9m/s | -52.8°C | 3.5% | 67.6hPa | 2.6V | 00:00:00 | 00:00:00 | 00:00:00 | |
| OE5REO-15 | 2026-09-01 00:46:40 | 48.24968 | 12.84323 | 303° | 22km/h | 19055m | -9.0m/s | -52.8°C | 1.0% | 67.7hPa | 2.6V | 08:16:00 | 00:00:00 | 00:00:00 | |
| BAUMI2-15 | 2026-09-01 00:46:38 | 48.24949 | 12.84331 | 11° | 44km/h | 19082m | -9.0m/s | -53.0°C | 3.6% | 67.4hPa | 2.6V | 00:00:00 | 02:17:09 | 00:00:00 | |
| OE5FHM-15 | 2026-09-01 00:46:36 | 48.24931 | 12.84318 | 42° | 37km/h | 19100m | -9.1m/s | -53.1°C | 3.6% | 67.2hPa | 2.6V | 00:00:00 | 02:17:07 | 00:00:00 | |
| BAUMI2-15 | 2026-09-01 00:46:33 | 48.24915 | 12.84271 | 84° | 37km/h | 19127m | -8.7m/s | -53.3°C | 3.7% | 66.9hPa | 2.6V | 08:16:00 | 02:17:04 | 00:00:00 | |
| DL6DJ-15 | 2026-09-01 00:46:31 | 48.24918 | 12.84239 | 116° | 38km/h | 19144m | -8.5m/s | -53.5°C | 1.1% | 66.8hPa | 2.5V | 00:00:00 | 00:00:00 | 00:00:00 | |
| BAUMI2-15 | 2026-09-01 00:46:28 | 48.24933 | 12.84222 | 200° | 24km/h | 19169m | -8.2m/s | -53.6°C | 3.7% | 66.4hPa | 2.5V | 00:00:00 | 02:16:59 | 00:00:00 | |
| OE5REO-15 | 2026-09-01 00:46:24 | 48.24929 | 12.84237 | 330° | 29km/h | 19194m | -8.9m/s | -53.8°C | 1.1% | 66.2hPa | 2.5V | 08:16:00 | 00:00:00 | 00:00:00 | |
| OE5MMP-10 | 2026-09-01 00:46:23 | 48.24912 | 12.84243 | 1° | 49km/h | 19213m | -9.3m/s | -53.9°C | 3.8% | 66.0hPa | 2.5V | 00:00:00 | 02:16:54 | 00:00:00 | |
| OE5DRO-10 | 2026-09-01 00:46:22 | 48.24900 | 12.84241 | 13° | 40km/h | 19222m | -9.2m/s | -54.0°C | 3.8% | 65.9hPa | 2.6V | 00:00:00 | 00:00:00 | 00:00:00 | |
| PG1ADW-2 | 2026-09-01 00:46:21 | 48.24887 | 12.84235 | 25° | 42km/h | 19231m | -9.2m/s | -54.1°C | 3.8% | 65.8hPa | 2.6V | 00:00:00 | 00:00:00 | 00:00:00 | |
| BAUMI2-15 | 2026-09-01 00:46:18 | 48.24856 | 12.84191 | 62° | 46km/h | 19259m | -8.9m/s | -54.3°C | 3.9% | 65.5hPa | 2.5V | 00:00:00 | 02:16:49 | 00:00:00 | |
| OE5HKT-10 | 2026-09-01 00:46:14 | 48.24853 | 12.84123 | 119° | 33km/h | 19294m | -8.6m/s | -54.5°C | 4.0% | 65.1hPa | 2.5V | 00:00:00 | 00:00:00 | 00:00:00 | |
| OE5MMP-10 | 2026-09-01 00:46:13 | 48.24856 | 12.84116 | 138° | 31km/h | 19303m | -8.4m/s | -54.6°C | 3.9% | 65.0hPa | 2.5V | 00:00:00 | 02:16:44 | 00:00:00 | |
| OE5DXL-15 | 2026-09-01 00:46:12 | 48.24860 | 12.84113 | 174° | 37km/h | 19312m | -8.9m/s | -54.6°C | 4.0% | 64.9hPa | 2.5V | 00:00:00 | 00:00:00 | 00:00:00 | |
| OE5REO-15 | 2026-09-01 00:46:09 | 48.24860 | 12.84118 | 308° | 15km/h | 19330m | -9.2m/s | -54.8°C | 1.1% | 64.8hPa | 2.5V | 08:17:00 | 00:00:00 | 00:00:00 | |
| BAUMI2-15 | 2026-09-01 00:46:08 | 48.24849 | 12.84126 | 351° | 46km/h | 19349m | -9.3m/s | -54.7°C | 4.1% | 64.6hPa | 2.5V | 00:00:00 | 02:16:39 | 00:00:00 | |
| OE5FHM-15 | 2026-09-01 00:46:06 | 48.24830 | 12.84122 | 23° | 37km/h | 19366m | -8.7m/s | -54.7°C | 4.1% | 64.4hPa | 2.5V | 00:00:00 | 02:16:37 | 00:00:00 | |
| OE5MMP-10 | 2026-09-01 00:46:03 | 48.24803 | 12.84079 | 70° | 37km/h | 19392m | -8.4m/s | -54.7°C | 4.0% | 64.2hPa | 2.5V | 00:00:00 | 02:16:34 | 00:00:00 | |
| DL6DJ-15 | 2026-09-01 00:46:00 | 48.24804 | 12.84021 | 112° | 46km/h | 19419m | -9.5m/s | -54.5°C | 1.1% | 63.9hPa | 2.5V | 00:00:00 | 00:00:00 | 00:00:00 | |
| BAUMI2-15 | 2026-09-01 00:45:58 | 48.24816 | 12.83996 | 142° | 24km/h | 19439m | -9.9m/s | -54.5°C | 3.9% | 63.7hPa | 2.5V | 00:00:00 | 02:16:29 | 00:00:00 | |
| BAUMI2-15 | 2026-09-01 00:45:53 | 48.24833 | 12.84002 | 309° | 33km/h | 19485m | -8.7m/s | -54.6°C | 4.0% | 63.2hPa | 2.5V | 00:00:00 | 02:16:24 | 00:00:00 | |
| OE5DRO-10 | 2026-09-01 00:45:52 | 48.24828 | 12.84008 | 335° | 37km/h | 19493m | -8.9m/s | -54.6°C | 4.0% | 63.1hPa | 2.5V | 00:00:00 | 00:00:00 | 00:00:00 | |
| OE5HKT-10 | 2026-09-01 00:45:51 | 48.24821 | 12.84010 | 355° | 37km/h | 19502m | -9.1m/s | -54.7°C | 4.0% | 63.1hPa | 2.6V | 00:00:00 | 02:16:22 | 00:00:00 | |
| BAUMI2-15 | 2026-09-01 00:45:48 | 48.24794 | 12.83995 | 45° | 44km/h | 19530m | -9.4m/s | -54.8°C | 4.1% | 62.8hPa | 2.6V | 08:16:00 | 02:16:19 | 00:00:00 | |
| BAUMI2-15 | 2026-09-01 00:45:43 | 48.24790 | 12.83923 | 136° | 27km/h | 19575m | -8.8m/s | -54.9°C | 4.2% | 62.3hPa | 2.6V | 00:00:00 | 02:16:14 | 00:00:00 | |
| OE5DXL-15 | 2026-09-01 00:45:42 | 48.24796 | 12.83917 | 161° | 37km/h | 19584m | -8.9m/s | -54.9°C | 4.2% | 62.3hPa | 2.6V | 00:00:00 | 00:00:00 | 00:00:00 | |
| PG1ADW-2 | 2026-09-01 00:45:41 | 48.24803 | 12.83916 | 192° | 35km/h | 19593m | -8.6m/s | -54.9°C | 4.2% | 62.2hPa | 2.6V | 00:00:00 | 00:00:00 | 00:00:00 | |
| BAUMI2-15 | 2026-09-01 00:45:38 | 48.24808 | 12.83937 | 293° | 38km/h | 19620m | -9.3m/s | -54.9°C | 4.2% | 61.9hPa | 2.6V | 00:00:00 | 02:16:09 | 00:00:00 | |
| OE5REO-15 | 2026-09-01 00:45:37 | 48.24808 | 12.83937 | 294° | 29km/h | 19620m | -9.4m/s | -55.0°C | 1.2% | 61.9hPa | 2.6V | 08:17:00 | 00:00:00 | 00:00:00 | |
| OE5FHM-15 | 2026-09-01 00:45:36 | 48.24797 | 12.83955 | 333° | 37km/h | 19639m | -9.6m/s | -54.7°C | 4.1% | 61.7hPa | 2.6V | 08:16:00 | 02:16:07 | 00:00:00 | |
| OE5DRO-10 | 2026-09-01 00:45:34 | 48.24764 | 12.83959 | 16° | 38km/h | 19668m | -9.3m/s | -54.7°C | 4.1% | 61.4hPa | 2.5V | 00:00:00 | 00:00:00 | 00:00:00 | |
| OE5MMP-10 | 2026-09-01 00:45:33 | 48.24764 | 12.83959 | 16° | 38km/h | 19668m | -9.3m/s | -54.7°C | 4.1% | 61.4hPa | 2.5V | 00:00:00 | 02:16:04 | 00:00:00 | |
| OE5WHR-10 | 2026-09-01 00:45:32 | 48.24752 | 12.83951 | 30° | 38km/h | 19677m | -9.2m/s | -54.7°C | 4.1% | 61.3hPa | 2.5V | 00:00:00 | 02:16:03 | 00:00:00 | |
| OE5HKT-10 | 2026-09-01 00:45:30 | 48.24734 | 12.83925 | 59° | 37km/h | 19696m | -9.6m/s | -54.7°C | 4.1% | 61.1hPa | 2.5V | 08:17:00 | 00:00:00 | 00:00:00 | |
| DL6DJ-15 | 2026-09-01 00:45:29 | 48.24729 | 12.83910 | 72° | 44km/h | 19706m | -9.7m/s | -54.8°C | 1.1% | 61.1hPa | 2.5V | 00:00:00 | 00:00:00 | 00:00:00 | |
| OE5MMP-10 | 2026-09-01 00:45:23 | 48.24745 | 12.83866 | 239° | 38km/h | 19763m | -9.0m/s | -54.3°C | 4.0% | 60.5hPa | 2.5V | 00:00:00 | 02:15:54 | 00:00:00 | |
| PG1ADW-2 | 2026-09-01 00:45:21 | 48.24743 | 12.83882 | 306° | 37km/h | 19781m | -9.0m/s | -54.1°C | 4.0% | 60.3hPa | 2.6V | 00:00:00 | 00:00:00 | 00:00:00 | |
| OE5DRO-10 | 2026-09-01 00:45:14 | 48.24683 | 12.83851 | 74° | 33km/h | 19846m | -9.5m/s | -54.2°C | 4.0% | 59.7hPa | 2.5V | 00:00:00 | 00:00:00 | 00:00:00 | |
| OE5MMP-10 | 2026-09-01 00:45:13 | 48.24681 | 12.83834 | 90° | 31km/h | 19856m | -9.2m/s | -54.2°C | 4.0% | 59.6hPa | 2.5V | 00:00:00 | 02:15:44 | 00:00:00 | |
| OE5DXL-15 | 2026-09-01 00:45:12 | 48.24683 | 12.83818 | 109° | 37km/h | 19865m | -9.5m/s | -54.2°C | 4.0% | 59.5hPa | 2.5V | 00:00:00 | 00:00:00 | 00:00:00 | |
| OE5WHR-10 | 2026-09-01 00:45:11 | 48.24687 | 12.83806 | 129° | 33km/h | 19874m | -9.5m/s | -54.2°C | 4.0% | 59.5hPa | 2.5V | 00:00:00 | 00:00:00 | 00:00:00 | |
| OE5HKT-10 | 2026-09-01 00:45:09 | 48.24700 | 12.83795 | 178° | 37km/h | 19894m | -9.3m/s | -54.2°C | 4.0% | 59.3hPa | 2.6V | 00:00:00 | 00:00:00 | 00:00:00 | |
| OE5REO-15 | 2026-09-01 00:45:07 | 48.24708 | 12.83803 | 250° | 22km/h | 19912m | -9.1m/s | -54.3°C | 1.1% | 59.2hPa | 2.6V | 08:17:00 | 00:00:00 | 00:00:00 | |
| OE5FHM-15 | 2026-09-01 00:45:06 | 48.24709 | 12.83811 | 281° | 38km/h | 19921m | -8.9m/s | -54.2°C | 4.0% | 59.0hPa | 2.6V | 00:00:00 | 02:15:37 | 00:00:00 | |
| DL6DJ-15 | 2026-09-01 00:44:58 | 48.24643 | 12.83803 | 65° | 44km/h | 19998m | -8.7m/s | -54.3°C | 1.2% | 58.4hPa | 2.6V | 00:00:00 | 00:00:00 | 00:00:00 | |
| OE5MMP-10 | 2026-09-01 00:44:53 | 48.24654 | 12.83751 | 180° | 37km/h | 20045m | -10.0m/s | -54.0°C | 4.1% | 57.9hPa | 2.6V | 00:00:00 | 02:15:24 | 00:00:00 | |
| OE5REO-15 | 2026-09-01 00:44:51 | 48.24659 | 12.83753 | 218° | 20km/h | 20056m | -9.6m/s | -53.9°C | 1.1% | 57.8hPa | 2.5V | 08:17:00 | 00:00:00 | 00:00:00 | |
| OE5WHR-10 | 2026-09-01 00:44:50 | 48.24662 | 12.83769 | 285° | 38km/h | 20074m | -8.8m/s | -53.6°C | 4.0% | 57.6hPa | 2.5V | 00:00:00 | 00:00:00 | 00:00:00 | |
| OE5MMP-10 | 2026-09-01 00:44:43 | 48.24595 | 12.83769 | 47° | 35km/h | 20140m | -10.0m/s | -53.1°C | 3.8% | 57.0hPa | 2.5V | 00:00:00 | 02:15:14 | 00:00:00 | |
| OE5HKT-10 | 2026-09-01 00:44:42 | 48.24588 | 12.83753 | 61° | 37km/h | 20150m | -10.1m/s | -53.1°C | 3.8% | 56.9hPa | 2.5V | 00:00:00 | 02:15:13 | 00:00:00 | |
| PG1ADW-2 | 2026-09-01 00:44:41 | 48.24581 | 12.83719 | 90° | 38km/h | 20170m | -10.4m/s | -53.2°C | 3.8% | 56.8hPa | 2.5V | 00:00:00 | 02:15:11 | 00:00:00 | |
| OE5FHM-15 | 2026-09-01 00:44:36 | 48.24595 | 12.83682 | 188° | 38km/h | 20208m | -9.0m/s | -53.2°C | 3.8% | 56.5hPa | 2.5V | 00:00:00 | 02:15:07 | 00:00:00 | |
| OE5MMP-10 | 2026-09-01 00:44:33 | 48.24595 | 12.83717 | 313° | 47km/h | 20236m | -9.5m/s | -53.2°C | 3.8% | 56.2hPa | 2.5V | 00:00:00 | 02:15:04 | 00:00:00 | |
| OE5WHR-10 | 2026-09-01 00:44:29 | 48.24553 | 12.83711 | 16° | 40km/h | 20276m | -9.8m/s | -53.2°C | 3.8% | 55.9hPa | 2.5V | 00:00:00 | 02:15:00 | 00:00:00 | |
| DL6DJ-15 | 2026-09-01 00:44:27 | 48.24530 | 12.83691 | 44° | 55km/h | 20294m | -9.4m/s | -53.3°C | 1.1% | 55.7hPa | 2.5V | 00:00:00 | 00:00:00 | 00:00:00 | |
| OE5MMP-10 | 2026-09-01 00:44:23 | 48.24518 | 12.83625 | 115° | 29km/h | 20332m | -9.4m/s | -53.0°C | 3.8% | 55.3hPa | 2.5V | 08:18:00 | 02:14:54 | 00:00:00 | |
| OE5HKT-10 | 2026-09-01 00:44:21 | 48.24529 | 12.83609 | 164° | 35km/h | 20352m | -10.8m/s | -52.9°C | 3.7% | 55.1hPa | 2.5V | 00:00:00 | 00:00:00 | 00:00:00 | |
| OE5MMP-10 | 2026-09-01 00:44:13 | 48.24519 | 12.83649 | 13° | 40km/h | 20431m | -9.1m/s | -53.1°C | 3.8% | 54.5hPa | 2.6V | 00:00:00 | 02:14:44 | 00:00:00 | |
| OE5DXL-15 | 2026-09-01 00:44:12 | 48.24509 | 12.83643 | 34° | 38km/h | 20440m | -9.8m/s | -53.1°C | 3.8% | 54.4hPa | 2.6V | 00:00:00 | 00:00:00 | 00:00:00 | |
| OE5WHR-10 | 2026-09-01 00:44:08 | 48.24493 | 12.83582 | 106° | 37km/h | 20479m | -9.9m/s | -52.9°C | 3.7% | 54.1hPa | 2.6V | 08:18:00 | 00:00:00 | 00:00:00 | |
| OE5FHM-15 | 2026-09-01 00:44:06 | 48.24504 | 12.83557 | 145° | 38km/h | 20498m | -9.9m/s | -52.9°C | 3.7% | 53.9hPa | 2.5V | 00:00:00 | 02:14:37 | 00:00:00 | |
| OE5REO-15 | 2026-09-01 00:44:05 | 48.24504 | 12.83557 | 145° | 37km/h | 20498m | -10.0m/s | -53.0°C | 1.0% | 54.0hPa | 2.6V | 08:18:00 | 00:00:00 | 00:00:00 | |
| OE5MMP-10 | 2026-09-01 00:44:03 | 48.24526 | 12.83556 | 225° | 38km/h | 20528m | -9.5m/s | -53.0°C | 3.8% | 53.7hPa | 2.6V | 00:00:00 | 02:14:34 | 00:00:00 | |
| DF7PN | 2026-09-01 00:44:02 | 48.24472 | 12.83544 | 87° | 44km/h | 20625m | -9.8m/s | 0°C | -1.0% | -1.0hPa | 2.6V | 00:00:00 | 00:00:00 | 00:00:00 | |
| PG1ADW-2 | 2026-09-01 00:44:01 | 48.24518 | 12.83593 | 337° | 38km/h | 20565m | -10.1m/s | -53.1°C | 3.8% | 53.3hPa | 2.6V | 00:00:00 | 00:00:00 | 00:00:00 | |
| OE5HKT-10 | 2026-09-01 00:43:57 | 48.24498 | 12.83594 | 16° | 40km/h | 20586m | -9.9m/s | -53.0°C | 3.7% | 53.2hPa | 2.6V | 00:00:00 | 00:00:00 | 00:00:00 | |
| OE5MMP-10 | 2026-09-01 00:43:53 | 48.24472 | 12.83544 | 88° | 37km/h | 20625m | -9.8m/s | -53.2°C | 3.8% | 52.9hPa | 2.6V | 00:00:00 | 02:14:24 | 00:00:00 | |
| OE5REO-15 | 2026-09-01 00:43:50 | 48.24478 | 12.83514 | 127° | 38km/h | 20645m | -9.8m/s | -53.2°C | 1.1% | 52.8hPa | 2.6V | 08:18:00 | 00:00:00 | 00:00:00 | |
| OE5WHR-10 | 2026-09-01 00:43:47 | 48.24506 | 12.83508 | 230° | 38km/h | 20683m | -9.7m/s | -53.0°C | 3.8% | 52.4hPa | 2.6V | 00:00:00 | 00:00:00 | 00:00:00 | |
| OE5MMP-10 | 2026-09-01 00:43:43 | 48.24498 | 12.83554 | 323° | 40km/h | 20723m | -9.6m/s | -53.0°C | 3.8% | 52.1hPa | 2.6V | 00:00:00 | 02:14:14 | 00:00:00 | |
| OE5DXL-15 | 2026-09-01 00:43:42 | 48.24488 | 12.83562 | 342° | 38km/h | 20733m | -10.3m/s | -53.0°C | 3.8% | 51.9hPa | 2.6V | 08:18:00 | 00:00:00 | 00:00:00 | |
| PG1ADW-2 | 2026-09-01 00:43:41 | 48.24477 | 12.83565 | 357° | 38km/h | 20743m | -9.9m/s | -53.0°C | 3.8% | 51.9hPa | 2.5V | 00:00:00 | 00:00:00 | 00:00:00 | |
| OE5FHM-15 | 2026-09-01 00:43:36 | 48.24438 | 12.83520 | 91° | 37km/h | 20793m | -9.2m/s | -53.0°C | 3.7% | 51.5hPa | 2.5V | 00:00:00 | 02:14:07 | 00:00:00 | |
| OE5REO-15 | 2026-09-01 00:43:34 | 48.24440 | 12.83508 | 117° | 33km/h | 20802m | -9.2m/s | -53.1°C | 1.0% | 51.5hPa | 2.5V | 08:19:00 | 00:00:00 | 00:00:00 | |
| OE5MMP-10 | 2026-09-01 00:43:33 | 48.24452 | 12.83494 | 170° | 37km/h | 20820m | -9.5m/s | -53.1°C | 3.7% | 51.3hPa | 2.5V | 00:00:00 | 02:14:04 | 00:00:00 | |
| DO7DH-14 | 2026-09-01 00:43:27 | 48.24471 | 12.83551 | 300° | 44km/h | 20881m | -9.7m/s | -53.2°C | 3.8% | 50.8hPa | 2.5V | 08:19:00 | 02:13:58 | 00:00:00 | |
| OE5WHR-10 | 2026-09-01 00:43:26 | 48.24464 | 12.83563 | 319° | 38km/h | 20891m | -10.3m/s | -53.2°C | 3.8% | 50.7hPa | 2.5V | 00:00:00 | 02:13:57 | 00:00:00 | |
| DL6DJ-15 | 2026-09-01 00:43:25 | 48.24445 | 12.83576 | 354° | 40km/h | 20911m | -10.0m/s | -53.1°C | 1.0% | 50.6hPa | 2.5V | 00:00:00 | 00:00:00 | 00:00:00 | |
| BAUMI2-15 | 2026-09-01 00:43:24 | 48.24445 | 12.83576 | 355° | 38km/h | 20911m | -9.9m/s | -53.1°C | 3.7% | 50.6hPa | 2.5V | 00:00:00 | 02:13:55 | 00:00:00 | |
| OE5MMP-10 | 2026-09-01 00:43:23 | 48.24435 | 12.83575 | 16° | 38km/h | 20921m | -9.7m/s | -53.1°C | 3.7% | 50.5hPa | 2.5V | 00:00:00 | 02:13:54 | 00:00:00 | |
| PG1ADW-2 | 2026-09-01 00:43:21 | 48.24421 | 12.83558 | 61° | 38km/h | 20941m | -9.4m/s | -53.2°C | 3.7% | 50.3hPa | 2.5V | 00:00:00 | 02:13:52 | 00:00:00 | |
| BAUMI2-15 | 2026-09-01 00:43:19 | 48.24419 | 12.83533 | 110° | 38km/h | 20960m | -10.3m/s | -53.2°C | 3.8% | 50.2hPa | 2.6V | 00:00:00 | 02:13:50 | 00:00:00 | |
| OE5HKT-10 | 2026-09-01 00:43:15 | 48.24449 | 12.83506 | 187° | 38km/h | 21002m | -11.0m/s | -53.4°C | 3.8% | 49.8hPa | 2.6V | 00:00:00 | 00:00:00 | 00:00:00 | |
| BAUMI2-15 | 2026-09-01 00:43:14 | 48.24459 | 12.83510 | 205° | 38km/h | 21013m | -10.5m/s | -53.4°C | 3.8% | 49.7hPa | 2.6V | 00:00:00 | 02:13:45 | 00:00:00 | |
| OE5MMP-10 | 2026-09-01 00:43:13 | 48.24468 | 12.83519 | 225° | 38km/h | 21024m | -10.2m/s | -53.4°C | 3.9% | 49.7hPa | 2.5V | 00:00:00 | 02:13:44 | 00:00:00 | |
| OE5DXL-15 | 2026-09-01 00:43:12 | 48.24474 | 12.83531 | 245° | 38km/h | 21034m | -9.6m/s | -53.4°C | 3.8% | 49.6hPa | 2.5V | 00:00:00 | 00:00:00 | 00:00:00 | |
| BAUMI2-15 | 2026-09-01 00:43:09 | 48.24469 | 12.83569 | 321° | 37km/h | 21062m | -9.4m/s | -53.4°C | 3.8% | 49.4hPa | 2.5V | 00:00:00 | 02:13:40 | 00:00:00 | |
| OE5FHM-15 | 2026-09-01 00:43:06 | 48.24444 | 12.83570 | 33° | 40km/h | 21092m | -10.7m/s | -53.3°C | 3.8% | 49.1hPa | 2.5V | 00:00:00 | 02:13:37 | 00:00:00 | |
| OE5WHR-10 | 2026-09-01 00:43:05 | 48.24437 | 12.83560 | 52° | 38km/h | 21103m | -10.7m/s | -53.3°C | 3.7% | 49.0hPa | 2.5V | 00:00:00 | 00:00:00 | 00:00:00 | |
| BAUMI2-15 | 2026-09-01 00:43:04 | 48.24432 | 12.83547 | 70° | 42km/h | 21113m | -10.4m/s | -53.4°C | 3.8% | 49.0hPa | 2.5V | 00:00:00 | 02:13:35 | 00:00:00 | |
| OE5MMP-10 | 2026-09-01 00:43:03 | 48.24430 | 12.83532 | 90° | 40km/h | 21124m | -10.8m/s | -53.4°C | 3.8% | 48.9hPa | 2.5V | 00:00:00 | 02:13:34 | 00:00:00 | |
| PG1ADW-2 | 2026-09-01 00:43:01 | 48.24436 | 12.83502 | 126° | 38km/h | 21145m | -10.0m/s | -53.5°C | 3.8% | 48.7hPa | 2.5V | 00:00:00 | 00:00:00 | 00:00:00 | |
| OE5DRO-10 | 2026-09-01 00:43:00 | 48.24444 | 12.83490 | 146° | 38km/h | 21155m | -10.1m/s | -53.5°C | 3.8% | 48.6hPa | 2.5V | 00:00:00 | 00:00:00 | 00:00:00 | |
| BAUMI2-15 | 2026-09-01 00:42:59 | 48.24454 | 12.83484 | 165° | 40km/h | 21165m | -10.1m/s | -53.5°C | 3.8% | 48.5hPa | 2.6V | 08:19:00 | 02:13:30 | 00:00:00 | |
| BAUMI2-15 | 2026-09-01 00:42:54 | 48.24490 | 12.83520 | 266° | 35km/h | 21217m | -10.0m/s | -53.7°C | 3.8% | 48.2hPa | 2.6V | 00:00:00 | 02:13:25 | 00:00:00 | |
| OE5MMP-10 | 2026-09-01 00:42:53 | 48.24489 | 12.83533 | 289° | 35km/h | 21227m | -10.0m/s | -53.7°C | 3.8% | 48.1hPa | 2.6V | 08:19:00 | 02:13:24 | 00:00:00 | |
| BAUMI2-15 | 2026-09-01 00:42:49 | 48.24463 | 12.83552 | 25° | 35km/h | 21269m | -10.6m/s | -53.8°C | 3.9% | 47.8hPa | 2.6V | 00:00:00 | 02:13:20 | 00:00:00 | |
| OE5DXL-15 | 2026-09-01 00:42:48 | 48.24483 | 12.83489 | 185° | 44km/h | 21341m | -9.9m/s | -53.9°C | 3.9% | 47.3hPa | 2.6V | 00:00:00 | 00:00:00 | 00:00:00 | |
| BAUMI2-15 | 2026-09-01 00:42:47 | 48.24511 | 12.83517 | 243° | 44km/h | 21373m | -10.5m/s | -54.1°C | 3.9% | 47.0hPa | 2.6V | 00:00:00 | 02:13:10 | 00:00:00 | |
| OE5FHM-15 | 2026-09-01 00:42:38 | 48.24510 | 12.83565 | 300° | 40km/h | 21405m | -10.9m/s | -54.3°C | 4.0% | 46.8hPa | 2.6V | 00:00:00 | 02:13:07 | 00:00:00 | |
| BAUMI2-15 | 2026-09-01 00:42:34 | 48.24494 | 12.83586 | 337° | 44km/h | 21427m | -10.4m/s | -54.4°C | 4.1% | 46.6hPa | 2.5V | 00:00:00 | 02:13:05 | 00:00:00 | |
| OE5MMP-10 | 2026-09-01 00:42:33 | 48.24483 | 12.83591 | 355° | 35km/h | 21437m | -10.7m/s | -54.4°C | 4.1% | 46.5hPa | 2.5V | 00:00:00 | 02:13:04 | 00:00:00 | |
| BAUMI2-15 | 2026-09-01 00:42:29 | 48.24448 | 12.83564 | 66° | 27km/h | 21481m | -10.8m/s | -54.1°C | 4.1% | 46.2hPa | 2.5V | 00:00:00 | 02:13:00 | 00:00:00 | |
| OE5HKT-10 | 2026-09-01 00:42:27 | 48.24452 | 12.83538 | 163° | 37km/h | 21512m | -9.5m/s | -54.0°C | 4.0% | 46.0hPa | 2.6V | 00:00:00 | 02:12:57 | 00:00:00 | |
| BAUMI2-15 | 2026-09-01 00:42:24 | 48.24464 | 12.83545 | 234° | 44km/h | 21531m | -10.1m/s | -54.1°C | 4.0% | 45.9hPa | 2.6V | 00:00:00 | 02:12:55 | 00:00:00 | |
| DL6DJ-15 | 2026-09-01 00:42:23 | 48.24468 | 12.83572 | 275° | 44km/h | 21552m | -11.1m/s | -54.1°C | 1.1% | 45.8hPa | 2.6V | 00:00:00 | 00:00:00 | 00:00:00 | |
| OE5DRO-10 | 2026-09-01 00:42:22 | 48.24468 | 12.83572 | 276° | 44km/h | 21552m | -11.1m/s | -54.0°C | 4.0% | 45.7hPa | 2.6V | 00:00:00 | 00:00:00 | 00:00:00 | |
| PG1ADW-2 | 2026-09-01 00:42:21 | 48.24465 | 12.83590 | 293° | 44km/h | 21564m | -11.0m/s | -54.0°C | 4.0% | 45.6hPa | 2.6V | 00:00:00 | 00:00:00 | 00:00:00 | |
| BAUMI2-15 | 2026-09-01 00:42:19 | 48.24448 | 12.83622 | 322° | 58km/h | 21586m | -11.1m/s | -54.0°C | 4.0% | 45.5hPa | 2.6V | 00:00:00 | 02:12:50 | 00:00:00 | |
| OE5REO-15 | 2026-09-01 00:42:18 | 48.24448 | 12.83622 | 322° | 58km/h | 21586m | -11.2m/s | -54.0°C | 1.1% | 45.5hPa | 2.6V | 08:20:00 | 00:00:00 | 00:00:00 | |
| BAUMI2-15 | 2026-09-01 00:42:14 | 48.24380 | 12.83629 | 37° | 40km/h | 21640m | -10.2m/s | -54.0°C | 3.9% | 45.1hPa | 2.6V | 08:20:00 | 02:12:45 | 00:00:00 | |
| OE5MMP-10 | 2026-09-01 00:42:13 | 48.24371 | 12.83616 | 55° | 33km/h | 21651m | -10.4m/s | -54.1°C | 3.9% | 45.0hPa | 2.5V | 00:00:00 | 02:12:44 | 00:00:00 | |
| OE5DXL-15 | 2026-09-01 00:42:12 | 48.24367 | 12.83602 | 74° | 40km/h | 21661m | -10.7m/s | -54.1°C | 4.0% | 44.9hPa | 2.5V | 00:00:00 | 00:00:00 | 00:00:00 | |
| BAUMI2-15 | 2026-09-01 00:42:09 | 48.24372 | 12.83569 | 145° | 27km/h | 21695m | -11.4m/s | -54.4°C | 4.1% | 44.7hPa | 2.6V | 00:00:00 | 02:12:40 | 00:00:00 | |
| OE5FHM-15 | 2026-09-01 00:42:06 | 48.24388 | 12.83575 | 239° | 46km/h | 21729m | -10.9m/s | -54.5°C | 4.2% | 44.4hPa | 2.6V | 00:00:00 | 02:12:37 | 00:00:00 | |
| OE5HKT-10 | 2026-09-01 00:42:05 | 48.24390 | 12.83587 | 263° | 42km/h | 21740m | -10.5m/s | -54.4°C | 4.2% | 44.4hPa | 2.6V | 08:20:00 | 00:00:00 | 00:00:00 | |
| BAUMI2-15 | 2026-09-01 00:42:04 | 48.24390 | 12.83601 | 285° | 47km/h | 21750m | -10.4m/s | -54.3°C | 4.1% | 44.3hPa | 2.5V | 00:00:00 | 02:12:35 | 00:00:00 | |
| OE5MMP-10 | 2026-09-01 00:42:03 | 48.24385 | 12.83615 | 305° | 49km/h | 21761m | -10.8m/s | -54.2°C | 4.0% | 44.2hPa | 2.5V | 00:00:00 | 02:12:34 | 00:00:00 | |
| OE5REO-15 | 2026-09-01 00:42:02 | 48.24385 | 12.83615 | 305° | 46km/h | 21761m | -10.8m/s | -54.2°C | 1.1% | 44.3hPa | 2.5V | 08:21:00 | 00:00:00 | 00:00:00 | |
| DL6DJ-15 | 2026-09-01 00:41:52 | 48.24322 | 12.83549 | 170° | 26km/h | 21895m | -11.3m/s | -54.0°C | 1.1% | 43.4hPa | 2.5V | 00:00:00 | 00:00:00 | 00:00:00 | |
| BAUMI2-15 | 2026-09-01 00:41:49 | 48.24333 | 12.83556 | 242° | 38km/h | 21918m | -11.4m/s | -54.0°C | 3.9% | 43.2hPa | 2.5V | 00:00:00 | 02:12:20 | 00:00:00 | |
| OE5REO-15 | 2026-09-01 00:41:47 | 48.24335 | 12.83566 | 269° | 31km/h | 21929m | -11.1m/s | -54.1°C | 1.1% | 43.2hPa | 2.5V | 08:21:00 | 00:00:00 | 00:00:00 | |
| OE8JPQ-2 | 2026-09-01 00:41:46 | 48.24327 | 12.83591 | 315° | 53km/h | 21952m | -11.8m/s | -54.0°C | 3.9% | 43.0hPa | 2.5V | 00:00:00 | 02:12:17 | 00:00:00 | |
| OE5HKT-10 | 2026-09-01 00:41:44 | 48.24306 | 12.83610 | 344° | 49km/h | 21974m | -10.5m/s | -54.1°C | 4.0% | 42.8hPa | 2.5V | 00:00:00 | 00:00:00 | 00:00:00 | |
| OE5MMP-10 | 2026-09-01 00:41:43 | 48.24292 | 12.83613 | 360° | 51km/h | 21985m | -11.1m/s | -54.1°C | 4.0% | 42.7hPa | 2.5V | 00:00:00 | 02:12:14 | 00:00:00 | |
| OE5DXL-15 | 2026-09-01 00:41:42 | 48.24278 | 12.83611 | 12° | 42km/h | 21996m | -10.8m/s | -54.1°C | 4.0% | 42.6hPa | 2.5V | 00:00:00 | 02:12:13 | 00:00:00 | |
| OE5WHR-10 | 2026-09-01 00:41:41 | 48.24264 | 12.83604 | 25° | 44km/h | 22007m | -10.7m/s | -54.0°C | 4.0% | 42.5hPa | 2.5V | 00:00:00 | 00:00:00 | 00:00:00 | |
| BAUMI2-15 | 2026-09-01 00:41:39 | 48.24240 | 12.83576 | 52° | 49km/h | 22030m | -11.6m/s | -54.0°C | 4.0% | 42.4hPa | 2.5V | 00:00:00 | 02:12:10 | 00:00:00 | |
| OE5FHM-15 | 2026-09-01 00:41:36 | 48.24228 | 12.83521 | 95° | 40km/h | 22064m | -11.3m/s | -53.9°C | 3.9% | 42.2hPa | 2.5V | 00:00:00 | 02:12:07 | 00:00:00 | |
| BAUMI2-15 | 2026-09-01 00:41:34 | 48.24234 | 12.83495 | 134° | 35km/h | 22088m | -11.7m/s | -53.8°C | 3.9% | 42.0hPa | 2.5V | 00:00:00 | 02:12:05 | 00:00:00 | |
| OE5MMP-10 | 2026-09-01 00:41:33 | 48.24240 | 12.83489 | 161° | 37km/h | 22100m | -11.7m/s | -53.7°C | 3.8% | 41.9hPa | 2.5V | 00:00:00 | 02:12:04 | 00:00:00 | |
| OE5REO-15 | 2026-09-01 00:41:31 | 48.24245 | 12.83489 | 200° | 20km/h | 22111m | -11.2m/s | -53.8°C | 1.1% | 41.9hPa | 2.5V | 08:21:00 | 00:00:00 | 00:00:00 | |
| OE8JPQ-2 | 2026-09-01 00:41:26 | 48.24220 | 12.83534 | 357° | 51km/h | 22180m | -11.1m/s | -54.1°C | 3.9% | 41.4hPa | 2.5V | 00:00:00 | 00:00:00 | 00:00:00 | |
| OE5MMP-10 | 2026-09-01 00:41:23 | 48.24183 | 12.83512 | 45° | 42km/h | 22214m | -11.3m/s | -54.2°C | 4.0% | 41.2hPa | 2.5V | 08:21:00 | 02:11:54 | 00:00:00 | |
| PG1ADW-2 | 2026-09-01 00:41:21 | 48.24170 | 12.83478 | 78° | 42km/h | 22237m | -11.5m/s | -54.3°C | 4.1% | 41.1hPa | 2.5V | 08:21:00 | 00:00:00 | 00:00:00 | |
| OE5WHR-10 | 2026-09-01 00:41:20 | 48.24169 | 12.83459 | 95° | 46km/h | 22249m | -11.2m/s | -54.4°C | 4.1% | 41.0hPa | 2.6V | 00:00:00 | 02:11:51 | 00:00:00 | |
| OE5REO-15 | 2026-09-01 00:41:16 | 48.24185 | 12.83422 | 159° | 35km/h | 22283m | -11.5m/s | -54.6°C | 1.1% | 40.8hPa | 2.6V | 08:21:00 | 00:00:00 | 00:00:00 | |
| OE5MMP-10 | 2026-09-01 00:41:13 | 48.24210 | 12.83443 | 260° | 49km/h | 22331m | -11.5m/s | -54.6°C | 4.2% | 40.5hPa | 2.6V | 00:00:00 | 02:11:44 | 00:00:00 | |
| OE5DXL-15 | 2026-09-01 00:41:12 | 48.24210 | 12.83456 | 287° | 46km/h | 22343m | -12.3m/s | -54.6°C | 4.2% | 40.4hPa | 2.6V | 00:00:00 | 00:00:00 | 00:00:00 | |
| DO7DH-14 | 2026-09-01 00:41:09 | 48.24187 | 12.83487 | 345° | 46km/h | 22378m | -11.0m/s | -54.5°C | 4.2% | 40.2hPa | 2.6V | 00:00:00 | 02:11:40 | 00:00:00 | |
| OE5FHM-15 | 2026-09-01 00:41:06 | 48.24147 | 12.83475 | 34° | 46km/h | 22414m | -11.1m/s | -54.5°C | 4.2% | 40.0hPa | 2.6V | 08:21:00 | 02:11:37 | 00:00:00 | |
| DL6DJ-15 | 2026-09-01 00:40:49 | 48.24107 | 12.83396 | 24° | 64km/h | 22617m | -11.5m/s | -53.3°C | 1.0% | 38.8hPa | 2.5V | 00:00:00 | 00:00:00 | 00:00:00 | |
| OE5REO-15 | 2026-09-01 00:40:45 | 48.24073 | 12.83344 | 70° | 64km/h | 22654m | -11.7m/s | -53.5°C | 1.1% | 38.6hPa | 2.5V | 08:22:00 | 00:00:00 | 00:00:00 | |
| OE5MMP-10 | 2026-09-01 00:40:43 | 48.24075 | 12.83284 | 119° | 37km/h | 22687m | -11.6m/s | -53.6°C | 4.0% | 38.3hPa | 2.5V | 00:00:00 | 02:11:14 | 00:00:00 | |
| OE5DXL-15 | 2026-09-01 00:40:42 | 48.24081 | 12.83273 | 143° | 40km/h | 22699m | -11.7m/s | -53.5°C | 3.9% | 38.3hPa | 2.5V | 00:00:00 | 00:00:00 | 00:00:00 | |
| PG1ADW-2 | 2026-09-01 00:40:40 | 48.24094 | 12.83268 | 206° | 33km/h | 22724m | -12.3m/s | -53.4°C | 3.9% | 38.2hPa | 2.6V | 00:00:00 | 02:11:11 | 00:00:00 | |
| OE5WHR-10 | 2026-09-01 00:40:38 | 48.24098 | 12.83283 | 283° | 47km/h | 22749m | -12.0m/s | -53.5°C | 3.9% | 38.0hPa | 2.6V | 00:00:00 | 00:00:00 | 00:00:00 | |
| DO7DH-14 | 2026-09-01 00:40:35 | 48.24077 | 12.83311 | 349° | 44km/h | 22786m | -10.8m/s | -53.6°C | 4.0% | 37.8hPa | 2.6V | 00:00:00 | 02:11:06 | 00:00:00 | |
| OE8JPQ-2 | 2026-09-01 00:40:34 | 48.24064 | 12.83312 | 5° | 49km/h | 22797m | -10.0m/s | -53.5°C | 4.0% | 37.7hPa | 2.6V | 00:00:00 | 02:11:05 | 00:00:00 | |
| OE5MMP-10 | 2026-09-01 00:40:33 | 48.24049 | 12.83307 | 22° | 57km/h | 22808m | -10.6m/s | -53.4°C | 3.9% | 37.6hPa | 2.6V | 00:00:00 | 02:11:04 | 00:00:00 | |
| OE5REO-15 | 2026-09-01 00:40:29 | 48.24012 | 12.83254 | 66° | 69km/h | 22844m | -13.0m/s | -53.4°C | 1.0% | 37.5hPa | 2.6V | 08:22:00 | 00:00:00 | 00:00:00 | |
| OE5MMP-10 | 2026-09-01 00:40:23 | 48.24039 | 12.83156 | 209° | 40km/h | 22928m | -10.9m/s | -53.1°C | 3.8% | 36.9hPa | 2.6V | 00:00:00 | 02:10:54 | 00:00:00 | |
| OE3JTB-15 | 2026-09-01 00:40:21 | 48.24045 | 12.83187 | 293° | 42km/h | 22964m | -12.7m/s | -53.0°C | 3.8% | 36.7hPa | 2.5V | 00:00:00 | 00:00:00 | 00:00:00 | |
| DL6DJ-15 | 2026-09-01 00:40:18 | 48.24031 | 12.83206 | 339° | 38km/h | 22990m | -12.3m/s | -53.1°C | 1.0% | 36.6hPa | 2.5V | 00:00:00 | 00:00:00 | 00:00:00 | |
| OE5WHR-10 | 2026-09-01 00:40:17 | 48.24020 | 12.83208 | 360° | 47km/h | 23002m | -11.9m/s | -53.1°C | 3.8% | 36.4hPa | 2.5V | 00:00:00 | 02:10:48 | 00:00:00 | |
| OE5MMP-10 | 2026-09-01 00:40:13 | 48.23986 | 12.83160 | 84° | 49km/h | 23046m | -10.8m/s | -53.3°C | 3.9% | 36.2hPa | 2.5V | 00:00:00 | 02:10:44 | 00:00:00 | |
| OE5DXL-15 | 2026-09-01 00:40:12 | 48.23993 | 12.83120 | 122° | 47km/h | 23070m | -12.2m/s | -53.4°C | 4.0% | 36.1hPa | 2.5V | 00:00:00 | 00:00:00 | 00:00:00 | |
| OE5FHM-15 | 2026-09-01 00:40:06 | 48.24046 | 12.83097 | 218° | 46km/h | 23131m | -11.8m/s | -53.5°C | 4.0% | 35.7hPa | 2.5V | 00:00:00 | 02:10:37 | 00:00:00 | |
| OE5MMP-10 | 2026-09-01 00:40:03 | 48.24056 | 12.83140 | 283° | 42km/h | 23166m | -11.4m/s | -53.1°C | 3.9% | 35.5hPa | 2.5V | 00:00:00 | 02:10:34 | 00:00:00 | |
| DL6DJ-15 | 2026-09-01 00:39:47 | 48.24049 | 12.83169 | 258° | 55km/h | 23368m | -13.1m/s | -52.6°C | 1.0% | 34.5hPa | 2.5V | 00:00:00 | 00:00:00 | 00:00:00 | |
| OE5DXL-15 | 2026-09-01 00:39:41 | 48.24005 | 12.83242 | 13° | 53km/h | 23442m | -12.7m/s | -52.3°C | 3.7% | 34.1hPa | 2.5V | 00:00:00 | 00:00:00 | 00:00:00 | |
| DO3MHA-11 | 2026-09-01 00:39:40 | 48.23994 | 12.83235 | 36° | 46km/h | 23455m | -11.9m/s | -52.3°C | 3.7% | 34.0hPa | 2.5V | 08:22:00 | 02:10:11 | 00:00:00 | |
| OE5FHM-15 | 2026-09-01 00:39:36 | 48.23988 | 12.83175 | 128° | 51km/h | 23506m | -12.6m/s | -52.3°C | 3.6% | 33.7hPa | 2.6V | 00:00:00 | 02:10:07 | 00:00:00 | |
| OE5WHR-10 | 2026-09-01 00:39:35 | 48.23997 | 12.83164 | 150° | 49km/h | 23519m | -12.2m/s | -52.2°C | 3.6% | 33.7hPa | 2.6V | 00:00:00 | 00:00:00 | 00:00:00 | |
| OE5MMP-10 | 2026-09-01 00:39:33 | 48.24019 | 12.83162 | 202° | 49km/h | 23543m | -11.8m/s | -52.0°C | 3.6% | 33.5hPa | 2.6V | 00:00:00 | 02:10:04 | 00:00:00 | |
| PETON7-10 | 2026-09-01 00:39:30 | 48.24042 | 12.83206 | 261° | 57km/h | 23582m | -12.3m/s | -51.9°C | 3.5% | 33.4hPa | 2.6V | 00:00:00 | 00:00:00 | 00:00:00 | |
| OE8JPQ-2 | 2026-09-01 00:39:27 | 48.24032 | 12.83265 | 309° | 58km/h | 23624m | -12.4m/s | -52.1°C | 3.6% | 33.1hPa | 2.6V | 00:00:00 | 00:00:00 | 00:00:00 | |
| DO7DH-14 | 2026-09-01 00:39:26 | 48.24023 | 12.83277 | 330° | 58km/h | 23637m | -12.2m/s | -52.2°C | 3.6% | 33.1hPa | 2.6V | 00:00:00 | 02:09:57 | 00:00:00 | |
| BAUMI2-15 | 2026-09-01 00:39:25 | 48.24012 | 12.83283 | 352° | 38km/h | 23649m | -12.0m/s | -52.2°C | 3.6% | 32.9hPa | 2.6V | 08:23:00 | 02:09:56 | 00:00:00 | |
| OE3JTB-15 | 2026-09-01 00:39:23 | 48.23992 | 12.83248 | 113° | 47km/h | 23697m | -12.3m/s | -52.4°C | 3.7% | 32.7hPa | 2.5V | 00:00:00 | 02:09:52 | 00:00:00 | |
| BAUMI2-15 | 2026-09-01 00:39:20 | 48.23998 | 12.83236 | 140° | 53km/h | 23709m | -12.7m/s | -52.5°C | 3.6% | 32.7hPa | 2.5V | 00:00:00 | 02:09:51 | 00:00:00 | |
| DO3MHA-11 | 2026-09-01 00:39:19 | 48.24008 | 12.83228 | 163° | 55km/h | 23722m | -12.9m/s | -52.5°C | 3.7% | 32.6hPa | 2.5V | 00:00:00 | 02:09:50 | 00:00:00 | |
| DL6DJ-15 | 2026-09-01 00:39:16 | 48.24047 | 12.83240 | 216° | 60km/h | 23764m | -14.1m/s | -52.7°C | 1.0% | 32.4hPa | 2.5V | 00:00:00 | 00:00:00 | 00:00:00 | |
| PETON7-10 | 2026-09-01 00:39:15 | 48.24058 | 12.83256 | 234° | 38km/h | 23778m | -13.5m/s | -52.7°C | 3.7% | 32.3hPa | 2.5V | 00:00:00 | 02:09:46 | 00:00:00 | |
| OE5WHR-10 | 2026-09-01 00:39:14 | 48.24065 | 12.83277 | 251° | 53km/h | 23792m | -12.4m/s | -52.8°C | 3.8% | 32.2hPa | 2.5V | 00:00:00 | 02:09:45 | 00:00:00 | |
| OE5MMP-10 | 2026-09-01 00:39:13 | 48.24067 | 12.83300 | 269° | 53km/h | 23805m | -11.6m/s | -52.8°C | 3.8% | 32.2hPa | 2.5V | 00:00:00 | 02:09:44 | 00:00:00 | |
| BAUMI2-15 | 2026-09-01 00:39:10 | 48.24047 | 12.83360 | 323° | 57km/h | 23841m | -12.3m/s | -53.0°C | 3.8% | 32.0hPa | 2.5V | 00:00:00 | 02:09:41 | 00:00:00 | |
| OE5REO-15 | 2026-09-01 00:39:09 | 48.24047 | 12.83360 | 324° | 64km/h | 23841m | -12.4m/s | -53.0°C | 1.0% | 32.0hPa | 2.6V | 08:23:00 | 00:00:00 | 00:00:00 | |
| DO3MHA-11 | 2026-09-01 00:39:07 | 48.24005 | 12.83377 | 7° | 40km/h | 23883m | -14.4m/s | -52.8°C | 3.8% | 31.8hPa | 2.6V | 00:00:00 | 02:09:38 | 00:00:00 | |
| OE5FHM-15 | 2026-09-01 00:39:06 | 48.23993 | 12.83372 | 24° | 49km/h | 23898m | -13.6m/s | -52.8°C | 3.8% | 31.7hPa | 2.6V | 00:00:00 | 02:09:37 | 00:00:00 | |
| BAUMI2-15 | 2026-09-01 00:39:05 | 48.23986 | 12.83364 | 48° | 44km/h | 23911m | -11.8m/s | -52.9°C | 3.9% | 31.6hPa | 2.6V | 00:00:00 | 02:09:36 | 00:00:00 | |
| OE5MMP-10 | 2026-09-01 00:39:03 | 48.23983 | 12.83347 | 138° | 51km/h | 23933m | -10.7m/s | -52.8°C | 3.9% | 31.5hPa | 2.6V | 00:00:00 | 02:09:34 | 00:00:00 | |
| DL6DJ-15 | 2026-09-01 00:38:45 | 48.23941 | 12.83447 | 172° | 33km/h | 24166m | -12.9m/s | -52.3°C | 1.0% | 30.4hPa | 2.6V | 00:00:00 | 00:00:00 | 00:00:00 | |
| OE5HKT-10 | 2026-09-01 00:38:44 | 48.23951 | 12.83449 | 205° | 47km/h | 24179m | -13.9m/s | -52.3°C | 3.8% | 30.3hPa | 2.6V | 00:00:00 | 00:00:00 | 00:00:00 | |
| OE5MMP-10 | 2026-09-01 00:38:43 | 48.23960 | 12.83459 | 228° | 64km/h | 24193m | -13.5m/s | -52.3°C | 3.8% | 30.3hPa | 2.6V | 00:00:00 | 02:09:14 | 00:00:00 | |
| BAUMI2-15 | 2026-09-01 00:38:38 | 48.23958 | 12.83569 | 309° | 68km/h | 24262m | -14.6m/s | -52.2°C | 3.7% | 29.9hPa | 2.6V | 00:00:00 | 02:09:09 | 00:00:00 | |
| OE5DXL-15 | 2026-09-01 00:38:37 | 48.23945 | 12.83588 | 321° | 57km/h | 24276m | -14.1m/s | -52.2°C | 3.7% | 29.8hPa | 2.6V | 00:00:00 | 00:00:00 | 00:00:00 | |
| OE5FHM-15 | 2026-09-01 00:38:36 | 48.23930 | 12.83601 | 337° | 53km/h | 24290m | -12.9m/s | -52.3°C | 3.8% | 29.7hPa | 2.6V | 00:00:00 | 02:09:07 | 00:00:00 | |
| BAUMI2-15 | 2026-09-01 00:38:33 | 48.23884 | 12.83601 | 27° | 42km/h | 24331m | -13.3m/s | -52.2°C | 3.8% | 29.6hPa | 2.6V | 00:00:00 | 02:09:04 | 00:00:00 | |
| OE5WHR-10 | 2026-09-01 00:38:32 | 48.23874 | 12.83590 | 43° | 53km/h | 24344m | -13.3m/s | -52.1°C | 3.7% | 29.5hPa | 2.6V | 00:00:00 | 00:00:00 | 00:00:00 | |
| DO3MHA-11 | 2026-09-01 00:38:29 | 48.23870 | 12.83552 | 130° | 51km/h | 24384m | -13.3m/s | -52.1°C | 3.8% | 29.3hPa | 2.6V | 00:00:00 | 02:09:00 | 00:00:00 | |
| BAUMI2-15 | 2026-09-01 00:38:28 | 48.23877 | 12.83545 | 161° | 44km/h | 24398m | -13.7m/s | -52.1°C | 3.8% | 29.3hPa | 2.6V | 08:24:00 | 02:08:59 | 00:00:00 | |
| OE5DRO-10 | 2026-09-01 00:38:24 | 48.23908 | 12.83578 | 257° | 60km/h | 24453m | -14.2m/s | -51.7°C | 3.6% | 29.0hPa | 2.6V | 00:00:00 | 00:00:00 | 00:00:00 | |
| BAUMI2-15 | 2026-09-01 00:38:23 | 48.23909 | 12.83599 | 276° | 66km/h | 24467m | -13.5m/s | -51.8°C | 3.7% | 28.9hPa | 2.5V | 00:00:00 | 02:08:54 | 00:00:00 | |
| OE8JPQ-2 | 2026-09-01 00:38:22 | 48.23905 | 12.83621 | 294° | 64km/h | 24480m | -14.0m/s | -51.9°C | 3.7% | 28.9hPa | 2.5V | 00:00:00 | 00:00:00 | 08:30:00 | |
| OE5REO-15 | 2026-09-01 00:38:21 | 48.23906 | 12.83621 | 295° | 64km/h | 24480m | -14.1m/s | -51.9°C | 1.0% | 28.9hPa | 2.6V | 08:24:00 | 00:00:00 | 00:00:00 | |
| DO7DH-14 | 2026-09-01 00:38:19 | 48.23868 | 12.83668 | 345° | 58km/h | 24522m | -14.4m/s | -52.0°C | 3.8% | 28.7hPa | 2.6V | 00:00:00 | 02:08:50 | 00:00:00 | |
| BAUMI2-15 | 2026-09-01 00:38:18 | 48.23851 | 12.83671 | 3° | 60km/h | 24536m | -14.4m/s | -51.9°C | 3.8% | 28.6hPa | 2.6V | 00:00:00 | 02:08:49 | 00:00:00 | |
| DL6DJ-15 | 2026-09-01 00:38:14 | 48.23805 | 12.83620 | 79° | 51km/h | 24592m | -13.9m/s | -51.6°C | 0.9% | 28.4hPa | 2.6V | 00:00:00 | 00:00:00 | 00:00:00 | |
| OE5MMP-10 | 2026-09-01 00:38:13 | 48.23805 | 12.83601 | 103° | 49km/h | 24606m | -14.5m/s | -51.5°C | 3.7% | 28.3hPa | 2.6V | 00:00:00 | 02:08:44 | 00:00:00 | |
| DO3MHA-11 | 2026-09-01 00:38:12 | 48.23810 | 12.83586 | 127° | 53km/h | 24620m | -14.1m/s | -51.5°C | 3.7% | 28.2hPa | 2.6V | 00:00:00 | 02:08:43 | 00:00:00 | |
| OE5WHR-10 | 2026-09-01 00:38:11 | 48.23819 | 12.83575 | 154° | 51km/h | 24634m | -14.1m/s | -51.5°C | 3.7% | 28.2hPa | 2.6V | 00:00:00 | 02:08:42 | 00:00:00 | |
| BAUMI2-15 | 2026-09-01 00:38:08 | 48.23849 | 12.83586 | 229° | 55km/h | 24675m | -13.7m/s | -51.5°C | 3.7% | 28.0hPa | 2.6V | 00:00:00 | 02:08:39 | 00:00:00 | |
| OE3JTB-15 | 2026-09-01 00:38:07 | 48.23855 | 12.83602 | 253° | 33km/h | 24689m | -14.3m/s | -51.4°C | 3.7% | 27.9hPa | 2.6V | 00:00:00 | 00:00:00 | 00:00:00 | |
| OE5FHM-15 | 2026-09-01 00:38:06 | 48.23857 | 12.83622 | 273° | 55km/h | 24703m | -14.0m/s | -51.4°C | 3.6% | 27.9hPa | 2.6V | 00:00:00 | 02:08:37 | 00:00:00 | |
| OE5DXL-15 | 2026-09-01 00:38:04 | 48.23846 | 12.83660 | 314° | 53km/h | 24731m | -14.7m/s | -51.1°C | 3.6% | 27.8hPa | 2.5V | 00:00:00 | 00:00:00 | 00:00:00 | |
| BAUMI2-15 | 2026-09-01 00:38:03 | 48.23834 | 12.83674 | 332° | 57km/h | 24745m | -14.6m/s | -51.1°C | 3.6% | 27.6hPa | 2.5V | 00:00:00 | 02:08:34 | 00:00:00 | |
| OE8JPQ-2 | 2026-09-01 00:38:02 | 48.23820 | 12.83682 | 349° | 62km/h | 24759m | -14.1m/s | -51.0°C | 3.6% | 27.6hPa | 2.5V | 00:00:00 | 00:00:00 | 00:00:00 | |
| BAUMI2-15 | 2026-09-01 00:37:58 | 48.23775 | 12.83645 | 71° | 47km/h | 24817m | -14.6m/s | -50.9°C | 3.5% | 27.3hPa | 2.5V | 00:00:00 | 02:08:29 | 00:00:00 | |
| DO3MHA-11 | 2026-09-01 00:37:57 | 48.23773 | 12.83627 | 94° | 62km/h | 24831m | -14.6m/s | -50.9°C | 3.6% | 27.3hPa | 2.5V | 00:00:00 | 02:08:28 | 00:00:00 | |
| OE5HKT-10 | 2026-09-01 00:37:55 | 48.23782 | 12.83595 | 138° | 53km/h | 24859m | -14.4m/s | -50.8°C | 3.6% | 27.1hPa | 2.6V | 00:00:00 | 02:08:26 | 00:00:00 | |
| BAUMI2-15 | 2026-09-01 00:37:53 | 48.23803 | 12.83586 | 189° | 47km/h | 24888m | -14.7m/s | -50.6°C | 3.5% | 27.1hPa | 2.6V | 00:00:00 | 02:08:24 | 00:00:00 | |
| OE5REO-15 | 2026-09-01 00:37:51 | 48.23813 | 12.83592 | 216° | 44km/h | 24903m | -15.4m/s | -50.6°C | 0.9% | 27.0hPa | 2.6V | 08:24:00 | 00:00:00 | 00:00:00 | |
| OE5WHR-10 | 2026-09-01 00:37:50 | 48.23824 | 12.83621 | 263° | 55km/h | 24933m | -14.2m/s | -50.4°C | 3.5% | 26.9hPa | 2.6V | 08:24:00 | 00:00:00 | 00:00:00 | |
| BAUMI2-15 | 2026-09-01 00:37:48 | 48.23817 | 12.83659 | 307° | 66km/h | 24961m | -15.2m/s | -50.5°C | 3.5% | 26.7hPa | 2.5V | 00:00:00 | 02:08:19 | 00:00:00 | |
| DO7DH-14 | 2026-09-01 00:37:45 | 48.23774 | 12.83690 | 1° | 55km/h | 25005m | -15.3m/s | -50.4°C | 3.5% | 26.5hPa | 2.5V | 00:00:00 | 02:08:16 | 00:00:00 | |
| OE5MMP-10 | 2026-09-01 00:37:43 | 48.23741 | 12.83675 | 35° | 53km/h | 25034m | -14.5m/s | -50.2°C | 3.4% | 26.4hPa | 2.5V | 00:00:00 | 02:08:14 | 00:00:00 | |
| DO3MHA-11 | 2026-09-01 00:37:40 | 48.23719 | 12.83615 | 92° | 55km/h | 25078m | -15.0m/s | -50.1°C | 3.4% | 26.2hPa | 2.5V | 00:00:00 | 02:08:11 | 00:00:00 | |
| OE5FHM-15 | 2026-09-01 00:37:36 | 48.23749 | 12.83570 | 188° | 53km/h | 25137m | -14.8m/s | -49.8°C | 3.3% | 26.0hPa | 2.5V | 00:00:00 | 02:08:07 | 00:00:00 | |
| OE5REO-15 | 2026-09-01 00:37:35 | 48.23749 | 12.83570 | 188° | 44km/h | 25137m | -14.9m/s | -49.8°C | 0.8% | 26.1hPa | 2.5V | 00:00:00 | 00:00:00 | 00:00:00 | |
| OE5HKT-10 | 2026-09-01 00:37:34 | 48.23767 | 12.83586 | 236° | 55km/h | 25166m | -14.6m/s | -49.9°C | 3.3% | 25.9hPa | 2.5V | 08:24:00 | 00:00:00 | 00:00:00 | |
| OE5MMP-10 | 2026-09-01 00:37:33 | 48.23771 | 12.83603 | 261° | 53km/h | 25180m | -15.0m/s | -49.8°C | 3.3% | 25.8hPa | 2.6V | 00:00:00 | 02:08:04 | 00:00:00 | |
| BAUMI2-15 | 2026-09-01 00:37:32 | 48.23771 | 12.83621 | 283° | 46km/h | 25195m | -15.4m/s | -49.8°C | 3.3% | 25.7hPa | 2.6V | 00:00:00 | 02:08:03 | 00:00:00 | |
| OE5WHR-10 | 2026-09-01 00:37:29 | 48.23745 | 12.83658 | 350° | 55km/h | 25241m | -15.9m/s | -49.6°C | 3.3% | 25.6hPa | 2.6V | 00:00:00 | 00:00:00 | 00:00:00 | |
| DO3MHA-11 | 2026-09-01 00:37:24 | 48.23701 | 12.83595 | 93° | 55km/h | 25315m | -15.1m/s | -49.5°C | 3.2% | 25.3hPa | 2.6V | 00:00:00 | 02:07:55 | 00:00:00 | |
| OE5MMP-10 | 2026-09-01 00:37:23 | 48.23705 | 12.83574 | 114° | 57km/h | 25331m | -16.2m/s | -49.5°C | 3.2% | 25.2hPa | 2.6V | 00:00:00 | 02:07:54 | 00:00:00 | |
| OE5REO-15 | 2026-09-01 00:37:19 | 48.23738 | 12.83534 | 172° | 60km/h | 25378m | -15.7m/s | -49.6°C | 0.8% | 25.1hPa | 2.5V | 00:00:00 | 00:00:00 | 00:00:00 | |
| PG1ADW-2 | 2026-09-01 00:37:16 | 48.23784 | 12.83573 | 253° | 55km/h | 25440m | -15.6m/s | -49.6°C | 3.1% | 24.8hPa | 2.5V | 00:00:00 | 00:00:00 | 00:00:00 | |
| OE5HKT-10 | 2026-09-01 00:37:13 | 48.23774 | 12.83621 | 327° | 55km/h | 25484m | -15.5m/s | -49.8°C | 3.2% | 24.6hPa | 2.6V | 00:00:00 | 00:00:00 | 00:00:00 | |
| DO7DH-14 | 2026-09-01 00:37:12 | 48.23763 | 12.83628 | 351° | 53km/h | 25499m | -15.4m/s | -49.9°C | 3.2% | 24.6hPa | 2.6V | 08:25:00 | 02:07:43 | 00:00:00 | |
| OE5WHR-10 | 2026-09-01 00:37:08 | 48.23727 | 12.83586 | 81° | 55km/h | 25562m | -17.0m/s | -50.1°C | 3.2% | 24.4hPa | 2.6V | 00:00:00 | 02:07:39 | 00:00:00 | |
| DO3MHA-11 | 2026-09-01 00:37:07 | 48.23727 | 12.83566 | 102° | 55km/h | 25579m | -17.0m/s | -50.2°C | 3.3% | 24.3hPa | 2.6V | 08:25:00 | 02:07:38 | 00:00:00 | |
| OE5FHM-15 | 2026-09-01 00:37:06 | 48.23732 | 12.83547 | 120° | 53km/h | 25595m | -15.8m/s | -50.4°C | 3.3% | 24.2hPa | 2.6V | 00:00:00 | 02:07:37 | 00:00:00 | |
| OE5MMP-10 | 2026-09-01 00:37:02 | 48.23782 | 12.83524 | 203° | 58km/h | 25657m | -15.9m/s | -50.8°C | 3.4% | 24.0hPa | 2.6V | 00:00:00 | 02:07:33 | 00:00:00 | |
| OE5DXL-15 | 2026-09-01 00:36:57 | 48.23801 | 12.83618 | 301° | 55km/h | 25734m | -15.9m/s | -51.0°C | 3.4% | 23.7hPa | 2.6V | 00:00:00 | 00:00:00 | 00:00:00 | |
| OE5HKT-10 | 2026-09-01 00:36:52 | 48.23742 | 12.83636 | 42° | 51km/h | 25808m | -15.9m/s | -51.3°C | 3.5% | 23.4hPa | 2.6V | 00:00:00 | 02:07:23 | 00:00:00 | |
| OE5WHR-10 | 2026-09-01 00:36:47 | 48.23742 | 12.83556 | 142° | 53km/h | 25886m | -16.0m/s | -51.3°C | 3.6% | 23.1hPa | 2.6V | 00:00:00 | 00:00:00 | 00:00:00 | |
| OE5MMP-10 | 2026-09-01 00:36:42 | 48.23791 | 12.83585 | 250° | 53km/h | 25966m | -17.2m/s | -51.4°C | 3.6% | 22.9hPa | 2.5V | 00:00:00 | 02:07:13 | 00:00:00 | |
| DL6DJ-15 | 2026-09-01 00:36:41 | 48.23793 | 12.83604 | 274° | 51km/h | 25982m | -17.2m/s | -51.4°C | -1.0% | -1.0hPa | 2.5V | 00:00:00 | 00:00:00 | 00:00:00 | |
| OE8JPQ-2 | 2026-09-01 00:36:40 | 48.23790 | 12.83622 | 294° | 49km/h | 25999m | -17.5m/s | -51.4°C | 3.7% | 22.8hPa | 2.5V | 00:00:00 | 00:00:00 | 00:00:00 | |
| DO7DH-14 | 2026-09-01 00:36:37 | 48.23759 | 12.83648 | 7° | 55km/h | 26046m | -14.1m/s | -51.4°C | 3.6% | 22.5hPa | 2.5V | 00:00:00 | 02:07:08 | 00:00:00 | |
| OE5FHM-15 | 2026-09-01 00:36:36 | 48.23747 | 12.83642 | 26° | 51km/h | 26059m | -12.6m/s | -51.4°C | 3.7% | 22.5hPa | 2.5V | 08:25:00 | 02:07:07 | 00:00:00 | |
| OE5MMP-10 | 2026-09-01 00:36:32 | 48.23723 | 12.83568 | 92° | 51km/h | 26114m | -17.1m/s | -51.2°C | 3.6% | 22.3hPa | 2.5V | 00:00:00 | 02:07:03 | 00:00:00 | |
| OE5HKT-10 | 2026-09-01 00:36:31 | 48.23725 | 12.83545 | 106° | 53km/h | 26131m | -17.5m/s | -51.1°C | 3.5% | 22.3hPa | 2.5V | 00:00:00 | 00:00:00 | 00:00:00 | |
| OE5WHR-10 | 2026-09-01 00:36:26 | 48.23777 | 12.83496 | 203° | 49km/h | 26217m | -18.0m/s | -51.1°C | 3.5% | 21.9hPa | 2.6V | 00:00:00 | 00:00:00 | 00:00:00 | |
| OE5MMP-10 | 2026-09-01 00:36:22 | 48.23783 | 12.83546 | 322° | 55km/h | 26279m | -13.7m/s | -51.0°C | 3.5% | 21.7hPa | 2.6V | 00:00:00 | 02:06:53 | 00:00:00 | |
| OE8JPQ-2 | 2026-09-01 00:36:20 | 48.23757 | 12.83557 | 2° | 62km/h | 26308m | -17.2m/s | -51.0°C | 3.5% | 21.6hPa | 2.5V | 00:00:00 | 02:06:51 | 00:00:00 | |
| OE5MMP-10 | 2026-09-01 00:36:12 | 48.23710 | 12.83451 | 157° | 49km/h | 26439m | -12.6m/s | -51.1°C | 3.7% | 21.2hPa | 2.5V | 00:00:00 | 02:06:43 | 00:00:00 | |
| OE5HKT-10 | 2026-09-01 00:36:10 | 48.23729 | 12.83450 | 196° | 60km/h | 26469m | -17.1m/s | -51.1°C | 3.7% | 21.1hPa | 2.5V | 00:00:00 | 00:00:00 | 00:00:00 | |
| OE5WHR-10 | 2026-09-01 00:36:05 | 48.23746 | 12.83522 | 303° | 60km/h | 26553m | -16.3m/s | -50.8°C | 3.7% | 20.8hPa | 2.5V | 00:00:00 | 02:06:36 | 00:00:00 | |
| OE5MMP-10 | 2026-09-01 00:36:02 | 48.23704 | 12.83552 | 1° | 66km/h | 26603m | -17.7m/s | -50.5°C | 3.6% | 20.7hPa | 2.5V | 00:00:00 | 02:06:33 | 00:00:00 | |
| OE5DXL-15 | 2026-09-01 00:35:56 | 48.23651 | 12.83421 | 125° | 49km/h | 26727m | -18.4m/s | -50.2°C | 3.5% | 20.3hPa | 2.5V | 00:00:00 | 00:00:00 | 00:00:00 | |
| OE5MMP-10 | 2026-09-01 00:35:52 | 48.23685 | 12.83400 | 195° | 55km/h | 26782m | -17.4m/s | -50.1°C | 3.6% | 20.1hPa | 2.6V | 00:00:00 | 02:06:23 | 00:00:00 | |
| OE5WHR-10 | 2026-09-01 00:35:44 | 48.23635 | 12.83462 | 30° | 55km/h | 26922m | -21.1m/s | -49.4°C | 3.3% | 19.7hPa | 2.5V | 00:00:00 | 00:00:00 | 00:00:00 | |
| OE5MMP-10 | 2026-09-01 00:35:42 | 48.23612 | 12.83424 | 67° | 62km/h | 26961m | -18.1m/s | -49.3°C | 3.4% | 19.5hPa | 2.6V | 00:00:00 | 02:06:13 | 00:00:00 | |
| OE5HKT-10 | 2026-09-01 00:35:40 | 48.23610 | 12.83373 | 107° | 60km/h | 26994m | -15.7m/s | -49.2°C | 3.3% | 19.4hPa | 2.6V | 00:00:00 | 02:06:11 | 00:00:00 | |
| OE5FHM-15 | 2026-09-01 00:35:35 | 48.23677 | 12.83322 | 197° | 53km/h | 27081m | -20.1m/s | -48.8°C | 3.2% | 19.2hPa | 2.6V | 00:00:00 | 02:06:06 | 00:00:00 | |
| OE5MMP-10 | 2026-09-01 00:35:32 | 48.23702 | 12.83355 | 254° | 44km/h | 27139m | -17.5m/s | -48.9°C | 3.3% | 19.0hPa | 2.6V | 00:00:00 | 02:06:03 | 00:00:00 | |
| DO7DH-14 | 2026-09-01 00:35:28 | 48.23683 | 12.83375 | 26° | 58km/h | 27195m | -14.3m/s | -48.9°C | 3.4% | 18.9hPa | 2.6V | 00:00:00 | 02:05:59 | 00:00:00 | |
| BAUMI2-15 | 2026-09-01 00:35:27 | 48.23674 | 12.83366 | 37° | 55km/h | 27210m | -16.4m/s | -48.8°C | 3.3% | 18.8hPa | 2.6V | 00:00:00 | 02:05:58 | 00:00:00 | |
| OE5DXL-15 | 2026-09-01 00:35:25 | 48.23656 | 12.83338 | 59° | 58km/h | 27244m | -18.0m/s | -48.7°C | 3.3% | 18.7hPa | 2.6V | 00:00:00 | 00:00:00 | 00:00:00 | |
| OE5WHR-10 | 2026-09-01 00:35:23 | 48.23646 | 12.83298 | 84° | 60km/h | 27281m | -20.3m/s | -48.5°C | 3.3% | 18.6hPa | 2.6V | 00:00:00 | 00:00:00 | 00:00:00 | |
| OE5MMP-10 | 2026-09-01 00:35:22 | 48.23647 | 12.83276 | 101° | 55km/h | 27302m | -20.1m/s | -48.4°C | 3.3% | 18.5hPa | 2.6V | 08:27:00 | 02:05:53 | 00:00:00 | |
| DO3MHA-11 | 2026-09-01 00:35:19 | 48.23671 | 12.83233 | 164° | 60km/h | 27362m | -18.9m/s | -48.3°C | 3.3% | 18.4hPa | 2.5V | 00:00:00 | 02:05:50 | 00:00:00 | |
| BAUMI2-15 | 2026-09-01 00:35:17 | 48.23694 | 12.83239 | 214° | 58km/h | 27397m | -15.4m/s | -48.3°C | 3.3% | 18.3hPa | 2.5V | 00:00:00 | 02:05:48 | 00:00:00 | |
| BAUMI2-15 | 2026-09-01 00:35:12 | 48.23697 | 12.83341 | 304° | 69km/h | 27480m | -20.0m/s | -48.0°C | 3.2% | 18.0hPa | 2.5V | 00:00:00 | 02:05:43 | 00:00:00 | |
| DO3MHA-11 | 2026-09-01 00:35:09 | 48.23654 | 12.83382 | 353° | 62km/h | 27538m | -19.4m/s | -47.7°C | 3.1% | 17.9hPa | 2.5V | 00:00:00 | 02:05:40 | 00:00:00 | |
| DL6DJ-15 | 2026-09-01 00:35:08 | 48.23623 | 12.83371 | 34° | 62km/h | 27576m | -19.5m/s | 0°C | -1.0% | -1.0hPa | 2.5V | 00:00:00 | 00:00:00 | 00:00:00 | |
| OE5FHM-15 | 2026-09-01 00:35:05 | 48.23606 | 12.83335 | 80° | 57km/h | 27615m | -19.0m/s | -47.4°C | 3.1% | 17.7hPa | 2.5V | 00:00:00 | 02:05:36 | 00:00:00 | |
| OE5WHR-10 | 2026-09-01 00:35:02 | 48.23623 | 12.83278 | 146° | 57km/h | 27672m | -18.8m/s | -47.4°C | 3.1% | 17.5hPa | 2.5V | 00:00:00 | 02:05:33 | 00:00:00 | |
| DO3MHA-11 | 2026-09-01 00:34:59 | 48.23667 | 12.83273 | 207° | 58km/h | 27730m | -19.4m/s | -47.0°C | 3.0% | 17.4hPa | 2.5V | 00:00:00 | 02:05:30 | 00:00:00 | |
| OE5DXL-15 | 2026-09-01 00:34:55 | 48.23682 | 12.83340 | 303° | 58km/h | 27809m | -18.0m/s | -46.9°C | 2.9% | 17.1hPa | 2.6V | 00:00:00 | 00:00:00 | 00:00:00 | |
| BAUMI2-15 | 2026-09-01 00:34:54 | 48.23673 | 12.83353 | 330° | 60km/h | 27826m | -17.0m/s | -46.8°C | 2.9% | 17.1hPa | 2.6V | 00:00:00 | 02:05:25 | 00:00:00 | |
| OE5MMP-10 | 2026-09-01 00:34:52 | 48.23646 | 12.83355 | 20° | 58km/h | 27861m | -17.3m/s | -46.7°C | 2.9% | 17.0hPa | 2.6V | 00:00:00 | 02:05:23 | 00:00:00 | |
| DO3MHA-11 | 2026-09-01 00:34:49 | 48.23615 | 12.83303 | 74° | 62km/h | 27920m | -20.7m/s | -46.5°C | 2.8% | 16.9hPa | 2.5V | 00:00:00 | 02:05:20 | 00:00:00 | |
| OE5MMP-10 | 2026-09-01 00:34:42 | 48.23666 | 12.83236 | 235° | 57km/h | 28048m | -16.6m/s | -46.6°C | 2.9% | 16.5hPa | 2.5V | 00:00:00 | 02:05:13 | 00:00:00 | |
| OE5WHR-10 | 2026-09-01 00:34:41 | 48.23671 | 12.83252 | 255° | 60km/h | 28066m | -19.0m/s | -46.6°C | 2.9% | 16.5hPa | 2.5V | 08:27:00 | 00:00:00 | 00:00:00 | |
| BAUMI2-15 | 2026-09-01 00:34:39 | 48.23671 | 12.83291 | 286° | 57km/h | 28103m | -19.2m/s | -46.7°C | 2.9% | 16.4hPa | 2.5V | 00:00:00 | 02:05:10 | 00:00:00 | |
| OE5FHM-15 | 2026-09-01 00:34:35 | 48.23629 | 12.83331 | 13° | 58km/h | 28183m | -21.3m/s | -46.9°C | 2.9% | 16.2hPa | 2.5V | 00:00:00 | 02:05:06 | 00:00:00 | |
| BAUMI2-15 | 2026-09-01 00:34:34 | 48.23614 | 12.83322 | 32° | 68km/h | 28204m | -21.5m/s | -47.0°C | 2.9% | 16.1hPa | 2.5V | 00:00:00 | 02:05:05 | 00:00:00 | |
| OE5MMP-10 | 2026-09-01 00:34:32 | 48.23593 | 12.83284 | 71° | 68km/h | 28246m | -19.4m/s | -47.2°C | 3.0% | 16.0hPa | 2.5V | 00:00:00 | 02:05:03 | 00:00:00 | |
| OE5HKT-10 | 2026-09-01 00:34:28 | 48.23619 | 12.83192 | 153° | 60km/h | 28316m | -18.1m/s | -47.0°C | 3.0% | 15.8hPa | 2.5V | 00:00:00 | 02:04:59 | 00:00:00 | |
| PG1ADW-2 | 2026-09-01 00:34:26 | 48.23656 | 12.83181 | 184° | 51km/h | 28356m | -21.2m/s | -47.0°C | 3.0% | 15.7hPa | 2.5V | 00:00:00 | 02:04:57 | 00:00:00 | |
| OE5DXL-15 | 2026-09-01 00:34:25 | 48.23673 | 12.83186 | 199° | 57km/h | 28377m | -21.9m/s | -47.0°C | 3.0% | 15.7hPa | 2.5V | 00:00:00 | 00:00:00 | 08:30:00 | |
| BAUMI2-15 | 2026-09-01 00:34:23 | 48.23695 | 12.83210 | 236° | 40km/h | 28421m | -20.6m/s | -47.1°C | 3.1% | 15.6hPa | 2.6V | 00:00:00 | 02:04:54 | 00:00:00 | |
| OE5MMP-10 | 2026-09-01 00:34:22 | 48.23699 | 12.83224 | 264° | 55km/h | 28441m | -18.8m/s | -47.1°C | 3.1% | 15.6hPa | 2.6V | 00:00:00 | 02:04:53 | 00:00:00 | |
| OE5WHR-10 | 2026-09-01 00:34:20 | 48.23692 | 12.83245 | 335° | 58km/h | 28474m | -14.3m/s | -47.2°C | 3.1% | 15.5hPa | 2.6V | 00:00:00 | 00:00:00 | 00:00:00 | |
| DO7DH-14 | 2026-09-01 00:34:19 | 48.23682 | 12.83247 | 6° | 55km/h | 28488m | -14.1m/s | -47.2°C | 3.1% | 15.4hPa | 2.6V | 00:00:00 | 02:04:50 | 00:00:00 | |
| BAUMI2-15 | 2026-09-01 00:34:18 | 48.23670 | 12.83241 | 28° | 64km/h | 28504m | -16.9m/s | -47.1°C | 3.1% | 15.4hPa | 2.6V | 00:00:00 | 02:04:49 | 00:00:00 | |
| BAUMI2-15 | 2026-09-01 00:34:13 | 48.23630 | 12.83138 | 92° | 66km/h | 28603m | -21.0m/s | -46.7°C | 3.0% | 15.2hPa | 2.6V | 00:00:00 | 02:04:44 | 00:00:00 | |
| OE5MMP-10 | 2026-09-01 00:34:12 | 48.23634 | 12.83112 | 110° | 58km/h | 28624m | -21.2m/s | -46.6°C | 3.0% | 15.1hPa | 2.6V | 00:00:00 | 02:04:43 | 00:00:00 | |
| BAUMI2-15 | 2026-09-01 00:34:08 | 48.23682 | 12.83066 | 191° | 55km/h | 28704m | -17.6m/s | -46.5°C | 3.0% | 14.9hPa | 2.6V | 00:00:00 | 02:04:39 | 00:00:00 | |
| OE5HKT-10 | 2026-09-01 00:34:07 | 48.23695 | 12.83073 | 213° | 57km/h | 28720m | -16.4m/s | -46.4°C | 3.0% | 14.9hPa | 2.6V | 08:28:00 | 00:00:00 | 00:00:00 | |
| PG1ADW-2 | 2026-09-01 00:34:06 | 48.23704 | 12.83087 | 237° | 57km/h | 28737m | -16.6m/s | -46.4°C | 2.9% | 14.8hPa | 2.6V | 00:00:00 | 00:00:00 | 00:00:00 | |
| OE5FHM-15 | 2026-09-01 00:34:03 | 48.23707 | 12.83145 | 293° | 57km/h | 28793m | -19.8m/s | -46.2°C | 2.9% | 14.7hPa | 2.6V | 00:00:00 | 02:04:34 | 00:00:00 | |
| OE5MMP-10 | 2026-09-01 00:34:02 | 48.23699 | 12.83164 | 310° | 58km/h | 28813m | -19.9m/s | -46.2°C | 2.9% | 14.7hPa | 2.6V | 00:00:00 | 02:04:33 | 00:00:00 | |
| OE5WHR-10 | 2026-09-01 00:33:59 | 48.23658 | 12.83185 | 12° | 57km/h | 28876m | -22.1m/s | -46.1°C | 2.9% | 14.6hPa | 2.6V | 00:00:00 | 02:04:30 | 00:00:00 | |
| BAUMI2-15 | 2026-09-01 00:33:58 | 48.23644 | 12.83176 | 32° | 60km/h | 28898m | -23.0m/s | -46.2°C | 2.9% | 14.5hPa | 2.6V | 08:28:00 | 02:04:29 | 00:00:00 | |
| OE5DXL-15 | 2026-09-01 00:33:55 | 48.23623 | 12.83101 | 111° | 53km/h | 28977m | -15.9m/s | -46.0°C | 2.9% | 14.3hPa | 2.6V | 00:00:00 | 00:00:00 | 00:00:00 | |
| BAUMI2-15 | 2026-09-01 00:33:53 | 48.23630 | 12.83084 | 136° | 57km/h | 28993m | -15.3m/s | -45.9°C | 2.9% | 14.3hPa | 2.6V | 00:00:00 | 02:04:24 | 00:00:00 | |
| OE5MMP-10 | 2026-09-01 00:33:52 | 48.23641 | 12.83073 | 159° | 53km/h | 29009m | -17.1m/s | -45.8°C | 2.9% | 14.2hPa | 2.6V | 08:28:00 | 02:04:23 | 00:00:00 | |
| BAUMI2-15 | 2026-09-01 00:33:48 | 48.23697 | 12.83086 | 219° | 51km/h | 29090m | -22.2m/s | -45.6°C | 2.8% | 14.1hPa | 2.6V | 00:00:00 | 02:04:19 | 00:00:00 | |
| OE5HKT-10 | 2026-09-01 00:33:46 | 48.23711 | 12.83119 | 260° | 46km/h | 29135m | -22.3m/s | -45.8°C | 2.9% | 14.0hPa | 2.6V | 00:00:00 | 00:00:00 | 00:00:00 | |
| BAUMI2-15 | 2026-09-01 00:33:43 | 48.23698 | 12.83165 | 332° | 53km/h | 29196m | -17.7m/s | -45.8°C | 2.9% | 13.8hPa | 2.6V | 00:00:00 | 02:04:14 | 00:00:00 | |
| OE5MMP-10 | 2026-09-01 00:33:42 | 48.23686 | 12.83169 | 357° | 62km/h | 29213m | -16.6m/s | -45.8°C | 2.9% | 13.8hPa | 2.6V | 00:00:00 | 02:04:13 | 00:00:00 | |
| OE5WHR-10 | 2026-09-01 00:33:38 | 48.23645 | 12.83118 | 69° | 57km/h | 29289m | -21.1m/s | -45.8°C | 3.0% | 13.7hPa | 2.6V | 00:00:00 | 00:00:00 | 00:00:00 | |
| DO3MHA-11 | 2026-09-01 00:33:36 | 48.23641 | 12.83070 | 97° | 60km/h | 29331m | -20.1m/s | -45.7°C | 2.9% | 13.5hPa | 2.6V | 00:00:00 | 02:04:07 | 00:00:00 | |
| OE5FHM-15 | 2026-09-01 00:33:33 | 48.23667 | 12.83007 | 149° | 55km/h | 29392m | -22.3m/s | -45.1°C | 2.8% | 13.4hPa | 2.6V | 00:00:00 | 02:04:04 | 00:00:00 | |
| OE5MMP-10 | 2026-09-01 00:33:32 | 48.23682 | 12.82998 | 165° | 47km/h | 29415m | -23.0m/s | -45.0°C | 2.8% | 13.4hPa | 2.6V | 00:00:00 | 02:04:03 | 00:00:00 | |
| OE5DXL-15 | 2026-09-01 00:33:23 | 48.23686 | 12.83063 | 358° | 58km/h | 29593m | -21.4m/s | -44.3°C | 2.7% | 13.0hPa | 2.6V | 00:00:00 | 00:00:00 | 00:00:00 | |
| OE5MMP-10 | 2026-09-01 00:33:22 | 48.23670 | 12.83062 | 8° | 57km/h | 29616m | -23.3m/s | -44.2°C | 2.7% | 13.0hPa | 2.6V | 00:00:00 | 02:03:53 | 00:00:00 | |
| DO3MHA-11 | 2026-09-01 00:33:21 | 48.23655 | 12.83056 | 21° | 53km/h | 29640m | -24.5m/s | -44.1°C | 2.7% | 12.9hPa | 2.5V | 00:00:00 | 02:03:52 | 00:00:00 | |
| OE5WHR-10 | 2026-09-01 00:33:17 | 48.23620 | 12.82987 | 93° | 60km/h | 29738m | -21.8m/s | -44.0°C | 2.7% | 12.7hPa | 2.5V | 00:00:00 | 00:00:00 | 00:00:00 | |
| OE5HKT-10 | 2026-09-01 00:33:16 | 48.23623 | 12.82967 | 116° | 62km/h | 29758m | -19.4m/s | -44.0°C | 2.7% | 12.7hPa | 2.5V | 00:00:00 | 02:03:47 | 00:00:00 | |
| PG1ADW-2 | 2026-09-01 00:33:12 | 48.23669 | 12.82956 | 214° | 55km/h | 29834m | -23.4m/s | -44.0°C | 2.7% | 12.5hPa | 2.5V | 00:00:00 | 00:00:00 | 00:00:00 | |
| OE5MMP-10 | 2026-09-01 00:33:07 | 48.23690 | 12.83044 | 304° | 58km/h | 29957m | -22.0m/s | -43.5°C | 2.6% | 12.3hPa | 2.5V | 00:00:00 | 02:03:38 | 00:00:00 | |
| DO7DH-14 | 2026-09-01 00:33:05 | 48.23669 | 12.83060 | 1° | 55km/h | 29997m | -18.5m/s | -43.3°C | 2.5% | 12.2hPa | 2.5V | 00:00:00 | 02:03:36 | 00:00:00 | |
| DL6DJ-15 | 2026-09-01 00:33:04 | 48.23643 | 12.83041 | 46° | 68km/h | 30035m | -20.9m/s | 0°C | -1.0% | -1.0hPa | 2.5V | 00:00:00 | 00:00:00 | 00:00:00 | |
| OE5FHM-15 | 2026-09-01 00:33:03 | 48.23643 | 12.83041 | 47° | 62km/h | 30035m | -20.9m/s | -43.2°C | 2.5% | 12.2hPa | 2.5V | 00:00:00 | 02:03:34 | 00:00:00 | |
| OE5MMP-10 | 2026-09-01 00:32:57 | 48.23634 | 12.82894 | 134° | 53km/h | 30174m | -22.4m/s | -43.5°C | 2.6% | 11.9hPa | 2.5V | 00:00:00 | 02:03:28 | 00:00:00 | |
| OE5WHR-10 | 2026-09-01 00:32:56 | 48.23646 | 12.82882 | 157° | 60km/h | 30196m | -22.2m/s | -43.5°C | 2.6% | 11.9hPa | 2.5V | 00:00:00 | 02:03:27 | 00:00:00 | |
| PG1ADW-2 | 2026-09-01 00:32:52 | 48.23685 | 12.82908 | 256° | 51km/h | 30283m | -21.4m/s | -43.5°C | 2.7% | 11.7hPa | 2.5V | 00:00:00 | 02:03:23 | 00:00:00 | |
| OE5DXL-15 | 2026-09-01 00:32:49 | 48.23671 | 12.82959 | 323° | 38km/h | 30351m | -24.4m/s | -43.2°C | 2.7% | 11.6hPa | 2.5V | 00:00:00 | 00:00:00 | 00:00:00 | |
| OE5MMP-10 | 2026-09-01 00:32:47 | 48.23645 | 12.82972 | 1° | 71km/h | 30400m | -24.3m/s | -42.7°C | 2.6% | 11.5hPa | 2.6V | 00:00:00 | 02:03:18 | 00:00:00 | |
| OE5HKT-10 | 2026-09-01 00:32:42 | 48.23595 | 12.82902 | 82° | 62km/h | 30500m | -17.3m/s | -42.6°C | 2.6% | 11.3hPa | 2.6V | 00:00:00 | 00:00:00 | 00:00:00 | |
| OE5MMP-10 | 2026-09-01 00:32:36 | 48.23626 | 12.82743 | 131° | 46km/h | 30627m | -22.3m/s | -41.8°C | 2.4% | 11.1hPa | 2.5V | 00:00:00 | 02:03:07 | 00:00:00 | |
| OE5WHR-10 | 2026-09-01 00:32:35 | 48.23640 | 12.82724 | 145° | 35km/h | 30649m | -22.8m/s | -41.7°C | 2.4% | 11.0hPa | 2.5V | 00:00:00 | 00:00:00 | 00:00:00 | |
| OE5FHM-15 | 2026-09-01 00:32:33 | 48.23669 | 12.82706 | 174° | 27km/h | 30696m | -24.2m/s | -41.6°C | 2.4% | 11.0hPa | 2.5V | 00:00:00 | 02:03:04 | 00:00:00 | |
| PG1ADW-2 | 2026-09-01 00:32:30 | 48.23699 | 12.82717 | 230° | 27km/h | 30765m | -21.2m/s | -41.6°C | 2.4% | 10.9hPa | 2.5V | 00:00:00 | 00:00:00 | 00:00:00 | |
| DO7DH-14 | 2026-09-01 00:32:29 | 48.23702 | 12.82726 | 263° | 18km/h | 30786m | -20.4m/s | -41.6°C | 2.5% | 10.8hPa | 2.5V | 00:00:00 | 02:03:00 | 00:00:00 | |
| OE5MMP-10 | 2026-09-01 00:32:27 | 48.23689 | 12.82750 | 337° | 22km/h | 30846m | -21.4m/s | -41.2°C | 2.4% | 10.7hPa | 2.5V | 00:00:00 | 02:02:57 | 00:00:00 | |
| OE5HKT-10 | 2026-09-01 00:32:21 | 48.23646 | 12.82766 | 343° | 22km/h | 30954m | -20.3m/s | -40.8°C | 2.4% | 10.5hPa | 2.5V | 00:00:00 | 00:00:00 | 00:00:00 | |
| OE5MMP-10 | 2026-09-01 00:32:16 | 48.23638 | 12.82795 | 270° | 26km/h | 31054m | -20.1m/s | -40.5°C | 2.3% | 10.4hPa | 2.5V | 00:00:00 | 02:02:47 | 08:30:00 | |
| OE5DXL-15 | 2026-09-01 00:32:15 | 48.23637 | 12.82803 | 273° | 22km/h | 31075m | -21.2m/s | -40.4°C | 2.3% | 10.3hPa | 2.5V | 00:00:00 | 00:00:00 | 00:00:00 | |
| OE5WHR-10 | 2026-09-01 00:32:14 | 48.23637 | 12.82812 | 279° | 24km/h | 31096m | -20.6m/s | -40.3°C | 2.2% | 10.3hPa | 2.5V | 00:00:00 | 00:00:00 | 00:00:00 | |
| OE5MMP-10 | 2026-09-01 00:32:06 | 48.23646 | 12.82872 | 183° | 24km/h | 31320m | -22.7m/s | -39.8°C | 2.2% | 10.0hPa | 2.5V | 00:00:00 | 02:02:37 | 00:00:00 | |
| DL6DJ-15 | 2026-09-01 00:32:01 | 48.23682 | 12.82858 | 145° | 29km/h | 31327m | 5.1m/s | 0°C | -1.0% | -1.0hPa | 2.5V | 00:00:00 | 00:00:00 | 00:00:00 | |
| OE5HKT-10 | 2026-09-01 00:32:00 | 48.23676 | 12.82864 | 152° | 20km/h | 31333m | 6.3m/s | -39.8°C | 2.2% | 9.9hPa | 2.5V | 00:00:00 | 02:02:31 | 00:00:00 | |
| PG1ADW-2 | 2026-09-01 00:31:56 | 48.23701 | 12.82832 | 127° | 11km/h | 31306m | 5.8m/s | -39.8°C | 2.2% | 10.0hPa | 2.5V | 00:00:00 | 00:00:00 | 00:00:00 | |
| DO3MHA-11 | 2026-09-01 00:31:53 | 48.23705 | 12.82826 | 145° | 20km/h | 31296m | 4.3m/s | -39.9°C | 2.1% | 10.0hPa | 2.5V | 00:00:00 | 02:02:24 | 00:00:00 | |
| OE5MMP-10 | 2026-09-01 00:31:46 | 48.23740 | 12.82814 | 149° | 15km/h | 31258m | 5.9m/s | -40.0°C | 2.2% | 10.0hPa | 2.5V | 00:00:00 | 02:02:17 | 00:00:00 | |
| OE5DXL-15 | 2026-09-01 00:31:45 | 48.23744 | 12.82809 | 130° | 16km/h | 31253m | 5.2m/s | -40.0°C | 2.2% | 10.0hPa | 2.5V | 00:00:00 | 00:00:00 | 00:00:00 | |
| DO3MHA-11 | 2026-09-01 00:31:43 | 48.23747 | 12.82799 | 111° | 11km/h | 31243m | 4.8m/s | -40.0°C | 2.2% | 10.1hPa | 2.5V | 00:00:00 | 02:02:14 | 00:00:00 | |
| OE5HKT-10 | 2026-09-01 00:31:39 | 48.23756 | 12.82783 | 163° | 16km/h | 31222m | 4.6m/s | -40.2°C | 2.1% | 10.1hPa | 2.5V | 00:00:00 | 00:00:00 | 00:00:00 | |
| OE5MMP-10 | 2026-09-01 00:31:36 | 48.23763 | 12.82783 | 189° | 16km/h | 31206m | 5.8m/s | -40.2°C | 2.2% | 10.1hPa | 2.6V | 00:00:00 | 02:02:07 | 00:00:00 | |
| DO3MHA-11 | 2026-09-01 00:31:33 | 48.23766 | 12.82777 | 116° | 15km/h | 31190m | 5.9m/s | -40.3°C | 2.2% | 10.1hPa | 2.6V | 00:00:00 | 02:02:04 | 08:30:00 | |
| OE5WHR-10 | 2026-09-01 00:31:32 | 48.23768 | 12.82771 | 117° | 22km/h | 31184m | 6.3m/s | -40.4°C | 2.2% | 10.1hPa | 2.6V | 00:00:00 | 00:00:00 | 08:30:00 | |
| BAUMI2-15 | 2026-09-01 00:31:29 | 48.23775 | 12.82744 | 108° | 18km/h | 31169m | 5.8m/s | -40.5°C | 2.2% | 10.2hPa | 2.5V | 00:00:00 | 02:02:00 | 00:00:00 | |
| BAUMI2-15 | 2026-09-01 00:31:24 | 48.23782 | 12.82713 | 145° | 18km/h | 31141m | 6.2m/s | -40.5°C | 2.2% | 10.2hPa | 2.5V | 00:00:00 | 02:01:55 | 00:00:00 | |
| BAUMI2-15 | 2026-09-01 00:31:19 | 48.23804 | 12.82697 | 146° | 22km/h | 31114m | 5.7m/s | -40.6°C | 2.2% | 10.3hPa | 2.5V | 00:00:00 | 02:01:50 | 00:00:00 | |
| OE5HKT-10 | 2026-09-01 00:31:18 | 48.23808 | 12.82693 | 140° | 18km/h | 31108m | 4.8m/s | -40.6°C | 2.2% | 10.3hPa | 2.5V | 00:00:00 | 00:00:00 | 00:00:00 | |
| OE5MMP-10 | 2026-09-01 00:31:16 | 48.23816 | 12.82683 | 141° | 18km/h | 31098m | 6.0m/s | -40.6°C | 2.2% | 10.3hPa | 2.5V | 00:00:00 | 02:01:47 | 00:00:00 | |
| OE5DXL-15 | 2026-09-01 00:31:15 | 48.23827 | 12.82670 | 143° | 16km/h | 31087m | 5.3m/s | -40.6°C | 2.2% | 10.3hPa | 2.6V | 00:00:00 | 00:00:00 | 00:00:00 | |
| BAUMI2-15 | 2026-09-01 00:31:14 | 48.23827 | 12.82670 | 143° | 22km/h | 31087m | 5.3m/s | -40.6°C | 2.2% | 10.3hPa | 2.6V | 00:00:00 | 02:01:45 | 08:30:00 | |
| OE5WHR-10 | 2026-09-01 00:31:11 | 48.23841 | 12.82652 | 134° | 15km/h | 31071m | 6.4m/s | -40.7°C | 2.2% | 10.3hPa | 2.6V | 00:00:00 | 00:00:00 | 00:00:00 | |
| BAUMI2-15 | 2026-09-01 00:31:09 | 48.23845 | 12.82644 | 116° | 13km/h | 31059m | 5.1m/s | -40.7°C | 2.3% | 10.3hPa | 2.6V | 00:00:00 | 02:01:40 | 00:00:00 | |
| OE5MMP-10 | 2026-09-01 00:31:06 | 48.23850 | 12.82634 | 140° | 18km/h | 31043m | 5.8m/s | -40.8°C | 2.3% | 10.4hPa | 2.6V | 00:00:00 | 02:01:37 | 00:00:00 | |
| BAUMI2-15 | 2026-09-01 00:31:04 | 48.23857 | 12.82626 | 140° | 18km/h | 31032m | 4.3m/s | -40.8°C | 2.2% | 10.4hPa | 2.6V | 00:00:00 | 02:01:35 | 00:00:00 | |
| OE5FHM-15 | 2026-09-01 00:31:03 | 48.23860 | 12.82621 | 133° | 15km/h | 31028m | 4.4m/s | -40.9°C | 2.3% | 10.4hPa | 2.6V | 00:00:00 | 02:01:34 | 00:00:00 | |
| BAUMI2-15 | 2026-09-01 00:30:59 | 48.23866 | 12.82595 | 88° | 20km/h | 31005m | 5.1m/s | -40.9°C | 2.3% | 10.4hPa | 2.6V | 00:00:00 | 02:01:30 | 00:00:00 | |
| OE5HKT-10 | 2026-09-01 00:30:57 | 48.23866 | 12.82580 | 98° | 15km/h | 30994m | 5.9m/s | -40.9°C | 2.3% | 10.4hPa | 2.5V | 00:00:00 | 02:01:28 | 00:00:00 | |
| OE5MMP-10 | 2026-09-01 00:30:56 | 48.23867 | 12.82573 | 104° | 11km/h | 30988m | 5.2m/s | -40.9°C | 2.3% | 10.4hPa | 2.5V | 00:00:00 | 02:01:27 | 00:00:00 | |
| BAUMI2-15 | 2026-09-01 00:30:54 | 48.23869 | 12.82559 | 98° | 9km/h | 30978m | 5.6m/s | -40.9°C | 2.2% | 10.5hPa | 2.5V | 00:00:00 | 02:01:25 | 00:00:00 | |
| OE5WHR-10 | 2026-09-01 00:30:50 | 48.23869 | 12.82547 | 136° | 15km/h | 30955m | 6.1m/s | -40.9°C | 2.2% | 10.5hPa | 2.5V | 00:00:00 | 02:01:21 | 00:00:00 | |
| BAUMI2-15 | 2026-09-01 00:30:49 | 48.23871 | 12.82546 | 159° | 11km/h | 30948m | 6.4m/s | -40.9°C | 2.2% | 10.5hPa | 2.5V | 00:00:00 | 02:01:20 | 00:00:00 | |
| OE5MMP-10 | 2026-09-01 00:30:46 | 48.23877 | 12.82540 | 128° | 16km/h | 30934m | 4.6m/s | -40.9°C | 2.2% | 10.5hPa | 2.5V | 00:00:00 | 02:01:17 | 08:30:00 | |
| BAUMI2-15 | 2026-09-01 00:30:44 | 48.23878 | 12.82532 | 74° | 18km/h | 30922m | 6.3m/s | -41.0°C | 2.3% | 10.6hPa | 2.5V | 00:00:00 | 02:01:15 | 00:00:00 | |
| BAUMI2-15 | 2026-09-01 00:30:39 | 48.23870 | 12.82498 | 95° | 15km/h | 30894m | 5.6m/s | -41.2°C | 2.3% | 10.6hPa | 2.6V | 00:00:00 | 02:01:10 | 00:00:00 | |
| PG1ADW-2 | 2026-09-01 00:30:37 | 48.23872 | 12.82486 | 112° | 16km/h | 30884m | 4.5m/s | -41.3°C | 2.3% | 10.6hPa | 2.6V | 00:00:00 | 00:00:00 | 00:00:00 | |
| OE5HKT-10 | 2026-09-01 00:30:36 | 48.23873 | 12.82481 | 102° | 18km/h | 30879m | 5.7m/s | -41.3°C | 2.3% | 10.6hPa | 2.6V | 00:00:00 | 00:00:00 | 08:30:00 | |
| BAUMI2-15 | 2026-09-01 00:30:34 | 48.23872 | 12.82475 | 40° | 16km/h | 30867m | 5.7m/s | -41.4°C | 2.3% | 10.7hPa | 2.5V | 00:00:00 | 02:01:05 | 00:00:00 | |
| OE5FHM-15 | 2026-09-01 00:30:33 | 48.23869 | 12.82472 | 31° | 20km/h | 30862m | 4.9m/s | -41.4°C | 2.3% | 10.7hPa | 2.5V | 00:00:00 | 02:01:04 | 00:00:00 | |
| OE5WHR-10 | 2026-09-01 00:30:29 | 48.23859 | 12.82450 | 87° | 22km/h | 30840m | 5.6m/s | -41.6°C | 2.3% | 10.7hPa | 2.5V | 00:00:00 | 00:00:00 | 00:00:00 | |
| OE5MMP-10 | 2026-09-01 00:30:26 | 48.23861 | 12.82423 | 99° | 18km/h | 30824m | 6.0m/s | -41.7°C | 2.3% | 10.7hPa | 2.5V | 00:00:00 | 02:00:57 | 00:00:00 | |
| BAUMI2-15 | 2026-09-01 00:30:24 | 48.23862 | 12.82408 | 90° | 16km/h | 30812m | 5.3m/s | -41.7°C | 2.4% | 10.7hPa | 2.5V | 00:00:00 | 02:00:55 | 00:00:00 | |
| BAUMI2-15 | 2026-09-01 00:30:19 | 48.23864 | 12.82376 | 101° | 18km/h | 30784m | 5.1m/s | -41.7°C | 2.4% | 10.8hPa | 2.5V | 00:00:00 | 02:00:50 | 00:00:00 | |
| OE5MMP-10 | 2026-09-01 00:30:17 | 48.23864 | 12.82356 | 78° | 26km/h | 30766m | 5.3m/s | -41.7°C | 2.3% | 10.8hPa | 2.5V | 00:00:00 | 02:00:47 | 00:00:00 | |
| OE5HKT-10 | 2026-09-01 00:30:15 | 48.23863 | 12.82348 | 82° | 24km/h | 30761m | 4.9m/s | -41.7°C | 2.3% | 10.8hPa | 2.6V | 00:00:00 | 00:00:00 | 00:00:00 | |
| BAUMI2-15 | 2026-09-01 00:30:14 | 48.23862 | 12.82340 | 90° | 27km/h | 30755m | 6.0m/s | -41.6°C | 2.3% | 10.9hPa | 2.6V | 00:00:00 | 02:00:45 | 00:00:00 | |
| BAUMI2-15 | 2026-09-01 00:30:09 | 48.23869 | 12.82290 | 96° | 22km/h | 30726m | 6.3m/s | -41.6°C | 2.3% | 10.9hPa | 2.5V | 00:00:00 | 02:00:40 | 00:00:00 | |
| OE5WHR-10 | 2026-09-01 00:30:08 | 48.23869 | 12.82282 | 86° | 24km/h | 30720m | 5.6m/s | -41.6°C | 2.3% | 10.9hPa | 2.5V | 00:00:00 | 00:00:00 | 00:00:00 | |
| OE5MMP-10 | 2026-09-01 00:30:06 | 48.23867 | 12.82267 | 80° | 24km/h | 30710m | 5.2m/s | -41.7°C | 2.3% | 10.9hPa | 2.5V | 00:00:00 | 02:00:37 | 00:00:00 | |
| BAUMI2-15 | 2026-09-01 00:30:04 | 48.23866 | 12.82250 | 90° | 26km/h | 30698m | 5.8m/s | -41.8°C | 2.3% | 11.0hPa | 2.5V | 00:00:00 | 02:00:35 | 00:00:00 | |
| BAUMI2-15 | 2026-09-01 00:29:59 | 48.23863 | 12.82204 | 82° | 22km/h | 30669m | 5.1m/s | -41.9°C | 2.3% | 11.0hPa | 2.5V | 00:00:00 | 02:00:30 | 00:00:00 | |
| OE5MMP-10 | 2026-09-01 00:29:56 | 48.23864 | 12.82179 | 105° | 22km/h | 30652m | 5.6m/s | -41.9°C | 2.3% | 11.0hPa | 2.6V | 00:00:00 | 02:00:27 | 00:00:00 | |
| BAUMI2-15 | 2026-09-01 00:29:54 | 48.23867 | 12.82162 | 99° | 22km/h | 30642m | 5.3m/s | -41.9°C | 2.3% | 11.0hPa | 2.6V | 00:00:00 | 02:00:25 | 00:00:00 | |
| BAUMI2-15 | 2026-09-01 00:29:49 | 48.23860 | 12.82121 | 79° | 29km/h | 30614m | 6.4m/s | -42.0°C | 2.3% | 11.1hPa | 2.6V | 00:00:00 | 02:00:20 | 00:00:00 | |
| OE5WHR-10 | 2026-09-01 00:29:47 | 48.23860 | 12.82099 | 95° | 22km/h | 30602m | 4.6m/s | -42.1°C | 2.3% | 11.1hPa | 2.6V | 00:00:00 | 02:00:18 | 00:00:00 | |
| OE5MMP-10 | 2026-09-01 00:29:45 | 48.23862 | 12.82078 | 100° | 20km/h | 30592m | 6.1m/s | -42.2°C | 2.4% | 11.1hPa | 2.6V | 00:00:00 | 02:00:16 | 00:00:00 | |
| BAUMI2-15 | 2026-09-01 00:29:44 | 48.23862 | 12.82069 | 99° | 18km/h | 30586m | 6.3m/s | -42.3°C | 2.4% | 11.1hPa | 2.5V | 00:00:00 | 02:00:15 | 08:30:00 | |
| BAUMI2-15 | 2026-09-01 00:29:39 | 48.23864 | 12.82035 | 94° | 26km/h | 30558m | 5.8m/s | -42.4°C | 2.4% | 11.2hPa | 2.5V | 00:00:00 | 02:00:10 | 00:00:00 | |
| OE5MMP-10 | 2026-09-01 00:29:35 | 48.23862 | 12.81995 | 72° | 20km/h | 30536m | 6.0m/s | -42.4°C | 2.4% | 11.2hPa | 2.5V | 00:00:00 | 02:00:06 | 00:00:00 | |
| Es werden nur die letzten 3500 von 5873 Frames angezeigt. GPX/KML und Diagramme bleiben verfügbar. | |||||||||||||||